<?xml version="1.0" encoding="UTF-8" standalone="no" ?>
<gpx xmlns="http://www.topografix.com/GPX/1/1" xmlns:xsi="http://www.w3.org/2001/XMLSchema-instance" xsi:schemaLocation="http://www.topografix.com/GPX/1/1 http://www.topografix.com/GPX/1/1/gpx.xsd" version="1.1" creator="VisuGPX - https://www.visugpx.com">
  <metadata>
    <name>Tour d'Europe: étape 035</name>
    <desc><![CDATA[Étape 035]]></desc>
  </metadata>
  <trk>
    <name><![CDATA[Tour d'Europe: étape 035]]></name>
    <trkseg>
      <trkpt lat="62.69912" lon="6.69878">
        <ele>49.952677</ele>
        <time>2020-08-02T07:46:13.848Z</time>
      </trkpt>
      <trkpt lat="62.69904" lon="6.69892">
        <ele>49.952677</ele>
        <time>2020-08-02T07:46:19.865Z</time>
      </trkpt>
      <trkpt lat="62.69902" lon="6.69913">
        <ele>49.952677</ele>
        <time>2020-08-02T07:46:22.883Z</time>
      </trkpt>
      <trkpt lat="62.699" lon="6.69937">
        <ele>49.952677</ele>
        <time>2020-08-02T07:46:25.905Z</time>
      </trkpt>
      <trkpt lat="62.69897" lon="6.69962">
        <ele>49.952677</ele>
        <time>2020-08-02T07:46:28.874Z</time>
      </trkpt>
      <trkpt lat="62.69893" lon="6.69985">
        <ele>49.952677</ele>
        <time>2020-08-02T07:46:31.876Z</time>
      </trkpt>
      <trkpt lat="62.69888" lon="6.70001">
        <ele>49.952677</ele>
        <time>2020-08-02T07:46:34.868Z</time>
      </trkpt>
      <trkpt lat="62.69882" lon="6.70023">
        <ele>49.952677</ele>
        <time>2020-08-02T07:46:38.851Z</time>
      </trkpt>
      <trkpt lat="62.69875" lon="6.70041">
        <ele>49.952677</ele>
        <time>2020-08-02T07:46:42.877Z</time>
      </trkpt>
      <trkpt lat="62.69869" lon="6.70057">
        <ele>50.010767</ele>
        <time>2020-08-02T07:46:46.899Z</time>
      </trkpt>
      <trkpt lat="62.69872" lon="6.70081">
        <ele>50.150827</ele>
        <time>2020-08-02T07:46:51.859Z</time>
      </trkpt>
      <trkpt lat="62.69879" lon="6.70102">
        <ele>50.289762</ele>
        <time>2020-08-02T07:46:54.861Z</time>
      </trkpt>
      <trkpt lat="62.69886" lon="6.70126">
        <ele>50.451304</ele>
        <time>2020-08-02T07:46:57.865Z</time>
      </trkpt>
      <trkpt lat="62.69893" lon="6.70142">
        <ele>50.566233</ele>
        <time>2020-08-02T07:46:59.857Z</time>
      </trkpt>
      <trkpt lat="62.69899" lon="6.70158">
        <ele>50.683413</ele>
        <time>2020-08-02T07:47:01.851Z</time>
      </trkpt>
      <trkpt lat="62.69905" lon="6.70175">
        <ele>50.804427</ele>
        <time>2020-08-02T07:47:03.873Z</time>
      </trkpt>
      <trkpt lat="62.69911" lon="6.70192">
        <ele>50.92551</ele>
        <time>2020-08-02T07:47:05.867Z</time>
      </trkpt>
      <trkpt lat="62.69918" lon="6.70209">
        <ele>51.047549</ele>
        <time>2020-08-02T07:47:07.863Z</time>
      </trkpt>
      <trkpt lat="62.69924" lon="6.70226">
        <ele>51.171329</ele>
        <time>2020-08-02T07:47:09.868Z</time>
      </trkpt>
      <trkpt lat="62.6993" lon="6.70245">
        <ele>51.29848</ele>
        <time>2020-08-02T07:47:11.875Z</time>
      </trkpt>
      <trkpt lat="62.69937" lon="6.70263">
        <ele>51.427437</ele>
        <time>2020-08-02T07:47:13.900Z</time>
      </trkpt>
      <trkpt lat="62.69944" lon="6.7028">
        <ele>51.554178</ele>
        <time>2020-08-02T07:47:15.851Z</time>
      </trkpt>
      <trkpt lat="62.69951" lon="6.70298">
        <ele>51.679364</ele>
        <time>2020-08-02T07:47:17.861Z</time>
      </trkpt>
      <trkpt lat="62.69957" lon="6.70315">
        <ele>51.803001</ele>
        <time>2020-08-02T07:47:19.877Z</time>
      </trkpt>
      <trkpt lat="62.69963" lon="6.70333">
        <ele>51.92637</ele>
        <time>2020-08-02T07:47:21.866Z</time>
      </trkpt>
      <trkpt lat="62.69969" lon="6.7035">
        <ele>52.047752</ele>
        <time>2020-08-02T07:47:23.889Z</time>
      </trkpt>
      <trkpt lat="62.69976" lon="6.70366">
        <ele>52.192252</ele>
        <time>2020-08-02T07:47:25.880Z</time>
      </trkpt>
      <trkpt lat="62.69985" lon="6.70387">
        <ele>52.47856</ele>
        <time>2020-08-02T07:47:28.896Z</time>
      </trkpt>
      <trkpt lat="62.69995" lon="6.70406">
        <ele>52.763396</ele>
        <time>2020-08-02T07:47:31.862Z</time>
      </trkpt>
      <trkpt lat="62.70006" lon="6.70422">
        <ele>53.044926</ele>
        <time>2020-08-02T07:47:34.883Z</time>
      </trkpt>
      <trkpt lat="62.70016" lon="6.70437">
        <ele>53.311317</ele>
        <time>2020-08-02T07:47:37.865Z</time>
      </trkpt>
      <trkpt lat="62.70026" lon="6.7045">
        <ele>53.563947</ele>
        <time>2020-08-02T07:47:40.903Z</time>
      </trkpt>
      <trkpt lat="62.70037" lon="6.70461">
        <ele>53.811206</ele>
        <time>2020-08-02T07:47:43.880Z</time>
      </trkpt>
      <trkpt lat="62.70047" lon="6.70471">
        <ele>54.05438</ele>
        <time>2020-08-02T07:47:46.892Z</time>
      </trkpt>
      <trkpt lat="62.70057" lon="6.7048">
        <ele>54.287774</ele>
        <time>2020-08-02T07:47:49.861Z</time>
      </trkpt>
      <trkpt lat="62.70067" lon="6.70488">
        <ele>54.510158</ele>
        <time>2020-08-02T07:47:52.879Z</time>
      </trkpt>
      <trkpt lat="62.70077" lon="6.70498">
        <ele>54.740377</ele>
        <time>2020-08-02T07:47:55.856Z</time>
      </trkpt>
      <trkpt lat="62.70085" lon="6.70507">
        <ele>54.948714</ele>
        <time>2020-08-02T07:47:58.869Z</time>
      </trkpt>
      <trkpt lat="62.70095" lon="6.70515">
        <ele>55.159339</ele>
        <time>2020-08-02T07:48:01.855Z</time>
      </trkpt>
      <trkpt lat="62.70103" lon="6.70523">
        <ele>55.354256</ele>
        <time>2020-08-02T07:48:04.895Z</time>
      </trkpt>
      <trkpt lat="62.70113" lon="6.70532">
        <ele>55.585671</ele>
        <time>2020-08-02T07:48:08.881Z</time>
      </trkpt>
      <trkpt lat="62.70122" lon="6.70545">
        <ele>55.815523</ele>
        <time>2020-08-02T07:48:12.885Z</time>
      </trkpt>
      <trkpt lat="62.70131" lon="6.70557">
        <ele>56.11644</ele>
        <time>2020-08-02T07:48:16.874Z</time>
      </trkpt>
      <trkpt lat="62.7014" lon="6.70571">
        <ele>56.650688</ele>
        <time>2020-08-02T07:48:20.849Z</time>
      </trkpt>
      <trkpt lat="62.70149" lon="6.70586">
        <ele>57.194362</ele>
        <time>2020-08-02T07:48:24.845Z</time>
      </trkpt>
      <trkpt lat="62.70158" lon="6.70601">
        <ele>57.748135</ele>
        <time>2020-08-02T07:48:28.876Z</time>
      </trkpt>
      <trkpt lat="62.70165" lon="6.70615">
        <ele>58.19542</ele>
        <time>2020-08-02T07:48:31.875Z</time>
      </trkpt>
      <trkpt lat="62.70173" lon="6.70627">
        <ele>58.654562</ele>
        <time>2020-08-02T07:48:34.896Z</time>
      </trkpt>
      <trkpt lat="62.7018" lon="6.70642">
        <ele>59.134984</ele>
        <time>2020-08-02T07:48:37.877Z</time>
      </trkpt>
      <trkpt lat="62.70187" lon="6.70658">
        <ele>59.636157</ele>
        <time>2020-08-02T07:48:40.867Z</time>
      </trkpt>
      <trkpt lat="62.70195" lon="6.70674">
        <ele>60.138636</ele>
        <time>2020-08-02T07:48:43.849Z</time>
      </trkpt>
      <trkpt lat="62.70203" lon="6.70688">
        <ele>60.625888</ele>
        <time>2020-08-02T07:48:46.876Z</time>
      </trkpt>
      <trkpt lat="62.7021" lon="6.70702">
        <ele>61.08568</ele>
        <time>2020-08-02T07:48:49.872Z</time>
      </trkpt>
      <trkpt lat="62.70217" lon="6.70719">
        <ele>61.616043</ele>
        <time>2020-08-02T07:48:53.876Z</time>
      </trkpt>
      <trkpt lat="62.70224" lon="6.70737">
        <ele>62.111939</ele>
        <time>2020-08-02T07:48:57.852Z</time>
      </trkpt>
      <trkpt lat="62.70231" lon="6.7075">
        <ele>62.547605</ele>
        <time>2020-08-02T07:49:01.877Z</time>
      </trkpt>
      <trkpt lat="62.7024" lon="6.7076">
        <ele>63.040577</ele>
        <time>2020-08-02T07:49:06.901Z</time>
      </trkpt>
      <trkpt lat="62.70248" lon="6.70774">
        <ele>63.548899</ele>
        <time>2020-08-02T07:49:11.854Z</time>
      </trkpt>
      <trkpt lat="62.70257" lon="6.70787">
        <ele>64.073726</ele>
        <time>2020-08-02T07:49:16.881Z</time>
      </trkpt>
      <trkpt lat="62.70265" lon="6.70797">
        <ele>64.519207</ele>
        <time>2020-08-02T07:49:20.866Z</time>
      </trkpt>
      <trkpt lat="62.70275" lon="6.70809">
        <ele>64.470116</ele>
        <time>2020-08-02T07:49:25.877Z</time>
      </trkpt>
      <trkpt lat="62.70282" lon="6.7082">
        <ele>64.306576</ele>
        <time>2020-08-02T07:49:29.845Z</time>
      </trkpt>
      <trkpt lat="62.7029" lon="6.7083">
        <ele>64.14166</ele>
        <time>2020-08-02T07:49:33.858Z</time>
      </trkpt>
      <trkpt lat="62.70298" lon="6.70841">
        <ele>63.971706</ele>
        <time>2020-08-02T07:49:37.848Z</time>
      </trkpt>
      <trkpt lat="62.70307" lon="6.70852">
        <ele>63.792605</ele>
        <time>2020-08-02T07:49:41.851Z</time>
      </trkpt>
      <trkpt lat="62.70316" lon="6.70866">
        <ele>63.587982</ele>
        <time>2020-08-02T07:49:45.867Z</time>
      </trkpt>
      <trkpt lat="62.70326" lon="6.70877">
        <ele>63.394468</ele>
        <time>2020-08-02T07:49:48.855Z</time>
      </trkpt>
      <trkpt lat="62.70337" lon="6.70889">
        <ele>63.162925</ele>
        <time>2020-08-02T07:49:51.856Z</time>
      </trkpt>
      <trkpt lat="62.70348" lon="6.70903">
        <ele>62.94321</ele>
        <time>2020-08-02T07:49:53.879Z</time>
      </trkpt>
      <trkpt lat="62.70361" lon="6.70919">
        <ele>62.671451</ele>
        <time>2020-08-02T07:49:55.860Z</time>
      </trkpt>
      <trkpt lat="62.70375" lon="6.70935">
        <ele>62.384724</ele>
        <time>2020-08-02T07:49:57.880Z</time>
      </trkpt>
      <trkpt lat="62.70389" lon="6.70953">
        <ele>62.097935</ele>
        <time>2020-08-02T07:49:59.855Z</time>
      </trkpt>
      <trkpt lat="62.70403" lon="6.70971">
        <ele>61.807091</ele>
        <time>2020-08-02T07:50:01.866Z</time>
      </trkpt>
      <trkpt lat="62.70416" lon="6.70988">
        <ele>61.520303</ele>
        <time>2020-08-02T07:50:03.874Z</time>
      </trkpt>
      <trkpt lat="62.70429" lon="6.71005">
        <ele>61.361448</ele>
        <time>2020-08-02T07:50:05.862Z</time>
      </trkpt>
      <trkpt lat="62.70441" lon="6.71022">
        <ele>61.311358</ele>
        <time>2020-08-02T07:50:07.858Z</time>
      </trkpt>
      <trkpt lat="62.70453" lon="6.71038">
        <ele>61.264165</ele>
        <time>2020-08-02T07:50:09.875Z</time>
      </trkpt>
      <trkpt lat="62.70463" lon="6.71053">
        <ele>61.21977</ele>
        <time>2020-08-02T07:50:11.867Z</time>
      </trkpt>
      <trkpt lat="62.70473" lon="6.71067">
        <ele>61.179098</ele>
        <time>2020-08-02T07:50:13.880Z</time>
      </trkpt>
      <trkpt lat="62.70483" lon="6.71078">
        <ele>61.142397</ele>
        <time>2020-08-02T07:50:15.866Z</time>
      </trkpt>
      <trkpt lat="62.70491" lon="6.71088">
        <ele>61.110053</ele>
        <time>2020-08-02T07:50:17.850Z</time>
      </trkpt>
      <trkpt lat="62.70502" lon="6.71101">
        <ele>61.06586</ele>
        <time>2020-08-02T07:50:20.849Z</time>
      </trkpt>
      <trkpt lat="62.70512" lon="6.71113">
        <ele>61.02495</ele>
        <time>2020-08-02T07:50:23.864Z</time>
      </trkpt>
      <trkpt lat="62.70523" lon="6.71123">
        <ele>60.982741</ele>
        <time>2020-08-02T07:50:26.850Z</time>
      </trkpt>
      <trkpt lat="62.70535" lon="6.71135">
        <ele>60.938605</ele>
        <time>2020-08-02T07:50:29.875Z</time>
      </trkpt>
      <trkpt lat="62.70546" lon="6.71147">
        <ele>60.894826</ele>
        <time>2020-08-02T07:50:32.867Z</time>
      </trkpt>
      <trkpt lat="62.70558" lon="6.7116">
        <ele>60.848817</ele>
        <time>2020-08-02T07:50:35.879Z</time>
      </trkpt>
      <trkpt lat="62.70567" lon="6.71169">
        <ele>60.814684</ele>
        <time>2020-08-02T07:50:37.854Z</time>
      </trkpt>
      <trkpt lat="62.70576" lon="6.71178">
        <ele>60.780169</ele>
        <time>2020-08-02T07:50:39.874Z</time>
      </trkpt>
      <trkpt lat="62.70585" lon="6.71188">
        <ele>60.883039</ele>
        <time>2020-08-02T07:50:41.901Z</time>
      </trkpt>
      <trkpt lat="62.70594" lon="6.71197">
        <ele>61.136751</ele>
        <time>2020-08-02T07:50:43.868Z</time>
      </trkpt>
      <trkpt lat="62.70603" lon="6.71206">
        <ele>61.386121</ele>
        <time>2020-08-02T07:50:45.882Z</time>
      </trkpt>
      <trkpt lat="62.70612" lon="6.71216">
        <ele>61.634478</ele>
        <time>2020-08-02T07:50:47.879Z</time>
      </trkpt>
      <trkpt lat="62.70621" lon="6.71225">
        <ele>61.883847</ele>
        <time>2020-08-02T07:50:49.855Z</time>
      </trkpt>
      <trkpt lat="62.70629" lon="6.71234">
        <ele>62.11216</ele>
        <time>2020-08-02T07:50:51.865Z</time>
      </trkpt>
      <trkpt lat="62.70637" lon="6.71243">
        <ele>62.33969</ele>
        <time>2020-08-02T07:50:53.855Z</time>
      </trkpt>
      <trkpt lat="62.70645" lon="6.71252">
        <ele>62.565709</ele>
        <time>2020-08-02T07:50:55.875Z</time>
      </trkpt>
      <trkpt lat="62.70656" lon="6.71264">
        <ele>62.879109</ele>
        <time>2020-08-02T07:50:58.875Z</time>
      </trkpt>
      <trkpt lat="62.70666" lon="6.71276">
        <ele>63.170249</ele>
        <time>2020-08-02T07:51:01.859Z</time>
      </trkpt>
      <trkpt lat="62.70676" lon="6.71286">
        <ele>63.446229</ele>
        <time>2020-08-02T07:51:04.871Z</time>
      </trkpt>
      <trkpt lat="62.70686" lon="6.71297">
        <ele>63.723216</ele>
        <time>2020-08-02T07:51:07.921Z</time>
      </trkpt>
      <trkpt lat="62.70696" lon="6.71308">
        <ele>64.001052</ele>
        <time>2020-08-02T07:51:10.874Z</time>
      </trkpt>
      <trkpt lat="62.70705" lon="6.7132">
        <ele>64.270622</ele>
        <time>2020-08-02T07:51:13.901Z</time>
      </trkpt>
      <trkpt lat="62.70715" lon="6.71331">
        <ele>64.556177</ele>
        <time>2020-08-02T07:51:16.863Z</time>
      </trkpt>
      <trkpt lat="62.70726" lon="6.71342">
        <ele>64.845968</ele>
        <time>2020-08-02T07:51:19.901Z</time>
      </trkpt>
      <trkpt lat="62.70737" lon="6.71356">
        <ele>65.166802</ele>
        <time>2020-08-02T07:51:22.868Z</time>
      </trkpt>
      <trkpt lat="62.70744" lon="6.71367">
        <ele>65.18986</ele>
        <time>2020-08-02T07:51:24.863Z</time>
      </trkpt>
      <trkpt lat="62.70753" lon="6.71377">
        <ele>64.99914</ele>
        <time>2020-08-02T07:51:26.856Z</time>
      </trkpt>
      <trkpt lat="62.70761" lon="6.71389">
        <ele>64.803792</ele>
        <time>2020-08-02T07:51:28.865Z</time>
      </trkpt>
      <trkpt lat="62.7077" lon="6.71402">
        <ele>64.588501</ele>
        <time>2020-08-02T07:51:30.858Z</time>
      </trkpt>
      <trkpt lat="62.70779" lon="6.71417">
        <ele>64.358403</ele>
        <time>2020-08-02T07:51:32.876Z</time>
      </trkpt>
      <trkpt lat="62.7079" lon="6.71436">
        <ele>64.096087</ele>
        <time>2020-08-02T07:51:34.877Z</time>
      </trkpt>
      <trkpt lat="62.70801" lon="6.71458">
        <ele>63.794044</ele>
        <time>2020-08-02T07:51:36.877Z</time>
      </trkpt>
      <trkpt lat="62.70814" lon="6.71483">
        <ele>63.456708</ele>
        <time>2020-08-02T07:51:38.891Z</time>
      </trkpt>
      <trkpt lat="62.7082" lon="6.71497">
        <ele>63.275985</ele>
        <time>2020-08-02T07:51:39.918Z</time>
      </trkpt>
      <trkpt lat="62.70827" lon="6.7151">
        <ele>63.091743</ele>
        <time>2020-08-02T07:51:40.868Z</time>
      </trkpt>
      <trkpt lat="62.70834" lon="6.71524">
        <ele>62.910519</ele>
        <time>2020-08-02T07:51:41.867Z</time>
      </trkpt>
      <trkpt lat="62.70848" lon="6.7155">
        <ele>62.553361</ele>
        <time>2020-08-02T07:51:43.887Z</time>
      </trkpt>
      <trkpt lat="62.70855" lon="6.71563">
        <ele>62.370054</ele>
        <time>2020-08-02T07:51:44.850Z</time>
      </trkpt>
      <trkpt lat="62.70861" lon="6.71576">
        <ele>62.192989</ele>
        <time>2020-08-02T07:51:45.898Z</time>
      </trkpt>
      <trkpt lat="62.70874" lon="6.71602">
        <ele>61.84533</ele>
        <time>2020-08-02T07:51:47.855Z</time>
      </trkpt>
      <trkpt lat="62.70886" lon="6.71627">
        <ele>61.748075</ele>
        <time>2020-08-02T07:51:49.876Z</time>
      </trkpt>
      <trkpt lat="62.70897" lon="6.71649">
        <ele>61.777109</ele>
        <time>2020-08-02T07:51:51.861Z</time>
      </trkpt>
      <trkpt lat="62.70906" lon="6.71668">
        <ele>61.80147</ele>
        <time>2020-08-02T07:51:53.859Z</time>
      </trkpt>
      <trkpt lat="62.70914" lon="6.71686">
        <ele>61.823401</ele>
        <time>2020-08-02T07:51:55.855Z</time>
      </trkpt>
      <trkpt lat="62.70921" lon="6.717">
        <ele>61.84219</ele>
        <time>2020-08-02T07:51:57.884Z</time>
      </trkpt>
      <trkpt lat="62.70928" lon="6.71713">
        <ele>61.859645</ele>
        <time>2020-08-02T07:51:59.869Z</time>
      </trkpt>
      <trkpt lat="62.70936" lon="6.7173">
        <ele>61.881875</ele>
        <time>2020-08-02T07:52:02.859Z</time>
      </trkpt>
      <trkpt lat="62.70945" lon="6.71747">
        <ele>61.903195</ele>
        <time>2020-08-02T07:52:05.856Z</time>
      </trkpt>
      <trkpt lat="62.70951" lon="6.71761">
        <ele>61.921477</ele>
        <time>2020-08-02T07:52:08.895Z</time>
      </trkpt>
      <trkpt lat="62.7096" lon="6.71779">
        <ele>61.945225</ele>
        <time>2020-08-02T07:52:12.895Z</time>
      </trkpt>
      <trkpt lat="62.70968" lon="6.71793">
        <ele>61.964702</ele>
        <time>2020-08-02T07:52:15.864Z</time>
      </trkpt>
      <trkpt lat="62.70976" lon="6.7181">
        <ele>61.985879</ele>
        <time>2020-08-02T07:52:18.872Z</time>
      </trkpt>
      <trkpt lat="62.70984" lon="6.71827">
        <ele>62.008135</ele>
        <time>2020-08-02T07:52:21.877Z</time>
      </trkpt>
      <trkpt lat="62.70993" lon="6.71844">
        <ele>62.030442</ele>
        <time>2020-08-02T07:52:24.868Z</time>
      </trkpt>
      <trkpt lat="62.71001" lon="6.7186">
        <ele>62.052025</ele>
        <time>2020-08-02T07:52:27.864Z</time>
      </trkpt>
      <trkpt lat="62.7101" lon="6.71878">
        <ele>62.075104</ele>
        <time>2020-08-02T07:52:30.862Z</time>
      </trkpt>
      <trkpt lat="62.71019" lon="6.71896">
        <ele>61.803485</ele>
        <time>2020-08-02T07:52:33.865Z</time>
      </trkpt>
      <trkpt lat="62.71028" lon="6.71915">
        <ele>61.497711</ele>
        <time>2020-08-02T07:52:36.868Z</time>
      </trkpt>
      <trkpt lat="62.71037" lon="6.71934">
        <ele>61.199869</ele>
        <time>2020-08-02T07:52:39.851Z</time>
      </trkpt>
      <trkpt lat="62.71047" lon="6.71952">
        <ele>60.904428</ele>
        <time>2020-08-02T07:52:42.863Z</time>
      </trkpt>
      <trkpt lat="62.71056" lon="6.71971">
        <ele>60.598655</ele>
        <time>2020-08-02T07:52:45.862Z</time>
      </trkpt>
      <trkpt lat="62.71065" lon="6.7199">
        <ele>60.290191</ele>
        <time>2020-08-02T07:52:48.886Z</time>
      </trkpt>
      <trkpt lat="62.71074" lon="6.72008">
        <ele>60.007676</ele>
        <time>2020-08-02T07:52:51.903Z</time>
      </trkpt>
      <trkpt lat="62.71083" lon="6.72028">
        <ele>59.705454</ele>
        <time>2020-08-02T07:52:54.865Z</time>
      </trkpt>
      <trkpt lat="62.7109" lon="6.72044">
        <ele>59.473978</ele>
        <time>2020-08-02T07:52:56.869Z</time>
      </trkpt>
      <trkpt lat="62.71097" lon="6.72062">
        <ele>59.21594</ele>
        <time>2020-08-02T07:52:58.890Z</time>
      </trkpt>
      <trkpt lat="62.71104" lon="6.72083">
        <ele>58.925522</ele>
        <time>2020-08-02T07:53:00.864Z</time>
      </trkpt>
      <trkpt lat="62.71112" lon="6.72108">
        <ele>58.600935</ele>
        <time>2020-08-02T07:53:02.877Z</time>
      </trkpt>
      <trkpt lat="62.7112" lon="6.72136">
        <ele>58.24241</ele>
        <time>2020-08-02T07:53:04.871Z</time>
      </trkpt>
      <trkpt lat="62.71128" lon="6.72167">
        <ele>57.856779</ele>
        <time>2020-08-02T07:53:06.864Z</time>
      </trkpt>
      <trkpt lat="62.71135" lon="6.72201">
        <ele>57.503267</ele>
        <time>2020-08-02T07:53:08.870Z</time>
      </trkpt>
      <trkpt lat="62.71138" lon="6.7222">
        <ele>57.319123</ele>
        <time>2020-08-02T07:53:09.873Z</time>
      </trkpt>
      <trkpt lat="62.71141" lon="6.7224">
        <ele>57.132212</ele>
        <time>2020-08-02T07:53:10.886Z</time>
      </trkpt>
      <trkpt lat="62.71143" lon="6.72259">
        <ele>56.951707</ele>
        <time>2020-08-02T07:53:11.855Z</time>
      </trkpt>
      <trkpt lat="62.71146" lon="6.72297">
        <ele>56.589763</ele>
        <time>2020-08-02T07:53:13.885Z</time>
      </trkpt>
      <trkpt lat="62.71148" lon="6.72336">
        <ele>56.237057</ele>
        <time>2020-08-02T07:53:15.857Z</time>
      </trkpt>
      <trkpt lat="62.71148" lon="6.72372">
        <ele>55.898771</ele>
        <time>2020-08-02T07:53:17.882Z</time>
      </trkpt>
      <trkpt lat="62.71148" lon="6.72407">
        <ele>55.582612</ele>
        <time>2020-08-02T07:53:19.860Z</time>
      </trkpt>
      <trkpt lat="62.71148" lon="6.72438">
        <ele>55.294019</ele>
        <time>2020-08-02T07:53:21.861Z</time>
      </trkpt>
      <trkpt lat="62.71148" lon="6.72468">
        <ele>55.021997</ele>
        <time>2020-08-02T07:53:23.857Z</time>
      </trkpt>
      <trkpt lat="62.71147" lon="6.72495">
        <ele>54.768884</ele>
        <time>2020-08-02T07:53:25.861Z</time>
      </trkpt>
      <trkpt lat="62.71146" lon="6.72521">
        <ele>54.533992</ele>
        <time>2020-08-02T07:53:27.870Z</time>
      </trkpt>
      <trkpt lat="62.71146" lon="6.72545">
        <ele>54.314206</ele>
        <time>2020-08-02T07:53:29.865Z</time>
      </trkpt>
      <trkpt lat="62.71145" lon="6.72569">
        <ele>54.282353</ele>
        <time>2020-08-02T07:53:31.869Z</time>
      </trkpt>
      <trkpt lat="62.71145" lon="6.72592">
        <ele>54.426221</ele>
        <time>2020-08-02T07:53:33.876Z</time>
      </trkpt>
      <trkpt lat="62.71145" lon="6.72615">
        <ele>54.564727</ele>
        <time>2020-08-02T07:53:35.881Z</time>
      </trkpt>
      <trkpt lat="62.71145" lon="6.72638">
        <ele>54.701317</ele>
        <time>2020-08-02T07:53:37.850Z</time>
      </trkpt>
      <trkpt lat="62.71145" lon="6.72662">
        <ele>54.847012</ele>
        <time>2020-08-02T07:53:39.855Z</time>
      </trkpt>
      <trkpt lat="62.71145" lon="6.72685">
        <ele>54.9921</ele>
        <time>2020-08-02T07:53:41.897Z</time>
      </trkpt>
      <trkpt lat="62.71145" lon="6.7271">
        <ele>55.140824</ele>
        <time>2020-08-02T07:53:43.862Z</time>
      </trkpt>
      <trkpt lat="62.71145" lon="6.72735">
        <ele>55.29567</ele>
        <time>2020-08-02T07:53:45.861Z</time>
      </trkpt>
      <trkpt lat="62.71146" lon="6.72761">
        <ele>55.451729</ele>
        <time>2020-08-02T07:53:47.862Z</time>
      </trkpt>
      <trkpt lat="62.71146" lon="6.72787">
        <ele>55.605923</ele>
        <time>2020-08-02T07:53:49.856Z</time>
      </trkpt>
      <trkpt lat="62.71146" lon="6.72811">
        <ele>55.755885</ele>
        <time>2020-08-02T07:53:51.854Z</time>
      </trkpt>
      <trkpt lat="62.71145" lon="6.72835">
        <ele>55.902883</ele>
        <time>2020-08-02T07:53:53.872Z</time>
      </trkpt>
      <trkpt lat="62.71145" lon="6.72859">
        <ele>56.048723</ele>
        <time>2020-08-02T07:53:55.887Z</time>
      </trkpt>
      <trkpt lat="62.71144" lon="6.72883">
        <ele>56.189953</ele>
        <time>2020-08-02T07:53:57.898Z</time>
      </trkpt>
      <trkpt lat="62.71143" lon="6.72904">
        <ele>56.321137</ele>
        <time>2020-08-02T07:53:59.855Z</time>
      </trkpt>
      <trkpt lat="62.71141" lon="6.72931">
        <ele>56.488207</ele>
        <time>2020-08-02T07:54:02.859Z</time>
      </trkpt>
      <trkpt lat="62.7114" lon="6.72951">
        <ele>56.812764</ele>
        <time>2020-08-02T07:54:05.860Z</time>
      </trkpt>
      <trkpt lat="62.71138" lon="6.72973">
        <ele>58.292762</ele>
        <time>2020-08-02T07:54:10.921Z</time>
      </trkpt>
      <trkpt lat="62.71136" lon="6.72994">
        <ele>59.744786</ele>
        <time>2020-08-02T07:54:15.873Z</time>
      </trkpt>
      <trkpt lat="62.71134" lon="6.73015">
        <ele>61.232973</ele>
        <time>2020-08-02T07:54:21.856Z</time>
      </trkpt>
      <trkpt lat="62.71133" lon="6.73038">
        <ele>62.76655</ele>
        <time>2020-08-02T07:54:27.882Z</time>
      </trkpt>
      <trkpt lat="62.71132" lon="6.7306">
        <ele>64.294764</ele>
        <time>2020-08-02T07:54:32.869Z</time>
      </trkpt>
      <trkpt lat="62.7113" lon="6.7308">
        <ele>65.698638</ele>
        <time>2020-08-02T07:54:37.870Z</time>
      </trkpt>
      <trkpt lat="62.7113" lon="6.73103">
        <ele>67.198979</ele>
        <time>2020-08-02T07:54:43.896Z</time>
      </trkpt>
      <trkpt lat="62.71131" lon="6.73123">
        <ele>68.586701</ele>
        <time>2020-08-02T07:54:48.854Z</time>
      </trkpt>
      <trkpt lat="62.71131" lon="6.73144">
        <ele>70.00478</ele>
        <time>2020-08-02T07:54:53.859Z</time>
      </trkpt>
      <trkpt lat="62.71132" lon="6.73165">
        <ele>71.455807</ele>
        <time>2020-08-02T07:54:59.869Z</time>
      </trkpt>
      <trkpt lat="62.71133" lon="6.73185">
        <ele>72.844273</ele>
        <time>2020-08-02T07:55:04.871Z</time>
      </trkpt>
      <trkpt lat="62.71134" lon="6.73208">
        <ele>74.353922</ele>
        <time>2020-08-02T07:55:09.879Z</time>
      </trkpt>
      <trkpt lat="62.71135" lon="6.73228">
        <ele>75.762574</ele>
        <time>2020-08-02T07:55:14.873Z</time>
      </trkpt>
      <trkpt lat="62.71137" lon="6.7325">
        <ele>77.258508</ele>
        <time>2020-08-02T07:55:19.909Z</time>
      </trkpt>
      <trkpt lat="62.71139" lon="6.73272">
        <ele>78.802825</ele>
        <time>2020-08-02T07:55:24.872Z</time>
      </trkpt>
      <trkpt lat="62.71142" lon="6.73294">
        <ele>80.353366</ele>
        <time>2020-08-02T07:55:29.866Z</time>
      </trkpt>
      <trkpt lat="62.71144" lon="6.73314">
        <ele>81.737478</ele>
        <time>2020-08-02T07:55:33.863Z</time>
      </trkpt>
      <trkpt lat="62.71147" lon="6.73333">
        <ele>83.094007</ele>
        <time>2020-08-02T07:55:37.849Z</time>
      </trkpt>
      <trkpt lat="62.7115" lon="6.73357">
        <ele>82.602609</ele>
        <time>2020-08-02T07:55:42.860Z</time>
      </trkpt>
      <trkpt lat="62.71153" lon="6.73379">
        <ele>82.024702</ele>
        <time>2020-08-02T07:55:46.894Z</time>
      </trkpt>
      <trkpt lat="62.71157" lon="6.73401">
        <ele>81.424969</ele>
        <time>2020-08-02T07:55:50.857Z</time>
      </trkpt>
      <trkpt lat="62.71161" lon="6.73423">
        <ele>80.793631</ele>
        <time>2020-08-02T07:55:54.871Z</time>
      </trkpt>
      <trkpt lat="62.71165" lon="6.73446">
        <ele>80.171567</ele>
        <time>2020-08-02T07:55:58.899Z</time>
      </trkpt>
      <trkpt lat="62.71169" lon="6.73464">
        <ele>79.647471</ele>
        <time>2020-08-02T07:56:01.856Z</time>
      </trkpt>
      <trkpt lat="62.71174" lon="6.73485">
        <ele>79.062629</ele>
        <time>2020-08-02T07:56:04.895Z</time>
      </trkpt>
      <trkpt lat="62.71179" lon="6.73507">
        <ele>78.44034</ele>
        <time>2020-08-02T07:56:07.848Z</time>
      </trkpt>
      <trkpt lat="62.71183" lon="6.73529">
        <ele>77.841064</ele>
        <time>2020-08-02T07:56:10.882Z</time>
      </trkpt>
      <trkpt lat="62.71187" lon="6.73549">
        <ele>77.260365</ele>
        <time>2020-08-02T07:56:13.857Z</time>
      </trkpt>
      <trkpt lat="62.71191" lon="6.73567">
        <ele>76.740852</ele>
        <time>2020-08-02T07:56:16.858Z</time>
      </trkpt>
      <trkpt lat="62.71196" lon="6.73588">
        <ele>76.151437</ele>
        <time>2020-08-02T07:56:20.887Z</time>
      </trkpt>
      <trkpt lat="62.71199" lon="6.73607">
        <ele>75.627334</ele>
        <time>2020-08-02T07:56:24.881Z</time>
      </trkpt>
      <trkpt lat="62.71204" lon="6.73626">
        <ele>75.060581</ele>
        <time>2020-08-02T07:56:28.870Z</time>
      </trkpt>
      <trkpt lat="62.71208" lon="6.73645">
        <ele>74.545767</ele>
        <time>2020-08-02T07:56:32.864Z</time>
      </trkpt>
      <trkpt lat="62.71212" lon="6.73664">
        <ele>74.005219</ele>
        <time>2020-08-02T07:56:36.897Z</time>
      </trkpt>
      <trkpt lat="62.71216" lon="6.73687">
        <ele>73.369014</ele>
        <time>2020-08-02T07:56:40.849Z</time>
      </trkpt>
      <trkpt lat="62.71221" lon="6.7371">
        <ele>73.130197</ele>
        <time>2020-08-02T07:56:44.860Z</time>
      </trkpt>
      <trkpt lat="62.71224" lon="6.73728">
        <ele>73.105867</ele>
        <time>2020-08-02T07:56:47.889Z</time>
      </trkpt>
      <trkpt lat="62.71228" lon="6.73746">
        <ele>73.081997</ele>
        <time>2020-08-02T07:56:50.883Z</time>
      </trkpt>
      <trkpt lat="62.71232" lon="6.73765">
        <ele>73.057132</ele>
        <time>2020-08-02T07:56:53.862Z</time>
      </trkpt>
      <trkpt lat="62.71236" lon="6.73784">
        <ele>73.030484</ele>
        <time>2020-08-02T07:56:56.902Z</time>
      </trkpt>
      <trkpt lat="62.71241" lon="6.73805">
        <ele>73.002304</ele>
        <time>2020-08-02T07:56:59.859Z</time>
      </trkpt>
      <trkpt lat="62.71246" lon="6.7383">
        <ele>72.969148</ele>
        <time>2020-08-02T07:57:02.901Z</time>
      </trkpt>
      <trkpt lat="62.7125" lon="6.73849">
        <ele>72.943842</ele>
        <time>2020-08-02T07:57:04.862Z</time>
      </trkpt>
      <trkpt lat="62.71255" lon="6.7387">
        <ele>72.915552</ele>
        <time>2020-08-02T07:57:06.878Z</time>
      </trkpt>
      <trkpt lat="62.71259" lon="6.73892">
        <ele>72.886818</ele>
        <time>2020-08-02T07:57:08.893Z</time>
      </trkpt>
      <trkpt lat="62.71264" lon="6.73914">
        <ele>72.85698</ele>
        <time>2020-08-02T07:57:10.877Z</time>
      </trkpt>
      <trkpt lat="62.71268" lon="6.73936">
        <ele>72.828027</ele>
        <time>2020-08-02T07:57:12.879Z</time>
      </trkpt>
      <trkpt lat="62.71273" lon="6.73959">
        <ele>72.796975</ele>
        <time>2020-08-02T07:57:14.908Z</time>
      </trkpt>
      <trkpt lat="62.71277" lon="6.73981">
        <ele>72.768117</ele>
        <time>2020-08-02T07:57:16.851Z</time>
      </trkpt>
      <trkpt lat="62.71281" lon="6.74002">
        <ele>72.74036</ele>
        <time>2020-08-02T07:57:18.869Z</time>
      </trkpt>
      <trkpt lat="62.71285" lon="6.74022">
        <ele>72.713827</ele>
        <time>2020-08-02T07:57:20.860Z</time>
      </trkpt>
      <trkpt lat="62.71288" lon="6.7404">
        <ele>72.689598</ele>
        <time>2020-08-02T07:57:22.866Z</time>
      </trkpt>
      <trkpt lat="62.71293" lon="6.74065">
        <ele>72.704946</ele>
        <time>2020-08-02T07:57:25.870Z</time>
      </trkpt>
      <trkpt lat="62.71298" lon="6.74089">
        <ele>72.768214</ele>
        <time>2020-08-02T07:57:28.852Z</time>
      </trkpt>
      <trkpt lat="62.71303" lon="6.74115">
        <ele>72.836805</ele>
        <time>2020-08-02T07:57:31.889Z</time>
      </trkpt>
      <trkpt lat="62.71308" lon="6.74142">
        <ele>72.908509</ele>
        <time>2020-08-02T07:57:34.860Z</time>
      </trkpt>
      <trkpt lat="62.71312" lon="6.7416">
        <ele>72.957333</ele>
        <time>2020-08-02T07:57:36.849Z</time>
      </trkpt>
      <trkpt lat="62.71316" lon="6.74179">
        <ele>73.007725</ele>
        <time>2020-08-02T07:57:38.893Z</time>
      </trkpt>
      <trkpt lat="62.7132" lon="6.74197">
        <ele>73.057068</ele>
        <time>2020-08-02T07:57:40.890Z</time>
      </trkpt>
      <trkpt lat="62.71325" lon="6.74214">
        <ele>73.107519</ele>
        <time>2020-08-02T07:57:42.861Z</time>
      </trkpt>
      <trkpt lat="62.71331" lon="6.74232">
        <ele>73.159844</ele>
        <time>2020-08-02T07:57:44.900Z</time>
      </trkpt>
      <trkpt lat="62.71337" lon="6.74251">
        <ele>73.215536</ele>
        <time>2020-08-02T07:57:46.866Z</time>
      </trkpt>
      <trkpt lat="62.71343" lon="6.7427">
        <ele>73.272639</ele>
        <time>2020-08-02T07:57:48.862Z</time>
      </trkpt>
      <trkpt lat="62.71349" lon="6.74289">
        <ele>73.330222</ele>
        <time>2020-08-02T07:57:50.876Z</time>
      </trkpt>
      <trkpt lat="62.71356" lon="6.74307">
        <ele>73.387747</ele>
        <time>2020-08-02T07:57:52.943Z</time>
      </trkpt>
      <trkpt lat="62.71363" lon="6.74326">
        <ele>73.445329</ele>
        <time>2020-08-02T07:57:54.857Z</time>
      </trkpt>
      <trkpt lat="62.71369" lon="6.74345">
        <ele>73.502588</ele>
        <time>2020-08-02T07:57:56.855Z</time>
      </trkpt>
      <trkpt lat="62.71376" lon="6.74363">
        <ele>73.559784</ele>
        <time>2020-08-02T07:57:58.880Z</time>
      </trkpt>
      <trkpt lat="62.71382" lon="6.74381">
        <ele>73.613883</ele>
        <time>2020-08-02T07:58:00.869Z</time>
      </trkpt>
      <trkpt lat="62.71388" lon="6.74397">
        <ele>73.657085</ele>
        <time>2020-08-02T07:58:02.871Z</time>
      </trkpt>
      <trkpt lat="62.71396" lon="6.7442">
        <ele>73.713356</ele>
        <time>2020-08-02T07:58:05.854Z</time>
      </trkpt>
      <trkpt lat="62.71404" lon="6.74443">
        <ele>73.769426</ele>
        <time>2020-08-02T07:58:08.886Z</time>
      </trkpt>
      <trkpt lat="62.71412" lon="6.74465">
        <ele>73.822473</ele>
        <time>2020-08-02T07:58:11.871Z</time>
      </trkpt>
      <trkpt lat="62.71419" lon="6.74487">
        <ele>73.875157</ele>
        <time>2020-08-02T07:58:14.855Z</time>
      </trkpt>
      <trkpt lat="62.71426" lon="6.74508">
        <ele>73.926458</ele>
        <time>2020-08-02T07:58:17.869Z</time>
      </trkpt>
      <trkpt lat="62.71434" lon="6.74528">
        <ele>73.975813</ele>
        <time>2020-08-02T07:58:20.872Z</time>
      </trkpt>
      <trkpt lat="62.7144" lon="6.74547">
        <ele>74.02204</ele>
        <time>2020-08-02T07:58:23.863Z</time>
      </trkpt>
      <trkpt lat="62.71447" lon="6.74565">
        <ele>74.068722</ele>
        <time>2020-08-02T07:58:26.857Z</time>
      </trkpt>
      <trkpt lat="62.71453" lon="6.74584">
        <ele>74.112096</ele>
        <time>2020-08-02T07:58:29.859Z</time>
      </trkpt>
      <trkpt lat="62.7146" lon="6.74602">
        <ele>74.156888</ele>
        <time>2020-08-02T07:58:32.853Z</time>
      </trkpt>
      <trkpt lat="62.71467" lon="6.7462">
        <ele>74.201449</ele>
        <time>2020-08-02T07:58:35.851Z</time>
      </trkpt>
      <trkpt lat="62.71474" lon="6.74639">
        <ele>74.248727</ele>
        <time>2020-08-02T07:58:38.915Z</time>
      </trkpt>
      <trkpt lat="62.71481" lon="6.74657">
        <ele>74.295558</ele>
        <time>2020-08-02T07:58:41.855Z</time>
      </trkpt>
      <trkpt lat="62.71488" lon="6.74674">
        <ele>74.338627</ele>
        <time>2020-08-02T07:58:44.871Z</time>
      </trkpt>
      <trkpt lat="62.71495" lon="6.74689">
        <ele>74.381457</ele>
        <time>2020-08-02T07:58:47.870Z</time>
      </trkpt>
      <trkpt lat="62.71502" lon="6.74704">
        <ele>74.526337</ele>
        <time>2020-08-02T07:58:50.876Z</time>
      </trkpt>
      <trkpt lat="62.71509" lon="6.7472">
        <ele>74.70161</ele>
        <time>2020-08-02T07:58:53.859Z</time>
      </trkpt>
      <trkpt lat="62.71516" lon="6.74736">
        <ele>74.877615</ele>
        <time>2020-08-02T07:58:56.857Z</time>
      </trkpt>
      <trkpt lat="62.71523" lon="6.74751">
        <ele>75.050666</ele>
        <time>2020-08-02T07:58:59.855Z</time>
      </trkpt>
      <trkpt lat="62.7153" lon="6.74765">
        <ele>75.218268</ele>
        <time>2020-08-02T07:59:02.862Z</time>
      </trkpt>
      <trkpt lat="62.71537" lon="6.74778">
        <ele>75.379269</ele>
        <time>2020-08-02T07:59:05.853Z</time>
      </trkpt>
      <trkpt lat="62.71545" lon="6.74791">
        <ele>75.538865</ele>
        <time>2020-08-02T07:59:08.883Z</time>
      </trkpt>
      <trkpt lat="62.71552" lon="6.74804">
        <ele>75.71057</ele>
        <time>2020-08-02T07:59:11.858Z</time>
      </trkpt>
      <trkpt lat="62.71561" lon="6.74817">
        <ele>75.886381</ele>
        <time>2020-08-02T07:59:14.859Z</time>
      </trkpt>
      <trkpt lat="62.71569" lon="6.7483">
        <ele>76.061761</ele>
        <time>2020-08-02T07:59:17.885Z</time>
      </trkpt>
      <trkpt lat="62.71577" lon="6.74842">
        <ele>76.238514</ele>
        <time>2020-08-02T07:59:20.853Z</time>
      </trkpt>
      <trkpt lat="62.71586" lon="6.74855">
        <ele>76.41532</ele>
        <time>2020-08-02T07:59:23.864Z</time>
      </trkpt>
      <trkpt lat="62.71595" lon="6.74867">
        <ele>76.596785</ele>
        <time>2020-08-02T07:59:26.902Z</time>
      </trkpt>
      <trkpt lat="62.71603" lon="6.7488">
        <ele>76.777464</ele>
        <time>2020-08-02T07:59:29.881Z</time>
      </trkpt>
      <trkpt lat="62.71612" lon="6.74892">
        <ele>76.960193</ele>
        <time>2020-08-02T07:59:32.859Z</time>
      </trkpt>
      <trkpt lat="62.71622" lon="6.74902">
        <ele>77.146807</ele>
        <time>2020-08-02T07:59:35.858Z</time>
      </trkpt>
      <trkpt lat="62.71631" lon="6.74913">
        <ele>77.328794</ele>
        <time>2020-08-02T07:59:38.873Z</time>
      </trkpt>
      <trkpt lat="62.7164" lon="6.74923">
        <ele>77.505435</ele>
        <time>2020-08-02T07:59:41.851Z</time>
      </trkpt>
      <trkpt lat="62.71649" lon="6.74934">
        <ele>77.646313</ele>
        <time>2020-08-02T07:59:44.859Z</time>
      </trkpt>
      <trkpt lat="62.71658" lon="6.74944">
        <ele>77.783494</ele>
        <time>2020-08-02T07:59:47.857Z</time>
      </trkpt>
      <trkpt lat="62.71667" lon="6.74954">
        <ele>77.920963</ele>
        <time>2020-08-02T07:59:50.847Z</time>
      </trkpt>
      <trkpt lat="62.71676" lon="6.74965">
        <ele>78.059387</ele>
        <time>2020-08-02T07:59:53.912Z</time>
      </trkpt>
      <trkpt lat="62.71685" lon="6.74976">
        <ele>78.201663</ele>
        <time>2020-08-02T07:59:56.850Z</time>
      </trkpt>
      <trkpt lat="62.71694" lon="6.74985">
        <ele>78.337434</ele>
        <time>2020-08-02T07:59:59.869Z</time>
      </trkpt>
      <trkpt lat="62.71703" lon="6.74995">
        <ele>78.479788</ele>
        <time>2020-08-02T08:00:02.858Z</time>
      </trkpt>
      <trkpt lat="62.71713" lon="6.75005">
        <ele>78.626004</ele>
        <time>2020-08-02T08:00:05.873Z</time>
      </trkpt>
      <trkpt lat="62.71722" lon="6.75013">
        <ele>78.762425</ele>
        <time>2020-08-02T08:00:08.858Z</time>
      </trkpt>
      <trkpt lat="62.71731" lon="6.75023">
        <ele>78.905889</ele>
        <time>2020-08-02T08:00:11.863Z</time>
      </trkpt>
      <trkpt lat="62.71741" lon="6.75032">
        <ele>79.046303</ele>
        <time>2020-08-02T08:00:14.875Z</time>
      </trkpt>
      <trkpt lat="62.71749" lon="6.7504">
        <ele>79.175677</ele>
        <time>2020-08-02T08:00:17.865Z</time>
      </trkpt>
      <trkpt lat="62.71758" lon="6.75049">
        <ele>79.302407</ele>
        <time>2020-08-02T08:00:20.860Z</time>
      </trkpt>
      <trkpt lat="62.71768" lon="6.75059">
        <ele>79.462163</ele>
        <time>2020-08-02T08:00:24.860Z</time>
      </trkpt>
      <trkpt lat="62.71779" lon="6.7507">
        <ele>79.62644</ele>
        <time>2020-08-02T08:00:28.874Z</time>
      </trkpt>
      <trkpt lat="62.71788" lon="6.75077">
        <ele>79.750573</ele>
        <time>2020-08-02T08:00:31.853Z</time>
      </trkpt>
      <trkpt lat="62.71799" lon="6.75086">
        <ele>79.910723</ele>
        <time>2020-08-02T08:00:35.862Z</time>
      </trkpt>
      <trkpt lat="62.71809" lon="6.75095">
        <ele>80.32891</ele>
        <time>2020-08-02T08:00:39.851Z</time>
      </trkpt>
      <trkpt lat="62.7182" lon="6.75103">
        <ele>80.903713</ele>
        <time>2020-08-02T08:00:43.868Z</time>
      </trkpt>
      <trkpt lat="62.7183" lon="6.75111">
        <ele>81.471958</ele>
        <time>2020-08-02T08:00:47.845Z</time>
      </trkpt>
      <trkpt lat="62.71839" lon="6.75118">
        <ele>82.009545</ele>
        <time>2020-08-02T08:00:51.857Z</time>
      </trkpt>
      <trkpt lat="62.71848" lon="6.75125">
        <ele>82.509352</ele>
        <time>2020-08-02T08:00:55.865Z</time>
      </trkpt>
      <trkpt lat="62.71857" lon="6.7513">
        <ele>83.008489</ele>
        <time>2020-08-02T08:00:59.871Z</time>
      </trkpt>
      <trkpt lat="62.71868" lon="6.75137">
        <ele>83.602464</ele>
        <time>2020-08-02T08:01:03.874Z</time>
      </trkpt>
      <trkpt lat="62.71879" lon="6.75143">
        <ele>84.182577</ele>
        <time>2020-08-02T08:01:07.869Z</time>
      </trkpt>
      <trkpt lat="62.71891" lon="6.75149">
        <ele>84.824891</ele>
        <time>2020-08-02T08:01:11.861Z</time>
      </trkpt>
      <trkpt lat="62.71901" lon="6.75155">
        <ele>85.357774</ele>
        <time>2020-08-02T08:01:14.857Z</time>
      </trkpt>
      <trkpt lat="62.7191" lon="6.75159">
        <ele>85.861055</ele>
        <time>2020-08-02T08:01:17.863Z</time>
      </trkpt>
      <trkpt lat="62.71919" lon="6.75164">
        <ele>86.351428</ele>
        <time>2020-08-02T08:01:20.900Z</time>
      </trkpt>
      <trkpt lat="62.71928" lon="6.75167">
        <ele>86.842967</ele>
        <time>2020-08-02T08:01:23.861Z</time>
      </trkpt>
      <trkpt lat="62.7194" lon="6.75172">
        <ele>87.456974</ele>
        <time>2020-08-02T08:01:27.870Z</time>
      </trkpt>
      <trkpt lat="62.71949" lon="6.75177">
        <ele>87.984461</ele>
        <time>2020-08-02T08:01:31.879Z</time>
      </trkpt>
      <trkpt lat="62.71959" lon="6.75179">
        <ele>88.490183</ele>
        <time>2020-08-02T08:01:35.880Z</time>
      </trkpt>
      <trkpt lat="62.71968" lon="6.75182">
        <ele>88.96791</ele>
        <time>2020-08-02T08:01:39.857Z</time>
      </trkpt>
      <trkpt lat="62.71978" lon="6.75185">
        <ele>89.45805</ele>
        <time>2020-08-02T08:01:43.848Z</time>
      </trkpt>
      <trkpt lat="62.7199" lon="6.75188">
        <ele>89.480717</ele>
        <time>2020-08-02T08:01:47.869Z</time>
      </trkpt>
      <trkpt lat="62.71999" lon="6.75191">
        <ele>89.497958</ele>
        <time>2020-08-02T08:01:50.845Z</time>
      </trkpt>
      <trkpt lat="62.7201" lon="6.75194">
        <ele>89.51875</ele>
        <time>2020-08-02T08:01:54.860Z</time>
      </trkpt>
      <trkpt lat="62.72019" lon="6.75195">
        <ele>89.535905</ele>
        <time>2020-08-02T08:01:57.861Z</time>
      </trkpt>
      <trkpt lat="62.7203" lon="6.75198">
        <ele>89.557069</ele>
        <time>2020-08-02T08:02:01.868Z</time>
      </trkpt>
      <trkpt lat="62.72042" lon="6.75201">
        <ele>89.57914</ele>
        <time>2020-08-02T08:02:05.861Z</time>
      </trkpt>
      <trkpt lat="62.72051" lon="6.75203">
        <ele>89.596677</ele>
        <time>2020-08-02T08:02:08.845Z</time>
      </trkpt>
      <trkpt lat="62.72061" lon="6.75204">
        <ele>89.614725</ele>
        <time>2020-08-02T08:02:11.873Z</time>
      </trkpt>
      <trkpt lat="62.72073" lon="6.75206">
        <ele>89.636571</ele>
        <time>2020-08-02T08:02:15.847Z</time>
      </trkpt>
      <trkpt lat="62.72084" lon="6.75208">
        <ele>89.658791</ele>
        <time>2020-08-02T08:02:19.851Z</time>
      </trkpt>
      <trkpt lat="62.72095" lon="6.75211">
        <ele>89.678289</ele>
        <time>2020-08-02T08:02:22.890Z</time>
      </trkpt>
      <trkpt lat="62.72105" lon="6.75213">
        <ele>89.69699</ele>
        <time>2020-08-02T08:02:25.872Z</time>
      </trkpt>
      <trkpt lat="62.72114" lon="6.75214">
        <ele>89.71486</ele>
        <time>2020-08-02T08:02:28.843Z</time>
      </trkpt>
      <trkpt lat="62.72123" lon="6.75217">
        <ele>89.731905</ele>
        <time>2020-08-02T08:02:31.871Z</time>
      </trkpt>
      <trkpt lat="62.72132" lon="6.75219">
        <ele>89.748865</ele>
        <time>2020-08-02T08:02:34.853Z</time>
      </trkpt>
      <trkpt lat="62.72141" lon="6.75221">
        <ele>89.76613</ele>
        <time>2020-08-02T08:02:37.849Z</time>
      </trkpt>
      <trkpt lat="62.72151" lon="6.75225">
        <ele>89.784389</ele>
        <time>2020-08-02T08:02:40.863Z</time>
      </trkpt>
      <trkpt lat="62.7216" lon="6.75228">
        <ele>89.746994</ele>
        <time>2020-08-02T08:02:43.883Z</time>
      </trkpt>
      <trkpt lat="62.7217" lon="6.75232">
        <ele>89.649193</ele>
        <time>2020-08-02T08:02:46.877Z</time>
      </trkpt>
      <trkpt lat="62.7218" lon="6.75238">
        <ele>89.546999</ele>
        <time>2020-08-02T08:02:49.858Z</time>
      </trkpt>
      <trkpt lat="62.7219" lon="6.75245">
        <ele>89.444125</ele>
        <time>2020-08-02T08:02:52.855Z</time>
      </trkpt>
      <trkpt lat="62.72199" lon="6.75249">
        <ele>89.354446</ele>
        <time>2020-08-02T08:02:55.877Z</time>
      </trkpt>
      <trkpt lat="62.7221" lon="6.75257">
        <ele>89.236184</ele>
        <time>2020-08-02T08:02:59.855Z</time>
      </trkpt>
      <trkpt lat="62.72221" lon="6.75264">
        <ele>89.129397</ele>
        <time>2020-08-02T08:03:02.902Z</time>
      </trkpt>
      <trkpt lat="62.72232" lon="6.75273">
        <ele>89.00596</ele>
        <time>2020-08-02T08:03:05.864Z</time>
      </trkpt>
      <trkpt lat="62.72241" lon="6.7528">
        <ele>88.913197</ele>
        <time>2020-08-02T08:03:07.894Z</time>
      </trkpt>
      <trkpt lat="62.7225" lon="6.75288">
        <ele>88.816747</ele>
        <time>2020-08-02T08:03:09.859Z</time>
      </trkpt>
      <trkpt lat="62.7226" lon="6.75296">
        <ele>88.715786</ele>
        <time>2020-08-02T08:03:11.877Z</time>
      </trkpt>
      <trkpt lat="62.72269" lon="6.75305">
        <ele>88.613268</ele>
        <time>2020-08-02T08:03:13.872Z</time>
      </trkpt>
      <trkpt lat="62.72278" lon="6.75315">
        <ele>88.511729</ele>
        <time>2020-08-02T08:03:15.878Z</time>
      </trkpt>
      <trkpt lat="62.72287" lon="6.75325">
        <ele>88.413049</ele>
        <time>2020-08-02T08:03:17.879Z</time>
      </trkpt>
      <trkpt lat="62.72296" lon="6.75335">
        <ele>88.313958</ele>
        <time>2020-08-02T08:03:19.908Z</time>
      </trkpt>
      <trkpt lat="62.72305" lon="6.75346">
        <ele>88.210762</ele>
        <time>2020-08-02T08:03:21.877Z</time>
      </trkpt>
      <trkpt lat="62.72314" lon="6.75358">
        <ele>88.105127</ele>
        <time>2020-08-02T08:03:23.855Z</time>
      </trkpt>
      <trkpt lat="62.72324" lon="6.75371">
        <ele>87.938873</ele>
        <time>2020-08-02T08:03:25.882Z</time>
      </trkpt>
      <trkpt lat="62.72333" lon="6.75384">
        <ele>87.478864</ele>
        <time>2020-08-02T08:03:27.850Z</time>
      </trkpt>
      <trkpt lat="62.72343" lon="6.75399">
        <ele>86.988476</ele>
        <time>2020-08-02T08:03:29.864Z</time>
      </trkpt>
      <trkpt lat="62.72354" lon="6.75416">
        <ele>86.469961</ele>
        <time>2020-08-02T08:03:31.895Z</time>
      </trkpt>
      <trkpt lat="62.72364" lon="6.75432">
        <ele>85.97418</ele>
        <time>2020-08-02T08:03:33.871Z</time>
      </trkpt>
      <trkpt lat="62.72374" lon="6.75448">
        <ele>85.468623</ele>
        <time>2020-08-02T08:03:35.874Z</time>
      </trkpt>
      <trkpt lat="62.72384" lon="6.75465">
        <ele>84.966277</ele>
        <time>2020-08-02T08:03:37.877Z</time>
      </trkpt>
      <trkpt lat="62.72393" lon="6.75482">
        <ele>84.453666</ele>
        <time>2020-08-02T08:03:39.870Z</time>
      </trkpt>
      <trkpt lat="62.72403" lon="6.75499">
        <ele>83.958236</ele>
        <time>2020-08-02T08:03:41.857Z</time>
      </trkpt>
      <trkpt lat="62.72412" lon="6.75516">
        <ele>83.469761</ele>
        <time>2020-08-02T08:03:43.849Z</time>
      </trkpt>
      <trkpt lat="62.72422" lon="6.75531">
        <ele>82.993633</ele>
        <time>2020-08-02T08:03:45.857Z</time>
      </trkpt>
      <trkpt lat="62.72431" lon="6.75547">
        <ele>82.522665</ele>
        <time>2020-08-02T08:03:47.877Z</time>
      </trkpt>
      <trkpt lat="62.7244" lon="6.75563">
        <ele>82.057663</ele>
        <time>2020-08-02T08:03:49.866Z</time>
      </trkpt>
      <trkpt lat="62.72449" lon="6.75579">
        <ele>81.584411</ele>
        <time>2020-08-02T08:03:51.858Z</time>
      </trkpt>
      <trkpt lat="62.72458" lon="6.75594">
        <ele>81.13298</ele>
        <time>2020-08-02T08:03:53.870Z</time>
      </trkpt>
      <trkpt lat="62.72466" lon="6.75609">
        <ele>80.764288</ele>
        <time>2020-08-02T08:03:55.861Z</time>
      </trkpt>
      <trkpt lat="62.72475" lon="6.75622">
        <ele>80.792099</ele>
        <time>2020-08-02T08:03:57.855Z</time>
      </trkpt>
      <trkpt lat="62.72483" lon="6.75636">
        <ele>80.820335</ele>
        <time>2020-08-02T08:03:59.859Z</time>
      </trkpt>
      <trkpt lat="62.72491" lon="6.75651">
        <ele>80.848813</ele>
        <time>2020-08-02T08:04:01.883Z</time>
      </trkpt>
      <trkpt lat="62.72499" lon="6.75665">
        <ele>80.876928</ele>
        <time>2020-08-02T08:04:03.869Z</time>
      </trkpt>
      <trkpt lat="62.72508" lon="6.75679">
        <ele>80.904802</ele>
        <time>2020-08-02T08:04:05.879Z</time>
      </trkpt>
      <trkpt lat="62.72516" lon="6.75693">
        <ele>80.932917</ele>
        <time>2020-08-02T08:04:07.868Z</time>
      </trkpt>
      <trkpt lat="62.72524" lon="6.75707">
        <ele>80.960669</ele>
        <time>2020-08-02T08:04:09.895Z</time>
      </trkpt>
      <trkpt lat="62.72532" lon="6.75721">
        <ele>80.98762</ele>
        <time>2020-08-02T08:04:11.891Z</time>
      </trkpt>
      <trkpt lat="62.7254" lon="6.75734">
        <ele>81.014362</ele>
        <time>2020-08-02T08:04:13.869Z</time>
      </trkpt>
      <trkpt lat="62.72547" lon="6.75748">
        <ele>81.040741</ele>
        <time>2020-08-02T08:04:15.891Z</time>
      </trkpt>
      <trkpt lat="62.72555" lon="6.75761">
        <ele>81.066626</ele>
        <time>2020-08-02T08:04:17.857Z</time>
      </trkpt>
      <trkpt lat="62.72563" lon="6.75774">
        <ele>81.09335</ele>
        <time>2020-08-02T08:04:19.873Z</time>
      </trkpt>
      <trkpt lat="62.72571" lon="6.75788">
        <ele>81.120362</ele>
        <time>2020-08-02T08:04:21.889Z</time>
      </trkpt>
      <trkpt lat="62.72579" lon="6.75801">
        <ele>81.146951</ele>
        <time>2020-08-02T08:04:23.880Z</time>
      </trkpt>
      <trkpt lat="62.72586" lon="6.75815">
        <ele>81.173344</ele>
        <time>2020-08-02T08:04:25.881Z</time>
      </trkpt>
      <trkpt lat="62.72593" lon="6.7583">
        <ele>81.19928</ele>
        <time>2020-08-02T08:04:27.854Z</time>
      </trkpt>
      <trkpt lat="62.726" lon="6.75843">
        <ele>81.223457</ele>
        <time>2020-08-02T08:04:29.873Z</time>
      </trkpt>
      <trkpt lat="62.72607" lon="6.75857">
        <ele>81.256503</ele>
        <time>2020-08-02T08:04:31.870Z</time>
      </trkpt>
      <trkpt lat="62.72613" lon="6.7587">
        <ele>81.31752</ele>
        <time>2020-08-02T08:04:33.852Z</time>
      </trkpt>
      <trkpt lat="62.7262" lon="6.75885">
        <ele>81.380911</ele>
        <time>2020-08-02T08:04:35.874Z</time>
      </trkpt>
      <trkpt lat="62.72627" lon="6.759">
        <ele>81.444241</ele>
        <time>2020-08-02T08:04:37.856Z</time>
      </trkpt>
      <trkpt lat="62.72633" lon="6.75915">
        <ele>81.505772</ele>
        <time>2020-08-02T08:04:39.868Z</time>
      </trkpt>
      <trkpt lat="62.72639" lon="6.75931">
        <ele>81.568442</ele>
        <time>2020-08-02T08:04:41.852Z</time>
      </trkpt>
      <trkpt lat="62.72645" lon="6.75947">
        <ele>81.631481</ele>
        <time>2020-08-02T08:04:43.909Z</time>
      </trkpt>
      <trkpt lat="62.72651" lon="6.75963">
        <ele>81.694933</ele>
        <time>2020-08-02T08:04:45.875Z</time>
      </trkpt>
      <trkpt lat="62.72657" lon="6.7598">
        <ele>81.757885</ele>
        <time>2020-08-02T08:04:47.877Z</time>
      </trkpt>
      <trkpt lat="62.72663" lon="6.75997">
        <ele>81.821401</ele>
        <time>2020-08-02T08:04:49.863Z</time>
      </trkpt>
      <trkpt lat="62.72669" lon="6.76014">
        <ele>81.888218</ele>
        <time>2020-08-02T08:04:51.861Z</time>
      </trkpt>
      <trkpt lat="62.72675" lon="6.76031">
        <ele>81.954335</ele>
        <time>2020-08-02T08:04:53.859Z</time>
      </trkpt>
      <trkpt lat="62.72681" lon="6.76048">
        <ele>82.018656</ele>
        <time>2020-08-02T08:04:55.871Z</time>
      </trkpt>
      <trkpt lat="62.72687" lon="6.76065">
        <ele>82.083058</ele>
        <time>2020-08-02T08:04:57.885Z</time>
      </trkpt>
      <trkpt lat="62.72693" lon="6.76082">
        <ele>82.147053</ele>
        <time>2020-08-02T08:04:59.863Z</time>
      </trkpt>
      <trkpt lat="62.72698" lon="6.76098">
        <ele>82.21153</ele>
        <time>2020-08-02T08:05:01.859Z</time>
      </trkpt>
      <trkpt lat="62.72705" lon="6.76115">
        <ele>82.276343</ele>
        <time>2020-08-02T08:05:03.883Z</time>
      </trkpt>
      <trkpt lat="62.7271" lon="6.76131">
        <ele>82.338256</ele>
        <time>2020-08-02T08:05:05.865Z</time>
      </trkpt>
      <trkpt lat="62.72716" lon="6.76147">
        <ele>82.400298</ele>
        <time>2020-08-02T08:05:07.885Z</time>
      </trkpt>
      <trkpt lat="62.72722" lon="6.76162">
        <ele>82.461189</ele>
        <time>2020-08-02T08:05:09.906Z</time>
      </trkpt>
      <trkpt lat="62.72728" lon="6.76177">
        <ele>82.522327</ele>
        <time>2020-08-02T08:05:11.885Z</time>
      </trkpt>
      <trkpt lat="62.72736" lon="6.762">
        <ele>82.610049</ele>
        <time>2020-08-02T08:05:14.865Z</time>
      </trkpt>
      <trkpt lat="62.72744" lon="6.76223">
        <ele>82.698663</ele>
        <time>2020-08-02T08:05:17.863Z</time>
      </trkpt>
      <trkpt lat="62.7275" lon="6.76238">
        <ele>82.759187</ele>
        <time>2020-08-02T08:05:19.864Z</time>
      </trkpt>
      <trkpt lat="62.72756" lon="6.76254">
        <ele>82.820742</ele>
        <time>2020-08-02T08:05:21.866Z</time>
      </trkpt>
      <trkpt lat="62.72762" lon="6.7627">
        <ele>82.882114</ele>
        <time>2020-08-02T08:05:23.873Z</time>
      </trkpt>
      <trkpt lat="62.72768" lon="6.76285">
        <ele>82.944382</ele>
        <time>2020-08-02T08:05:25.866Z</time>
      </trkpt>
      <trkpt lat="62.72773" lon="6.76301">
        <ele>83.005383</ele>
        <time>2020-08-02T08:05:27.878Z</time>
      </trkpt>
      <trkpt lat="62.72782" lon="6.76323">
        <ele>83.093516</ele>
        <time>2020-08-02T08:05:30.874Z</time>
      </trkpt>
      <trkpt lat="62.72789" lon="6.76346">
        <ele>83.179287</ele>
        <time>2020-08-02T08:05:33.865Z</time>
      </trkpt>
      <trkpt lat="62.72797" lon="6.76368">
        <ele>83.265302</ele>
        <time>2020-08-02T08:05:36.870Z</time>
      </trkpt>
      <trkpt lat="62.72805" lon="6.7639">
        <ele>83.347267</ele>
        <time>2020-08-02T08:05:39.857Z</time>
      </trkpt>
      <trkpt lat="62.72812" lon="6.76411">
        <ele>83.430213</ele>
        <time>2020-08-02T08:05:42.896Z</time>
      </trkpt>
      <trkpt lat="62.7282" lon="6.76432">
        <ele>83.512919</ele>
        <time>2020-08-02T08:05:45.882Z</time>
      </trkpt>
      <trkpt lat="62.72828" lon="6.76453">
        <ele>83.595695</ele>
        <time>2020-08-02T08:05:48.872Z</time>
      </trkpt>
      <trkpt lat="62.72835" lon="6.76474">
        <ele>83.607664</ele>
        <time>2020-08-02T08:05:51.861Z</time>
      </trkpt>
      <trkpt lat="62.72843" lon="6.76495">
        <ele>83.555723</ele>
        <time>2020-08-02T08:05:54.879Z</time>
      </trkpt>
      <trkpt lat="62.72851" lon="6.76516">
        <ele>83.50467</ele>
        <time>2020-08-02T08:05:57.871Z</time>
      </trkpt>
      <trkpt lat="62.72859" lon="6.76538">
        <ele>83.450654</ele>
        <time>2020-08-02T08:06:00.871Z</time>
      </trkpt>
      <trkpt lat="62.72867" lon="6.76561">
        <ele>83.396455</ele>
        <time>2020-08-02T08:06:03.880Z</time>
      </trkpt>
      <trkpt lat="62.72875" lon="6.76583">
        <ele>83.342509</ele>
        <time>2020-08-02T08:06:06.889Z</time>
      </trkpt>
      <trkpt lat="62.72882" lon="6.76606">
        <ele>83.287757</ele>
        <time>2020-08-02T08:06:09.874Z</time>
      </trkpt>
      <trkpt lat="62.72888" lon="6.76622">
        <ele>83.249858</ele>
        <time>2020-08-02T08:06:11.860Z</time>
      </trkpt>
      <trkpt lat="62.72893" lon="6.76639">
        <ele>83.211101</ele>
        <time>2020-08-02T08:06:13.866Z</time>
      </trkpt>
      <trkpt lat="62.72899" lon="6.76656">
        <ele>83.171888</ele>
        <time>2020-08-02T08:06:15.891Z</time>
      </trkpt>
      <trkpt lat="62.72904" lon="6.76673">
        <ele>83.133609</ele>
        <time>2020-08-02T08:06:17.859Z</time>
      </trkpt>
      <trkpt lat="62.72909" lon="6.7669">
        <ele>83.094868</ele>
        <time>2020-08-02T08:06:19.897Z</time>
      </trkpt>
      <trkpt lat="62.72913" lon="6.76708">
        <ele>83.055964</ele>
        <time>2020-08-02T08:06:21.856Z</time>
      </trkpt>
      <trkpt lat="62.72918" lon="6.76726">
        <ele>83.016522</ele>
        <time>2020-08-02T08:06:23.859Z</time>
      </trkpt>
      <trkpt lat="62.72923" lon="6.76745">
        <ele>82.974243</ele>
        <time>2020-08-02T08:06:25.868Z</time>
      </trkpt>
      <trkpt lat="62.72928" lon="6.76766">
        <ele>82.929099</ele>
        <time>2020-08-02T08:06:27.899Z</time>
      </trkpt>
      <trkpt lat="62.72934" lon="6.76787">
        <ele>82.88679</ele>
        <time>2020-08-02T08:06:29.880Z</time>
      </trkpt>
      <trkpt lat="62.72939" lon="6.76808">
        <ele>82.877037</ele>
        <time>2020-08-02T08:06:31.891Z</time>
      </trkpt>
      <trkpt lat="62.72944" lon="6.7683">
        <ele>82.867098</ele>
        <time>2020-08-02T08:06:33.886Z</time>
      </trkpt>
      <trkpt lat="62.72949" lon="6.76851">
        <ele>82.857201</ele>
        <time>2020-08-02T08:06:35.864Z</time>
      </trkpt>
      <trkpt lat="62.72954" lon="6.76873">
        <ele>82.847273</ele>
        <time>2020-08-02T08:06:37.901Z</time>
      </trkpt>
      <trkpt lat="62.7296" lon="6.76895">
        <ele>82.837195</ele>
        <time>2020-08-02T08:06:39.858Z</time>
      </trkpt>
      <trkpt lat="62.72964" lon="6.76916">
        <ele>82.827497</ele>
        <time>2020-08-02T08:06:41.861Z</time>
      </trkpt>
      <trkpt lat="62.72969" lon="6.76938">
        <ele>82.817605</ele>
        <time>2020-08-02T08:06:43.851Z</time>
      </trkpt>
      <trkpt lat="62.72974" lon="6.76959">
        <ele>82.807899</ele>
        <time>2020-08-02T08:06:45.885Z</time>
      </trkpt>
      <trkpt lat="62.72979" lon="6.76979">
        <ele>82.798411</ele>
        <time>2020-08-02T08:06:47.860Z</time>
      </trkpt>
      <trkpt lat="62.72984" lon="6.77">
        <ele>82.788927</ele>
        <time>2020-08-02T08:06:49.868Z</time>
      </trkpt>
      <trkpt lat="62.72989" lon="6.7702">
        <ele>82.779468</ele>
        <time>2020-08-02T08:06:51.873Z</time>
      </trkpt>
      <trkpt lat="62.72994" lon="6.7704">
        <ele>82.770058</ele>
        <time>2020-08-02T08:06:53.872Z</time>
      </trkpt>
      <trkpt lat="62.72999" lon="6.7706">
        <ele>82.760749</ele>
        <time>2020-08-02T08:06:55.876Z</time>
      </trkpt>
      <trkpt lat="62.73004" lon="6.7708">
        <ele>82.751684</ele>
        <time>2020-08-02T08:06:57.884Z</time>
      </trkpt>
      <trkpt lat="62.73008" lon="6.77099">
        <ele>82.743065</ele>
        <time>2020-08-02T08:06:59.871Z</time>
      </trkpt>
      <trkpt lat="62.73012" lon="6.77118">
        <ele>82.734585</ele>
        <time>2020-08-02T08:07:01.851Z</time>
      </trkpt>
      <trkpt lat="62.73016" lon="6.77136">
        <ele>82.731129</ele>
        <time>2020-08-02T08:07:03.863Z</time>
      </trkpt>
      <trkpt lat="62.73021" lon="6.77154">
        <ele>82.761031</ele>
        <time>2020-08-02T08:07:05.886Z</time>
      </trkpt>
      <trkpt lat="62.73025" lon="6.77172">
        <ele>82.792678</ele>
        <time>2020-08-02T08:07:07.862Z</time>
      </trkpt>
      <trkpt lat="62.7303" lon="6.7719">
        <ele>82.822145</ele>
        <time>2020-08-02T08:07:09.863Z</time>
      </trkpt>
      <trkpt lat="62.73035" lon="6.77215">
        <ele>82.864152</ele>
        <time>2020-08-02T08:07:12.860Z</time>
      </trkpt>
      <trkpt lat="62.73041" lon="6.77241">
        <ele>82.906969</ele>
        <time>2020-08-02T08:07:15.898Z</time>
      </trkpt>
      <trkpt lat="62.73045" lon="6.77259">
        <ele>82.936938</ele>
        <time>2020-08-02T08:07:17.857Z</time>
      </trkpt>
      <trkpt lat="62.7305" lon="6.77279">
        <ele>82.968961</ele>
        <time>2020-08-02T08:07:19.879Z</time>
      </trkpt>
      <trkpt lat="62.73053" lon="6.77299">
        <ele>83.000386</ele>
        <time>2020-08-02T08:07:21.877Z</time>
      </trkpt>
      <trkpt lat="62.73056" lon="6.77319">
        <ele>83.0323</ele>
        <time>2020-08-02T08:07:23.859Z</time>
      </trkpt>
      <trkpt lat="62.7306" lon="6.7734">
        <ele>83.065342</ele>
        <time>2020-08-02T08:07:25.897Z</time>
      </trkpt>
      <trkpt lat="62.73062" lon="6.7736">
        <ele>83.096964</ele>
        <time>2020-08-02T08:07:27.881Z</time>
      </trkpt>
      <trkpt lat="62.73065" lon="6.77381">
        <ele>83.128585</ele>
        <time>2020-08-02T08:07:29.868Z</time>
      </trkpt>
      <trkpt lat="62.73068" lon="6.77401">
        <ele>83.160291</ele>
        <time>2020-08-02T08:07:31.851Z</time>
      </trkpt>
      <trkpt lat="62.7307" lon="6.77422">
        <ele>83.192365</ele>
        <time>2020-08-02T08:07:33.878Z</time>
      </trkpt>
      <trkpt lat="62.73073" lon="6.77444">
        <ele>83.225383</ele>
        <time>2020-08-02T08:07:35.874Z</time>
      </trkpt>
      <trkpt lat="62.73075" lon="6.77465">
        <ele>83.25797</ele>
        <time>2020-08-02T08:07:37.914Z</time>
      </trkpt>
      <trkpt lat="62.73078" lon="6.77486">
        <ele>83.290396</ele>
        <time>2020-08-02T08:07:39.860Z</time>
      </trkpt>
      <trkpt lat="62.7308" lon="6.77506">
        <ele>83.237738</ele>
        <time>2020-08-02T08:07:41.864Z</time>
      </trkpt>
      <trkpt lat="62.73083" lon="6.77527">
        <ele>83.02987</ele>
        <time>2020-08-02T08:07:43.876Z</time>
      </trkpt>
      <trkpt lat="62.73085" lon="6.77549">
        <ele>82.81829</ele>
        <time>2020-08-02T08:07:45.849Z</time>
      </trkpt>
      <trkpt lat="62.73088" lon="6.77571">
        <ele>82.596967</ele>
        <time>2020-08-02T08:07:47.893Z</time>
      </trkpt>
      <trkpt lat="62.7309" lon="6.77593">
        <ele>82.379813</ele>
        <time>2020-08-02T08:07:49.876Z</time>
      </trkpt>
      <trkpt lat="62.73093" lon="6.77616">
        <ele>82.159869</ele>
        <time>2020-08-02T08:07:51.868Z</time>
      </trkpt>
      <trkpt lat="62.73095" lon="6.77638">
        <ele>81.940346</ele>
        <time>2020-08-02T08:07:53.891Z</time>
      </trkpt>
      <trkpt lat="62.73097" lon="6.77659">
        <ele>81.728803</ele>
        <time>2020-08-02T08:07:55.870Z</time>
      </trkpt>
      <trkpt lat="62.731" lon="6.77681">
        <ele>81.514007</ele>
        <time>2020-08-02T08:07:57.862Z</time>
      </trkpt>
      <trkpt lat="62.73102" lon="6.77703">
        <ele>81.299871</ele>
        <time>2020-08-02T08:07:59.888Z</time>
      </trkpt>
      <trkpt lat="62.73105" lon="6.77724">
        <ele>81.087869</ele>
        <time>2020-08-02T08:08:01.859Z</time>
      </trkpt>
      <trkpt lat="62.73107" lon="6.77746">
        <ele>80.877219</ele>
        <time>2020-08-02T08:08:03.871Z</time>
      </trkpt>
      <trkpt lat="62.7311" lon="6.77768">
        <ele>80.656345</ele>
        <time>2020-08-02T08:08:05.852Z</time>
      </trkpt>
      <trkpt lat="62.73112" lon="6.7779">
        <ele>80.437822</ele>
        <time>2020-08-02T08:08:07.894Z</time>
      </trkpt>
      <trkpt lat="62.73114" lon="6.77812">
        <ele>80.223029</ele>
        <time>2020-08-02T08:08:09.872Z</time>
      </trkpt>
      <trkpt lat="62.73117" lon="6.77833">
        <ele>80.013819</ele>
        <time>2020-08-02T08:08:11.857Z</time>
      </trkpt>
      <trkpt lat="62.73119" lon="6.77854">
        <ele>79.805101</ele>
        <time>2020-08-02T08:08:13.850Z</time>
      </trkpt>
      <trkpt lat="62.73122" lon="6.77876">
        <ele>79.5931</ele>
        <time>2020-08-02T08:08:15.894Z</time>
      </trkpt>
      <trkpt lat="62.73124" lon="6.77897">
        <ele>79.991036</ele>
        <time>2020-08-02T08:08:17.855Z</time>
      </trkpt>
      <trkpt lat="62.73126" lon="6.77917">
        <ele>80.510061</ele>
        <time>2020-08-02T08:08:19.867Z</time>
      </trkpt>
      <trkpt lat="62.73128" lon="6.77946">
        <ele>81.259258</ele>
        <time>2020-08-02T08:08:22.867Z</time>
      </trkpt>
      <trkpt lat="62.7313" lon="6.77975">
        <ele>82.021833</ele>
        <time>2020-08-02T08:08:25.865Z</time>
      </trkpt>
      <trkpt lat="62.73131" lon="6.77995">
        <ele>82.531716</ele>
        <time>2020-08-02T08:08:27.860Z</time>
      </trkpt>
      <trkpt lat="62.73132" lon="6.78015">
        <ele>83.06065</ele>
        <time>2020-08-02T08:08:29.889Z</time>
      </trkpt>
      <trkpt lat="62.73133" lon="6.78036">
        <ele>83.587683</ele>
        <time>2020-08-02T08:08:31.880Z</time>
      </trkpt>
      <trkpt lat="62.73134" lon="6.78056">
        <ele>84.117276</ele>
        <time>2020-08-02T08:08:33.852Z</time>
      </trkpt>
      <trkpt lat="62.73134" lon="6.78076">
        <ele>84.621267</ele>
        <time>2020-08-02T08:08:35.869Z</time>
      </trkpt>
      <trkpt lat="62.73135" lon="6.78106">
        <ele>85.382374</ele>
        <time>2020-08-02T08:08:38.860Z</time>
      </trkpt>
      <trkpt lat="62.73135" lon="6.78126">
        <ele>85.906038</ele>
        <time>2020-08-02T08:08:40.880Z</time>
      </trkpt>
      <trkpt lat="62.73136" lon="6.78148">
        <ele>86.460673</ele>
        <time>2020-08-02T08:08:42.927Z</time>
      </trkpt>
      <trkpt lat="62.73136" lon="6.78168">
        <ele>86.997948</ele>
        <time>2020-08-02T08:08:44.874Z</time>
      </trkpt>
      <trkpt lat="62.73137" lon="6.78189">
        <ele>87.514405</ele>
        <time>2020-08-02T08:08:46.861Z</time>
      </trkpt>
      <trkpt lat="62.73138" lon="6.78209">
        <ele>88.03159</ele>
        <time>2020-08-02T08:08:48.876Z</time>
      </trkpt>
      <trkpt lat="62.73138" lon="6.78237">
        <ele>88.763146</ele>
        <time>2020-08-02T08:08:51.859Z</time>
      </trkpt>
      <trkpt lat="62.73139" lon="6.78264">
        <ele>89.454125</ele>
        <time>2020-08-02T08:08:54.885Z</time>
      </trkpt>
      <trkpt lat="62.73139" lon="6.78289">
        <ele>90.174817</ele>
        <time>2020-08-02T08:08:57.877Z</time>
      </trkpt>
      <trkpt lat="62.7314" lon="6.78313">
        <ele>90.91237</ele>
        <time>2020-08-02T08:09:00.915Z</time>
      </trkpt>
      <trkpt lat="62.7314" lon="6.78335">
        <ele>91.582881</ele>
        <time>2020-08-02T08:09:03.868Z</time>
      </trkpt>
      <trkpt lat="62.7314" lon="6.78356">
        <ele>92.214316</ele>
        <time>2020-08-02T08:09:06.871Z</time>
      </trkpt>
      <trkpt lat="62.73141" lon="6.78376">
        <ele>92.806771</ele>
        <time>2020-08-02T08:09:09.875Z</time>
      </trkpt>
      <trkpt lat="62.73141" lon="6.78397">
        <ele>93.432725</ele>
        <time>2020-08-02T08:09:12.863Z</time>
      </trkpt>
      <trkpt lat="62.73142" lon="6.78423">
        <ele>94.241174</ele>
        <time>2020-08-02T08:09:16.866Z</time>
      </trkpt>
      <trkpt lat="62.73143" lon="6.78449">
        <ele>95.006559</ele>
        <time>2020-08-02T08:09:20.879Z</time>
      </trkpt>
      <trkpt lat="62.73143" lon="6.78469">
        <ele>95.623466</ele>
        <time>2020-08-02T08:09:23.857Z</time>
      </trkpt>
      <trkpt lat="62.73144" lon="6.78491">
        <ele>96.300084</ele>
        <time>2020-08-02T08:09:26.872Z</time>
      </trkpt>
      <trkpt lat="62.73145" lon="6.78513">
        <ele>96.971372</ele>
        <time>2020-08-02T08:09:29.884Z</time>
      </trkpt>
      <trkpt lat="62.73147" lon="6.78536">
        <ele>97.666027</ele>
        <time>2020-08-02T08:09:32.855Z</time>
      </trkpt>
      <trkpt lat="62.73148" lon="6.78558">
        <ele>98.330763</ele>
        <time>2020-08-02T08:09:35.872Z</time>
      </trkpt>
      <trkpt lat="62.73149" lon="6.78582">
        <ele>99.06813</ele>
        <time>2020-08-02T08:09:38.875Z</time>
      </trkpt>
      <trkpt lat="62.73151" lon="6.78608">
        <ele>99.851918</ele>
        <time>2020-08-02T08:09:41.875Z</time>
      </trkpt>
      <trkpt lat="62.73152" lon="6.78636">
        <ele>100.685208</ele>
        <time>2020-08-02T08:09:44.876Z</time>
      </trkpt>
      <trkpt lat="62.73154" lon="6.78663">
        <ele>101.449671</ele>
        <time>2020-08-02T08:09:47.898Z</time>
      </trkpt>
      <trkpt lat="62.73155" lon="6.78692">
        <ele>100.923303</ele>
        <time>2020-08-02T08:09:50.872Z</time>
      </trkpt>
      <trkpt lat="62.73156" lon="6.78713">
        <ele>100.545862</ele>
        <time>2020-08-02T08:09:52.877Z</time>
      </trkpt>
      <trkpt lat="62.73157" lon="6.78733">
        <ele>100.174659</ele>
        <time>2020-08-02T08:09:54.865Z</time>
      </trkpt>
      <trkpt lat="62.73158" lon="6.78754">
        <ele>99.79985</ele>
        <time>2020-08-02T08:09:56.872Z</time>
      </trkpt>
      <trkpt lat="62.73159" lon="6.78774">
        <ele>99.427515</ele>
        <time>2020-08-02T08:09:58.894Z</time>
      </trkpt>
      <trkpt lat="62.73159" lon="6.78795">
        <ele>99.049761</ele>
        <time>2020-08-02T08:10:00.891Z</time>
      </trkpt>
      <trkpt lat="62.7316" lon="6.78816">
        <ele>98.674313</ele>
        <time>2020-08-02T08:10:02.875Z</time>
      </trkpt>
      <trkpt lat="62.7316" lon="6.78837">
        <ele>98.293439</ele>
        <time>2020-08-02T08:10:04.854Z</time>
      </trkpt>
      <trkpt lat="62.73161" lon="6.78857">
        <ele>97.91718</ele>
        <time>2020-08-02T08:10:06.872Z</time>
      </trkpt>
      <trkpt lat="62.73162" lon="6.78878">
        <ele>97.53608</ele>
        <time>2020-08-02T08:10:08.854Z</time>
      </trkpt>
      <trkpt lat="62.73162" lon="6.78899">
        <ele>97.153397</ele>
        <time>2020-08-02T08:10:10.870Z</time>
      </trkpt>
      <trkpt lat="62.73163" lon="6.78921">
        <ele>96.761191</ele>
        <time>2020-08-02T08:10:12.937Z</time>
      </trkpt>
      <trkpt lat="62.73163" lon="6.78942">
        <ele>96.3819</ele>
        <time>2020-08-02T08:10:14.877Z</time>
      </trkpt>
      <trkpt lat="62.73164" lon="6.78963">
        <ele>96.0008</ele>
        <time>2020-08-02T08:10:16.861Z</time>
      </trkpt>
      <trkpt lat="62.73165" lon="6.78984">
        <ele>95.626931</ele>
        <time>2020-08-02T08:10:18.876Z</time>
      </trkpt>
      <trkpt lat="62.73165" lon="6.79004">
        <ele>95.251255</ele>
        <time>2020-08-02T08:10:20.907Z</time>
      </trkpt>
      <trkpt lat="62.73166" lon="6.79025">
        <ele>94.881001</ele>
        <time>2020-08-02T08:10:22.861Z</time>
      </trkpt>
      <trkpt lat="62.73167" lon="6.79045">
        <ele>94.510474</ele>
        <time>2020-08-02T08:10:24.895Z</time>
      </trkpt>
      <trkpt lat="62.73167" lon="6.79066">
        <ele>94.181569</ele>
        <time>2020-08-02T08:10:26.872Z</time>
      </trkpt>
      <trkpt lat="62.73167" lon="6.79086">
        <ele>93.87973</ele>
        <time>2020-08-02T08:10:28.857Z</time>
      </trkpt>
      <trkpt lat="62.73168" lon="6.79108">
        <ele>93.561189</ele>
        <time>2020-08-02T08:10:30.862Z</time>
      </trkpt>
      <trkpt lat="62.73169" lon="6.79129">
        <ele>93.247263</ele>
        <time>2020-08-02T08:10:32.886Z</time>
      </trkpt>
      <trkpt lat="62.73169" lon="6.7915">
        <ele>92.935383</ele>
        <time>2020-08-02T08:10:34.850Z</time>
      </trkpt>
      <trkpt lat="62.73169" lon="6.79171">
        <ele>92.622032</ele>
        <time>2020-08-02T08:10:36.916Z</time>
      </trkpt>
      <trkpt lat="62.73169" lon="6.79201">
        <ele>92.193367</ele>
        <time>2020-08-02T08:10:39.865Z</time>
      </trkpt>
      <trkpt lat="62.73169" lon="6.79221">
        <ele>91.896214</ele>
        <time>2020-08-02T08:10:41.851Z</time>
      </trkpt>
      <trkpt lat="62.7317" lon="6.79243">
        <ele>91.569388</ele>
        <time>2020-08-02T08:10:43.871Z</time>
      </trkpt>
      <trkpt lat="62.7317" lon="6.79265">
        <ele>91.247084</ele>
        <time>2020-08-02T08:10:45.874Z</time>
      </trkpt>
      <trkpt lat="62.73171" lon="6.79286">
        <ele>90.934626</ele>
        <time>2020-08-02T08:10:47.894Z</time>
      </trkpt>
      <trkpt lat="62.73172" lon="6.79307">
        <ele>90.631679</ele>
        <time>2020-08-02T08:10:49.878Z</time>
      </trkpt>
      <trkpt lat="62.73172" lon="6.79328">
        <ele>90.317935</ele>
        <time>2020-08-02T08:10:51.864Z</time>
      </trkpt>
      <trkpt lat="62.73173" lon="6.79348">
        <ele>90.015754</ele>
        <time>2020-08-02T08:10:53.879Z</time>
      </trkpt>
      <trkpt lat="62.73173" lon="6.79368">
        <ele>89.728612</ele>
        <time>2020-08-02T08:10:55.857Z</time>
      </trkpt>
      <trkpt lat="62.73174" lon="6.79388">
        <ele>89.437679</ele>
        <time>2020-08-02T08:10:57.873Z</time>
      </trkpt>
      <trkpt lat="62.73175" lon="6.79408">
        <ele>89.142054</ele>
        <time>2020-08-02T08:10:59.891Z</time>
      </trkpt>
      <trkpt lat="62.73176" lon="6.79428">
        <ele>88.843172</ele>
        <time>2020-08-02T08:11:01.857Z</time>
      </trkpt>
      <trkpt lat="62.73177" lon="6.79448">
        <ele>88.641233</ele>
        <time>2020-08-02T08:11:03.890Z</time>
      </trkpt>
      <trkpt lat="62.73178" lon="6.79468">
        <ele>88.972428</ele>
        <time>2020-08-02T08:11:05.849Z</time>
      </trkpt>
      <trkpt lat="62.73179" lon="6.79488">
        <ele>89.296039</ele>
        <time>2020-08-02T08:11:07.872Z</time>
      </trkpt>
      <trkpt lat="62.73181" lon="6.79508">
        <ele>89.617674</ele>
        <time>2020-08-02T08:11:09.873Z</time>
      </trkpt>
      <trkpt lat="62.73181" lon="6.79529">
        <ele>89.950733</ele>
        <time>2020-08-02T08:11:11.858Z</time>
      </trkpt>
      <trkpt lat="62.73182" lon="6.7955">
        <ele>90.286709</ele>
        <time>2020-08-02T08:11:13.860Z</time>
      </trkpt>
      <trkpt lat="62.73184" lon="6.79571">
        <ele>90.634252</ele>
        <time>2020-08-02T08:11:15.918Z</time>
      </trkpt>
      <trkpt lat="62.73185" lon="6.79592">
        <ele>90.971102</ele>
        <time>2020-08-02T08:11:17.873Z</time>
      </trkpt>
      <trkpt lat="62.73186" lon="6.79613">
        <ele>91.307078</ele>
        <time>2020-08-02T08:11:19.872Z</time>
      </trkpt>
      <trkpt lat="62.73187" lon="6.79634">
        <ele>91.653948</ele>
        <time>2020-08-02T08:11:21.861Z</time>
      </trkpt>
      <trkpt lat="62.73189" lon="6.79655">
        <ele>91.986528</ele>
        <time>2020-08-02T08:11:23.889Z</time>
      </trkpt>
      <trkpt lat="62.7319" lon="6.79675">
        <ele>92.319108</ele>
        <time>2020-08-02T08:11:25.881Z</time>
      </trkpt>
      <trkpt lat="62.73192" lon="6.79697">
        <ele>92.667037</ele>
        <time>2020-08-02T08:11:27.867Z</time>
      </trkpt>
      <trkpt lat="62.73193" lon="6.79718">
        <ele>93.0062</ele>
        <time>2020-08-02T08:11:29.875Z</time>
      </trkpt>
      <trkpt lat="62.73194" lon="6.79739">
        <ele>93.34782</ele>
        <time>2020-08-02T08:11:31.855Z</time>
      </trkpt>
      <trkpt lat="62.73196" lon="6.7976">
        <ele>93.688336</ele>
        <time>2020-08-02T08:11:33.877Z</time>
      </trkpt>
      <trkpt lat="62.73197" lon="6.7978">
        <ele>94.02709</ele>
        <time>2020-08-02T08:11:35.858Z</time>
      </trkpt>
      <trkpt lat="62.73199" lon="6.79801">
        <ele>94.355096</ele>
        <time>2020-08-02T08:11:37.890Z</time>
      </trkpt>
      <trkpt lat="62.732" lon="6.79822">
        <ele>94.699896</ele>
        <time>2020-08-02T08:11:39.851Z</time>
      </trkpt>
      <trkpt lat="62.73201" lon="6.79844">
        <ele>94.722552</ele>
        <time>2020-08-02T08:11:41.860Z</time>
      </trkpt>
      <trkpt lat="62.73203" lon="6.79867">
        <ele>94.330093</ele>
        <time>2020-08-02T08:11:43.877Z</time>
      </trkpt>
      <trkpt lat="62.73204" lon="6.7989">
        <ele>93.92293</ele>
        <time>2020-08-02T08:11:45.869Z</time>
      </trkpt>
      <trkpt lat="62.73205" lon="6.79915">
        <ele>93.499365</ele>
        <time>2020-08-02T08:11:47.852Z</time>
      </trkpt>
      <trkpt lat="62.73207" lon="6.79941">
        <ele>93.058967</ele>
        <time>2020-08-02T08:11:49.859Z</time>
      </trkpt>
      <trkpt lat="62.73209" lon="6.79967">
        <ele>92.607961</ele>
        <time>2020-08-02T08:11:51.858Z</time>
      </trkpt>
      <trkpt lat="62.73211" lon="6.79994">
        <ele>92.15754</ele>
        <time>2020-08-02T08:11:53.932Z</time>
      </trkpt>
      <trkpt lat="62.73213" lon="6.8002">
        <ele>91.711025</ele>
        <time>2020-08-02T08:11:55.870Z</time>
      </trkpt>
      <trkpt lat="62.73214" lon="6.80048">
        <ele>91.240327</ele>
        <time>2020-08-02T08:11:57.901Z</time>
      </trkpt>
      <trkpt lat="62.73215" lon="6.80076">
        <ele>90.762974</ele>
        <time>2020-08-02T08:11:59.872Z</time>
      </trkpt>
      <trkpt lat="62.73217" lon="6.80104">
        <ele>90.276274</ele>
        <time>2020-08-02T08:12:01.853Z</time>
      </trkpt>
      <trkpt lat="62.73219" lon="6.80134">
        <ele>89.762765</ele>
        <time>2020-08-02T08:12:03.876Z</time>
      </trkpt>
      <trkpt lat="62.7322" lon="6.80164">
        <ele>89.249237</ele>
        <time>2020-08-02T08:12:05.876Z</time>
      </trkpt>
      <trkpt lat="62.73221" lon="6.80195">
        <ele>88.732194</ele>
        <time>2020-08-02T08:12:07.867Z</time>
      </trkpt>
      <trkpt lat="62.73223" lon="6.80226">
        <ele>88.227437</ele>
        <time>2020-08-02T08:12:09.865Z</time>
      </trkpt>
      <trkpt lat="62.73224" lon="6.80259">
        <ele>87.958645</ele>
        <time>2020-08-02T08:12:11.893Z</time>
      </trkpt>
      <trkpt lat="62.73225" lon="6.80291">
        <ele>87.692747</ele>
        <time>2020-08-02T08:12:13.853Z</time>
      </trkpt>
      <trkpt lat="62.73227" lon="6.80325">
        <ele>87.414331</ele>
        <time>2020-08-02T08:12:15.916Z</time>
      </trkpt>
      <trkpt lat="62.73228" lon="6.80359">
        <ele>87.134003</ele>
        <time>2020-08-02T08:12:17.870Z</time>
      </trkpt>
      <trkpt lat="62.7323" lon="6.80394">
        <ele>86.84839</ele>
        <time>2020-08-02T08:12:19.869Z</time>
      </trkpt>
      <trkpt lat="62.73232" lon="6.80428">
        <ele>86.560956</ele>
        <time>2020-08-02T08:12:21.868Z</time>
      </trkpt>
      <trkpt lat="62.73234" lon="6.80463">
        <ele>86.272287</ele>
        <time>2020-08-02T08:12:23.872Z</time>
      </trkpt>
      <trkpt lat="62.73235" lon="6.80498">
        <ele>85.986218</ele>
        <time>2020-08-02T08:12:25.869Z</time>
      </trkpt>
      <trkpt lat="62.73238" lon="6.80533">
        <ele>85.696512</ele>
        <time>2020-08-02T08:12:27.876Z</time>
      </trkpt>
      <trkpt lat="62.7324" lon="6.80567">
        <ele>85.413591</ele>
        <time>2020-08-02T08:12:29.860Z</time>
      </trkpt>
      <trkpt lat="62.73242" lon="6.80601">
        <ele>85.139047</ele>
        <time>2020-08-02T08:12:31.871Z</time>
      </trkpt>
      <trkpt lat="62.73245" lon="6.80634">
        <ele>85.172912</ele>
        <time>2020-08-02T08:12:33.875Z</time>
      </trkpt>
      <trkpt lat="62.73247" lon="6.80666">
        <ele>85.391202</ele>
        <time>2020-08-02T08:12:35.865Z</time>
      </trkpt>
      <trkpt lat="62.7325" lon="6.80697">
        <ele>85.60047</ele>
        <time>2020-08-02T08:12:37.894Z</time>
      </trkpt>
      <trkpt lat="62.73252" lon="6.80726">
        <ele>85.797543</ele>
        <time>2020-08-02T08:12:39.849Z</time>
      </trkpt>
      <trkpt lat="62.73255" lon="6.80752">
        <ele>85.977932</ele>
        <time>2020-08-02T08:12:41.854Z</time>
      </trkpt>
      <trkpt lat="62.73257" lon="6.80777">
        <ele>86.145976</ele>
        <time>2020-08-02T08:12:43.860Z</time>
      </trkpt>
      <trkpt lat="62.73259" lon="6.808">
        <ele>86.298817</ele>
        <time>2020-08-02T08:12:45.874Z</time>
      </trkpt>
      <trkpt lat="62.73261" lon="6.80819">
        <ele>86.433832</ele>
        <time>2020-08-02T08:12:47.868Z</time>
      </trkpt>
      <trkpt lat="62.73263" lon="6.80846">
        <ele>86.615715</ele>
        <time>2020-08-02T08:12:50.861Z</time>
      </trkpt>
      <trkpt lat="62.73265" lon="6.80869">
        <ele>86.771541</ele>
        <time>2020-08-02T08:12:53.872Z</time>
      </trkpt>
      <trkpt lat="62.73267" lon="6.80891">
        <ele>86.919902</ele>
        <time>2020-08-02T08:12:56.861Z</time>
      </trkpt>
      <trkpt lat="62.73269" lon="6.80911">
        <ele>87.051515</ele>
        <time>2020-08-02T08:12:59.872Z</time>
      </trkpt>
      <trkpt lat="62.73271" lon="6.8093">
        <ele>87.183224</ele>
        <time>2020-08-02T08:13:02.877Z</time>
      </trkpt>
      <trkpt lat="62.73273" lon="6.80955">
        <ele>87.351014</ele>
        <time>2020-08-02T08:13:06.877Z</time>
      </trkpt>
      <trkpt lat="62.73274" lon="6.80979">
        <ele>87.51266</ele>
        <time>2020-08-02T08:13:10.865Z</time>
      </trkpt>
      <trkpt lat="62.73276" lon="6.80998">
        <ele>87.643403</ele>
        <time>2020-08-02T08:13:13.856Z</time>
      </trkpt>
      <trkpt lat="62.73278" lon="6.81021">
        <ele>87.771201</ele>
        <time>2020-08-02T08:13:17.867Z</time>
      </trkpt>
      <trkpt lat="62.7328" lon="6.81044">
        <ele>87.896788</ele>
        <time>2020-08-02T08:13:21.870Z</time>
      </trkpt>
      <trkpt lat="62.73282" lon="6.81067">
        <ele>88.022691</ele>
        <time>2020-08-02T08:13:25.891Z</time>
      </trkpt>
      <trkpt lat="62.73283" lon="6.8109">
        <ele>88.145071</ele>
        <time>2020-08-02T08:13:29.913Z</time>
      </trkpt>
      <trkpt lat="62.73284" lon="6.81111">
        <ele>88.261153</ele>
        <time>2020-08-02T08:13:33.881Z</time>
      </trkpt>
      <trkpt lat="62.73284" lon="6.81133">
        <ele>88.381045</ele>
        <time>2020-08-02T08:13:37.875Z</time>
      </trkpt>
      <trkpt lat="62.73285" lon="6.81156">
        <ele>88.501128</ele>
        <time>2020-08-02T08:13:41.870Z</time>
      </trkpt>
      <trkpt lat="62.73285" lon="6.81177">
        <ele>88.618769</ele>
        <time>2020-08-02T08:13:45.851Z</time>
      </trkpt>
      <trkpt lat="62.73285" lon="6.812">
        <ele>88.739671</ele>
        <time>2020-08-02T08:13:49.874Z</time>
      </trkpt>
      <trkpt lat="62.73284" lon="6.81222">
        <ele>88.859076</ele>
        <time>2020-08-02T08:13:53.880Z</time>
      </trkpt>
      <trkpt lat="62.73283" lon="6.81245">
        <ele>88.985796</ele>
        <time>2020-08-02T08:13:57.868Z</time>
      </trkpt>
      <trkpt lat="62.73282" lon="6.81268">
        <ele>89.107676</ele>
        <time>2020-08-02T08:14:01.871Z</time>
      </trkpt>
      <trkpt lat="62.73281" lon="6.8129">
        <ele>89.228416</ele>
        <time>2020-08-02T08:14:05.857Z</time>
      </trkpt>
      <trkpt lat="62.7328" lon="6.81312">
        <ele>89.346232</ele>
        <time>2020-08-02T08:14:09.884Z</time>
      </trkpt>
      <trkpt lat="62.73279" lon="6.81332">
        <ele>89.456007</ele>
        <time>2020-08-02T08:14:13.859Z</time>
      </trkpt>
      <trkpt lat="62.73277" lon="6.81355">
        <ele>89.58068</ele>
        <time>2020-08-02T08:14:18.856Z</time>
      </trkpt>
      <trkpt lat="62.73276" lon="6.81375">
        <ele>89.690223</ele>
        <time>2020-08-02T08:14:22.855Z</time>
      </trkpt>
      <trkpt lat="62.73275" lon="6.81399">
        <ele>89.774882</ele>
        <time>2020-08-02T08:14:27.868Z</time>
      </trkpt>
      <trkpt lat="62.73274" lon="6.81421">
        <ele>89.792333</ele>
        <time>2020-08-02T08:14:31.858Z</time>
      </trkpt>
      <trkpt lat="62.73273" lon="6.81444">
        <ele>89.810116</ele>
        <time>2020-08-02T08:14:34.869Z</time>
      </trkpt>
      <trkpt lat="62.73272" lon="6.81474">
        <ele>89.833139</ele>
        <time>2020-08-02T08:14:37.902Z</time>
      </trkpt>
      <trkpt lat="62.7327" lon="6.81497">
        <ele>89.850572</ele>
        <time>2020-08-02T08:14:39.854Z</time>
      </trkpt>
      <trkpt lat="62.7327" lon="6.81523">
        <ele>89.870725</ele>
        <time>2020-08-02T08:14:41.899Z</time>
      </trkpt>
      <trkpt lat="62.73269" lon="6.81552">
        <ele>89.892627</ele>
        <time>2020-08-02T08:14:43.876Z</time>
      </trkpt>
      <trkpt lat="62.73268" lon="6.81581">
        <ele>89.915218</ele>
        <time>2020-08-02T08:14:45.857Z</time>
      </trkpt>
      <trkpt lat="62.73267" lon="6.8161">
        <ele>89.937513</ele>
        <time>2020-08-02T08:14:47.904Z</time>
      </trkpt>
      <trkpt lat="62.73266" lon="6.81639">
        <ele>89.959875</ele>
        <time>2020-08-02T08:14:49.883Z</time>
      </trkpt>
      <trkpt lat="62.73265" lon="6.81667">
        <ele>89.981318</ele>
        <time>2020-08-02T08:14:51.882Z</time>
      </trkpt>
      <trkpt lat="62.73265" lon="6.81695">
        <ele>90.003143</ele>
        <time>2020-08-02T08:14:53.854Z</time>
      </trkpt>
      <trkpt lat="62.73264" lon="6.81725">
        <ele>90.025658</ele>
        <time>2020-08-02T08:14:55.880Z</time>
      </trkpt>
      <trkpt lat="62.73263" lon="6.81754">
        <ele>90.048155</ele>
        <time>2020-08-02T08:14:57.858Z</time>
      </trkpt>
      <trkpt lat="62.73262" lon="6.81784">
        <ele>90.036346</ele>
        <time>2020-08-02T08:14:59.883Z</time>
      </trkpt>
      <trkpt lat="62.73262" lon="6.81814">
        <ele>89.77685</ele>
        <time>2020-08-02T08:15:01.866Z</time>
      </trkpt>
      <trkpt lat="62.73261" lon="6.81845">
        <ele>89.517353</ele>
        <time>2020-08-02T08:15:03.897Z</time>
      </trkpt>
      <trkpt lat="62.7326" lon="6.81874">
        <ele>89.266134</ele>
        <time>2020-08-02T08:15:05.864Z</time>
      </trkpt>
      <trkpt lat="62.73259" lon="6.81899">
        <ele>89.048684</ele>
        <time>2020-08-02T08:15:07.860Z</time>
      </trkpt>
      <trkpt lat="62.73258" lon="6.81923">
        <ele>88.846628</ele>
        <time>2020-08-02T08:15:09.889Z</time>
      </trkpt>
      <trkpt lat="62.73257" lon="6.81945">
        <ele>88.656799</ele>
        <time>2020-08-02T08:15:11.873Z</time>
      </trkpt>
      <trkpt lat="62.73257" lon="6.81964">
        <ele>88.488074</ele>
        <time>2020-08-02T08:15:13.890Z</time>
      </trkpt>
      <trkpt lat="62.73255" lon="6.81992">
        <ele>88.252729</ele>
        <time>2020-08-02T08:15:16.891Z</time>
      </trkpt>
      <trkpt lat="62.73254" lon="6.82018">
        <ele>88.028302</ele>
        <time>2020-08-02T08:15:19.893Z</time>
      </trkpt>
      <trkpt lat="62.73254" lon="6.82042">
        <ele>87.823681</ele>
        <time>2020-08-02T08:15:22.859Z</time>
      </trkpt>
      <trkpt lat="62.73253" lon="6.82066">
        <ele>87.611486</ele>
        <time>2020-08-02T08:15:25.857Z</time>
      </trkpt>
      <trkpt lat="62.73252" lon="6.82093">
        <ele>87.385853</ele>
        <time>2020-08-02T08:15:28.871Z</time>
      </trkpt>
      <trkpt lat="62.73252" lon="6.82121">
        <ele>87.140444</ele>
        <time>2020-08-02T08:15:31.863Z</time>
      </trkpt>
      <trkpt lat="62.73251" lon="6.82148">
        <ele>86.910274</ele>
        <time>2020-08-02T08:15:34.877Z</time>
      </trkpt>
      <trkpt lat="62.73251" lon="6.82175">
        <ele>86.650999</ele>
        <time>2020-08-02T08:15:37.883Z</time>
      </trkpt>
      <trkpt lat="62.7325" lon="6.822">
        <ele>86.094383</ele>
        <time>2020-08-02T08:15:40.863Z</time>
      </trkpt>
      <trkpt lat="62.7325" lon="6.82223">
        <ele>85.594887</ele>
        <time>2020-08-02T08:15:43.869Z</time>
      </trkpt>
      <trkpt lat="62.7325" lon="6.82246">
        <ele>85.094665</ele>
        <time>2020-08-02T08:15:46.898Z</time>
      </trkpt>
      <trkpt lat="62.73249" lon="6.82268">
        <ele>84.605583</ele>
        <time>2020-08-02T08:15:49.852Z</time>
      </trkpt>
      <trkpt lat="62.73249" lon="6.8229">
        <ele>84.125592</ele>
        <time>2020-08-02T08:15:52.859Z</time>
      </trkpt>
      <trkpt lat="62.73249" lon="6.82311">
        <ele>83.669777</ele>
        <time>2020-08-02T08:15:55.873Z</time>
      </trkpt>
      <trkpt lat="62.73248" lon="6.82337">
        <ele>83.094626</ele>
        <time>2020-08-02T08:15:59.874Z</time>
      </trkpt>
      <trkpt lat="62.73247" lon="6.82359">
        <ele>82.621174</ele>
        <time>2020-08-02T08:16:02.866Z</time>
      </trkpt>
      <trkpt lat="62.73247" lon="6.82384">
        <ele>82.085519</ele>
        <time>2020-08-02T08:16:05.920Z</time>
      </trkpt>
      <trkpt lat="62.73245" lon="6.82407">
        <ele>81.565519</ele>
        <time>2020-08-02T08:16:08.892Z</time>
      </trkpt>
      <trkpt lat="62.73245" lon="6.82431">
        <ele>81.041064</ele>
        <time>2020-08-02T08:16:11.863Z</time>
      </trkpt>
      <trkpt lat="62.73244" lon="6.82458">
        <ele>80.467296</ele>
        <time>2020-08-02T08:16:14.876Z</time>
      </trkpt>
      <trkpt lat="62.73242" lon="6.82485">
        <ele>79.867028</ele>
        <time>2020-08-02T08:16:17.861Z</time>
      </trkpt>
      <trkpt lat="62.73241" lon="6.82512">
        <ele>79.276287</ele>
        <time>2020-08-02T08:16:20.856Z</time>
      </trkpt>
      <trkpt lat="62.73241" lon="6.82539">
        <ele>78.675354</ele>
        <time>2020-08-02T08:16:23.897Z</time>
      </trkpt>
      <trkpt lat="62.7324" lon="6.82566">
        <ele>78.137848</ele>
        <time>2020-08-02T08:16:26.860Z</time>
      </trkpt>
      <trkpt lat="62.73239" lon="6.82592">
        <ele>78.100903</ele>
        <time>2020-08-02T08:16:29.864Z</time>
      </trkpt>
      <trkpt lat="62.73239" lon="6.8262">
        <ele>78.061811</ele>
        <time>2020-08-02T08:16:32.879Z</time>
      </trkpt>
      <trkpt lat="62.73238" lon="6.82646">
        <ele>78.024654</ele>
        <time>2020-08-02T08:16:35.859Z</time>
      </trkpt>
      <trkpt lat="62.73238" lon="6.82673">
        <ele>77.986588</ele>
        <time>2020-08-02T08:16:38.887Z</time>
      </trkpt>
      <trkpt lat="62.73238" lon="6.82701">
        <ele>77.947538</ele>
        <time>2020-08-02T08:16:41.928Z</time>
      </trkpt>
      <trkpt lat="62.73238" lon="6.82728">
        <ele>77.909465</ele>
        <time>2020-08-02T08:16:44.856Z</time>
      </trkpt>
      <trkpt lat="62.73239" lon="6.82754">
        <ele>77.871624</ele>
        <time>2020-08-02T08:16:47.858Z</time>
      </trkpt>
      <trkpt lat="62.73239" lon="6.82781">
        <ele>77.833551</ele>
        <time>2020-08-02T08:16:50.873Z</time>
      </trkpt>
      <trkpt lat="62.7324" lon="6.8281">
        <ele>77.793177</ele>
        <time>2020-08-02T08:16:53.895Z</time>
      </trkpt>
      <trkpt lat="62.7324" lon="6.8283">
        <ele>77.764987</ele>
        <time>2020-08-02T08:16:55.864Z</time>
      </trkpt>
      <trkpt lat="62.73241" lon="6.8285">
        <ele>77.736265</ele>
        <time>2020-08-02T08:16:57.864Z</time>
      </trkpt>
      <trkpt lat="62.73242" lon="6.82873">
        <ele>77.704193</ele>
        <time>2020-08-02T08:16:59.857Z</time>
      </trkpt>
      <trkpt lat="62.73243" lon="6.82896">
        <ele>77.671313</ele>
        <time>2020-08-02T08:17:01.901Z</time>
      </trkpt>
      <trkpt lat="62.73244" lon="6.82919">
        <ele>77.639064</ele>
        <time>2020-08-02T08:17:03.874Z</time>
      </trkpt>
      <trkpt lat="62.73246" lon="6.82942">
        <ele>77.606356</ele>
        <time>2020-08-02T08:17:05.879Z</time>
      </trkpt>
      <trkpt lat="62.73247" lon="6.82964">
        <ele>77.593534</ele>
        <time>2020-08-02T08:17:07.885Z</time>
      </trkpt>
      <trkpt lat="62.73248" lon="6.82987">
        <ele>77.610412</ele>
        <time>2020-08-02T08:17:09.861Z</time>
      </trkpt>
      <trkpt lat="62.7325" lon="6.8301">
        <ele>77.627763</ele>
        <time>2020-08-02T08:17:11.880Z</time>
      </trkpt>
      <trkpt lat="62.73252" lon="6.83033">
        <ele>77.644827</ele>
        <time>2020-08-02T08:17:13.868Z</time>
      </trkpt>
      <trkpt lat="62.73255" lon="6.83057">
        <ele>77.663211</ele>
        <time>2020-08-02T08:17:15.874Z</time>
      </trkpt>
      <trkpt lat="62.73258" lon="6.83082">
        <ele>77.681913</ele>
        <time>2020-08-02T08:17:17.859Z</time>
      </trkpt>
      <trkpt lat="62.73261" lon="6.83107">
        <ele>77.700977</ele>
        <time>2020-08-02T08:17:19.898Z</time>
      </trkpt>
      <trkpt lat="62.73264" lon="6.83132">
        <ele>77.719528</ele>
        <time>2020-08-02T08:17:21.870Z</time>
      </trkpt>
      <trkpt lat="62.73267" lon="6.83156">
        <ele>77.73796</ele>
        <time>2020-08-02T08:17:23.873Z</time>
      </trkpt>
      <trkpt lat="62.73271" lon="6.83179">
        <ele>77.756349</ele>
        <time>2020-08-02T08:17:25.867Z</time>
      </trkpt>
      <trkpt lat="62.73275" lon="6.83204">
        <ele>77.775067</ele>
        <time>2020-08-02T08:17:27.867Z</time>
      </trkpt>
      <trkpt lat="62.73279" lon="6.83228">
        <ele>77.794066</ele>
        <time>2020-08-02T08:17:29.881Z</time>
      </trkpt>
      <trkpt lat="62.73283" lon="6.83252">
        <ele>77.812916</ele>
        <time>2020-08-02T08:17:31.856Z</time>
      </trkpt>
      <trkpt lat="62.73287" lon="6.83276">
        <ele>77.831942</ele>
        <time>2020-08-02T08:17:33.876Z</time>
      </trkpt>
      <trkpt lat="62.73292" lon="6.833">
        <ele>77.85103</ele>
        <time>2020-08-02T08:17:35.867Z</time>
      </trkpt>
      <trkpt lat="62.73297" lon="6.83325">
        <ele>77.87111</ele>
        <time>2020-08-02T08:17:37.872Z</time>
      </trkpt>
      <trkpt lat="62.73303" lon="6.8335">
        <ele>77.701516</ele>
        <time>2020-08-02T08:17:39.894Z</time>
      </trkpt>
      <trkpt lat="62.73309" lon="6.83377">
        <ele>77.479917</ele>
        <time>2020-08-02T08:17:41.880Z</time>
      </trkpt>
      <trkpt lat="62.73316" lon="6.83403">
        <ele>77.251069</ele>
        <time>2020-08-02T08:17:43.887Z</time>
      </trkpt>
      <trkpt lat="62.73322" lon="6.83428">
        <ele>77.03513</ele>
        <time>2020-08-02T08:17:45.865Z</time>
      </trkpt>
      <trkpt lat="62.73329" lon="6.83456">
        <ele>76.800423</ele>
        <time>2020-08-02T08:17:47.878Z</time>
      </trkpt>
      <trkpt lat="62.73336" lon="6.83484">
        <ele>76.563405</ele>
        <time>2020-08-02T08:17:49.860Z</time>
      </trkpt>
      <trkpt lat="62.73343" lon="6.83512">
        <ele>76.324607</ele>
        <time>2020-08-02T08:17:51.862Z</time>
      </trkpt>
      <trkpt lat="62.7335" lon="6.8354">
        <ele>76.080466</ele>
        <time>2020-08-02T08:17:53.912Z</time>
      </trkpt>
      <trkpt lat="62.73357" lon="6.83569">
        <ele>75.833043</ele>
        <time>2020-08-02T08:17:55.884Z</time>
      </trkpt>
      <trkpt lat="62.73365" lon="6.83599">
        <ele>75.578899</ele>
        <time>2020-08-02T08:17:57.859Z</time>
      </trkpt>
      <trkpt lat="62.73373" lon="6.8363">
        <ele>75.312747</ele>
        <time>2020-08-02T08:17:59.879Z</time>
      </trkpt>
      <trkpt lat="62.7338" lon="6.83662">
        <ele>75.036844</ele>
        <time>2020-08-02T08:18:01.861Z</time>
      </trkpt>
      <trkpt lat="62.73389" lon="6.83695">
        <ele>74.468606</ele>
        <time>2020-08-02T08:18:03.896Z</time>
      </trkpt>
      <trkpt lat="62.73394" lon="6.83712">
        <ele>74.080318</ele>
        <time>2020-08-02T08:18:04.860Z</time>
      </trkpt>
      <trkpt lat="62.73399" lon="6.83729">
        <ele>73.689808</ele>
        <time>2020-08-02T08:18:05.874Z</time>
      </trkpt>
      <trkpt lat="62.73404" lon="6.83746">
        <ele>73.288448</ele>
        <time>2020-08-02T08:18:06.875Z</time>
      </trkpt>
      <trkpt lat="62.73409" lon="6.83764">
        <ele>72.87666</ele>
        <time>2020-08-02T08:18:07.865Z</time>
      </trkpt>
      <trkpt lat="62.73415" lon="6.83781">
        <ele>72.456765</ele>
        <time>2020-08-02T08:18:08.878Z</time>
      </trkpt>
      <trkpt lat="62.73421" lon="6.83799">
        <ele>72.029323</ele>
        <time>2020-08-02T08:18:09.870Z</time>
      </trkpt>
      <trkpt lat="62.73427" lon="6.83817">
        <ele>71.585297</ele>
        <time>2020-08-02T08:18:10.877Z</time>
      </trkpt>
      <trkpt lat="62.73434" lon="6.83834">
        <ele>71.143543</ele>
        <time>2020-08-02T08:18:11.859Z</time>
      </trkpt>
      <trkpt lat="62.73441" lon="6.83852">
        <ele>70.683579</ele>
        <time>2020-08-02T08:18:12.894Z</time>
      </trkpt>
      <trkpt lat="62.73449" lon="6.83868">
        <ele>70.226261</ele>
        <time>2020-08-02T08:18:13.860Z</time>
      </trkpt>
      <trkpt lat="62.73456" lon="6.83884">
        <ele>69.769766</ele>
        <time>2020-08-02T08:18:14.897Z</time>
      </trkpt>
      <trkpt lat="62.73464" lon="6.839">
        <ele>69.317323</ele>
        <time>2020-08-02T08:18:15.862Z</time>
      </trkpt>
      <trkpt lat="62.73472" lon="6.83916">
        <ele>68.86443</ele>
        <time>2020-08-02T08:18:16.898Z</time>
      </trkpt>
      <trkpt lat="62.73479" lon="6.83931">
        <ele>68.448063</ele>
        <time>2020-08-02T08:18:17.880Z</time>
      </trkpt>
      <trkpt lat="62.73486" lon="6.83945">
        <ele>68.026196</ele>
        <time>2020-08-02T08:18:18.865Z</time>
      </trkpt>
      <trkpt lat="62.73494" lon="6.83959">
        <ele>67.614607</ele>
        <time>2020-08-02T08:18:19.866Z</time>
      </trkpt>
      <trkpt lat="62.735" lon="6.83973">
        <ele>67.220835</ele>
        <time>2020-08-02T08:18:20.879Z</time>
      </trkpt>
      <trkpt lat="62.73507" lon="6.83987">
        <ele>66.881948</ele>
        <time>2020-08-02T08:18:21.883Z</time>
      </trkpt>
      <trkpt lat="62.73518" lon="6.84015">
        <ele>66.235751</ele>
        <time>2020-08-02T08:18:23.859Z</time>
      </trkpt>
      <trkpt lat="62.7353" lon="6.84043">
        <ele>65.615793</ele>
        <time>2020-08-02T08:18:25.883Z</time>
      </trkpt>
      <trkpt lat="62.7354" lon="6.8407">
        <ele>65.011309</ele>
        <time>2020-08-02T08:18:27.867Z</time>
      </trkpt>
      <trkpt lat="62.7355" lon="6.84097">
        <ele>64.42792</ele>
        <time>2020-08-02T08:18:29.862Z</time>
      </trkpt>
      <trkpt lat="62.73559" lon="6.84124">
        <ele>63.866003</ele>
        <time>2020-08-02T08:18:31.867Z</time>
      </trkpt>
      <trkpt lat="62.73567" lon="6.84149">
        <ele>63.338509</ele>
        <time>2020-08-02T08:18:33.871Z</time>
      </trkpt>
      <trkpt lat="62.73575" lon="6.84174">
        <ele>62.834139</ele>
        <time>2020-08-02T08:18:35.913Z</time>
      </trkpt>
      <trkpt lat="62.73582" lon="6.84198">
        <ele>62.356316</ele>
        <time>2020-08-02T08:18:37.876Z</time>
      </trkpt>
      <trkpt lat="62.73589" lon="6.84221">
        <ele>61.884778</ele>
        <time>2020-08-02T08:18:39.876Z</time>
      </trkpt>
      <trkpt lat="62.73595" lon="6.84244">
        <ele>61.428126</ele>
        <time>2020-08-02T08:18:41.911Z</time>
      </trkpt>
      <trkpt lat="62.73602" lon="6.84266">
        <ele>60.984933</ele>
        <time>2020-08-02T08:18:43.878Z</time>
      </trkpt>
      <trkpt lat="62.73608" lon="6.84288">
        <ele>60.574139</ele>
        <time>2020-08-02T08:18:45.860Z</time>
      </trkpt>
      <trkpt lat="62.73614" lon="6.8431">
        <ele>60.405173</ele>
        <time>2020-08-02T08:18:47.896Z</time>
      </trkpt>
      <trkpt lat="62.73619" lon="6.84331">
        <ele>60.243038</ele>
        <time>2020-08-02T08:18:49.863Z</time>
      </trkpt>
      <trkpt lat="62.73624" lon="6.84352">
        <ele>60.081024</ele>
        <time>2020-08-02T08:18:51.868Z</time>
      </trkpt>
      <trkpt lat="62.7363" lon="6.84373">
        <ele>59.920644</ele>
        <time>2020-08-02T08:18:53.854Z</time>
      </trkpt>
      <trkpt lat="62.73635" lon="6.84394">
        <ele>59.758631</ele>
        <time>2020-08-02T08:18:55.867Z</time>
      </trkpt>
      <trkpt lat="62.7364" lon="6.84415">
        <ele>59.599187</ele>
        <time>2020-08-02T08:18:57.882Z</time>
      </trkpt>
      <trkpt lat="62.73645" lon="6.84436">
        <ele>59.437279</ele>
        <time>2020-08-02T08:18:59.858Z</time>
      </trkpt>
      <trkpt lat="62.7365" lon="6.84458">
        <ele>59.274778</ele>
        <time>2020-08-02T08:19:01.894Z</time>
      </trkpt>
      <trkpt lat="62.73655" lon="6.8448">
        <ele>59.110035</ele>
        <time>2020-08-02T08:19:03.857Z</time>
      </trkpt>
      <trkpt lat="62.73661" lon="6.84502">
        <ele>58.938524</ele>
        <time>2020-08-02T08:19:05.881Z</time>
      </trkpt>
      <trkpt lat="62.73666" lon="6.84524">
        <ele>58.773781</ele>
        <time>2020-08-02T08:19:07.869Z</time>
      </trkpt>
      <trkpt lat="62.73671" lon="6.84546">
        <ele>58.612465</ele>
        <time>2020-08-02T08:19:09.875Z</time>
      </trkpt>
      <trkpt lat="62.73677" lon="6.84567">
        <ele>58.445248</ele>
        <time>2020-08-02T08:19:11.870Z</time>
      </trkpt>
      <trkpt lat="62.73683" lon="6.84589">
        <ele>58.273888</ele>
        <time>2020-08-02T08:19:13.861Z</time>
      </trkpt>
      <trkpt lat="62.73689" lon="6.84611">
        <ele>58.099245</ele>
        <time>2020-08-02T08:19:15.890Z</time>
      </trkpt>
      <trkpt lat="62.73695" lon="6.84634">
        <ele>57.949993</ele>
        <time>2020-08-02T08:19:17.870Z</time>
      </trkpt>
      <trkpt lat="62.73701" lon="6.84658">
        <ele>57.914049</ele>
        <time>2020-08-02T08:19:19.878Z</time>
      </trkpt>
      <trkpt lat="62.73707" lon="6.84683">
        <ele>57.876346</ele>
        <time>2020-08-02T08:19:21.925Z</time>
      </trkpt>
      <trkpt lat="62.73714" lon="6.84709">
        <ele>57.836017</ele>
        <time>2020-08-02T08:19:23.872Z</time>
      </trkpt>
      <trkpt lat="62.73721" lon="6.84739">
        <ele>57.791629</ele>
        <time>2020-08-02T08:19:25.867Z</time>
      </trkpt>
      <trkpt lat="62.73728" lon="6.84771">
        <ele>57.744247</ele>
        <time>2020-08-02T08:19:27.877Z</time>
      </trkpt>
      <trkpt lat="62.73736" lon="6.84806">
        <ele>57.693507</ele>
        <time>2020-08-02T08:19:29.849Z</time>
      </trkpt>
      <trkpt lat="62.7374" lon="6.84824">
        <ele>57.667116</ele>
        <time>2020-08-02T08:19:30.877Z</time>
      </trkpt>
      <trkpt lat="62.73743" lon="6.84842">
        <ele>57.641087</ele>
        <time>2020-08-02T08:19:31.885Z</time>
      </trkpt>
      <trkpt lat="62.73747" lon="6.8486">
        <ele>57.614332</ele>
        <time>2020-08-02T08:19:32.860Z</time>
      </trkpt>
      <trkpt lat="62.73751" lon="6.84879">
        <ele>57.587333</ele>
        <time>2020-08-02T08:19:33.867Z</time>
      </trkpt>
      <trkpt lat="62.73755" lon="6.84897">
        <ele>57.560221</ele>
        <time>2020-08-02T08:19:34.879Z</time>
      </trkpt>
      <trkpt lat="62.73758" lon="6.84915">
        <ele>57.534189</ele>
        <time>2020-08-02T08:19:35.862Z</time>
      </trkpt>
      <trkpt lat="62.73765" lon="6.8495">
        <ele>57.48379</ele>
        <time>2020-08-02T08:19:37.865Z</time>
      </trkpt>
      <trkpt lat="62.73771" lon="6.84983">
        <ele>57.436293</ele>
        <time>2020-08-02T08:19:39.861Z</time>
      </trkpt>
      <trkpt lat="62.73777" lon="6.85015">
        <ele>57.723715</ele>
        <time>2020-08-02T08:19:41.858Z</time>
      </trkpt>
      <trkpt lat="62.73783" lon="6.85044">
        <ele>57.99278</ele>
        <time>2020-08-02T08:19:43.884Z</time>
      </trkpt>
      <trkpt lat="62.73788" lon="6.85071">
        <ele>58.243228</ele>
        <time>2020-08-02T08:19:45.866Z</time>
      </trkpt>
      <trkpt lat="62.73792" lon="6.85097">
        <ele>58.472946</ele>
        <time>2020-08-02T08:19:47.869Z</time>
      </trkpt>
      <trkpt lat="62.73797" lon="6.8512">
        <ele>58.69103</ele>
        <time>2020-08-02T08:19:49.871Z</time>
      </trkpt>
      <trkpt lat="62.73801" lon="6.85141">
        <ele>58.884223</ele>
        <time>2020-08-02T08:19:51.887Z</time>
      </trkpt>
      <trkpt lat="62.73804" lon="6.85161">
        <ele>59.059821</ele>
        <time>2020-08-02T08:19:53.896Z</time>
      </trkpt>
      <trkpt lat="62.73807" lon="6.8518">
        <ele>59.229604</ele>
        <time>2020-08-02T08:19:55.853Z</time>
      </trkpt>
      <trkpt lat="62.73812" lon="6.85207">
        <ele>59.473587</ele>
        <time>2020-08-02T08:19:58.875Z</time>
      </trkpt>
      <trkpt lat="62.73816" lon="6.85231">
        <ele>59.696025</ele>
        <time>2020-08-02T08:20:01.849Z</time>
      </trkpt>
      <trkpt lat="62.7382" lon="6.85256">
        <ele>59.925977</ele>
        <time>2020-08-02T08:20:04.895Z</time>
      </trkpt>
      <trkpt lat="62.73824" lon="6.85281">
        <ele>60.152243</ele>
        <time>2020-08-02T08:20:07.863Z</time>
      </trkpt>
      <trkpt lat="62.73829" lon="6.85306">
        <ele>60.37677</ele>
        <time>2020-08-02T08:20:10.862Z</time>
      </trkpt>
      <trkpt lat="62.73833" lon="6.8533">
        <ele>60.594422</ele>
        <time>2020-08-02T08:20:13.861Z</time>
      </trkpt>
      <trkpt lat="62.73837" lon="6.85354">
        <ele>60.771629</ele>
        <time>2020-08-02T08:20:16.855Z</time>
      </trkpt>
      <trkpt lat="62.73841" lon="6.85377">
        <ele>60.765534</ele>
        <time>2020-08-02T08:20:19.858Z</time>
      </trkpt>
      <trkpt lat="62.73845" lon="6.85402">
        <ele>60.758798</ele>
        <time>2020-08-02T08:20:22.877Z</time>
      </trkpt>
      <trkpt lat="62.73849" lon="6.85426">
        <ele>60.752404</ele>
        <time>2020-08-02T08:20:25.848Z</time>
      </trkpt>
      <trkpt lat="62.73853" lon="6.8545">
        <ele>60.745688</ele>
        <time>2020-08-02T08:20:28.873Z</time>
      </trkpt>
      <trkpt lat="62.73857" lon="6.85475">
        <ele>60.739041</ele>
        <time>2020-08-02T08:20:31.899Z</time>
      </trkpt>
      <trkpt lat="62.73861" lon="6.855">
        <ele>60.732465</ele>
        <time>2020-08-02T08:20:34.862Z</time>
      </trkpt>
      <trkpt lat="62.73865" lon="6.85526">
        <ele>60.725555</ele>
        <time>2020-08-02T08:20:37.860Z</time>
      </trkpt>
      <trkpt lat="62.73868" lon="6.85545">
        <ele>60.720399</ele>
        <time>2020-08-02T08:20:39.900Z</time>
      </trkpt>
      <trkpt lat="62.73872" lon="6.85567">
        <ele>60.714682</ele>
        <time>2020-08-02T08:20:41.855Z</time>
      </trkpt>
      <trkpt lat="62.73876" lon="6.85591">
        <ele>60.708052</ele>
        <time>2020-08-02T08:20:43.862Z</time>
      </trkpt>
      <trkpt lat="62.7388" lon="6.8562">
        <ele>60.700294</ele>
        <time>2020-08-02T08:20:45.888Z</time>
      </trkpt>
      <trkpt lat="62.73885" lon="6.85652">
        <ele>60.691821</ele>
        <time>2020-08-02T08:20:47.888Z</time>
      </trkpt>
      <trkpt lat="62.73891" lon="6.85687">
        <ele>60.68246</ele>
        <time>2020-08-02T08:20:49.880Z</time>
      </trkpt>
      <trkpt lat="62.73895" lon="6.85705">
        <ele>60.67747</ele>
        <time>2020-08-02T08:20:50.869Z</time>
      </trkpt>
      <trkpt lat="62.73898" lon="6.85725">
        <ele>60.591075</ele>
        <time>2020-08-02T08:20:51.904Z</time>
      </trkpt>
      <trkpt lat="62.73901" lon="6.85744">
        <ele>60.287895</ele>
        <time>2020-08-02T08:20:52.884Z</time>
      </trkpt>
      <trkpt lat="62.73904" lon="6.85764">
        <ele>59.985769</ele>
        <time>2020-08-02T08:20:53.895Z</time>
      </trkpt>
      <trkpt lat="62.73907" lon="6.85783">
        <ele>59.69081</ele>
        <time>2020-08-02T08:20:54.864Z</time>
      </trkpt>
      <trkpt lat="62.73911" lon="6.85803">
        <ele>59.385437</ele>
        <time>2020-08-02T08:20:55.875Z</time>
      </trkpt>
      <trkpt lat="62.73914" lon="6.85822">
        <ele>59.080456</ele>
        <time>2020-08-02T08:20:56.871Z</time>
      </trkpt>
      <trkpt lat="62.73918" lon="6.85841">
        <ele>58.780869</ele>
        <time>2020-08-02T08:20:57.873Z</time>
      </trkpt>
      <trkpt lat="62.73921" lon="6.8586">
        <ele>58.483835</ele>
        <time>2020-08-02T08:20:58.890Z</time>
      </trkpt>
      <trkpt lat="62.73925" lon="6.85879">
        <ele>58.18545</ele>
        <time>2020-08-02T08:20:59.875Z</time>
      </trkpt>
      <trkpt lat="62.73928" lon="6.85898">
        <ele>57.890742</ele>
        <time>2020-08-02T08:21:00.899Z</time>
      </trkpt>
      <trkpt lat="62.73931" lon="6.85916">
        <ele>57.603974</ele>
        <time>2020-08-02T08:21:01.871Z</time>
      </trkpt>
      <trkpt lat="62.73935" lon="6.85935">
        <ele>57.310628</ele>
        <time>2020-08-02T08:21:02.873Z</time>
      </trkpt>
      <trkpt lat="62.73938" lon="6.85953">
        <ele>57.021682</ele>
        <time>2020-08-02T08:21:03.857Z</time>
      </trkpt>
      <trkpt lat="62.73942" lon="6.85972">
        <ele>56.727349</ele>
        <time>2020-08-02T08:21:04.875Z</time>
      </trkpt>
      <trkpt lat="62.73948" lon="6.86007">
        <ele>56.173016</ele>
        <time>2020-08-02T08:21:06.886Z</time>
      </trkpt>
      <trkpt lat="62.73954" lon="6.86039">
        <ele>55.673899</ele>
        <time>2020-08-02T08:21:08.855Z</time>
      </trkpt>
      <trkpt lat="62.73959" lon="6.86069">
        <ele>55.213349</ele>
        <time>2020-08-02T08:21:10.853Z</time>
      </trkpt>
      <trkpt lat="62.73963" lon="6.86095">
        <ele>55.15425</ele>
        <time>2020-08-02T08:21:12.854Z</time>
      </trkpt>
      <trkpt lat="62.73967" lon="6.86118">
        <ele>55.662876</ele>
        <time>2020-08-02T08:21:14.895Z</time>
      </trkpt>
      <trkpt lat="62.73971" lon="6.86139">
        <ele>56.111329</ele>
        <time>2020-08-02T08:21:16.875Z</time>
      </trkpt>
      <trkpt lat="62.73975" lon="6.86164">
        <ele>56.645812</ele>
        <time>2020-08-02T08:21:19.874Z</time>
      </trkpt>
      <trkpt lat="62.73978" lon="6.86185">
        <ele>57.099471</ele>
        <time>2020-08-02T08:21:22.876Z</time>
      </trkpt>
      <trkpt lat="62.73981" lon="6.86208">
        <ele>57.58531</ele>
        <time>2020-08-02T08:21:26.850Z</time>
      </trkpt>
      <trkpt lat="62.73985" lon="6.86232">
        <ele>58.095039</ele>
        <time>2020-08-02T08:21:30.867Z</time>
      </trkpt>
      <trkpt lat="62.73988" lon="6.86256">
        <ele>58.581433</ele>
        <time>2020-08-02T08:21:34.855Z</time>
      </trkpt>
      <trkpt lat="62.7399" lon="6.86277">
        <ele>59.037683</ele>
        <time>2020-08-02T08:21:38.855Z</time>
      </trkpt>
      <trkpt lat="62.73993" lon="6.863">
        <ele>59.513184</ele>
        <time>2020-08-02T08:21:42.862Z</time>
      </trkpt>
      <trkpt lat="62.73996" lon="6.8632">
        <ele>59.942508</ele>
        <time>2020-08-02T08:21:45.859Z</time>
      </trkpt>
      <trkpt lat="62.73999" lon="6.86342">
        <ele>60.402528</ele>
        <time>2020-08-02T08:21:48.874Z</time>
      </trkpt>
      <trkpt lat="62.74002" lon="6.86362">
        <ele>60.837502</ele>
        <time>2020-08-02T08:21:51.861Z</time>
      </trkpt>
      <trkpt lat="62.74005" lon="6.86382">
        <ele>61.261482</ele>
        <time>2020-08-02T08:21:54.872Z</time>
      </trkpt>
      <trkpt lat="62.74008" lon="6.86401">
        <ele>61.66893</ele>
        <time>2020-08-02T08:21:57.868Z</time>
      </trkpt>
      <trkpt lat="62.74012" lon="6.8642">
        <ele>62.0726</ele>
        <time>2020-08-02T08:22:00.859Z</time>
      </trkpt>
      <trkpt lat="62.74015" lon="6.86439">
        <ele>62.47598</ele>
        <time>2020-08-02T08:22:03.862Z</time>
      </trkpt>
      <trkpt lat="62.74018" lon="6.86458">
        <ele>62.882253</ele>
        <time>2020-08-02T08:22:06.867Z</time>
      </trkpt>
      <trkpt lat="62.74022" lon="6.86481">
        <ele>63.563199</ele>
        <time>2020-08-02T08:22:10.860Z</time>
      </trkpt>
      <trkpt lat="62.74026" lon="6.86504">
        <ele>64.243579</ele>
        <time>2020-08-02T08:22:14.879Z</time>
      </trkpt>
      <trkpt lat="62.7403" lon="6.86526">
        <ele>64.921045</ele>
        <time>2020-08-02T08:22:18.890Z</time>
      </trkpt>
      <trkpt lat="62.74035" lon="6.86547">
        <ele>65.537621</ele>
        <time>2020-08-02T08:22:22.885Z</time>
      </trkpt>
      <trkpt lat="62.74039" lon="6.86567">
        <ele>66.15923</ele>
        <time>2020-08-02T08:22:26.862Z</time>
      </trkpt>
      <trkpt lat="62.74044" lon="6.86587">
        <ele>66.761168</ele>
        <time>2020-08-02T08:22:30.862Z</time>
      </trkpt>
      <trkpt lat="62.74048" lon="6.86605">
        <ele>67.325247</ele>
        <time>2020-08-02T08:22:34.849Z</time>
      </trkpt>
      <trkpt lat="62.74053" lon="6.86625">
        <ele>67.95869</ele>
        <time>2020-08-02T08:22:38.849Z</time>
      </trkpt>
      <trkpt lat="62.74058" lon="6.86645">
        <ele>68.59</ele>
        <time>2020-08-02T08:22:42.892Z</time>
      </trkpt>
      <trkpt lat="62.74064" lon="6.86666">
        <ele>69.269432</ele>
        <time>2020-08-02T08:22:46.873Z</time>
      </trkpt>
      <trkpt lat="62.74071" lon="6.86686">
        <ele>69.973546</ele>
        <time>2020-08-02T08:22:50.851Z</time>
      </trkpt>
      <trkpt lat="62.74077" lon="6.86708">
        <ele>70.681765</ele>
        <time>2020-08-02T08:22:54.870Z</time>
      </trkpt>
      <trkpt lat="62.74083" lon="6.86727">
        <ele>71.320159</ele>
        <time>2020-08-02T08:22:58.872Z</time>
      </trkpt>
      <trkpt lat="62.7409" lon="6.86747">
        <ele>72.014045</ele>
        <time>2020-08-02T08:23:02.894Z</time>
      </trkpt>
      <trkpt lat="62.74098" lon="6.86766">
        <ele>72.70579</ele>
        <time>2020-08-02T08:23:06.862Z</time>
      </trkpt>
      <trkpt lat="62.74104" lon="6.86782">
        <ele>73.293301</ele>
        <time>2020-08-02T08:23:10.898Z</time>
      </trkpt>
      <trkpt lat="62.74111" lon="6.86799">
        <ele>73.789404</ele>
        <time>2020-08-02T08:23:14.851Z</time>
      </trkpt>
      <trkpt lat="62.74118" lon="6.86817">
        <ele>74.014042</ele>
        <time>2020-08-02T08:23:18.884Z</time>
      </trkpt>
      <trkpt lat="62.74125" lon="6.86834">
        <ele>74.23589</ele>
        <time>2020-08-02T08:23:22.867Z</time>
      </trkpt>
      <trkpt lat="62.74132" lon="6.86853">
        <ele>74.454943</ele>
        <time>2020-08-02T08:23:26.860Z</time>
      </trkpt>
      <trkpt lat="62.74139" lon="6.86869">
        <ele>74.670476</ele>
        <time>2020-08-02T08:23:30.848Z</time>
      </trkpt>
      <trkpt lat="62.74146" lon="6.86887">
        <ele>74.888278</ele>
        <time>2020-08-02T08:23:34.879Z</time>
      </trkpt>
      <trkpt lat="62.74152" lon="6.86903">
        <ele>75.097566</ele>
        <time>2020-08-02T08:23:38.856Z</time>
      </trkpt>
      <trkpt lat="62.74159" lon="6.8692">
        <ele>75.307565</ele>
        <time>2020-08-02T08:23:42.880Z</time>
      </trkpt>
      <trkpt lat="62.74166" lon="6.86936">
        <ele>75.508501</ele>
        <time>2020-08-02T08:23:46.868Z</time>
      </trkpt>
      <trkpt lat="62.74172" lon="6.86954">
        <ele>75.720328</ele>
        <time>2020-08-02T08:23:50.885Z</time>
      </trkpt>
      <trkpt lat="62.74179" lon="6.86971">
        <ele>75.940907</ele>
        <time>2020-08-02T08:23:54.863Z</time>
      </trkpt>
      <trkpt lat="62.74186" lon="6.86988">
        <ele>76.152331</ele>
        <time>2020-08-02T08:23:58.873Z</time>
      </trkpt>
      <trkpt lat="62.74191" lon="6.87004">
        <ele>76.341517</ele>
        <time>2020-08-02T08:24:02.859Z</time>
      </trkpt>
      <trkpt lat="62.74197" lon="6.87019">
        <ele>76.531574</ele>
        <time>2020-08-02T08:24:06.869Z</time>
      </trkpt>
      <trkpt lat="62.74204" lon="6.87037">
        <ele>76.747321</ele>
        <time>2020-08-02T08:24:11.865Z</time>
      </trkpt>
      <trkpt lat="62.7421" lon="6.87053">
        <ele>76.950662</ele>
        <time>2020-08-02T08:24:16.850Z</time>
      </trkpt>
      <trkpt lat="62.74216" lon="6.87071">
        <ele>77.161434</ele>
        <time>2020-08-02T08:24:21.863Z</time>
      </trkpt>
      <trkpt lat="62.74223" lon="6.8709">
        <ele>77.386511</ele>
        <time>2020-08-02T08:24:26.851Z</time>
      </trkpt>
      <trkpt lat="62.74228" lon="6.87108">
        <ele>77.37425</ele>
        <time>2020-08-02T08:24:30.851Z</time>
      </trkpt>
      <trkpt lat="62.74234" lon="6.87127">
        <ele>77.276647</ele>
        <time>2020-08-02T08:24:35.892Z</time>
      </trkpt>
      <trkpt lat="62.74238" lon="6.87148">
        <ele>77.17662</ele>
        <time>2020-08-02T08:24:40.869Z</time>
      </trkpt>
      <trkpt lat="62.74243" lon="6.87166">
        <ele>77.089287</ele>
        <time>2020-08-02T08:24:44.880Z</time>
      </trkpt>
      <trkpt lat="62.74247" lon="6.87189">
        <ele>76.985019</ele>
        <time>2020-08-02T08:24:48.871Z</time>
      </trkpt>
      <trkpt lat="62.74251" lon="6.87213">
        <ele>76.876972</ele>
        <time>2020-08-02T08:24:52.875Z</time>
      </trkpt>
      <trkpt lat="62.74255" lon="6.87233">
        <ele>76.78365</ele>
        <time>2020-08-02T08:24:55.901Z</time>
      </trkpt>
      <trkpt lat="62.74257" lon="6.87258">
        <ele>76.674151</ele>
        <time>2020-08-02T08:24:58.862Z</time>
      </trkpt>
      <trkpt lat="62.7426" lon="6.87278">
        <ele>76.587056</ele>
        <time>2020-08-02T08:25:00.872Z</time>
      </trkpt>
      <trkpt lat="62.74264" lon="6.87299">
        <ele>76.489006</ele>
        <time>2020-08-02T08:25:02.859Z</time>
      </trkpt>
      <trkpt lat="62.74267" lon="6.87326">
        <ele>76.373679</ele>
        <time>2020-08-02T08:25:04.881Z</time>
      </trkpt>
      <trkpt lat="62.7427" lon="6.87355">
        <ele>76.244391</ele>
        <time>2020-08-02T08:25:06.862Z</time>
      </trkpt>
      <trkpt lat="62.74274" lon="6.87389">
        <ele>76.095235</ele>
        <time>2020-08-02T08:25:08.891Z</time>
      </trkpt>
      <trkpt lat="62.74277" lon="6.87428">
        <ele>75.929091</ele>
        <time>2020-08-02T08:25:10.872Z</time>
      </trkpt>
      <trkpt lat="62.74277" lon="6.87468">
        <ele>75.737506</ele>
        <time>2020-08-02T08:25:12.864Z</time>
      </trkpt>
      <trkpt lat="62.74276" lon="6.8749">
        <ele>75.416855</ele>
        <time>2020-08-02T08:25:13.871Z</time>
      </trkpt>
      <trkpt lat="62.74276" lon="6.87513">
        <ele>75.097622</ele>
        <time>2020-08-02T08:25:14.893Z</time>
      </trkpt>
      <trkpt lat="62.74275" lon="6.87537">
        <ele>74.762566</ele>
        <time>2020-08-02T08:25:15.864Z</time>
      </trkpt>
      <trkpt lat="62.74275" lon="6.87561">
        <ele>74.419134</ele>
        <time>2020-08-02T08:25:16.861Z</time>
      </trkpt>
      <trkpt lat="62.74275" lon="6.87585">
        <ele>74.074161</ele>
        <time>2020-08-02T08:25:17.872Z</time>
      </trkpt>
      <trkpt lat="62.74274" lon="6.8761">
        <ele>73.722389</ele>
        <time>2020-08-02T08:25:18.871Z</time>
      </trkpt>
      <trkpt lat="62.74274" lon="6.87636">
        <ele>73.34798</ele>
        <time>2020-08-02T08:25:19.902Z</time>
      </trkpt>
      <trkpt lat="62.74275" lon="6.87662">
        <ele>72.980024</ele>
        <time>2020-08-02T08:25:20.896Z</time>
      </trkpt>
      <trkpt lat="62.74277" lon="6.87689">
        <ele>72.598523</ele>
        <time>2020-08-02T08:25:21.873Z</time>
      </trkpt>
      <trkpt lat="62.74279" lon="6.87715">
        <ele>72.2227</ele>
        <time>2020-08-02T08:25:22.859Z</time>
      </trkpt>
      <trkpt lat="62.74281" lon="6.8774">
        <ele>71.852202</ele>
        <time>2020-08-02T08:25:23.868Z</time>
      </trkpt>
      <trkpt lat="62.74284" lon="6.87765">
        <ele>71.494153</ele>
        <time>2020-08-02T08:25:24.861Z</time>
      </trkpt>
      <trkpt lat="62.74286" lon="6.8779">
        <ele>71.138172</ele>
        <time>2020-08-02T08:25:25.872Z</time>
      </trkpt>
      <trkpt lat="62.74289" lon="6.87813">
        <ele>70.797401</ele>
        <time>2020-08-02T08:25:26.867Z</time>
      </trkpt>
      <trkpt lat="62.74291" lon="6.87836">
        <ele>70.460047</ele>
        <time>2020-08-02T08:25:27.858Z</time>
      </trkpt>
      <trkpt lat="62.74294" lon="6.87858">
        <ele>70.154193</ele>
        <time>2020-08-02T08:25:28.892Z</time>
      </trkpt>
      <trkpt lat="62.74296" lon="6.8788">
        <ele>69.9382</ele>
        <time>2020-08-02T08:25:29.871Z</time>
      </trkpt>
      <trkpt lat="62.74298" lon="6.87902">
        <ele>69.721226</ele>
        <time>2020-08-02T08:25:30.855Z</time>
      </trkpt>
      <trkpt lat="62.743" lon="6.87922">
        <ele>69.514646</ele>
        <time>2020-08-02T08:25:31.892Z</time>
      </trkpt>
      <trkpt lat="62.74303" lon="6.87943">
        <ele>69.309076</ele>
        <time>2020-08-02T08:25:32.868Z</time>
      </trkpt>
      <trkpt lat="62.74305" lon="6.87964">
        <ele>69.095856</ele>
        <time>2020-08-02T08:25:33.894Z</time>
      </trkpt>
      <trkpt lat="62.74307" lon="6.87983">
        <ele>68.902142</ele>
        <time>2020-08-02T08:25:34.858Z</time>
      </trkpt>
      <trkpt lat="62.7431" lon="6.88002">
        <ele>68.71073</ele>
        <time>2020-08-02T08:25:35.872Z</time>
      </trkpt>
      <trkpt lat="62.74314" lon="6.88039">
        <ele>68.343669</ele>
        <time>2020-08-02T08:25:37.870Z</time>
      </trkpt>
      <trkpt lat="62.7432" lon="6.8807">
        <ele>68.014793</ele>
        <time>2020-08-02T08:25:39.869Z</time>
      </trkpt>
      <trkpt lat="62.74324" lon="6.88097">
        <ele>67.74391</ele>
        <time>2020-08-02T08:25:41.904Z</time>
      </trkpt>
      <trkpt lat="62.74327" lon="6.88117">
        <ele>67.532471</ele>
        <time>2020-08-02T08:25:43.873Z</time>
      </trkpt>
      <trkpt lat="62.74332" lon="6.88142">
        <ele>67.272196</ele>
        <time>2020-08-02T08:25:46.861Z</time>
      </trkpt>
      <trkpt lat="62.74335" lon="6.88165">
        <ele>67.037712</ele>
        <time>2020-08-02T08:25:49.867Z</time>
      </trkpt>
      <trkpt lat="62.74339" lon="6.88187">
        <ele>66.805786</ele>
        <time>2020-08-02T08:25:52.892Z</time>
      </trkpt>
      <trkpt lat="62.74343" lon="6.8821">
        <ele>66.569972</ele>
        <time>2020-08-02T08:25:55.874Z</time>
      </trkpt>
      <trkpt lat="62.74347" lon="6.88238">
        <ele>66.24169</ele>
        <time>2020-08-02T08:25:58.909Z</time>
      </trkpt>
      <trkpt lat="62.7435" lon="6.88258">
        <ele>65.920338</ele>
        <time>2020-08-02T08:26:00.867Z</time>
      </trkpt>
      <trkpt lat="62.74354" lon="6.88283">
        <ele>65.541135</ele>
        <time>2020-08-02T08:26:02.872Z</time>
      </trkpt>
      <trkpt lat="62.74358" lon="6.88309">
        <ele>65.133053</ele>
        <time>2020-08-02T08:26:04.856Z</time>
      </trkpt>
      <trkpt lat="62.74362" lon="6.88336">
        <ele>64.710659</ele>
        <time>2020-08-02T08:26:06.873Z</time>
      </trkpt>
      <trkpt lat="62.74366" lon="6.88364">
        <ele>64.279305</ele>
        <time>2020-08-02T08:26:08.869Z</time>
      </trkpt>
      <trkpt lat="62.7437" lon="6.88391">
        <ele>63.859219</ele>
        <time>2020-08-02T08:26:10.873Z</time>
      </trkpt>
      <trkpt lat="62.74374" lon="6.88417">
        <ele>63.452534</ele>
        <time>2020-08-02T08:26:12.912Z</time>
      </trkpt>
      <trkpt lat="62.74379" lon="6.88442">
        <ele>63.060052</ele>
        <time>2020-08-02T08:26:14.864Z</time>
      </trkpt>
      <trkpt lat="62.74382" lon="6.88467">
        <ele>62.676011</ele>
        <time>2020-08-02T08:26:16.872Z</time>
      </trkpt>
      <trkpt lat="62.74386" lon="6.88491">
        <ele>62.296812</ele>
        <time>2020-08-02T08:26:18.902Z</time>
      </trkpt>
      <trkpt lat="62.7439" lon="6.88515">
        <ele>61.929791</ele>
        <time>2020-08-02T08:26:20.933Z</time>
      </trkpt>
      <trkpt lat="62.74394" lon="6.88539">
        <ele>61.550963</ele>
        <time>2020-08-02T08:26:22.917Z</time>
      </trkpt>
      <trkpt lat="62.74398" lon="6.88563">
        <ele>61.177564</ele>
        <time>2020-08-02T08:26:24.890Z</time>
      </trkpt>
      <trkpt lat="62.74401" lon="6.88587">
        <ele>60.802117</ele>
        <time>2020-08-02T08:26:26.874Z</time>
      </trkpt>
      <trkpt lat="62.74405" lon="6.88611">
        <ele>60.55444</ele>
        <time>2020-08-02T08:26:28.897Z</time>
      </trkpt>
      <trkpt lat="62.74408" lon="6.88634">
        <ele>60.485018</ele>
        <time>2020-08-02T08:26:30.873Z</time>
      </trkpt>
      <trkpt lat="62.74412" lon="6.88659">
        <ele>60.412656</ele>
        <time>2020-08-02T08:26:32.902Z</time>
      </trkpt>
      <trkpt lat="62.74416" lon="6.88682">
        <ele>60.342771</ele>
        <time>2020-08-02T08:26:34.877Z</time>
      </trkpt>
      <trkpt lat="62.7442" lon="6.88705">
        <ele>60.272528</ele>
        <time>2020-08-02T08:26:36.873Z</time>
      </trkpt>
      <trkpt lat="62.74423" lon="6.88729">
        <ele>60.203905</ele>
        <time>2020-08-02T08:26:38.859Z</time>
      </trkpt>
      <trkpt lat="62.74427" lon="6.88753">
        <ele>60.131492</ele>
        <time>2020-08-02T08:26:40.856Z</time>
      </trkpt>
      <trkpt lat="62.74431" lon="6.88777">
        <ele>60.058135</ele>
        <time>2020-08-02T08:26:42.917Z</time>
      </trkpt>
      <trkpt lat="62.74435" lon="6.88802">
        <ele>59.985042</ele>
        <time>2020-08-02T08:26:44.856Z</time>
      </trkpt>
      <trkpt lat="62.74439" lon="6.88827">
        <ele>59.911689</ele>
        <time>2020-08-02T08:26:46.860Z</time>
      </trkpt>
      <trkpt lat="62.74442" lon="6.88851">
        <ele>59.840911</ele>
        <time>2020-08-02T08:26:48.881Z</time>
      </trkpt>
      <trkpt lat="62.74445" lon="6.88874">
        <ele>59.773865</ele>
        <time>2020-08-02T08:26:50.857Z</time>
      </trkpt>
      <trkpt lat="62.74447" lon="6.88898">
        <ele>59.704098</ele>
        <time>2020-08-02T08:26:52.869Z</time>
      </trkpt>
      <trkpt lat="62.7445" lon="6.88922">
        <ele>59.635288</ele>
        <time>2020-08-02T08:26:54.857Z</time>
      </trkpt>
      <trkpt lat="62.74452" lon="6.88946">
        <ele>59.565654</ele>
        <time>2020-08-02T08:26:56.868Z</time>
      </trkpt>
      <trkpt lat="62.74454" lon="6.8897">
        <ele>59.496775</ele>
        <time>2020-08-02T08:26:58.897Z</time>
      </trkpt>
      <trkpt lat="62.74456" lon="6.88995">
        <ele>59.531835</ele>
        <time>2020-08-02T08:27:00.889Z</time>
      </trkpt>
      <trkpt lat="62.74458" lon="6.89019">
        <ele>59.602812</ele>
        <time>2020-08-02T08:27:02.856Z</time>
      </trkpt>
      <trkpt lat="62.7446" lon="6.89043">
        <ele>59.675186</ele>
        <time>2020-08-02T08:27:04.859Z</time>
      </trkpt>
      <trkpt lat="62.74462" lon="6.89066">
        <ele>59.743577</ele>
        <time>2020-08-02T08:27:06.855Z</time>
      </trkpt>
      <trkpt lat="62.74464" lon="6.89089">
        <ele>59.81074</ele>
        <time>2020-08-02T08:27:08.868Z</time>
      </trkpt>
      <trkpt lat="62.74465" lon="6.89113">
        <ele>59.880989</ele>
        <time>2020-08-02T08:27:10.864Z</time>
      </trkpt>
      <trkpt lat="62.74467" lon="6.89137">
        <ele>59.953</ele>
        <time>2020-08-02T08:27:12.861Z</time>
      </trkpt>
      <trkpt lat="62.74469" lon="6.89161">
        <ele>60.024804</ele>
        <time>2020-08-02T08:27:14.886Z</time>
      </trkpt>
      <trkpt lat="62.74471" lon="6.89186">
        <ele>60.097947</ele>
        <time>2020-08-02T08:27:16.866Z</time>
      </trkpt>
      <trkpt lat="62.74472" lon="6.8921">
        <ele>60.170031</ele>
        <time>2020-08-02T08:27:18.869Z</time>
      </trkpt>
      <trkpt lat="62.74474" lon="6.89235">
        <ele>60.244061</ele>
        <time>2020-08-02T08:27:20.896Z</time>
      </trkpt>
      <trkpt lat="62.74477" lon="6.8926">
        <ele>60.319644</ele>
        <time>2020-08-02T08:27:22.860Z</time>
      </trkpt>
      <trkpt lat="62.74479" lon="6.89286">
        <ele>60.396582</ele>
        <time>2020-08-02T08:27:24.865Z</time>
      </trkpt>
      <trkpt lat="62.74481" lon="6.89311">
        <ele>60.470809</ele>
        <time>2020-08-02T08:27:26.869Z</time>
      </trkpt>
      <trkpt lat="62.74484" lon="6.89335">
        <ele>60.543473</ele>
        <time>2020-08-02T08:27:28.896Z</time>
      </trkpt>
      <trkpt lat="62.74486" lon="6.89359">
        <ele>60.615408</ele>
        <time>2020-08-02T08:27:30.875Z</time>
      </trkpt>
      <trkpt lat="62.74489" lon="6.89381">
        <ele>60.862958</ele>
        <time>2020-08-02T08:27:32.859Z</time>
      </trkpt>
      <trkpt lat="62.74491" lon="6.89402">
        <ele>61.143848</ele>
        <time>2020-08-02T08:27:34.865Z</time>
      </trkpt>
      <trkpt lat="62.74494" lon="6.89423">
        <ele>61.41476</ele>
        <time>2020-08-02T08:27:36.925Z</time>
      </trkpt>
      <trkpt lat="62.74496" lon="6.89442">
        <ele>61.67599</ele>
        <time>2020-08-02T08:27:38.861Z</time>
      </trkpt>
      <trkpt lat="62.745" lon="6.8947">
        <ele>62.052537</ele>
        <time>2020-08-02T08:27:41.869Z</time>
      </trkpt>
      <trkpt lat="62.74502" lon="6.89491">
        <ele>62.326497</ele>
        <time>2020-08-02T08:27:43.862Z</time>
      </trkpt>
      <trkpt lat="62.74504" lon="6.89511">
        <ele>62.593576</ele>
        <time>2020-08-02T08:27:45.896Z</time>
      </trkpt>
      <trkpt lat="62.74507" lon="6.89532">
        <ele>62.866705</ele>
        <time>2020-08-02T08:27:47.888Z</time>
      </trkpt>
      <trkpt lat="62.74509" lon="6.89554">
        <ele>63.160191</ele>
        <time>2020-08-02T08:27:49.862Z</time>
      </trkpt>
      <trkpt lat="62.74512" lon="6.89575">
        <ele>63.446822</ele>
        <time>2020-08-02T08:27:51.858Z</time>
      </trkpt>
      <trkpt lat="62.74515" lon="6.89597">
        <ele>63.740838</ele>
        <time>2020-08-02T08:27:53.872Z</time>
      </trkpt>
      <trkpt lat="62.74518" lon="6.8962">
        <ele>64.04756</ele>
        <time>2020-08-02T08:27:55.877Z</time>
      </trkpt>
      <trkpt lat="62.74522" lon="6.89643">
        <ele>64.365972</ele>
        <time>2020-08-02T08:27:57.872Z</time>
      </trkpt>
      <trkpt lat="62.74526" lon="6.89666">
        <ele>64.669498</ele>
        <time>2020-08-02T08:27:59.865Z</time>
      </trkpt>
      <trkpt lat="62.74529" lon="6.89688">
        <ele>64.977913</ele>
        <time>2020-08-02T08:28:01.875Z</time>
      </trkpt>
      <trkpt lat="62.74533" lon="6.89713">
        <ele>65.315843</ele>
        <time>2020-08-02T08:28:03.863Z</time>
      </trkpt>
      <trkpt lat="62.74537" lon="6.89741">
        <ele>65.670215</ele>
        <time>2020-08-02T08:28:05.874Z</time>
      </trkpt>
      <trkpt lat="62.74542" lon="6.8977">
        <ele>65.105882</ele>
        <time>2020-08-02T08:28:07.885Z</time>
      </trkpt>
      <trkpt lat="62.74547" lon="6.89802">
        <ele>64.502178</ele>
        <time>2020-08-02T08:28:09.883Z</time>
      </trkpt>
      <trkpt lat="62.74551" lon="6.89835">
        <ele>63.883585</ele>
        <time>2020-08-02T08:28:11.880Z</time>
      </trkpt>
      <trkpt lat="62.74556" lon="6.89866">
        <ele>63.288939</ele>
        <time>2020-08-02T08:28:13.856Z</time>
      </trkpt>
      <trkpt lat="62.74561" lon="6.89895">
        <ele>62.722483</ele>
        <time>2020-08-02T08:28:15.871Z</time>
      </trkpt>
      <trkpt lat="62.74566" lon="6.89924">
        <ele>62.162227</ele>
        <time>2020-08-02T08:28:17.865Z</time>
      </trkpt>
      <trkpt lat="62.74571" lon="6.89952">
        <ele>61.620986</ele>
        <time>2020-08-02T08:28:19.864Z</time>
      </trkpt>
      <trkpt lat="62.74575" lon="6.8998">
        <ele>61.094308</ele>
        <time>2020-08-02T08:28:21.871Z</time>
      </trkpt>
      <trkpt lat="62.7458" lon="6.90006">
        <ele>60.58161</ele>
        <time>2020-08-02T08:28:23.872Z</time>
      </trkpt>
      <trkpt lat="62.74584" lon="6.90033">
        <ele>60.077594</ele>
        <time>2020-08-02T08:28:25.881Z</time>
      </trkpt>
      <trkpt lat="62.74587" lon="6.90058">
        <ele>59.589357</ele>
        <time>2020-08-02T08:28:27.890Z</time>
      </trkpt>
      <trkpt lat="62.7459" lon="6.90084">
        <ele>59.109046</ele>
        <time>2020-08-02T08:28:29.902Z</time>
      </trkpt>
      <trkpt lat="62.74593" lon="6.9011">
        <ele>58.630556</ele>
        <time>2020-08-02T08:28:31.879Z</time>
      </trkpt>
      <trkpt lat="62.74596" lon="6.90137">
        <ele>59.185544</ele>
        <time>2020-08-02T08:28:33.863Z</time>
      </trkpt>
      <trkpt lat="62.74598" lon="6.90164">
        <ele>59.826804</ele>
        <time>2020-08-02T08:28:35.871Z</time>
      </trkpt>
      <trkpt lat="62.746" lon="6.90189">
        <ele>60.438057</ele>
        <time>2020-08-02T08:28:37.860Z</time>
      </trkpt>
      <trkpt lat="62.74603" lon="6.90213">
        <ele>61.046576</ele>
        <time>2020-08-02T08:28:39.867Z</time>
      </trkpt>
      <trkpt lat="62.74605" lon="6.90235">
        <ele>61.573166</ele>
        <time>2020-08-02T08:28:41.869Z</time>
      </trkpt>
      <trkpt lat="62.74607" lon="6.90254">
        <ele>62.057252</ele>
        <time>2020-08-02T08:28:43.885Z</time>
      </trkpt>
      <trkpt lat="62.74608" lon="6.90275">
        <ele>62.565371</ele>
        <time>2020-08-02T08:28:46.884Z</time>
      </trkpt>
      <trkpt lat="62.74609" lon="6.90295">
        <ele>63.046815</ele>
        <time>2020-08-02T08:28:49.860Z</time>
      </trkpt>
      <trkpt lat="62.7461" lon="6.90316">
        <ele>63.555133</ele>
        <time>2020-08-02T08:28:53.865Z</time>
      </trkpt>
      <trkpt lat="62.74611" lon="6.9034">
        <ele>64.135564</ele>
        <time>2020-08-02T08:28:58.912Z</time>
      </trkpt>
      <trkpt lat="62.74611" lon="6.90364">
        <ele>64.6959</ele>
        <time>2020-08-02T08:29:03.872Z</time>
      </trkpt>
      <trkpt lat="62.74611" lon="6.90385">
        <ele>65.217864</ele>
        <time>2020-08-02T08:29:08.866Z</time>
      </trkpt>
      <trkpt lat="62.74611" lon="6.90409">
        <ele>65.793014</ele>
        <time>2020-08-02T08:29:13.856Z</time>
      </trkpt>
      <trkpt lat="62.7461" lon="6.90429">
        <ele>66.265421</ele>
        <time>2020-08-02T08:29:17.912Z</time>
      </trkpt>
      <trkpt lat="62.7461" lon="6.90449">
        <ele>66.757392</ele>
        <time>2020-08-02T08:29:21.904Z</time>
      </trkpt>
      <trkpt lat="62.74609" lon="6.90471">
        <ele>67.275107</ele>
        <time>2020-08-02T08:29:25.874Z</time>
      </trkpt>
      <trkpt lat="62.74608" lon="6.90491">
        <ele>67.775679</ele>
        <time>2020-08-02T08:29:29.857Z</time>
      </trkpt>
      <trkpt lat="62.74607" lon="6.90513">
        <ele>68.116249</ele>
        <time>2020-08-02T08:29:33.859Z</time>
      </trkpt>
      <trkpt lat="62.74605" lon="6.90535">
        <ele>68.304548</ele>
        <time>2020-08-02T08:29:37.885Z</time>
      </trkpt>
      <trkpt lat="62.74602" lon="6.90559">
        <ele>68.508323</ele>
        <time>2020-08-02T08:29:41.863Z</time>
      </trkpt>
      <trkpt lat="62.746" lon="6.90578">
        <ele>68.671021</ele>
        <time>2020-08-02T08:29:44.890Z</time>
      </trkpt>
      <trkpt lat="62.74597" lon="6.90597">
        <ele>68.832315</ele>
        <time>2020-08-02T08:29:47.870Z</time>
      </trkpt>
      <trkpt lat="62.74595" lon="6.90618">
        <ele>69.006117</ele>
        <time>2020-08-02T08:29:50.853Z</time>
      </trkpt>
      <trkpt lat="62.74592" lon="6.90637">
        <ele>69.175222</ele>
        <time>2020-08-02T08:29:53.861Z</time>
      </trkpt>
      <trkpt lat="62.74588" lon="6.90662">
        <ele>69.386704</ele>
        <time>2020-08-02T08:29:57.865Z</time>
      </trkpt>
      <trkpt lat="62.74585" lon="6.90686">
        <ele>69.592939</ele>
        <time>2020-08-02T08:30:01.877Z</time>
      </trkpt>
      <trkpt lat="62.74581" lon="6.90709">
        <ele>69.799017</ele>
        <time>2020-08-02T08:30:05.868Z</time>
      </trkpt>
      <trkpt lat="62.74579" lon="6.90728">
        <ele>69.960135</ele>
        <time>2020-08-02T08:30:08.883Z</time>
      </trkpt>
      <trkpt lat="62.74575" lon="6.90752">
        <ele>70.169002</ele>
        <time>2020-08-02T08:30:12.856Z</time>
      </trkpt>
      <trkpt lat="62.74572" lon="6.90776">
        <ele>70.373404</ele>
        <time>2020-08-02T08:30:16.858Z</time>
      </trkpt>
      <trkpt lat="62.74569" lon="6.90799">
        <ele>70.568975</ele>
        <time>2020-08-02T08:30:20.870Z</time>
      </trkpt>
      <trkpt lat="62.74566" lon="6.9082">
        <ele>70.749147</ele>
        <time>2020-08-02T08:30:24.851Z</time>
      </trkpt>
      <trkpt lat="62.74563" lon="6.90842">
        <ele>70.936773</ele>
        <time>2020-08-02T08:30:29.871Z</time>
      </trkpt>
      <trkpt lat="62.7456" lon="6.90864">
        <ele>71.133037</ele>
        <time>2020-08-02T08:30:34.879Z</time>
      </trkpt>
      <trkpt lat="62.74556" lon="6.90886">
        <ele>71.87258</ele>
        <time>2020-08-02T08:30:39.887Z</time>
      </trkpt>
      <trkpt lat="62.74554" lon="6.90906">
        <ele>73.586205</ele>
        <time>2020-08-02T08:30:44.879Z</time>
      </trkpt>
      <trkpt lat="62.74551" lon="6.90928">
        <ele>75.481845</ele>
        <time>2020-08-02T08:30:49.859Z</time>
      </trkpt>
      <trkpt lat="62.7455" lon="6.90949">
        <ele>77.209303</ele>
        <time>2020-08-02T08:30:54.865Z</time>
      </trkpt>
      <trkpt lat="62.74549" lon="6.9097">
        <ele>78.872102</ele>
        <time>2020-08-02T08:30:59.851Z</time>
      </trkpt>
      <trkpt lat="62.7455" lon="6.9099">
        <ele>80.552943</ele>
        <time>2020-08-02T08:31:05.894Z</time>
      </trkpt>
      <trkpt lat="62.74552" lon="6.9101">
        <ele>82.227457</ele>
        <time>2020-08-02T08:31:11.852Z</time>
      </trkpt>
      <trkpt lat="62.74554" lon="6.91032">
        <ele>83.993743</ele>
        <time>2020-08-02T08:31:17.892Z</time>
      </trkpt>
      <trkpt lat="62.74557" lon="6.91051">
        <ele>85.650188</ele>
        <time>2020-08-02T08:31:23.871Z</time>
      </trkpt>
      <trkpt lat="62.74561" lon="6.91072">
        <ele>87.445747</ele>
        <time>2020-08-02T08:31:29.865Z</time>
      </trkpt>
      <trkpt lat="62.74565" lon="6.91092">
        <ele>89.267427</ele>
        <time>2020-08-02T08:31:35.886Z</time>
      </trkpt>
      <trkpt lat="62.74568" lon="6.91111">
        <ele>90.93747</ele>
        <time>2020-08-02T08:31:41.867Z</time>
      </trkpt>
      <trkpt lat="62.74572" lon="6.91131">
        <ele>92.684822</ele>
        <time>2020-08-02T08:31:47.851Z</time>
      </trkpt>
      <trkpt lat="62.74576" lon="6.91151">
        <ele>94.484001</ele>
        <time>2020-08-02T08:31:53.862Z</time>
      </trkpt>
      <trkpt lat="62.7458" lon="6.9117">
        <ele>96.186926</ele>
        <time>2020-08-02T08:32:00.861Z</time>
      </trkpt>
      <trkpt lat="62.74584" lon="6.91188">
        <ele>97.824801</ele>
        <time>2020-08-02T08:32:06.870Z</time>
      </trkpt>
      <trkpt lat="62.74589" lon="6.91206">
        <ele>99.49173</ele>
        <time>2020-08-02T08:32:13.868Z</time>
      </trkpt>
      <trkpt lat="62.74592" lon="6.91224">
        <ele>101.099952</ele>
        <time>2020-08-02T08:32:19.877Z</time>
      </trkpt>
      <trkpt lat="62.74596" lon="6.91245">
        <ele>102.866345</ele>
        <time>2020-08-02T08:32:27.892Z</time>
      </trkpt>
      <trkpt lat="62.74599" lon="6.91264">
        <ele>103.126277</ele>
        <time>2020-08-02T08:32:34.888Z</time>
      </trkpt>
      <trkpt lat="62.74602" lon="6.91285">
        <ele>102.964549</ele>
        <time>2020-08-02T08:32:43.860Z</time>
      </trkpt>
      <trkpt lat="62.74606" lon="6.91305">
        <ele>102.814037</ele>
        <time>2020-08-02T08:32:49.896Z</time>
      </trkpt>
      <trkpt lat="62.7461" lon="6.91325">
        <ele>102.657135</ele>
        <time>2020-08-02T08:32:57.875Z</time>
      </trkpt>
      <trkpt lat="62.74613" lon="6.91347">
        <ele>102.492811</ele>
        <time>2020-08-02T08:33:04.883Z</time>
      </trkpt>
      <trkpt lat="62.74616" lon="6.91366">
        <ele>102.34843</ele>
        <time>2020-08-02T08:33:11.892Z</time>
      </trkpt>
      <trkpt lat="62.74619" lon="6.91385">
        <ele>102.206556</ele>
        <time>2020-08-02T08:33:18.861Z</time>
      </trkpt>
      <trkpt lat="62.74621" lon="6.91406">
        <ele>102.053395</ele>
        <time>2020-08-02T08:33:24.875Z</time>
      </trkpt>
      <trkpt lat="62.74623" lon="6.91425">
        <ele>101.908332</ele>
        <time>2020-08-02T08:33:31.867Z</time>
      </trkpt>
      <trkpt lat="62.74626" lon="6.91447">
        <ele>101.75171</ele>
        <time>2020-08-02T08:33:38.872Z</time>
      </trkpt>
      <trkpt lat="62.74628" lon="6.91466">
        <ele>101.605866</ele>
        <time>2020-08-02T08:33:45.857Z</time>
      </trkpt>
      <trkpt lat="62.7463" lon="6.91486">
        <ele>101.459905</ele>
        <time>2020-08-02T08:33:52.860Z</time>
      </trkpt>
      <trkpt lat="62.74631" lon="6.91508">
        <ele>101.308294</ele>
        <time>2020-08-02T08:33:59.886Z</time>
      </trkpt>
      <trkpt lat="62.74631" lon="6.9153">
        <ele>101.149988</ele>
        <time>2020-08-02T08:34:06.862Z</time>
      </trkpt>
      <trkpt lat="62.74631" lon="6.91552">
        <ele>100.991037</ele>
        <time>2020-08-02T08:34:13.864Z</time>
      </trkpt>
      <trkpt lat="62.7463" lon="6.91573">
        <ele>100.836971</ele>
        <time>2020-08-02T08:34:20.857Z</time>
      </trkpt>
      <trkpt lat="62.74629" lon="6.91594">
        <ele>100.689152</ele>
        <time>2020-08-02T08:34:27.873Z</time>
      </trkpt>
      <trkpt lat="62.74627" lon="6.91615">
        <ele>100.532494</ele>
        <time>2020-08-02T08:34:34.883Z</time>
      </trkpt>
      <trkpt lat="62.74625" lon="6.91636">
        <ele>100.354616</ele>
        <time>2020-08-02T08:34:40.868Z</time>
      </trkpt>
      <trkpt lat="62.74624" lon="6.91655">
        <ele>100.139262</ele>
        <time>2020-08-02T08:34:45.860Z</time>
      </trkpt>
      <trkpt lat="62.74623" lon="6.91677">
        <ele>99.904816</ele>
        <time>2020-08-02T08:34:51.855Z</time>
      </trkpt>
      <trkpt lat="62.74621" lon="6.91696">
        <ele>99.689549</ele>
        <time>2020-08-02T08:34:56.852Z</time>
      </trkpt>
      <trkpt lat="62.7462" lon="6.91718">
        <ele>99.444666</ele>
        <time>2020-08-02T08:35:02.882Z</time>
      </trkpt>
      <trkpt lat="62.74618" lon="6.91738">
        <ele>99.220624</ele>
        <time>2020-08-02T08:35:07.875Z</time>
      </trkpt>
      <trkpt lat="62.74616" lon="6.9176">
        <ele>98.974777</ele>
        <time>2020-08-02T08:35:12.869Z</time>
      </trkpt>
      <trkpt lat="62.74614" lon="6.91783">
        <ele>98.718307</ele>
        <time>2020-08-02T08:35:17.892Z</time>
      </trkpt>
      <trkpt lat="62.74612" lon="6.91803">
        <ele>98.491666</ele>
        <time>2020-08-02T08:35:21.872Z</time>
      </trkpt>
      <trkpt lat="62.74611" lon="6.91825">
        <ele>98.252839</ele>
        <time>2020-08-02T08:35:25.859Z</time>
      </trkpt>
      <trkpt lat="62.74609" lon="6.91847">
        <ele>98.010833</ele>
        <time>2020-08-02T08:35:29.860Z</time>
      </trkpt>
      <trkpt lat="62.74606" lon="6.91868">
        <ele>97.759907</ele>
        <time>2020-08-02T08:35:33.858Z</time>
      </trkpt>
      <trkpt lat="62.74603" lon="6.91888">
        <ele>97.535466</ele>
        <time>2020-08-02T08:35:36.881Z</time>
      </trkpt>
      <trkpt lat="62.74599" lon="6.91908">
        <ele>97.294278</ele>
        <time>2020-08-02T08:35:39.868Z</time>
      </trkpt>
      <trkpt lat="62.74592" lon="6.91928">
        <ele>97.023544</ele>
        <time>2020-08-02T08:35:42.874Z</time>
      </trkpt>
      <trkpt lat="62.74584" lon="6.91949">
        <ele>96.719684</ele>
        <time>2020-08-02T08:35:45.868Z</time>
      </trkpt>
      <trkpt lat="62.74577" lon="6.91964">
        <ele>96.494033</ele>
        <time>2020-08-02T08:35:47.900Z</time>
      </trkpt>
      <trkpt lat="62.74569" lon="6.91979">
        <ele>96.243067</ele>
        <time>2020-08-02T08:35:49.855Z</time>
      </trkpt>
      <trkpt lat="62.74559" lon="6.91993">
        <ele>96.029262</ele>
        <time>2020-08-02T08:35:51.880Z</time>
      </trkpt>
      <trkpt lat="62.74547" lon="6.92003">
        <ele>95.86695</ele>
        <time>2020-08-02T08:35:53.874Z</time>
      </trkpt>
      <trkpt lat="62.74533" lon="6.9201">
        <ele>95.683389</ele>
        <time>2020-08-02T08:35:55.902Z</time>
      </trkpt>
      <trkpt lat="62.74518" lon="6.92016">
        <ele>95.490532</ele>
        <time>2020-08-02T08:35:57.857Z</time>
      </trkpt>
      <trkpt lat="62.74501" lon="6.92025">
        <ele>95.270865</ele>
        <time>2020-08-02T08:35:59.878Z</time>
      </trkpt>
      <trkpt lat="62.74486" lon="6.92036">
        <ele>95.0634</ele>
        <time>2020-08-02T08:36:01.877Z</time>
      </trkpt>
      <trkpt lat="62.74471" lon="6.92047">
        <ele>94.859495</ele>
        <time>2020-08-02T08:36:03.855Z</time>
      </trkpt>
      <trkpt lat="62.74456" lon="6.9206">
        <ele>94.657523</ele>
        <time>2020-08-02T08:36:05.876Z</time>
      </trkpt>
      <trkpt lat="62.74442" lon="6.92072">
        <ele>94.460185</ele>
        <time>2020-08-02T08:36:07.861Z</time>
      </trkpt>
      <trkpt lat="62.74428" lon="6.92082">
        <ele>94.282883</ele>
        <time>2020-08-02T08:36:09.870Z</time>
      </trkpt>
      <trkpt lat="62.74414" lon="6.92088">
        <ele>94.096006</ele>
        <time>2020-08-02T08:36:11.879Z</time>
      </trkpt>
      <trkpt lat="62.74398" lon="6.9209">
        <ele>93.887714</ele>
        <time>2020-08-02T08:36:13.896Z</time>
      </trkpt>
      <trkpt lat="62.74389" lon="6.9209">
        <ele>93.704976</ele>
        <time>2020-08-02T08:36:14.885Z</time>
      </trkpt>
      <trkpt lat="62.74379" lon="6.9209">
        <ele>93.442312</ele>
        <time>2020-08-02T08:36:15.868Z</time>
      </trkpt>
      <trkpt lat="62.74369" lon="6.92091">
        <ele>93.182063</ele>
        <time>2020-08-02T08:36:16.871Z</time>
      </trkpt>
      <trkpt lat="62.74359" lon="6.92092">
        <ele>92.908737</ele>
        <time>2020-08-02T08:36:17.862Z</time>
      </trkpt>
      <trkpt lat="62.74348" lon="6.92093">
        <ele>92.621932</ele>
        <time>2020-08-02T08:36:18.869Z</time>
      </trkpt>
      <trkpt lat="62.74337" lon="6.92095">
        <ele>92.32843</ele>
        <time>2020-08-02T08:36:19.905Z</time>
      </trkpt>
      <trkpt lat="62.74326" lon="6.921">
        <ele>92.04853</ele>
        <time>2020-08-02T08:36:20.862Z</time>
      </trkpt>
      <trkpt lat="62.74317" lon="6.92107">
        <ele>91.791264</ele>
        <time>2020-08-02T08:36:21.889Z</time>
      </trkpt>
      <trkpt lat="62.74308" lon="6.92114">
        <ele>91.533219</ele>
        <time>2020-08-02T08:36:22.869Z</time>
      </trkpt>
      <trkpt lat="62.74299" lon="6.9212">
        <ele>91.285031</ele>
        <time>2020-08-02T08:36:23.869Z</time>
      </trkpt>
      <trkpt lat="62.7429" lon="6.92128">
        <ele>91.030347</ele>
        <time>2020-08-02T08:36:24.894Z</time>
      </trkpt>
      <trkpt lat="62.74282" lon="6.92136">
        <ele>90.789674</ele>
        <time>2020-08-02T08:36:25.865Z</time>
      </trkpt>
      <trkpt lat="62.74267" lon="6.92151">
        <ele>90.342252</ele>
        <time>2020-08-02T08:36:27.873Z</time>
      </trkpt>
      <trkpt lat="62.74254" lon="6.92164">
        <ele>89.978688</ele>
        <time>2020-08-02T08:36:29.873Z</time>
      </trkpt>
      <trkpt lat="62.74242" lon="6.92178">
        <ele>89.615318</ele>
        <time>2020-08-02T08:36:31.863Z</time>
      </trkpt>
      <trkpt lat="62.74232" lon="6.92191">
        <ele>89.292696</ele>
        <time>2020-08-02T08:36:33.875Z</time>
      </trkpt>
      <trkpt lat="62.74222" lon="6.92205">
        <ele>89.014026</ele>
        <time>2020-08-02T08:36:35.875Z</time>
      </trkpt>
      <trkpt lat="62.74212" lon="6.92219">
        <ele>88.813459</ele>
        <time>2020-08-02T08:36:37.861Z</time>
      </trkpt>
      <trkpt lat="62.74202" lon="6.92234">
        <ele>88.603612</ele>
        <time>2020-08-02T08:36:39.861Z</time>
      </trkpt>
      <trkpt lat="62.74192" lon="6.92249">
        <ele>88.39643</ele>
        <time>2020-08-02T08:36:41.873Z</time>
      </trkpt>
      <trkpt lat="62.7418" lon="6.92268">
        <ele>88.151626</ele>
        <time>2020-08-02T08:36:43.880Z</time>
      </trkpt>
      <trkpt lat="62.74168" lon="6.92287">
        <ele>87.89306</ele>
        <time>2020-08-02T08:36:45.893Z</time>
      </trkpt>
      <trkpt lat="62.74157" lon="6.92309">
        <ele>87.635074</ele>
        <time>2020-08-02T08:36:47.884Z</time>
      </trkpt>
      <trkpt lat="62.74145" lon="6.92333">
        <ele>87.363711</ele>
        <time>2020-08-02T08:36:49.895Z</time>
      </trkpt>
      <trkpt lat="62.74135" lon="6.92362">
        <ele>87.082051</ele>
        <time>2020-08-02T08:36:51.885Z</time>
      </trkpt>
      <trkpt lat="62.74128" lon="6.92397">
        <ele>86.78042</ele>
        <time>2020-08-02T08:36:53.878Z</time>
      </trkpt>
      <trkpt lat="62.74123" lon="6.92434">
        <ele>86.483906</ele>
        <time>2020-08-02T08:36:55.853Z</time>
      </trkpt>
      <trkpt lat="62.74121" lon="6.92473">
        <ele>86.17433</ele>
        <time>2020-08-02T08:36:57.909Z</time>
      </trkpt>
      <trkpt lat="62.74121" lon="6.9251">
        <ele>85.966362</ele>
        <time>2020-08-02T08:36:59.879Z</time>
      </trkpt>
      <trkpt lat="62.74121" lon="6.92544">
        <ele>85.895448</ele>
        <time>2020-08-02T08:37:01.869Z</time>
      </trkpt>
      <trkpt lat="62.7412" lon="6.92575">
        <ele>85.831751</ele>
        <time>2020-08-02T08:37:03.885Z</time>
      </trkpt>
      <trkpt lat="62.74118" lon="6.92603">
        <ele>85.77194</ele>
        <time>2020-08-02T08:37:05.883Z</time>
      </trkpt>
      <trkpt lat="62.74114" lon="6.92626">
        <ele>85.720738</ele>
        <time>2020-08-02T08:37:07.864Z</time>
      </trkpt>
      <trkpt lat="62.74108" lon="6.92646">
        <ele>85.673202</ele>
        <time>2020-08-02T08:37:09.873Z</time>
      </trkpt>
      <trkpt lat="62.74101" lon="6.92659">
        <ele>85.630717</ele>
        <time>2020-08-02T08:37:11.866Z</time>
      </trkpt>
      <trkpt lat="62.74094" lon="6.9267">
        <ele>85.590175</ele>
        <time>2020-08-02T08:37:13.884Z</time>
      </trkpt>
      <trkpt lat="62.74083" lon="6.92681">
        <ele>85.536449</ele>
        <time>2020-08-02T08:37:16.864Z</time>
      </trkpt>
      <trkpt lat="62.74072" lon="6.92685">
        <ele>85.487462</ele>
        <time>2020-08-02T08:37:19.903Z</time>
      </trkpt>
      <trkpt lat="62.74061" lon="6.92683">
        <ele>85.43482</ele>
        <time>2020-08-02T08:37:22.861Z</time>
      </trkpt>
      <trkpt lat="62.74049" lon="6.92674">
        <ele>85.380954</ele>
        <time>2020-08-02T08:37:25.873Z</time>
      </trkpt>
      <trkpt lat="62.74038" lon="6.92663">
        <ele>85.326528</ele>
        <time>2020-08-02T08:37:28.873Z</time>
      </trkpt>
      <trkpt lat="62.74027" lon="6.92656">
        <ele>85.271012</ele>
        <time>2020-08-02T08:37:31.902Z</time>
      </trkpt>
      <trkpt lat="62.74015" lon="6.92655">
        <ele>85.217732</ele>
        <time>2020-08-02T08:37:34.860Z</time>
      </trkpt>
      <trkpt lat="62.74003" lon="6.9266">
        <ele>85.52684</ele>
        <time>2020-08-02T08:37:37.863Z</time>
      </trkpt>
      <trkpt lat="62.73992" lon="6.92671">
        <ele>86.460439</ele>
        <time>2020-08-02T08:37:40.888Z</time>
      </trkpt>
      <trkpt lat="62.73982" lon="6.92687">
        <ele>87.45141</ele>
        <time>2020-08-02T08:37:43.895Z</time>
      </trkpt>
      <trkpt lat="62.73973" lon="6.92706">
        <ele>88.427295</ele>
        <time>2020-08-02T08:37:46.865Z</time>
      </trkpt>
      <trkpt lat="62.73967" lon="6.92723">
        <ele>89.254666</ele>
        <time>2020-08-02T08:37:50.875Z</time>
      </trkpt>
      <trkpt lat="62.7396" lon="6.92737">
        <ele>89.998744</ele>
        <time>2020-08-02T08:37:55.861Z</time>
      </trkpt>
      <trkpt lat="62.73952" lon="6.92749">
        <ele>90.782689</ele>
        <time>2020-08-02T08:37:59.870Z</time>
      </trkpt>
      <trkpt lat="62.73943" lon="6.92756">
        <ele>91.531058</ele>
        <time>2020-08-02T08:38:02.860Z</time>
      </trkpt>
      <trkpt lat="62.73931" lon="6.92756">
        <ele>92.468311</ele>
        <time>2020-08-02T08:38:06.856Z</time>
      </trkpt>
      <trkpt lat="62.73922" lon="6.92755">
        <ele>93.191887</ele>
        <time>2020-08-02T08:38:09.864Z</time>
      </trkpt>
      <trkpt lat="62.73911" lon="6.92751">
        <ele>94.038958</ele>
        <time>2020-08-02T08:38:13.891Z</time>
      </trkpt>
      <trkpt lat="62.73901" lon="6.92748">
        <ele>94.869848</ele>
        <time>2020-08-02T08:38:17.880Z</time>
      </trkpt>
      <trkpt lat="62.73891" lon="6.92745">
        <ele>95.645302</ele>
        <time>2020-08-02T08:38:22.896Z</time>
      </trkpt>
      <trkpt lat="62.73881" lon="6.92741">
        <ele>96.450759</ele>
        <time>2020-08-02T08:38:27.861Z</time>
      </trkpt>
      <trkpt lat="62.73871" lon="6.92738">
        <ele>97.251867</ele>
        <time>2020-08-02T08:38:33.867Z</time>
      </trkpt>
      <trkpt lat="62.73861" lon="6.9274">
        <ele>98.058293</ele>
        <time>2020-08-02T08:38:40.862Z</time>
      </trkpt>
      <trkpt lat="62.73852" lon="6.9275">
        <ele>98.855363</ele>
        <time>2020-08-02T08:38:47.888Z</time>
      </trkpt>
      <trkpt lat="62.73845" lon="6.92762">
        <ele>99.436103</ele>
        <time>2020-08-02T08:38:54.879Z</time>
      </trkpt>
      <trkpt lat="62.73837" lon="6.92779">
        <ele>99.201055</ele>
        <time>2020-08-02T08:39:02.897Z</time>
      </trkpt>
      <trkpt lat="62.7383" lon="6.92795">
        <ele>98.99722</ele>
        <time>2020-08-02T08:39:11.860Z</time>
      </trkpt>
      <trkpt lat="62.73824" lon="6.9281">
        <ele>98.797678</ele>
        <time>2020-08-02T08:39:16.905Z</time>
      </trkpt>
      <trkpt lat="62.73817" lon="6.92823">
        <ele>98.60835</ele>
        <time>2020-08-02T08:39:22.871Z</time>
      </trkpt>
      <trkpt lat="62.73808" lon="6.92832">
        <ele>98.413071</ele>
        <time>2020-08-02T08:39:28.862Z</time>
      </trkpt>
      <trkpt lat="62.73799" lon="6.92835">
        <ele>98.217788</ele>
        <time>2020-08-02T08:39:34.914Z</time>
      </trkpt>
      <trkpt lat="62.7379" lon="6.92829">
        <ele>98.018596</ele>
        <time>2020-08-02T08:39:38.871Z</time>
      </trkpt>
      <trkpt lat="62.73781" lon="6.92819">
        <ele>97.818195</ele>
        <time>2020-08-02T08:39:41.865Z</time>
      </trkpt>
      <trkpt lat="62.7377" lon="6.92804">
        <ele>97.541471</ele>
        <time>2020-08-02T08:39:44.858Z</time>
      </trkpt>
      <trkpt lat="62.7376" lon="6.92793">
        <ele>97.303371</ele>
        <time>2020-08-02T08:39:46.890Z</time>
      </trkpt>
      <trkpt lat="62.73747" lon="6.92784">
        <ele>97.019251</ele>
        <time>2020-08-02T08:39:48.869Z</time>
      </trkpt>
      <trkpt lat="62.73732" lon="6.92779">
        <ele>96.71021</ele>
        <time>2020-08-02T08:39:50.891Z</time>
      </trkpt>
      <trkpt lat="62.73716" lon="6.92778">
        <ele>96.375173</ele>
        <time>2020-08-02T08:39:52.887Z</time>
      </trkpt>
      <trkpt lat="62.73699" lon="6.92779">
        <ele>96.023412</ele>
        <time>2020-08-02T08:39:54.880Z</time>
      </trkpt>
      <trkpt lat="62.73682" lon="6.92782">
        <ele>95.627552</ele>
        <time>2020-08-02T08:39:56.872Z</time>
      </trkpt>
      <trkpt lat="62.73665" lon="6.92784">
        <ele>95.116395</ele>
        <time>2020-08-02T08:39:58.882Z</time>
      </trkpt>
      <trkpt lat="62.73649" lon="6.92786">
        <ele>94.596245</ele>
        <time>2020-08-02T08:40:00.865Z</time>
      </trkpt>
      <trkpt lat="62.73631" lon="6.92789">
        <ele>94.047203</ele>
        <time>2020-08-02T08:40:02.902Z</time>
      </trkpt>
      <trkpt lat="62.73614" lon="6.92792">
        <ele>93.497622</ele>
        <time>2020-08-02T08:40:04.876Z</time>
      </trkpt>
      <trkpt lat="62.73598" lon="6.92794">
        <ele>92.980278</ele>
        <time>2020-08-02T08:40:06.892Z</time>
      </trkpt>
      <trkpt lat="62.73582" lon="6.92795">
        <ele>92.492024</ele>
        <time>2020-08-02T08:40:08.861Z</time>
      </trkpt>
      <trkpt lat="62.73567" lon="6.92795">
        <ele>92.02918</ele>
        <time>2020-08-02T08:40:10.875Z</time>
      </trkpt>
      <trkpt lat="62.73554" lon="6.92794">
        <ele>91.607184</ele>
        <time>2020-08-02T08:40:12.865Z</time>
      </trkpt>
      <trkpt lat="62.73542" lon="6.92795">
        <ele>91.226049</ele>
        <time>2020-08-02T08:40:14.905Z</time>
      </trkpt>
      <trkpt lat="62.73532" lon="6.92796">
        <ele>90.898395</ele>
        <time>2020-08-02T08:40:16.860Z</time>
      </trkpt>
      <trkpt lat="62.73523" lon="6.92797">
        <ele>90.613884</ele>
        <time>2020-08-02T08:40:18.864Z</time>
      </trkpt>
      <trkpt lat="62.73511" lon="6.92798">
        <ele>90.239242</ele>
        <time>2020-08-02T08:40:21.881Z</time>
      </trkpt>
      <trkpt lat="62.73501" lon="6.92801">
        <ele>90.206296</ele>
        <time>2020-08-02T08:40:24.878Z</time>
      </trkpt>
      <trkpt lat="62.73491" lon="6.92807">
        <ele>90.52603</ele>
        <time>2020-08-02T08:40:27.899Z</time>
      </trkpt>
      <trkpt lat="62.73481" lon="6.92818">
        <ele>90.868947</ele>
        <time>2020-08-02T08:40:30.889Z</time>
      </trkpt>
      <trkpt lat="62.73472" lon="6.92836">
        <ele>91.242237</ele>
        <time>2020-08-02T08:40:33.865Z</time>
      </trkpt>
      <trkpt lat="62.73466" lon="6.92851">
        <ele>91.527221</ele>
        <time>2020-08-02T08:40:35.861Z</time>
      </trkpt>
      <trkpt lat="62.7346" lon="6.92875">
        <ele>91.923528</ele>
        <time>2020-08-02T08:40:38.891Z</time>
      </trkpt>
      <trkpt lat="62.73455" lon="6.92899">
        <ele>92.285132</ele>
        <time>2020-08-02T08:40:41.876Z</time>
      </trkpt>
      <trkpt lat="62.73451" lon="6.92923">
        <ele>92.652484</ele>
        <time>2020-08-02T08:40:44.888Z</time>
      </trkpt>
      <trkpt lat="62.73446" lon="6.92947">
        <ele>93.023613</ele>
        <time>2020-08-02T08:40:47.869Z</time>
      </trkpt>
      <trkpt lat="62.7344" lon="6.92971">
        <ele>93.413519</ele>
        <time>2020-08-02T08:40:50.868Z</time>
      </trkpt>
      <trkpt lat="62.73434" lon="6.92986">
        <ele>93.700849</ele>
        <time>2020-08-02T08:40:52.879Z</time>
      </trkpt>
      <trkpt lat="62.73427" lon="6.93">
        <ele>93.985484</ele>
        <time>2020-08-02T08:40:54.868Z</time>
      </trkpt>
      <trkpt lat="62.73419" lon="6.93012">
        <ele>94.289691</ele>
        <time>2020-08-02T08:40:56.874Z</time>
      </trkpt>
      <trkpt lat="62.7341" lon="6.93024">
        <ele>94.620529</ele>
        <time>2020-08-02T08:40:58.910Z</time>
      </trkpt>
      <trkpt lat="62.734" lon="6.93035">
        <ele>94.954728</ele>
        <time>2020-08-02T08:41:00.858Z</time>
      </trkpt>
      <trkpt lat="62.73391" lon="6.93047">
        <ele>95.297719</ele>
        <time>2020-08-02T08:41:02.885Z</time>
      </trkpt>
      <trkpt lat="62.73382" lon="6.9306">
        <ele>95.644312</ele>
        <time>2020-08-02T08:41:04.865Z</time>
      </trkpt>
      <trkpt lat="62.73373" lon="6.93075">
        <ele>96.005188</ele>
        <time>2020-08-02T08:41:06.859Z</time>
      </trkpt>
      <trkpt lat="62.73365" lon="6.93094">
        <ele>96.393308</ele>
        <time>2020-08-02T08:41:09.866Z</time>
      </trkpt>
      <trkpt lat="62.73358" lon="6.93112">
        <ele>96.760188</ele>
        <time>2020-08-02T08:41:12.862Z</time>
      </trkpt>
      <trkpt lat="62.73351" lon="6.93132">
        <ele>97.143535</ele>
        <time>2020-08-02T08:41:16.870Z</time>
      </trkpt>
      <trkpt lat="62.73345" lon="6.93151">
        <ele>97.499014</ele>
        <time>2020-08-02T08:41:20.892Z</time>
      </trkpt>
      <trkpt lat="62.73339" lon="6.93168">
        <ele>97.833184</ele>
        <time>2020-08-02T08:41:24.864Z</time>
      </trkpt>
      <trkpt lat="62.73333" lon="6.93183">
        <ele>98.133856</ele>
        <time>2020-08-02T08:41:28.847Z</time>
      </trkpt>
      <trkpt lat="62.73325" lon="6.932">
        <ele>98.503333</ele>
        <time>2020-08-02T08:41:33.863Z</time>
      </trkpt>
      <trkpt lat="62.73318" lon="6.93213">
        <ele>98.805302</ele>
        <time>2020-08-02T08:41:37.872Z</time>
      </trkpt>
      <trkpt lat="62.7331" lon="6.93224">
        <ele>99.10898</ele>
        <time>2020-08-02T08:41:42.875Z</time>
      </trkpt>
      <trkpt lat="62.73301" lon="6.93235">
        <ele>99.444405</ele>
        <time>2020-08-02T08:41:47.861Z</time>
      </trkpt>
      <trkpt lat="62.73293" lon="6.93245">
        <ele>99.770906</ele>
        <time>2020-08-02T08:41:51.859Z</time>
      </trkpt>
      <trkpt lat="62.73284" lon="6.93257">
        <ele>100.094163</ele>
        <time>2020-08-02T08:41:55.886Z</time>
      </trkpt>
      <trkpt lat="62.73276" lon="6.93266">
        <ele>100.407542</ele>
        <time>2020-08-02T08:41:59.856Z</time>
      </trkpt>
      <trkpt lat="62.73268" lon="6.93277">
        <ele>100.724349</ele>
        <time>2020-08-02T08:42:03.862Z</time>
      </trkpt>
      <trkpt lat="62.73258" lon="6.93286">
        <ele>101.090284</ele>
        <time>2020-08-02T08:42:08.894Z</time>
      </trkpt>
      <trkpt lat="62.7325" lon="6.93297">
        <ele>101.404471</ele>
        <time>2020-08-02T08:42:13.908Z</time>
      </trkpt>
      <trkpt lat="62.7324" lon="6.93307">
        <ele>101.56276</ele>
        <time>2020-08-02T08:42:19.910Z</time>
      </trkpt>
      <trkpt lat="62.73232" lon="6.93316">
        <ele>101.450076</ele>
        <time>2020-08-02T08:42:24.884Z</time>
      </trkpt>
      <trkpt lat="62.73224" lon="6.93326">
        <ele>101.330356</ele>
        <time>2020-08-02T08:42:30.907Z</time>
      </trkpt>
      <trkpt lat="62.73215" lon="6.93336">
        <ele>101.208865</ele>
        <time>2020-08-02T08:42:36.859Z</time>
      </trkpt>
      <trkpt lat="62.73207" lon="6.93348">
        <ele>101.081508</ele>
        <time>2020-08-02T08:42:42.869Z</time>
      </trkpt>
      <trkpt lat="62.73198" lon="6.93359">
        <ele>100.954701</ele>
        <time>2020-08-02T08:42:49.894Z</time>
      </trkpt>
      <trkpt lat="62.7319" lon="6.9337">
        <ele>100.838263</ele>
        <time>2020-08-02T08:42:55.861Z</time>
      </trkpt>
      <trkpt lat="62.73182" lon="6.93381">
        <ele>100.722432</ele>
        <time>2020-08-02T08:43:00.880Z</time>
      </trkpt>
      <trkpt lat="62.73173" lon="6.93393">
        <ele>100.595291</ele>
        <time>2020-08-02T08:43:05.877Z</time>
      </trkpt>
      <trkpt lat="62.73165" lon="6.93404">
        <ele>100.471718</ele>
        <time>2020-08-02T08:43:10.861Z</time>
      </trkpt>
      <trkpt lat="62.73156" lon="6.93416">
        <ele>100.34187</ele>
        <time>2020-08-02T08:43:15.895Z</time>
      </trkpt>
      <trkpt lat="62.73145" lon="6.93426">
        <ele>100.200884</ele>
        <time>2020-08-02T08:43:20.892Z</time>
      </trkpt>
      <trkpt lat="62.73135" lon="6.93433">
        <ele>100.070039</ele>
        <time>2020-08-02T08:43:24.892Z</time>
      </trkpt>
      <trkpt lat="62.73125" lon="6.93433">
        <ele>99.94202</ele>
        <time>2020-08-02T08:43:27.883Z</time>
      </trkpt>
      <trkpt lat="62.73116" lon="6.93429">
        <ele>99.830787</ele>
        <time>2020-08-02T08:43:29.916Z</time>
      </trkpt>
      <trkpt lat="62.73106" lon="6.93417">
        <ele>99.684344</ele>
        <time>2020-08-02T08:43:31.864Z</time>
      </trkpt>
      <trkpt lat="62.73097" lon="6.93397">
        <ele>99.526362</ele>
        <time>2020-08-02T08:43:33.871Z</time>
      </trkpt>
      <trkpt lat="62.73089" lon="6.93372">
        <ele>99.262945</ele>
        <time>2020-08-02T08:43:35.883Z</time>
      </trkpt>
      <trkpt lat="62.7308" lon="6.93341">
        <ele>98.35451</ele>
        <time>2020-08-02T08:43:37.865Z</time>
      </trkpt>
      <trkpt lat="62.73075" lon="6.93324">
        <ele>97.845927</ele>
        <time>2020-08-02T08:43:38.869Z</time>
      </trkpt>
      <trkpt lat="62.7307" lon="6.93306">
        <ele>97.306666</ele>
        <time>2020-08-02T08:43:39.879Z</time>
      </trkpt>
      <trkpt lat="62.73063" lon="6.9329">
        <ele>96.763365</ele>
        <time>2020-08-02T08:43:40.886Z</time>
      </trkpt>
      <trkpt lat="62.73056" lon="6.93276">
        <ele>96.242844</ele>
        <time>2020-08-02T08:43:41.860Z</time>
      </trkpt>
      <trkpt lat="62.73047" lon="6.93262">
        <ele>95.665577</ele>
        <time>2020-08-02T08:43:42.862Z</time>
      </trkpt>
      <trkpt lat="62.73038" lon="6.93251">
        <ele>95.087837</ele>
        <time>2020-08-02T08:43:43.865Z</time>
      </trkpt>
      <trkpt lat="62.73028" lon="6.93242">
        <ele>94.4883</ele>
        <time>2020-08-02T08:43:44.867Z</time>
      </trkpt>
      <trkpt lat="62.73017" lon="6.93236">
        <ele>93.870437</ele>
        <time>2020-08-02T08:43:45.882Z</time>
      </trkpt>
      <trkpt lat="62.73006" lon="6.93232">
        <ele>93.242743</ele>
        <time>2020-08-02T08:43:46.873Z</time>
      </trkpt>
      <trkpt lat="62.72994" lon="6.93228">
        <ele>92.601567</ele>
        <time>2020-08-02T08:43:47.909Z</time>
      </trkpt>
      <trkpt lat="62.72983" lon="6.93223">
        <ele>91.99076</ele>
        <time>2020-08-02T08:43:48.866Z</time>
      </trkpt>
      <trkpt lat="62.72972" lon="6.93219">
        <ele>91.365695</ele>
        <time>2020-08-02T08:43:49.889Z</time>
      </trkpt>
      <trkpt lat="62.7296" lon="6.93216">
        <ele>90.740549</ele>
        <time>2020-08-02T08:43:50.879Z</time>
      </trkpt>
      <trkpt lat="62.72949" lon="6.93215">
        <ele>90.113378</ele>
        <time>2020-08-02T08:43:51.876Z</time>
      </trkpt>
      <trkpt lat="62.72937" lon="6.93215">
        <ele>89.453293</ele>
        <time>2020-08-02T08:43:52.866Z</time>
      </trkpt>
      <trkpt lat="62.72925" lon="6.93215">
        <ele>88.750029</ele>
        <time>2020-08-02T08:43:53.873Z</time>
      </trkpt>
      <trkpt lat="62.72913" lon="6.93214">
        <ele>88.028396</ele>
        <time>2020-08-02T08:43:54.892Z</time>
      </trkpt>
      <trkpt lat="62.72901" lon="6.93211">
        <ele>87.302383</ele>
        <time>2020-08-02T08:43:55.877Z</time>
      </trkpt>
      <trkpt lat="62.7289" lon="6.93206">
        <ele>86.59809</ele>
        <time>2020-08-02T08:43:56.870Z</time>
      </trkpt>
      <trkpt lat="62.72878" lon="6.932">
        <ele>85.897057</ele>
        <time>2020-08-02T08:43:57.874Z</time>
      </trkpt>
      <trkpt lat="62.72867" lon="6.93193">
        <ele>85.205539</ele>
        <time>2020-08-02T08:43:58.860Z</time>
      </trkpt>
      <trkpt lat="62.72856" lon="6.93188">
        <ele>84.501769</ele>
        <time>2020-08-02T08:43:59.872Z</time>
      </trkpt>
      <trkpt lat="62.72844" lon="6.93185">
        <ele>83.793341</ele>
        <time>2020-08-02T08:44:00.906Z</time>
      </trkpt>
      <trkpt lat="62.72832" lon="6.93184">
        <ele>83.094865</ele>
        <time>2020-08-02T08:44:01.868Z</time>
      </trkpt>
      <trkpt lat="62.72821" lon="6.93183">
        <ele>82.403354</ele>
        <time>2020-08-02T08:44:02.899Z</time>
      </trkpt>
      <trkpt lat="62.72809" lon="6.93183">
        <ele>81.712106</ele>
        <time>2020-08-02T08:44:03.868Z</time>
      </trkpt>
      <trkpt lat="62.72798" lon="6.93183">
        <ele>81.032835</ele>
        <time>2020-08-02T08:44:04.871Z</time>
      </trkpt>
      <trkpt lat="62.72787" lon="6.93185">
        <ele>80.352521</ele>
        <time>2020-08-02T08:44:05.880Z</time>
      </trkpt>
      <trkpt lat="62.72775" lon="6.93187">
        <ele>79.652639</ele>
        <time>2020-08-02T08:44:06.897Z</time>
      </trkpt>
      <trkpt lat="62.72764" lon="6.9319">
        <ele>78.967364</ele>
        <time>2020-08-02T08:44:07.853Z</time>
      </trkpt>
      <trkpt lat="62.72753" lon="6.93194">
        <ele>78.380821</ele>
        <time>2020-08-02T08:44:08.880Z</time>
      </trkpt>
      <trkpt lat="62.72742" lon="6.93199">
        <ele>77.843719</ele>
        <time>2020-08-02T08:44:09.879Z</time>
      </trkpt>
      <trkpt lat="62.7273" lon="6.93203">
        <ele>77.282622</ele>
        <time>2020-08-02T08:44:10.855Z</time>
      </trkpt>
      <trkpt lat="62.72718" lon="6.93209">
        <ele>76.694159</ele>
        <time>2020-08-02T08:44:11.864Z</time>
      </trkpt>
      <trkpt lat="62.72707" lon="6.93214">
        <ele>76.12834</ele>
        <time>2020-08-02T08:44:12.868Z</time>
      </trkpt>
      <trkpt lat="62.72695" lon="6.93218">
        <ele>75.564028</ele>
        <time>2020-08-02T08:44:13.864Z</time>
      </trkpt>
      <trkpt lat="62.72683" lon="6.93222">
        <ele>74.986847</ele>
        <time>2020-08-02T08:44:14.885Z</time>
      </trkpt>
      <trkpt lat="62.72671" lon="6.93224">
        <ele>74.407665</ele>
        <time>2020-08-02T08:44:15.861Z</time>
      </trkpt>
      <trkpt lat="62.72659" lon="6.93226">
        <ele>73.816186</ele>
        <time>2020-08-02T08:44:16.894Z</time>
      </trkpt>
      <trkpt lat="62.72646" lon="6.93227">
        <ele>73.206372</ele>
        <time>2020-08-02T08:44:17.885Z</time>
      </trkpt>
      <trkpt lat="62.72633" lon="6.93228">
        <ele>72.582233</ele>
        <time>2020-08-02T08:44:18.892Z</time>
      </trkpt>
      <trkpt lat="62.7262" lon="6.93229">
        <ele>71.938906</ele>
        <time>2020-08-02T08:44:19.864Z</time>
      </trkpt>
      <trkpt lat="62.72606" lon="6.93229">
        <ele>71.286187</ele>
        <time>2020-08-02T08:44:20.865Z</time>
      </trkpt>
      <trkpt lat="62.72592" lon="6.9323">
        <ele>70.61881</ele>
        <time>2020-08-02T08:44:21.872Z</time>
      </trkpt>
      <trkpt lat="62.72579" lon="6.93234">
        <ele>69.941384</ele>
        <time>2020-08-02T08:44:22.894Z</time>
      </trkpt>
      <trkpt lat="62.72568" lon="6.93241">
        <ele>69.276008</ele>
        <time>2020-08-02T08:44:23.863Z</time>
      </trkpt>
      <trkpt lat="62.72556" lon="6.93252">
        <ele>68.58285</ele>
        <time>2020-08-02T08:44:24.908Z</time>
      </trkpt>
      <trkpt lat="62.72545" lon="6.93265">
        <ele>67.845989</ele>
        <time>2020-08-02T08:44:25.879Z</time>
      </trkpt>
      <trkpt lat="62.72534" lon="6.9328">
        <ele>67.131321</ele>
        <time>2020-08-02T08:44:26.870Z</time>
      </trkpt>
      <trkpt lat="62.72524" lon="6.93295">
        <ele>66.415268</ele>
        <time>2020-08-02T08:44:27.871Z</time>
      </trkpt>
      <trkpt lat="62.72513" lon="6.93309">
        <ele>65.739634</ele>
        <time>2020-08-02T08:44:28.863Z</time>
      </trkpt>
      <trkpt lat="62.72503" lon="6.93321">
        <ele>65.058549</ele>
        <time>2020-08-02T08:44:29.876Z</time>
      </trkpt>
      <trkpt lat="62.72493" lon="6.93333">
        <ele>64.435819</ele>
        <time>2020-08-02T08:44:30.858Z</time>
      </trkpt>
      <trkpt lat="62.72483" lon="6.93344">
        <ele>63.809319</ele>
        <time>2020-08-02T08:44:31.877Z</time>
      </trkpt>
      <trkpt lat="62.72474" lon="6.93355">
        <ele>63.197298</ele>
        <time>2020-08-02T08:44:32.875Z</time>
      </trkpt>
      <trkpt lat="62.72465" lon="6.93364">
        <ele>62.625986</ele>
        <time>2020-08-02T08:44:33.879Z</time>
      </trkpt>
      <trkpt lat="62.72456" lon="6.93374">
        <ele>62.072585</ele>
        <time>2020-08-02T08:44:34.870Z</time>
      </trkpt>
      <trkpt lat="62.72447" lon="6.93384">
        <ele>61.489306</ele>
        <time>2020-08-02T08:44:35.868Z</time>
      </trkpt>
      <trkpt lat="62.72438" lon="6.93393">
        <ele>60.95529</ele>
        <time>2020-08-02T08:44:36.884Z</time>
      </trkpt>
      <trkpt lat="62.72429" lon="6.93402">
        <ele>60.397851</ele>
        <time>2020-08-02T08:44:37.872Z</time>
      </trkpt>
      <trkpt lat="62.7242" lon="6.9341">
        <ele>59.908539</ele>
        <time>2020-08-02T08:44:38.875Z</time>
      </trkpt>
      <trkpt lat="62.72411" lon="6.93415">
        <ele>59.688167</ele>
        <time>2020-08-02T08:44:39.909Z</time>
      </trkpt>
      <trkpt lat="62.72394" lon="6.93417">
        <ele>59.298582</ele>
        <time>2020-08-02T08:44:41.916Z</time>
      </trkpt>
      <trkpt lat="62.72378" lon="6.93409">
        <ele>58.911392</ele>
        <time>2020-08-02T08:44:43.853Z</time>
      </trkpt>
      <trkpt lat="62.72369" lon="6.93403">
        <ele>58.699461</ele>
        <time>2020-08-02T08:44:44.876Z</time>
      </trkpt>
      <trkpt lat="62.7236" lon="6.93397">
        <ele>58.48181</ele>
        <time>2020-08-02T08:44:45.890Z</time>
      </trkpt>
      <trkpt lat="62.72351" lon="6.93391">
        <ele>58.264158</ele>
        <time>2020-08-02T08:44:46.877Z</time>
      </trkpt>
      <trkpt lat="62.72342" lon="6.93385">
        <ele>58.04905</ele>
        <time>2020-08-02T08:44:47.871Z</time>
      </trkpt>
      <trkpt lat="62.72333" lon="6.93379">
        <ele>57.824573</ele>
        <time>2020-08-02T08:44:48.897Z</time>
      </trkpt>
      <trkpt lat="62.72324" lon="6.93375">
        <ele>57.608522</ele>
        <time>2020-08-02T08:44:49.855Z</time>
      </trkpt>
      <trkpt lat="62.72315" lon="6.93373">
        <ele>57.392908</ele>
        <time>2020-08-02T08:44:50.892Z</time>
      </trkpt>
      <trkpt lat="62.72297" lon="6.93375">
        <ele>56.989189</ele>
        <time>2020-08-02T08:44:52.883Z</time>
      </trkpt>
      <trkpt lat="62.72282" lon="6.93385">
        <ele>56.617101</ele>
        <time>2020-08-02T08:44:54.871Z</time>
      </trkpt>
      <trkpt lat="62.72267" lon="6.93397">
        <ele>56.249273</ele>
        <time>2020-08-02T08:44:56.889Z</time>
      </trkpt>
      <trkpt lat="62.72253" lon="6.93413">
        <ele>55.871482</ele>
        <time>2020-08-02T08:44:58.854Z</time>
      </trkpt>
      <trkpt lat="62.72238" lon="6.93429">
        <ele>55.70308</ele>
        <time>2020-08-02T08:45:00.873Z</time>
      </trkpt>
      <trkpt lat="62.72223" lon="6.9345">
        <ele>55.597922</ele>
        <time>2020-08-02T08:45:02.895Z</time>
      </trkpt>
      <trkpt lat="62.7221" lon="6.93474">
        <ele>55.492467</ele>
        <time>2020-08-02T08:45:04.856Z</time>
      </trkpt>
      <trkpt lat="62.72197" lon="6.93501">
        <ele>55.387983</ele>
        <time>2020-08-02T08:45:06.876Z</time>
      </trkpt>
      <trkpt lat="62.72184" lon="6.93526">
        <ele>55.285672</ele>
        <time>2020-08-02T08:45:08.893Z</time>
      </trkpt>
      <trkpt lat="62.72172" lon="6.93548">
        <ele>55.190575</ele>
        <time>2020-08-02T08:45:10.859Z</time>
      </trkpt>
      <trkpt lat="62.72159" lon="6.9356">
        <ele>55.109053</ele>
        <time>2020-08-02T08:45:12.894Z</time>
      </trkpt>
      <trkpt lat="62.72146" lon="6.93566">
        <ele>55.028837</ele>
        <time>2020-08-02T08:45:14.908Z</time>
      </trkpt>
      <trkpt lat="62.72133" lon="6.93567">
        <ele>54.952</ele>
        <time>2020-08-02T08:45:16.863Z</time>
      </trkpt>
      <trkpt lat="62.72121" lon="6.93564">
        <ele>54.88121</ele>
        <time>2020-08-02T08:45:18.858Z</time>
      </trkpt>
      <trkpt lat="62.7211" lon="6.9356">
        <ele>54.810707</ele>
        <time>2020-08-02T08:45:20.859Z</time>
      </trkpt>
      <trkpt lat="62.72098" lon="6.93556">
        <ele>54.741654</ele>
        <time>2020-08-02T08:45:22.859Z</time>
      </trkpt>
      <trkpt lat="62.72087" lon="6.93554">
        <ele>54.890807</ele>
        <time>2020-08-02T08:45:24.893Z</time>
      </trkpt>
      <trkpt lat="62.72076" lon="6.9355">
        <ele>55.285217</ele>
        <time>2020-08-02T08:45:26.859Z</time>
      </trkpt>
      <trkpt lat="62.72066" lon="6.93549">
        <ele>55.672933</ele>
        <time>2020-08-02T08:45:28.893Z</time>
      </trkpt>
      <trkpt lat="62.72055" lon="6.93549">
        <ele>56.045665</ele>
        <time>2020-08-02T08:45:30.861Z</time>
      </trkpt>
      <trkpt lat="62.72045" lon="6.93552">
        <ele>56.403548</ele>
        <time>2020-08-02T08:45:32.873Z</time>
      </trkpt>
      <trkpt lat="62.72036" lon="6.93557">
        <ele>56.759952</ele>
        <time>2020-08-02T08:45:34.888Z</time>
      </trkpt>
      <trkpt lat="62.72027" lon="6.93564">
        <ele>57.108585</ele>
        <time>2020-08-02T08:45:36.862Z</time>
      </trkpt>
      <trkpt lat="62.72019" lon="6.93573">
        <ele>57.434566</ele>
        <time>2020-08-02T08:45:38.872Z</time>
      </trkpt>
      <trkpt lat="62.72011" lon="6.93582">
        <ele>57.760195</ele>
        <time>2020-08-02T08:45:40.875Z</time>
      </trkpt>
      <trkpt lat="62.72003" lon="6.93593">
        <ele>58.087508</ele>
        <time>2020-08-02T08:45:42.870Z</time>
      </trkpt>
      <trkpt lat="62.71994" lon="6.93611">
        <ele>58.541742</ele>
        <time>2020-08-02T08:45:45.879Z</time>
      </trkpt>
      <trkpt lat="62.7199" lon="6.93629">
        <ele>58.87652</ele>
        <time>2020-08-02T08:45:48.901Z</time>
      </trkpt>
      <trkpt lat="62.71986" lon="6.93652">
        <ele>59.274562</ele>
        <time>2020-08-02T08:45:51.862Z</time>
      </trkpt>
      <trkpt lat="62.71979" lon="6.93669">
        <ele>59.663368</ele>
        <time>2020-08-02T08:45:54.867Z</time>
      </trkpt>
      <trkpt lat="62.71969" lon="6.9368">
        <ele>60.047812</ele>
        <time>2020-08-02T08:45:57.861Z</time>
      </trkpt>
      <trkpt lat="62.71961" lon="6.9369">
        <ele>60.396504</ele>
        <time>2020-08-02T08:46:00.866Z</time>
      </trkpt>
      <trkpt lat="62.71952" lon="6.93698">
        <ele>60.739455</ele>
        <time>2020-08-02T08:46:04.905Z</time>
      </trkpt>
      <trkpt lat="62.71925" lon="6.93788">
        <ele>63.362243</ele>
        <time>2020-08-02T09:11:17.831Z</time>
      </trkpt>
      <trkpt lat="62.71912" lon="6.93833">
        <ele>64.793323</ele>
        <time>2020-08-02T09:11:51.826Z</time>
      </trkpt>
      <trkpt lat="62.71901" lon="6.93867">
        <ele>65.926669</ele>
        <time>2020-08-02T09:11:57.820Z</time>
      </trkpt>
      <trkpt lat="62.71894" lon="6.93886">
        <ele>66.571523</ele>
        <time>2020-08-02T09:12:01.819Z</time>
      </trkpt>
      <trkpt lat="62.71889" lon="6.93905">
        <ele>67.179203</ele>
        <time>2020-08-02T09:12:06.821Z</time>
      </trkpt>
      <trkpt lat="62.7188" lon="6.93945">
        <ele>68.378126</ele>
        <time>2020-08-02T09:12:16.827Z</time>
      </trkpt>
      <trkpt lat="62.71878" lon="6.93968">
        <ele>69.020882</ele>
        <time>2020-08-02T09:12:21.828Z</time>
      </trkpt>
      <trkpt lat="62.71875" lon="6.93992">
        <ele>69.671671</ele>
        <time>2020-08-02T09:12:26.846Z</time>
      </trkpt>
      <trkpt lat="62.71873" lon="6.94011">
        <ele>70.216516</ele>
        <time>2020-08-02T09:12:30.839Z</time>
      </trkpt>
      <trkpt lat="62.7187" lon="6.94033">
        <ele>70.839002</ele>
        <time>2020-08-02T09:12:34.829Z</time>
      </trkpt>
      <trkpt lat="62.71869" lon="6.94055">
        <ele>71.429016</ele>
        <time>2020-08-02T09:12:37.851Z</time>
      </trkpt>
      <trkpt lat="62.71869" lon="6.94078">
        <ele>71.817018</ele>
        <time>2020-08-02T09:12:41.839Z</time>
      </trkpt>
      <trkpt lat="62.71869" lon="6.94108">
        <ele>71.735585</ele>
        <time>2020-08-02T09:12:45.853Z</time>
      </trkpt>
      <trkpt lat="62.7187" lon="6.94132">
        <ele>71.667426</ele>
        <time>2020-08-02T09:12:49.851Z</time>
      </trkpt>
      <trkpt lat="62.71872" lon="6.94157">
        <ele>71.596708</ele>
        <time>2020-08-02T09:12:53.836Z</time>
      </trkpt>
      <trkpt lat="62.71874" lon="6.94182">
        <ele>71.524358</ele>
        <time>2020-08-02T09:12:57.850Z</time>
      </trkpt>
      <trkpt lat="62.71878" lon="6.94205">
        <ele>71.456722</ele>
        <time>2020-08-02T09:13:01.844Z</time>
      </trkpt>
      <trkpt lat="62.71882" lon="6.94233">
        <ele>71.374857</ele>
        <time>2020-08-02T09:13:05.847Z</time>
      </trkpt>
      <trkpt lat="62.71885" lon="6.94253">
        <ele>71.317399</ele>
        <time>2020-08-02T09:13:08.848Z</time>
      </trkpt>
      <trkpt lat="62.71888" lon="6.94275">
        <ele>71.255288</ele>
        <time>2020-08-02T09:13:10.857Z</time>
      </trkpt>
      <trkpt lat="62.71891" lon="6.94303">
        <ele>71.173127</ele>
        <time>2020-08-02T09:13:14.843Z</time>
      </trkpt>
      <trkpt lat="62.71893" lon="6.94325">
        <ele>71.110671</ele>
        <time>2020-08-02T09:13:17.855Z</time>
      </trkpt>
      <trkpt lat="62.71898" lon="6.94345">
        <ele>71.050035</ele>
        <time>2020-08-02T09:13:20.851Z</time>
      </trkpt>
      <trkpt lat="62.71902" lon="6.94363">
        <ele>70.991492</ele>
        <time>2020-08-02T09:13:22.843Z</time>
      </trkpt>
      <trkpt lat="62.71907" lon="6.94382">
        <ele>70.933676</ele>
        <time>2020-08-02T09:13:25.845Z</time>
      </trkpt>
      <trkpt lat="62.71911" lon="6.944">
        <ele>70.877065</ele>
        <time>2020-08-02T09:13:28.833Z</time>
      </trkpt>
      <trkpt lat="62.71914" lon="6.94419">
        <ele>70.821424</ele>
        <time>2020-08-02T09:13:30.828Z</time>
      </trkpt>
      <trkpt lat="62.71917" lon="6.94439">
        <ele>70.762255</ele>
        <time>2020-08-02T09:13:33.837Z</time>
      </trkpt>
      <trkpt lat="62.71922" lon="6.94461">
        <ele>70.587249</ele>
        <time>2020-08-02T09:13:36.841Z</time>
      </trkpt>
      <trkpt lat="62.71927" lon="6.94482">
        <ele>70.396742</ele>
        <time>2020-08-02T09:13:38.840Z</time>
      </trkpt>
      <trkpt lat="62.71932" lon="6.94504">
        <ele>70.193921</ele>
        <time>2020-08-02T09:13:40.857Z</time>
      </trkpt>
      <trkpt lat="62.71939" lon="6.94526">
        <ele>69.985947</ele>
        <time>2020-08-02T09:13:43.851Z</time>
      </trkpt>
      <trkpt lat="62.71945" lon="6.94546">
        <ele>69.78836</ele>
        <time>2020-08-02T09:13:46.834Z</time>
      </trkpt>
      <trkpt lat="62.71953" lon="6.94569">
        <ele>69.562447</ele>
        <time>2020-08-02T09:13:48.846Z</time>
      </trkpt>
      <trkpt lat="62.7196" lon="6.94589">
        <ele>69.356844</ele>
        <time>2020-08-02T09:13:51.834Z</time>
      </trkpt>
      <trkpt lat="62.71966" lon="6.94607">
        <ele>69.174475</ele>
        <time>2020-08-02T09:13:54.849Z</time>
      </trkpt>
      <trkpt lat="62.71972" lon="6.94626">
        <ele>68.993163</ele>
        <time>2020-08-02T09:13:56.866Z</time>
      </trkpt>
      <trkpt lat="62.71977" lon="6.94645">
        <ele>68.813132</ele>
        <time>2020-08-02T09:13:59.838Z</time>
      </trkpt>
      <trkpt lat="62.71983" lon="6.94664">
        <ele>68.626051</ele>
        <time>2020-08-02T09:14:02.850Z</time>
      </trkpt>
      <trkpt lat="62.7199" lon="6.94686">
        <ele>68.411867</ele>
        <time>2020-08-02T09:14:04.840Z</time>
      </trkpt>
      <trkpt lat="62.71997" lon="6.94708">
        <ele>68.200628</ele>
        <time>2020-08-02T09:14:07.846Z</time>
      </trkpt>
      <trkpt lat="62.72003" lon="6.94731">
        <ele>67.985332</ele>
        <time>2020-08-02T09:14:10.856Z</time>
      </trkpt>
      <trkpt lat="62.7201" lon="6.94754">
        <ele>67.760127</ele>
        <time>2020-08-02T09:14:12.849Z</time>
      </trkpt>
      <trkpt lat="62.72017" lon="6.94776">
        <ele>67.542855</ele>
        <time>2020-08-02T09:14:15.857Z</time>
      </trkpt>
      <trkpt lat="62.72904" lon="6.98419">
        <ele>41.761441</ele>
        <time>2020-08-02T09:22:03.820Z</time>
      </trkpt>
      <trkpt lat="62.72915" lon="6.98449">
        <ele>43.84477</ele>
        <time>2020-08-02T09:22:05.009Z</time>
      </trkpt>
      <trkpt lat="62.72893" lon="6.9848">
        <ele>46.957063</ele>
        <time>2020-08-02T09:25:38.657Z</time>
      </trkpt>
      <trkpt lat="62.72884" lon="6.98548">
        <ele>50.919445</ele>
        <time>2020-08-02T09:25:43.645Z</time>
      </trkpt>
      <trkpt lat="62.72881" lon="6.98566">
        <ele>52.029342</ele>
        <time>2020-08-02T09:25:47.647Z</time>
      </trkpt>
      <trkpt lat="62.72878" lon="6.9859">
        <ele>52.729664</ele>
        <time>2020-08-02T09:25:50.678Z</time>
      </trkpt>
      <trkpt lat="62.72877" lon="6.98612">
        <ele>53.282449</ele>
        <time>2020-08-02T09:25:52.697Z</time>
      </trkpt>
      <trkpt lat="62.72876" lon="6.98633">
        <ele>53.804269</ele>
        <time>2020-08-02T09:25:54.680Z</time>
      </trkpt>
      <trkpt lat="62.72877" lon="6.98659">
        <ele>54.452117</ele>
        <time>2020-08-02T09:25:57.653Z</time>
      </trkpt>
      <trkpt lat="62.72878" lon="6.98684">
        <ele>55.099501</ele>
        <time>2020-08-02T09:26:00.676Z</time>
      </trkpt>
      <trkpt lat="62.72881" lon="6.98708">
        <ele>55.715725</ele>
        <time>2020-08-02T09:26:03.654Z</time>
      </trkpt>
      <trkpt lat="62.72885" lon="6.98731">
        <ele>56.334462</ele>
        <time>2020-08-02T09:26:06.665Z</time>
      </trkpt>
      <trkpt lat="62.72889" lon="6.98755">
        <ele>56.963728</ele>
        <time>2020-08-02T09:26:09.664Z</time>
      </trkpt>
      <trkpt lat="62.72892" lon="6.98778">
        <ele>57.56077</ele>
        <time>2020-08-02T09:26:12.673Z</time>
      </trkpt>
      <trkpt lat="62.72896" lon="6.98802">
        <ele>58.186609</ele>
        <time>2020-08-02T09:26:15.665Z</time>
      </trkpt>
      <trkpt lat="62.72899" lon="6.98826">
        <ele>58.839632</ele>
        <time>2020-08-02T09:26:18.658Z</time>
      </trkpt>
      <trkpt lat="62.72903" lon="6.98852">
        <ele>59.502184</ele>
        <time>2020-08-02T09:26:21.655Z</time>
      </trkpt>
      <trkpt lat="62.72906" lon="6.98876">
        <ele>60.132823</ele>
        <time>2020-08-02T09:26:24.658Z</time>
      </trkpt>
      <trkpt lat="62.72909" lon="6.98899">
        <ele>60.745108</ele>
        <time>2020-08-02T09:26:27.668Z</time>
      </trkpt>
      <trkpt lat="62.72913" lon="6.98922">
        <ele>61.349759</ele>
        <time>2020-08-02T09:26:30.647Z</time>
      </trkpt>
      <trkpt lat="62.72917" lon="6.98946">
        <ele>61.982126</ele>
        <time>2020-08-02T09:26:33.650Z</time>
      </trkpt>
      <trkpt lat="62.7292" lon="6.98969">
        <ele>62.173522</ele>
        <time>2020-08-02T09:26:36.660Z</time>
      </trkpt>
      <trkpt lat="62.72923" lon="6.98992">
        <ele>62.340224</ele>
        <time>2020-08-02T09:26:39.655Z</time>
      </trkpt>
      <trkpt lat="62.72926" lon="6.99014">
        <ele>62.506785</ele>
        <time>2020-08-02T09:26:42.646Z</time>
      </trkpt>
      <trkpt lat="62.7293" lon="6.99038">
        <ele>62.684025</ele>
        <time>2020-08-02T09:26:45.677Z</time>
      </trkpt>
      <trkpt lat="62.72934" lon="6.99062">
        <ele>62.865226</ele>
        <time>2020-08-02T09:26:48.654Z</time>
      </trkpt>
      <trkpt lat="62.72938" lon="6.99087">
        <ele>63.053858</ele>
        <time>2020-08-02T09:26:51.648Z</time>
      </trkpt>
      <trkpt lat="62.72944" lon="6.99111">
        <ele>63.245845</ele>
        <time>2020-08-02T09:26:54.699Z</time>
      </trkpt>
      <trkpt lat="62.7295" lon="6.99135">
        <ele>63.433979</ele>
        <time>2020-08-02T09:26:57.660Z</time>
      </trkpt>
      <trkpt lat="62.72955" lon="6.99156">
        <ele>63.606589</ele>
        <time>2020-08-02T09:27:00.667Z</time>
      </trkpt>
      <trkpt lat="62.7296" lon="6.99176">
        <ele>63.76633</ele>
        <time>2020-08-02T09:27:03.662Z</time>
      </trkpt>
      <trkpt lat="62.72965" lon="6.99196">
        <ele>63.925627</ele>
        <time>2020-08-02T09:27:06.640Z</time>
      </trkpt>
      <trkpt lat="62.7297" lon="6.99216">
        <ele>64.085547</ele>
        <time>2020-08-02T09:27:09.659Z</time>
      </trkpt>
      <trkpt lat="62.72974" lon="6.99235">
        <ele>64.242063</ele>
        <time>2020-08-02T09:27:12.651Z</time>
      </trkpt>
      <trkpt lat="62.72979" lon="6.99255">
        <ele>64.398659</ele>
        <time>2020-08-02T09:27:15.654Z</time>
      </trkpt>
      <trkpt lat="62.72984" lon="6.99274">
        <ele>64.557149</ele>
        <time>2020-08-02T09:27:18.679Z</time>
      </trkpt>
      <trkpt lat="62.7299" lon="6.99294">
        <ele>64.718037</ele>
        <time>2020-08-02T09:27:21.669Z</time>
      </trkpt>
      <trkpt lat="62.72994" lon="6.99312">
        <ele>65.09133</ele>
        <time>2020-08-02T09:27:24.683Z</time>
      </trkpt>
      <trkpt lat="62.73" lon="6.99333">
        <ele>65.759691</ele>
        <time>2020-08-02T09:27:28.659Z</time>
      </trkpt>
      <trkpt lat="62.73006" lon="6.99356">
        <ele>66.46147</ele>
        <time>2020-08-02T09:27:32.658Z</time>
      </trkpt>
      <trkpt lat="62.73011" lon="6.99372">
        <ele>67.014462</ele>
        <time>2020-08-02T09:27:35.649Z</time>
      </trkpt>
      <trkpt lat="62.73017" lon="6.99389">
        <ele>67.563115</ele>
        <time>2020-08-02T09:27:38.666Z</time>
      </trkpt>
      <trkpt lat="62.73022" lon="6.99405">
        <ele>68.104607</ele>
        <time>2020-08-02T09:27:41.663Z</time>
      </trkpt>
      <trkpt lat="62.73027" lon="6.99425">
        <ele>68.711508</ele>
        <time>2020-08-02T09:27:45.674Z</time>
      </trkpt>
      <trkpt lat="62.73031" lon="6.99446">
        <ele>69.342425</ele>
        <time>2020-08-02T09:27:49.642Z</time>
      </trkpt>
      <trkpt lat="62.73037" lon="6.99468">
        <ele>70.007291</ele>
        <time>2020-08-02T09:27:53.654Z</time>
      </trkpt>
      <trkpt lat="62.73042" lon="6.99491">
        <ele>70.704834</ele>
        <time>2020-08-02T09:27:57.672Z</time>
      </trkpt>
      <trkpt lat="62.73047" lon="6.99511">
        <ele>71.316541</ele>
        <time>2020-08-02T09:28:01.659Z</time>
      </trkpt>
      <trkpt lat="62.73051" lon="6.9953">
        <ele>71.879179</ele>
        <time>2020-08-02T09:28:05.665Z</time>
      </trkpt>
      <trkpt lat="62.73054" lon="6.99551">
        <ele>72.469753</ele>
        <time>2020-08-02T09:28:10.653Z</time>
      </trkpt>
      <trkpt lat="62.73057" lon="6.9957">
        <ele>73.014697</ele>
        <time>2020-08-02T09:28:14.676Z</time>
      </trkpt>
      <trkpt lat="62.73061" lon="6.99589">
        <ele>73.58104</ele>
        <time>2020-08-02T09:28:18.668Z</time>
      </trkpt>
      <trkpt lat="62.73063" lon="6.99609">
        <ele>74.11932</ele>
        <time>2020-08-02T09:28:22.696Z</time>
      </trkpt>
      <trkpt lat="62.73066" lon="6.99629">
        <ele>74.707975</ele>
        <time>2020-08-02T09:28:26.658Z</time>
      </trkpt>
      <trkpt lat="62.73069" lon="6.99649">
        <ele>75.253729</ele>
        <time>2020-08-02T09:28:30.646Z</time>
      </trkpt>
      <trkpt lat="62.73071" lon="6.99668">
        <ele>75.899533</ele>
        <time>2020-08-02T09:28:34.658Z</time>
      </trkpt>
      <trkpt lat="62.73074" lon="6.99687">
        <ele>76.574922</ele>
        <time>2020-08-02T09:28:38.652Z</time>
      </trkpt>
      <trkpt lat="62.73077" lon="6.99707">
        <ele>77.263256</ele>
        <time>2020-08-02T09:28:42.656Z</time>
      </trkpt>
      <trkpt lat="62.73079" lon="6.99727">
        <ele>77.933651</ele>
        <time>2020-08-02T09:28:46.647Z</time>
      </trkpt>
      <trkpt lat="62.73081" lon="6.9975">
        <ele>78.719013</ele>
        <time>2020-08-02T09:28:51.654Z</time>
      </trkpt>
      <trkpt lat="62.73084" lon="6.99771">
        <ele>79.437878</ele>
        <time>2020-08-02T09:28:56.662Z</time>
      </trkpt>
      <trkpt lat="62.73084" lon="6.99792">
        <ele>80.132251</ele>
        <time>2020-08-02T09:29:01.677Z</time>
      </trkpt>
      <trkpt lat="62.73085" lon="6.99813">
        <ele>80.838494</ele>
        <time>2020-08-02T09:29:06.653Z</time>
      </trkpt>
      <trkpt lat="62.73087" lon="6.99835">
        <ele>81.595965</ele>
        <time>2020-08-02T09:29:11.654Z</time>
      </trkpt>
      <trkpt lat="62.73088" lon="6.99859">
        <ele>82.389061</ele>
        <time>2020-08-02T09:29:16.652Z</time>
      </trkpt>
      <trkpt lat="62.73087" lon="6.99883">
        <ele>83.188932</ele>
        <time>2020-08-02T09:29:21.658Z</time>
      </trkpt>
      <trkpt lat="62.73086" lon="6.99907">
        <ele>83.996032</ele>
        <time>2020-08-02T09:29:26.651Z</time>
      </trkpt>
      <trkpt lat="62.73086" lon="6.99928">
        <ele>84.691906</ele>
        <time>2020-08-02T09:29:30.688Z</time>
      </trkpt>
      <trkpt lat="62.73086" lon="6.9995">
        <ele>85.42118</ele>
        <time>2020-08-02T09:29:34.657Z</time>
      </trkpt>
      <trkpt lat="62.73084" lon="6.9997">
        <ele>86.101216</ele>
        <time>2020-08-02T09:29:38.650Z</time>
      </trkpt>
      <trkpt lat="62.73081" lon="6.9999">
        <ele>86.794637</ele>
        <time>2020-08-02T09:29:42.675Z</time>
      </trkpt>
      <trkpt lat="62.73078" lon="7.00009">
        <ele>87.476855</ele>
        <time>2020-08-02T09:29:46.669Z</time>
      </trkpt>
      <trkpt lat="62.73075" lon="7.0003">
        <ele>88.187016</ele>
        <time>2020-08-02T09:29:50.672Z</time>
      </trkpt>
      <trkpt lat="62.73073" lon="7.00051">
        <ele>88.653115</ele>
        <time>2020-08-02T09:29:54.662Z</time>
      </trkpt>
      <trkpt lat="62.73071" lon="7.0007">
        <ele>88.950284</ele>
        <time>2020-08-02T09:29:58.658Z</time>
      </trkpt>
      <trkpt lat="62.73068" lon="7.00089">
        <ele>89.241227</ele>
        <time>2020-08-02T09:30:02.695Z</time>
      </trkpt>
      <trkpt lat="62.73065" lon="7.00111">
        <ele>89.583747</ele>
        <time>2020-08-02T09:30:07.651Z</time>
      </trkpt>
      <trkpt lat="62.73061" lon="7.00133">
        <ele>89.92546</ele>
        <time>2020-08-02T09:30:12.671Z</time>
      </trkpt>
      <trkpt lat="62.73057" lon="7.00154">
        <ele>90.262736</ele>
        <time>2020-08-02T09:30:17.651Z</time>
      </trkpt>
      <trkpt lat="62.7305" lon="7.00173">
        <ele>90.621564</ele>
        <time>2020-08-02T09:30:22.701Z</time>
      </trkpt>
      <trkpt lat="62.73044" lon="7.00192">
        <ele>90.956543</ele>
        <time>2020-08-02T09:30:27.660Z</time>
      </trkpt>
      <trkpt lat="62.73039" lon="7.00211">
        <ele>91.286069</ele>
        <time>2020-08-02T09:30:32.652Z</time>
      </trkpt>
      <trkpt lat="62.73034" lon="7.00231">
        <ele>91.612963</ele>
        <time>2020-08-02T09:30:37.651Z</time>
      </trkpt>
      <trkpt lat="62.73029" lon="7.00252">
        <ele>91.96112</ele>
        <time>2020-08-02T09:30:42.666Z</time>
      </trkpt>
      <trkpt lat="62.73023" lon="7.00272">
        <ele>92.307001</ele>
        <time>2020-08-02T09:30:47.669Z</time>
      </trkpt>
      <trkpt lat="62.73018" lon="7.00292">
        <ele>92.647788</ele>
        <time>2020-08-02T09:30:52.676Z</time>
      </trkpt>
      <trkpt lat="62.73013" lon="7.00309">
        <ele>92.948384</ele>
        <time>2020-08-02T09:30:56.668Z</time>
      </trkpt>
      <trkpt lat="62.73008" lon="7.00329">
        <ele>93.284277</ele>
        <time>2020-08-02T09:31:00.662Z</time>
      </trkpt>
      <trkpt lat="62.73002" lon="7.00348">
        <ele>93.619761</ele>
        <time>2020-08-02T09:31:04.665Z</time>
      </trkpt>
      <trkpt lat="62.72998" lon="7.00365">
        <ele>93.914849</ele>
        <time>2020-08-02T09:31:08.665Z</time>
      </trkpt>
      <trkpt lat="62.72992" lon="7.00387">
        <ele>94.211726</ele>
        <time>2020-08-02T09:31:13.669Z</time>
      </trkpt>
      <trkpt lat="62.72987" lon="7.00408">
        <ele>94.040256</ele>
        <time>2020-08-02T09:31:18.652Z</time>
      </trkpt>
      <trkpt lat="62.72984" lon="7.00428">
        <ele>93.885003</ele>
        <time>2020-08-02T09:31:22.655Z</time>
      </trkpt>
      <trkpt lat="62.7298" lon="7.00449">
        <ele>93.725546</ele>
        <time>2020-08-02T09:31:26.685Z</time>
      </trkpt>
      <trkpt lat="62.72977" lon="7.00473">
        <ele>93.549757</ele>
        <time>2020-08-02T09:31:30.650Z</time>
      </trkpt>
      <trkpt lat="62.72973" lon="7.00495">
        <ele>93.379044</ele>
        <time>2020-08-02T09:31:34.668Z</time>
      </trkpt>
      <trkpt lat="62.7297" lon="7.00517">
        <ele>93.212802</ele>
        <time>2020-08-02T09:31:38.655Z</time>
      </trkpt>
      <trkpt lat="62.72967" lon="7.00539">
        <ele>93.051754</ele>
        <time>2020-08-02T09:31:42.690Z</time>
      </trkpt>
      <trkpt lat="62.72966" lon="7.00562">
        <ele>92.886285</ele>
        <time>2020-08-02T09:31:46.696Z</time>
      </trkpt>
      <trkpt lat="62.72964" lon="7.00584">
        <ele>92.728562</ele>
        <time>2020-08-02T09:31:50.664Z</time>
      </trkpt>
      <trkpt lat="62.72962" lon="7.00605">
        <ele>92.574357</ele>
        <time>2020-08-02T09:31:54.654Z</time>
      </trkpt>
      <trkpt lat="62.72961" lon="7.00629">
        <ele>92.397961</ele>
        <time>2020-08-02T09:31:58.765Z</time>
      </trkpt>
      <trkpt lat="62.72959" lon="7.00654">
        <ele>92.223695</ele>
        <time>2020-08-02T09:32:02.667Z</time>
      </trkpt>
      <trkpt lat="62.7296" lon="7.00676">
        <ele>92.064135</ele>
        <time>2020-08-02T09:32:06.669Z</time>
      </trkpt>
      <trkpt lat="62.72961" lon="7.00698">
        <ele>91.906164</ele>
        <time>2020-08-02T09:32:10.695Z</time>
      </trkpt>
      <trkpt lat="62.72962" lon="7.00719">
        <ele>91.753897</ele>
        <time>2020-08-02T09:32:14.684Z</time>
      </trkpt>
      <trkpt lat="62.72964" lon="7.0074">
        <ele>91.60391</ele>
        <time>2020-08-02T09:32:19.669Z</time>
      </trkpt>
      <trkpt lat="62.72966" lon="7.00759">
        <ele>91.462725</ele>
        <time>2020-08-02T09:32:24.687Z</time>
      </trkpt>
      <trkpt lat="62.72967" lon="7.00783">
        <ele>92.218871</ele>
        <time>2020-08-02T09:34:09.685Z</time>
      </trkpt>
      <trkpt lat="62.72968" lon="7.00802">
        <ele>93.049447</ele>
        <time>2020-08-02T09:34:13.674Z</time>
      </trkpt>
      <trkpt lat="62.72969" lon="7.00824">
        <ele>93.945987</ele>
        <time>2020-08-02T09:34:17.662Z</time>
      </trkpt>
      <trkpt lat="62.7297" lon="7.00844">
        <ele>94.826407</ele>
        <time>2020-08-02T09:34:21.675Z</time>
      </trkpt>
      <trkpt lat="62.72972" lon="7.00868">
        <ele>95.833389</ele>
        <time>2020-08-02T09:34:26.652Z</time>
      </trkpt>
      <trkpt lat="62.72973" lon="7.00891">
        <ele>96.799321</ele>
        <time>2020-08-02T09:34:31.652Z</time>
      </trkpt>
      <trkpt lat="62.72974" lon="7.0091">
        <ele>97.639421</ele>
        <time>2020-08-02T09:34:36.667Z</time>
      </trkpt>
      <trkpt lat="62.72975" lon="7.00931">
        <ele>98.536867</ele>
        <time>2020-08-02T09:34:41.665Z</time>
      </trkpt>
      <trkpt lat="62.72976" lon="7.00954">
        <ele>99.474089</ele>
        <time>2020-08-02T09:34:47.669Z</time>
      </trkpt>
      <trkpt lat="62.72976" lon="7.00976">
        <ele>100.432634</ele>
        <time>2020-08-02T09:34:53.653Z</time>
      </trkpt>
      <trkpt lat="62.72977" lon="7.00998">
        <ele>101.364738</ele>
        <time>2020-08-02T09:34:59.649Z</time>
      </trkpt>
      <trkpt lat="62.72976" lon="7.0102">
        <ele>102.291363</ele>
        <time>2020-08-02T09:35:06.707Z</time>
      </trkpt>
      <trkpt lat="62.72976" lon="7.01042">
        <ele>103.208457</ele>
        <time>2020-08-02T09:35:12.679Z</time>
      </trkpt>
      <trkpt lat="62.72977" lon="7.01062">
        <ele>104.05765</ele>
        <time>2020-08-02T09:35:17.668Z</time>
      </trkpt>
      <trkpt lat="62.72978" lon="7.01084">
        <ele>104.988125</ele>
        <time>2020-08-02T09:35:23.692Z</time>
      </trkpt>
      <trkpt lat="62.7298" lon="7.01103">
        <ele>105.8236</ele>
        <time>2020-08-02T09:35:28.665Z</time>
      </trkpt>
      <trkpt lat="62.72981" lon="7.01123">
        <ele>106.681235</ele>
        <time>2020-08-02T09:35:34.678Z</time>
      </trkpt>
      <trkpt lat="62.72981" lon="7.01146">
        <ele>107.626762</ele>
        <time>2020-08-02T09:35:40.693Z</time>
      </trkpt>
      <trkpt lat="62.72981" lon="7.01167">
        <ele>108.287986</ele>
        <time>2020-08-02T09:35:45.693Z</time>
      </trkpt>
      <trkpt lat="62.72983" lon="7.01187">
        <ele>108.776211</ele>
        <time>2020-08-02T09:35:50.655Z</time>
      </trkpt>
      <trkpt lat="62.72985" lon="7.01207">
        <ele>109.248315</ele>
        <time>2020-08-02T09:35:55.675Z</time>
      </trkpt>
      <trkpt lat="62.72986" lon="7.01227">
        <ele>109.700692</ele>
        <time>2020-08-02T09:35:59.658Z</time>
      </trkpt>
      <trkpt lat="62.72986" lon="7.0125">
        <ele>110.228798</ele>
        <time>2020-08-02T09:36:04.678Z</time>
      </trkpt>
      <trkpt lat="62.72994" lon="7.01264">
        <ele>110.774542</ele>
        <time>2020-08-02T09:36:09.689Z</time>
      </trkpt>
      <trkpt lat="62.73005" lon="7.01265">
        <ele>111.320634</ele>
        <time>2020-08-02T09:36:13.683Z</time>
      </trkpt>
      <trkpt lat="62.73016" lon="7.01263">
        <ele>111.887889</ele>
        <time>2020-08-02T09:36:17.653Z</time>
      </trkpt>
      <trkpt lat="62.73026" lon="7.01263">
        <ele>112.368145</ele>
        <time>2020-08-02T09:36:20.726Z</time>
      </trkpt>
      <trkpt lat="62.73036" lon="7.01263">
        <ele>112.89913</ele>
        <time>2020-08-02T09:36:23.663Z</time>
      </trkpt>
      <trkpt lat="62.73046" lon="7.01263">
        <ele>113.404705</ele>
        <time>2020-08-02T09:36:26.667Z</time>
      </trkpt>
      <trkpt lat="62.73058" lon="7.01261">
        <ele>113.988712</ele>
        <time>2020-08-02T09:36:30.652Z</time>
      </trkpt>
      <trkpt lat="62.7307" lon="7.01258">
        <ele>114.602518</ele>
        <time>2020-08-02T09:36:34.658Z</time>
      </trkpt>
      <trkpt lat="62.73079" lon="7.01257">
        <ele>115.068899</ele>
        <time>2020-08-02T09:36:37.669Z</time>
      </trkpt>
      <trkpt lat="62.73088" lon="7.01255">
        <ele>115.542314</ele>
        <time>2020-08-02T09:36:40.663Z</time>
      </trkpt>
      <trkpt lat="62.73099" lon="7.01252">
        <ele>116.100723</ele>
        <time>2020-08-02T09:36:43.674Z</time>
      </trkpt>
      <trkpt lat="62.73111" lon="7.01248">
        <ele>116.696735</ele>
        <time>2020-08-02T09:36:46.708Z</time>
      </trkpt>
      <trkpt lat="62.73123" lon="7.0124">
        <ele>116.825437</ele>
        <time>2020-08-02T09:36:49.659Z</time>
      </trkpt>
      <trkpt lat="62.73135" lon="7.01228">
        <ele>116.137398</ele>
        <time>2020-08-02T09:36:52.660Z</time>
      </trkpt>
      <trkpt lat="62.73143" lon="7.01217">
        <ele>115.630619</ele>
        <time>2020-08-02T09:36:54.668Z</time>
      </trkpt>
      <trkpt lat="62.73153" lon="7.01203">
        <ele>115.04536</ele>
        <time>2020-08-02T09:36:56.690Z</time>
      </trkpt>
      <trkpt lat="62.73161" lon="7.01186">
        <ele>114.431023</ele>
        <time>2020-08-02T09:36:58.668Z</time>
      </trkpt>
      <trkpt lat="62.7317" lon="7.01165">
        <ele>113.768025</ele>
        <time>2020-08-02T09:37:00.676Z</time>
      </trkpt>
      <trkpt lat="62.73179" lon="7.01142">
        <ele>113.023917</ele>
        <time>2020-08-02T09:37:02.655Z</time>
      </trkpt>
      <trkpt lat="62.73188" lon="7.01118">
        <ele>112.304123</ele>
        <time>2020-08-02T09:37:04.669Z</time>
      </trkpt>
      <trkpt lat="62.73197" lon="7.01092">
        <ele>111.512959</ele>
        <time>2020-08-02T09:37:06.688Z</time>
      </trkpt>
      <trkpt lat="62.73206" lon="7.01062">
        <ele>110.651881</ele>
        <time>2020-08-02T09:37:08.672Z</time>
      </trkpt>
      <trkpt lat="62.73215" lon="7.01029">
        <ele>109.736585</ele>
        <time>2020-08-02T09:37:10.683Z</time>
      </trkpt>
      <trkpt lat="62.7322" lon="7.01012">
        <ele>109.252723</ele>
        <time>2020-08-02T09:37:11.684Z</time>
      </trkpt>
      <trkpt lat="62.73225" lon="7.00994">
        <ele>108.767592</ele>
        <time>2020-08-02T09:37:12.672Z</time>
      </trkpt>
      <trkpt lat="62.73234" lon="7.00961">
        <ele>107.858358</ele>
        <time>2020-08-02T09:37:14.654Z</time>
      </trkpt>
      <trkpt lat="62.7324" lon="7.0093">
        <ele>106.904835</ele>
        <time>2020-08-02T09:37:16.682Z</time>
      </trkpt>
      <trkpt lat="62.73246" lon="7.00902">
        <ele>106.013028</ele>
        <time>2020-08-02T09:37:18.674Z</time>
      </trkpt>
      <trkpt lat="62.7325" lon="7.00875">
        <ele>105.203055</ele>
        <time>2020-08-02T09:37:20.696Z</time>
      </trkpt>
      <trkpt lat="62.73252" lon="7.00849">
        <ele>104.442832</ele>
        <time>2020-08-02T09:37:22.689Z</time>
      </trkpt>
      <trkpt lat="62.73253" lon="7.00825">
        <ele>103.721493</ele>
        <time>2020-08-02T09:37:24.671Z</time>
      </trkpt>
      <trkpt lat="62.73255" lon="7.00801">
        <ele>103.028079</ele>
        <time>2020-08-02T09:37:26.658Z</time>
      </trkpt>
      <trkpt lat="62.73256" lon="7.00779">
        <ele>102.368153</ele>
        <time>2020-08-02T09:37:28.660Z</time>
      </trkpt>
      <trkpt lat="62.73257" lon="7.00757">
        <ele>101.724512</ele>
        <time>2020-08-02T09:37:30.681Z</time>
      </trkpt>
      <trkpt lat="62.73259" lon="7.00734">
        <ele>101.06581</ele>
        <time>2020-08-02T09:37:32.666Z</time>
      </trkpt>
      <trkpt lat="62.7326" lon="7.00712">
        <ele>100.425054</ele>
        <time>2020-08-02T09:37:34.687Z</time>
      </trkpt>
      <trkpt lat="62.7326" lon="7.00689">
        <ele>99.771435</ele>
        <time>2020-08-02T09:37:36.678Z</time>
      </trkpt>
      <trkpt lat="62.73261" lon="7.00666">
        <ele>99.100466</ele>
        <time>2020-08-02T09:37:38.682Z</time>
      </trkpt>
      <trkpt lat="62.73262" lon="7.00644">
        <ele>98.461305</ele>
        <time>2020-08-02T09:37:40.673Z</time>
      </trkpt>
      <trkpt lat="62.73262" lon="7.00622">
        <ele>97.822896</ele>
        <time>2020-08-02T09:37:42.678Z</time>
      </trkpt>
      <trkpt lat="62.73262" lon="7.00601">
        <ele>97.19973</ele>
        <time>2020-08-02T09:37:44.659Z</time>
      </trkpt>
      <trkpt lat="62.73262" lon="7.0058">
        <ele>96.596056</ele>
        <time>2020-08-02T09:37:46.728Z</time>
      </trkpt>
      <trkpt lat="62.73261" lon="7.00559">
        <ele>96.308792</ele>
        <time>2020-08-02T09:37:48.685Z</time>
      </trkpt>
      <trkpt lat="62.7326" lon="7.00537">
        <ele>96.248264</ele>
        <time>2020-08-02T09:37:50.668Z</time>
      </trkpt>
      <trkpt lat="62.73259" lon="7.00514">
        <ele>96.185894</ele>
        <time>2020-08-02T09:37:52.672Z</time>
      </trkpt>
      <trkpt lat="62.73257" lon="7.00491">
        <ele>96.120807</ele>
        <time>2020-08-02T09:37:54.672Z</time>
      </trkpt>
      <trkpt lat="62.73255" lon="7.00467">
        <ele>96.054194</ele>
        <time>2020-08-02T09:37:56.653Z</time>
      </trkpt>
      <trkpt lat="62.73254" lon="7.00444">
        <ele>95.989757</ele>
        <time>2020-08-02T09:37:58.683Z</time>
      </trkpt>
      <trkpt lat="62.73252" lon="7.00421">
        <ele>95.925</ele>
        <time>2020-08-02T09:38:00.676Z</time>
      </trkpt>
      <trkpt lat="62.73252" lon="7.00398">
        <ele>95.862385</ele>
        <time>2020-08-02T09:38:02.687Z</time>
      </trkpt>
      <trkpt lat="62.73251" lon="7.00375">
        <ele>95.799059</ele>
        <time>2020-08-02T09:38:04.688Z</time>
      </trkpt>
      <trkpt lat="62.7325" lon="7.00352">
        <ele>95.736669</ele>
        <time>2020-08-02T09:38:06.663Z</time>
      </trkpt>
      <trkpt lat="62.73249" lon="7.0033">
        <ele>95.674766</ele>
        <time>2020-08-02T09:38:08.667Z</time>
      </trkpt>
      <trkpt lat="62.73247" lon="7.00308">
        <ele>95.61376</ele>
        <time>2020-08-02T09:38:10.666Z</time>
      </trkpt>
      <trkpt lat="62.73246" lon="7.00286">
        <ele>95.551735</ele>
        <time>2020-08-02T09:38:12.670Z</time>
      </trkpt>
      <trkpt lat="62.73245" lon="7.00262">
        <ele>95.485829</ele>
        <time>2020-08-02T09:38:14.670Z</time>
      </trkpt>
      <trkpt lat="62.73245" lon="7.00238">
        <ele>95.419375</ele>
        <time>2020-08-02T09:38:16.665Z</time>
      </trkpt>
      <trkpt lat="62.73244" lon="7.00213">
        <ele>95.35252</ele>
        <time>2020-08-02T09:38:18.668Z</time>
      </trkpt>
      <trkpt lat="62.73245" lon="7.00188">
        <ele>95.283466</ele>
        <time>2020-08-02T09:38:20.686Z</time>
      </trkpt>
      <trkpt lat="62.73244" lon="7.00164">
        <ele>95.300552</ele>
        <time>2020-08-02T09:38:22.703Z</time>
      </trkpt>
      <trkpt lat="62.73245" lon="7.0014">
        <ele>95.350085</ele>
        <time>2020-08-02T09:38:24.675Z</time>
      </trkpt>
      <trkpt lat="62.73245" lon="7.00119">
        <ele>95.396423</ele>
        <time>2020-08-02T09:38:26.663Z</time>
      </trkpt>
      <trkpt lat="62.73244" lon="7.00098">
        <ele>95.441293</ele>
        <time>2020-08-02T09:38:28.692Z</time>
      </trkpt>
      <trkpt lat="62.73244" lon="7.00076">
        <ele>95.48753</ele>
        <time>2020-08-02T09:38:30.702Z</time>
      </trkpt>
      <trkpt lat="62.73242" lon="7.00052">
        <ele>95.539568</ele>
        <time>2020-08-02T09:38:32.666Z</time>
      </trkpt>
      <trkpt lat="62.7324" lon="7.00027">
        <ele>95.5933</ele>
        <time>2020-08-02T09:38:34.663Z</time>
      </trkpt>
      <trkpt lat="62.73238" lon="7.00001">
        <ele>95.649756</ele>
        <time>2020-08-02T09:38:36.666Z</time>
      </trkpt>
      <trkpt lat="62.73237" lon="6.99974">
        <ele>95.70651</ele>
        <time>2020-08-02T09:38:38.665Z</time>
      </trkpt>
      <trkpt lat="62.73235" lon="6.99947">
        <ele>95.765202</ele>
        <time>2020-08-02T09:38:40.651Z</time>
      </trkpt>
      <trkpt lat="62.73233" lon="6.9992">
        <ele>95.82349</ele>
        <time>2020-08-02T09:38:42.692Z</time>
      </trkpt>
      <trkpt lat="62.73232" lon="6.99892">
        <ele>95.882587</ele>
        <time>2020-08-02T09:38:44.660Z</time>
      </trkpt>
      <trkpt lat="62.7323" lon="6.99864">
        <ele>95.942053</ele>
        <time>2020-08-02T09:38:46.675Z</time>
      </trkpt>
      <trkpt lat="62.73228" lon="6.99837">
        <ele>95.999694</ele>
        <time>2020-08-02T09:38:48.650Z</time>
      </trkpt>
      <trkpt lat="62.73226" lon="6.9981">
        <ele>96.057857</ele>
        <time>2020-08-02T09:38:50.666Z</time>
      </trkpt>
      <trkpt lat="62.73224" lon="6.99785">
        <ele>96.034634</ele>
        <time>2020-08-02T09:38:52.709Z</time>
      </trkpt>
      <trkpt lat="62.73223" lon="6.99759">
        <ele>95.803841</ele>
        <time>2020-08-02T09:38:54.663Z</time>
      </trkpt>
      <trkpt lat="62.7322" lon="6.99734">
        <ele>95.576818</ele>
        <time>2020-08-02T09:38:56.667Z</time>
      </trkpt>
      <trkpt lat="62.73218" lon="6.99711">
        <ele>95.358773</ele>
        <time>2020-08-02T09:38:58.689Z</time>
      </trkpt>
      <trkpt lat="62.73216" lon="6.99686">
        <ele>95.129768</ele>
        <time>2020-08-02T09:39:00.671Z</time>
      </trkpt>
      <trkpt lat="62.73214" lon="6.9966">
        <ele>94.898985</ele>
        <time>2020-08-02T09:39:02.693Z</time>
      </trkpt>
      <trkpt lat="62.73212" lon="6.99635">
        <ele>94.670587</ele>
        <time>2020-08-02T09:39:04.706Z</time>
      </trkpt>
      <trkpt lat="62.73211" lon="6.99611">
        <ele>94.4463</ele>
        <time>2020-08-02T09:39:06.660Z</time>
      </trkpt>
      <trkpt lat="62.7321" lon="6.99586">
        <ele>94.220476</ele>
        <time>2020-08-02T09:39:08.691Z</time>
      </trkpt>
      <trkpt lat="62.73208" lon="6.99561">
        <ele>93.992671</ele>
        <time>2020-08-02T09:39:10.656Z</time>
      </trkpt>
      <trkpt lat="62.73206" lon="6.99535">
        <ele>93.755969</ele>
        <time>2020-08-02T09:39:12.659Z</time>
      </trkpt>
      <trkpt lat="62.73204" lon="6.9951">
        <ele>93.52846</ele>
        <time>2020-08-02T09:39:14.677Z</time>
      </trkpt>
      <trkpt lat="62.73203" lon="6.99484">
        <ele>93.297032</ele>
        <time>2020-08-02T09:39:16.666Z</time>
      </trkpt>
      <trkpt lat="62.73201" lon="6.99459">
        <ele>93.064951</ele>
        <time>2020-08-02T09:39:18.647Z</time>
      </trkpt>
      <trkpt lat="62.732" lon="6.99433">
        <ele>92.828164</ele>
        <time>2020-08-02T09:39:20.671Z</time>
      </trkpt>
      <trkpt lat="62.73199" lon="6.99407">
        <ele>92.595812</ele>
        <time>2020-08-02T09:39:22.697Z</time>
      </trkpt>
      <trkpt lat="62.73198" lon="6.99382">
        <ele>92.757236</ele>
        <time>2020-08-02T09:39:24.657Z</time>
      </trkpt>
      <trkpt lat="62.73197" lon="6.99357">
        <ele>92.984172</ele>
        <time>2020-08-02T09:39:26.666Z</time>
      </trkpt>
      <trkpt lat="62.73196" lon="6.99332">
        <ele>93.215514</ele>
        <time>2020-08-02T09:39:28.663Z</time>
      </trkpt>
      <trkpt lat="62.73195" lon="6.99306">
        <ele>93.449197</ele>
        <time>2020-08-02T09:39:30.662Z</time>
      </trkpt>
      <trkpt lat="62.73194" lon="6.9928">
        <ele>93.690204</ele>
        <time>2020-08-02T09:39:32.684Z</time>
      </trkpt>
      <trkpt lat="62.73192" lon="6.99254">
        <ele>93.928166</ele>
        <time>2020-08-02T09:39:34.704Z</time>
      </trkpt>
      <trkpt lat="62.73192" lon="6.99227">
        <ele>94.169019</ele>
        <time>2020-08-02T09:39:36.669Z</time>
      </trkpt>
      <trkpt lat="62.73192" lon="6.992">
        <ele>94.412839</ele>
        <time>2020-08-02T09:39:38.654Z</time>
      </trkpt>
      <trkpt lat="62.73192" lon="6.99173">
        <ele>94.656659</ele>
        <time>2020-08-02T09:39:40.679Z</time>
      </trkpt>
      <trkpt lat="62.73191" lon="6.99147">
        <ele>94.898698</ele>
        <time>2020-08-02T09:39:42.659Z</time>
      </trkpt>
      <trkpt lat="62.73191" lon="6.99121">
        <ele>95.128956</ele>
        <time>2020-08-02T09:39:44.670Z</time>
      </trkpt>
      <trkpt lat="62.73191" lon="6.99096">
        <ele>95.352843</ele>
        <time>2020-08-02T09:39:46.662Z</time>
      </trkpt>
      <trkpt lat="62.73191" lon="6.99074">
        <ele>95.557774</ele>
        <time>2020-08-02T09:39:48.656Z</time>
      </trkpt>
      <trkpt lat="62.7319" lon="6.99053">
        <ele>95.751089</ele>
        <time>2020-08-02T09:39:50.658Z</time>
      </trkpt>
      <trkpt lat="62.7319" lon="6.99031">
        <ele>95.944191</ele>
        <time>2020-08-02T09:39:52.668Z</time>
      </trkpt>
      <trkpt lat="62.7319" lon="6.99009">
        <ele>96.14659</ele>
        <time>2020-08-02T09:39:54.655Z</time>
      </trkpt>
      <trkpt lat="62.7319" lon="6.98986">
        <ele>96.36362</ele>
        <time>2020-08-02T09:39:56.698Z</time>
      </trkpt>
      <trkpt lat="62.7319" lon="6.98965">
        <ele>96.568276</ele>
        <time>2020-08-02T09:39:58.689Z</time>
      </trkpt>
      <trkpt lat="62.7319" lon="6.98945">
        <ele>96.758746</ele>
        <time>2020-08-02T09:40:00.666Z</time>
      </trkpt>
      <trkpt lat="62.73189" lon="6.98918">
        <ele>97.015878</ele>
        <time>2020-08-02T09:40:03.657Z</time>
      </trkpt>
      <trkpt lat="62.73188" lon="6.98895">
        <ele>97.231485</ele>
        <time>2020-08-02T09:40:06.652Z</time>
      </trkpt>
      <trkpt lat="62.73188" lon="6.98874">
        <ele>97.435697</ele>
        <time>2020-08-02T09:40:09.676Z</time>
      </trkpt>
      <trkpt lat="62.73187" lon="6.98852">
        <ele>97.646218</ele>
        <time>2020-08-02T09:40:12.709Z</time>
      </trkpt>
      <trkpt lat="62.73187" lon="6.98828">
        <ele>97.87467</ele>
        <time>2020-08-02T09:40:15.658Z</time>
      </trkpt>
      <trkpt lat="62.73187" lon="6.98804">
        <ele>98.102624</ele>
        <time>2020-08-02T09:40:18.664Z</time>
      </trkpt>
      <trkpt lat="62.73186" lon="6.9878">
        <ele>98.327268</ele>
        <time>2020-08-02T09:40:21.650Z</time>
      </trkpt>
      <trkpt lat="62.73186" lon="6.98758">
        <ele>98.537332</ele>
        <time>2020-08-02T09:40:24.671Z</time>
      </trkpt>
      <trkpt lat="62.73185" lon="6.98736">
        <ele>98.750415</ele>
        <time>2020-08-02T09:40:27.654Z</time>
      </trkpt>
      <trkpt lat="62.73184" lon="6.98712">
        <ele>98.98091</ele>
        <time>2020-08-02T09:40:30.671Z</time>
      </trkpt>
      <trkpt lat="62.73184" lon="6.98689">
        <ele>99.197068</ele>
        <time>2020-08-02T09:40:33.668Z</time>
      </trkpt>
      <trkpt lat="62.73184" lon="6.98667">
        <ele>99.409583</ele>
        <time>2020-08-02T09:40:36.658Z</time>
      </trkpt>
      <trkpt lat="62.73184" lon="6.98643">
        <ele>99.631363</ele>
        <time>2020-08-02T09:40:39.667Z</time>
      </trkpt>
      <trkpt lat="62.73184" lon="6.9862">
        <ele>99.85219</ele>
        <time>2020-08-02T09:40:42.673Z</time>
      </trkpt>
      <trkpt lat="62.73184" lon="6.98598">
        <ele>99.980553</ele>
        <time>2020-08-02T09:40:45.652Z</time>
      </trkpt>
      <trkpt lat="62.73185" lon="6.98576">
        <ele>100.103251</ele>
        <time>2020-08-02T09:40:48.669Z</time>
      </trkpt>
      <trkpt lat="62.73188" lon="6.98553">
        <ele>100.231981</ele>
        <time>2020-08-02T09:40:51.654Z</time>
      </trkpt>
      <trkpt lat="62.73192" lon="6.98531">
        <ele>100.362632</ele>
        <time>2020-08-02T09:40:54.666Z</time>
      </trkpt>
      <trkpt lat="62.73198" lon="6.98511">
        <ele>100.497158</ele>
        <time>2020-08-02T09:40:57.669Z</time>
      </trkpt>
      <trkpt lat="62.73205" lon="6.9849">
        <ele>100.647378</ele>
        <time>2020-08-02T09:41:00.672Z</time>
      </trkpt>
      <trkpt lat="62.73216" lon="6.98472">
        <ele>100.804653</ele>
        <time>2020-08-02T09:41:03.659Z</time>
      </trkpt>
      <trkpt lat="62.73224" lon="6.98462">
        <ele>100.923639</ele>
        <time>2020-08-02T09:41:05.656Z</time>
      </trkpt>
      <trkpt lat="62.73234" lon="6.98455">
        <ele>101.051417</ele>
        <time>2020-08-02T09:41:07.650Z</time>
      </trkpt>
      <trkpt lat="62.73245" lon="6.98452">
        <ele>101.184583</ele>
        <time>2020-08-02T09:41:09.661Z</time>
      </trkpt>
      <trkpt lat="62.73257" lon="6.98453">
        <ele>101.320308</ele>
        <time>2020-08-02T09:41:11.652Z</time>
      </trkpt>
      <trkpt lat="62.73268" lon="6.98458">
        <ele>101.464797</ele>
        <time>2020-08-02T09:41:13.677Z</time>
      </trkpt>
      <trkpt lat="62.7328" lon="6.98467">
        <ele>101.61131</ele>
        <time>2020-08-02T09:41:15.690Z</time>
      </trkpt>
      <trkpt lat="62.73291" lon="6.98479">
        <ele>101.762421</ele>
        <time>2020-08-02T09:41:17.677Z</time>
      </trkpt>
      <trkpt lat="62.73302" lon="6.98493">
        <ele>101.920439</ele>
        <time>2020-08-02T09:41:19.649Z</time>
      </trkpt>
      <trkpt lat="62.73314" lon="6.98508">
        <ele>101.754837</ele>
        <time>2020-08-02T09:41:21.666Z</time>
      </trkpt>
      <trkpt lat="62.73326" lon="6.98525">
        <ele>100.80631</ele>
        <time>2020-08-02T09:41:23.688Z</time>
      </trkpt>
      <trkpt lat="62.73339" lon="6.98542">
        <ele>99.852822</ele>
        <time>2020-08-02T09:41:25.668Z</time>
      </trkpt>
      <trkpt lat="62.73351" lon="6.98557">
        <ele>98.922663</ele>
        <time>2020-08-02T09:41:27.702Z</time>
      </trkpt>
      <trkpt lat="62.73364" lon="6.9857">
        <ele>97.970294</ele>
        <time>2020-08-02T09:41:29.675Z</time>
      </trkpt>
      <trkpt lat="62.73378" lon="6.98584">
        <ele>96.975691</ele>
        <time>2020-08-02T09:41:31.660Z</time>
      </trkpt>
      <trkpt lat="62.73391" lon="6.98596">
        <ele>96.01597</ele>
        <time>2020-08-02T09:41:33.672Z</time>
      </trkpt>
      <trkpt lat="62.73405" lon="6.98606">
        <ele>95.074375</ele>
        <time>2020-08-02T09:41:35.664Z</time>
      </trkpt>
      <trkpt lat="62.73418" lon="6.98615">
        <ele>94.150665</ele>
        <time>2020-08-02T09:41:37.697Z</time>
      </trkpt>
      <trkpt lat="62.73431" lon="6.98622">
        <ele>93.25944</ele>
        <time>2020-08-02T09:41:39.650Z</time>
      </trkpt>
      <trkpt lat="62.73444" lon="6.98629">
        <ele>92.380219</ele>
        <time>2020-08-02T09:41:41.675Z</time>
      </trkpt>
      <trkpt lat="62.73457" lon="6.98636">
        <ele>91.528137</ele>
        <time>2020-08-02T09:41:43.676Z</time>
      </trkpt>
      <trkpt lat="62.73469" lon="6.98643">
        <ele>90.689471</ele>
        <time>2020-08-02T09:41:45.654Z</time>
      </trkpt>
      <trkpt lat="62.73481" lon="6.98649">
        <ele>89.988308</ele>
        <time>2020-08-02T09:41:47.669Z</time>
      </trkpt>
      <trkpt lat="62.73493" lon="6.98655">
        <ele>89.486048</ele>
        <time>2020-08-02T09:41:49.670Z</time>
      </trkpt>
      <trkpt lat="62.73504" lon="6.98661">
        <ele>89.001353</ele>
        <time>2020-08-02T09:41:51.654Z</time>
      </trkpt>
      <trkpt lat="62.73514" lon="6.98666">
        <ele>88.55495</ele>
        <time>2020-08-02T09:41:53.655Z</time>
      </trkpt>
      <trkpt lat="62.73525" lon="6.98671">
        <ele>88.120065</ele>
        <time>2020-08-02T09:41:55.655Z</time>
      </trkpt>
      <trkpt lat="62.73535" lon="6.98677">
        <ele>87.689861</ele>
        <time>2020-08-02T09:41:57.664Z</time>
      </trkpt>
      <trkpt lat="62.73545" lon="6.98682">
        <ele>87.242543</ele>
        <time>2020-08-02T09:41:59.700Z</time>
      </trkpt>
      <trkpt lat="62.73556" lon="6.98688">
        <ele>86.78976</ele>
        <time>2020-08-02T09:42:01.677Z</time>
      </trkpt>
      <trkpt lat="62.73566" lon="6.98695">
        <ele>86.317881</ele>
        <time>2020-08-02T09:42:03.664Z</time>
      </trkpt>
      <trkpt lat="62.73577" lon="6.98702">
        <ele>85.837703</ele>
        <time>2020-08-02T09:42:05.678Z</time>
      </trkpt>
      <trkpt lat="62.73589" lon="6.9871">
        <ele>85.316461</ele>
        <time>2020-08-02T09:42:07.685Z</time>
      </trkpt>
      <trkpt lat="62.73602" lon="6.98719">
        <ele>84.758251</ele>
        <time>2020-08-02T09:42:09.717Z</time>
      </trkpt>
      <trkpt lat="62.73615" lon="6.98729">
        <ele>84.171433</ele>
        <time>2020-08-02T09:42:11.657Z</time>
      </trkpt>
      <trkpt lat="62.7363" lon="6.98738">
        <ele>83.551636</ele>
        <time>2020-08-02T09:42:13.649Z</time>
      </trkpt>
      <trkpt lat="62.73644" lon="6.98748">
        <ele>82.918981</ele>
        <time>2020-08-02T09:42:15.671Z</time>
      </trkpt>
      <trkpt lat="62.73659" lon="6.98758">
        <ele>82.530079</ele>
        <time>2020-08-02T09:42:17.668Z</time>
      </trkpt>
      <trkpt lat="62.73673" lon="6.98768">
        <ele>82.294383</ele>
        <time>2020-08-02T09:42:19.674Z</time>
      </trkpt>
      <trkpt lat="62.73687" lon="6.98778">
        <ele>82.071614</ele>
        <time>2020-08-02T09:42:21.663Z</time>
      </trkpt>
      <trkpt lat="62.73701" lon="6.98789">
        <ele>81.840539</ele>
        <time>2020-08-02T09:42:23.670Z</time>
      </trkpt>
      <trkpt lat="62.73715" lon="6.98799">
        <ele>81.613165</ele>
        <time>2020-08-02T09:42:25.671Z</time>
      </trkpt>
      <trkpt lat="62.73729" lon="6.9881">
        <ele>81.379722</ele>
        <time>2020-08-02T09:42:27.675Z</time>
      </trkpt>
      <trkpt lat="62.73744" lon="6.98821">
        <ele>81.142434</ele>
        <time>2020-08-02T09:42:29.656Z</time>
      </trkpt>
      <trkpt lat="62.73759" lon="6.98832">
        <ele>80.90246</ele>
        <time>2020-08-02T09:42:31.653Z</time>
      </trkpt>
      <trkpt lat="62.73773" lon="6.98843">
        <ele>80.660332</ele>
        <time>2020-08-02T09:42:33.679Z</time>
      </trkpt>
      <trkpt lat="62.73788" lon="6.98855">
        <ele>80.415321</ele>
        <time>2020-08-02T09:42:35.666Z</time>
      </trkpt>
      <trkpt lat="62.73803" lon="6.98866">
        <ele>80.180063</ele>
        <time>2020-08-02T09:42:37.659Z</time>
      </trkpt>
      <trkpt lat="62.73817" lon="6.98876">
        <ele>79.948765</ele>
        <time>2020-08-02T09:42:39.677Z</time>
      </trkpt>
      <trkpt lat="62.7383" lon="6.98886">
        <ele>79.958739</ele>
        <time>2020-08-02T09:42:41.670Z</time>
      </trkpt>
      <trkpt lat="62.73844" lon="6.98896">
        <ele>80.034083</ele>
        <time>2020-08-02T09:42:43.676Z</time>
      </trkpt>
      <trkpt lat="62.73856" lon="6.98906">
        <ele>80.107375</ele>
        <time>2020-08-02T09:42:45.672Z</time>
      </trkpt>
      <trkpt lat="62.73869" lon="6.98915">
        <ele>80.177518</ele>
        <time>2020-08-02T09:42:47.665Z</time>
      </trkpt>
      <trkpt lat="62.7388" lon="6.98924">
        <ele>80.243858</ele>
        <time>2020-08-02T09:42:49.678Z</time>
      </trkpt>
      <trkpt lat="62.73892" lon="6.98932">
        <ele>80.308422</ele>
        <time>2020-08-02T09:42:51.668Z</time>
      </trkpt>
      <trkpt lat="62.73903" lon="6.9894">
        <ele>80.373116</ele>
        <time>2020-08-02T09:42:53.660Z</time>
      </trkpt>
      <trkpt lat="62.73914" lon="6.98948">
        <ele>80.438272</ele>
        <time>2020-08-02T09:42:55.655Z</time>
      </trkpt>
      <trkpt lat="62.73926" lon="6.98956">
        <ele>80.502164</ele>
        <time>2020-08-02T09:42:57.691Z</time>
      </trkpt>
      <trkpt lat="62.73937" lon="6.98965">
        <ele>80.566295</ele>
        <time>2020-08-02T09:42:59.667Z</time>
      </trkpt>
      <trkpt lat="62.73948" lon="6.98973">
        <ele>80.629651</ele>
        <time>2020-08-02T09:43:01.675Z</time>
      </trkpt>
      <trkpt lat="62.73959" lon="6.98983">
        <ele>80.692935</ele>
        <time>2020-08-02T09:43:03.666Z</time>
      </trkpt>
      <trkpt lat="62.7397" lon="6.98991">
        <ele>80.757479</ele>
        <time>2020-08-02T09:43:05.684Z</time>
      </trkpt>
      <trkpt lat="62.73981" lon="6.99001">
        <ele>80.821952</ele>
        <time>2020-08-02T09:43:07.675Z</time>
      </trkpt>
      <trkpt lat="62.73991" lon="6.99011">
        <ele>80.927426</ele>
        <time>2020-08-02T09:43:09.671Z</time>
      </trkpt>
      <trkpt lat="62.74002" lon="6.99021">
        <ele>81.224961</ele>
        <time>2020-08-02T09:43:11.682Z</time>
      </trkpt>
      <trkpt lat="62.74011" lon="6.99032">
        <ele>81.510095</ele>
        <time>2020-08-02T09:43:13.663Z</time>
      </trkpt>
      <trkpt lat="62.74021" lon="6.99042">
        <ele>81.794134</ele>
        <time>2020-08-02T09:43:15.703Z</time>
      </trkpt>
      <trkpt lat="62.74031" lon="6.99053">
        <ele>82.092855</ele>
        <time>2020-08-02T09:43:17.647Z</time>
      </trkpt>
      <trkpt lat="62.74041" lon="6.99065">
        <ele>82.396473</ele>
        <time>2020-08-02T09:43:19.737Z</time>
      </trkpt>
      <trkpt lat="62.74052" lon="6.99076">
        <ele>82.697761</ele>
        <time>2020-08-02T09:43:21.664Z</time>
      </trkpt>
      <trkpt lat="62.74061" lon="6.99088">
        <ele>82.989241</ele>
        <time>2020-08-02T09:43:23.669Z</time>
      </trkpt>
      <trkpt lat="62.74071" lon="6.99098">
        <ele>83.270923</ele>
        <time>2020-08-02T09:43:25.700Z</time>
      </trkpt>
      <trkpt lat="62.7408" lon="6.99109">
        <ele>83.536358</ele>
        <time>2020-08-02T09:43:27.658Z</time>
      </trkpt>
      <trkpt lat="62.74088" lon="6.99118">
        <ele>83.792685</ele>
        <time>2020-08-02T09:43:29.655Z</time>
      </trkpt>
      <trkpt lat="62.74098" lon="6.99128">
        <ele>84.065327</ele>
        <time>2020-08-02T09:43:31.691Z</time>
      </trkpt>
      <trkpt lat="62.74107" lon="6.99137">
        <ele>84.33248</ele>
        <time>2020-08-02T09:43:33.691Z</time>
      </trkpt>
      <trkpt lat="62.74116" lon="6.99146">
        <ele>84.599569</ele>
        <time>2020-08-02T09:43:35.658Z</time>
      </trkpt>
      <trkpt lat="62.74126" lon="6.99155">
        <ele>84.883229</ele>
        <time>2020-08-02T09:43:37.666Z</time>
      </trkpt>
      <trkpt lat="62.74136" lon="6.99162">
        <ele>85.160698</ele>
        <time>2020-08-02T09:43:39.678Z</time>
      </trkpt>
      <trkpt lat="62.74146" lon="6.99169">
        <ele>85.438166</ele>
        <time>2020-08-02T09:43:41.672Z</time>
      </trkpt>
      <trkpt lat="62.74156" lon="6.99175">
        <ele>85.646083</ele>
        <time>2020-08-02T09:43:43.687Z</time>
      </trkpt>
      <trkpt lat="62.74166" lon="6.99179">
        <ele>85.74369</ele>
        <time>2020-08-02T09:43:45.650Z</time>
      </trkpt>
      <trkpt lat="62.74176" lon="6.99184">
        <ele>85.846387</ele>
        <time>2020-08-02T09:43:47.655Z</time>
      </trkpt>
      <trkpt lat="62.74187" lon="6.99189">
        <ele>85.953316</ele>
        <time>2020-08-02T09:43:49.664Z</time>
      </trkpt>
      <trkpt lat="62.74198" lon="6.99195">
        <ele>86.065227</ele>
        <time>2020-08-02T09:43:51.671Z</time>
      </trkpt>
      <trkpt lat="62.74209" lon="6.99201">
        <ele>86.178301</ele>
        <time>2020-08-02T09:43:53.666Z</time>
      </trkpt>
      <trkpt lat="62.7422" lon="6.99206">
        <ele>86.292023</ele>
        <time>2020-08-02T09:43:55.686Z</time>
      </trkpt>
      <trkpt lat="62.74232" lon="6.99211">
        <ele>86.406053</ele>
        <time>2020-08-02T09:43:57.658Z</time>
      </trkpt>
      <trkpt lat="62.74243" lon="6.99217">
        <ele>86.525525</ele>
        <time>2020-08-02T09:43:59.690Z</time>
      </trkpt>
      <trkpt lat="62.74255" lon="6.99221">
        <ele>86.636087</ele>
        <time>2020-08-02T09:44:01.674Z</time>
      </trkpt>
      <trkpt lat="62.74265" lon="6.99225">
        <ele>86.74047</ele>
        <time>2020-08-02T09:44:03.666Z</time>
      </trkpt>
      <trkpt lat="62.74276" lon="6.99229">
        <ele>86.848294</ele>
        <time>2020-08-02T09:44:05.667Z</time>
      </trkpt>
      <trkpt lat="62.74287" lon="6.99233">
        <ele>86.955878</ele>
        <time>2020-08-02T09:44:07.655Z</time>
      </trkpt>
      <trkpt lat="62.74297" lon="6.99237">
        <ele>87.056463</ele>
        <time>2020-08-02T09:44:09.680Z</time>
      </trkpt>
      <trkpt lat="62.74306" lon="6.99241">
        <ele>87.153344</ele>
        <time>2020-08-02T09:44:11.657Z</time>
      </trkpt>
      <trkpt lat="62.74316" lon="6.99245">
        <ele>87.250143</ele>
        <time>2020-08-02T09:44:13.649Z</time>
      </trkpt>
      <trkpt lat="62.74326" lon="6.99249">
        <ele>87.344048</ele>
        <time>2020-08-02T09:44:15.698Z</time>
      </trkpt>
      <trkpt lat="62.74335" lon="6.99253">
        <ele>87.483873</ele>
        <time>2020-08-02T09:44:17.657Z</time>
      </trkpt>
      <trkpt lat="62.74345" lon="6.99257">
        <ele>87.652709</ele>
        <time>2020-08-02T09:44:19.645Z</time>
      </trkpt>
      <trkpt lat="62.74355" lon="6.99262">
        <ele>87.820343</ele>
        <time>2020-08-02T09:44:21.681Z</time>
      </trkpt>
      <trkpt lat="62.74365" lon="6.99267">
        <ele>87.98281</ele>
        <time>2020-08-02T09:44:23.682Z</time>
      </trkpt>
      <trkpt lat="62.74374" lon="6.99271">
        <ele>88.142959</ele>
        <time>2020-08-02T09:44:25.681Z</time>
      </trkpt>
      <trkpt lat="62.74386" lon="6.99281">
        <ele>88.36145</ele>
        <time>2020-08-02T09:44:28.685Z</time>
      </trkpt>
      <trkpt lat="62.74398" lon="6.99293">
        <ele>88.571624</ele>
        <time>2020-08-02T09:44:31.674Z</time>
      </trkpt>
      <trkpt lat="62.74408" lon="6.99308">
        <ele>88.775007</ele>
        <time>2020-08-02T09:44:34.662Z</time>
      </trkpt>
      <trkpt lat="62.74417" lon="6.99323">
        <ele>88.969258</ele>
        <time>2020-08-02T09:44:37.687Z</time>
      </trkpt>
      <trkpt lat="62.74426" lon="6.99339">
        <ele>89.157631</ele>
        <time>2020-08-02T09:44:40.649Z</time>
      </trkpt>
      <trkpt lat="62.74433" lon="6.99355">
        <ele>89.332192</ele>
        <time>2020-08-02T09:44:43.663Z</time>
      </trkpt>
      <trkpt lat="62.7444" lon="6.9937">
        <ele>89.489134</ele>
        <time>2020-08-02T09:44:46.667Z</time>
      </trkpt>
      <trkpt lat="62.74447" lon="6.99385">
        <ele>89.653484</ele>
        <time>2020-08-02T09:44:49.662Z</time>
      </trkpt>
      <trkpt lat="62.74454" lon="6.99401">
        <ele>89.819528</ele>
        <time>2020-08-02T09:44:52.703Z</time>
      </trkpt>
      <trkpt lat="62.7446" lon="6.99418">
        <ele>89.981992</ele>
        <time>2020-08-02T09:44:55.658Z</time>
      </trkpt>
      <trkpt lat="62.74466" lon="6.99434">
        <ele>90.136763</ele>
        <time>2020-08-02T09:44:58.677Z</time>
      </trkpt>
      <trkpt lat="62.74473" lon="6.99451">
        <ele>90.319696</ele>
        <time>2020-08-02T09:45:02.662Z</time>
      </trkpt>
      <trkpt lat="62.74481" lon="6.99467">
        <ele>90.862173</ele>
        <time>2020-08-02T09:45:06.653Z</time>
      </trkpt>
      <trkpt lat="62.74489" lon="6.99483">
        <ele>91.508395</ele>
        <time>2020-08-02T09:45:10.665Z</time>
      </trkpt>
      <trkpt lat="62.74497" lon="6.99498">
        <ele>92.153928</ele>
        <time>2020-08-02T09:45:14.672Z</time>
      </trkpt>
      <trkpt lat="62.74505" lon="6.99512">
        <ele>92.816388</ele>
        <time>2020-08-02T09:45:19.696Z</time>
      </trkpt>
      <trkpt lat="62.74513" lon="6.99525">
        <ele>93.404424</ele>
        <time>2020-08-02T09:45:23.669Z</time>
      </trkpt>
      <trkpt lat="62.7452" lon="6.99538">
        <ele>93.987315</ele>
        <time>2020-08-02T09:45:27.674Z</time>
      </trkpt>
      <trkpt lat="62.74528" lon="6.99549">
        <ele>94.604404</ele>
        <time>2020-08-02T09:45:31.690Z</time>
      </trkpt>
      <trkpt lat="62.74537" lon="6.99561">
        <ele>95.212303</ele>
        <time>2020-08-02T09:45:35.709Z</time>
      </trkpt>
      <trkpt lat="62.74545" lon="6.99573">
        <ele>95.82154</ele>
        <time>2020-08-02T09:45:39.678Z</time>
      </trkpt>
      <trkpt lat="62.74554" lon="6.99583">
        <ele>96.451986</ele>
        <time>2020-08-02T09:45:44.670Z</time>
      </trkpt>
      <trkpt lat="62.74563" lon="6.99593">
        <ele>97.096342</ele>
        <time>2020-08-02T09:45:49.686Z</time>
      </trkpt>
      <trkpt lat="62.74572" lon="6.99603">
        <ele>97.74498</ele>
        <time>2020-08-02T09:45:54.688Z</time>
      </trkpt>
      <trkpt lat="62.74582" lon="6.99613">
        <ele>98.368263</ele>
        <time>2020-08-02T09:45:58.659Z</time>
      </trkpt>
      <trkpt lat="62.74591" lon="6.99622">
        <ele>99.00721</ele>
        <time>2020-08-02T09:46:02.669Z</time>
      </trkpt>
      <trkpt lat="62.746" lon="6.99631">
        <ele>99.6166</ele>
        <time>2020-08-02T09:46:06.699Z</time>
      </trkpt>
      <trkpt lat="62.74609" lon="6.99637">
        <ele>100.184104</ele>
        <time>2020-08-02T09:46:10.703Z</time>
      </trkpt>
      <trkpt lat="62.74617" lon="6.99643">
        <ele>100.738963</ele>
        <time>2020-08-02T09:46:14.669Z</time>
      </trkpt>
      <trkpt lat="62.74628" lon="6.9965">
        <ele>101.419523</ele>
        <time>2020-08-02T09:46:18.647Z</time>
      </trkpt>
      <trkpt lat="62.74637" lon="6.99655">
        <ele>101.716521</ele>
        <time>2020-08-02T09:46:22.668Z</time>
      </trkpt>
      <trkpt lat="62.74648" lon="6.99658">
        <ele>102.017177</ele>
        <time>2020-08-02T09:46:27.673Z</time>
      </trkpt>
      <trkpt lat="62.74657" lon="6.9966">
        <ele>102.268629</ele>
        <time>2020-08-02T09:46:31.707Z</time>
      </trkpt>
      <trkpt lat="62.74667" lon="6.99663">
        <ele>102.543661</ele>
        <time>2020-08-02T09:46:35.685Z</time>
      </trkpt>
      <trkpt lat="62.74677" lon="6.99664">
        <ele>102.809986</ele>
        <time>2020-08-02T09:46:39.662Z</time>
      </trkpt>
      <trkpt lat="62.74686" lon="6.99665">
        <ele>103.057611</ele>
        <time>2020-08-02T09:46:43.643Z</time>
      </trkpt>
      <trkpt lat="62.74697" lon="6.99666">
        <ele>103.334897</ele>
        <time>2020-08-02T09:46:47.667Z</time>
      </trkpt>
      <trkpt lat="62.74708" lon="6.99666">
        <ele>103.636116</ele>
        <time>2020-08-02T09:46:51.667Z</time>
      </trkpt>
      <trkpt lat="62.74717" lon="6.99664">
        <ele>103.89515</ele>
        <time>2020-08-02T09:46:54.677Z</time>
      </trkpt>
      <trkpt lat="62.74727" lon="6.99661">
        <ele>104.160961</ele>
        <time>2020-08-02T09:46:57.654Z</time>
      </trkpt>
      <trkpt lat="62.74737" lon="6.99659">
        <ele>104.426044</ele>
        <time>2020-08-02T09:47:00.683Z</time>
      </trkpt>
      <trkpt lat="62.74748" lon="6.99658">
        <ele>104.714193</ele>
        <time>2020-08-02T09:47:03.676Z</time>
      </trkpt>
      <trkpt lat="62.74758" lon="6.99655">
        <ele>105.003877</ele>
        <time>2020-08-02T09:47:06.673Z</time>
      </trkpt>
      <trkpt lat="62.7477" lon="6.99652">
        <ele>105.320562</ele>
        <time>2020-08-02T09:47:09.662Z</time>
      </trkpt>
      <trkpt lat="62.74782" lon="6.99648">
        <ele>105.647032</ele>
        <time>2020-08-02T09:47:12.656Z</time>
      </trkpt>
      <trkpt lat="62.74795" lon="6.99644">
        <ele>105.995145</ele>
        <time>2020-08-02T09:47:15.695Z</time>
      </trkpt>
      <trkpt lat="62.74804" lon="6.99639">
        <ele>106.256552</ele>
        <time>2020-08-02T09:47:17.724Z</time>
      </trkpt>
      <trkpt lat="62.74814" lon="6.99633">
        <ele>106.003881</ele>
        <time>2020-08-02T09:47:19.674Z</time>
      </trkpt>
      <trkpt lat="62.74825" lon="6.99628">
        <ele>105.492203</ele>
        <time>2020-08-02T09:47:21.653Z</time>
      </trkpt>
      <trkpt lat="62.74835" lon="6.99621">
        <ele>104.966325</ele>
        <time>2020-08-02T09:47:23.682Z</time>
      </trkpt>
      <trkpt lat="62.74846" lon="6.99616">
        <ele>104.44953</ele>
        <time>2020-08-02T09:47:25.674Z</time>
      </trkpt>
      <trkpt lat="62.74856" lon="6.99609">
        <ele>103.94066</ele>
        <time>2020-08-02T09:47:27.690Z</time>
      </trkpt>
      <trkpt lat="62.74866" lon="6.99602">
        <ele>103.427064</ele>
        <time>2020-08-02T09:47:29.703Z</time>
      </trkpt>
      <trkpt lat="62.74877" lon="6.99593">
        <ele>102.885085</ele>
        <time>2020-08-02T09:47:31.676Z</time>
      </trkpt>
      <trkpt lat="62.74888" lon="6.99585">
        <ele>102.339811</ele>
        <time>2020-08-02T09:47:33.680Z</time>
      </trkpt>
      <trkpt lat="62.74898" lon="6.99577">
        <ele>101.810626</ele>
        <time>2020-08-02T09:47:35.677Z</time>
      </trkpt>
      <trkpt lat="62.74909" lon="6.99568">
        <ele>101.262053</ele>
        <time>2020-08-02T09:47:37.693Z</time>
      </trkpt>
      <trkpt lat="62.7492" lon="6.99558">
        <ele>100.695905</ele>
        <time>2020-08-02T09:47:39.657Z</time>
      </trkpt>
      <trkpt lat="62.7493" lon="6.99548">
        <ele>100.15438</ele>
        <time>2020-08-02T09:47:41.675Z</time>
      </trkpt>
      <trkpt lat="62.7494" lon="6.99538">
        <ele>99.623338</ele>
        <time>2020-08-02T09:47:43.660Z</time>
      </trkpt>
      <trkpt lat="62.7495" lon="6.99529">
        <ele>99.108891</ele>
        <time>2020-08-02T09:47:45.675Z</time>
      </trkpt>
      <trkpt lat="62.7496" lon="6.99519">
        <ele>98.606324</ele>
        <time>2020-08-02T09:47:47.667Z</time>
      </trkpt>
      <trkpt lat="62.74969" lon="6.99509">
        <ele>98.101324</ele>
        <time>2020-08-02T09:47:49.656Z</time>
      </trkpt>
      <trkpt lat="62.74979" lon="6.995">
        <ele>97.723569</ele>
        <time>2020-08-02T09:47:51.656Z</time>
      </trkpt>
      <trkpt lat="62.74987" lon="6.99489">
        <ele>97.590924</ele>
        <time>2020-08-02T09:47:53.666Z</time>
      </trkpt>
      <trkpt lat="62.74996" lon="6.9948">
        <ele>97.464883</ele>
        <time>2020-08-02T09:47:55.692Z</time>
      </trkpt>
      <trkpt lat="62.75004" lon="6.9947">
        <ele>97.343611</ele>
        <time>2020-08-02T09:47:57.651Z</time>
      </trkpt>
      <trkpt lat="62.75015" lon="6.99457">
        <ele>97.17203</ele>
        <time>2020-08-02T09:48:00.652Z</time>
      </trkpt>
      <trkpt lat="62.75028" lon="6.99446">
        <ele>96.993884</ele>
        <time>2020-08-02T09:48:03.650Z</time>
      </trkpt>
      <trkpt lat="62.7504" lon="6.99435">
        <ele>96.821304</ele>
        <time>2020-08-02T09:48:06.667Z</time>
      </trkpt>
      <trkpt lat="62.75049" lon="6.99429">
        <ele>96.691247</ele>
        <time>2020-08-02T09:48:08.659Z</time>
      </trkpt>
      <trkpt lat="62.75059" lon="6.99423">
        <ele>96.556847</ele>
        <time>2020-08-02T09:48:10.679Z</time>
      </trkpt>
      <trkpt lat="62.75068" lon="6.99417">
        <ele>96.429351</ele>
        <time>2020-08-02T09:48:12.671Z</time>
      </trkpt>
      <trkpt lat="62.75077" lon="6.99413">
        <ele>96.303408</ele>
        <time>2020-08-02T09:48:14.676Z</time>
      </trkpt>
      <trkpt lat="62.75086" lon="6.99408">
        <ele>96.18105</ele>
        <time>2020-08-02T09:48:16.663Z</time>
      </trkpt>
      <trkpt lat="62.75099" lon="6.99401">
        <ele>96.009964</ele>
        <time>2020-08-02T09:48:19.657Z</time>
      </trkpt>
      <trkpt lat="62.75112" lon="6.99397">
        <ele>95.835077</ele>
        <time>2020-08-02T09:48:22.713Z</time>
      </trkpt>
      <trkpt lat="62.75125" lon="6.99395">
        <ele>95.65636</ele>
        <time>2020-08-02T09:48:25.660Z</time>
      </trkpt>
      <trkpt lat="62.75138" lon="6.99396">
        <ele>95.479169</ele>
        <time>2020-08-02T09:48:28.648Z</time>
      </trkpt>
      <trkpt lat="62.75147" lon="6.99398">
        <ele>95.366679</ele>
        <time>2020-08-02T09:48:30.679Z</time>
      </trkpt>
      <trkpt lat="62.75161" lon="6.99399">
        <ele>95.30071</ele>
        <time>2020-08-02T09:48:33.672Z</time>
      </trkpt>
      <trkpt lat="62.75174" lon="6.99401">
        <ele>95.236262</ele>
        <time>2020-08-02T09:48:36.676Z</time>
      </trkpt>
      <trkpt lat="62.75186" lon="6.99403">
        <ele>95.174633</ele>
        <time>2020-08-02T09:48:39.679Z</time>
      </trkpt>
      <trkpt lat="62.75199" lon="6.99406">
        <ele>95.112378</ele>
        <time>2020-08-02T09:48:42.654Z</time>
      </trkpt>
      <trkpt lat="62.75212" lon="6.99412">
        <ele>95.04616</ele>
        <time>2020-08-02T09:48:45.693Z</time>
      </trkpt>
      <trkpt lat="62.75224" lon="6.99419">
        <ele>94.982275</ele>
        <time>2020-08-02T09:48:48.660Z</time>
      </trkpt>
      <trkpt lat="62.75237" lon="6.99427">
        <ele>94.917187</ele>
        <time>2020-08-02T09:48:51.680Z</time>
      </trkpt>
      <trkpt lat="62.75245" lon="6.99434">
        <ele>94.871739</ele>
        <time>2020-08-02T09:48:53.657Z</time>
      </trkpt>
      <trkpt lat="62.75255" lon="6.99442">
        <ele>94.823426</ele>
        <time>2020-08-02T09:48:55.649Z</time>
      </trkpt>
      <trkpt lat="62.75264" lon="6.99449">
        <ele>94.775657</ele>
        <time>2020-08-02T09:48:57.655Z</time>
      </trkpt>
      <trkpt lat="62.75272" lon="6.99458">
        <ele>94.727647</ele>
        <time>2020-08-02T09:48:59.684Z</time>
      </trkpt>
      <trkpt lat="62.75281" lon="6.99467">
        <ele>94.680631</ele>
        <time>2020-08-02T09:49:01.693Z</time>
      </trkpt>
      <trkpt lat="62.7529" lon="6.99476">
        <ele>94.631591</ele>
        <time>2020-08-02T09:49:03.675Z</time>
      </trkpt>
      <trkpt lat="62.75299" lon="6.99486">
        <ele>94.581498</ele>
        <time>2020-08-02T09:49:05.690Z</time>
      </trkpt>
      <trkpt lat="62.75307" lon="6.99497">
        <ele>94.533669</ele>
        <time>2020-08-02T09:49:07.698Z</time>
      </trkpt>
      <trkpt lat="62.75315" lon="6.99508">
        <ele>94.485607</ele>
        <time>2020-08-02T09:49:09.659Z</time>
      </trkpt>
      <trkpt lat="62.75324" lon="6.99519">
        <ele>94.507959</ele>
        <time>2020-08-02T09:49:11.673Z</time>
      </trkpt>
      <trkpt lat="62.75331" lon="6.99531">
        <ele>94.536382</ele>
        <time>2020-08-02T09:49:13.668Z</time>
      </trkpt>
      <trkpt lat="62.75339" lon="6.99541">
        <ele>94.563404</ele>
        <time>2020-08-02T09:49:15.667Z</time>
      </trkpt>
      <trkpt lat="62.75348" lon="6.99548">
        <ele>94.592733</ele>
        <time>2020-08-02T09:49:17.666Z</time>
      </trkpt>
      <trkpt lat="62.75358" lon="6.99557">
        <ele>94.622941</ele>
        <time>2020-08-02T09:49:19.670Z</time>
      </trkpt>
      <trkpt lat="62.75367" lon="6.99567">
        <ele>94.653135</ele>
        <time>2020-08-02T09:49:21.685Z</time>
      </trkpt>
      <trkpt lat="62.75376" lon="6.99574">
        <ele>94.683826</ele>
        <time>2020-08-02T09:49:23.669Z</time>
      </trkpt>
      <trkpt lat="62.75386" lon="6.99587">
        <ele>94.716777</ele>
        <time>2020-08-02T09:49:25.688Z</time>
      </trkpt>
      <trkpt lat="62.75394" lon="6.99602">
        <ele>94.74952</ele>
        <time>2020-08-02T09:49:27.673Z</time>
      </trkpt>
      <trkpt lat="62.75402" lon="6.99616">
        <ele>94.780122</ele>
        <time>2020-08-02T09:49:29.657Z</time>
      </trkpt>
      <trkpt lat="62.75411" lon="6.99629">
        <ele>94.811135</ele>
        <time>2020-08-02T09:49:31.671Z</time>
      </trkpt>
      <trkpt lat="62.75419" lon="6.99642">
        <ele>94.841011</ele>
        <time>2020-08-02T09:49:33.679Z</time>
      </trkpt>
      <trkpt lat="62.75426" lon="6.99653">
        <ele>94.868234</ele>
        <time>2020-08-02T09:49:35.671Z</time>
      </trkpt>
      <trkpt lat="62.75437" lon="6.99668">
        <ele>94.907383</ele>
        <time>2020-08-02T09:49:38.665Z</time>
      </trkpt>
      <trkpt lat="62.75447" lon="6.99684">
        <ele>94.944364</ele>
        <time>2020-08-02T09:49:41.664Z</time>
      </trkpt>
      <trkpt lat="62.75457" lon="6.997">
        <ele>94.981832</ele>
        <time>2020-08-02T09:49:44.671Z</time>
      </trkpt>
      <trkpt lat="62.75468" lon="6.99716">
        <ele>95.014249</ele>
        <time>2020-08-02T09:49:47.670Z</time>
      </trkpt>
      <trkpt lat="62.75479" lon="6.99732">
        <ele>94.708889</ele>
        <time>2020-08-02T09:49:50.678Z</time>
      </trkpt>
      <trkpt lat="62.75487" lon="6.99744">
        <ele>94.496243</ele>
        <time>2020-08-02T09:49:52.672Z</time>
      </trkpt>
      <trkpt lat="62.75495" lon="6.99757">
        <ele>94.271856</ele>
        <time>2020-08-02T09:49:54.685Z</time>
      </trkpt>
      <trkpt lat="62.75503" lon="6.99769">
        <ele>94.046643</ele>
        <time>2020-08-02T09:49:56.654Z</time>
      </trkpt>
      <trkpt lat="62.75512" lon="6.99781">
        <ele>93.812023</ele>
        <time>2020-08-02T09:49:58.685Z</time>
      </trkpt>
      <trkpt lat="62.7552" lon="6.99793">
        <ele>93.572693</ele>
        <time>2020-08-02T09:50:00.667Z</time>
      </trkpt>
      <trkpt lat="62.7553" lon="6.99795">
        <ele>93.341463</ele>
        <time>2020-08-02T09:50:02.708Z</time>
      </trkpt>
      <trkpt lat="62.7554" lon="6.9979">
        <ele>93.107174</ele>
        <time>2020-08-02T09:50:04.679Z</time>
      </trkpt>
      <trkpt lat="62.75552" lon="6.99795">
        <ele>92.844114</ele>
        <time>2020-08-02T09:50:07.667Z</time>
      </trkpt>
      <trkpt lat="62.75561" lon="6.9981">
        <ele>92.584533</ele>
        <time>2020-08-02T09:50:10.650Z</time>
      </trkpt>
      <trkpt lat="62.75569" lon="6.99825">
        <ele>92.344463</ele>
        <time>2020-08-02T09:50:13.735Z</time>
      </trkpt>
      <trkpt lat="62.75576" lon="6.99841">
        <ele>92.114357</ele>
        <time>2020-08-02T09:50:15.652Z</time>
      </trkpt>
      <trkpt lat="62.75578" lon="6.99862">
        <ele>91.878844</ele>
        <time>2020-08-02T09:50:17.655Z</time>
      </trkpt>
      <trkpt lat="62.75571" lon="6.9988">
        <ele>91.637141</ele>
        <time>2020-08-02T09:50:19.662Z</time>
      </trkpt>
      <trkpt lat="62.75565" lon="6.99898">
        <ele>91.399497</ele>
        <time>2020-08-02T09:50:23.651Z</time>
      </trkpt>
      <trkpt lat="62.75569" lon="6.99918">
        <ele>91.170084</ele>
        <time>2020-08-02T09:50:27.661Z</time>
      </trkpt>
      <trkpt lat="62.75577" lon="6.9993">
        <ele>90.934097</ele>
        <time>2020-08-02T09:50:33.684Z</time>
      </trkpt>
      <trkpt lat="62.75586" lon="6.99939">
        <ele>91.01922</ele>
        <time>2020-08-02T09:50:38.709Z</time>
      </trkpt>
      <trkpt lat="62.75595" lon="6.99953">
        <ele>91.188186</ele>
        <time>2020-08-02T09:50:42.672Z</time>
      </trkpt>
      <trkpt lat="62.75603" lon="6.99963">
        <ele>91.334934</ele>
        <time>2020-08-02T09:50:45.671Z</time>
      </trkpt>
      <trkpt lat="62.75613" lon="6.99973">
        <ele>91.495224</ele>
        <time>2020-08-02T09:50:48.656Z</time>
      </trkpt>
      <trkpt lat="62.75622" lon="6.99984">
        <ele>91.65846</ele>
        <time>2020-08-02T09:50:51.655Z</time>
      </trkpt>
      <trkpt lat="62.75631" lon="6.99995">
        <ele>91.823725</ele>
        <time>2020-08-02T09:50:54.655Z</time>
      </trkpt>
      <trkpt lat="62.75641" lon="7.00005">
        <ele>91.981591</ele>
        <time>2020-08-02T09:50:57.656Z</time>
      </trkpt>
      <trkpt lat="62.7565" lon="7.00015">
        <ele>92.135249</ele>
        <time>2020-08-02T09:51:00.652Z</time>
      </trkpt>
      <trkpt lat="62.7566" lon="7.00026">
        <ele>92.315707</ele>
        <time>2020-08-02T09:51:04.686Z</time>
      </trkpt>
      <trkpt lat="62.75669" lon="7.00034">
        <ele>92.466181</ele>
        <time>2020-08-02T09:51:07.654Z</time>
      </trkpt>
      <trkpt lat="62.7568" lon="7.00046">
        <ele>92.650488</ele>
        <time>2020-08-02T09:51:10.655Z</time>
      </trkpt>
      <trkpt lat="62.75691" lon="7.00055">
        <ele>92.841308</ele>
        <time>2020-08-02T09:51:13.673Z</time>
      </trkpt>
      <trkpt lat="62.75703" lon="7.00064">
        <ele>93.028764</ele>
        <time>2020-08-02T09:51:16.689Z</time>
      </trkpt>
      <trkpt lat="62.75714" lon="7.00072">
        <ele>93.214451</ele>
        <time>2020-08-02T09:51:19.656Z</time>
      </trkpt>
      <trkpt lat="62.75725" lon="7.00079">
        <ele>93.387382</ele>
        <time>2020-08-02T09:51:22.665Z</time>
      </trkpt>
      <trkpt lat="62.75737" lon="7.00085">
        <ele>93.570528</ele>
        <time>2020-08-02T09:51:25.670Z</time>
      </trkpt>
      <trkpt lat="62.75748" lon="7.00091">
        <ele>93.752042</ele>
        <time>2020-08-02T09:51:28.708Z</time>
      </trkpt>
      <trkpt lat="62.7576" lon="7.00096">
        <ele>93.927111</ele>
        <time>2020-08-02T09:51:31.663Z</time>
      </trkpt>
      <trkpt lat="62.7577" lon="7.00101">
        <ele>94.082709</ele>
        <time>2020-08-02T09:51:34.673Z</time>
      </trkpt>
      <trkpt lat="62.75782" lon="7.00107">
        <ele>94.26548</ele>
        <time>2020-08-02T09:51:38.657Z</time>
      </trkpt>
      <trkpt lat="62.75792" lon="7.00111">
        <ele>94.421078</ele>
        <time>2020-08-02T09:51:41.677Z</time>
      </trkpt>
      <trkpt lat="62.75803" lon="7.00115">
        <ele>94.588874</ele>
        <time>2020-08-02T09:51:44.658Z</time>
      </trkpt>
      <trkpt lat="62.75815" lon="7.00117">
        <ele>94.759941</ele>
        <time>2020-08-02T09:51:47.651Z</time>
      </trkpt>
      <trkpt lat="62.75826" lon="7.00119">
        <ele>94.93417</ele>
        <time>2020-08-02T09:51:50.681Z</time>
      </trkpt>
      <trkpt lat="62.75839" lon="7.00122">
        <ele>95.121862</ele>
        <time>2020-08-02T09:51:53.666Z</time>
      </trkpt>
      <trkpt lat="62.7585" lon="7.00124">
        <ele>95.294478</ele>
        <time>2020-08-02T09:51:56.683Z</time>
      </trkpt>
      <trkpt lat="62.75861" lon="7.00124">
        <ele>95.45597</ele>
        <time>2020-08-02T09:51:59.644Z</time>
      </trkpt>
      <trkpt lat="62.75872" lon="7.00125">
        <ele>95.616018</ele>
        <time>2020-08-02T09:52:02.676Z</time>
      </trkpt>
      <trkpt lat="62.75883" lon="7.00125">
        <ele>95.786486</ele>
        <time>2020-08-02T09:52:05.648Z</time>
      </trkpt>
      <trkpt lat="62.75895" lon="7.00124">
        <ele>95.966078</ele>
        <time>2020-08-02T09:52:08.652Z</time>
      </trkpt>
      <trkpt lat="62.75906" lon="7.00122">
        <ele>96.132799</ele>
        <time>2020-08-02T09:52:11.653Z</time>
      </trkpt>
      <trkpt lat="62.75917" lon="7.00118">
        <ele>96.293646</ele>
        <time>2020-08-02T09:52:14.680Z</time>
      </trkpt>
      <trkpt lat="62.75927" lon="7.00115">
        <ele>96.339672</ele>
        <time>2020-08-02T09:52:17.655Z</time>
      </trkpt>
      <trkpt lat="62.75937" lon="7.00112">
        <ele>96.316618</ele>
        <time>2020-08-02T09:52:20.667Z</time>
      </trkpt>
      <trkpt lat="62.75946" lon="7.00107">
        <ele>96.293878</ele>
        <time>2020-08-02T09:52:23.659Z</time>
      </trkpt>
      <trkpt lat="62.75956" lon="7.00103">
        <ele>96.271151</ele>
        <time>2020-08-02T09:52:26.652Z</time>
      </trkpt>
      <trkpt lat="62.75966" lon="7.00097">
        <ele>96.24611</ele>
        <time>2020-08-02T09:52:29.670Z</time>
      </trkpt>
      <trkpt lat="62.75978" lon="7.00093">
        <ele>96.218492</ele>
        <time>2020-08-02T09:52:32.679Z</time>
      </trkpt>
      <trkpt lat="62.7599" lon="7.00089">
        <ele>96.189687</ele>
        <time>2020-08-02T09:52:35.667Z</time>
      </trkpt>
      <trkpt lat="62.76002" lon="7.00082">
        <ele>96.15989</ele>
        <time>2020-08-02T09:52:38.660Z</time>
      </trkpt>
      <trkpt lat="62.76015" lon="7.00075">
        <ele>96.1282</ele>
        <time>2020-08-02T09:52:41.657Z</time>
      </trkpt>
      <trkpt lat="62.76027" lon="7.00069">
        <ele>96.097422</ele>
        <time>2020-08-02T09:52:44.666Z</time>
      </trkpt>
      <trkpt lat="62.76037" lon="7.00064">
        <ele>96.074735</ele>
        <time>2020-08-02T09:52:46.676Z</time>
      </trkpt>
      <trkpt lat="62.76047" lon="7.00059">
        <ele>96.048978</ele>
        <time>2020-08-02T09:52:48.666Z</time>
      </trkpt>
      <trkpt lat="62.76058" lon="7.00053">
        <ele>96.022709</ele>
        <time>2020-08-02T09:52:50.655Z</time>
      </trkpt>
      <trkpt lat="62.76069" lon="7.00047">
        <ele>95.995544</ele>
        <time>2020-08-02T09:52:52.683Z</time>
      </trkpt>
      <trkpt lat="62.76081" lon="7.0004">
        <ele>95.966352</ele>
        <time>2020-08-02T09:52:54.695Z</time>
      </trkpt>
      <trkpt lat="62.76093" lon="7.00033">
        <ele>95.937272</ele>
        <time>2020-08-02T09:52:56.682Z</time>
      </trkpt>
      <trkpt lat="62.76106" lon="7.00026">
        <ele>95.521624</ele>
        <time>2020-08-02T09:52:58.675Z</time>
      </trkpt>
      <trkpt lat="62.76119" lon="7.00019">
        <ele>94.946259</ele>
        <time>2020-08-02T09:53:00.668Z</time>
      </trkpt>
      <trkpt lat="62.76132" lon="7.00013">
        <ele>94.363725</ele>
        <time>2020-08-02T09:53:02.655Z</time>
      </trkpt>
      <trkpt lat="62.76146" lon="7.00007">
        <ele>93.778151</ele>
        <time>2020-08-02T09:53:04.657Z</time>
      </trkpt>
      <trkpt lat="62.76158" lon="7">
        <ele>93.212649</ele>
        <time>2020-08-02T09:53:06.688Z</time>
      </trkpt>
      <trkpt lat="62.76171" lon="6.99993">
        <ele>92.648905</ele>
        <time>2020-08-02T09:53:08.703Z</time>
      </trkpt>
      <trkpt lat="62.76184" lon="6.99985">
        <ele>92.066182</ele>
        <time>2020-08-02T09:53:10.658Z</time>
      </trkpt>
      <trkpt lat="62.76197" lon="6.99974">
        <ele>91.486832</ele>
        <time>2020-08-02T09:53:12.695Z</time>
      </trkpt>
      <trkpt lat="62.7621" lon="6.99964">
        <ele>90.884853</ele>
        <time>2020-08-02T09:53:14.660Z</time>
      </trkpt>
      <trkpt lat="62.76224" lon="6.99952">
        <ele>90.273864</ele>
        <time>2020-08-02T09:53:16.683Z</time>
      </trkpt>
      <trkpt lat="62.76238" lon="6.99942">
        <ele>89.634394</ele>
        <time>2020-08-02T09:53:18.685Z</time>
      </trkpt>
      <trkpt lat="62.76252" lon="6.99932">
        <ele>89.006109</ele>
        <time>2020-08-02T09:53:20.665Z</time>
      </trkpt>
      <trkpt lat="62.76266" lon="6.99921">
        <ele>88.378078</ele>
        <time>2020-08-02T09:53:22.674Z</time>
      </trkpt>
      <trkpt lat="62.76279" lon="6.9991">
        <ele>88.102791</ele>
        <time>2020-08-02T09:53:24.658Z</time>
      </trkpt>
      <trkpt lat="62.76292" lon="6.99901">
        <ele>87.907554</ele>
        <time>2020-08-02T09:53:26.674Z</time>
      </trkpt>
      <trkpt lat="62.76303" lon="6.99892">
        <ele>87.727834</ele>
        <time>2020-08-02T09:53:28.674Z</time>
      </trkpt>
      <trkpt lat="62.76315" lon="6.99882">
        <ele>87.550176</ele>
        <time>2020-08-02T09:53:30.682Z</time>
      </trkpt>
      <trkpt lat="62.76326" lon="6.99872">
        <ele>87.377551</ele>
        <time>2020-08-02T09:53:32.671Z</time>
      </trkpt>
      <trkpt lat="62.76335" lon="6.99862">
        <ele>87.220618</ele>
        <time>2020-08-02T09:53:34.684Z</time>
      </trkpt>
      <trkpt lat="62.76345" lon="6.99853">
        <ele>87.068733</ele>
        <time>2020-08-02T09:53:36.668Z</time>
      </trkpt>
      <trkpt lat="62.76355" lon="6.99845">
        <ele>86.917839</ele>
        <time>2020-08-02T09:53:38.658Z</time>
      </trkpt>
      <trkpt lat="62.76363" lon="6.99837">
        <ele>86.78399</ele>
        <time>2020-08-02T09:53:40.670Z</time>
      </trkpt>
      <trkpt lat="62.76372" lon="6.99828">
        <ele>86.649865</ele>
        <time>2020-08-02T09:53:42.667Z</time>
      </trkpt>
      <trkpt lat="62.76381" lon="6.9982">
        <ele>86.510678</ele>
        <time>2020-08-02T09:53:44.668Z</time>
      </trkpt>
      <trkpt lat="62.76389" lon="6.99812">
        <ele>86.380195</ele>
        <time>2020-08-02T09:53:46.691Z</time>
      </trkpt>
      <trkpt lat="62.764" lon="6.99799">
        <ele>86.191607</ele>
        <time>2020-08-02T09:53:49.657Z</time>
      </trkpt>
      <trkpt lat="62.76411" lon="6.99786">
        <ele>86.010092</ele>
        <time>2020-08-02T09:53:52.665Z</time>
      </trkpt>
      <trkpt lat="62.76422" lon="6.99772">
        <ele>85.824117</ele>
        <time>2020-08-02T09:53:55.659Z</time>
      </trkpt>
      <trkpt lat="62.76433" lon="6.9976">
        <ele>85.670741</ele>
        <time>2020-08-02T09:53:58.674Z</time>
      </trkpt>
      <trkpt lat="62.76444" lon="6.99747">
        <ele>85.8901</ele>
        <time>2020-08-02T09:54:01.655Z</time>
      </trkpt>
      <trkpt lat="62.76454" lon="6.99732">
        <ele>86.119393</ele>
        <time>2020-08-02T09:54:04.678Z</time>
      </trkpt>
      <trkpt lat="62.76464" lon="6.99717">
        <ele>86.335277</ele>
        <time>2020-08-02T09:54:07.685Z</time>
      </trkpt>
      <trkpt lat="62.76472" lon="6.99705">
        <ele>86.526809</ele>
        <time>2020-08-02T09:54:10.664Z</time>
      </trkpt>
      <trkpt lat="62.76482" lon="6.99693">
        <ele>86.727137</ele>
        <time>2020-08-02T09:54:13.686Z</time>
      </trkpt>
      <trkpt lat="62.76492" lon="6.99683">
        <ele>86.925241</ele>
        <time>2020-08-02T09:54:16.687Z</time>
      </trkpt>
      <trkpt lat="62.76502" lon="6.99671">
        <ele>87.138196</ele>
        <time>2020-08-02T09:54:19.657Z</time>
      </trkpt>
      <trkpt lat="62.76512" lon="6.99659">
        <ele>87.34483</ele>
        <time>2020-08-02T09:54:22.677Z</time>
      </trkpt>
      <trkpt lat="62.76521" lon="6.99645">
        <ele>87.554791</ele>
        <time>2020-08-02T09:54:25.668Z</time>
      </trkpt>
      <trkpt lat="62.76531" lon="6.99629">
        <ele>87.780062</ele>
        <time>2020-08-02T09:54:28.675Z</time>
      </trkpt>
      <trkpt lat="62.76542" lon="6.99612">
        <ele>88.022274</ele>
        <time>2020-08-02T09:54:31.684Z</time>
      </trkpt>
      <trkpt lat="62.76549" lon="6.99599">
        <ele>88.190357</ele>
        <time>2020-08-02T09:54:33.673Z</time>
      </trkpt>
      <trkpt lat="62.76557" lon="6.99587">
        <ele>88.361296</ele>
        <time>2020-08-02T09:54:35.662Z</time>
      </trkpt>
      <trkpt lat="62.76565" lon="6.99577">
        <ele>88.539145</ele>
        <time>2020-08-02T09:54:37.674Z</time>
      </trkpt>
      <trkpt lat="62.76574" lon="6.99566">
        <ele>88.722601</ele>
        <time>2020-08-02T09:54:39.698Z</time>
      </trkpt>
      <trkpt lat="62.76583" lon="6.99556">
        <ele>88.907649</ele>
        <time>2020-08-02T09:54:41.686Z</time>
      </trkpt>
      <trkpt lat="62.76592" lon="6.99546">
        <ele>88.740569</ele>
        <time>2020-08-02T09:54:43.657Z</time>
      </trkpt>
      <trkpt lat="62.76602" lon="6.99537">
        <ele>88.445221</ele>
        <time>2020-08-02T09:54:45.737Z</time>
      </trkpt>
      <trkpt lat="62.76612" lon="6.99529">
        <ele>88.160281</ele>
        <time>2020-08-02T09:54:47.653Z</time>
      </trkpt>
      <trkpt lat="62.76622" lon="6.99522">
        <ele>87.862761</ele>
        <time>2020-08-02T09:54:49.668Z</time>
      </trkpt>
      <trkpt lat="62.76633" lon="6.99516">
        <ele>87.554353</ele>
        <time>2020-08-02T09:54:51.663Z</time>
      </trkpt>
      <trkpt lat="62.76644" lon="6.99511">
        <ele>87.246053</ele>
        <time>2020-08-02T09:54:53.677Z</time>
      </trkpt>
      <trkpt lat="62.76655" lon="6.99507">
        <ele>86.933388</ele>
        <time>2020-08-02T09:54:55.666Z</time>
      </trkpt>
      <trkpt lat="62.76667" lon="6.99505">
        <ele>86.602367</ele>
        <time>2020-08-02T09:54:57.656Z</time>
      </trkpt>
      <trkpt lat="62.7668" lon="6.99502">
        <ele>86.244377</ele>
        <time>2020-08-02T09:54:59.662Z</time>
      </trkpt>
      <trkpt lat="62.76693" lon="6.995">
        <ele>85.891512</ele>
        <time>2020-08-02T09:55:01.665Z</time>
      </trkpt>
      <trkpt lat="62.76706" lon="6.99496">
        <ele>85.545034</ele>
        <time>2020-08-02T09:55:03.670Z</time>
      </trkpt>
      <trkpt lat="62.76718" lon="6.99493">
        <ele>85.199972</ele>
        <time>2020-08-02T09:55:05.685Z</time>
      </trkpt>
      <trkpt lat="62.76731" lon="6.99487">
        <ele>84.846898</ele>
        <time>2020-08-02T09:55:07.678Z</time>
      </trkpt>
      <trkpt lat="62.76742" lon="6.99477">
        <ele>84.509821</ele>
        <time>2020-08-02T09:55:09.681Z</time>
      </trkpt>
      <trkpt lat="62.76752" lon="6.99466">
        <ele>84.195452</ele>
        <time>2020-08-02T09:55:11.704Z</time>
      </trkpt>
      <trkpt lat="62.76762" lon="6.99452">
        <ele>83.958364</ele>
        <time>2020-08-02T09:55:13.695Z</time>
      </trkpt>
      <trkpt lat="62.76773" lon="6.99437">
        <ele>83.821827</ele>
        <time>2020-08-02T09:55:15.666Z</time>
      </trkpt>
      <trkpt lat="62.76783" lon="6.99421">
        <ele>83.681851</ele>
        <time>2020-08-02T09:55:17.669Z</time>
      </trkpt>
      <trkpt lat="62.76792" lon="6.99399">
        <ele>83.539538</ele>
        <time>2020-08-02T09:55:19.676Z</time>
      </trkpt>
      <trkpt lat="62.76797" lon="6.99376">
        <ele>83.40849</ele>
        <time>2020-08-02T09:55:21.674Z</time>
      </trkpt>
      <trkpt lat="62.76801" lon="6.99356">
        <ele>83.300828</ele>
        <time>2020-08-02T09:55:23.715Z</time>
      </trkpt>
      <trkpt lat="62.76807" lon="6.9934">
        <ele>83.198599</ele>
        <time>2020-08-02T09:55:25.671Z</time>
      </trkpt>
      <trkpt lat="62.76815" lon="6.99325">
        <ele>83.079791</ele>
        <time>2020-08-02T09:55:27.656Z</time>
      </trkpt>
      <trkpt lat="62.76827" lon="6.99316">
        <ele>82.947445</ele>
        <time>2020-08-02T09:55:29.673Z</time>
      </trkpt>
      <trkpt lat="62.76839" lon="6.99312">
        <ele>82.810134</ele>
        <time>2020-08-02T09:55:31.670Z</time>
      </trkpt>
      <trkpt lat="62.76851" lon="6.99311">
        <ele>82.677376</ele>
        <time>2020-08-02T09:55:33.690Z</time>
      </trkpt>
      <trkpt lat="62.76862" lon="6.99311">
        <ele>82.559001</ele>
        <time>2020-08-02T09:55:35.682Z</time>
      </trkpt>
      <trkpt lat="62.76872" lon="6.99312">
        <ele>82.448077</ele>
        <time>2020-08-02T09:55:37.661Z</time>
      </trkpt>
      <trkpt lat="62.76883" lon="6.99312">
        <ele>82.334087</ele>
        <time>2020-08-02T09:55:39.686Z</time>
      </trkpt>
      <trkpt lat="62.76893" lon="6.99313">
        <ele>82.222198</ele>
        <time>2020-08-02T09:55:41.695Z</time>
      </trkpt>
      <trkpt lat="62.76906" lon="6.99317">
        <ele>82.076135</ele>
        <time>2020-08-02T09:55:44.674Z</time>
      </trkpt>
      <trkpt lat="62.76916" lon="6.99326">
        <ele>82.142916</ele>
        <time>2020-08-02T09:55:46.711Z</time>
      </trkpt>
      <trkpt lat="62.76926" lon="6.99341">
        <ele>82.290771</ele>
        <time>2020-08-02T09:55:48.669Z</time>
      </trkpt>
      <trkpt lat="62.76937" lon="6.99354">
        <ele>82.443113</ele>
        <time>2020-08-02T09:55:50.685Z</time>
      </trkpt>
      <trkpt lat="62.76951" lon="6.99363">
        <ele>82.609477</ele>
        <time>2020-08-02T09:55:52.674Z</time>
      </trkpt>
      <trkpt lat="62.76961" lon="6.9937">
        <ele>82.744103</ele>
        <time>2020-08-02T09:55:54.660Z</time>
      </trkpt>
      <trkpt lat="62.7697" lon="6.99374">
        <ele>82.852987</ele>
        <time>2020-08-02T09:55:56.689Z</time>
      </trkpt>
      <trkpt lat="62.76979" lon="6.99374">
        <ele>82.960029</ele>
        <time>2020-08-02T09:55:58.672Z</time>
      </trkpt>
      <trkpt lat="62.76992" lon="6.99377">
        <ele>83.114007</ele>
        <time>2020-08-02T09:56:01.680Z</time>
      </trkpt>
      <trkpt lat="62.77003" lon="6.99384">
        <ele>83.245509</ele>
        <time>2020-08-02T09:56:04.668Z</time>
      </trkpt>
      <trkpt lat="62.77014" lon="6.99384">
        <ele>83.382328</ele>
        <time>2020-08-02T09:56:07.686Z</time>
      </trkpt>
      <trkpt lat="62.77025" lon="6.99383">
        <ele>83.502563</ele>
        <time>2020-08-02T09:56:10.678Z</time>
      </trkpt>
      <trkpt lat="62.77034" lon="6.99382">
        <ele>83.609803</ele>
        <time>2020-08-02T09:56:14.658Z</time>
      </trkpt>
      <trkpt lat="62.77043" lon="6.99384">
        <ele>83.725422</ele>
        <time>2020-08-02T09:56:18.668Z</time>
      </trkpt>
      <trkpt lat="62.77054" lon="6.99385">
        <ele>83.858907</ele>
        <time>2020-08-02T09:56:21.667Z</time>
      </trkpt>
      <trkpt lat="62.77064" lon="6.99387">
        <ele>83.967497</ele>
        <time>2020-08-02T09:56:23.679Z</time>
      </trkpt>
      <trkpt lat="62.77073" lon="6.99388">
        <ele>84.078119</ele>
        <time>2020-08-02T09:56:25.688Z</time>
      </trkpt>
      <trkpt lat="62.77082" lon="6.99383">
        <ele>84.218482</ele>
        <time>2020-08-02T09:56:27.663Z</time>
      </trkpt>
      <trkpt lat="62.77091" lon="6.99374">
        <ele>84.752196</ele>
        <time>2020-08-02T09:56:29.666Z</time>
      </trkpt>
      <trkpt lat="62.77099" lon="6.99363">
        <ele>85.281597</ele>
        <time>2020-08-02T09:56:31.658Z</time>
      </trkpt>
      <trkpt lat="62.77109" lon="6.99348">
        <ele>85.921411</ele>
        <time>2020-08-02T09:56:34.736Z</time>
      </trkpt>
      <trkpt lat="62.77117" lon="6.99333">
        <ele>86.503179</ele>
        <time>2020-08-02T09:56:38.663Z</time>
      </trkpt>
      <trkpt lat="62.77125" lon="6.99321">
        <ele>87.046509</ele>
        <time>2020-08-02T09:56:45.671Z</time>
      </trkpt>
      <trkpt lat="62.77132" lon="6.99308">
        <ele>87.561303</ele>
        <time>2020-08-02T09:56:52.667Z</time>
      </trkpt>
      <trkpt lat="62.7714" lon="6.99293">
        <ele>88.122327</ele>
        <time>2020-08-02T09:57:00.704Z</time>
      </trkpt>
      <trkpt lat="62.77148" lon="6.9928">
        <ele>88.682162</ele>
        <time>2020-08-02T09:57:07.666Z</time>
      </trkpt>
      <trkpt lat="62.77157" lon="6.99271">
        <ele>89.208306</ele>
        <time>2020-08-02T09:57:13.667Z</time>
      </trkpt>
      <trkpt lat="62.77164" lon="6.99259">
        <ele>89.719171</ele>
        <time>2020-08-02T09:57:19.666Z</time>
      </trkpt>
      <trkpt lat="62.77171" lon="6.99243">
        <ele>90.277759</ele>
        <time>2020-08-02T09:57:24.663Z</time>
      </trkpt>
      <trkpt lat="62.77177" lon="6.99228">
        <ele>90.778687</ele>
        <time>2020-08-02T09:57:28.679Z</time>
      </trkpt>
      <trkpt lat="62.77184" lon="6.99212">
        <ele>91.327831</ele>
        <time>2020-08-02T09:57:32.669Z</time>
      </trkpt>
      <trkpt lat="62.77193" lon="6.99198">
        <ele>91.89937</ele>
        <time>2020-08-02T09:57:36.660Z</time>
      </trkpt>
      <trkpt lat="62.772" lon="6.99185">
        <ele>92.412359</ele>
        <time>2020-08-02T09:57:40.670Z</time>
      </trkpt>
      <trkpt lat="62.77207" lon="6.9917">
        <ele>92.941199</ele>
        <time>2020-08-02T09:57:44.671Z</time>
      </trkpt>
      <trkpt lat="62.77213" lon="6.99156">
        <ele>93.462604</ele>
        <time>2020-08-02T09:57:48.674Z</time>
      </trkpt>
      <trkpt lat="62.77221" lon="6.99139">
        <ele>94.047099</ele>
        <time>2020-08-02T09:57:52.679Z</time>
      </trkpt>
      <trkpt lat="62.77228" lon="6.99122">
        <ele>93.920016</ele>
        <time>2020-08-02T09:57:56.657Z</time>
      </trkpt>
      <trkpt lat="62.77237" lon="6.9911">
        <ele>93.757895</ele>
        <time>2020-08-02T09:58:00.659Z</time>
      </trkpt>
      <trkpt lat="62.77247" lon="6.99107">
        <ele>93.611148</ele>
        <time>2020-08-02T09:58:03.667Z</time>
      </trkpt>
      <trkpt lat="62.77257" lon="6.99108">
        <ele>93.459833</ele>
        <time>2020-08-02T09:58:06.715Z</time>
      </trkpt>
      <trkpt lat="62.77267" lon="6.99112">
        <ele>93.315683</ele>
        <time>2020-08-02T09:58:09.657Z</time>
      </trkpt>
      <trkpt lat="62.77276" lon="6.99119">
        <ele>93.167441</ele>
        <time>2020-08-02T09:58:12.675Z</time>
      </trkpt>
      <trkpt lat="62.77285" lon="6.99133">
        <ele>93.007197</ele>
        <time>2020-08-02T09:58:15.674Z</time>
      </trkpt>
      <trkpt lat="62.7729" lon="6.99153">
        <ele>92.854649</ele>
        <time>2020-08-02T09:58:18.689Z</time>
      </trkpt>
      <trkpt lat="62.77295" lon="6.99172">
        <ele>92.706758</ele>
        <time>2020-08-02T09:58:21.667Z</time>
      </trkpt>
      <trkpt lat="62.77301" lon="6.99188">
        <ele>92.567192</ele>
        <time>2020-08-02T09:58:24.656Z</time>
      </trkpt>
      <trkpt lat="62.77309" lon="6.99206">
        <ele>92.394482</ele>
        <time>2020-08-02T09:58:28.694Z</time>
      </trkpt>
      <trkpt lat="62.77314" lon="6.99222">
        <ele>92.257804</ele>
        <time>2020-08-02T09:58:32.671Z</time>
      </trkpt>
      <trkpt lat="62.7732" lon="6.9924">
        <ele>92.114029</ele>
        <time>2020-08-02T09:58:36.677Z</time>
      </trkpt>
      <trkpt lat="62.77329" lon="6.9925">
        <ele>91.955139</ele>
        <time>2020-08-02T09:58:40.681Z</time>
      </trkpt>
      <trkpt lat="62.77341" lon="6.99258">
        <ele>91.779612</ele>
        <time>2020-08-02T09:58:44.662Z</time>
      </trkpt>
      <trkpt lat="62.77351" lon="6.99265">
        <ele>91.613312</ele>
        <time>2020-08-02T09:58:48.668Z</time>
      </trkpt>
      <trkpt lat="62.77361" lon="6.99266">
        <ele>91.466401</ele>
        <time>2020-08-02T09:58:51.665Z</time>
      </trkpt>
      <trkpt lat="62.77371" lon="6.99263">
        <ele>91.193421</ele>
        <time>2020-08-02T09:58:53.693Z</time>
      </trkpt>
      <trkpt lat="62.77382" lon="6.99256">
        <ele>90.740645</ele>
        <time>2020-08-02T09:58:55.679Z</time>
      </trkpt>
      <trkpt lat="62.77393" lon="6.99248">
        <ele>90.266887</ele>
        <time>2020-08-02T09:58:57.672Z</time>
      </trkpt>
      <trkpt lat="62.77404" lon="6.9924">
        <ele>89.789667</ele>
        <time>2020-08-02T09:58:59.689Z</time>
      </trkpt>
      <trkpt lat="62.77418" lon="6.9923">
        <ele>89.224115</ele>
        <time>2020-08-02T09:59:01.687Z</time>
      </trkpt>
      <trkpt lat="62.77429" lon="6.99214">
        <ele>88.696226</ele>
        <time>2020-08-02T09:59:03.670Z</time>
      </trkpt>
      <trkpt lat="62.77437" lon="6.99194">
        <ele>88.211642</ele>
        <time>2020-08-02T09:59:05.700Z</time>
      </trkpt>
      <trkpt lat="62.77444" lon="6.99175">
        <ele>87.770327</ele>
        <time>2020-08-02T09:59:07.665Z</time>
      </trkpt>
      <trkpt lat="62.7745" lon="6.9916">
        <ele>87.39476</ele>
        <time>2020-08-02T09:59:09.662Z</time>
      </trkpt>
      <trkpt lat="62.77461" lon="6.99148">
        <ele>86.925195</ele>
        <time>2020-08-02T09:59:11.674Z</time>
      </trkpt>
      <trkpt lat="62.77476" lon="6.99141">
        <ele>86.281905</ele>
        <time>2020-08-02T09:59:13.670Z</time>
      </trkpt>
      <trkpt lat="62.77493" lon="6.99139">
        <ele>85.623032</ele>
        <time>2020-08-02T09:59:15.658Z</time>
      </trkpt>
      <trkpt lat="62.77506" lon="6.99144">
        <ele>85.081214</ele>
        <time>2020-08-02T09:59:17.681Z</time>
      </trkpt>
      <trkpt lat="62.77518" lon="6.99154">
        <ele>84.583766</ele>
        <time>2020-08-02T09:59:19.650Z</time>
      </trkpt>
      <trkpt lat="62.7753" lon="6.99168">
        <ele>84.253463</ele>
        <time>2020-08-02T09:59:21.699Z</time>
      </trkpt>
      <trkpt lat="62.77541" lon="6.99179">
        <ele>84.303724</ele>
        <time>2020-08-02T09:59:23.662Z</time>
      </trkpt>
      <trkpt lat="62.77551" lon="6.99186">
        <ele>84.348107</ele>
        <time>2020-08-02T09:59:26.659Z</time>
      </trkpt>
      <trkpt lat="62.77556" lon="6.99166">
        <ele>84.389862</ele>
        <time>2020-08-02T09:59:32.687Z</time>
      </trkpt>
      <trkpt lat="62.77562" lon="6.99148">
        <ele>84.430712</ele>
        <time>2020-08-02T09:59:36.663Z</time>
      </trkpt>
      <trkpt lat="62.77573" lon="6.99152">
        <ele>84.474216</ele>
        <time>2020-08-02T10:00:09.677Z</time>
      </trkpt>
      <trkpt lat="62.77582" lon="6.99157">
        <ele>84.51313</ele>
        <time>2020-08-02T10:00:20.651Z</time>
      </trkpt>
      <trkpt lat="62.77591" lon="6.99162">
        <ele>84.551741</ele>
        <time>2020-08-02T10:00:33.664Z</time>
      </trkpt>
      <trkpt lat="62.77602" lon="6.99177">
        <ele>84.605362</ele>
        <time>2020-08-02T10:00:49.678Z</time>
      </trkpt>
      <trkpt lat="62.77611" lon="6.99182">
        <ele>84.643048</ele>
        <time>2020-08-02T10:00:53.668Z</time>
      </trkpt>
      <trkpt lat="62.7762" lon="6.99183">
        <ele>84.680114</ele>
        <time>2020-08-02T10:00:57.673Z</time>
      </trkpt>
      <trkpt lat="62.7763" lon="6.99183">
        <ele>84.718316</ele>
        <time>2020-08-02T10:01:01.667Z</time>
      </trkpt>
      <trkpt lat="62.77641" lon="6.99186">
        <ele>84.764446</ele>
        <time>2020-08-02T10:01:06.679Z</time>
      </trkpt>
      <trkpt lat="62.77651" lon="6.99188">
        <ele>84.806057</ele>
        <time>2020-08-02T10:01:10.648Z</time>
      </trkpt>
      <trkpt lat="62.77661" lon="6.9919">
        <ele>84.845701</ele>
        <time>2020-08-02T10:01:14.660Z</time>
      </trkpt>
      <trkpt lat="62.7767" lon="6.99192">
        <ele>84.882423</ele>
        <time>2020-08-02T10:01:18.687Z</time>
      </trkpt>
      <trkpt lat="62.7768" lon="6.99194">
        <ele>84.924127</ele>
        <time>2020-08-02T10:01:23.665Z</time>
      </trkpt>
      <trkpt lat="62.77691" lon="6.99196">
        <ele>84.976605</ele>
        <time>2020-08-02T10:01:28.674Z</time>
      </trkpt>
      <trkpt lat="62.77702" lon="6.992">
        <ele>85.217698</ele>
        <time>2020-08-02T10:01:33.676Z</time>
      </trkpt>
      <trkpt lat="62.77712" lon="6.99204">
        <ele>85.452249</ele>
        <time>2020-08-02T10:01:38.652Z</time>
      </trkpt>
      <trkpt lat="62.77722" lon="6.99209">
        <ele>85.688211</ele>
        <time>2020-08-02T10:01:43.679Z</time>
      </trkpt>
      <trkpt lat="62.77732" lon="6.99214">
        <ele>85.902133</ele>
        <time>2020-08-02T10:01:47.676Z</time>
      </trkpt>
      <trkpt lat="62.77741" lon="6.9922">
        <ele>86.112146</ele>
        <time>2020-08-02T10:01:50.691Z</time>
      </trkpt>
      <trkpt lat="62.7775" lon="6.99227">
        <ele>86.340373</ele>
        <time>2020-08-02T10:01:53.705Z</time>
      </trkpt>
      <trkpt lat="62.7776" lon="6.99236">
        <ele>86.565272</ele>
        <time>2020-08-02T10:01:56.667Z</time>
      </trkpt>
      <trkpt lat="62.7777" lon="6.99243">
        <ele>86.801978</ele>
        <time>2020-08-02T10:01:59.663Z</time>
      </trkpt>
      <trkpt lat="62.77781" lon="6.99252">
        <ele>87.07837</ele>
        <time>2020-08-02T10:02:02.668Z</time>
      </trkpt>
      <trkpt lat="62.77791" lon="6.99267">
        <ele>87.351371</ele>
        <time>2020-08-02T10:02:05.665Z</time>
      </trkpt>
      <trkpt lat="62.778" lon="6.99282">
        <ele>87.600244</ele>
        <time>2020-08-02T10:02:08.651Z</time>
      </trkpt>
      <trkpt lat="62.7781" lon="6.99293">
        <ele>87.842526</ele>
        <time>2020-08-02T10:02:11.657Z</time>
      </trkpt>
      <trkpt lat="62.77819" lon="6.99304">
        <ele>88.077469</ele>
        <time>2020-08-02T10:02:14.703Z</time>
      </trkpt>
      <trkpt lat="62.77827" lon="6.99317">
        <ele>88.304758</ele>
        <time>2020-08-02T10:02:17.669Z</time>
      </trkpt>
      <trkpt lat="62.77836" lon="6.99329">
        <ele>88.529762</ele>
        <time>2020-08-02T10:02:20.686Z</time>
      </trkpt>
      <trkpt lat="62.77845" lon="6.99341">
        <ele>88.761165</ele>
        <time>2020-08-02T10:02:23.666Z</time>
      </trkpt>
      <trkpt lat="62.77853" lon="6.99353">
        <ele>88.986654</ele>
        <time>2020-08-02T10:02:26.650Z</time>
      </trkpt>
      <trkpt lat="62.77861" lon="6.99364">
        <ele>89.221938</ele>
        <time>2020-08-02T10:02:29.663Z</time>
      </trkpt>
      <trkpt lat="62.7787" lon="6.99378">
        <ele>89.51175</ele>
        <time>2020-08-02T10:02:33.692Z</time>
      </trkpt>
      <trkpt lat="62.77879" lon="6.99391">
        <ele>89.792459</ele>
        <time>2020-08-02T10:02:37.701Z</time>
      </trkpt>
      <trkpt lat="62.77888" lon="6.99402">
        <ele>90.053393</ele>
        <time>2020-08-02T10:02:41.654Z</time>
      </trkpt>
      <trkpt lat="62.77895" lon="6.99413">
        <ele>90.28744</ele>
        <time>2020-08-02T10:02:45.660Z</time>
      </trkpt>
      <trkpt lat="62.77903" lon="6.99423">
        <ele>90.531984</ele>
        <time>2020-08-02T10:02:49.651Z</time>
      </trkpt>
      <trkpt lat="62.77912" lon="6.99429">
        <ele>90.772995</ele>
        <time>2020-08-02T10:02:53.656Z</time>
      </trkpt>
      <trkpt lat="62.77922" lon="6.99433">
        <ele>91.017304</ele>
        <time>2020-08-02T10:02:57.657Z</time>
      </trkpt>
      <trkpt lat="62.77929" lon="6.99443">
        <ele>91.24869</ele>
        <time>2020-08-02T10:03:01.713Z</time>
      </trkpt>
      <trkpt lat="62.77937" lon="6.99458">
        <ele>91.526161</ele>
        <time>2020-08-02T10:03:05.675Z</time>
      </trkpt>
      <trkpt lat="62.77944" lon="6.99477">
        <ele>91.798606</ele>
        <time>2020-08-02T10:03:09.668Z</time>
      </trkpt>
      <trkpt lat="62.77951" lon="6.99491">
        <ele>92.056921</ele>
        <time>2020-08-02T10:03:13.656Z</time>
      </trkpt>
      <trkpt lat="62.77959" lon="6.99505">
        <ele>92.312539</ele>
        <time>2020-08-02T10:03:17.656Z</time>
      </trkpt>
      <trkpt lat="62.77967" lon="6.99518">
        <ele>92.575772</ele>
        <time>2020-08-02T10:03:21.647Z</time>
      </trkpt>
      <trkpt lat="62.77975" lon="6.99531">
        <ele>92.840439</ele>
        <time>2020-08-02T10:03:25.671Z</time>
      </trkpt>
      <trkpt lat="62.77982" lon="6.99546">
        <ele>93.092795</ele>
        <time>2020-08-02T10:03:29.669Z</time>
      </trkpt>
      <trkpt lat="62.77989" lon="6.99561">
        <ele>93.349952</ele>
        <time>2020-08-02T10:03:33.680Z</time>
      </trkpt>
      <trkpt lat="62.77996" lon="6.99576">
        <ele>93.610384</ele>
        <time>2020-08-02T10:03:37.665Z</time>
      </trkpt>
      <trkpt lat="62.78005" lon="6.99591">
        <ele>93.908645</ele>
        <time>2020-08-02T10:03:41.686Z</time>
      </trkpt>
      <trkpt lat="62.78012" lon="6.99604">
        <ele>94.165869</ele>
        <time>2020-08-02T10:03:45.691Z</time>
      </trkpt>
      <trkpt lat="62.78019" lon="6.99617">
        <ele>94.439766</ele>
        <time>2020-08-02T10:03:49.669Z</time>
      </trkpt>
      <trkpt lat="62.78027" lon="6.99634">
        <ele>94.752026</ele>
        <time>2020-08-02T10:03:53.669Z</time>
      </trkpt>
      <trkpt lat="62.78035" lon="6.99651">
        <ele>95.063754</ele>
        <time>2020-08-02T10:03:57.695Z</time>
      </trkpt>
      <trkpt lat="62.78042" lon="6.9967">
        <ele>95.384326</ele>
        <time>2020-08-02T10:04:01.660Z</time>
      </trkpt>
      <trkpt lat="62.7805" lon="6.99688">
        <ele>95.714467</ele>
        <time>2020-08-02T10:04:05.682Z</time>
      </trkpt>
      <trkpt lat="62.78057" lon="6.99703">
        <ele>95.983397</ele>
        <time>2020-08-02T10:04:08.682Z</time>
      </trkpt>
      <trkpt lat="62.78063" lon="6.99719">
        <ele>96.263571</ele>
        <time>2020-08-02T10:04:11.673Z</time>
      </trkpt>
      <trkpt lat="62.7807" lon="6.99735">
        <ele>96.547625</ele>
        <time>2020-08-02T10:04:14.664Z</time>
      </trkpt>
      <trkpt lat="62.78076" lon="6.99753">
        <ele>96.831726</ele>
        <time>2020-08-02T10:04:17.653Z</time>
      </trkpt>
      <trkpt lat="62.78083" lon="6.99771">
        <ele>97.140875</ele>
        <time>2020-08-02T10:04:20.668Z</time>
      </trkpt>
      <trkpt lat="62.7809" lon="6.99791">
        <ele>97.465636</ele>
        <time>2020-08-02T10:04:23.673Z</time>
      </trkpt>
      <trkpt lat="62.78098" lon="6.99811">
        <ele>97.804811</ele>
        <time>2020-08-02T10:04:26.678Z</time>
      </trkpt>
      <trkpt lat="62.78106" lon="6.99832">
        <ele>98.153597</ele>
        <time>2020-08-02T10:04:29.682Z</time>
      </trkpt>
      <trkpt lat="62.78114" lon="6.99854">
        <ele>98.528776</ele>
        <time>2020-08-02T10:04:32.679Z</time>
      </trkpt>
      <trkpt lat="62.7812" lon="6.9987">
        <ele>98.650276</ele>
        <time>2020-08-02T10:04:34.673Z</time>
      </trkpt>
      <trkpt lat="62.78126" lon="6.99886">
        <ele>98.276499</ele>
        <time>2020-08-02T10:04:36.677Z</time>
      </trkpt>
      <trkpt lat="62.78133" lon="6.99901">
        <ele>97.893494</ele>
        <time>2020-08-02T10:04:38.707Z</time>
      </trkpt>
      <trkpt lat="62.78139" lon="6.99917">
        <ele>97.507622</ele>
        <time>2020-08-02T10:04:40.681Z</time>
      </trkpt>
      <trkpt lat="62.78145" lon="6.99934">
        <ele>97.127993</ele>
        <time>2020-08-02T10:04:42.666Z</time>
      </trkpt>
      <trkpt lat="62.78152" lon="6.9995">
        <ele>96.724668</ele>
        <time>2020-08-02T10:04:44.706Z</time>
      </trkpt>
      <trkpt lat="62.78161" lon="6.99966">
        <ele>96.262337</ele>
        <time>2020-08-02T10:04:46.665Z</time>
      </trkpt>
      <trkpt lat="62.78171" lon="6.99984">
        <ele>95.747409</ele>
        <time>2020-08-02T10:04:48.670Z</time>
      </trkpt>
      <trkpt lat="62.78177" lon="7.00011">
        <ele>95.191482</ele>
        <time>2020-08-02T10:04:50.660Z</time>
      </trkpt>
      <trkpt lat="62.78184" lon="7.00038">
        <ele>94.632062</ele>
        <time>2020-08-02T10:04:52.666Z</time>
      </trkpt>
      <trkpt lat="62.78193" lon="7.00064">
        <ele>94.047903</ele>
        <time>2020-08-02T10:04:54.673Z</time>
      </trkpt>
      <trkpt lat="62.78203" lon="7.00089">
        <ele>93.425607</ele>
        <time>2020-08-02T10:04:56.692Z</time>
      </trkpt>
      <trkpt lat="62.78213" lon="7.00117">
        <ele>92.786148</ele>
        <time>2020-08-02T10:04:58.666Z</time>
      </trkpt>
      <trkpt lat="62.78223" lon="7.00145">
        <ele>92.139586</ele>
        <time>2020-08-02T10:05:00.660Z</time>
      </trkpt>
      <trkpt lat="62.78234" lon="7.00172">
        <ele>91.545195</ele>
        <time>2020-08-02T10:05:02.656Z</time>
      </trkpt>
      <trkpt lat="62.78244" lon="7.00199">
        <ele>91.317744</ele>
        <time>2020-08-02T10:05:04.699Z</time>
      </trkpt>
      <trkpt lat="62.78254" lon="7.00227">
        <ele>91.094134</ele>
        <time>2020-08-02T10:05:06.657Z</time>
      </trkpt>
      <trkpt lat="62.78264" lon="7.00253">
        <ele>90.880814</ele>
        <time>2020-08-02T10:05:08.681Z</time>
      </trkpt>
      <trkpt lat="62.78272" lon="7.00278">
        <ele>90.680975</ele>
        <time>2020-08-02T10:05:10.656Z</time>
      </trkpt>
      <trkpt lat="62.78282" lon="7.00299">
        <ele>90.493358</ele>
        <time>2020-08-02T10:05:12.673Z</time>
      </trkpt>
      <trkpt lat="62.7829" lon="7.00318">
        <ele>90.321226</ele>
        <time>2020-08-02T10:05:14.677Z</time>
      </trkpt>
      <trkpt lat="62.78298" lon="7.00337">
        <ele>90.16223</ele>
        <time>2020-08-02T10:05:16.680Z</time>
      </trkpt>
      <trkpt lat="62.78304" lon="7.00355">
        <ele>90.021863</ele>
        <time>2020-08-02T10:05:18.664Z</time>
      </trkpt>
      <trkpt lat="62.7831" lon="7.00371">
        <ele>89.890285</ele>
        <time>2020-08-02T10:05:20.674Z</time>
      </trkpt>
      <trkpt lat="62.78315" lon="7.00387">
        <ele>89.765296</ele>
        <time>2020-08-02T10:05:22.705Z</time>
      </trkpt>
      <trkpt lat="62.78323" lon="7.00409">
        <ele>89.586434</ele>
        <time>2020-08-02T10:05:25.668Z</time>
      </trkpt>
      <trkpt lat="62.7833" lon="7.0043">
        <ele>89.41918</ele>
        <time>2020-08-02T10:05:28.701Z</time>
      </trkpt>
      <trkpt lat="62.78338" lon="7.0045">
        <ele>89.25315</ele>
        <time>2020-08-02T10:05:31.662Z</time>
      </trkpt>
      <trkpt lat="62.78345" lon="7.0047">
        <ele>89.087879</ele>
        <time>2020-08-02T10:05:34.670Z</time>
      </trkpt>
      <trkpt lat="62.78352" lon="7.0049">
        <ele>89.261443</ele>
        <time>2020-08-02T10:05:37.708Z</time>
      </trkpt>
      <trkpt lat="62.78359" lon="7.0051">
        <ele>89.475154</ele>
        <time>2020-08-02T10:05:40.716Z</time>
      </trkpt>
      <trkpt lat="62.78365" lon="7.00529">
        <ele>89.677238</ele>
        <time>2020-08-02T10:05:43.672Z</time>
      </trkpt>
      <trkpt lat="62.7837" lon="7.00549">
        <ele>89.885208</ele>
        <time>2020-08-02T10:05:46.679Z</time>
      </trkpt>
      <trkpt lat="62.78376" lon="7.00569">
        <ele>90.091907</ele>
        <time>2020-08-02T10:05:49.657Z</time>
      </trkpt>
      <trkpt lat="62.78381" lon="7.0059">
        <ele>90.30814</ele>
        <time>2020-08-02T10:05:52.687Z</time>
      </trkpt>
      <trkpt lat="62.78387" lon="7.00612">
        <ele>90.528361</ele>
        <time>2020-08-02T10:05:55.655Z</time>
      </trkpt>
      <trkpt lat="62.78392" lon="7.00632">
        <ele>90.731907</ele>
        <time>2020-08-02T10:05:58.683Z</time>
      </trkpt>
      <trkpt lat="62.78398" lon="7.00653">
        <ele>90.944444</ele>
        <time>2020-08-02T10:06:01.653Z</time>
      </trkpt>
      <trkpt lat="62.78404" lon="7.00673">
        <ele>91.152739</ele>
        <time>2020-08-02T10:06:04.696Z</time>
      </trkpt>
      <trkpt lat="62.7841" lon="7.00691">
        <ele>91.360431</ele>
        <time>2020-08-02T10:06:07.659Z</time>
      </trkpt>
      <trkpt lat="62.78418" lon="7.00709">
        <ele>91.56861</ele>
        <time>2020-08-02T10:06:10.666Z</time>
      </trkpt>
      <trkpt lat="62.78426" lon="7.00726">
        <ele>91.790619</ele>
        <time>2020-08-02T10:06:13.672Z</time>
      </trkpt>
      <trkpt lat="62.78434" lon="7.00744">
        <ele>92.015088</ele>
        <time>2020-08-02T10:06:16.666Z</time>
      </trkpt>
      <trkpt lat="62.78443" lon="7.00766">
        <ele>92.267017</ele>
        <time>2020-08-02T10:06:19.667Z</time>
      </trkpt>
      <trkpt lat="62.7845" lon="7.00788">
        <ele>92.51425</ele>
        <time>2020-08-02T10:06:22.665Z</time>
      </trkpt>
      <trkpt lat="62.78457" lon="7.00803">
        <ele>92.621081</ele>
        <time>2020-08-02T10:06:24.670Z</time>
      </trkpt>
      <trkpt lat="62.78464" lon="7.00818">
        <ele>92.721067</ele>
        <time>2020-08-02T10:06:26.677Z</time>
      </trkpt>
      <trkpt lat="62.78471" lon="7.00834">
        <ele>92.829348</ele>
        <time>2020-08-02T10:06:28.669Z</time>
      </trkpt>
      <trkpt lat="62.78478" lon="7.00851">
        <ele>92.937953</ele>
        <time>2020-08-02T10:06:30.667Z</time>
      </trkpt>
      <trkpt lat="62.78484" lon="7.00867">
        <ele>93.041024</ele>
        <time>2020-08-02T10:06:32.664Z</time>
      </trkpt>
      <trkpt lat="62.7849" lon="7.00884">
        <ele>93.145131</ele>
        <time>2020-08-02T10:06:34.693Z</time>
      </trkpt>
      <trkpt lat="62.78497" lon="7.00901">
        <ele>93.249912</ele>
        <time>2020-08-02T10:06:36.682Z</time>
      </trkpt>
      <trkpt lat="62.78504" lon="7.00917">
        <ele>93.353953</ele>
        <time>2020-08-02T10:06:38.665Z</time>
      </trkpt>
      <trkpt lat="62.78511" lon="7.00934">
        <ele>93.465366</ele>
        <time>2020-08-02T10:06:40.688Z</time>
      </trkpt>
      <trkpt lat="62.78518" lon="7.0095">
        <ele>93.575028</ele>
        <time>2020-08-02T10:06:42.684Z</time>
      </trkpt>
      <trkpt lat="62.78525" lon="7.00967">
        <ele>93.680102</ele>
        <time>2020-08-02T10:06:44.671Z</time>
      </trkpt>
      <trkpt lat="62.78531" lon="7.00985">
        <ele>93.789042</ele>
        <time>2020-08-02T10:06:46.665Z</time>
      </trkpt>
      <trkpt lat="62.78538" lon="7.01002">
        <ele>93.894334</ele>
        <time>2020-08-02T10:06:48.723Z</time>
      </trkpt>
      <trkpt lat="62.78544" lon="7.01018">
        <ele>93.992403</ele>
        <time>2020-08-02T10:06:50.664Z</time>
      </trkpt>
      <trkpt lat="62.78552" lon="7.01039">
        <ele>94.130648</ele>
        <time>2020-08-02T10:06:53.667Z</time>
      </trkpt>
      <trkpt lat="62.78561" lon="7.0106">
        <ele>94.262223</ele>
        <time>2020-08-02T10:06:56.699Z</time>
      </trkpt>
      <trkpt lat="62.78569" lon="7.0108">
        <ele>94.388091</ele>
        <time>2020-08-02T10:06:59.664Z</time>
      </trkpt>
      <trkpt lat="62.78577" lon="7.01101">
        <ele>94.28763</ele>
        <time>2020-08-02T10:07:02.663Z</time>
      </trkpt>
      <trkpt lat="62.78584" lon="7.01122">
        <ele>94.136269</ele>
        <time>2020-08-02T10:07:05.681Z</time>
      </trkpt>
      <trkpt lat="62.78592" lon="7.01145">
        <ele>93.971432</ele>
        <time>2020-08-02T10:07:08.664Z</time>
      </trkpt>
      <trkpt lat="62.78598" lon="7.0116">
        <ele>93.856419</ele>
        <time>2020-08-02T10:07:10.678Z</time>
      </trkpt>
      <trkpt lat="62.78604" lon="7.01176">
        <ele>93.738799</ele>
        <time>2020-08-02T10:07:12.665Z</time>
      </trkpt>
      <trkpt lat="62.78611" lon="7.01192">
        <ele>93.615274</ele>
        <time>2020-08-02T10:07:14.695Z</time>
      </trkpt>
      <trkpt lat="62.78618" lon="7.01209">
        <ele>93.485091</ele>
        <time>2020-08-02T10:07:16.670Z</time>
      </trkpt>
      <trkpt lat="62.78625" lon="7.01226">
        <ele>93.353226</ele>
        <time>2020-08-02T10:07:18.690Z</time>
      </trkpt>
      <trkpt lat="62.78632" lon="7.01242">
        <ele>93.225564</ele>
        <time>2020-08-02T10:07:20.667Z</time>
      </trkpt>
      <trkpt lat="62.78638" lon="7.01257">
        <ele>93.113071</ele>
        <time>2020-08-02T10:07:22.667Z</time>
      </trkpt>
      <trkpt lat="62.78645" lon="7.01278">
        <ele>92.969469</ele>
        <time>2020-08-02T10:07:25.666Z</time>
      </trkpt>
      <trkpt lat="62.7865" lon="7.01295">
        <ele>92.848377</ele>
        <time>2020-08-02T10:07:28.656Z</time>
      </trkpt>
      <trkpt lat="62.78656" lon="7.01312">
        <ele>92.728028</ele>
        <time>2020-08-02T10:07:31.671Z</time>
      </trkpt>
      <trkpt lat="62.78662" lon="7.0133">
        <ele>92.598553</ele>
        <time>2020-08-02T10:07:34.716Z</time>
      </trkpt>
      <trkpt lat="62.78667" lon="7.01352">
        <ele>92.455498</ele>
        <time>2020-08-02T10:07:37.676Z</time>
      </trkpt>
      <trkpt lat="62.78675" lon="7.01376">
        <ele>92.292825</ele>
        <time>2020-08-02T10:07:40.679Z</time>
      </trkpt>
      <trkpt lat="62.78688" lon="7.01384">
        <ele>92.125191</ele>
        <time>2020-08-02T10:07:43.663Z</time>
      </trkpt>
      <trkpt lat="62.78697" lon="7.01376">
        <ele>92.022001</ele>
        <time>2020-08-02T10:07:45.678Z</time>
      </trkpt>
      <trkpt lat="62.78705" lon="7.01367">
        <ele>91.920171</ele>
        <time>2020-08-02T10:07:47.731Z</time>
      </trkpt>
      <trkpt lat="62.78714" lon="7.01359">
        <ele>91.815188</ele>
        <time>2020-08-02T10:07:49.675Z</time>
      </trkpt>
      <trkpt lat="62.78723" lon="7.0135">
        <ele>91.708014</ele>
        <time>2020-08-02T10:07:51.692Z</time>
      </trkpt>
      <trkpt lat="62.78733" lon="7.01342">
        <ele>91.594995</ele>
        <time>2020-08-02T10:07:53.675Z</time>
      </trkpt>
      <trkpt lat="62.78743" lon="7.01334">
        <ele>91.479412</ele>
        <time>2020-08-02T10:07:55.674Z</time>
      </trkpt>
      <trkpt lat="62.78753" lon="7.01325">
        <ele>91.358593</ele>
        <time>2020-08-02T10:07:57.680Z</time>
      </trkpt>
      <trkpt lat="62.78764" lon="7.01317">
        <ele>91.237618</ele>
        <time>2020-08-02T10:07:59.677Z</time>
      </trkpt>
      <trkpt lat="62.78774" lon="7.01308">
        <ele>91.11525</ele>
        <time>2020-08-02T10:08:01.689Z</time>
      </trkpt>
      <trkpt lat="62.78785" lon="7.01298">
        <ele>90.995955</ele>
        <time>2020-08-02T10:08:03.673Z</time>
      </trkpt>
      <trkpt lat="62.78794" lon="7.01289">
        <ele>90.878449</ele>
        <time>2020-08-02T10:08:05.696Z</time>
      </trkpt>
      <trkpt lat="62.78804" lon="7.01281">
        <ele>90.771916</ele>
        <time>2020-08-02T10:08:07.650Z</time>
      </trkpt>
      <trkpt lat="62.78812" lon="7.01273">
        <ele>90.674089</ele>
        <time>2020-08-02T10:08:09.670Z</time>
      </trkpt>
      <trkpt lat="62.78824" lon="7.01263">
        <ele>90.534293</ele>
        <time>2020-08-02T10:08:12.688Z</time>
      </trkpt>
      <trkpt lat="62.78836" lon="7.01252">
        <ele>90.393227</ele>
        <time>2020-08-02T10:08:15.659Z</time>
      </trkpt>
      <trkpt lat="62.78848" lon="7.01241">
        <ele>90.251855</ele>
        <time>2020-08-02T10:08:18.671Z</time>
      </trkpt>
      <trkpt lat="62.7886" lon="7.01231">
        <ele>90.426798</ele>
        <time>2020-08-02T10:08:21.661Z</time>
      </trkpt>
      <trkpt lat="62.78871" lon="7.0122">
        <ele>90.690229</ele>
        <time>2020-08-02T10:08:24.675Z</time>
      </trkpt>
      <trkpt lat="62.78881" lon="7.01211">
        <ele>90.93231</ele>
        <time>2020-08-02T10:08:27.672Z</time>
      </trkpt>
      <trkpt lat="62.78891" lon="7.01201">
        <ele>91.164326</ele>
        <time>2020-08-02T10:08:30.670Z</time>
      </trkpt>
      <trkpt lat="62.789" lon="7.01192">
        <ele>91.399559</ele>
        <time>2020-08-02T10:08:34.665Z</time>
      </trkpt>
      <trkpt lat="62.78909" lon="7.01184">
        <ele>91.609827</ele>
        <time>2020-08-02T10:08:38.684Z</time>
      </trkpt>
      <trkpt lat="62.78918" lon="7.01174">
        <ele>91.833697</ele>
        <time>2020-08-02T10:08:42.673Z</time>
      </trkpt>
      <trkpt lat="62.78927" lon="7.01164">
        <ele>92.0547</ele>
        <time>2020-08-02T10:08:46.676Z</time>
      </trkpt>
      <trkpt lat="62.78937" lon="7.01154">
        <ele>92.292419</ele>
        <time>2020-08-02T10:08:51.672Z</time>
      </trkpt>
      <trkpt lat="62.78947" lon="7.01143">
        <ele>92.532144</ele>
        <time>2020-08-02T10:08:56.667Z</time>
      </trkpt>
      <trkpt lat="62.78956" lon="7.01134">
        <ele>92.744433</ele>
        <time>2020-08-02T10:09:00.683Z</time>
      </trkpt>
      <trkpt lat="62.78964" lon="7.01126">
        <ele>92.953484</ele>
        <time>2020-08-02T10:09:04.678Z</time>
      </trkpt>
      <trkpt lat="62.78973" lon="7.01114">
        <ele>93.183635</ele>
        <time>2020-08-02T10:09:08.685Z</time>
      </trkpt>
      <trkpt lat="62.78983" lon="7.01102">
        <ele>93.436827</ele>
        <time>2020-08-02T10:09:12.674Z</time>
      </trkpt>
      <trkpt lat="62.78992" lon="7.01089">
        <ele>93.658353</ele>
        <time>2020-08-02T10:09:15.672Z</time>
      </trkpt>
      <trkpt lat="62.79" lon="7.01073">
        <ele>93.911608</ele>
        <time>2020-08-02T10:09:18.671Z</time>
      </trkpt>
      <trkpt lat="62.7901" lon="7.01056">
        <ele>94.164202</ele>
        <time>2020-08-02T10:09:21.696Z</time>
      </trkpt>
      <trkpt lat="62.79018" lon="7.01039">
        <ele>94.011492</ele>
        <time>2020-08-02T10:09:24.668Z</time>
      </trkpt>
      <trkpt lat="62.79025" lon="7.01022">
        <ele>93.871713</ele>
        <time>2020-08-02T10:09:27.673Z</time>
      </trkpt>
      <trkpt lat="62.7903" lon="7.01005">
        <ele>93.742297</ele>
        <time>2020-08-02T10:09:30.668Z</time>
      </trkpt>
      <trkpt lat="62.79037" lon="7.00989">
        <ele>93.604398</ele>
        <time>2020-08-02T10:09:33.702Z</time>
      </trkpt>
      <trkpt lat="62.79043" lon="7.00972">
        <ele>93.467751</ele>
        <time>2020-08-02T10:09:36.673Z</time>
      </trkpt>
      <trkpt lat="62.7905" lon="7.00954">
        <ele>93.32376</ele>
        <time>2020-08-02T10:09:39.675Z</time>
      </trkpt>
      <trkpt lat="62.79057" lon="7.00936">
        <ele>93.175917</ele>
        <time>2020-08-02T10:09:42.667Z</time>
      </trkpt>
      <trkpt lat="62.79063" lon="7.00917">
        <ele>93.034453</ele>
        <time>2020-08-02T10:09:45.659Z</time>
      </trkpt>
      <trkpt lat="62.79068" lon="7.00899">
        <ele>92.895287</ele>
        <time>2020-08-02T10:09:48.709Z</time>
      </trkpt>
      <trkpt lat="62.79074" lon="7.0088">
        <ele>92.754082</ele>
        <time>2020-08-02T10:09:51.670Z</time>
      </trkpt>
      <trkpt lat="62.7908" lon="7.00862">
        <ele>92.614251</ele>
        <time>2020-08-02T10:09:54.668Z</time>
      </trkpt>
      <trkpt lat="62.79087" lon="7.00843">
        <ele>92.465556</ele>
        <time>2020-08-02T10:09:57.687Z</time>
      </trkpt>
      <trkpt lat="62.79092" lon="7.00821">
        <ele>92.309024</ele>
        <time>2020-08-02T10:10:00.694Z</time>
      </trkpt>
      <trkpt lat="62.791" lon="7.00799">
        <ele>92.138189</ele>
        <time>2020-08-02T10:10:03.657Z</time>
      </trkpt>
      <trkpt lat="62.79107" lon="7.00776">
        <ele>91.961246</ele>
        <time>2020-08-02T10:10:06.690Z</time>
      </trkpt>
      <trkpt lat="62.79114" lon="7.00751">
        <ele>91.778232</ele>
        <time>2020-08-02T10:10:09.677Z</time>
      </trkpt>
      <trkpt lat="62.79122" lon="7.00727">
        <ele>91.749225</ele>
        <time>2020-08-02T10:10:12.668Z</time>
      </trkpt>
      <trkpt lat="62.79128" lon="7.00703">
        <ele>91.805148</ele>
        <time>2020-08-02T10:10:15.673Z</time>
      </trkpt>
      <trkpt lat="62.79135" lon="7.00677">
        <ele>91.862455</ele>
        <time>2020-08-02T10:10:18.689Z</time>
      </trkpt>
      <trkpt lat="62.79141" lon="7.00654">
        <ele>91.915032</ele>
        <time>2020-08-02T10:10:21.676Z</time>
      </trkpt>
      <trkpt lat="62.79147" lon="7.00631">
        <ele>91.966572</ele>
        <time>2020-08-02T10:10:24.656Z</time>
      </trkpt>
      <trkpt lat="62.79153" lon="7.00611">
        <ele>92.014881</ele>
        <time>2020-08-02T10:10:27.712Z</time>
      </trkpt>
      <trkpt lat="62.7916" lon="7.00591">
        <ele>92.063377</ele>
        <time>2020-08-02T10:10:30.663Z</time>
      </trkpt>
      <trkpt lat="62.79168" lon="7.00575">
        <ele>92.11104</ele>
        <time>2020-08-02T10:10:33.667Z</time>
      </trkpt>
      <trkpt lat="62.79177" lon="7.0056">
        <ele>92.159181</ele>
        <time>2020-08-02T10:10:36.680Z</time>
      </trkpt>
      <trkpt lat="62.79187" lon="7.00547">
        <ele>92.208947</ele>
        <time>2020-08-02T10:10:39.677Z</time>
      </trkpt>
      <trkpt lat="62.79196" lon="7.00532">
        <ele>92.259925</ele>
        <time>2020-08-02T10:10:42.703Z</time>
      </trkpt>
      <trkpt lat="62.79206" lon="7.00517">
        <ele>92.31177</ele>
        <time>2020-08-02T10:10:45.675Z</time>
      </trkpt>
      <trkpt lat="62.79217" lon="7.00502">
        <ele>92.366709</ele>
        <time>2020-08-02T10:10:48.657Z</time>
      </trkpt>
      <trkpt lat="62.79228" lon="7.00488">
        <ele>92.420968</ele>
        <time>2020-08-02T10:10:51.658Z</time>
      </trkpt>
      <trkpt lat="62.79238" lon="7.00474">
        <ele>92.473082</ele>
        <time>2020-08-02T10:10:54.689Z</time>
      </trkpt>
      <trkpt lat="62.79247" lon="7.0046">
        <ele>92.818892</ele>
        <time>2020-08-02T10:10:57.662Z</time>
      </trkpt>
      <trkpt lat="62.79256" lon="7.00443">
        <ele>93.295379</ele>
        <time>2020-08-02T10:11:00.679Z</time>
      </trkpt>
      <trkpt lat="62.79265" lon="7.00425">
        <ele>93.790005</ele>
        <time>2020-08-02T10:11:03.679Z</time>
      </trkpt>
      <trkpt lat="62.79274" lon="7.00406">
        <ele>94.282377</ele>
        <time>2020-08-02T10:11:06.658Z</time>
      </trkpt>
      <trkpt lat="62.79281" lon="7.00387">
        <ele>94.746053</ele>
        <time>2020-08-02T10:11:09.679Z</time>
      </trkpt>
      <trkpt lat="62.79288" lon="7.00367">
        <ele>95.226468</ele>
        <time>2020-08-02T10:11:12.668Z</time>
      </trkpt>
      <trkpt lat="62.79295" lon="7.00347">
        <ele>95.699748</ele>
        <time>2020-08-02T10:11:15.678Z</time>
      </trkpt>
      <trkpt lat="62.79302" lon="7.00327">
        <ele>96.157286</ele>
        <time>2020-08-02T10:11:18.680Z</time>
      </trkpt>
      <trkpt lat="62.79309" lon="7.00307">
        <ele>96.634802</ele>
        <time>2020-08-02T10:11:21.678Z</time>
      </trkpt>
      <trkpt lat="62.79317" lon="7.00285">
        <ele>97.15624</ele>
        <time>2020-08-02T10:11:24.683Z</time>
      </trkpt>
      <trkpt lat="62.79323" lon="7.00262">
        <ele>97.660122</ele>
        <time>2020-08-02T10:11:27.709Z</time>
      </trkpt>
      <trkpt lat="62.79331" lon="7.0024">
        <ele>98.170722</ele>
        <time>2020-08-02T10:11:30.690Z</time>
      </trkpt>
      <trkpt lat="62.79338" lon="7.00218">
        <ele>98.672873</ele>
        <time>2020-08-02T10:11:33.687Z</time>
      </trkpt>
      <trkpt lat="62.79345" lon="7.00197">
        <ele>99.141877</ele>
        <time>2020-08-02T10:11:36.697Z</time>
      </trkpt>
      <trkpt lat="62.79351" lon="7.00177">
        <ele>99.608761</ele>
        <time>2020-08-02T10:11:39.673Z</time>
      </trkpt>
      <trkpt lat="62.79358" lon="7.00156">
        <ele>99.849429</ele>
        <time>2020-08-02T10:11:42.676Z</time>
      </trkpt>
      <trkpt lat="62.79364" lon="7.00135">
        <ele>99.87942</ele>
        <time>2020-08-02T10:11:45.675Z</time>
      </trkpt>
      <trkpt lat="62.79371" lon="7.00114">
        <ele>99.908947</ele>
        <time>2020-08-02T10:11:48.678Z</time>
      </trkpt>
      <trkpt lat="62.79378" lon="7.00093">
        <ele>99.941014</ele>
        <time>2020-08-02T10:11:51.694Z</time>
      </trkpt>
      <trkpt lat="62.79384" lon="7.00077">
        <ele>99.964473</ele>
        <time>2020-08-02T10:11:53.662Z</time>
      </trkpt>
      <trkpt lat="62.79389" lon="7.0006">
        <ele>99.988979</ele>
        <time>2020-08-02T10:11:55.655Z</time>
      </trkpt>
      <trkpt lat="62.79394" lon="7.00043">
        <ele>100.013037</ele>
        <time>2020-08-02T10:11:57.669Z</time>
      </trkpt>
      <trkpt lat="62.79402" lon="7.00021">
        <ele>100.045769</ele>
        <time>2020-08-02T10:12:00.679Z</time>
      </trkpt>
      <trkpt lat="62.79409" lon="6.99998">
        <ele>100.079852</ele>
        <time>2020-08-02T10:12:03.666Z</time>
      </trkpt>
      <trkpt lat="62.79415" lon="6.99976">
        <ele>100.109503</ele>
        <time>2020-08-02T10:12:06.706Z</time>
      </trkpt>
      <trkpt lat="62.79421" lon="6.99954">
        <ele>100.140014</ele>
        <time>2020-08-02T10:12:09.667Z</time>
      </trkpt>
      <trkpt lat="62.79426" lon="6.99933">
        <ele>100.168503</ele>
        <time>2020-08-02T10:12:12.677Z</time>
      </trkpt>
      <trkpt lat="62.79432" lon="6.99911">
        <ele>100.198575</ele>
        <time>2020-08-02T10:12:15.655Z</time>
      </trkpt>
      <trkpt lat="62.79437" lon="6.99887">
        <ele>100.229865</ele>
        <time>2020-08-02T10:12:18.690Z</time>
      </trkpt>
      <trkpt lat="62.79442" lon="6.99863">
        <ele>100.26199</ele>
        <time>2020-08-02T10:12:21.671Z</time>
      </trkpt>
      <trkpt lat="62.79448" lon="6.99838">
        <ele>100.29541</ele>
        <time>2020-08-02T10:12:24.670Z</time>
      </trkpt>
      <trkpt lat="62.79453" lon="6.99814">
        <ele>100.314335</ele>
        <time>2020-08-02T10:12:27.662Z</time>
      </trkpt>
      <trkpt lat="62.79458" lon="6.9979">
        <ele>100.331173</ele>
        <time>2020-08-02T10:12:30.691Z</time>
      </trkpt>
      <trkpt lat="62.79463" lon="6.99766">
        <ele>100.349012</ele>
        <time>2020-08-02T10:12:33.670Z</time>
      </trkpt>
      <trkpt lat="62.79469" lon="6.99742">
        <ele>100.366333</ele>
        <time>2020-08-02T10:12:36.684Z</time>
      </trkpt>
      <trkpt lat="62.79474" lon="6.99717">
        <ele>100.38399</ele>
        <time>2020-08-02T10:12:39.675Z</time>
      </trkpt>
      <trkpt lat="62.7948" lon="6.99692">
        <ele>100.401833</ele>
        <time>2020-08-02T10:12:42.679Z</time>
      </trkpt>
      <trkpt lat="62.79483" lon="6.99674">
        <ele>100.414581</ele>
        <time>2020-08-02T10:12:44.706Z</time>
      </trkpt>
      <trkpt lat="62.79489" lon="6.99646">
        <ele>100.434122</ele>
        <time>2020-08-02T10:12:47.674Z</time>
      </trkpt>
      <trkpt lat="62.79492" lon="6.99626">
        <ele>100.4477</ele>
        <time>2020-08-02T10:12:49.685Z</time>
      </trkpt>
      <trkpt lat="62.79496" lon="6.99608">
        <ele>100.460511</ele>
        <time>2020-08-02T10:12:51.666Z</time>
      </trkpt>
      <trkpt lat="62.79499" lon="6.99588">
        <ele>100.473792</ele>
        <time>2020-08-02T10:12:53.666Z</time>
      </trkpt>
      <trkpt lat="62.79503" lon="6.99569">
        <ele>100.487596</ele>
        <time>2020-08-02T10:12:55.728Z</time>
      </trkpt>
      <trkpt lat="62.79507" lon="6.99549">
        <ele>100.501286</ele>
        <time>2020-08-02T10:12:57.709Z</time>
      </trkpt>
      <trkpt lat="62.79511" lon="6.99529">
        <ele>100.515264</ele>
        <time>2020-08-02T10:12:59.678Z</time>
      </trkpt>
      <trkpt lat="62.79515" lon="6.99509">
        <ele>100.528949</ele>
        <time>2020-08-02T10:13:01.665Z</time>
      </trkpt>
      <trkpt lat="62.79518" lon="6.9949">
        <ele>100.542057</ele>
        <time>2020-08-02T10:13:03.674Z</time>
      </trkpt>
      <trkpt lat="62.79522" lon="6.99472">
        <ele>100.521806</ele>
        <time>2020-08-02T10:13:05.665Z</time>
      </trkpt>
      <trkpt lat="62.79526" lon="6.99453">
        <ele>100.274748</ele>
        <time>2020-08-02T10:13:07.694Z</time>
      </trkpt>
      <trkpt lat="62.7953" lon="6.99434">
        <ele>100.019599</ele>
        <time>2020-08-02T10:13:09.682Z</time>
      </trkpt>
      <trkpt lat="62.79536" lon="6.99415">
        <ele>99.750193</ele>
        <time>2020-08-02T10:13:11.676Z</time>
      </trkpt>
      <trkpt lat="62.79541" lon="6.99397">
        <ele>99.494004</ele>
        <time>2020-08-02T10:13:13.666Z</time>
      </trkpt>
      <trkpt lat="62.79546" lon="6.9938">
        <ele>99.247429</ele>
        <time>2020-08-02T10:13:15.670Z</time>
      </trkpt>
      <trkpt lat="62.79555" lon="6.99358">
        <ele>98.904792</ele>
        <time>2020-08-02T10:13:18.660Z</time>
      </trkpt>
      <trkpt lat="62.79564" lon="6.99348">
        <ele>98.636063</ele>
        <time>2020-08-02T10:13:20.680Z</time>
      </trkpt>
      <trkpt lat="62.79575" lon="6.99344">
        <ele>98.356016</ele>
        <time>2020-08-02T10:13:22.678Z</time>
      </trkpt>
      <trkpt lat="62.79585" lon="6.99345">
        <ele>98.096101</ele>
        <time>2020-08-02T10:13:24.692Z</time>
      </trkpt>
      <trkpt lat="62.79595" lon="6.99351">
        <ele>97.82846</ele>
        <time>2020-08-02T10:13:26.669Z</time>
      </trkpt>
      <trkpt lat="62.79605" lon="6.99358">
        <ele>97.550424</ele>
        <time>2020-08-02T10:13:28.718Z</time>
      </trkpt>
      <trkpt lat="62.79615" lon="6.99366">
        <ele>97.25407</ele>
        <time>2020-08-02T10:13:30.684Z</time>
      </trkpt>
      <trkpt lat="62.79626" lon="6.99376">
        <ele>96.954699</ele>
        <time>2020-08-02T10:13:32.682Z</time>
      </trkpt>
      <trkpt lat="62.79636" lon="6.99384">
        <ele>96.662075</ele>
        <time>2020-08-02T10:13:34.668Z</time>
      </trkpt>
      <trkpt lat="62.79646" lon="6.99392">
        <ele>96.385425</ele>
        <time>2020-08-02T10:13:36.686Z</time>
      </trkpt>
      <trkpt lat="62.79656" lon="6.994">
        <ele>96.117386</ele>
        <time>2020-08-02T10:13:38.678Z</time>
      </trkpt>
      <trkpt lat="62.79664" lon="6.99407">
        <ele>95.877494</ele>
        <time>2020-08-02T10:13:40.706Z</time>
      </trkpt>
      <trkpt lat="62.79676" lon="6.99417">
        <ele>96.209313</ele>
        <time>2020-08-02T10:13:43.667Z</time>
      </trkpt>
      <trkpt lat="62.79684" lon="6.99425">
        <ele>96.533123</ele>
        <time>2020-08-02T10:13:46.688Z</time>
      </trkpt>
      <trkpt lat="62.79693" lon="6.99433">
        <ele>96.865754</ele>
        <time>2020-08-02T10:13:49.675Z</time>
      </trkpt>
      <trkpt lat="62.79704" lon="6.99441">
        <ele>97.2508</ele>
        <time>2020-08-02T10:13:53.653Z</time>
      </trkpt>
      <trkpt lat="62.79715" lon="6.99451">
        <ele>97.635006</ele>
        <time>2020-08-02T10:13:57.694Z</time>
      </trkpt>
      <trkpt lat="62.79725" lon="6.99458">
        <ele>98.010116</ele>
        <time>2020-08-02T10:14:01.692Z</time>
      </trkpt>
      <trkpt lat="62.79736" lon="6.99466">
        <ele>98.4102</ele>
        <time>2020-08-02T10:14:05.667Z</time>
      </trkpt>
      <trkpt lat="62.79746" lon="6.99473">
        <ele>98.740862</ele>
        <time>2020-08-02T10:14:08.680Z</time>
      </trkpt>
      <trkpt lat="62.79754" lon="6.99481">
        <ele>99.060944</ele>
        <time>2020-08-02T10:14:11.686Z</time>
      </trkpt>
      <trkpt lat="62.79765" lon="6.99488">
        <ele>99.442981</ele>
        <time>2020-08-02T10:14:15.690Z</time>
      </trkpt>
      <trkpt lat="62.79774" lon="6.99495">
        <ele>99.764923</ele>
        <time>2020-08-02T10:14:19.684Z</time>
      </trkpt>
      <trkpt lat="62.79784" lon="6.99503">
        <ele>100.133491</ele>
        <time>2020-08-02T10:14:24.666Z</time>
      </trkpt>
      <trkpt lat="62.79793" lon="6.9951">
        <ele>100.456941</ele>
        <time>2020-08-02T10:14:29.676Z</time>
      </trkpt>
      <trkpt lat="62.79803" lon="6.99517">
        <ele>100.817709</ele>
        <time>2020-08-02T10:14:35.674Z</time>
      </trkpt>
      <trkpt lat="62.79812" lon="6.99525">
        <ele>101.133191</ele>
        <time>2020-08-02T10:14:40.661Z</time>
      </trkpt>
      <trkpt lat="62.79822" lon="6.9953">
        <ele>101.494338</ele>
        <time>2020-08-02T10:14:45.668Z</time>
      </trkpt>
      <trkpt lat="62.79834" lon="6.99533">
        <ele>101.875155</ele>
        <time>2020-08-02T10:14:50.735Z</time>
      </trkpt>
      <trkpt lat="62.79844" lon="6.99536">
        <ele>101.80577</ele>
        <time>2020-08-02T10:14:54.713Z</time>
      </trkpt>
      <trkpt lat="62.79855" lon="6.99538">
        <ele>101.632139</ele>
        <time>2020-08-02T10:14:57.677Z</time>
      </trkpt>
      <trkpt lat="62.79864" lon="6.99542">
        <ele>101.489114</ele>
        <time>2020-08-02T10:14:59.666Z</time>
      </trkpt>
      <trkpt lat="62.79874" lon="6.99549">
        <ele>101.326034</ele>
        <time>2020-08-02T10:15:01.742Z</time>
      </trkpt>
      <trkpt lat="62.79885" lon="6.99559">
        <ele>101.141761</ele>
        <time>2020-08-02T10:15:03.659Z</time>
      </trkpt>
      <trkpt lat="62.79895" lon="6.99574">
        <ele>100.947084</ele>
        <time>2020-08-02T10:15:05.682Z</time>
      </trkpt>
      <trkpt lat="62.79904" lon="6.99594">
        <ele>100.737569</ele>
        <time>2020-08-02T10:15:07.684Z</time>
      </trkpt>
      <trkpt lat="62.79911" lon="6.99619">
        <ele>100.527768</ele>
        <time>2020-08-02T10:15:09.676Z</time>
      </trkpt>
      <trkpt lat="62.79915" lon="6.99647">
        <ele>100.320103</ele>
        <time>2020-08-02T10:15:11.677Z</time>
      </trkpt>
      <trkpt lat="62.79918" lon="6.99675">
        <ele>100.113325</ele>
        <time>2020-08-02T10:15:13.664Z</time>
      </trkpt>
      <trkpt lat="62.7992" lon="6.99701">
        <ele>99.917132</ele>
        <time>2020-08-02T10:15:15.671Z</time>
      </trkpt>
      <trkpt lat="62.79922" lon="6.99727">
        <ele>99.727651</ele>
        <time>2020-08-02T10:15:17.686Z</time>
      </trkpt>
      <trkpt lat="62.79925" lon="6.9975">
        <ele>99.554816</ele>
        <time>2020-08-02T10:15:19.671Z</time>
      </trkpt>
      <trkpt lat="62.79928" lon="6.99773">
        <ele>99.383037</ele>
        <time>2020-08-02T10:15:21.668Z</time>
      </trkpt>
      <trkpt lat="62.7993" lon="6.99795">
        <ele>99.218697</ele>
        <time>2020-08-02T10:15:23.699Z</time>
      </trkpt>
      <trkpt lat="62.79932" lon="6.99815">
        <ele>99.025046</ele>
        <time>2020-08-02T10:15:25.669Z</time>
      </trkpt>
      <trkpt lat="62.79935" lon="6.99843">
        <ele>98.531072</ele>
        <time>2020-08-02T10:15:28.678Z</time>
      </trkpt>
      <trkpt lat="62.79937" lon="6.99866">
        <ele>98.113424</ele>
        <time>2020-08-02T10:15:31.662Z</time>
      </trkpt>
      <trkpt lat="62.7994" lon="6.99889">
        <ele>97.711444</ele>
        <time>2020-08-02T10:15:34.665Z</time>
      </trkpt>
      <trkpt lat="62.79942" lon="6.99911">
        <ele>97.318751</ele>
        <time>2020-08-02T10:15:37.662Z</time>
      </trkpt>
      <trkpt lat="62.79945" lon="6.99935">
        <ele>96.884028</ele>
        <time>2020-08-02T10:15:40.710Z</time>
      </trkpt>
      <trkpt lat="62.7995" lon="6.99963">
        <ele>96.361542</ele>
        <time>2020-08-02T10:15:43.689Z</time>
      </trkpt>
      <trkpt lat="62.79955" lon="6.99984">
        <ele>95.936289</ele>
        <time>2020-08-02T10:15:45.714Z</time>
      </trkpt>
      <trkpt lat="62.79963" lon="7.00007">
        <ele>95.430287</ele>
        <time>2020-08-02T10:15:47.669Z</time>
      </trkpt>
      <trkpt lat="62.79972" lon="7.00031">
        <ele>94.904637</ele>
        <time>2020-08-02T10:15:49.691Z</time>
      </trkpt>
      <trkpt lat="62.7998" lon="7.00054">
        <ele>94.374919</ele>
        <time>2020-08-02T10:15:51.663Z</time>
      </trkpt>
      <trkpt lat="62.7999" lon="7.00079">
        <ele>93.807122</ele>
        <time>2020-08-02T10:15:53.671Z</time>
      </trkpt>
      <trkpt lat="62.8" lon="7.00106">
        <ele>93.192432</ele>
        <time>2020-08-02T10:15:55.665Z</time>
      </trkpt>
      <trkpt lat="62.80011" lon="7.00139">
        <ele>92.486966</ele>
        <time>2020-08-02T10:15:57.667Z</time>
      </trkpt>
      <trkpt lat="62.80016" lon="7.00157">
        <ele>92.184719</ele>
        <time>2020-08-02T10:15:58.666Z</time>
      </trkpt>
      <trkpt lat="62.80021" lon="7.00177">
        <ele>92.05621</ele>
        <time>2020-08-02T10:15:59.664Z</time>
      </trkpt>
      <trkpt lat="62.80026" lon="7.00196">
        <ele>91.926567</ele>
        <time>2020-08-02T10:16:00.665Z</time>
      </trkpt>
      <trkpt lat="62.80032" lon="7.00215">
        <ele>91.799377</ele>
        <time>2020-08-02T10:16:01.668Z</time>
      </trkpt>
      <trkpt lat="62.80037" lon="7.00233">
        <ele>91.676262</ele>
        <time>2020-08-02T10:16:02.673Z</time>
      </trkpt>
      <trkpt lat="62.80042" lon="7.0025">
        <ele>91.560979</ele>
        <time>2020-08-02T10:16:03.691Z</time>
      </trkpt>
      <trkpt lat="62.80051" lon="7.00281">
        <ele>91.351093</ele>
        <time>2020-08-02T10:16:05.675Z</time>
      </trkpt>
      <trkpt lat="62.8006" lon="7.00307">
        <ele>91.164406</ele>
        <time>2020-08-02T10:16:07.670Z</time>
      </trkpt>
      <trkpt lat="62.80067" lon="7.0033">
        <ele>91.002424</ele>
        <time>2020-08-02T10:16:09.705Z</time>
      </trkpt>
      <trkpt lat="62.80074" lon="7.00348">
        <ele>90.865986</ele>
        <time>2020-08-02T10:16:11.698Z</time>
      </trkpt>
      <trkpt lat="62.80084" lon="7.00366">
        <ele>90.70922</ele>
        <time>2020-08-02T10:16:14.667Z</time>
      </trkpt>
      <trkpt lat="62.80091" lon="7.00377">
        <ele>90.594941</ele>
        <time>2020-08-02T10:16:17.669Z</time>
      </trkpt>
      <trkpt lat="62.801" lon="7.00388">
        <ele>90.474829</ele>
        <time>2020-08-02T10:16:20.683Z</time>
      </trkpt>
      <trkpt lat="62.8011" lon="7.00399">
        <ele>90.3335</ele>
        <time>2020-08-02T10:16:23.669Z</time>
      </trkpt>
      <trkpt lat="62.80122" lon="7.00411">
        <ele>90.161499</ele>
        <time>2020-08-02T10:16:26.687Z</time>
      </trkpt>
      <trkpt lat="62.80133" lon="7.00421">
        <ele>90.014991</ele>
        <time>2020-08-02T10:16:28.662Z</time>
      </trkpt>
      <trkpt lat="62.80146" lon="7.00432">
        <ele>89.832829</ele>
        <time>2020-08-02T10:16:30.692Z</time>
      </trkpt>
      <trkpt lat="62.80159" lon="7.00445">
        <ele>89.636515</ele>
        <time>2020-08-02T10:16:32.662Z</time>
      </trkpt>
      <trkpt lat="62.80173" lon="7.00457">
        <ele>89.432992</ele>
        <time>2020-08-02T10:16:34.670Z</time>
      </trkpt>
      <trkpt lat="62.80187" lon="7.00471">
        <ele>89.225748</ele>
        <time>2020-08-02T10:16:36.671Z</time>
      </trkpt>
      <trkpt lat="62.80201" lon="7.00485">
        <ele>89.017171</ele>
        <time>2020-08-02T10:16:38.674Z</time>
      </trkpt>
      <trkpt lat="62.80214" lon="7.00498">
        <ele>88.82183</ele>
        <time>2020-08-02T10:16:40.659Z</time>
      </trkpt>
      <trkpt lat="62.80225" lon="7.00511">
        <ele>88.647954</ele>
        <time>2020-08-02T10:16:42.707Z</time>
      </trkpt>
      <trkpt lat="62.80236" lon="7.00524">
        <ele>88.487304</ele>
        <time>2020-08-02T10:16:44.677Z</time>
      </trkpt>
      <trkpt lat="62.80246" lon="7.00536">
        <ele>88.330179</ele>
        <time>2020-08-02T10:16:46.667Z</time>
      </trkpt>
      <trkpt lat="62.80254" lon="7.00549">
        <ele>88.187548</ele>
        <time>2020-08-02T10:16:48.666Z</time>
      </trkpt>
      <trkpt lat="62.80262" lon="7.00562">
        <ele>88.058165</ele>
        <time>2020-08-02T10:16:50.674Z</time>
      </trkpt>
      <trkpt lat="62.80272" lon="7.00581">
        <ele>87.8763</ele>
        <time>2020-08-02T10:16:53.669Z</time>
      </trkpt>
      <trkpt lat="62.80283" lon="7.006">
        <ele>87.691507</ele>
        <time>2020-08-02T10:16:56.689Z</time>
      </trkpt>
      <trkpt lat="62.8029" lon="7.00614">
        <ele>87.557166</ele>
        <time>2020-08-02T10:16:58.710Z</time>
      </trkpt>
      <trkpt lat="62.80298" lon="7.00629">
        <ele>87.322189</ele>
        <time>2020-08-02T10:17:00.695Z</time>
      </trkpt>
      <trkpt lat="62.80306" lon="7.00643">
        <ele>87.049306</ele>
        <time>2020-08-02T10:17:02.666Z</time>
      </trkpt>
      <trkpt lat="62.80315" lon="7.00658">
        <ele>86.758249</ele>
        <time>2020-08-02T10:17:04.677Z</time>
      </trkpt>
      <trkpt lat="62.80324" lon="7.00675">
        <ele>86.449013</ele>
        <time>2020-08-02T10:17:06.689Z</time>
      </trkpt>
      <trkpt lat="62.80333" lon="7.00693">
        <ele>86.118531</ele>
        <time>2020-08-02T10:17:08.678Z</time>
      </trkpt>
      <trkpt lat="62.80344" lon="7.0071">
        <ele>85.776408</ele>
        <time>2020-08-02T10:17:10.668Z</time>
      </trkpt>
      <trkpt lat="62.80354" lon="7.00728">
        <ele>85.434286</ele>
        <time>2020-08-02T10:17:12.685Z</time>
      </trkpt>
      <trkpt lat="62.80364" lon="7.00748">
        <ele>85.0783</ele>
        <time>2020-08-02T10:17:14.692Z</time>
      </trkpt>
      <trkpt lat="62.80375" lon="7.00769">
        <ele>84.698995</ele>
        <time>2020-08-02T10:17:16.669Z</time>
      </trkpt>
      <trkpt lat="62.80386" lon="7.00791">
        <ele>84.308358</ele>
        <time>2020-08-02T10:17:18.667Z</time>
      </trkpt>
      <trkpt lat="62.80398" lon="7.00813">
        <ele>83.906577</ele>
        <time>2020-08-02T10:17:20.670Z</time>
      </trkpt>
      <trkpt lat="62.8041" lon="7.00835">
        <ele>83.493405</ele>
        <time>2020-08-02T10:17:22.697Z</time>
      </trkpt>
      <trkpt lat="62.80422" lon="7.00856">
        <ele>83.08607</ele>
        <time>2020-08-02T10:17:24.671Z</time>
      </trkpt>
      <trkpt lat="62.80434" lon="7.0088">
        <ele>82.622477</ele>
        <time>2020-08-02T10:17:26.675Z</time>
      </trkpt>
      <trkpt lat="62.80446" lon="7.00904">
        <ele>82.080208</ele>
        <time>2020-08-02T10:17:28.684Z</time>
      </trkpt>
      <trkpt lat="62.80459" lon="7.00929">
        <ele>81.528103</ele>
        <time>2020-08-02T10:17:30.673Z</time>
      </trkpt>
      <trkpt lat="62.80472" lon="7.00954">
        <ele>80.954901</ele>
        <time>2020-08-02T10:17:32.690Z</time>
      </trkpt>
      <trkpt lat="62.80479" lon="7.00967">
        <ele>80.662653</ele>
        <time>2020-08-02T10:17:33.656Z</time>
      </trkpt>
      <trkpt lat="62.80486" lon="7.0098">
        <ele>80.362997</ele>
        <time>2020-08-02T10:17:34.655Z</time>
      </trkpt>
      <trkpt lat="62.80493" lon="7.00994">
        <ele>80.063721</ele>
        <time>2020-08-02T10:17:35.678Z</time>
      </trkpt>
      <trkpt lat="62.80499" lon="7.01008">
        <ele>79.7624</ele>
        <time>2020-08-02T10:17:36.670Z</time>
      </trkpt>
      <trkpt lat="62.80506" lon="7.01022">
        <ele>79.465154</ele>
        <time>2020-08-02T10:17:37.697Z</time>
      </trkpt>
      <trkpt lat="62.80519" lon="7.01047">
        <ele>78.893373</ele>
        <time>2020-08-02T10:17:39.665Z</time>
      </trkpt>
      <trkpt lat="62.80531" lon="7.01071">
        <ele>78.359383</ele>
        <time>2020-08-02T10:17:41.657Z</time>
      </trkpt>
      <trkpt lat="62.80543" lon="7.01093">
        <ele>77.859875</ele>
        <time>2020-08-02T10:17:43.661Z</time>
      </trkpt>
      <trkpt lat="62.80554" lon="7.01115">
        <ele>77.370191</ele>
        <time>2020-08-02T10:17:45.690Z</time>
      </trkpt>
      <trkpt lat="62.80565" lon="7.01137">
        <ele>76.906439</ele>
        <time>2020-08-02T10:17:47.667Z</time>
      </trkpt>
      <trkpt lat="62.80575" lon="7.01159">
        <ele>76.63863</ele>
        <time>2020-08-02T10:17:49.670Z</time>
      </trkpt>
      <trkpt lat="62.80584" lon="7.01177">
        <ele>76.402758</ele>
        <time>2020-08-02T10:17:51.663Z</time>
      </trkpt>
      <trkpt lat="62.80593" lon="7.01192">
        <ele>76.189183</ele>
        <time>2020-08-02T10:17:53.672Z</time>
      </trkpt>
      <trkpt lat="62.80601" lon="7.01206">
        <ele>76.002284</ele>
        <time>2020-08-02T10:17:55.672Z</time>
      </trkpt>
      <trkpt lat="62.80608" lon="7.0122">
        <ele>75.816627</ele>
        <time>2020-08-02T10:17:57.695Z</time>
      </trkpt>
      <trkpt lat="62.80616" lon="7.01234">
        <ele>75.628622</ele>
        <time>2020-08-02T10:17:59.663Z</time>
      </trkpt>
      <trkpt lat="62.80623" lon="7.01248">
        <ele>75.44006</ele>
        <time>2020-08-02T10:18:01.686Z</time>
      </trkpt>
      <trkpt lat="62.80631" lon="7.01263">
        <ele>75.238647</ele>
        <time>2020-08-02T10:18:03.717Z</time>
      </trkpt>
      <trkpt lat="62.80639" lon="7.0128">
        <ele>75.025173</ele>
        <time>2020-08-02T10:18:05.671Z</time>
      </trkpt>
      <trkpt lat="62.80649" lon="7.01298">
        <ele>74.775544</ele>
        <time>2020-08-02T10:18:07.698Z</time>
      </trkpt>
      <trkpt lat="62.8066" lon="7.01315">
        <ele>74.526322</ele>
        <time>2020-08-02T10:18:09.679Z</time>
      </trkpt>
      <trkpt lat="62.80672" lon="7.0133">
        <ele>74.255715</ele>
        <time>2020-08-02T10:18:11.662Z</time>
      </trkpt>
      <trkpt lat="62.80688" lon="7.0134">
        <ele>73.945768</ele>
        <time>2020-08-02T10:18:13.665Z</time>
      </trkpt>
      <trkpt lat="62.80705" lon="7.01349">
        <ele>73.606007</ele>
        <time>2020-08-02T10:18:15.659Z</time>
      </trkpt>
      <trkpt lat="62.80715" lon="7.01353">
        <ele>73.269129</ele>
        <time>2020-08-02T10:18:16.665Z</time>
      </trkpt>
      <trkpt lat="62.80725" lon="7.01357">
        <ele>72.817297</ele>
        <time>2020-08-02T10:18:17.675Z</time>
      </trkpt>
      <trkpt lat="62.80735" lon="7.0136">
        <ele>72.350679</ele>
        <time>2020-08-02T10:18:18.669Z</time>
      </trkpt>
      <trkpt lat="62.80745" lon="7.01364">
        <ele>71.858959</ele>
        <time>2020-08-02T10:18:19.714Z</time>
      </trkpt>
      <trkpt lat="62.80755" lon="7.01369">
        <ele>71.374304</ele>
        <time>2020-08-02T10:18:20.683Z</time>
      </trkpt>
      <trkpt lat="62.80766" lon="7.01374">
        <ele>70.875561</ele>
        <time>2020-08-02T10:18:21.667Z</time>
      </trkpt>
      <trkpt lat="62.80776" lon="7.01379">
        <ele>70.367712</ele>
        <time>2020-08-02T10:18:22.673Z</time>
      </trkpt>
      <trkpt lat="62.80787" lon="7.01384">
        <ele>69.855308</ele>
        <time>2020-08-02T10:18:23.690Z</time>
      </trkpt>
      <trkpt lat="62.80798" lon="7.01389">
        <ele>69.337051</ele>
        <time>2020-08-02T10:18:24.686Z</time>
      </trkpt>
      <trkpt lat="62.80809" lon="7.01394">
        <ele>68.816469</ele>
        <time>2020-08-02T10:18:25.668Z</time>
      </trkpt>
      <trkpt lat="62.8082" lon="7.01401">
        <ele>68.282629</ele>
        <time>2020-08-02T10:18:26.677Z</time>
      </trkpt>
      <trkpt lat="62.80831" lon="7.01411">
        <ele>67.734334</ele>
        <time>2020-08-02T10:18:27.669Z</time>
      </trkpt>
      <trkpt lat="62.80842" lon="7.01422">
        <ele>67.181001</ele>
        <time>2020-08-02T10:18:28.693Z</time>
      </trkpt>
      <trkpt lat="62.80852" lon="7.01436">
        <ele>66.612607</ele>
        <time>2020-08-02T10:18:29.690Z</time>
      </trkpt>
      <trkpt lat="62.80863" lon="7.0145">
        <ele>66.040389</ele>
        <time>2020-08-02T10:18:30.686Z</time>
      </trkpt>
      <trkpt lat="62.80873" lon="7.01464">
        <ele>65.471555</ele>
        <time>2020-08-02T10:18:31.702Z</time>
      </trkpt>
      <trkpt lat="62.80883" lon="7.01478">
        <ele>64.928377</ele>
        <time>2020-08-02T10:18:32.686Z</time>
      </trkpt>
      <trkpt lat="62.80893" lon="7.01492">
        <ele>64.404941</ele>
        <time>2020-08-02T10:18:33.659Z</time>
      </trkpt>
      <trkpt lat="62.80903" lon="7.01505">
        <ele>63.891768</ele>
        <time>2020-08-02T10:18:34.667Z</time>
      </trkpt>
      <trkpt lat="62.80912" lon="7.01518">
        <ele>63.391073</ele>
        <time>2020-08-02T10:18:35.690Z</time>
      </trkpt>
      <trkpt lat="62.80921" lon="7.01531">
        <ele>62.899787</ele>
        <time>2020-08-02T10:18:36.674Z</time>
      </trkpt>
      <trkpt lat="62.8093" lon="7.01545">
        <ele>62.414706</ele>
        <time>2020-08-02T10:18:37.692Z</time>
      </trkpt>
      <trkpt lat="62.80939" lon="7.01559">
        <ele>61.936927</ele>
        <time>2020-08-02T10:18:38.678Z</time>
      </trkpt>
      <trkpt lat="62.80948" lon="7.01572">
        <ele>61.458756</ele>
        <time>2020-08-02T10:18:39.713Z</time>
      </trkpt>
      <trkpt lat="62.80957" lon="7.01585">
        <ele>60.984297</ele>
        <time>2020-08-02T10:18:40.665Z</time>
      </trkpt>
      <trkpt lat="62.80966" lon="7.01598">
        <ele>60.501545</ele>
        <time>2020-08-02T10:18:41.670Z</time>
      </trkpt>
      <trkpt lat="62.80974" lon="7.01611">
        <ele>60.02613</ele>
        <time>2020-08-02T10:18:42.686Z</time>
      </trkpt>
      <trkpt lat="62.80983" lon="7.01624">
        <ele>59.563889</ele>
        <time>2020-08-02T10:18:43.666Z</time>
      </trkpt>
      <trkpt lat="62.80991" lon="7.01637">
        <ele>59.100266</ele>
        <time>2020-08-02T10:18:44.676Z</time>
      </trkpt>
      <trkpt lat="62.81" lon="7.01649">
        <ele>58.651995</ele>
        <time>2020-08-02T10:18:45.689Z</time>
      </trkpt>
      <trkpt lat="62.81008" lon="7.0166">
        <ele>58.217872</ele>
        <time>2020-08-02T10:18:46.700Z</time>
      </trkpt>
      <trkpt lat="62.81016" lon="7.01671">
        <ele>57.794016</ele>
        <time>2020-08-02T10:18:47.670Z</time>
      </trkpt>
      <trkpt lat="62.8103" lon="7.01693">
        <ele>57.08966</ele>
        <time>2020-08-02T10:18:49.670Z</time>
      </trkpt>
      <trkpt lat="62.81044" lon="7.01712">
        <ele>56.870986</ele>
        <time>2020-08-02T10:18:51.710Z</time>
      </trkpt>
      <trkpt lat="62.81056" lon="7.01729">
        <ele>56.668002</ele>
        <time>2020-08-02T10:18:53.680Z</time>
      </trkpt>
      <trkpt lat="62.81067" lon="7.01745">
        <ele>56.4843</ele>
        <time>2020-08-02T10:18:55.673Z</time>
      </trkpt>
      <trkpt lat="62.81078" lon="7.01759">
        <ele>56.316723</ele>
        <time>2020-08-02T10:18:57.710Z</time>
      </trkpt>
      <trkpt lat="62.81087" lon="7.01773">
        <ele>56.165902</ele>
        <time>2020-08-02T10:18:59.688Z</time>
      </trkpt>
      <trkpt lat="62.81095" lon="7.01786">
        <ele>56.022842</ele>
        <time>2020-08-02T10:19:01.717Z</time>
      </trkpt>
      <trkpt lat="62.81103" lon="7.01799">
        <ele>55.887564</ele>
        <time>2020-08-02T10:19:03.667Z</time>
      </trkpt>
      <trkpt lat="62.81111" lon="7.01812">
        <ele>55.758206</ele>
        <time>2020-08-02T10:19:05.679Z</time>
      </trkpt>
      <trkpt lat="62.81118" lon="7.01825">
        <ele>55.632205</ele>
        <time>2020-08-02T10:19:07.697Z</time>
      </trkpt>
      <trkpt lat="62.81125" lon="7.01839">
        <ele>55.500354</ele>
        <time>2020-08-02T10:19:09.687Z</time>
      </trkpt>
      <trkpt lat="62.81132" lon="7.01854">
        <ele>55.362065</ele>
        <time>2020-08-02T10:19:11.677Z</time>
      </trkpt>
      <trkpt lat="62.81139" lon="7.01871">
        <ele>55.218986</ele>
        <time>2020-08-02T10:19:13.676Z</time>
      </trkpt>
      <trkpt lat="62.81146" lon="7.0189">
        <ele>55.06813</ele>
        <time>2020-08-02T10:19:15.667Z</time>
      </trkpt>
      <trkpt lat="62.81153" lon="7.0191">
        <ele>54.910141</ele>
        <time>2020-08-02T10:19:17.670Z</time>
      </trkpt>
      <trkpt lat="62.8116" lon="7.01929">
        <ele>54.755632</ele>
        <time>2020-08-02T10:19:19.669Z</time>
      </trkpt>
      <trkpt lat="62.81166" lon="7.01949">
        <ele>54.641465</ele>
        <time>2020-08-02T10:19:21.718Z</time>
      </trkpt>
      <trkpt lat="62.81173" lon="7.01969">
        <ele>54.606724</ele>
        <time>2020-08-02T10:19:23.679Z</time>
      </trkpt>
      <trkpt lat="62.81179" lon="7.01988">
        <ele>54.573798</ele>
        <time>2020-08-02T10:19:25.667Z</time>
      </trkpt>
      <trkpt lat="62.81185" lon="7.02006">
        <ele>54.541958</ele>
        <time>2020-08-02T10:19:27.680Z</time>
      </trkpt>
      <trkpt lat="62.81191" lon="7.02024">
        <ele>54.511647</ele>
        <time>2020-08-02T10:19:29.667Z</time>
      </trkpt>
      <trkpt lat="62.81196" lon="7.02043">
        <ele>54.480337</ele>
        <time>2020-08-02T10:19:31.706Z</time>
      </trkpt>
      <trkpt lat="62.81202" lon="7.02061">
        <ele>54.449429</ele>
        <time>2020-08-02T10:19:33.666Z</time>
      </trkpt>
      <trkpt lat="62.81208" lon="7.0208">
        <ele>54.418423</ele>
        <time>2020-08-02T10:19:35.672Z</time>
      </trkpt>
      <trkpt lat="62.81213" lon="7.02097">
        <ele>54.389093</ele>
        <time>2020-08-02T10:19:37.675Z</time>
      </trkpt>
      <trkpt lat="62.81219" lon="7.02115">
        <ele>54.357774</ele>
        <time>2020-08-02T10:19:39.688Z</time>
      </trkpt>
      <trkpt lat="62.81225" lon="7.02132">
        <ele>54.327014</ele>
        <time>2020-08-02T10:19:41.675Z</time>
      </trkpt>
      <trkpt lat="62.81232" lon="7.02151">
        <ele>54.294581</ele>
        <time>2020-08-02T10:19:43.669Z</time>
      </trkpt>
      <trkpt lat="62.81238" lon="7.02168">
        <ele>54.262841</ele>
        <time>2020-08-02T10:19:45.676Z</time>
      </trkpt>
      <trkpt lat="62.81245" lon="7.02187">
        <ele>54.229347</ele>
        <time>2020-08-02T10:19:47.667Z</time>
      </trkpt>
      <trkpt lat="62.81253" lon="7.02206">
        <ele>54.193727</ele>
        <time>2020-08-02T10:19:49.694Z</time>
      </trkpt>
      <trkpt lat="62.81262" lon="7.02225">
        <ele>54.154225</ele>
        <time>2020-08-02T10:19:51.669Z</time>
      </trkpt>
      <trkpt lat="62.81273" lon="7.02243">
        <ele>54.113438</ele>
        <time>2020-08-02T10:19:53.701Z</time>
      </trkpt>
      <trkpt lat="62.81284" lon="7.02261">
        <ele>54.121968</ele>
        <time>2020-08-02T10:19:55.680Z</time>
      </trkpt>
      <trkpt lat="62.81294" lon="7.02277">
        <ele>54.151237</ele>
        <time>2020-08-02T10:19:57.668Z</time>
      </trkpt>
      <trkpt lat="62.81304" lon="7.02291">
        <ele>54.177831</ele>
        <time>2020-08-02T10:19:59.694Z</time>
      </trkpt>
      <trkpt lat="62.81314" lon="7.02304">
        <ele>54.204274</ele>
        <time>2020-08-02T10:20:01.695Z</time>
      </trkpt>
      <trkpt lat="62.81323" lon="7.02315">
        <ele>54.227861</ele>
        <time>2020-08-02T10:20:03.676Z</time>
      </trkpt>
      <trkpt lat="62.81331" lon="7.02326">
        <ele>54.24977</ele>
        <time>2020-08-02T10:20:05.677Z</time>
      </trkpt>
      <trkpt lat="62.81339" lon="7.02337">
        <ele>54.270767</ele>
        <time>2020-08-02T10:20:07.669Z</time>
      </trkpt>
      <trkpt lat="62.81347" lon="7.02349">
        <ele>54.292483</ele>
        <time>2020-08-02T10:20:09.704Z</time>
      </trkpt>
      <trkpt lat="62.81355" lon="7.02361">
        <ele>54.314968</ele>
        <time>2020-08-02T10:20:11.678Z</time>
      </trkpt>
      <trkpt lat="62.81363" lon="7.02375">
        <ele>54.338005</ele>
        <time>2020-08-02T10:20:13.703Z</time>
      </trkpt>
      <trkpt lat="62.81371" lon="7.02388">
        <ele>54.361349</ele>
        <time>2020-08-02T10:20:15.663Z</time>
      </trkpt>
      <trkpt lat="62.81379" lon="7.02401">
        <ele>54.383594</ele>
        <time>2020-08-02T10:20:17.670Z</time>
      </trkpt>
      <trkpt lat="62.81387" lon="7.02414">
        <ele>54.406201</ele>
        <time>2020-08-02T10:20:19.670Z</time>
      </trkpt>
      <trkpt lat="62.81394" lon="7.02428">
        <ele>54.427578</ele>
        <time>2020-08-02T10:20:21.657Z</time>
      </trkpt>
      <trkpt lat="62.81401" lon="7.02442">
        <ele>54.448342</ele>
        <time>2020-08-02T10:20:23.685Z</time>
      </trkpt>
      <trkpt lat="62.81409" lon="7.02462">
        <ele>54.476587</ele>
        <time>2020-08-02T10:20:26.681Z</time>
      </trkpt>
      <trkpt lat="62.81416" lon="7.0248">
        <ele>54.500799</ele>
        <time>2020-08-02T10:20:29.660Z</time>
      </trkpt>
      <trkpt lat="62.81421" lon="7.02496">
        <ele>54.566255</ele>
        <time>2020-08-02T10:20:32.675Z</time>
      </trkpt>
      <trkpt lat="62.81428" lon="7.02518">
        <ele>54.686746</ele>
        <time>2020-08-02T10:20:36.697Z</time>
      </trkpt>
      <trkpt lat="62.81433" lon="7.02537">
        <ele>54.79229</ele>
        <time>2020-08-02T10:20:39.660Z</time>
      </trkpt>
      <trkpt lat="62.81438" lon="7.02558">
        <ele>54.900823</ele>
        <time>2020-08-02T10:20:42.665Z</time>
      </trkpt>
      <trkpt lat="62.81444" lon="7.02577">
        <ele>55.009875</ele>
        <time>2020-08-02T10:20:45.652Z</time>
      </trkpt>
      <trkpt lat="62.8145" lon="7.02598">
        <ele>55.121767</ele>
        <time>2020-08-02T10:20:48.682Z</time>
      </trkpt>
      <trkpt lat="62.81455" lon="7.02619">
        <ele>55.233726</ele>
        <time>2020-08-02T10:20:51.672Z</time>
      </trkpt>
      <trkpt lat="62.81461" lon="7.02641">
        <ele>55.350985</ele>
        <time>2020-08-02T10:20:54.664Z</time>
      </trkpt>
      <trkpt lat="62.81466" lon="7.02665">
        <ele>55.473554</ele>
        <time>2020-08-02T10:20:57.698Z</time>
      </trkpt>
      <trkpt lat="62.81471" lon="7.0269">
        <ele>55.599909</ele>
        <time>2020-08-02T10:21:00.693Z</time>
      </trkpt>
      <trkpt lat="62.81475" lon="7.02708">
        <ele>55.69377</ele>
        <time>2020-08-02T10:21:02.666Z</time>
      </trkpt>
      <trkpt lat="62.81479" lon="7.02727">
        <ele>55.790556</ele>
        <time>2020-08-02T10:21:04.659Z</time>
      </trkpt>
      <trkpt lat="62.81483" lon="7.02745">
        <ele>55.886577</ele>
        <time>2020-08-02T10:21:06.682Z</time>
      </trkpt>
      <trkpt lat="62.81488" lon="7.02763">
        <ele>55.984323</ele>
        <time>2020-08-02T10:21:08.663Z</time>
      </trkpt>
      <trkpt lat="62.81493" lon="7.02782">
        <ele>56.081364</ele>
        <time>2020-08-02T10:21:10.712Z</time>
      </trkpt>
      <trkpt lat="62.81498" lon="7.028">
        <ele>56.182028</ele>
        <time>2020-08-02T10:21:12.664Z</time>
      </trkpt>
      <trkpt lat="62.81503" lon="7.02817">
        <ele>56.276202</ele>
        <time>2020-08-02T10:21:14.687Z</time>
      </trkpt>
      <trkpt lat="62.81507" lon="7.02835">
        <ele>56.42933</ele>
        <time>2020-08-02T10:21:16.712Z</time>
      </trkpt>
      <trkpt lat="62.81513" lon="7.02858">
        <ele>56.786838</ele>
        <time>2020-08-02T10:21:19.678Z</time>
      </trkpt>
      <trkpt lat="62.81518" lon="7.02879">
        <ele>57.112807</ele>
        <time>2020-08-02T10:21:22.683Z</time>
      </trkpt>
      <trkpt lat="62.81523" lon="7.02898">
        <ele>57.393129</ele>
        <time>2020-08-02T10:21:25.683Z</time>
      </trkpt>
      <trkpt lat="62.81527" lon="7.02917">
        <ele>57.68079</ele>
        <time>2020-08-02T10:21:28.703Z</time>
      </trkpt>
      <trkpt lat="62.81533" lon="7.02937">
        <ele>57.998507</ele>
        <time>2020-08-02T10:21:31.655Z</time>
      </trkpt>
      <trkpt lat="62.81538" lon="7.02956">
        <ele>58.289282</ele>
        <time>2020-08-02T10:21:34.666Z</time>
      </trkpt>
      <trkpt lat="62.81542" lon="7.02974">
        <ele>58.569255</ele>
        <time>2020-08-02T10:21:37.691Z</time>
      </trkpt>
      <trkpt lat="62.81546" lon="7.02992">
        <ele>58.846019</ele>
        <time>2020-08-02T10:21:40.672Z</time>
      </trkpt>
      <trkpt lat="62.81551" lon="7.03011">
        <ele>59.130117</ele>
        <time>2020-08-02T10:21:43.685Z</time>
      </trkpt>
      <trkpt lat="62.81556" lon="7.03028">
        <ele>59.400984</ele>
        <time>2020-08-02T10:21:46.681Z</time>
      </trkpt>
      <trkpt lat="62.81561" lon="7.03044">
        <ele>59.667555</ele>
        <time>2020-08-02T10:21:49.687Z</time>
      </trkpt>
      <trkpt lat="62.81566" lon="7.03061">
        <ele>59.939412</ele>
        <time>2020-08-02T10:21:52.674Z</time>
      </trkpt>
      <trkpt lat="62.81571" lon="7.03081">
        <ele>60.234877</ele>
        <time>2020-08-02T10:21:55.662Z</time>
      </trkpt>
      <trkpt lat="62.81576" lon="7.03099">
        <ele>60.522486</ele>
        <time>2020-08-02T10:21:58.668Z</time>
      </trkpt>
      <trkpt lat="62.81581" lon="7.03119">
        <ele>60.831427</ele>
        <time>2020-08-02T10:22:01.684Z</time>
      </trkpt>
      <trkpt lat="62.81586" lon="7.03139">
        <ele>61.154374</ele>
        <time>2020-08-02T10:22:04.681Z</time>
      </trkpt>
      <trkpt lat="62.81592" lon="7.03159">
        <ele>61.473075</ele>
        <time>2020-08-02T10:22:07.679Z</time>
      </trkpt>
      <trkpt lat="62.81598" lon="7.03179">
        <ele>61.642401</ele>
        <time>2020-08-02T10:22:10.686Z</time>
      </trkpt>
      <trkpt lat="62.81604" lon="7.03197">
        <ele>61.6295</ele>
        <time>2020-08-02T10:22:13.682Z</time>
      </trkpt>
      <trkpt lat="62.81609" lon="7.03217">
        <ele>61.617228</ele>
        <time>2020-08-02T10:22:16.713Z</time>
      </trkpt>
      <trkpt lat="62.81614" lon="7.03239">
        <ele>61.603314</ele>
        <time>2020-08-02T10:22:20.681Z</time>
      </trkpt>
      <trkpt lat="62.81618" lon="7.03262">
        <ele>61.589238</ele>
        <time>2020-08-02T10:22:24.680Z</time>
      </trkpt>
      <trkpt lat="62.81622" lon="7.03284">
        <ele>61.576221</ele>
        <time>2020-08-02T10:22:28.665Z</time>
      </trkpt>
      <trkpt lat="62.81626" lon="7.03303">
        <ele>61.564655</ele>
        <time>2020-08-02T10:22:32.668Z</time>
      </trkpt>
      <trkpt lat="62.81628" lon="7.03325">
        <ele>61.552125</ele>
        <time>2020-08-02T10:22:37.672Z</time>
      </trkpt>
      <trkpt lat="62.81631" lon="7.03345">
        <ele>61.54062</ele>
        <time>2020-08-02T10:22:42.698Z</time>
      </trkpt>
      <trkpt lat="62.81634" lon="7.03368">
        <ele>61.527358</ele>
        <time>2020-08-02T10:22:48.692Z</time>
      </trkpt>
      <trkpt lat="62.81636" lon="7.03388">
        <ele>61.515836</ele>
        <time>2020-08-02T10:22:52.683Z</time>
      </trkpt>
      <trkpt lat="62.81637" lon="7.03408">
        <ele>61.504799</ele>
        <time>2020-08-02T10:22:55.667Z</time>
      </trkpt>
      <trkpt lat="62.81638" lon="7.03432">
        <ele>61.49117</ele>
        <time>2020-08-02T10:22:58.667Z</time>
      </trkpt>
      <trkpt lat="62.81638" lon="7.03453">
        <ele>61.479662</ele>
        <time>2020-08-02T10:23:00.683Z</time>
      </trkpt>
      <trkpt lat="62.81638" lon="7.03477">
        <ele>61.465836</ele>
        <time>2020-08-02T10:23:02.693Z</time>
      </trkpt>
      <trkpt lat="62.81638" lon="7.03505">
        <ele>61.450502</ele>
        <time>2020-08-02T10:23:04.673Z</time>
      </trkpt>
      <trkpt lat="62.81638" lon="7.03534">
        <ele>61.43439</ele>
        <time>2020-08-02T10:23:06.718Z</time>
      </trkpt>
      <trkpt lat="62.81638" lon="7.03564">
        <ele>61.040527</ele>
        <time>2020-08-02T10:23:08.676Z</time>
      </trkpt>
      <trkpt lat="62.81637" lon="7.03593">
        <ele>60.451568</ele>
        <time>2020-08-02T10:23:10.707Z</time>
      </trkpt>
      <trkpt lat="62.81635" lon="7.03624">
        <ele>59.845043</ele>
        <time>2020-08-02T10:23:12.681Z</time>
      </trkpt>
      <trkpt lat="62.81634" lon="7.03654">
        <ele>59.233638</ele>
        <time>2020-08-02T10:23:14.685Z</time>
      </trkpt>
      <trkpt lat="62.81634" lon="7.03685">
        <ele>58.624517</ele>
        <time>2020-08-02T10:23:16.687Z</time>
      </trkpt>
      <trkpt lat="62.81633" lon="7.03716">
        <ele>58.002574</ele>
        <time>2020-08-02T10:23:18.701Z</time>
      </trkpt>
      <trkpt lat="62.81633" lon="7.0375">
        <ele>57.318862</ele>
        <time>2020-08-02T10:23:20.663Z</time>
      </trkpt>
      <trkpt lat="62.81632" lon="7.03788">
        <ele>56.573033</ele>
        <time>2020-08-02T10:23:22.689Z</time>
      </trkpt>
      <trkpt lat="62.81632" lon="7.03827">
        <ele>55.789494</ele>
        <time>2020-08-02T10:23:24.675Z</time>
      </trkpt>
      <trkpt lat="62.81631" lon="7.03847">
        <ele>55.39251</ele>
        <time>2020-08-02T10:23:25.658Z</time>
      </trkpt>
      <trkpt lat="62.81631" lon="7.03867">
        <ele>54.999508</ele>
        <time>2020-08-02T10:23:26.694Z</time>
      </trkpt>
      <trkpt lat="62.81631" lon="7.03886">
        <ele>54.604298</ele>
        <time>2020-08-02T10:23:27.711Z</time>
      </trkpt>
      <trkpt lat="62.8163" lon="7.03906">
        <ele>54.205322</ele>
        <time>2020-08-02T10:23:28.673Z</time>
      </trkpt>
      <trkpt lat="62.8163" lon="7.03926">
        <ele>53.808506</ele>
        <time>2020-08-02T10:23:29.665Z</time>
      </trkpt>
      <trkpt lat="62.81629" lon="7.03965">
        <ele>53.419688</ele>
        <time>2020-08-02T10:23:31.678Z</time>
      </trkpt>
      <trkpt lat="62.81629" lon="7.04001">
        <ele>53.197362</ele>
        <time>2020-08-02T10:23:33.669Z</time>
      </trkpt>
      <trkpt lat="62.81628" lon="7.04037">
        <ele>52.984065</ele>
        <time>2020-08-02T10:23:35.677Z</time>
      </trkpt>
      <trkpt lat="62.81628" lon="7.04072">
        <ele>52.769601</ele>
        <time>2020-08-02T10:23:37.678Z</time>
      </trkpt>
      <trkpt lat="62.81628" lon="7.04108">
        <ele>52.558197</ele>
        <time>2020-08-02T10:23:39.686Z</time>
      </trkpt>
      <trkpt lat="62.81628" lon="7.0414">
        <ele>52.359948</ele>
        <time>2020-08-02T10:23:41.670Z</time>
      </trkpt>
      <trkpt lat="62.81629" lon="7.04172">
        <ele>52.168668</ele>
        <time>2020-08-02T10:23:43.680Z</time>
      </trkpt>
      <trkpt lat="62.8163" lon="7.04204">
        <ele>51.974804</ele>
        <time>2020-08-02T10:23:45.673Z</time>
      </trkpt>
      <trkpt lat="62.81631" lon="7.04236">
        <ele>51.78072</ele>
        <time>2020-08-02T10:23:47.656Z</time>
      </trkpt>
      <trkpt lat="62.81632" lon="7.04267">
        <ele>51.597908</ele>
        <time>2020-08-02T10:23:49.676Z</time>
      </trkpt>
      <trkpt lat="62.81634" lon="7.04294">
        <ele>51.428811</ele>
        <time>2020-08-02T10:23:51.691Z</time>
      </trkpt>
      <trkpt lat="62.81636" lon="7.04321">
        <ele>51.268058</ele>
        <time>2020-08-02T10:23:53.682Z</time>
      </trkpt>
      <trkpt lat="62.81638" lon="7.04346">
        <ele>51.223493</ele>
        <time>2020-08-02T10:23:55.708Z</time>
      </trkpt>
      <trkpt lat="62.8164" lon="7.04372">
        <ele>51.243968</ele>
        <time>2020-08-02T10:23:57.672Z</time>
      </trkpt>
      <trkpt lat="62.81642" lon="7.04398">
        <ele>51.264378</ele>
        <time>2020-08-02T10:23:59.706Z</time>
      </trkpt>
      <trkpt lat="62.81644" lon="7.04423">
        <ele>51.28482</ele>
        <time>2020-08-02T10:24:01.698Z</time>
      </trkpt>
      <trkpt lat="62.81646" lon="7.04449">
        <ele>51.305692</ele>
        <time>2020-08-02T10:24:03.673Z</time>
      </trkpt>
      <trkpt lat="62.81649" lon="7.04477">
        <ele>51.327597</ele>
        <time>2020-08-02T10:24:05.690Z</time>
      </trkpt>
      <trkpt lat="62.81651" lon="7.04504">
        <ele>51.349116</ele>
        <time>2020-08-02T10:24:07.684Z</time>
      </trkpt>
      <trkpt lat="62.81654" lon="7.0453">
        <ele>51.369893</ele>
        <time>2020-08-02T10:24:09.678Z</time>
      </trkpt>
      <trkpt lat="62.81656" lon="7.04554">
        <ele>51.388978</ele>
        <time>2020-08-02T10:24:11.660Z</time>
      </trkpt>
      <trkpt lat="62.81658" lon="7.04577">
        <ele>51.407168</ele>
        <time>2020-08-02T10:24:13.691Z</time>
      </trkpt>
      <trkpt lat="62.81659" lon="7.04599">
        <ele>51.424711</ele>
        <time>2020-08-02T10:24:15.668Z</time>
      </trkpt>
      <trkpt lat="62.81661" lon="7.04621">
        <ele>51.442629</ele>
        <time>2020-08-02T10:24:17.671Z</time>
      </trkpt>
      <trkpt lat="62.81663" lon="7.04641">
        <ele>51.458722</ele>
        <time>2020-08-02T10:24:19.736Z</time>
      </trkpt>
      <trkpt lat="62.81664" lon="7.04661">
        <ele>51.474661</ele>
        <time>2020-08-02T10:24:21.674Z</time>
      </trkpt>
      <trkpt lat="62.81667" lon="7.0468">
        <ele>51.490182</ele>
        <time>2020-08-02T10:24:23.677Z</time>
      </trkpt>
      <trkpt lat="62.8167" lon="7.04699">
        <ele>51.505637</ele>
        <time>2020-08-02T10:24:25.682Z</time>
      </trkpt>
      <trkpt lat="62.81675" lon="7.04725">
        <ele>51.738272</ele>
        <time>2020-08-02T10:24:28.702Z</time>
      </trkpt>
      <trkpt lat="62.8168" lon="7.04746">
        <ele>52.24704</ele>
        <time>2020-08-02T10:24:31.659Z</time>
      </trkpt>
      <trkpt lat="62.81684" lon="7.04766">
        <ele>52.703731</ele>
        <time>2020-08-02T10:24:34.679Z</time>
      </trkpt>
      <trkpt lat="62.81688" lon="7.04787">
        <ele>53.172405</ele>
        <time>2020-08-02T10:24:37.694Z</time>
      </trkpt>
      <trkpt lat="62.81691" lon="7.04807">
        <ele>53.644775</ele>
        <time>2020-08-02T10:24:40.655Z</time>
      </trkpt>
      <trkpt lat="62.81695" lon="7.04825">
        <ele>54.061236</ele>
        <time>2020-08-02T10:24:43.668Z</time>
      </trkpt>
      <trkpt lat="62.81699" lon="7.04847">
        <ele>54.541417</ele>
        <time>2020-08-02T10:24:47.696Z</time>
      </trkpt>
      <trkpt lat="62.81703" lon="7.04866">
        <ele>54.985113</ele>
        <time>2020-08-02T10:24:51.689Z</time>
      </trkpt>
      <trkpt lat="62.81705" lon="7.04888">
        <ele>55.467721</ele>
        <time>2020-08-02T10:24:57.665Z</time>
      </trkpt>
      <trkpt lat="62.81708" lon="7.04908">
        <ele>55.897837</ele>
        <time>2020-08-02T10:25:03.686Z</time>
      </trkpt>
      <trkpt lat="62.81708" lon="7.04929">
        <ele>56.354096</ele>
        <time>2020-08-02T10:25:10.686Z</time>
      </trkpt>
      <trkpt lat="62.8171" lon="7.04949">
        <ele>56.778849</ele>
        <time>2020-08-02T10:25:16.690Z</time>
      </trkpt>
      <trkpt lat="62.81712" lon="7.0497">
        <ele>57.229333</ele>
        <time>2020-08-02T10:25:22.690Z</time>
      </trkpt>
      <trkpt lat="62.81712" lon="7.0499">
        <ele>57.647672</ele>
        <time>2020-08-02T10:25:28.666Z</time>
      </trkpt>
      <trkpt lat="62.81713" lon="7.05013">
        <ele>58.131842</ele>
        <time>2020-08-02T10:25:35.665Z</time>
      </trkpt>
      <trkpt lat="62.81713" lon="7.05035">
        <ele>58.602284</ele>
        <time>2020-08-02T10:25:41.685Z</time>
      </trkpt>
      <trkpt lat="62.81714" lon="7.05055">
        <ele>59.024146</ele>
        <time>2020-08-02T10:25:46.670Z</time>
      </trkpt>
      <trkpt lat="62.81715" lon="7.05078">
        <ele>59.509706</ele>
        <time>2020-08-02T10:25:51.676Z</time>
      </trkpt>
      <trkpt lat="62.81715" lon="7.05103">
        <ele>59.959921</ele>
        <time>2020-08-02T10:25:55.691Z</time>
      </trkpt>
      <trkpt lat="62.81715" lon="7.05124">
        <ele>60.242304</ele>
        <time>2020-08-02T10:25:58.689Z</time>
      </trkpt>
      <trkpt lat="62.81716" lon="7.05146">
        <ele>60.525906</ele>
        <time>2020-08-02T10:26:01.685Z</time>
      </trkpt>
      <trkpt lat="62.81716" lon="7.05168">
        <ele>60.814688</ele>
        <time>2020-08-02T10:26:04.673Z</time>
      </trkpt>
      <trkpt lat="62.81716" lon="7.05191">
        <ele>61.127298</ele>
        <time>2020-08-02T10:26:07.691Z</time>
      </trkpt>
      <trkpt lat="62.81716" lon="7.05215">
        <ele>61.448328</ele>
        <time>2020-08-02T10:26:10.685Z</time>
      </trkpt>
      <trkpt lat="62.81717" lon="7.05239">
        <ele>61.766884</ele>
        <time>2020-08-02T10:26:13.672Z</time>
      </trkpt>
      <trkpt lat="62.81718" lon="7.05264">
        <ele>62.093565</ele>
        <time>2020-08-02T10:26:16.691Z</time>
      </trkpt>
      <trkpt lat="62.8172" lon="7.05285">
        <ele>62.382337</ele>
        <time>2020-08-02T10:26:19.673Z</time>
      </trkpt>
      <trkpt lat="62.81722" lon="7.05308">
        <ele>62.689039</ele>
        <time>2020-08-02T10:26:22.703Z</time>
      </trkpt>
      <trkpt lat="62.81724" lon="7.05332">
        <ele>63.010125</ele>
        <time>2020-08-02T10:26:25.713Z</time>
      </trkpt>
      <trkpt lat="62.81726" lon="7.05355">
        <ele>63.324943</ele>
        <time>2020-08-02T10:26:28.687Z</time>
      </trkpt>
      <trkpt lat="62.81729" lon="7.05379">
        <ele>63.650379</ele>
        <time>2020-08-02T10:26:31.658Z</time>
      </trkpt>
      <trkpt lat="62.81731" lon="7.05405">
        <ele>64.004033</ele>
        <time>2020-08-02T10:26:34.671Z</time>
      </trkpt>
      <trkpt lat="62.81733" lon="7.05432">
        <ele>64.366542</ele>
        <time>2020-08-02T10:26:37.677Z</time>
      </trkpt>
      <trkpt lat="62.81735" lon="7.05459">
        <ele>64.718803</ele>
        <time>2020-08-02T10:26:40.672Z</time>
      </trkpt>
      <trkpt lat="62.81737" lon="7.05485">
        <ele>65.062891</ele>
        <time>2020-08-02T10:26:43.664Z</time>
      </trkpt>
      <trkpt lat="62.81738" lon="7.05512">
        <ele>65.274304</ele>
        <time>2020-08-02T10:26:46.662Z</time>
      </trkpt>
      <trkpt lat="62.8174" lon="7.05537">
        <ele>65.468667</ele>
        <time>2020-08-02T10:26:49.667Z</time>
      </trkpt>
      <trkpt lat="62.8174" lon="7.0556">
        <ele>65.652456</ele>
        <time>2020-08-02T10:26:52.665Z</time>
      </trkpt>
      <trkpt lat="62.81739" lon="7.05581">
        <ele>65.822915</ele>
        <time>2020-08-02T10:26:55.682Z</time>
      </trkpt>
      <trkpt lat="62.81739" lon="7.05602">
        <ele>65.981923</ele>
        <time>2020-08-02T10:26:58.684Z</time>
      </trkpt>
      <trkpt lat="62.81738" lon="7.05625">
        <ele>66.164957</ele>
        <time>2020-08-02T10:27:02.664Z</time>
      </trkpt>
      <trkpt lat="62.81739" lon="7.05646">
        <ele>66.33169</ele>
        <time>2020-08-02T10:27:06.671Z</time>
      </trkpt>
      <trkpt lat="62.81741" lon="7.05666">
        <ele>66.494504</ele>
        <time>2020-08-02T10:27:10.709Z</time>
      </trkpt>
      <trkpt lat="62.81743" lon="7.05689">
        <ele>66.679185</ele>
        <time>2020-08-02T10:27:15.662Z</time>
      </trkpt>
      <trkpt lat="62.81744" lon="7.05711">
        <ele>66.857034</ele>
        <time>2020-08-02T10:27:20.680Z</time>
      </trkpt>
      <trkpt lat="62.81746" lon="7.05734">
        <ele>67.038275</ele>
        <time>2020-08-02T10:27:25.667Z</time>
      </trkpt>
      <trkpt lat="62.81748" lon="7.05757">
        <ele>67.217985</ele>
        <time>2020-08-02T10:27:30.680Z</time>
      </trkpt>
      <trkpt lat="62.81749" lon="7.0578">
        <ele>67.399442</ele>
        <time>2020-08-02T10:27:35.665Z</time>
      </trkpt>
      <trkpt lat="62.81749" lon="7.05803">
        <ele>67.587461</ele>
        <time>2020-08-02T10:27:39.657Z</time>
      </trkpt>
      <trkpt lat="62.8175" lon="7.05825">
        <ele>67.757928</ele>
        <time>2020-08-02T10:27:42.673Z</time>
      </trkpt>
      <trkpt lat="62.81752" lon="7.05848">
        <ele>67.944826</ele>
        <time>2020-08-02T10:27:45.693Z</time>
      </trkpt>
      <trkpt lat="62.81753" lon="7.05878">
        <ele>68.129656</ele>
        <time>2020-08-02T10:27:48.675Z</time>
      </trkpt>
      <trkpt lat="62.81754" lon="7.05899">
        <ele>68.037629</ele>
        <time>2020-08-02T10:27:50.662Z</time>
      </trkpt>
      <trkpt lat="62.81756" lon="7.05921">
        <ele>67.943885</ele>
        <time>2020-08-02T10:27:52.704Z</time>
      </trkpt>
      <trkpt lat="62.81757" lon="7.05942">
        <ele>67.851888</ele>
        <time>2020-08-02T10:27:54.668Z</time>
      </trkpt>
      <trkpt lat="62.81759" lon="7.05964">
        <ele>67.75688</ele>
        <time>2020-08-02T10:27:56.677Z</time>
      </trkpt>
      <trkpt lat="62.8176" lon="7.05986">
        <ele>67.664223</ele>
        <time>2020-08-02T10:27:58.657Z</time>
      </trkpt>
      <trkpt lat="62.81761" lon="7.06007">
        <ele>67.57483</ele>
        <time>2020-08-02T10:28:00.728Z</time>
      </trkpt>
      <trkpt lat="62.81762" lon="7.06027">
        <ele>67.487886</ele>
        <time>2020-08-02T10:28:02.655Z</time>
      </trkpt>
      <trkpt lat="62.81763" lon="7.06048">
        <ele>67.399671</ele>
        <time>2020-08-02T10:28:04.697Z</time>
      </trkpt>
      <trkpt lat="62.81764" lon="7.06069">
        <ele>67.3093</ele>
        <time>2020-08-02T10:28:06.660Z</time>
      </trkpt>
      <trkpt lat="62.81766" lon="7.0609">
        <ele>67.216222</ele>
        <time>2020-08-02T10:28:08.682Z</time>
      </trkpt>
      <trkpt lat="62.81768" lon="7.06114">
        <ele>67.114626</ele>
        <time>2020-08-02T10:28:10.675Z</time>
      </trkpt>
      <trkpt lat="62.81769" lon="7.06139">
        <ele>67.007677</ele>
        <time>2020-08-02T10:28:12.682Z</time>
      </trkpt>
      <trkpt lat="62.81771" lon="7.06163">
        <ele>66.900889</ele>
        <time>2020-08-02T10:28:14.677Z</time>
      </trkpt>
      <trkpt lat="62.81772" lon="7.06188">
        <ele>66.796283</ele>
        <time>2020-08-02T10:28:16.665Z</time>
      </trkpt>
      <trkpt lat="62.81774" lon="7.06211">
        <ele>66.698055</ele>
        <time>2020-08-02T10:28:18.660Z</time>
      </trkpt>
      <trkpt lat="62.81775" lon="7.06232">
        <ele>66.606283</ele>
        <time>2020-08-02T10:28:20.709Z</time>
      </trkpt>
      <trkpt lat="62.81777" lon="7.06252">
        <ele>66.517304</ele>
        <time>2020-08-02T10:28:22.724Z</time>
      </trkpt>
      <trkpt lat="62.81778" lon="7.06273">
        <ele>66.43641</ele>
        <time>2020-08-02T10:28:24.677Z</time>
      </trkpt>
      <trkpt lat="62.81779" lon="7.06294">
        <ele>66.365383</ele>
        <time>2020-08-02T10:28:26.666Z</time>
      </trkpt>
      <trkpt lat="62.8178" lon="7.06315">
        <ele>66.29244</ele>
        <time>2020-08-02T10:28:28.671Z</time>
      </trkpt>
      <trkpt lat="62.81779" lon="7.06337">
        <ele>66.216209</ele>
        <time>2020-08-02T10:28:30.668Z</time>
      </trkpt>
      <trkpt lat="62.81778" lon="7.06359">
        <ele>66.139576</ele>
        <time>2020-08-02T10:28:32.661Z</time>
      </trkpt>
      <trkpt lat="62.81776" lon="7.0638">
        <ele>66.065515</ele>
        <time>2020-08-02T10:28:34.688Z</time>
      </trkpt>
      <trkpt lat="62.81773" lon="7.06399">
        <ele>65.994536</ele>
        <time>2020-08-02T10:28:36.710Z</time>
      </trkpt>
      <trkpt lat="62.81768" lon="7.06425">
        <ele>65.899883</ele>
        <time>2020-08-02T10:28:39.711Z</time>
      </trkpt>
      <trkpt lat="62.81762" lon="7.06446">
        <ele>65.81316</ele>
        <time>2020-08-02T10:28:42.666Z</time>
      </trkpt>
      <trkpt lat="62.81755" lon="7.06466">
        <ele>65.727819</ele>
        <time>2020-08-02T10:28:45.674Z</time>
      </trkpt>
      <trkpt lat="62.81746" lon="7.06488">
        <ele>65.628551</ele>
        <time>2020-08-02T10:28:48.667Z</time>
      </trkpt>
      <trkpt lat="62.8174" lon="7.06504">
        <ele>65.555957</ele>
        <time>2020-08-02T10:28:50.663Z</time>
      </trkpt>
      <trkpt lat="62.81734" lon="7.06521">
        <ele>65.478995</ele>
        <time>2020-08-02T10:28:52.686Z</time>
      </trkpt>
      <trkpt lat="62.81727" lon="7.0654">
        <ele>65.399867</ele>
        <time>2020-08-02T10:28:54.673Z</time>
      </trkpt>
      <trkpt lat="62.8172" lon="7.0656">
        <ele>65.31167</ele>
        <time>2020-08-02T10:28:56.675Z</time>
      </trkpt>
      <trkpt lat="62.81711" lon="7.06581">
        <ele>65.21171</ele>
        <time>2020-08-02T10:28:58.689Z</time>
      </trkpt>
      <trkpt lat="62.81702" lon="7.06605">
        <ele>65.065999</ele>
        <time>2020-08-02T10:29:00.666Z</time>
      </trkpt>
      <trkpt lat="62.81692" lon="7.06632">
        <ele>64.483729</ele>
        <time>2020-08-02T10:29:02.694Z</time>
      </trkpt>
      <trkpt lat="62.81682" lon="7.06664">
        <ele>63.82892</ele>
        <time>2020-08-02T10:29:04.677Z</time>
      </trkpt>
      <trkpt lat="62.81677" lon="7.06683">
        <ele>63.458523</ele>
        <time>2020-08-02T10:29:05.687Z</time>
      </trkpt>
      <trkpt lat="62.81672" lon="7.06703">
        <ele>63.073463</ele>
        <time>2020-08-02T10:29:06.665Z</time>
      </trkpt>
      <trkpt lat="62.81667" lon="7.06724">
        <ele>62.670795</ele>
        <time>2020-08-02T10:29:07.672Z</time>
      </trkpt>
      <trkpt lat="62.81662" lon="7.06746">
        <ele>62.254649</ele>
        <time>2020-08-02T10:29:08.692Z</time>
      </trkpt>
      <trkpt lat="62.81657" lon="7.06768">
        <ele>61.830786</ele>
        <time>2020-08-02T10:29:09.663Z</time>
      </trkpt>
      <trkpt lat="62.81653" lon="7.06791">
        <ele>61.402425</ele>
        <time>2020-08-02T10:29:10.668Z</time>
      </trkpt>
      <trkpt lat="62.81648" lon="7.06815">
        <ele>60.972004</ele>
        <time>2020-08-02T10:29:11.662Z</time>
      </trkpt>
      <trkpt lat="62.81645" lon="7.06839">
        <ele>60.547718</ele>
        <time>2020-08-02T10:29:12.698Z</time>
      </trkpt>
      <trkpt lat="62.81642" lon="7.06862">
        <ele>60.133166</ele>
        <time>2020-08-02T10:29:13.651Z</time>
      </trkpt>
      <trkpt lat="62.8164" lon="7.06886">
        <ele>59.732873</ele>
        <time>2020-08-02T10:29:14.692Z</time>
      </trkpt>
      <trkpt lat="62.8164" lon="7.06909">
        <ele>59.345988</ele>
        <time>2020-08-02T10:29:15.683Z</time>
      </trkpt>
      <trkpt lat="62.8164" lon="7.0693">
        <ele>58.976517</ele>
        <time>2020-08-02T10:29:16.675Z</time>
      </trkpt>
      <trkpt lat="62.8164" lon="7.06951">
        <ele>58.624075</ele>
        <time>2020-08-02T10:29:17.705Z</time>
      </trkpt>
      <trkpt lat="62.8164" lon="7.06971">
        <ele>58.615661</ele>
        <time>2020-08-02T10:29:18.675Z</time>
      </trkpt>
      <trkpt lat="62.81639" lon="7.07008">
        <ele>59.299539</ele>
        <time>2020-08-02T10:29:20.669Z</time>
      </trkpt>
      <trkpt lat="62.81638" lon="7.07041">
        <ele>59.909972</ele>
        <time>2020-08-02T10:29:22.660Z</time>
      </trkpt>
      <trkpt lat="62.81637" lon="7.0707">
        <ele>60.462522</ele>
        <time>2020-08-02T10:29:24.668Z</time>
      </trkpt>
      <trkpt lat="62.81636" lon="7.07097">
        <ele>60.964952</ele>
        <time>2020-08-02T10:29:26.670Z</time>
      </trkpt>
      <trkpt lat="62.81634" lon="7.07119">
        <ele>61.386746</ele>
        <time>2020-08-02T10:29:28.669Z</time>
      </trkpt>
      <trkpt lat="62.81631" lon="7.07138">
        <ele>61.757986</ele>
        <time>2020-08-02T10:29:30.674Z</time>
      </trkpt>
      <trkpt lat="62.81627" lon="7.07159">
        <ele>62.181944</ele>
        <time>2020-08-02T10:29:33.688Z</time>
      </trkpt>
      <trkpt lat="62.81622" lon="7.07181">
        <ele>62.641138</ele>
        <time>2020-08-02T10:29:37.654Z</time>
      </trkpt>
      <trkpt lat="62.81618" lon="7.07201">
        <ele>63.04972</ele>
        <time>2020-08-02T10:29:42.667Z</time>
      </trkpt>
      <trkpt lat="62.81612" lon="7.07221">
        <ele>63.487208</ele>
        <time>2020-08-02T10:29:48.658Z</time>
      </trkpt>
      <trkpt lat="62.81607" lon="7.07239">
        <ele>63.880745</ele>
        <time>2020-08-02T10:29:53.666Z</time>
      </trkpt>
      <trkpt lat="62.81601" lon="7.07257">
        <ele>64.301188</ele>
        <time>2020-08-02T10:29:59.670Z</time>
      </trkpt>
      <trkpt lat="62.81593" lon="7.07274">
        <ele>64.751278</ele>
        <time>2020-08-02T10:30:04.693Z</time>
      </trkpt>
      <trkpt lat="62.81585" lon="7.07292">
        <ele>65.199577</ele>
        <time>2020-08-02T10:30:08.728Z</time>
      </trkpt>
      <trkpt lat="62.81577" lon="7.0731">
        <ele>65.685206</ele>
        <time>2020-08-02T10:30:12.667Z</time>
      </trkpt>
      <trkpt lat="62.8157" lon="7.07327">
        <ele>65.454378</ele>
        <time>2020-08-02T10:30:15.674Z</time>
      </trkpt>
      <trkpt lat="62.81562" lon="7.0735">
        <ele>64.952509</ele>
        <time>2020-08-02T10:30:18.671Z</time>
      </trkpt>
      <trkpt lat="62.81556" lon="7.07368">
        <ele>64.556526</ele>
        <time>2020-08-02T10:30:20.687Z</time>
      </trkpt>
      <trkpt lat="62.8155" lon="7.07389">
        <ele>64.1211</ele>
        <time>2020-08-02T10:30:22.666Z</time>
      </trkpt>
      <trkpt lat="62.81543" lon="7.07413">
        <ele>63.629917</ele>
        <time>2020-08-02T10:30:24.674Z</time>
      </trkpt>
      <trkpt lat="62.81537" lon="7.07439">
        <ele>63.107619</ele>
        <time>2020-08-02T10:30:26.694Z</time>
      </trkpt>
      <trkpt lat="62.81531" lon="7.07466">
        <ele>62.584737</ele>
        <time>2020-08-02T10:30:28.666Z</time>
      </trkpt>
      <trkpt lat="62.81526" lon="7.07495">
        <ele>62.045697</ele>
        <time>2020-08-02T10:30:30.675Z</time>
      </trkpt>
      <trkpt lat="62.81519" lon="7.07522">
        <ele>61.505231</ele>
        <time>2020-08-02T10:30:32.671Z</time>
      </trkpt>
      <trkpt lat="62.81513" lon="7.07549">
        <ele>60.969114</ele>
        <time>2020-08-02T10:30:34.684Z</time>
      </trkpt>
      <trkpt lat="62.81508" lon="7.07581">
        <ele>60.384992</ele>
        <time>2020-08-02T10:30:36.699Z</time>
      </trkpt>
      <trkpt lat="62.81504" lon="7.07616">
        <ele>59.737981</ele>
        <time>2020-08-02T10:30:38.666Z</time>
      </trkpt>
      <trkpt lat="62.81501" lon="7.07655">
        <ele>59.046578</ele>
        <time>2020-08-02T10:30:40.670Z</time>
      </trkpt>
      <trkpt lat="62.815" lon="7.07675">
        <ele>58.712278</ele>
        <time>2020-08-02T10:30:41.682Z</time>
      </trkpt>
      <trkpt lat="62.81498" lon="7.07696">
        <ele>58.405025</ele>
        <time>2020-08-02T10:30:42.675Z</time>
      </trkpt>
      <trkpt lat="62.81497" lon="7.07717">
        <ele>58.090003</ele>
        <time>2020-08-02T10:30:43.685Z</time>
      </trkpt>
      <trkpt lat="62.81495" lon="7.07738">
        <ele>57.769614</ele>
        <time>2020-08-02T10:30:44.686Z</time>
      </trkpt>
      <trkpt lat="62.81494" lon="7.07761">
        <ele>57.438042</ele>
        <time>2020-08-02T10:30:45.662Z</time>
      </trkpt>
      <trkpt lat="62.81493" lon="7.07783">
        <ele>57.100413</ele>
        <time>2020-08-02T10:30:46.656Z</time>
      </trkpt>
      <trkpt lat="62.81491" lon="7.07807">
        <ele>56.755066</ele>
        <time>2020-08-02T10:30:47.671Z</time>
      </trkpt>
      <trkpt lat="62.8149" lon="7.0783">
        <ele>56.40488</ele>
        <time>2020-08-02T10:30:48.660Z</time>
      </trkpt>
      <trkpt lat="62.8149" lon="7.07854">
        <ele>56.058768</ele>
        <time>2020-08-02T10:30:49.688Z</time>
      </trkpt>
      <trkpt lat="62.8149" lon="7.07877">
        <ele>55.717405</ele>
        <time>2020-08-02T10:30:50.676Z</time>
      </trkpt>
      <trkpt lat="62.8149" lon="7.07899">
        <ele>55.38335</ele>
        <time>2020-08-02T10:30:51.668Z</time>
      </trkpt>
      <trkpt lat="62.81491" lon="7.07922">
        <ele>55.050814</ele>
        <time>2020-08-02T10:30:52.721Z</time>
      </trkpt>
      <trkpt lat="62.81493" lon="7.07943">
        <ele>54.730931</ele>
        <time>2020-08-02T10:30:53.733Z</time>
      </trkpt>
      <trkpt lat="62.81494" lon="7.07964">
        <ele>54.424679</ele>
        <time>2020-08-02T10:30:54.666Z</time>
      </trkpt>
      <trkpt lat="62.81495" lon="7.07984">
        <ele>54.124112</ele>
        <time>2020-08-02T10:30:55.676Z</time>
      </trkpt>
      <trkpt lat="62.81496" lon="7.08004">
        <ele>53.829221</ele>
        <time>2020-08-02T10:30:56.690Z</time>
      </trkpt>
      <trkpt lat="62.81496" lon="7.08023">
        <ele>53.536034</ele>
        <time>2020-08-02T10:30:57.699Z</time>
      </trkpt>
      <trkpt lat="62.81497" lon="7.08062">
        <ele>53.032948</ele>
        <time>2020-08-02T10:30:59.664Z</time>
      </trkpt>
      <trkpt lat="62.81497" lon="7.08101">
        <ele>52.991087</ele>
        <time>2020-08-02T10:31:01.667Z</time>
      </trkpt>
      <trkpt lat="62.81495" lon="7.08137">
        <ele>52.950692</ele>
        <time>2020-08-02T10:31:03.696Z</time>
      </trkpt>
      <trkpt lat="62.81492" lon="7.08172">
        <ele>52.912167</ele>
        <time>2020-08-02T10:31:05.675Z</time>
      </trkpt>
      <trkpt lat="62.81486" lon="7.08203">
        <ele>52.874672</ele>
        <time>2020-08-02T10:31:07.673Z</time>
      </trkpt>
      <trkpt lat="62.81479" lon="7.08231">
        <ele>52.839539</ele>
        <time>2020-08-02T10:31:09.672Z</time>
      </trkpt>
      <trkpt lat="62.81472" lon="7.08256">
        <ele>52.807808</ele>
        <time>2020-08-02T10:31:11.684Z</time>
      </trkpt>
      <trkpt lat="62.81467" lon="7.08281">
        <ele>52.778109</ele>
        <time>2020-08-02T10:31:13.658Z</time>
      </trkpt>
      <trkpt lat="62.81464" lon="7.08303">
        <ele>52.752584</ele>
        <time>2020-08-02T10:31:15.685Z</time>
      </trkpt>
      <trkpt lat="62.81462" lon="7.08325">
        <ele>52.728607</ele>
        <time>2020-08-02T10:31:17.675Z</time>
      </trkpt>
      <trkpt lat="62.81463" lon="7.0835">
        <ele>52.700437</ele>
        <time>2020-08-02T10:31:20.672Z</time>
      </trkpt>
      <trkpt lat="62.81467" lon="7.08373">
        <ele>52.674022</ele>
        <time>2020-08-02T10:31:23.661Z</time>
      </trkpt>
      <trkpt lat="62.81473" lon="7.084">
        <ele>52.641229</ele>
        <time>2020-08-02T10:31:26.670Z</time>
      </trkpt>
      <trkpt lat="62.81478" lon="7.0842">
        <ele>52.616441</ele>
        <time>2020-08-02T10:31:28.705Z</time>
      </trkpt>
      <trkpt lat="62.81482" lon="7.08439">
        <ele>52.697556</ele>
        <time>2020-08-02T10:31:30.666Z</time>
      </trkpt>
      <trkpt lat="62.81488" lon="7.08458">
        <ele>52.844205</ele>
        <time>2020-08-02T10:31:32.673Z</time>
      </trkpt>
      <trkpt lat="62.81494" lon="7.08478">
        <ele>53.005339</ele>
        <time>2020-08-02T10:31:34.675Z</time>
      </trkpt>
      <trkpt lat="62.815" lon="7.08496">
        <ele>53.153406</ele>
        <time>2020-08-02T10:31:36.657Z</time>
      </trkpt>
      <trkpt lat="62.81506" lon="7.08515">
        <ele>53.306082</ele>
        <time>2020-08-02T10:31:38.661Z</time>
      </trkpt>
      <trkpt lat="62.81512" lon="7.08533">
        <ele>53.450564</ele>
        <time>2020-08-02T10:31:40.702Z</time>
      </trkpt>
      <trkpt lat="62.81517" lon="7.08551">
        <ele>53.590388</ele>
        <time>2020-08-02T10:31:42.654Z</time>
      </trkpt>
      <trkpt lat="62.81522" lon="7.08568">
        <ele>53.729395</ele>
        <time>2020-08-02T10:31:44.675Z</time>
      </trkpt>
      <trkpt lat="62.81528" lon="7.08585">
        <ele>53.86709</ele>
        <time>2020-08-02T10:31:46.705Z</time>
      </trkpt>
      <trkpt lat="62.81534" lon="7.08601">
        <ele>54.007391</ele>
        <time>2020-08-02T10:31:48.704Z</time>
      </trkpt>
      <trkpt lat="62.8154" lon="7.08619">
        <ele>54.153754</ele>
        <time>2020-08-02T10:31:50.655Z</time>
      </trkpt>
      <trkpt lat="62.81547" lon="7.08637">
        <ele>54.306708</ele>
        <time>2020-08-02T10:31:52.666Z</time>
      </trkpt>
      <trkpt lat="62.81554" lon="7.08657">
        <ele>54.479567</ele>
        <time>2020-08-02T10:31:54.661Z</time>
      </trkpt>
      <trkpt lat="62.81562" lon="7.08678">
        <ele>54.65851</ele>
        <time>2020-08-02T10:31:56.663Z</time>
      </trkpt>
      <trkpt lat="62.8157" lon="7.087">
        <ele>54.839022</ele>
        <time>2020-08-02T10:31:58.667Z</time>
      </trkpt>
      <trkpt lat="62.81577" lon="7.08721">
        <ele>55.017307</ele>
        <time>2020-08-02T10:32:00.671Z</time>
      </trkpt>
      <trkpt lat="62.81585" lon="7.08742">
        <ele>55.196824</ele>
        <time>2020-08-02T10:32:02.706Z</time>
      </trkpt>
      <trkpt lat="62.81594" lon="7.08761">
        <ele>55.19621</ele>
        <time>2020-08-02T10:32:04.682Z</time>
      </trkpt>
      <trkpt lat="62.81603" lon="7.0878">
        <ele>55.17665</ele>
        <time>2020-08-02T10:32:06.670Z</time>
      </trkpt>
      <trkpt lat="62.81612" lon="7.08799">
        <ele>55.156436</ele>
        <time>2020-08-02T10:32:08.669Z</time>
      </trkpt>
      <trkpt lat="62.81622" lon="7.08818">
        <ele>55.136815</ele>
        <time>2020-08-02T10:32:10.686Z</time>
      </trkpt>
      <trkpt lat="62.8163" lon="7.08836">
        <ele>55.118177</ele>
        <time>2020-08-02T10:32:12.663Z</time>
      </trkpt>
      <trkpt lat="62.81638" lon="7.08855">
        <ele>55.100024</ele>
        <time>2020-08-02T10:32:14.726Z</time>
      </trkpt>
      <trkpt lat="62.81645" lon="7.0887">
        <ele>55.083892</ele>
        <time>2020-08-02T10:32:16.710Z</time>
      </trkpt>
      <trkpt lat="62.81652" lon="7.08885">
        <ele>55.068927</ele>
        <time>2020-08-02T10:32:18.685Z</time>
      </trkpt>
      <trkpt lat="62.81661" lon="7.08906">
        <ele>55.047308</ele>
        <time>2020-08-02T10:32:21.665Z</time>
      </trkpt>
      <trkpt lat="62.81668" lon="7.0892">
        <ele>55.032886</ele>
        <time>2020-08-02T10:32:23.686Z</time>
      </trkpt>
      <trkpt lat="62.81677" lon="7.08939">
        <ele>55.01315</ele>
        <time>2020-08-02T10:32:26.717Z</time>
      </trkpt>
      <trkpt lat="62.81684" lon="7.08952">
        <ele>54.998281</ele>
        <time>2020-08-02T10:32:28.663Z</time>
      </trkpt>
      <trkpt lat="62.81691" lon="7.08968">
        <ele>54.98295</ele>
        <time>2020-08-02T10:32:30.676Z</time>
      </trkpt>
      <trkpt lat="62.81697" lon="7.08985">
        <ele>54.967192</ele>
        <time>2020-08-02T10:32:32.675Z</time>
      </trkpt>
      <trkpt lat="62.81703" lon="7.09003">
        <ele>54.951567</ele>
        <time>2020-08-02T10:32:34.682Z</time>
      </trkpt>
      <trkpt lat="62.81709" lon="7.0902">
        <ele>54.935404</ele>
        <time>2020-08-02T10:32:36.687Z</time>
      </trkpt>
      <trkpt lat="62.81715" lon="7.09037">
        <ele>54.920087</ele>
        <time>2020-08-02T10:32:38.742Z</time>
      </trkpt>
      <trkpt lat="62.8172" lon="7.09054">
        <ele>54.905691</ele>
        <time>2020-08-02T10:32:40.678Z</time>
      </trkpt>
      <trkpt lat="62.81725" lon="7.09071">
        <ele>54.89133</ele>
        <time>2020-08-02T10:32:42.669Z</time>
      </trkpt>
      <trkpt lat="62.8173" lon="7.09088">
        <ele>54.877078</ele>
        <time>2020-08-02T10:32:44.671Z</time>
      </trkpt>
      <trkpt lat="62.81737" lon="7.09113">
        <ele>54.85604</ele>
        <time>2020-08-02T10:32:47.683Z</time>
      </trkpt>
      <trkpt lat="62.81742" lon="7.09131">
        <ele>54.841707</ele>
        <time>2020-08-02T10:32:49.674Z</time>
      </trkpt>
      <trkpt lat="62.81748" lon="7.09155">
        <ele>54.822213</ele>
        <time>2020-08-02T10:32:52.695Z</time>
      </trkpt>
      <trkpt lat="62.81754" lon="7.09177">
        <ele>54.803642</ele>
        <time>2020-08-02T10:32:55.660Z</time>
      </trkpt>
      <trkpt lat="62.8176" lon="7.092">
        <ele>54.785424</ele>
        <time>2020-08-02T10:32:58.716Z</time>
      </trkpt>
      <trkpt lat="62.81765" lon="7.09217">
        <ele>54.770829</ele>
        <time>2020-08-02T10:33:00.664Z</time>
      </trkpt>
      <trkpt lat="62.8177" lon="7.09244">
        <ele>54.750058</ele>
        <time>2020-08-02T10:33:03.655Z</time>
      </trkpt>
      <trkpt lat="62.81776" lon="7.09269">
        <ele>54.730194</ele>
        <time>2020-08-02T10:33:06.656Z</time>
      </trkpt>
      <trkpt lat="62.8178" lon="7.09293">
        <ele>54.711966</ele>
        <time>2020-08-02T10:33:09.691Z</time>
      </trkpt>
      <trkpt lat="62.81782" lon="7.09315">
        <ele>54.696003</ele>
        <time>2020-08-02T10:33:12.670Z</time>
      </trkpt>
      <trkpt lat="62.81785" lon="7.0934">
        <ele>54.677893</ele>
        <time>2020-08-02T10:33:16.675Z</time>
      </trkpt>
      <trkpt lat="62.81787" lon="7.09362">
        <ele>54.662064</ele>
        <time>2020-08-02T10:33:20.698Z</time>
      </trkpt>
      <trkpt lat="62.8179" lon="7.09382">
        <ele>54.593142</ele>
        <time>2020-08-02T10:33:24.664Z</time>
      </trkpt>
      <trkpt lat="62.81793" lon="7.09406">
        <ele>54.351541</ele>
        <time>2020-08-02T10:33:29.692Z</time>
      </trkpt>
      <trkpt lat="62.81794" lon="7.09426">
        <ele>54.150468</ele>
        <time>2020-08-02T10:33:33.687Z</time>
      </trkpt>
      <trkpt lat="62.81794" lon="7.09451">
        <ele>53.911101</ele>
        <time>2020-08-02T10:33:37.676Z</time>
      </trkpt>
      <trkpt lat="62.81794" lon="7.09477">
        <ele>53.656212</ele>
        <time>2020-08-02T10:33:40.691Z</time>
      </trkpt>
      <trkpt lat="62.81794" lon="7.09498">
        <ele>53.450406</ele>
        <time>2020-08-02T10:33:42.694Z</time>
      </trkpt>
      <trkpt lat="62.81793" lon="7.09521">
        <ele>53.22107</ele>
        <time>2020-08-02T10:33:44.686Z</time>
      </trkpt>
      <trkpt lat="62.81793" lon="7.09545">
        <ele>52.985072</ele>
        <time>2020-08-02T10:33:46.659Z</time>
      </trkpt>
      <trkpt lat="62.81792" lon="7.09571">
        <ele>52.728844</ele>
        <time>2020-08-02T10:33:48.688Z</time>
      </trkpt>
      <trkpt lat="62.81792" lon="7.09601">
        <ele>52.437704</ele>
        <time>2020-08-02T10:33:50.685Z</time>
      </trkpt>
      <trkpt lat="62.81792" lon="7.09634">
        <ele>52.115268</ele>
        <time>2020-08-02T10:33:52.675Z</time>
      </trkpt>
      <trkpt lat="62.81791" lon="7.09667">
        <ele>51.790765</ele>
        <time>2020-08-02T10:33:54.688Z</time>
      </trkpt>
      <trkpt lat="62.8179" lon="7.097">
        <ele>51.465922</ele>
        <time>2020-08-02T10:33:56.674Z</time>
      </trkpt>
      <trkpt lat="62.81789" lon="7.09732">
        <ele>51.149902</ele>
        <time>2020-08-02T10:33:58.686Z</time>
      </trkpt>
      <trkpt lat="62.81788" lon="7.09765">
        <ele>50.825632</ele>
        <time>2020-08-02T10:34:00.679Z</time>
      </trkpt>
      <trkpt lat="62.81787" lon="7.09797">
        <ele>50.758167</ele>
        <time>2020-08-02T10:34:02.670Z</time>
      </trkpt>
      <trkpt lat="62.81786" lon="7.09824">
        <ele>50.726101</ele>
        <time>2020-08-02T10:34:04.679Z</time>
      </trkpt>
      <trkpt lat="62.81786" lon="7.09846">
        <ele>50.700821</ele>
        <time>2020-08-02T10:34:06.662Z</time>
      </trkpt>
      <trkpt lat="62.81785" lon="7.0987">
        <ele>50.671918</ele>
        <time>2020-08-02T10:34:09.674Z</time>
      </trkpt>
      <trkpt lat="62.81783" lon="7.09894">
        <ele>50.643026</ele>
        <time>2020-08-02T10:34:12.666Z</time>
      </trkpt>
      <trkpt lat="62.8178" lon="7.0992">
        <ele>50.611238</ele>
        <time>2020-08-02T10:34:15.666Z</time>
      </trkpt>
      <trkpt lat="62.81775" lon="7.09946">
        <ele>50.578238</ele>
        <time>2020-08-02T10:34:18.675Z</time>
      </trkpt>
      <trkpt lat="62.81767" lon="7.09967">
        <ele>50.546265</ele>
        <time>2020-08-02T10:34:21.704Z</time>
      </trkpt>
      <trkpt lat="62.81757" lon="7.09985">
        <ele>50.511427</ele>
        <time>2020-08-02T10:34:24.655Z</time>
      </trkpt>
      <trkpt lat="62.81748" lon="7.09997">
        <ele>50.485335</ele>
        <time>2020-08-02T10:34:26.666Z</time>
      </trkpt>
      <trkpt lat="62.81738" lon="7.1001">
        <ele>50.454764</ele>
        <time>2020-08-02T10:34:28.653Z</time>
      </trkpt>
      <trkpt lat="62.81727" lon="7.10024">
        <ele>50.422094</ele>
        <time>2020-08-02T10:34:30.699Z</time>
      </trkpt>
      <trkpt lat="62.81716" lon="7.10038">
        <ele>50.38798</ele>
        <time>2020-08-02T10:34:32.681Z</time>
      </trkpt>
      <trkpt lat="62.81705" lon="7.10054">
        <ele>50.354683</ele>
        <time>2020-08-02T10:34:34.682Z</time>
      </trkpt>
      <trkpt lat="62.81696" lon="7.1007">
        <ele>50.340792</ele>
        <time>2020-08-02T10:34:36.702Z</time>
      </trkpt>
      <trkpt lat="62.81687" lon="7.10086">
        <ele>50.440677</ele>
        <time>2020-08-02T10:34:38.672Z</time>
      </trkpt>
      <trkpt lat="62.81679" lon="7.10099">
        <ele>50.530619</ele>
        <time>2020-08-02T10:34:40.666Z</time>
      </trkpt>
      <trkpt lat="62.81671" lon="7.1011">
        <ele>50.618411</ele>
        <time>2020-08-02T10:34:42.665Z</time>
      </trkpt>
      <trkpt lat="62.81664" lon="7.10122">
        <ele>50.702246</ele>
        <time>2020-08-02T10:34:44.657Z</time>
      </trkpt>
      <trkpt lat="62.81656" lon="7.10134">
        <ele>50.789259</ele>
        <time>2020-08-02T10:34:46.666Z</time>
      </trkpt>
      <trkpt lat="62.81648" lon="7.10145">
        <ele>50.875779</ele>
        <time>2020-08-02T10:34:48.669Z</time>
      </trkpt>
      <trkpt lat="62.81639" lon="7.10155">
        <ele>50.959989</ele>
        <time>2020-08-02T10:34:50.678Z</time>
      </trkpt>
      <trkpt lat="62.81631" lon="7.10164">
        <ele>51.044247</ele>
        <time>2020-08-02T10:34:52.715Z</time>
      </trkpt>
      <trkpt lat="62.81623" lon="7.10171">
        <ele>51.126108</ele>
        <time>2020-08-02T10:34:54.700Z</time>
      </trkpt>
      <trkpt lat="62.81613" lon="7.10174">
        <ele>51.211086</ele>
        <time>2020-08-02T10:34:56.708Z</time>
      </trkpt>
      <trkpt lat="62.81604" lon="7.10177">
        <ele>51.296133</ele>
        <time>2020-08-02T10:34:58.668Z</time>
      </trkpt>
      <trkpt lat="62.81595" lon="7.10178">
        <ele>51.38061</ele>
        <time>2020-08-02T10:35:00.688Z</time>
      </trkpt>
      <trkpt lat="62.81586" lon="7.10176">
        <ele>51.463411</ele>
        <time>2020-08-02T10:35:02.676Z</time>
      </trkpt>
      <trkpt lat="62.81576" lon="7.10173">
        <ele>51.552853</ele>
        <time>2020-08-02T10:35:04.705Z</time>
      </trkpt>
      <trkpt lat="62.81566" lon="7.10168">
        <ele>51.645865</ele>
        <time>2020-08-02T10:35:06.663Z</time>
      </trkpt>
      <trkpt lat="62.81555" lon="7.10164">
        <ele>51.745217</ele>
        <time>2020-08-02T10:35:08.719Z</time>
      </trkpt>
      <trkpt lat="62.81545" lon="7.10159">
        <ele>51.840276</ele>
        <time>2020-08-02T10:35:10.675Z</time>
      </trkpt>
      <trkpt lat="62.81534" lon="7.10154">
        <ele>51.938526</ele>
        <time>2020-08-02T10:35:12.712Z</time>
      </trkpt>
      <trkpt lat="62.81524" lon="7.1015">
        <ele>52.122477</ele>
        <time>2020-08-02T10:35:14.714Z</time>
      </trkpt>
      <trkpt lat="62.81513" lon="7.10147">
        <ele>52.335823</ele>
        <time>2020-08-02T10:35:16.664Z</time>
      </trkpt>
      <trkpt lat="62.81503" lon="7.10144">
        <ele>52.53686</ele>
        <time>2020-08-02T10:35:18.675Z</time>
      </trkpt>
      <trkpt lat="62.81493" lon="7.10143">
        <ele>52.721571</ele>
        <time>2020-08-02T10:35:20.690Z</time>
      </trkpt>
      <trkpt lat="62.8148" lon="7.10141">
        <ele>52.968578</ele>
        <time>2020-08-02T10:35:23.698Z</time>
      </trkpt>
      <trkpt lat="62.8147" lon="7.10141">
        <ele>53.180032</ele>
        <time>2020-08-02T10:35:26.671Z</time>
      </trkpt>
      <trkpt lat="62.81458" lon="7.10137">
        <ele>53.399899</ele>
        <time>2020-08-02T10:35:30.692Z</time>
      </trkpt>
      <trkpt lat="62.81449" lon="7.10131">
        <ele>53.595442</ele>
        <time>2020-08-02T10:35:34.679Z</time>
      </trkpt>
      <trkpt lat="62.81439" lon="7.10124">
        <ele>53.79992</ele>
        <time>2020-08-02T10:35:38.669Z</time>
      </trkpt>
      <trkpt lat="62.81429" lon="7.10118">
        <ele>54.001545</ele>
        <time>2020-08-02T10:35:42.671Z</time>
      </trkpt>
      <trkpt lat="62.81418" lon="7.10108">
        <ele>54.227597</ele>
        <time>2020-08-02T10:35:46.666Z</time>
      </trkpt>
      <trkpt lat="62.8141" lon="7.101">
        <ele>54.40499</ele>
        <time>2020-08-02T10:35:49.658Z</time>
      </trkpt>
      <trkpt lat="62.81402" lon="7.10088">
        <ele>54.589536</ele>
        <time>2020-08-02T10:35:52.674Z</time>
      </trkpt>
      <trkpt lat="62.81393" lon="7.10084">
        <ele>54.765616</ele>
        <time>2020-08-02T10:35:55.706Z</time>
      </trkpt>
      <trkpt lat="62.81382" lon="7.10094">
        <ele>54.987055</ele>
        <time>2020-08-02T10:35:58.669Z</time>
      </trkpt>
      <trkpt lat="62.81375" lon="7.10107">
        <ele>55.162205</ele>
        <time>2020-08-02T10:36:00.680Z</time>
      </trkpt>
      <trkpt lat="62.81368" lon="7.10123">
        <ele>55.359993</ele>
        <time>2020-08-02T10:36:02.689Z</time>
      </trkpt>
      <trkpt lat="62.81361" lon="7.10139">
        <ele>55.52404</ele>
        <time>2020-08-02T10:36:04.656Z</time>
      </trkpt>
      <trkpt lat="62.81352" lon="7.10156">
        <ele>55.666651</ele>
        <time>2020-08-02T10:36:06.663Z</time>
      </trkpt>
      <trkpt lat="62.81344" lon="7.10173">
        <ele>55.804626</ele>
        <time>2020-08-02T10:36:08.668Z</time>
      </trkpt>
      <trkpt lat="62.81336" lon="7.10188">
        <ele>55.93962</ele>
        <time>2020-08-02T10:36:10.656Z</time>
      </trkpt>
      <trkpt lat="62.81329" lon="7.10203">
        <ele>56.055979</ele>
        <time>2020-08-02T10:36:12.674Z</time>
      </trkpt>
      <trkpt lat="62.8132" lon="7.10221">
        <ele>56.208601</ele>
        <time>2020-08-02T10:36:15.676Z</time>
      </trkpt>
      <trkpt lat="62.81312" lon="7.10236">
        <ele>56.333939</ele>
        <time>2020-08-02T10:36:18.677Z</time>
      </trkpt>
      <trkpt lat="62.81304" lon="7.10251">
        <ele>56.467962</ele>
        <time>2020-08-02T10:36:22.697Z</time>
      </trkpt>
      <trkpt lat="62.81296" lon="7.10265">
        <ele>56.595315</ele>
        <time>2020-08-02T10:36:27.665Z</time>
      </trkpt>
      <trkpt lat="62.81288" lon="7.10276">
        <ele>56.707743</ele>
        <time>2020-08-02T10:36:32.679Z</time>
      </trkpt>
      <trkpt lat="62.8128" lon="7.10286">
        <ele>56.820866</ele>
        <time>2020-08-02T10:36:38.673Z</time>
      </trkpt>
      <trkpt lat="62.81271" lon="7.10298">
        <ele>56.947017</ele>
        <time>2020-08-02T10:36:44.689Z</time>
      </trkpt>
      <trkpt lat="62.81269" lon="7.10318">
        <ele>57.06446</ele>
        <time>2020-08-02T10:36:48.677Z</time>
      </trkpt>
      <trkpt lat="62.81269" lon="7.10338">
        <ele>57.176332</ele>
        <time>2020-08-02T10:36:51.683Z</time>
      </trkpt>
      <trkpt lat="62.8127" lon="7.10359">
        <ele>57.299736</ele>
        <time>2020-08-02T10:36:54.701Z</time>
      </trkpt>
      <trkpt lat="62.81271" lon="7.10382">
        <ele>57.426188</ele>
        <time>2020-08-02T10:36:57.695Z</time>
      </trkpt>
      <trkpt lat="62.81272" lon="7.10404">
        <ele>57.553421</ele>
        <time>2020-08-02T10:37:00.668Z</time>
      </trkpt>
      <trkpt lat="62.81273" lon="7.10426">
        <ele>57.719965</ele>
        <time>2020-08-02T10:37:03.682Z</time>
      </trkpt>
      <trkpt lat="62.81274" lon="7.10449">
        <ele>58.293828</ele>
        <time>2020-08-02T10:37:06.683Z</time>
      </trkpt>
      <trkpt lat="62.81275" lon="7.10472">
        <ele>58.868509</ele>
        <time>2020-08-02T10:37:09.664Z</time>
      </trkpt>
      <trkpt lat="62.81276" lon="7.10497">
        <ele>59.511692</ele>
        <time>2020-08-02T10:37:13.732Z</time>
      </trkpt>
      <trkpt lat="62.81277" lon="7.10524">
        <ele>60.171778</ele>
        <time>2020-08-02T10:37:17.676Z</time>
      </trkpt>
      <trkpt lat="62.81279" lon="7.10549">
        <ele>60.821241</ele>
        <time>2020-08-02T10:37:21.670Z</time>
      </trkpt>
      <trkpt lat="62.8128" lon="7.10573">
        <ele>61.436277</ele>
        <time>2020-08-02T10:37:25.704Z</time>
      </trkpt>
      <trkpt lat="62.81281" lon="7.10596">
        <ele>62.010138</ele>
        <time>2020-08-02T10:37:29.666Z</time>
      </trkpt>
      <trkpt lat="62.81282" lon="7.10618">
        <ele>62.557962</ele>
        <time>2020-08-02T10:37:33.695Z</time>
      </trkpt>
      <trkpt lat="62.81282" lon="7.10641">
        <ele>63.140517</ele>
        <time>2020-08-02T10:37:38.678Z</time>
      </trkpt>
      <trkpt lat="62.81284" lon="7.10661">
        <ele>63.643075</ele>
        <time>2020-08-02T10:37:43.678Z</time>
      </trkpt>
      <trkpt lat="62.81284" lon="7.10683">
        <ele>64.199189</ele>
        <time>2020-08-02T10:37:49.659Z</time>
      </trkpt>
      <trkpt lat="62.81284" lon="7.10704">
        <ele>64.726143</ele>
        <time>2020-08-02T10:37:55.655Z</time>
      </trkpt>
      <trkpt lat="62.81285" lon="7.10723">
        <ele>65.225553</ele>
        <time>2020-08-02T10:38:01.667Z</time>
      </trkpt>
      <trkpt lat="62.81287" lon="7.10744">
        <ele>65.742451</ele>
        <time>2020-08-02T10:38:07.703Z</time>
      </trkpt>
      <trkpt lat="62.81287" lon="7.10765">
        <ele>66.276939</ele>
        <time>2020-08-02T10:38:14.700Z</time>
      </trkpt>
      <trkpt lat="62.81289" lon="7.10787">
        <ele>66.826713</ele>
        <time>2020-08-02T10:38:21.671Z</time>
      </trkpt>
      <trkpt lat="62.8129" lon="7.10808">
        <ele>67.37921</ele>
        <time>2020-08-02T10:38:28.672Z</time>
      </trkpt>
      <trkpt lat="62.81291" lon="7.10829">
        <ele>67.954937</ele>
        <time>2020-08-02T10:38:34.677Z</time>
      </trkpt>
      <trkpt lat="62.81292" lon="7.1085">
        <ele>68.586337</ele>
        <time>2020-08-02T10:38:41.696Z</time>
      </trkpt>
      <trkpt lat="62.81293" lon="7.10869">
        <ele>69.180994</ele>
        <time>2020-08-02T10:38:47.667Z</time>
      </trkpt>
      <trkpt lat="62.81294" lon="7.1089">
        <ele>69.820286</ele>
        <time>2020-08-02T10:38:53.687Z</time>
      </trkpt>
      <trkpt lat="62.81294" lon="7.1091">
        <ele>70.410879</ele>
        <time>2020-08-02T10:38:59.662Z</time>
      </trkpt>
      <trkpt lat="62.81295" lon="7.10931">
        <ele>71.046392</ele>
        <time>2020-08-02T10:39:06.708Z</time>
      </trkpt>
      <trkpt lat="62.81295" lon="7.10953">
        <ele>71.697409</ele>
        <time>2020-08-02T10:39:13.671Z</time>
      </trkpt>
      <trkpt lat="62.81297" lon="7.10974">
        <ele>72.321679</ele>
        <time>2020-08-02T10:39:20.679Z</time>
      </trkpt>
      <trkpt lat="62.81298" lon="7.10995">
        <ele>72.961095</ele>
        <time>2020-08-02T10:39:27.662Z</time>
      </trkpt>
      <trkpt lat="62.813" lon="7.11016">
        <ele>73.618326</ele>
        <time>2020-08-02T10:39:33.683Z</time>
      </trkpt>
      <trkpt lat="62.81301" lon="7.11037">
        <ele>74.258144</ele>
        <time>2020-08-02T10:39:39.663Z</time>
      </trkpt>
      <trkpt lat="62.81302" lon="7.11058">
        <ele>74.879236</ele>
        <time>2020-08-02T10:39:46.671Z</time>
      </trkpt>
      <trkpt lat="62.81303" lon="7.11078">
        <ele>75.470154</ele>
        <time>2020-08-02T10:39:52.689Z</time>
      </trkpt>
      <trkpt lat="62.81303" lon="7.11098">
        <ele>76.09341</ele>
        <time>2020-08-02T10:39:58.681Z</time>
      </trkpt>
      <trkpt lat="62.81304" lon="7.11121">
        <ele>76.770147</ele>
        <time>2020-08-02T10:40:05.681Z</time>
      </trkpt>
      <trkpt lat="62.81304" lon="7.11143">
        <ele>77.418169</ele>
        <time>2020-08-02T10:40:11.690Z</time>
      </trkpt>
      <trkpt lat="62.81306" lon="7.11166">
        <ele>78.11726</ele>
        <time>2020-08-02T10:40:17.705Z</time>
      </trkpt>
      <trkpt lat="62.81308" lon="7.11188">
        <ele>78.79947</ele>
        <time>2020-08-02T10:40:23.695Z</time>
      </trkpt>
      <trkpt lat="62.81309" lon="7.11207">
        <ele>79.374639</ele>
        <time>2020-08-02T10:40:28.665Z</time>
      </trkpt>
      <trkpt lat="62.8131" lon="7.11227">
        <ele>79.513356</ele>
        <time>2020-08-02T10:40:33.657Z</time>
      </trkpt>
      <trkpt lat="62.8131" lon="7.11248">
        <ele>79.656251</ele>
        <time>2020-08-02T10:40:38.666Z</time>
      </trkpt>
      <trkpt lat="62.81311" lon="7.11269">
        <ele>79.805415</ele>
        <time>2020-08-02T10:40:43.667Z</time>
      </trkpt>
      <trkpt lat="62.81312" lon="7.1129">
        <ele>79.956369</ele>
        <time>2020-08-02T10:40:48.699Z</time>
      </trkpt>
      <trkpt lat="62.81314" lon="7.11313">
        <ele>80.114733</ele>
        <time>2020-08-02T10:40:53.662Z</time>
      </trkpt>
      <trkpt lat="62.81315" lon="7.11336">
        <ele>80.277504</ele>
        <time>2020-08-02T10:40:58.684Z</time>
      </trkpt>
      <trkpt lat="62.81316" lon="7.11358">
        <ele>80.429152</ele>
        <time>2020-08-02T10:41:02.703Z</time>
      </trkpt>
      <trkpt lat="62.81316" lon="7.11379">
        <ele>80.575426</ele>
        <time>2020-08-02T10:41:06.690Z</time>
      </trkpt>
      <trkpt lat="62.81317" lon="7.11404">
        <ele>80.753377</ele>
        <time>2020-08-02T10:41:10.696Z</time>
      </trkpt>
      <trkpt lat="62.81318" lon="7.11429">
        <ele>80.928962</ele>
        <time>2020-08-02T10:41:14.729Z</time>
      </trkpt>
      <trkpt lat="62.8132" lon="7.11454">
        <ele>81.105408</ele>
        <time>2020-08-02T10:41:18.673Z</time>
      </trkpt>
      <trkpt lat="62.81321" lon="7.1148">
        <ele>81.284317</ele>
        <time>2020-08-02T10:41:22.676Z</time>
      </trkpt>
      <trkpt lat="62.81322" lon="7.11505">
        <ele>81.461291</ele>
        <time>2020-08-02T10:41:26.668Z</time>
      </trkpt>
      <trkpt lat="62.81323" lon="7.11524">
        <ele>81.598728</ele>
        <time>2020-08-02T10:41:29.664Z</time>
      </trkpt>
      <trkpt lat="62.81324" lon="7.11544">
        <ele>81.736164</ele>
        <time>2020-08-02T10:41:32.674Z</time>
      </trkpt>
      <trkpt lat="62.81326" lon="7.11564">
        <ele>81.875887</ele>
        <time>2020-08-02T10:41:35.670Z</time>
      </trkpt>
      <trkpt lat="62.81327" lon="7.11583">
        <ele>82.017296</ele>
        <time>2020-08-02T10:41:38.672Z</time>
      </trkpt>
      <trkpt lat="62.81329" lon="7.11605">
        <ele>82.085289</ele>
        <time>2020-08-02T10:41:41.725Z</time>
      </trkpt>
      <trkpt lat="62.8133" lon="7.11627">
        <ele>81.983391</ele>
        <time>2020-08-02T10:41:44.678Z</time>
      </trkpt>
      <trkpt lat="62.81331" lon="7.11649">
        <ele>81.882972</ele>
        <time>2020-08-02T10:41:47.667Z</time>
      </trkpt>
      <trkpt lat="62.81333" lon="7.11671">
        <ele>81.777971</ele>
        <time>2020-08-02T10:41:50.685Z</time>
      </trkpt>
      <trkpt lat="62.81335" lon="7.11694">
        <ele>81.67158</ele>
        <time>2020-08-02T10:41:53.666Z</time>
      </trkpt>
      <trkpt lat="62.81338" lon="7.11717">
        <ele>81.560701</ele>
        <time>2020-08-02T10:41:56.684Z</time>
      </trkpt>
      <trkpt lat="62.8134" lon="7.11741">
        <ele>81.450452</ele>
        <time>2020-08-02T10:41:59.673Z</time>
      </trkpt>
      <trkpt lat="62.81342" lon="7.11765">
        <ele>81.338679</ele>
        <time>2020-08-02T10:42:02.679Z</time>
      </trkpt>
      <trkpt lat="62.81344" lon="7.1179">
        <ele>81.221644</ele>
        <time>2020-08-02T10:42:05.681Z</time>
      </trkpt>
      <trkpt lat="62.81347" lon="7.11814">
        <ele>81.107178</ele>
        <time>2020-08-02T10:42:08.666Z</time>
      </trkpt>
      <trkpt lat="62.81349" lon="7.11839">
        <ele>80.990027</ele>
        <time>2020-08-02T10:42:11.674Z</time>
      </trkpt>
      <trkpt lat="62.81353" lon="7.11863">
        <ele>80.871982</ele>
        <time>2020-08-02T10:42:14.658Z</time>
      </trkpt>
      <trkpt lat="62.81356" lon="7.1189">
        <ele>80.747176</ele>
        <time>2020-08-02T10:42:17.675Z</time>
      </trkpt>
      <trkpt lat="62.81359" lon="7.11915">
        <ele>80.622234</ele>
        <time>2020-08-02T10:42:20.707Z</time>
      </trkpt>
      <trkpt lat="62.81362" lon="7.11941">
        <ele>80.502585</ele>
        <time>2020-08-02T10:42:23.695Z</time>
      </trkpt>
      <trkpt lat="62.81365" lon="7.11966">
        <ele>80.384022</ele>
        <time>2020-08-02T10:42:26.704Z</time>
      </trkpt>
      <trkpt lat="62.81368" lon="7.11992">
        <ele>80.518145</ele>
        <time>2020-08-02T10:42:29.692Z</time>
      </trkpt>
      <trkpt lat="62.81371" lon="7.12017">
        <ele>81.068101</ele>
        <time>2020-08-02T10:42:32.674Z</time>
      </trkpt>
      <trkpt lat="62.81374" lon="7.12041">
        <ele>81.593159</ele>
        <time>2020-08-02T10:42:35.713Z</time>
      </trkpt>
      <trkpt lat="62.81376" lon="7.12062">
        <ele>82.052309</ele>
        <time>2020-08-02T10:42:38.671Z</time>
      </trkpt>
      <trkpt lat="62.81379" lon="7.12084">
        <ele>82.550432</ele>
        <time>2020-08-02T10:42:41.708Z</time>
      </trkpt>
      <trkpt lat="62.81382" lon="7.12106">
        <ele>83.016176</ele>
        <time>2020-08-02T10:42:44.675Z</time>
      </trkpt>
      <trkpt lat="62.81384" lon="7.12126">
        <ele>83.471236</ele>
        <time>2020-08-02T10:42:47.687Z</time>
      </trkpt>
      <trkpt lat="62.81387" lon="7.12146">
        <ele>83.903912</ele>
        <time>2020-08-02T10:42:50.698Z</time>
      </trkpt>
      <trkpt lat="62.81391" lon="7.1217">
        <ele>84.448865</ele>
        <time>2020-08-02T10:42:54.683Z</time>
      </trkpt>
      <trkpt lat="62.81394" lon="7.12193">
        <ele>84.970234</ele>
        <time>2020-08-02T10:42:58.671Z</time>
      </trkpt>
      <trkpt lat="62.81398" lon="7.12216">
        <ele>85.471569</ele>
        <time>2020-08-02T10:43:02.667Z</time>
      </trkpt>
      <trkpt lat="62.814" lon="7.12237">
        <ele>85.933459</ele>
        <time>2020-08-02T10:43:06.682Z</time>
      </trkpt>
      <trkpt lat="62.81402" lon="7.12257">
        <ele>86.370927</ele>
        <time>2020-08-02T10:43:10.677Z</time>
      </trkpt>
      <trkpt lat="62.81403" lon="7.12279">
        <ele>86.832669</ele>
        <time>2020-08-02T10:43:14.710Z</time>
      </trkpt>
      <trkpt lat="62.81405" lon="7.12299">
        <ele>87.277682</ele>
        <time>2020-08-02T10:43:18.679Z</time>
      </trkpt>
      <trkpt lat="62.81407" lon="7.12322">
        <ele>87.763184</ele>
        <time>2020-08-02T10:43:22.678Z</time>
      </trkpt>
      <trkpt lat="62.81409" lon="7.12345">
        <ele>88.259245</ele>
        <time>2020-08-02T10:43:26.658Z</time>
      </trkpt>
      <trkpt lat="62.81412" lon="7.12368">
        <ele>88.678932</ele>
        <time>2020-08-02T10:43:30.693Z</time>
      </trkpt>
      <trkpt lat="62.81414" lon="7.12393">
        <ele>88.81094</ele>
        <time>2020-08-02T10:43:34.666Z</time>
      </trkpt>
      <trkpt lat="62.81416" lon="7.12413">
        <ele>88.9175</ele>
        <time>2020-08-02T10:43:37.699Z</time>
      </trkpt>
      <trkpt lat="62.81418" lon="7.12433">
        <ele>89.022593</ele>
        <time>2020-08-02T10:43:40.660Z</time>
      </trkpt>
      <trkpt lat="62.81421" lon="7.12453">
        <ele>89.131476</ele>
        <time>2020-08-02T10:43:43.683Z</time>
      </trkpt>
      <trkpt lat="62.81424" lon="7.12474">
        <ele>89.244704</ele>
        <time>2020-08-02T10:43:46.678Z</time>
      </trkpt>
      <trkpt lat="62.81428" lon="7.12495">
        <ele>89.362</ele>
        <time>2020-08-02T10:43:49.676Z</time>
      </trkpt>
      <trkpt lat="62.81431" lon="7.12519">
        <ele>89.491611</ele>
        <time>2020-08-02T10:43:52.663Z</time>
      </trkpt>
      <trkpt lat="62.81434" lon="7.12544">
        <ele>89.621882</ele>
        <time>2020-08-02T10:43:55.662Z</time>
      </trkpt>
      <trkpt lat="62.81437" lon="7.12569">
        <ele>89.757424</ele>
        <time>2020-08-02T10:43:58.679Z</time>
      </trkpt>
      <trkpt lat="62.81441" lon="7.12594">
        <ele>89.893465</ele>
        <time>2020-08-02T10:44:01.669Z</time>
      </trkpt>
      <trkpt lat="62.81444" lon="7.12622">
        <ele>90.042435</ele>
        <time>2020-08-02T10:44:04.673Z</time>
      </trkpt>
      <trkpt lat="62.81447" lon="7.12642">
        <ele>90.148964</ele>
        <time>2020-08-02T10:44:06.668Z</time>
      </trkpt>
      <trkpt lat="62.81449" lon="7.12662">
        <ele>90.256023</ele>
        <time>2020-08-02T10:44:08.671Z</time>
      </trkpt>
      <trkpt lat="62.81452" lon="7.12684">
        <ele>90.37277</ele>
        <time>2020-08-02T10:44:10.673Z</time>
      </trkpt>
      <trkpt lat="62.81455" lon="7.12706">
        <ele>90.490818</ele>
        <time>2020-08-02T10:44:12.665Z</time>
      </trkpt>
      <trkpt lat="62.81458" lon="7.12729">
        <ele>90.611976</ele>
        <time>2020-08-02T10:44:14.705Z</time>
      </trkpt>
      <trkpt lat="62.81461" lon="7.12752">
        <ele>90.621957</ele>
        <time>2020-08-02T10:44:16.671Z</time>
      </trkpt>
      <trkpt lat="62.81465" lon="7.12775">
        <ele>90.481097</ele>
        <time>2020-08-02T10:44:18.675Z</time>
      </trkpt>
      <trkpt lat="62.81468" lon="7.128">
        <ele>90.337406</ele>
        <time>2020-08-02T10:44:20.676Z</time>
      </trkpt>
      <trkpt lat="62.81471" lon="7.12824">
        <ele>90.195653</ele>
        <time>2020-08-02T10:44:22.684Z</time>
      </trkpt>
      <trkpt lat="62.81475" lon="7.12848">
        <ele>90.05662</ele>
        <time>2020-08-02T10:44:24.711Z</time>
      </trkpt>
      <trkpt lat="62.81478" lon="7.12871">
        <ele>89.916514</ele>
        <time>2020-08-02T10:44:26.688Z</time>
      </trkpt>
      <trkpt lat="62.81481" lon="7.12894">
        <ele>89.783398</ele>
        <time>2020-08-02T10:44:28.664Z</time>
      </trkpt>
      <trkpt lat="62.81484" lon="7.12916">
        <ele>89.653833</ele>
        <time>2020-08-02T10:44:30.693Z</time>
      </trkpt>
      <trkpt lat="62.81487" lon="7.12937">
        <ele>89.532722</ele>
        <time>2020-08-02T10:44:32.674Z</time>
      </trkpt>
      <trkpt lat="62.8149" lon="7.12956">
        <ele>89.416268</ele>
        <time>2020-08-02T10:44:34.659Z</time>
      </trkpt>
      <trkpt lat="62.81493" lon="7.12976">
        <ele>89.301058</ele>
        <time>2020-08-02T10:44:36.684Z</time>
      </trkpt>
      <trkpt lat="62.81495" lon="7.12996">
        <ele>89.186725</ele>
        <time>2020-08-02T10:44:38.686Z</time>
      </trkpt>
      <trkpt lat="62.81499" lon="7.13022">
        <ele>89.031125</ele>
        <time>2020-08-02T10:44:41.689Z</time>
      </trkpt>
      <trkpt lat="62.81504" lon="7.13046">
        <ele>88.882821</ele>
        <time>2020-08-02T10:44:44.696Z</time>
      </trkpt>
      <trkpt lat="62.81509" lon="7.13069">
        <ele>88.741241</ele>
        <time>2020-08-02T10:44:47.677Z</time>
      </trkpt>
      <trkpt lat="62.81513" lon="7.1309">
        <ele>88.61292</ele>
        <time>2020-08-02T10:44:50.672Z</time>
      </trkpt>
      <trkpt lat="62.81518" lon="7.13108">
        <ele>88.492636</ele>
        <time>2020-08-02T10:44:53.688Z</time>
      </trkpt>
      <trkpt lat="62.81523" lon="7.13127">
        <ele>88.65117</ele>
        <time>2020-08-02T10:44:56.676Z</time>
      </trkpt>
      <trkpt lat="62.81528" lon="7.13147">
        <ele>88.909221</ele>
        <time>2020-08-02T10:45:00.670Z</time>
      </trkpt>
      <trkpt lat="62.81534" lon="7.13166">
        <ele>89.151921</ele>
        <time>2020-08-02T10:45:04.666Z</time>
      </trkpt>
      <trkpt lat="62.8154" lon="7.13188">
        <ele>89.43267</ele>
        <time>2020-08-02T10:45:08.689Z</time>
      </trkpt>
      <trkpt lat="62.81546" lon="7.1321">
        <ele>89.712936</ele>
        <time>2020-08-02T10:45:12.673Z</time>
      </trkpt>
      <trkpt lat="62.81553" lon="7.1323">
        <ele>89.984241</ele>
        <time>2020-08-02T10:45:16.672Z</time>
      </trkpt>
      <trkpt lat="62.8156" lon="7.13251">
        <ele>90.262606</ele>
        <time>2020-08-02T10:45:20.688Z</time>
      </trkpt>
      <trkpt lat="62.81566" lon="7.13266">
        <ele>90.479242</ele>
        <time>2020-08-02T10:45:23.669Z</time>
      </trkpt>
      <trkpt lat="62.81573" lon="7.13286">
        <ele>90.758807</ele>
        <time>2020-08-02T10:45:27.675Z</time>
      </trkpt>
      <trkpt lat="62.8158" lon="7.13307">
        <ele>91.037313</ele>
        <time>2020-08-02T10:45:31.669Z</time>
      </trkpt>
      <trkpt lat="62.81587" lon="7.13328">
        <ele>91.318844</ele>
        <time>2020-08-02T10:45:35.704Z</time>
      </trkpt>
      <trkpt lat="62.81594" lon="7.13349">
        <ele>91.59735</ele>
        <time>2020-08-02T10:45:39.678Z</time>
      </trkpt>
      <trkpt lat="62.81599" lon="7.1337">
        <ele>91.859149</ele>
        <time>2020-08-02T10:45:43.679Z</time>
      </trkpt>
      <trkpt lat="62.81604" lon="7.13392">
        <ele>92.120779</ele>
        <time>2020-08-02T10:45:47.682Z</time>
      </trkpt>
      <trkpt lat="62.81608" lon="7.13413">
        <ele>92.377487</ele>
        <time>2020-08-02T10:45:51.692Z</time>
      </trkpt>
      <trkpt lat="62.81612" lon="7.13436">
        <ele>92.638846</ele>
        <time>2020-08-02T10:45:55.669Z</time>
      </trkpt>
      <trkpt lat="62.81615" lon="7.1346">
        <ele>92.985846</ele>
        <time>2020-08-02T10:45:59.672Z</time>
      </trkpt>
      <trkpt lat="62.81618" lon="7.1348">
        <ele>93.299104</ele>
        <time>2020-08-02T10:46:02.665Z</time>
      </trkpt>
      <trkpt lat="62.81619" lon="7.13501">
        <ele>93.623947</ele>
        <time>2020-08-02T10:46:05.674Z</time>
      </trkpt>
      <trkpt lat="62.81621" lon="7.13522">
        <ele>93.959692</ele>
        <time>2020-08-02T10:46:08.716Z</time>
      </trkpt>
      <trkpt lat="62.81623" lon="7.13545">
        <ele>94.308664</ele>
        <time>2020-08-02T10:46:11.669Z</time>
      </trkpt>
      <trkpt lat="62.81625" lon="7.13569">
        <ele>94.677918</ele>
        <time>2020-08-02T10:46:14.670Z</time>
      </trkpt>
      <trkpt lat="62.81626" lon="7.13592">
        <ele>95.032978</ele>
        <time>2020-08-02T10:46:17.695Z</time>
      </trkpt>
      <trkpt lat="62.81629" lon="7.13616">
        <ele>95.414903</ele>
        <time>2020-08-02T10:46:20.665Z</time>
      </trkpt>
      <trkpt lat="62.81631" lon="7.13639">
        <ele>95.766535</ele>
        <time>2020-08-02T10:46:23.670Z</time>
      </trkpt>
      <trkpt lat="62.81632" lon="7.13662">
        <ele>96.133226</ele>
        <time>2020-08-02T10:46:26.685Z</time>
      </trkpt>
      <trkpt lat="62.81634" lon="7.13685">
        <ele>96.493316</ele>
        <time>2020-08-02T10:46:29.670Z</time>
      </trkpt>
      <trkpt lat="62.81637" lon="7.13707">
        <ele>96.838661</ele>
        <time>2020-08-02T10:46:32.693Z</time>
      </trkpt>
      <trkpt lat="62.81638" lon="7.13729">
        <ele>97.179154</ele>
        <time>2020-08-02T10:46:35.684Z</time>
      </trkpt>
      <trkpt lat="62.81642" lon="7.1375">
        <ele>97.517195</ele>
        <time>2020-08-02T10:46:38.666Z</time>
      </trkpt>
      <trkpt lat="62.81645" lon="7.13771">
        <ele>97.851589</ele>
        <time>2020-08-02T10:46:41.668Z</time>
      </trkpt>
      <trkpt lat="62.81648" lon="7.13791">
        <ele>98.185035</ele>
        <time>2020-08-02T10:46:44.663Z</time>
      </trkpt>
      <trkpt lat="62.81653" lon="7.13811">
        <ele>98.513507</ele>
        <time>2020-08-02T10:46:47.689Z</time>
      </trkpt>
      <trkpt lat="62.81657" lon="7.13828">
        <ele>98.791262</ele>
        <time>2020-08-02T10:46:50.665Z</time>
      </trkpt>
      <trkpt lat="62.81662" lon="7.13845">
        <ele>98.934101</ele>
        <time>2020-08-02T10:46:53.660Z</time>
      </trkpt>
      <trkpt lat="62.81667" lon="7.13863">
        <ele>99.082141</ele>
        <time>2020-08-02T10:46:56.668Z</time>
      </trkpt>
      <trkpt lat="62.81672" lon="7.13882">
        <ele>99.237986</ele>
        <time>2020-08-02T10:46:59.675Z</time>
      </trkpt>
      <trkpt lat="62.81678" lon="7.13904">
        <ele>99.418305</ele>
        <time>2020-08-02T10:47:03.675Z</time>
      </trkpt>
      <trkpt lat="62.81683" lon="7.13921">
        <ele>99.558211</ele>
        <time>2020-08-02T10:47:06.666Z</time>
      </trkpt>
      <trkpt lat="62.8169" lon="7.13941">
        <ele>99.731788</ele>
        <time>2020-08-02T10:47:10.665Z</time>
      </trkpt>
      <trkpt lat="62.81697" lon="7.13962">
        <ele>99.910955</ele>
        <time>2020-08-02T10:47:14.675Z</time>
      </trkpt>
      <trkpt lat="62.81703" lon="7.13984">
        <ele>100.093437</ele>
        <time>2020-08-02T10:47:18.677Z</time>
      </trkpt>
      <trkpt lat="62.81708" lon="7.14">
        <ele>100.233342</ele>
        <time>2020-08-02T10:47:21.672Z</time>
      </trkpt>
      <trkpt lat="62.81712" lon="7.14018">
        <ele>100.374932</ele>
        <time>2020-08-02T10:47:24.656Z</time>
      </trkpt>
      <trkpt lat="62.81717" lon="7.14036">
        <ele>100.52297</ele>
        <time>2020-08-02T10:47:27.678Z</time>
      </trkpt>
      <trkpt lat="62.8172" lon="7.14055">
        <ele>100.665106</ele>
        <time>2020-08-02T10:47:30.656Z</time>
      </trkpt>
      <trkpt lat="62.81725" lon="7.14079">
        <ele>100.847544</ele>
        <time>2020-08-02T10:47:34.670Z</time>
      </trkpt>
      <trkpt lat="62.81728" lon="7.14098">
        <ele>100.99415</ele>
        <time>2020-08-02T10:47:37.684Z</time>
      </trkpt>
      <trkpt lat="62.81732" lon="7.14117">
        <ele>101.137174</ele>
        <time>2020-08-02T10:47:40.673Z</time>
      </trkpt>
      <trkpt lat="62.81734" lon="7.14138">
        <ele>101.285108</ele>
        <time>2020-08-02T10:47:43.686Z</time>
      </trkpt>
      <trkpt lat="62.81737" lon="7.1416">
        <ele>101.44987</ele>
        <time>2020-08-02T10:47:46.716Z</time>
      </trkpt>
      <trkpt lat="62.81739" lon="7.14185">
        <ele>101.524996</ele>
        <time>2020-08-02T10:47:49.668Z</time>
      </trkpt>
      <trkpt lat="62.81741" lon="7.14211">
        <ele>101.498983</ele>
        <time>2020-08-02T10:47:52.715Z</time>
      </trkpt>
      <trkpt lat="62.81743" lon="7.14235">
        <ele>101.474331</ele>
        <time>2020-08-02T10:47:55.678Z</time>
      </trkpt>
      <trkpt lat="62.81745" lon="7.14258">
        <ele>101.450001</ele>
        <time>2020-08-02T10:47:58.651Z</time>
      </trkpt>
      <trkpt lat="62.81747" lon="7.14283">
        <ele>101.424502</ele>
        <time>2020-08-02T10:48:01.667Z</time>
      </trkpt>
      <trkpt lat="62.8175" lon="7.14311">
        <ele>101.395936</ele>
        <time>2020-08-02T10:48:04.735Z</time>
      </trkpt>
      <trkpt lat="62.8175" lon="7.14336">
        <ele>101.370754</ele>
        <time>2020-08-02T10:48:07.653Z</time>
      </trkpt>
      <trkpt lat="62.81751" lon="7.14361">
        <ele>101.346041</ele>
        <time>2020-08-02T10:48:10.674Z</time>
      </trkpt>
      <trkpt lat="62.81753" lon="7.14385">
        <ele>101.321188</ele>
        <time>2020-08-02T10:48:13.684Z</time>
      </trkpt>
      <trkpt lat="62.81753" lon="7.1441">
        <ele>101.295805</ele>
        <time>2020-08-02T10:48:16.646Z</time>
      </trkpt>
      <trkpt lat="62.81754" lon="7.14436">
        <ele>101.270243</ele>
        <time>2020-08-02T10:48:19.675Z</time>
      </trkpt>
      <trkpt lat="62.81755" lon="7.14462">
        <ele>101.243769</ele>
        <time>2020-08-02T10:48:22.696Z</time>
      </trkpt>
      <trkpt lat="62.81757" lon="7.14488">
        <ele>101.217919</ele>
        <time>2020-08-02T10:48:25.708Z</time>
      </trkpt>
      <trkpt lat="62.81759" lon="7.14513">
        <ele>101.19163</ele>
        <time>2020-08-02T10:48:28.692Z</time>
      </trkpt>
      <trkpt lat="62.81761" lon="7.1454">
        <ele>101.164114</ele>
        <time>2020-08-02T10:48:31.692Z</time>
      </trkpt>
      <trkpt lat="62.81764" lon="7.14567">
        <ele>101.143966</ele>
        <time>2020-08-02T10:48:34.677Z</time>
      </trkpt>
      <trkpt lat="62.81766" lon="7.14592">
        <ele>101.155264</ele>
        <time>2020-08-02T10:48:37.678Z</time>
      </trkpt>
      <trkpt lat="62.81768" lon="7.14617">
        <ele>101.166276</ele>
        <time>2020-08-02T10:48:40.688Z</time>
      </trkpt>
      <trkpt lat="62.81769" lon="7.14642">
        <ele>101.177489</ele>
        <time>2020-08-02T10:48:43.706Z</time>
      </trkpt>
      <trkpt lat="62.81771" lon="7.14669">
        <ele>101.189101</ele>
        <time>2020-08-02T10:48:46.710Z</time>
      </trkpt>
      <trkpt lat="62.81773" lon="7.14695">
        <ele>101.200776</ele>
        <time>2020-08-02T10:48:49.679Z</time>
      </trkpt>
      <trkpt lat="62.81775" lon="7.14722">
        <ele>101.212663</ele>
        <time>2020-08-02T10:48:52.684Z</time>
      </trkpt>
      <trkpt lat="62.81776" lon="7.14748">
        <ele>101.224093</ele>
        <time>2020-08-02T10:48:55.691Z</time>
      </trkpt>
      <trkpt lat="62.81779" lon="7.14776">
        <ele>101.236376</ele>
        <time>2020-08-02T10:48:58.673Z</time>
      </trkpt>
      <trkpt lat="62.81781" lon="7.14804">
        <ele>101.248824</ele>
        <time>2020-08-02T10:49:01.676Z</time>
      </trkpt>
      <trkpt lat="62.81782" lon="7.1483">
        <ele>101.260026</ele>
        <time>2020-08-02T10:49:04.696Z</time>
      </trkpt>
      <trkpt lat="62.81782" lon="7.14858">
        <ele>101.272234</ele>
        <time>2020-08-02T10:49:07.715Z</time>
      </trkpt>
      <trkpt lat="62.81781" lon="7.14884">
        <ele>101.283893</ele>
        <time>2020-08-02T10:49:10.679Z</time>
      </trkpt>
      <trkpt lat="62.81778" lon="7.14904">
        <ele>101.292516</ele>
        <time>2020-08-02T10:49:12.678Z</time>
      </trkpt>
      <trkpt lat="62.81776" lon="7.14923">
        <ele>101.301366</ele>
        <time>2020-08-02T10:49:14.692Z</time>
      </trkpt>
      <trkpt lat="62.81772" lon="7.14951">
        <ele>101.286557</ele>
        <time>2020-08-02T10:49:17.670Z</time>
      </trkpt>
      <trkpt lat="62.81769" lon="7.1497">
        <ele>100.991046</ele>
        <time>2020-08-02T10:49:19.688Z</time>
      </trkpt>
      <trkpt lat="62.81765" lon="7.14988">
        <ele>100.689357</ele>
        <time>2020-08-02T10:49:21.671Z</time>
      </trkpt>
      <trkpt lat="62.81758" lon="7.15013">
        <ele>100.246341</ele>
        <time>2020-08-02T10:49:24.678Z</time>
      </trkpt>
      <trkpt lat="62.81752" lon="7.1503">
        <ele>99.923828</ele>
        <time>2020-08-02T10:49:26.695Z</time>
      </trkpt>
      <trkpt lat="62.81745" lon="7.15048">
        <ele>99.575223</ele>
        <time>2020-08-02T10:49:28.677Z</time>
      </trkpt>
      <trkpt lat="62.81737" lon="7.15067">
        <ele>99.192433</ele>
        <time>2020-08-02T10:49:30.710Z</time>
      </trkpt>
      <trkpt lat="62.8173" lon="7.15086">
        <ele>98.814877</ele>
        <time>2020-08-02T10:49:32.666Z</time>
      </trkpt>
      <trkpt lat="62.81721" lon="7.15104">
        <ele>98.425654</ele>
        <time>2020-08-02T10:49:34.660Z</time>
      </trkpt>
      <trkpt lat="62.8171" lon="7.1512">
        <ele>97.990435</ele>
        <time>2020-08-02T10:49:36.672Z</time>
      </trkpt>
      <trkpt lat="62.81697" lon="7.15133">
        <ele>97.536822</ele>
        <time>2020-08-02T10:49:38.669Z</time>
      </trkpt>
      <trkpt lat="62.81684" lon="7.15142">
        <ele>97.091268</ele>
        <time>2020-08-02T10:49:40.674Z</time>
      </trkpt>
      <trkpt lat="62.81671" lon="7.15148">
        <ele>96.644298</ele>
        <time>2020-08-02T10:49:42.675Z</time>
      </trkpt>
      <trkpt lat="62.81656" lon="7.15152">
        <ele>96.153031</ele>
        <time>2020-08-02T10:49:44.671Z</time>
      </trkpt>
      <trkpt lat="62.8164" lon="7.15155">
        <ele>95.644318</ele>
        <time>2020-08-02T10:49:46.695Z</time>
      </trkpt>
      <trkpt lat="62.81625" lon="7.15158">
        <ele>95.101799</ele>
        <time>2020-08-02T10:49:48.713Z</time>
      </trkpt>
      <trkpt lat="62.81609" lon="7.1516">
        <ele>94.535777</ele>
        <time>2020-08-02T10:49:50.731Z</time>
      </trkpt>
      <trkpt lat="62.81592" lon="7.15162">
        <ele>93.955054</ele>
        <time>2020-08-02T10:49:52.697Z</time>
      </trkpt>
      <trkpt lat="62.81575" lon="7.15164">
        <ele>93.36111</ele>
        <time>2020-08-02T10:49:54.676Z</time>
      </trkpt>
      <trkpt lat="62.81559" lon="7.15165">
        <ele>92.77076</ele>
        <time>2020-08-02T10:49:56.669Z</time>
      </trkpt>
      <trkpt lat="62.81542" lon="7.15167">
        <ele>92.183806</ele>
        <time>2020-08-02T10:49:58.680Z</time>
      </trkpt>
      <trkpt lat="62.81525" lon="7.1517">
        <ele>91.584992</ele>
        <time>2020-08-02T10:50:00.674Z</time>
      </trkpt>
      <trkpt lat="62.81508" lon="7.15173">
        <ele>90.985493</ele>
        <time>2020-08-02T10:50:02.676Z</time>
      </trkpt>
      <trkpt lat="62.81492" lon="7.15178">
        <ele>90.408018</ele>
        <time>2020-08-02T10:50:04.673Z</time>
      </trkpt>
      <trkpt lat="62.81476" lon="7.15186">
        <ele>89.838959</ele>
        <time>2020-08-02T10:50:06.684Z</time>
      </trkpt>
      <trkpt lat="62.81461" lon="7.15194">
        <ele>89.263443</ele>
        <time>2020-08-02T10:50:08.674Z</time>
      </trkpt>
      <trkpt lat="62.81445" lon="7.15203">
        <ele>88.712275</ele>
        <time>2020-08-02T10:50:10.685Z</time>
      </trkpt>
      <trkpt lat="62.81429" lon="7.1521">
        <ele>88.165637</ele>
        <time>2020-08-02T10:50:12.688Z</time>
      </trkpt>
      <trkpt lat="62.81412" lon="7.15221">
        <ele>87.587632</ele>
        <time>2020-08-02T10:50:14.708Z</time>
      </trkpt>
      <trkpt lat="62.81396" lon="7.15231">
        <ele>87.016089</ele>
        <time>2020-08-02T10:50:16.680Z</time>
      </trkpt>
      <trkpt lat="62.81379" lon="7.15241">
        <ele>86.429541</ele>
        <time>2020-08-02T10:50:18.706Z</time>
      </trkpt>
      <trkpt lat="62.81362" lon="7.15252">
        <ele>85.821525</ele>
        <time>2020-08-02T10:50:20.668Z</time>
      </trkpt>
      <trkpt lat="62.81353" lon="7.15258">
        <ele>85.514082</ele>
        <time>2020-08-02T10:50:21.692Z</time>
      </trkpt>
      <trkpt lat="62.81344" lon="7.15263">
        <ele>85.201417</ele>
        <time>2020-08-02T10:50:22.698Z</time>
      </trkpt>
      <trkpt lat="62.81335" lon="7.15268">
        <ele>84.896025</ele>
        <time>2020-08-02T10:50:23.710Z</time>
      </trkpt>
      <trkpt lat="62.81326" lon="7.15274">
        <ele>84.582549</ele>
        <time>2020-08-02T10:50:24.710Z</time>
      </trkpt>
      <trkpt lat="62.81317" lon="7.1528">
        <ele>84.261785</ele>
        <time>2020-08-02T10:50:25.675Z</time>
      </trkpt>
      <trkpt lat="62.81307" lon="7.15285">
        <ele>83.932893</ele>
        <time>2020-08-02T10:50:26.678Z</time>
      </trkpt>
      <trkpt lat="62.81298" lon="7.1529">
        <ele>83.58986</ele>
        <time>2020-08-02T10:50:27.672Z</time>
      </trkpt>
      <trkpt lat="62.81288" lon="7.15296">
        <ele>83.245647</ele>
        <time>2020-08-02T10:50:28.661Z</time>
      </trkpt>
      <trkpt lat="62.81278" lon="7.15302">
        <ele>82.86417</ele>
        <time>2020-08-02T10:50:29.696Z</time>
      </trkpt>
      <trkpt lat="62.81267" lon="7.15308">
        <ele>82.421493</ele>
        <time>2020-08-02T10:50:30.716Z</time>
      </trkpt>
      <trkpt lat="62.81257" lon="7.15314">
        <ele>81.980802</ele>
        <time>2020-08-02T10:50:31.686Z</time>
      </trkpt>
      <trkpt lat="62.81246" lon="7.15321">
        <ele>81.532251</ele>
        <time>2020-08-02T10:50:32.696Z</time>
      </trkpt>
      <trkpt lat="62.81235" lon="7.15327">
        <ele>81.078177</ele>
        <time>2020-08-02T10:50:33.663Z</time>
      </trkpt>
      <trkpt lat="62.81224" lon="7.15333">
        <ele>80.61482</ele>
        <time>2020-08-02T10:50:34.698Z</time>
      </trkpt>
      <trkpt lat="62.81213" lon="7.15339">
        <ele>80.153975</ele>
        <time>2020-08-02T10:50:35.666Z</time>
      </trkpt>
      <trkpt lat="62.81203" lon="7.15346">
        <ele>79.700493</ele>
        <time>2020-08-02T10:50:36.689Z</time>
      </trkpt>
      <trkpt lat="62.81192" lon="7.15352">
        <ele>79.247513</ele>
        <time>2020-08-02T10:50:37.677Z</time>
      </trkpt>
      <trkpt lat="62.81181" lon="7.15359">
        <ele>78.795028</ele>
        <time>2020-08-02T10:50:38.671Z</time>
      </trkpt>
      <trkpt lat="62.81171" lon="7.15365">
        <ele>78.346477</ele>
        <time>2020-08-02T10:50:39.668Z</time>
      </trkpt>
      <trkpt lat="62.8116" lon="7.15372">
        <ele>77.895886</ele>
        <time>2020-08-02T10:50:40.665Z</time>
      </trkpt>
      <trkpt lat="62.81149" lon="7.15379">
        <ele>77.43694</ele>
        <time>2020-08-02T10:50:41.684Z</time>
      </trkpt>
      <trkpt lat="62.81139" lon="7.15386">
        <ele>76.982433</ele>
        <time>2020-08-02T10:50:42.665Z</time>
      </trkpt>
      <trkpt lat="62.81128" lon="7.15393">
        <ele>76.535221</ele>
        <time>2020-08-02T10:50:43.679Z</time>
      </trkpt>
      <trkpt lat="62.81118" lon="7.15399">
        <ele>76.089068</ele>
        <time>2020-08-02T10:50:44.667Z</time>
      </trkpt>
      <trkpt lat="62.81107" lon="7.15406">
        <ele>75.656717</ele>
        <time>2020-08-02T10:50:45.695Z</time>
      </trkpt>
      <trkpt lat="62.81097" lon="7.15412">
        <ele>75.284505</ele>
        <time>2020-08-02T10:50:46.682Z</time>
      </trkpt>
      <trkpt lat="62.81087" lon="7.15419">
        <ele>74.916939</ele>
        <time>2020-08-02T10:50:47.676Z</time>
      </trkpt>
      <trkpt lat="62.81077" lon="7.15425">
        <ele>74.560247</ele>
        <time>2020-08-02T10:50:48.666Z</time>
      </trkpt>
      <trkpt lat="62.81067" lon="7.15431">
        <ele>74.214428</ele>
        <time>2020-08-02T10:50:49.664Z</time>
      </trkpt>
      <trkpt lat="62.81058" lon="7.15437">
        <ele>73.869231</ele>
        <time>2020-08-02T10:50:50.685Z</time>
      </trkpt>
      <trkpt lat="62.81048" lon="7.15444">
        <ele>73.518796</ele>
        <time>2020-08-02T10:50:51.710Z</time>
      </trkpt>
      <trkpt lat="62.81038" lon="7.15451">
        <ele>73.167863</ele>
        <time>2020-08-02T10:50:52.670Z</time>
      </trkpt>
      <trkpt lat="62.81029" lon="7.15459">
        <ele>72.82087</ele>
        <time>2020-08-02T10:50:53.683Z</time>
      </trkpt>
      <trkpt lat="62.8102" lon="7.15466">
        <ele>72.470075</ele>
        <time>2020-08-02T10:50:54.672Z</time>
      </trkpt>
      <trkpt lat="62.8101" lon="7.15474">
        <ele>72.11762</ele>
        <time>2020-08-02T10:50:55.686Z</time>
      </trkpt>
      <trkpt lat="62.81" lon="7.15482">
        <ele>71.756413</ele>
        <time>2020-08-02T10:50:56.732Z</time>
      </trkpt>
      <trkpt lat="62.80991" lon="7.15491">
        <ele>71.396659</ele>
        <time>2020-08-02T10:50:57.692Z</time>
      </trkpt>
      <trkpt lat="62.80981" lon="7.155">
        <ele>71.034456</ele>
        <time>2020-08-02T10:50:58.672Z</time>
      </trkpt>
      <trkpt lat="62.80972" lon="7.15509">
        <ele>70.677336</ele>
        <time>2020-08-02T10:50:59.670Z</time>
      </trkpt>
      <trkpt lat="62.80962" lon="7.15519">
        <ele>70.31891</ele>
        <time>2020-08-02T10:51:00.684Z</time>
      </trkpt>
      <trkpt lat="62.80953" lon="7.15528">
        <ele>69.968766</ele>
        <time>2020-08-02T10:51:01.713Z</time>
      </trkpt>
      <trkpt lat="62.80944" lon="7.15537">
        <ele>69.623084</ele>
        <time>2020-08-02T10:51:02.703Z</time>
      </trkpt>
      <trkpt lat="62.80935" lon="7.15546">
        <ele>69.215811</ele>
        <time>2020-08-02T10:51:03.664Z</time>
      </trkpt>
      <trkpt lat="62.80925" lon="7.15556">
        <ele>68.764047</ele>
        <time>2020-08-02T10:51:04.692Z</time>
      </trkpt>
      <trkpt lat="62.80916" lon="7.15567">
        <ele>68.304102</ele>
        <time>2020-08-02T10:51:05.667Z</time>
      </trkpt>
      <trkpt lat="62.80906" lon="7.15578">
        <ele>67.837401</ele>
        <time>2020-08-02T10:51:06.711Z</time>
      </trkpt>
      <trkpt lat="62.80896" lon="7.15589">
        <ele>67.362658</ele>
        <time>2020-08-02T10:51:07.728Z</time>
      </trkpt>
      <trkpt lat="62.80886" lon="7.15602">
        <ele>66.884042</ele>
        <time>2020-08-02T10:51:08.716Z</time>
      </trkpt>
      <trkpt lat="62.80877" lon="7.15614">
        <ele>66.407131</ele>
        <time>2020-08-02T10:51:09.667Z</time>
      </trkpt>
      <trkpt lat="62.80867" lon="7.15627">
        <ele>65.922539</ele>
        <time>2020-08-02T10:51:10.666Z</time>
      </trkpt>
      <trkpt lat="62.80857" lon="7.1564">
        <ele>65.42295</ele>
        <time>2020-08-02T10:51:11.682Z</time>
      </trkpt>
      <trkpt lat="62.80847" lon="7.15654">
        <ele>64.910433</ele>
        <time>2020-08-02T10:51:12.668Z</time>
      </trkpt>
      <trkpt lat="62.80837" lon="7.15669">
        <ele>64.397212</ele>
        <time>2020-08-02T10:51:13.677Z</time>
      </trkpt>
      <trkpt lat="62.80827" lon="7.15684">
        <ele>63.887755</ele>
        <time>2020-08-02T10:51:14.662Z</time>
      </trkpt>
      <trkpt lat="62.80817" lon="7.15699">
        <ele>63.363326</ele>
        <time>2020-08-02T10:51:15.685Z</time>
      </trkpt>
      <trkpt lat="62.80807" lon="7.15715">
        <ele>62.840206</ele>
        <time>2020-08-02T10:51:16.675Z</time>
      </trkpt>
      <trkpt lat="62.80797" lon="7.15731">
        <ele>62.309025</ele>
        <time>2020-08-02T10:51:17.710Z</time>
      </trkpt>
      <trkpt lat="62.80787" lon="7.15747">
        <ele>61.775719</ele>
        <time>2020-08-02T10:51:18.663Z</time>
      </trkpt>
      <trkpt lat="62.80777" lon="7.15764">
        <ele>61.252278</ele>
        <time>2020-08-02T10:51:19.673Z</time>
      </trkpt>
      <trkpt lat="62.80768" lon="7.15781">
        <ele>60.726031</ele>
        <time>2020-08-02T10:51:20.676Z</time>
      </trkpt>
      <trkpt lat="62.80758" lon="7.15799">
        <ele>60.194072</ele>
        <time>2020-08-02T10:51:21.657Z</time>
      </trkpt>
      <trkpt lat="62.80748" lon="7.15817">
        <ele>59.670542</ele>
        <time>2020-08-02T10:51:22.676Z</time>
      </trkpt>
      <trkpt lat="62.80739" lon="7.15835">
        <ele>59.151387</ele>
        <time>2020-08-02T10:51:23.727Z</time>
      </trkpt>
      <trkpt lat="62.8073" lon="7.15853">
        <ele>58.631833</ele>
        <time>2020-08-02T10:51:24.669Z</time>
      </trkpt>
      <trkpt lat="62.80722" lon="7.15872">
        <ele>58.12299</ele>
        <time>2020-08-02T10:51:25.660Z</time>
      </trkpt>
      <trkpt lat="62.80713" lon="7.1589">
        <ele>57.617913</ele>
        <time>2020-08-02T10:51:26.700Z</time>
      </trkpt>
      <trkpt lat="62.80705" lon="7.15908">
        <ele>57.117209</ele>
        <time>2020-08-02T10:51:27.685Z</time>
      </trkpt>
      <trkpt lat="62.80696" lon="7.15926">
        <ele>56.622736</ele>
        <time>2020-08-02T10:51:28.655Z</time>
      </trkpt>
      <trkpt lat="62.80688" lon="7.15943">
        <ele>56.135289</ele>
        <time>2020-08-02T10:51:29.704Z</time>
      </trkpt>
      <trkpt lat="62.8068" lon="7.1596">
        <ele>55.658794</ele>
        <time>2020-08-02T10:51:30.661Z</time>
      </trkpt>
      <trkpt lat="62.80672" lon="7.15978">
        <ele>55.184221</ele>
        <time>2020-08-02T10:51:31.693Z</time>
      </trkpt>
      <trkpt lat="62.80664" lon="7.15995">
        <ele>54.721251</ele>
        <time>2020-08-02T10:51:32.687Z</time>
      </trkpt>
      <trkpt lat="62.80657" lon="7.16012">
        <ele>54.262679</ele>
        <time>2020-08-02T10:51:33.687Z</time>
      </trkpt>
      <trkpt lat="62.8065" lon="7.1603">
        <ele>53.919721</ele>
        <time>2020-08-02T10:51:34.671Z</time>
      </trkpt>
      <trkpt lat="62.80642" lon="7.16047">
        <ele>53.596467</ele>
        <time>2020-08-02T10:51:35.683Z</time>
      </trkpt>
      <trkpt lat="62.80635" lon="7.16064">
        <ele>53.278285</ele>
        <time>2020-08-02T10:51:36.709Z</time>
      </trkpt>
      <trkpt lat="62.80628" lon="7.1608">
        <ele>52.966097</ele>
        <time>2020-08-02T10:51:37.672Z</time>
      </trkpt>
      <trkpt lat="62.80621" lon="7.16096">
        <ele>52.659973</ele>
        <time>2020-08-02T10:51:38.691Z</time>
      </trkpt>
      <trkpt lat="62.80614" lon="7.16112">
        <ele>52.353026</ele>
        <time>2020-08-02T10:51:39.683Z</time>
      </trkpt>
      <trkpt lat="62.80608" lon="7.16129">
        <ele>52.05193</ele>
        <time>2020-08-02T10:51:40.673Z</time>
      </trkpt>
      <trkpt lat="62.80601" lon="7.16145">
        <ele>51.755952</ele>
        <time>2020-08-02T10:51:41.682Z</time>
      </trkpt>
      <trkpt lat="62.80595" lon="7.16161">
        <ele>51.466334</ele>
        <time>2020-08-02T10:51:42.665Z</time>
      </trkpt>
      <trkpt lat="62.80588" lon="7.16176">
        <ele>51.179755</ele>
        <time>2020-08-02T10:51:43.688Z</time>
      </trkpt>
      <trkpt lat="62.80582" lon="7.16191">
        <ele>50.900291</ele>
        <time>2020-08-02T10:51:44.687Z</time>
      </trkpt>
      <trkpt lat="62.8057" lon="7.1622">
        <ele>50.359721</ele>
        <time>2020-08-02T10:51:46.665Z</time>
      </trkpt>
      <trkpt lat="62.80558" lon="7.16247">
        <ele>49.82322</ele>
        <time>2020-08-02T10:51:48.669Z</time>
      </trkpt>
      <trkpt lat="62.80545" lon="7.16275">
        <ele>49.287659</ele>
        <time>2020-08-02T10:51:50.677Z</time>
      </trkpt>
      <trkpt lat="62.80534" lon="7.16304">
        <ele>48.765219</ele>
        <time>2020-08-02T10:51:52.658Z</time>
      </trkpt>
      <trkpt lat="62.80523" lon="7.16333">
        <ele>48.663011</ele>
        <time>2020-08-02T10:51:54.706Z</time>
      </trkpt>
      <trkpt lat="62.80512" lon="7.16362">
        <ele>48.568194</ele>
        <time>2020-08-02T10:51:56.680Z</time>
      </trkpt>
      <trkpt lat="62.80502" lon="7.16389">
        <ele>48.477479</ele>
        <time>2020-08-02T10:51:58.714Z</time>
      </trkpt>
      <trkpt lat="62.80492" lon="7.16417">
        <ele>48.390474</ele>
        <time>2020-08-02T10:52:00.675Z</time>
      </trkpt>
      <trkpt lat="62.80484" lon="7.16442">
        <ele>48.311451</ele>
        <time>2020-08-02T10:52:02.711Z</time>
      </trkpt>
      <trkpt lat="62.80476" lon="7.16465">
        <ele>48.237326</ele>
        <time>2020-08-02T10:52:04.684Z</time>
      </trkpt>
      <trkpt lat="62.80468" lon="7.16485">
        <ele>48.167769</ele>
        <time>2020-08-02T10:52:06.687Z</time>
      </trkpt>
      <trkpt lat="62.80462" lon="7.1651">
        <ele>48.09808</ele>
        <time>2020-08-02T10:52:08.669Z</time>
      </trkpt>
      <trkpt lat="62.80457" lon="7.16534">
        <ele>48.030069</ele>
        <time>2020-08-02T10:52:10.665Z</time>
      </trkpt>
      <trkpt lat="62.80452" lon="7.16558">
        <ele>47.963005</ele>
        <time>2020-08-02T10:52:12.665Z</time>
      </trkpt>
      <trkpt lat="62.80448" lon="7.1658">
        <ele>47.903133</ele>
        <time>2020-08-02T10:52:14.686Z</time>
      </trkpt>
      <trkpt lat="62.80444" lon="7.16599">
        <ele>47.848363</ele>
        <time>2020-08-02T10:52:16.683Z</time>
      </trkpt>
      <trkpt lat="62.8044" lon="7.16617">
        <ele>47.797693</ele>
        <time>2020-08-02T10:52:18.714Z</time>
      </trkpt>
      <trkpt lat="62.80436" lon="7.16643">
        <ele>47.839525</ele>
        <time>2020-08-02T10:52:21.676Z</time>
      </trkpt>
      <trkpt lat="62.80432" lon="7.16667">
        <ele>48.031275</ele>
        <time>2020-08-02T10:52:24.684Z</time>
      </trkpt>
      <trkpt lat="62.80426" lon="7.16693">
        <ele>48.237705</ele>
        <time>2020-08-02T10:52:27.698Z</time>
      </trkpt>
      <trkpt lat="62.80422" lon="7.16719">
        <ele>48.449815</ele>
        <time>2020-08-02T10:52:30.672Z</time>
      </trkpt>
      <trkpt lat="62.80417" lon="7.16744">
        <ele>48.650188</ele>
        <time>2020-08-02T10:52:33.687Z</time>
      </trkpt>
      <trkpt lat="62.80411" lon="7.16768">
        <ele>48.855269</ele>
        <time>2020-08-02T10:52:36.703Z</time>
      </trkpt>
      <trkpt lat="62.80406" lon="7.16794">
        <ele>49.061046</ele>
        <time>2020-08-02T10:52:39.663Z</time>
      </trkpt>
      <trkpt lat="62.80401" lon="7.1682">
        <ele>49.272217</ele>
        <time>2020-08-02T10:52:42.673Z</time>
      </trkpt>
      <trkpt lat="62.80396" lon="7.16846">
        <ele>49.489495</ele>
        <time>2020-08-02T10:52:45.714Z</time>
      </trkpt>
      <trkpt lat="62.8039" lon="7.16873">
        <ele>49.707541</ele>
        <time>2020-08-02T10:52:48.706Z</time>
      </trkpt>
      <trkpt lat="62.80387" lon="7.16892">
        <ele>49.858009</ele>
        <time>2020-08-02T10:52:50.697Z</time>
      </trkpt>
      <trkpt lat="62.80384" lon="7.16911">
        <ele>50.008621</ele>
        <time>2020-08-02T10:52:52.681Z</time>
      </trkpt>
      <trkpt lat="62.80381" lon="7.1693">
        <ele>50.15853</ele>
        <time>2020-08-02T10:52:54.677Z</time>
      </trkpt>
      <trkpt lat="62.80378" lon="7.16949">
        <ele>50.310771</ele>
        <time>2020-08-02T10:52:56.676Z</time>
      </trkpt>
      <trkpt lat="62.8037" lon="7.16973">
        <ele>50.530992</ele>
        <time>2020-08-02T10:52:59.665Z</time>
      </trkpt>
      <trkpt lat="62.80365" lon="7.16991">
        <ele>50.692017</ele>
        <time>2020-08-02T10:53:01.669Z</time>
      </trkpt>
      <trkpt lat="62.80361" lon="7.17011">
        <ele>50.62855</ele>
        <time>2020-08-02T10:53:03.671Z</time>
      </trkpt>
      <trkpt lat="62.80357" lon="7.17032">
        <ele>50.561703</ele>
        <time>2020-08-02T10:53:05.673Z</time>
      </trkpt>
      <trkpt lat="62.80354" lon="7.17053">
        <ele>50.492556</ele>
        <time>2020-08-02T10:53:07.710Z</time>
      </trkpt>
      <trkpt lat="62.8035" lon="7.17075">
        <ele>50.423259</ele>
        <time>2020-08-02T10:53:09.708Z</time>
      </trkpt>
      <trkpt lat="62.80348" lon="7.17097">
        <ele>50.353725</ele>
        <time>2020-08-02T10:53:11.705Z</time>
      </trkpt>
      <trkpt lat="62.80348" lon="7.17119">
        <ele>50.28767</ele>
        <time>2020-08-02T10:53:13.707Z</time>
      </trkpt>
      <trkpt lat="62.80347" lon="7.1714">
        <ele>50.22237</ele>
        <time>2020-08-02T10:53:15.673Z</time>
      </trkpt>
      <trkpt lat="62.80343" lon="7.17161">
        <ele>50.155333</ele>
        <time>2020-08-02T10:53:17.685Z</time>
      </trkpt>
      <trkpt lat="62.80339" lon="7.17182">
        <ele>50.086119</ele>
        <time>2020-08-02T10:53:19.658Z</time>
      </trkpt>
      <trkpt lat="62.80337" lon="7.17204">
        <ele>50.018793</ele>
        <time>2020-08-02T10:53:21.688Z</time>
      </trkpt>
      <trkpt lat="62.80335" lon="7.17226">
        <ele>49.95222</ele>
        <time>2020-08-02T10:53:23.670Z</time>
      </trkpt>
      <trkpt lat="62.80334" lon="7.17248">
        <ele>49.882408</ele>
        <time>2020-08-02T10:53:25.686Z</time>
      </trkpt>
      <trkpt lat="62.80333" lon="7.17271">
        <ele>49.812642</ele>
        <time>2020-08-02T10:53:27.692Z</time>
      </trkpt>
      <trkpt lat="62.80332" lon="7.17294">
        <ele>49.743505</ele>
        <time>2020-08-02T10:53:29.694Z</time>
      </trkpt>
      <trkpt lat="62.8033" lon="7.17316">
        <ele>49.67473</ele>
        <time>2020-08-02T10:53:31.740Z</time>
      </trkpt>
      <trkpt lat="62.80329" lon="7.17338">
        <ele>49.60775</ele>
        <time>2020-08-02T10:53:33.680Z</time>
      </trkpt>
      <trkpt lat="62.80327" lon="7.1736">
        <ele>49.541464</ele>
        <time>2020-08-02T10:53:35.695Z</time>
      </trkpt>
      <trkpt lat="62.80326" lon="7.17381">
        <ele>49.511455</ele>
        <time>2020-08-02T10:53:37.675Z</time>
      </trkpt>
      <trkpt lat="62.80324" lon="7.17402">
        <ele>49.535556</ele>
        <time>2020-08-02T10:53:39.705Z</time>
      </trkpt>
      <trkpt lat="62.80323" lon="7.17423">
        <ele>49.560032</ele>
        <time>2020-08-02T10:53:41.685Z</time>
      </trkpt>
      <trkpt lat="62.80321" lon="7.17443">
        <ele>49.583146</ele>
        <time>2020-08-02T10:53:43.695Z</time>
      </trkpt>
      <trkpt lat="62.8032" lon="7.17468">
        <ele>49.6122</ele>
        <time>2020-08-02T10:53:46.677Z</time>
      </trkpt>
      <trkpt lat="62.80318" lon="7.17493">
        <ele>49.641172</ele>
        <time>2020-08-02T10:53:49.663Z</time>
      </trkpt>
      <trkpt lat="62.80317" lon="7.17521">
        <ele>49.672768</ele>
        <time>2020-08-02T10:53:52.686Z</time>
      </trkpt>
      <trkpt lat="62.80314" lon="7.17549">
        <ele>49.706469</ele>
        <time>2020-08-02T10:53:55.700Z</time>
      </trkpt>
      <trkpt lat="62.80312" lon="7.17577">
        <ele>49.73855</ele>
        <time>2020-08-02T10:53:58.713Z</time>
      </trkpt>
      <trkpt lat="62.8031" lon="7.17605">
        <ele>49.771311</ele>
        <time>2020-08-02T10:54:01.685Z</time>
      </trkpt>
      <trkpt lat="62.80309" lon="7.17625">
        <ele>49.794238</ele>
        <time>2020-08-02T10:54:03.695Z</time>
      </trkpt>
      <trkpt lat="62.80308" lon="7.17646">
        <ele>49.81896</ele>
        <time>2020-08-02T10:54:05.679Z</time>
      </trkpt>
      <trkpt lat="62.80306" lon="7.17667">
        <ele>49.843288</ele>
        <time>2020-08-02T10:54:07.690Z</time>
      </trkpt>
      <trkpt lat="62.80305" lon="7.17688">
        <ele>49.867843</ele>
        <time>2020-08-02T10:54:09.699Z</time>
      </trkpt>
      <trkpt lat="62.80304" lon="7.17709">
        <ele>49.892025</ele>
        <time>2020-08-02T10:54:11.682Z</time>
      </trkpt>
      <trkpt lat="62.80303" lon="7.17729">
        <ele>49.915296</ele>
        <time>2020-08-02T10:54:13.692Z</time>
      </trkpt>
      <trkpt lat="62.80302" lon="7.1775">
        <ele>49.93942</ele>
        <time>2020-08-02T10:54:15.674Z</time>
      </trkpt>
      <trkpt lat="62.803" lon="7.17771">
        <ele>50.004043</ele>
        <time>2020-08-02T10:54:17.688Z</time>
      </trkpt>
      <trkpt lat="62.80298" lon="7.17792">
        <ele>50.121856</ele>
        <time>2020-08-02T10:54:19.671Z</time>
      </trkpt>
      <trkpt lat="62.80297" lon="7.17812">
        <ele>50.238056</ele>
        <time>2020-08-02T10:54:21.672Z</time>
      </trkpt>
      <trkpt lat="62.80296" lon="7.17833">
        <ele>50.352593</ele>
        <time>2020-08-02T10:54:23.660Z</time>
      </trkpt>
      <trkpt lat="62.80294" lon="7.17854">
        <ele>50.472507</ele>
        <time>2020-08-02T10:54:25.685Z</time>
      </trkpt>
      <trkpt lat="62.80293" lon="7.17876">
        <ele>50.596839</ele>
        <time>2020-08-02T10:54:27.675Z</time>
      </trkpt>
      <trkpt lat="62.80291" lon="7.17898">
        <ele>50.720617</ele>
        <time>2020-08-02T10:54:29.673Z</time>
      </trkpt>
      <trkpt lat="62.80289" lon="7.17919">
        <ele>50.843288</ele>
        <time>2020-08-02T10:54:31.670Z</time>
      </trkpt>
      <trkpt lat="62.80288" lon="7.17941">
        <ele>50.964853</ele>
        <time>2020-08-02T10:54:33.672Z</time>
      </trkpt>
      <trkpt lat="62.80286" lon="7.17961">
        <ele>51.082163</ele>
        <time>2020-08-02T10:54:35.684Z</time>
      </trkpt>
      <trkpt lat="62.80285" lon="7.17982">
        <ele>51.20192</ele>
        <time>2020-08-02T10:54:37.677Z</time>
      </trkpt>
      <trkpt lat="62.80284" lon="7.18003">
        <ele>51.320008</ele>
        <time>2020-08-02T10:54:39.660Z</time>
      </trkpt>
      <trkpt lat="62.80282" lon="7.18024">
        <ele>51.435706</ele>
        <time>2020-08-02T10:54:41.714Z</time>
      </trkpt>
      <trkpt lat="62.80281" lon="7.18043">
        <ele>51.548881</ele>
        <time>2020-08-02T10:54:43.669Z</time>
      </trkpt>
      <trkpt lat="62.80278" lon="7.18072">
        <ele>51.710405</ele>
        <time>2020-08-02T10:54:46.666Z</time>
      </trkpt>
      <trkpt lat="62.80276" lon="7.181">
        <ele>51.868542</ele>
        <time>2020-08-02T10:54:49.682Z</time>
      </trkpt>
      <trkpt lat="62.80274" lon="7.18124">
        <ele>52.009721</ele>
        <time>2020-08-02T10:54:52.685Z</time>
      </trkpt>
      <trkpt lat="62.80272" lon="7.18147">
        <ele>52.136823</ele>
        <time>2020-08-02T10:54:55.670Z</time>
      </trkpt>
      <trkpt lat="62.80271" lon="7.18166">
        <ele>52.480112</ele>
        <time>2020-08-02T10:54:58.661Z</time>
      </trkpt>
      <trkpt lat="62.80269" lon="7.18192">
        <ele>53.00943</ele>
        <time>2020-08-02T10:55:02.658Z</time>
      </trkpt>
      <trkpt lat="62.80268" lon="7.18215">
        <ele>53.498491</ele>
        <time>2020-08-02T10:55:06.691Z</time>
      </trkpt>
      <trkpt lat="62.80267" lon="7.18237">
        <ele>53.950011</ele>
        <time>2020-08-02T10:55:10.699Z</time>
      </trkpt>
      <trkpt lat="62.80266" lon="7.18258">
        <ele>54.380117</ele>
        <time>2020-08-02T10:55:14.676Z</time>
      </trkpt>
      <trkpt lat="62.80265" lon="7.18279">
        <ele>54.814125</ele>
        <time>2020-08-02T10:55:18.686Z</time>
      </trkpt>
      <trkpt lat="62.80265" lon="7.183">
        <ele>55.240669</ele>
        <time>2020-08-02T10:55:22.698Z</time>
      </trkpt>
      <trkpt lat="62.80264" lon="7.1832">
        <ele>55.656972</ele>
        <time>2020-08-02T10:55:26.694Z</time>
      </trkpt>
      <trkpt lat="62.80262" lon="7.1834">
        <ele>56.07898</ele>
        <time>2020-08-02T10:55:30.690Z</time>
      </trkpt>
      <trkpt lat="62.8026" lon="7.18361">
        <ele>56.524914</ele>
        <time>2020-08-02T10:55:34.710Z</time>
      </trkpt>
      <trkpt lat="62.80258" lon="7.18382">
        <ele>56.967545</ele>
        <time>2020-08-02T10:55:38.674Z</time>
      </trkpt>
      <trkpt lat="62.80257" lon="7.18403">
        <ele>57.402232</ele>
        <time>2020-08-02T10:55:42.713Z</time>
      </trkpt>
      <trkpt lat="62.80257" lon="7.18424">
        <ele>57.826248</ele>
        <time>2020-08-02T10:55:46.656Z</time>
      </trkpt>
      <trkpt lat="62.80256" lon="7.18443">
        <ele>58.230545</ele>
        <time>2020-08-02T10:55:50.694Z</time>
      </trkpt>
      <trkpt lat="62.80255" lon="7.18464">
        <ele>58.663903</ele>
        <time>2020-08-02T10:55:54.685Z</time>
      </trkpt>
      <trkpt lat="62.80254" lon="7.18486">
        <ele>59.111936</ele>
        <time>2020-08-02T10:55:58.665Z</time>
      </trkpt>
      <trkpt lat="62.80254" lon="7.1851">
        <ele>59.595229</ele>
        <time>2020-08-02T10:56:02.665Z</time>
      </trkpt>
      <trkpt lat="62.80255" lon="7.18533">
        <ele>60.072401</ele>
        <time>2020-08-02T10:56:06.669Z</time>
      </trkpt>
      <trkpt lat="62.80255" lon="7.18554">
        <ele>60.35139</ele>
        <time>2020-08-02T10:56:10.690Z</time>
      </trkpt>
      <trkpt lat="62.80255" lon="7.18576">
        <ele>60.515102</ele>
        <time>2020-08-02T10:56:14.685Z</time>
      </trkpt>
      <trkpt lat="62.80255" lon="7.18598">
        <ele>60.685452</ele>
        <time>2020-08-02T10:56:18.673Z</time>
      </trkpt>
      <trkpt lat="62.80255" lon="7.18622">
        <ele>60.86675</ele>
        <time>2020-08-02T10:56:22.686Z</time>
      </trkpt>
      <trkpt lat="62.80255" lon="7.18644">
        <ele>61.041195</ele>
        <time>2020-08-02T10:56:26.699Z</time>
      </trkpt>
      <trkpt lat="62.80255" lon="7.18668">
        <ele>61.221758</ele>
        <time>2020-08-02T10:56:30.675Z</time>
      </trkpt>
      <trkpt lat="62.80254" lon="7.18691">
        <ele>61.399604</ele>
        <time>2020-08-02T10:56:34.684Z</time>
      </trkpt>
      <trkpt lat="62.80252" lon="7.18711">
        <ele>61.551108</ele>
        <time>2020-08-02T10:56:37.716Z</time>
      </trkpt>
      <trkpt lat="62.80253" lon="7.18732">
        <ele>61.716375</ele>
        <time>2020-08-02T10:56:40.692Z</time>
      </trkpt>
      <trkpt lat="62.80254" lon="7.18755">
        <ele>61.892617</ele>
        <time>2020-08-02T10:56:43.661Z</time>
      </trkpt>
      <trkpt lat="62.80256" lon="7.1878">
        <ele>62.081293</ele>
        <time>2020-08-02T10:56:46.696Z</time>
      </trkpt>
      <trkpt lat="62.80257" lon="7.18806">
        <ele>62.284254</ele>
        <time>2020-08-02T10:56:49.692Z</time>
      </trkpt>
      <trkpt lat="62.80259" lon="7.18833">
        <ele>62.489485</ele>
        <time>2020-08-02T10:56:52.679Z</time>
      </trkpt>
      <trkpt lat="62.8026" lon="7.18861">
        <ele>62.708584</ele>
        <time>2020-08-02T10:56:55.671Z</time>
      </trkpt>
      <trkpt lat="62.80261" lon="7.18881">
        <ele>62.862924</ele>
        <time>2020-08-02T10:56:57.724Z</time>
      </trkpt>
      <trkpt lat="62.80261" lon="7.18903">
        <ele>63.028293</ele>
        <time>2020-08-02T10:56:59.695Z</time>
      </trkpt>
      <trkpt lat="62.80261" lon="7.18924">
        <ele>63.187441</ele>
        <time>2020-08-02T10:57:01.677Z</time>
      </trkpt>
      <trkpt lat="62.8026" lon="7.18945">
        <ele>63.1024</ele>
        <time>2020-08-02T10:57:03.677Z</time>
      </trkpt>
      <trkpt lat="62.8026" lon="7.18967">
        <ele>62.784596</ele>
        <time>2020-08-02T10:57:05.671Z</time>
      </trkpt>
      <trkpt lat="62.80261" lon="7.18991">
        <ele>62.455313</ele>
        <time>2020-08-02T10:57:07.675Z</time>
      </trkpt>
      <trkpt lat="62.80261" lon="7.19015">
        <ele>62.112143</ele>
        <time>2020-08-02T10:57:09.680Z</time>
      </trkpt>
      <trkpt lat="62.80261" lon="7.19039">
        <ele>61.773024</ele>
        <time>2020-08-02T10:57:11.663Z</time>
      </trkpt>
      <trkpt lat="62.80262" lon="7.19064">
        <ele>61.418606</ele>
        <time>2020-08-02T10:57:13.673Z</time>
      </trkpt>
      <trkpt lat="62.80262" lon="7.1909">
        <ele>61.059904</ele>
        <time>2020-08-02T10:57:15.671Z</time>
      </trkpt>
      <trkpt lat="62.80262" lon="7.19116">
        <ele>60.699704</ele>
        <time>2020-08-02T10:57:17.686Z</time>
      </trkpt>
      <trkpt lat="62.80263" lon="7.19142">
        <ele>60.333456</ele>
        <time>2020-08-02T10:57:19.693Z</time>
      </trkpt>
      <trkpt lat="62.80264" lon="7.19169">
        <ele>59.950986</ele>
        <time>2020-08-02T10:57:21.678Z</time>
      </trkpt>
      <trkpt lat="62.80266" lon="7.19197">
        <ele>59.552932</ele>
        <time>2020-08-02T10:57:23.674Z</time>
      </trkpt>
      <trkpt lat="62.80268" lon="7.19225">
        <ele>59.145569</ele>
        <time>2020-08-02T10:57:25.708Z</time>
      </trkpt>
      <trkpt lat="62.8027" lon="7.19253">
        <ele>58.745178</ele>
        <time>2020-08-02T10:57:27.691Z</time>
      </trkpt>
      <trkpt lat="62.80272" lon="7.19282">
        <ele>58.341104</ele>
        <time>2020-08-02T10:57:29.677Z</time>
      </trkpt>
      <trkpt lat="62.80274" lon="7.1931">
        <ele>57.93663</ele>
        <time>2020-08-02T10:57:31.703Z</time>
      </trkpt>
      <trkpt lat="62.80275" lon="7.19338">
        <ele>57.554169</ele>
        <time>2020-08-02T10:57:33.683Z</time>
      </trkpt>
      <trkpt lat="62.80277" lon="7.19367">
        <ele>57.173274</ele>
        <time>2020-08-02T10:57:35.695Z</time>
      </trkpt>
      <trkpt lat="62.8028" lon="7.19396">
        <ele>56.785212</ele>
        <time>2020-08-02T10:57:37.671Z</time>
      </trkpt>
      <trkpt lat="62.80283" lon="7.19427">
        <ele>56.382666</ele>
        <time>2020-08-02T10:57:39.676Z</time>
      </trkpt>
      <trkpt lat="62.80286" lon="7.19457">
        <ele>55.980813</ele>
        <time>2020-08-02T10:57:41.710Z</time>
      </trkpt>
      <trkpt lat="62.80289" lon="7.19486">
        <ele>55.581502</ele>
        <time>2020-08-02T10:57:43.683Z</time>
      </trkpt>
      <trkpt lat="62.80293" lon="7.19516">
        <ele>55.185907</ele>
        <time>2020-08-02T10:57:45.657Z</time>
      </trkpt>
      <trkpt lat="62.80296" lon="7.19545">
        <ele>54.788874</ele>
        <time>2020-08-02T10:57:47.711Z</time>
      </trkpt>
      <trkpt lat="62.803" lon="7.19575">
        <ele>54.389321</ele>
        <time>2020-08-02T10:57:49.692Z</time>
      </trkpt>
      <trkpt lat="62.80303" lon="7.19604">
        <ele>54.001463</ele>
        <time>2020-08-02T10:57:51.689Z</time>
      </trkpt>
      <trkpt lat="62.80306" lon="7.19634">
        <ele>53.599614</ele>
        <time>2020-08-02T10:57:53.711Z</time>
      </trkpt>
      <trkpt lat="62.80309" lon="7.19663">
        <ele>53.211724</ele>
        <time>2020-08-02T10:57:55.671Z</time>
      </trkpt>
      <trkpt lat="62.80313" lon="7.19691">
        <ele>52.819488</ele>
        <time>2020-08-02T10:57:57.663Z</time>
      </trkpt>
      <trkpt lat="62.80318" lon="7.1972">
        <ele>52.462319</ele>
        <time>2020-08-02T10:57:59.726Z</time>
      </trkpt>
      <trkpt lat="62.80322" lon="7.1975">
        <ele>52.149818</ele>
        <time>2020-08-02T10:58:01.719Z</time>
      </trkpt>
      <trkpt lat="62.80327" lon="7.19781">
        <ele>51.831669</ele>
        <time>2020-08-02T10:58:03.677Z</time>
      </trkpt>
      <trkpt lat="62.80331" lon="7.19811">
        <ele>51.519169</ele>
        <time>2020-08-02T10:58:05.666Z</time>
      </trkpt>
      <trkpt lat="62.80336" lon="7.19841">
        <ele>51.208316</ele>
        <time>2020-08-02T10:58:07.670Z</time>
      </trkpt>
      <trkpt lat="62.80341" lon="7.1987">
        <ele>50.898182</ele>
        <time>2020-08-02T10:58:09.695Z</time>
      </trkpt>
      <trkpt lat="62.80346" lon="7.199">
        <ele>50.584737</ele>
        <time>2020-08-02T10:58:11.694Z</time>
      </trkpt>
      <trkpt lat="62.8035" lon="7.19929">
        <ele>50.283004</ele>
        <time>2020-08-02T10:58:13.699Z</time>
      </trkpt>
      <trkpt lat="62.80354" lon="7.19957">
        <ele>49.985094</ele>
        <time>2020-08-02T10:58:15.665Z</time>
      </trkpt>
      <trkpt lat="62.80358" lon="7.19987">
        <ele>49.683058</ele>
        <time>2020-08-02T10:58:17.718Z</time>
      </trkpt>
      <trkpt lat="62.80362" lon="7.20015">
        <ele>49.387346</ele>
        <time>2020-08-02T10:58:19.702Z</time>
      </trkpt>
      <trkpt lat="62.80366" lon="7.20042">
        <ele>49.104551</ele>
        <time>2020-08-02T10:58:21.668Z</time>
      </trkpt>
      <trkpt lat="62.80371" lon="7.20069">
        <ele>48.826954</ele>
        <time>2020-08-02T10:58:23.680Z</time>
      </trkpt>
      <trkpt lat="62.80374" lon="7.20095">
        <ele>48.8659</ele>
        <time>2020-08-02T10:58:25.702Z</time>
      </trkpt>
      <trkpt lat="62.80378" lon="7.20119">
        <ele>49.152103</ele>
        <time>2020-08-02T10:58:27.674Z</time>
      </trkpt>
      <trkpt lat="62.8038" lon="7.20143">
        <ele>49.423669</ele>
        <time>2020-08-02T10:58:29.701Z</time>
      </trkpt>
      <trkpt lat="62.80383" lon="7.20164">
        <ele>49.678816</ele>
        <time>2020-08-02T10:58:31.688Z</time>
      </trkpt>
      <trkpt lat="62.80387" lon="7.20185">
        <ele>49.93309</ele>
        <time>2020-08-02T10:58:33.686Z</time>
      </trkpt>
      <trkpt lat="62.8039" lon="7.20207">
        <ele>50.18977</ele>
        <time>2020-08-02T10:58:35.666Z</time>
      </trkpt>
      <trkpt lat="62.80393" lon="7.20227">
        <ele>50.430475</ele>
        <time>2020-08-02T10:58:37.697Z</time>
      </trkpt>
      <trkpt lat="62.80396" lon="7.20246">
        <ele>50.662261</ele>
        <time>2020-08-02T10:58:39.674Z</time>
      </trkpt>
      <trkpt lat="62.80399" lon="7.20266">
        <ele>50.888892</ele>
        <time>2020-08-02T10:58:41.705Z</time>
      </trkpt>
      <trkpt lat="62.80401" lon="7.20285">
        <ele>51.116812</ele>
        <time>2020-08-02T10:58:43.683Z</time>
      </trkpt>
      <trkpt lat="62.80403" lon="7.20304">
        <ele>51.342753</ele>
        <time>2020-08-02T10:58:45.696Z</time>
      </trkpt>
      <trkpt lat="62.80407" lon="7.20331">
        <ele>51.656752</ele>
        <time>2020-08-02T10:58:48.666Z</time>
      </trkpt>
      <trkpt lat="62.80412" lon="7.20356">
        <ele>51.963513</ele>
        <time>2020-08-02T10:58:51.691Z</time>
      </trkpt>
      <trkpt lat="62.80415" lon="7.20381">
        <ele>52.252579</ele>
        <time>2020-08-02T10:58:54.688Z</time>
      </trkpt>
      <trkpt lat="62.8042" lon="7.20404">
        <ele>52.541823</ele>
        <time>2020-08-02T10:58:57.693Z</time>
      </trkpt>
      <trkpt lat="62.80424" lon="7.20429">
        <ele>52.845775</ele>
        <time>2020-08-02T10:59:00.688Z</time>
      </trkpt>
      <trkpt lat="62.80429" lon="7.20452">
        <ele>53.128843</ele>
        <time>2020-08-02T10:59:03.685Z</time>
      </trkpt>
      <trkpt lat="62.80433" lon="7.20473">
        <ele>53.576847</ele>
        <time>2020-08-02T10:59:06.665Z</time>
      </trkpt>
      <trkpt lat="62.80436" lon="7.20495">
        <ele>54.049517</ele>
        <time>2020-08-02T10:59:09.671Z</time>
      </trkpt>
      <trkpt lat="62.8044" lon="7.20516">
        <ele>54.505692</ele>
        <time>2020-08-02T10:59:12.714Z</time>
      </trkpt>
      <trkpt lat="62.80443" lon="7.20536">
        <ele>54.948834</ele>
        <time>2020-08-02T10:59:15.671Z</time>
      </trkpt>
      <trkpt lat="62.80447" lon="7.20558">
        <ele>55.407821</ele>
        <time>2020-08-02T10:59:18.721Z</time>
      </trkpt>
      <trkpt lat="62.80449" lon="7.20579">
        <ele>55.864057</ele>
        <time>2020-08-02T10:59:21.722Z</time>
      </trkpt>
      <trkpt lat="62.80453" lon="7.206">
        <ele>56.313882</ele>
        <time>2020-08-02T10:59:24.694Z</time>
      </trkpt>
      <trkpt lat="62.80455" lon="7.2062">
        <ele>56.74339</ele>
        <time>2020-08-02T10:59:27.693Z</time>
      </trkpt>
      <trkpt lat="62.80458" lon="7.20639">
        <ele>57.154016</ele>
        <time>2020-08-02T10:59:30.720Z</time>
      </trkpt>
      <trkpt lat="62.80461" lon="7.20661">
        <ele>57.601182</ele>
        <time>2020-08-02T10:59:33.670Z</time>
      </trkpt>
      <trkpt lat="62.80463" lon="7.20681">
        <ele>58.028268</ele>
        <time>2020-08-02T10:59:36.666Z</time>
      </trkpt>
      <trkpt lat="62.80466" lon="7.20701">
        <ele>58.449946</ele>
        <time>2020-08-02T10:59:39.670Z</time>
      </trkpt>
      <trkpt lat="62.80469" lon="7.2072">
        <ele>58.86475</ele>
        <time>2020-08-02T10:59:42.697Z</time>
      </trkpt>
      <trkpt lat="62.80473" lon="7.20738">
        <ele>59.282478</ele>
        <time>2020-08-02T10:59:45.668Z</time>
      </trkpt>
      <trkpt lat="62.80476" lon="7.20758">
        <ele>59.706</ele>
        <time>2020-08-02T10:59:48.685Z</time>
      </trkpt>
      <trkpt lat="62.80479" lon="7.20776">
        <ele>60.109524</ele>
        <time>2020-08-02T10:59:51.707Z</time>
      </trkpt>
      <trkpt lat="62.80483" lon="7.20796">
        <ele>60.530055</ele>
        <time>2020-08-02T10:59:54.665Z</time>
      </trkpt>
      <trkpt lat="62.80486" lon="7.20815">
        <ele>60.952881</ele>
        <time>2020-08-02T10:59:57.686Z</time>
      </trkpt>
      <trkpt lat="62.80489" lon="7.20835">
        <ele>61.28377</ele>
        <time>2020-08-02T11:00:00.697Z</time>
      </trkpt>
      <trkpt lat="62.80492" lon="7.20854">
        <ele>61.488562</ele>
        <time>2020-08-02T11:00:03.673Z</time>
      </trkpt>
      <trkpt lat="62.80496" lon="7.20873">
        <ele>61.696856</ele>
        <time>2020-08-02T11:00:06.670Z</time>
      </trkpt>
      <trkpt lat="62.805" lon="7.20897">
        <ele>61.968293</ele>
        <time>2020-08-02T11:00:10.692Z</time>
      </trkpt>
      <trkpt lat="62.80504" lon="7.20919">
        <ele>62.203953</ele>
        <time>2020-08-02T11:00:13.699Z</time>
      </trkpt>
      <trkpt lat="62.80507" lon="7.2094">
        <ele>62.434053</ele>
        <time>2020-08-02T11:00:16.662Z</time>
      </trkpt>
      <trkpt lat="62.8051" lon="7.2096">
        <ele>62.650605</ele>
        <time>2020-08-02T11:00:19.670Z</time>
      </trkpt>
      <trkpt lat="62.80513" lon="7.20981">
        <ele>62.870776</ele>
        <time>2020-08-02T11:00:22.669Z</time>
      </trkpt>
      <trkpt lat="62.80517" lon="7.21001">
        <ele>63.085394</ele>
        <time>2020-08-02T11:00:25.680Z</time>
      </trkpt>
      <trkpt lat="62.8052" lon="7.21021">
        <ele>63.303415</ele>
        <time>2020-08-02T11:00:28.683Z</time>
      </trkpt>
      <trkpt lat="62.80523" lon="7.21041">
        <ele>63.521244</ele>
        <time>2020-08-02T11:00:31.718Z</time>
      </trkpt>
      <trkpt lat="62.80527" lon="7.21061">
        <ele>63.74638</ele>
        <time>2020-08-02T11:00:34.675Z</time>
      </trkpt>
      <trkpt lat="62.80531" lon="7.21085">
        <ele>63.996249</ele>
        <time>2020-08-02T11:00:37.706Z</time>
      </trkpt>
      <trkpt lat="62.80534" lon="7.21109">
        <ele>64.253068</ele>
        <time>2020-08-02T11:00:40.689Z</time>
      </trkpt>
      <trkpt lat="62.80537" lon="7.21132">
        <ele>64.506955</ele>
        <time>2020-08-02T11:00:43.670Z</time>
      </trkpt>
      <trkpt lat="62.80541" lon="7.21156">
        <ele>64.764306</ele>
        <time>2020-08-02T11:00:46.700Z</time>
      </trkpt>
      <trkpt lat="62.80545" lon="7.21182">
        <ele>65.042176</ele>
        <time>2020-08-02T11:00:49.670Z</time>
      </trkpt>
      <trkpt lat="62.80549" lon="7.21208">
        <ele>65.136409</ele>
        <time>2020-08-02T11:00:52.666Z</time>
      </trkpt>
      <trkpt lat="62.80553" lon="7.21235">
        <ele>64.980285</ele>
        <time>2020-08-02T11:00:55.691Z</time>
      </trkpt>
      <trkpt lat="62.80557" lon="7.2126">
        <ele>64.829751</ele>
        <time>2020-08-02T11:00:58.670Z</time>
      </trkpt>
      <trkpt lat="62.80561" lon="7.21285">
        <ele>64.680618</ele>
        <time>2020-08-02T11:01:01.694Z</time>
      </trkpt>
      <trkpt lat="62.80564" lon="7.21312">
        <ele>64.526659</ele>
        <time>2020-08-02T11:01:04.711Z</time>
      </trkpt>
      <trkpt lat="62.80567" lon="7.2134">
        <ele>64.365382</ele>
        <time>2020-08-02T11:01:07.690Z</time>
      </trkpt>
      <trkpt lat="62.80571" lon="7.21367">
        <ele>64.206481</ele>
        <time>2020-08-02T11:01:10.703Z</time>
      </trkpt>
      <trkpt lat="62.80573" lon="7.21387">
        <ele>64.094133</ele>
        <time>2020-08-02T11:01:12.661Z</time>
      </trkpt>
      <trkpt lat="62.80575" lon="7.21407">
        <ele>63.976546</ele>
        <time>2020-08-02T11:01:14.670Z</time>
      </trkpt>
      <trkpt lat="62.80577" lon="7.21428">
        <ele>63.856274</ele>
        <time>2020-08-02T11:01:16.711Z</time>
      </trkpt>
      <trkpt lat="62.8058" lon="7.2145">
        <ele>63.729145</ele>
        <time>2020-08-02T11:01:18.717Z</time>
      </trkpt>
      <trkpt lat="62.80583" lon="7.21473">
        <ele>63.593059</ele>
        <time>2020-08-02T11:01:20.682Z</time>
      </trkpt>
      <trkpt lat="62.80586" lon="7.21496">
        <ele>63.459307</ele>
        <time>2020-08-02T11:01:22.679Z</time>
      </trkpt>
      <trkpt lat="62.80589" lon="7.21519">
        <ele>63.325597</ele>
        <time>2020-08-02T11:01:24.662Z</time>
      </trkpt>
      <trkpt lat="62.80591" lon="7.21543">
        <ele>63.188105</ele>
        <time>2020-08-02T11:01:26.690Z</time>
      </trkpt>
      <trkpt lat="62.80594" lon="7.21568">
        <ele>63.046987</ele>
        <time>2020-08-02T11:01:28.696Z</time>
      </trkpt>
      <trkpt lat="62.80596" lon="7.21593">
        <ele>62.656686</ele>
        <time>2020-08-02T11:01:30.679Z</time>
      </trkpt>
      <trkpt lat="62.80598" lon="7.21621">
        <ele>62.111419</ele>
        <time>2020-08-02T11:01:32.715Z</time>
      </trkpt>
      <trkpt lat="62.806" lon="7.21649">
        <ele>61.545433</ele>
        <time>2020-08-02T11:01:34.689Z</time>
      </trkpt>
      <trkpt lat="62.80601" lon="7.21679">
        <ele>60.966981</ele>
        <time>2020-08-02T11:01:36.689Z</time>
      </trkpt>
      <trkpt lat="62.80603" lon="7.21709">
        <ele>60.36318</ele>
        <time>2020-08-02T11:01:38.699Z</time>
      </trkpt>
      <trkpt lat="62.80604" lon="7.2174">
        <ele>59.748243</ele>
        <time>2020-08-02T11:01:40.675Z</time>
      </trkpt>
      <trkpt lat="62.80605" lon="7.21771">
        <ele>59.133908</ele>
        <time>2020-08-02T11:01:42.677Z</time>
      </trkpt>
      <trkpt lat="62.80606" lon="7.21803">
        <ele>58.506668</ele>
        <time>2020-08-02T11:01:44.667Z</time>
      </trkpt>
      <trkpt lat="62.80606" lon="7.21836">
        <ele>57.869261</ele>
        <time>2020-08-02T11:01:46.699Z</time>
      </trkpt>
      <trkpt lat="62.80606" lon="7.21866">
        <ele>57.265956</ele>
        <time>2020-08-02T11:01:48.697Z</time>
      </trkpt>
      <trkpt lat="62.80606" lon="7.21896">
        <ele>56.688069</ele>
        <time>2020-08-02T11:01:50.696Z</time>
      </trkpt>
      <trkpt lat="62.80606" lon="7.21924">
        <ele>56.135722</ele>
        <time>2020-08-02T11:01:52.675Z</time>
      </trkpt>
      <trkpt lat="62.80605" lon="7.2195">
        <ele>55.614896</ele>
        <time>2020-08-02T11:01:54.720Z</time>
      </trkpt>
      <trkpt lat="62.80605" lon="7.21975">
        <ele>55.275709</ele>
        <time>2020-08-02T11:01:56.707Z</time>
      </trkpt>
      <trkpt lat="62.80605" lon="7.21997">
        <ele>55.321176</ele>
        <time>2020-08-02T11:01:58.660Z</time>
      </trkpt>
      <trkpt lat="62.80604" lon="7.22026">
        <ele>55.379768</ele>
        <time>2020-08-02T11:02:01.687Z</time>
      </trkpt>
      <trkpt lat="62.80604" lon="7.22049">
        <ele>55.426989</ele>
        <time>2020-08-02T11:02:04.677Z</time>
      </trkpt>
      <trkpt lat="62.80602" lon="7.22074">
        <ele>55.478857</ele>
        <time>2020-08-02T11:02:08.668Z</time>
      </trkpt>
      <trkpt lat="62.80601" lon="7.22093">
        <ele>55.519136</ele>
        <time>2020-08-02T11:02:11.672Z</time>
      </trkpt>
      <trkpt lat="62.806" lon="7.22113">
        <ele>55.56044</ele>
        <time>2020-08-02T11:02:14.672Z</time>
      </trkpt>
      <trkpt lat="62.80599" lon="7.22134">
        <ele>55.60275</ele>
        <time>2020-08-02T11:02:17.680Z</time>
      </trkpt>
      <trkpt lat="62.80598" lon="7.22155">
        <ele>55.645208</ele>
        <time>2020-08-02T11:02:20.670Z</time>
      </trkpt>
      <trkpt lat="62.80597" lon="7.22176">
        <ele>55.68894</ele>
        <time>2020-08-02T11:02:23.676Z</time>
      </trkpt>
      <trkpt lat="62.80595" lon="7.22196">
        <ele>55.731592</ele>
        <time>2020-08-02T11:02:26.681Z</time>
      </trkpt>
      <trkpt lat="62.80594" lon="7.22216">
        <ele>55.772577</ele>
        <time>2020-08-02T11:02:29.706Z</time>
      </trkpt>
      <trkpt lat="62.80592" lon="7.22236">
        <ele>55.814546</ele>
        <time>2020-08-02T11:02:32.699Z</time>
      </trkpt>
      <trkpt lat="62.8059" lon="7.22256">
        <ele>55.854763</ele>
        <time>2020-08-02T11:02:35.670Z</time>
      </trkpt>
      <trkpt lat="62.80588" lon="7.22275">
        <ele>55.896224</ele>
        <time>2020-08-02T11:02:38.674Z</time>
      </trkpt>
      <trkpt lat="62.80585" lon="7.22296">
        <ele>55.940649</ele>
        <time>2020-08-02T11:02:41.687Z</time>
      </trkpt>
      <trkpt lat="62.80583" lon="7.22317">
        <ele>55.98445</ele>
        <time>2020-08-02T11:02:44.688Z</time>
      </trkpt>
      <trkpt lat="62.80581" lon="7.22337">
        <ele>56.02647</ele>
        <time>2020-08-02T11:02:47.690Z</time>
      </trkpt>
      <trkpt lat="62.80577" lon="7.22357">
        <ele>56.065269</ele>
        <time>2020-08-02T11:02:50.714Z</time>
      </trkpt>
      <trkpt lat="62.80574" lon="7.22379">
        <ele>56.026052</ele>
        <time>2020-08-02T11:02:53.674Z</time>
      </trkpt>
      <trkpt lat="62.80571" lon="7.224">
        <ele>55.987676</ele>
        <time>2020-08-02T11:02:56.727Z</time>
      </trkpt>
      <trkpt lat="62.80568" lon="7.22421">
        <ele>55.949172</ele>
        <time>2020-08-02T11:02:59.690Z</time>
      </trkpt>
      <trkpt lat="62.80564" lon="7.22442">
        <ele>55.910281</ele>
        <time>2020-08-02T11:03:02.668Z</time>
      </trkpt>
      <trkpt lat="62.80559" lon="7.22462">
        <ele>55.871396</ele>
        <time>2020-08-02T11:03:05.674Z</time>
      </trkpt>
      <trkpt lat="62.80554" lon="7.22483">
        <ele>55.830624</ele>
        <time>2020-08-02T11:03:08.719Z</time>
      </trkpt>
      <trkpt lat="62.80549" lon="7.22506">
        <ele>55.787034</ele>
        <time>2020-08-02T11:03:11.692Z</time>
      </trkpt>
      <trkpt lat="62.80544" lon="7.22528">
        <ele>55.743554</ele>
        <time>2020-08-02T11:03:14.674Z</time>
      </trkpt>
      <trkpt lat="62.80538" lon="7.22551">
        <ele>55.697104</ele>
        <time>2020-08-02T11:03:17.675Z</time>
      </trkpt>
      <trkpt lat="62.80531" lon="7.22575">
        <ele>55.647909</ele>
        <time>2020-08-02T11:03:20.683Z</time>
      </trkpt>
      <trkpt lat="62.80524" lon="7.226">
        <ele>55.596881</ele>
        <time>2020-08-02T11:03:23.670Z</time>
      </trkpt>
      <trkpt lat="62.80518" lon="7.22617">
        <ele>55.560367</ele>
        <time>2020-08-02T11:03:25.695Z</time>
      </trkpt>
      <trkpt lat="62.80511" lon="7.22634">
        <ele>55.522774</ele>
        <time>2020-08-02T11:03:27.670Z</time>
      </trkpt>
      <trkpt lat="62.80505" lon="7.22651">
        <ele>55.483791</ele>
        <time>2020-08-02T11:03:29.711Z</time>
      </trkpt>
      <trkpt lat="62.80498" lon="7.22669">
        <ele>55.44229</ele>
        <time>2020-08-02T11:03:31.717Z</time>
      </trkpt>
      <trkpt lat="62.8049" lon="7.22687">
        <ele>55.399506</ele>
        <time>2020-08-02T11:03:33.696Z</time>
      </trkpt>
      <trkpt lat="62.80481" lon="7.22705">
        <ele>55.430029</ele>
        <time>2020-08-02T11:03:35.681Z</time>
      </trkpt>
      <trkpt lat="62.80473" lon="7.22723">
        <ele>55.488884</ele>
        <time>2020-08-02T11:03:37.698Z</time>
      </trkpt>
      <trkpt lat="62.80464" lon="7.22741">
        <ele>55.54599</ele>
        <time>2020-08-02T11:03:39.677Z</time>
      </trkpt>
      <trkpt lat="62.80456" lon="7.22758">
        <ele>55.601462</ele>
        <time>2020-08-02T11:03:41.679Z</time>
      </trkpt>
      <trkpt lat="62.80447" lon="7.22774">
        <ele>55.6578</ele>
        <time>2020-08-02T11:03:43.673Z</time>
      </trkpt>
      <trkpt lat="62.80438" lon="7.2279">
        <ele>55.714366</ele>
        <time>2020-08-02T11:03:45.667Z</time>
      </trkpt>
      <trkpt lat="62.8043" lon="7.22806">
        <ele>55.770268</ele>
        <time>2020-08-02T11:03:47.682Z</time>
      </trkpt>
      <trkpt lat="62.80421" lon="7.22822">
        <ele>55.825362</ele>
        <time>2020-08-02T11:03:49.674Z</time>
      </trkpt>
      <trkpt lat="62.80413" lon="7.22837">
        <ele>55.87824</ele>
        <time>2020-08-02T11:03:51.707Z</time>
      </trkpt>
      <trkpt lat="62.80404" lon="7.22851">
        <ele>55.931011</ele>
        <time>2020-08-02T11:03:53.698Z</time>
      </trkpt>
      <trkpt lat="62.80396" lon="7.22865">
        <ele>55.980886</ele>
        <time>2020-08-02T11:03:55.698Z</time>
      </trkpt>
      <trkpt lat="62.80389" lon="7.22879">
        <ele>56.029108</ele>
        <time>2020-08-02T11:03:57.750Z</time>
      </trkpt>
      <trkpt lat="62.80381" lon="7.22893">
        <ele>56.076521</ele>
        <time>2020-08-02T11:03:59.717Z</time>
      </trkpt>
      <trkpt lat="62.80372" lon="7.22911">
        <ele>56.13644</ele>
        <time>2020-08-02T11:04:02.674Z</time>
      </trkpt>
      <trkpt lat="62.80364" lon="7.22927">
        <ele>56.191483</ele>
        <time>2020-08-02T11:04:05.708Z</time>
      </trkpt>
      <trkpt lat="62.80356" lon="7.22941">
        <ele>56.243068</ele>
        <time>2020-08-02T11:04:08.686Z</time>
      </trkpt>
      <trkpt lat="62.80348" lon="7.22954">
        <ele>56.560431</ele>
        <time>2020-08-02T11:04:11.691Z</time>
      </trkpt>
      <trkpt lat="62.8034" lon="7.22969">
        <ele>57.305634</ele>
        <time>2020-08-02T11:04:15.669Z</time>
      </trkpt>
      <trkpt lat="62.80332" lon="7.22985">
        <ele>58.048339</ele>
        <time>2020-08-02T11:04:20.686Z</time>
      </trkpt>
      <trkpt lat="62.80324" lon="7.22998">
        <ele>58.752248</ele>
        <time>2020-08-02T11:04:26.674Z</time>
      </trkpt>
      <trkpt lat="62.80317" lon="7.23013">
        <ele>59.448718</ele>
        <time>2020-08-02T11:04:33.671Z</time>
      </trkpt>
      <trkpt lat="62.8031" lon="7.23028">
        <ele>60.123759</ele>
        <time>2020-08-02T11:04:40.673Z</time>
      </trkpt>
      <trkpt lat="62.80303" lon="7.23043">
        <ele>60.833402</ele>
        <time>2020-08-02T11:04:47.670Z</time>
      </trkpt>
      <trkpt lat="62.80297" lon="7.2306">
        <ele>61.538442</ele>
        <time>2020-08-02T11:04:54.677Z</time>
      </trkpt>
      <trkpt lat="62.8029" lon="7.23078">
        <ele>62.285596</ele>
        <time>2020-08-02T11:05:01.667Z</time>
      </trkpt>
      <trkpt lat="62.80285" lon="7.23096">
        <ele>62.954715</ele>
        <time>2020-08-02T11:05:08.669Z</time>
      </trkpt>
      <trkpt lat="62.8028" lon="7.23113">
        <ele>63.588685</ele>
        <time>2020-08-02T11:05:14.664Z</time>
      </trkpt>
      <trkpt lat="62.80278" lon="7.23132">
        <ele>64.25174</ele>
        <time>2020-08-02T11:05:20.663Z</time>
      </trkpt>
      <trkpt lat="62.80273" lon="7.23152">
        <ele>64.96413</ele>
        <time>2020-08-02T11:05:27.671Z</time>
      </trkpt>
      <trkpt lat="62.80269" lon="7.23169">
        <ele>65.604161</ele>
        <time>2020-08-02T11:05:33.700Z</time>
      </trkpt>
      <trkpt lat="62.80265" lon="7.23189">
        <ele>66.298992</ele>
        <time>2020-08-02T11:05:40.657Z</time>
      </trkpt>
      <trkpt lat="62.80262" lon="7.23209">
        <ele>66.959003</ele>
        <time>2020-08-02T11:05:47.692Z</time>
      </trkpt>
      <trkpt lat="62.8026" lon="7.23231">
        <ele>67.677592</ele>
        <time>2020-08-02T11:05:54.687Z</time>
      </trkpt>
      <trkpt lat="62.80259" lon="7.23253">
        <ele>68.395647</ele>
        <time>2020-08-02T11:06:01.663Z</time>
      </trkpt>
      <trkpt lat="62.80259" lon="7.23273">
        <ele>69.04049</ele>
        <time>2020-08-02T11:06:07.679Z</time>
      </trkpt>
      <trkpt lat="62.80259" lon="7.23294">
        <ele>69.669668</ele>
        <time>2020-08-02T11:06:13.670Z</time>
      </trkpt>
      <trkpt lat="62.80258" lon="7.23317">
        <ele>70.335566</ele>
        <time>2020-08-02T11:06:20.677Z</time>
      </trkpt>
      <trkpt lat="62.80258" lon="7.2334">
        <ele>71.015936</ele>
        <time>2020-08-02T11:06:27.691Z</time>
      </trkpt>
      <trkpt lat="62.80259" lon="7.23362">
        <ele>71.677949</ele>
        <time>2020-08-02T11:06:34.669Z</time>
      </trkpt>
      <trkpt lat="62.80258" lon="7.23384">
        <ele>72.32275</ele>
        <time>2020-08-02T11:06:41.666Z</time>
      </trkpt>
      <trkpt lat="62.80259" lon="7.23404">
        <ele>72.916425</ele>
        <time>2020-08-02T11:06:47.688Z</time>
      </trkpt>
      <trkpt lat="62.80258" lon="7.23425">
        <ele>73.548838</ele>
        <time>2020-08-02T11:06:53.673Z</time>
      </trkpt>
      <trkpt lat="62.80259" lon="7.23445">
        <ele>74.139724</ele>
        <time>2020-08-02T11:07:00.668Z</time>
      </trkpt>
      <trkpt lat="62.8026" lon="7.23466">
        <ele>74.768624</ele>
        <time>2020-08-02T11:07:07.679Z</time>
      </trkpt>
      <trkpt lat="62.80261" lon="7.23486">
        <ele>75.363492</ele>
        <time>2020-08-02T11:07:13.679Z</time>
      </trkpt>
      <trkpt lat="62.80262" lon="7.23507">
        <ele>76.000692</ele>
        <time>2020-08-02T11:07:19.688Z</time>
      </trkpt>
      <trkpt lat="62.80262" lon="7.23527">
        <ele>76.589579</ele>
        <time>2020-08-02T11:07:25.665Z</time>
      </trkpt>
      <trkpt lat="62.80263" lon="7.23547">
        <ele>77.201404</ele>
        <time>2020-08-02T11:07:31.669Z</time>
      </trkpt>
      <trkpt lat="62.80264" lon="7.23569">
        <ele>77.833549</ele>
        <time>2020-08-02T11:07:37.689Z</time>
      </trkpt>
      <trkpt lat="62.80264" lon="7.2359">
        <ele>78.479133</ele>
        <time>2020-08-02T11:07:44.688Z</time>
      </trkpt>
      <trkpt lat="62.80264" lon="7.23611">
        <ele>79.084848</ele>
        <time>2020-08-02T11:07:50.708Z</time>
      </trkpt>
      <trkpt lat="62.80265" lon="7.23632">
        <ele>79.705527</ele>
        <time>2020-08-02T11:07:57.711Z</time>
      </trkpt>
      <trkpt lat="62.80264" lon="7.23654">
        <ele>80.365146</ele>
        <time>2020-08-02T11:08:04.706Z</time>
      </trkpt>
      <trkpt lat="62.80263" lon="7.23676">
        <ele>80.463535</ele>
        <time>2020-08-02T11:08:11.662Z</time>
      </trkpt>
      <trkpt lat="62.80261" lon="7.23695">
        <ele>80.246935</ele>
        <time>2020-08-02T11:08:18.688Z</time>
      </trkpt>
      <trkpt lat="62.80258" lon="7.23715">
        <ele>80.019109</ele>
        <time>2020-08-02T11:08:25.671Z</time>
      </trkpt>
      <trkpt lat="62.80261" lon="7.23735">
        <ele>79.78671</ele>
        <time>2020-08-02T11:08:31.677Z</time>
      </trkpt>
      <trkpt lat="62.80267" lon="7.23752">
        <ele>79.550446</ele>
        <time>2020-08-02T11:08:36.696Z</time>
      </trkpt>
      <trkpt lat="62.80277" lon="7.23771">
        <ele>79.239148</ele>
        <time>2020-08-02T11:08:39.670Z</time>
      </trkpt>
      <trkpt lat="62.80287" lon="7.23788">
        <ele>78.940434</ele>
        <time>2020-08-02T11:08:41.689Z</time>
      </trkpt>
      <trkpt lat="62.80297" lon="7.23808">
        <ele>78.604059</ele>
        <time>2020-08-02T11:08:43.715Z</time>
      </trkpt>
      <trkpt lat="62.80308" lon="7.23826">
        <ele>78.277792</ele>
        <time>2020-08-02T11:08:45.698Z</time>
      </trkpt>
      <trkpt lat="62.80318" lon="7.2384">
        <ele>78.003084</ele>
        <time>2020-08-02T11:08:47.704Z</time>
      </trkpt>
      <trkpt lat="62.80326" lon="7.23852">
        <ele>77.769515</ele>
        <time>2020-08-02T11:08:49.675Z</time>
      </trkpt>
      <trkpt lat="62.80333" lon="7.23863">
        <ele>77.553751</ele>
        <time>2020-08-02T11:08:51.685Z</time>
      </trkpt>
      <trkpt lat="62.80342" lon="7.23876">
        <ele>77.293755</ele>
        <time>2020-08-02T11:08:53.684Z</time>
      </trkpt>
      <trkpt lat="62.80351" lon="7.23891">
        <ele>77.020754</ele>
        <time>2020-08-02T11:08:55.686Z</time>
      </trkpt>
      <trkpt lat="62.80361" lon="7.23906">
        <ele>76.747372</ele>
        <time>2020-08-02T11:08:57.672Z</time>
      </trkpt>
      <trkpt lat="62.80369" lon="7.2392">
        <ele>76.488181</ele>
        <time>2020-08-02T11:08:59.705Z</time>
      </trkpt>
      <trkpt lat="62.80378" lon="7.23933">
        <ele>76.167608</ele>
        <time>2020-08-02T11:09:01.687Z</time>
      </trkpt>
      <trkpt lat="62.80388" lon="7.23947">
        <ele>75.691949</ele>
        <time>2020-08-02T11:09:03.708Z</time>
      </trkpt>
      <trkpt lat="62.80398" lon="7.23963">
        <ele>75.143963</ele>
        <time>2020-08-02T11:09:05.710Z</time>
      </trkpt>
      <trkpt lat="62.80411" lon="7.23981">
        <ele>74.513757</ele>
        <time>2020-08-02T11:09:07.670Z</time>
      </trkpt>
      <trkpt lat="62.80424" lon="7.24002">
        <ele>73.829815</ele>
        <time>2020-08-02T11:09:09.707Z</time>
      </trkpt>
      <trkpt lat="62.80437" lon="7.24022">
        <ele>73.15033</ele>
        <time>2020-08-02T11:09:11.666Z</time>
      </trkpt>
      <trkpt lat="62.8045" lon="7.2404">
        <ele>72.524701</ele>
        <time>2020-08-02T11:09:13.723Z</time>
      </trkpt>
      <trkpt lat="62.8046" lon="7.24053">
        <ele>72.019322</ele>
        <time>2020-08-02T11:09:15.699Z</time>
      </trkpt>
      <trkpt lat="62.8047" lon="7.24067">
        <ele>71.531003</ele>
        <time>2020-08-02T11:09:17.659Z</time>
      </trkpt>
      <trkpt lat="62.80478" lon="7.2408">
        <ele>71.104547</ele>
        <time>2020-08-02T11:09:19.676Z</time>
      </trkpt>
      <trkpt lat="62.80485" lon="7.24092">
        <ele>70.723163</ele>
        <time>2020-08-02T11:09:21.693Z</time>
      </trkpt>
      <trkpt lat="62.80492" lon="7.24104">
        <ele>70.341995</ele>
        <time>2020-08-02T11:09:23.675Z</time>
      </trkpt>
      <trkpt lat="62.805" lon="7.24116">
        <ele>69.96317</ele>
        <time>2020-08-02T11:09:25.675Z</time>
      </trkpt>
      <trkpt lat="62.80508" lon="7.24128">
        <ele>69.555477</ele>
        <time>2020-08-02T11:09:27.692Z</time>
      </trkpt>
      <trkpt lat="62.80516" lon="7.24141">
        <ele>69.11071</ele>
        <time>2020-08-02T11:09:29.682Z</time>
      </trkpt>
      <trkpt lat="62.80527" lon="7.24155">
        <ele>68.749465</ele>
        <time>2020-08-02T11:09:31.680Z</time>
      </trkpt>
      <trkpt lat="62.80538" lon="7.2417">
        <ele>68.82008</ele>
        <time>2020-08-02T11:09:33.685Z</time>
      </trkpt>
      <trkpt lat="62.8055" lon="7.24186">
        <ele>68.891553</ele>
        <time>2020-08-02T11:09:35.708Z</time>
      </trkpt>
      <trkpt lat="62.80561" lon="7.24201">
        <ele>68.958536</ele>
        <time>2020-08-02T11:09:37.703Z</time>
      </trkpt>
      <trkpt lat="62.80571" lon="7.24214">
        <ele>69.019539</ele>
        <time>2020-08-02T11:09:39.680Z</time>
      </trkpt>
      <trkpt lat="62.80579" lon="7.24228">
        <ele>69.075738</ele>
        <time>2020-08-02T11:09:41.664Z</time>
      </trkpt>
      <trkpt lat="62.80585" lon="7.24247">
        <ele>69.129811</ele>
        <time>2020-08-02T11:09:43.684Z</time>
      </trkpt>
      <trkpt lat="62.80588" lon="7.24266">
        <ele>69.177549</ele>
        <time>2020-08-02T11:09:45.695Z</time>
      </trkpt>
      <trkpt lat="62.80588" lon="7.24289">
        <ele>69.232857</ele>
        <time>2020-08-02T11:09:48.687Z</time>
      </trkpt>
      <trkpt lat="62.80587" lon="7.24311">
        <ele>69.283765</ele>
        <time>2020-08-02T11:09:52.675Z</time>
      </trkpt>
      <trkpt lat="62.80587" lon="7.24331">
        <ele>69.332441</ele>
        <time>2020-08-02T11:09:57.678Z</time>
      </trkpt>
      <trkpt lat="62.80586" lon="7.24351">
        <ele>69.380904</ele>
        <time>2020-08-02T11:10:02.673Z</time>
      </trkpt>
      <trkpt lat="62.80586" lon="7.24371">
        <ele>69.428822</ele>
        <time>2020-08-02T11:10:07.683Z</time>
      </trkpt>
      <trkpt lat="62.80587" lon="7.24392">
        <ele>69.47684</ele>
        <time>2020-08-02T11:10:12.675Z</time>
      </trkpt>
      <trkpt lat="62.80588" lon="7.24412">
        <ele>69.525099</ele>
        <time>2020-08-02T11:10:17.658Z</time>
      </trkpt>
      <trkpt lat="62.80591" lon="7.24433">
        <ele>69.579455</ele>
        <time>2020-08-02T11:10:23.710Z</time>
      </trkpt>
      <trkpt lat="62.80594" lon="7.24453">
        <ele>69.628223</ele>
        <time>2020-08-02T11:10:28.665Z</time>
      </trkpt>
      <trkpt lat="62.80598" lon="7.24473">
        <ele>69.760203</ele>
        <time>2020-08-02T11:10:35.686Z</time>
      </trkpt>
      <trkpt lat="62.80604" lon="7.2449">
        <ele>70.266931</ele>
        <time>2020-08-02T11:10:43.690Z</time>
      </trkpt>
      <trkpt lat="62.80608" lon="7.24507">
        <ele>70.748819</ele>
        <time>2020-08-02T11:10:51.675Z</time>
      </trkpt>
      <trkpt lat="62.80612" lon="7.24526">
        <ele>71.259738</ele>
        <time>2020-08-02T11:11:00.679Z</time>
      </trkpt>
      <trkpt lat="62.80619" lon="7.24543">
        <ele>71.797634</ele>
        <time>2020-08-02T11:11:10.692Z</time>
      </trkpt>
      <trkpt lat="62.80624" lon="7.2456">
        <ele>72.301881</ele>
        <time>2020-08-02T11:11:21.658Z</time>
      </trkpt>
      <trkpt lat="62.80629" lon="7.2458">
        <ele>72.852316</ele>
        <time>2020-08-02T11:11:30.696Z</time>
      </trkpt>
      <trkpt lat="62.80638" lon="7.24589">
        <ele>73.385367</ele>
        <time>2020-08-02T11:11:38.681Z</time>
      </trkpt>
      <trkpt lat="62.80646" lon="7.24605">
        <ele>73.956305</ele>
        <time>2020-08-02T11:11:44.723Z</time>
      </trkpt>
      <trkpt lat="62.80653" lon="7.24624">
        <ele>74.557725</ele>
        <time>2020-08-02T11:11:49.695Z</time>
      </trkpt>
      <trkpt lat="62.80659" lon="7.2464">
        <ele>75.05893</ele>
        <time>2020-08-02T11:11:53.698Z</time>
      </trkpt>
      <trkpt lat="62.80664" lon="7.24659">
        <ele>75.612698</ele>
        <time>2020-08-02T11:11:59.670Z</time>
      </trkpt>
      <trkpt lat="62.80671" lon="7.24677">
        <ele>76.164145</ele>
        <time>2020-08-02T11:12:03.688Z</time>
      </trkpt>
      <trkpt lat="62.8068" lon="7.24683">
        <ele>76.682585</ele>
        <time>2020-08-02T11:12:09.686Z</time>
      </trkpt>
      <trkpt lat="62.8069" lon="7.2468">
        <ele>77.230974</ele>
        <time>2020-08-02T11:12:17.666Z</time>
      </trkpt>
      <trkpt lat="62.807" lon="7.24678">
        <ele>77.777501</ele>
        <time>2020-08-02T11:12:24.687Z</time>
      </trkpt>
      <trkpt lat="62.8071" lon="7.24675">
        <ele>78.31663</ele>
        <time>2020-08-02T11:12:30.676Z</time>
      </trkpt>
      <trkpt lat="62.80721" lon="7.24672">
        <ele>78.88591</ele>
        <time>2020-08-02T11:12:35.686Z</time>
      </trkpt>
      <trkpt lat="62.8073" lon="7.24672">
        <ele>79.311849</ele>
        <time>2020-08-02T11:12:39.666Z</time>
      </trkpt>
      <trkpt lat="62.80742" lon="7.2467">
        <ele>79.53433</ele>
        <time>2020-08-02T11:12:43.666Z</time>
      </trkpt>
      <trkpt lat="62.80753" lon="7.24669">
        <ele>79.766727</ele>
        <time>2020-08-02T11:12:47.677Z</time>
      </trkpt>
      <trkpt lat="62.80764" lon="7.24667">
        <ele>79.977312</ele>
        <time>2020-08-02T11:12:51.669Z</time>
      </trkpt>
      <trkpt lat="62.80775" lon="7.24665">
        <ele>80.203665</ele>
        <time>2020-08-02T11:12:55.668Z</time>
      </trkpt>
      <trkpt lat="62.80784" lon="7.24664">
        <ele>80.385762</ele>
        <time>2020-08-02T11:12:58.684Z</time>
      </trkpt>
      <trkpt lat="62.80795" lon="7.24662">
        <ele>80.61052</ele>
        <time>2020-08-02T11:13:02.696Z</time>
      </trkpt>
      <trkpt lat="62.80806" lon="7.24661">
        <ele>80.820661</ele>
        <time>2020-08-02T11:13:05.692Z</time>
      </trkpt>
      <trkpt lat="62.80815" lon="7.24659">
        <ele>81.014306</ele>
        <time>2020-08-02T11:13:08.662Z</time>
      </trkpt>
      <trkpt lat="62.80826" lon="7.24653">
        <ele>81.226732</ele>
        <time>2020-08-02T11:13:12.667Z</time>
      </trkpt>
      <trkpt lat="62.80835" lon="7.24651">
        <ele>81.415851</ele>
        <time>2020-08-02T11:13:15.670Z</time>
      </trkpt>
      <trkpt lat="62.80845" lon="7.24649">
        <ele>81.606676</ele>
        <time>2020-08-02T11:13:18.676Z</time>
      </trkpt>
      <trkpt lat="62.80854" lon="7.24645">
        <ele>81.79323</ele>
        <time>2020-08-02T11:13:21.675Z</time>
      </trkpt>
      <trkpt lat="62.80863" lon="7.24641">
        <ele>81.978814</ele>
        <time>2020-08-02T11:13:24.707Z</time>
      </trkpt>
      <trkpt lat="62.80872" lon="7.24638">
        <ele>82.16098</ele>
        <time>2020-08-02T11:13:27.671Z</time>
      </trkpt>
      <trkpt lat="62.80881" lon="7.24634">
        <ele>82.353754</ele>
        <time>2020-08-02T11:13:30.688Z</time>
      </trkpt>
      <trkpt lat="62.80891" lon="7.24631">
        <ele>82.552006</ele>
        <time>2020-08-02T11:13:33.704Z</time>
      </trkpt>
      <trkpt lat="62.80903" lon="7.24628">
        <ele>82.790099</ele>
        <time>2020-08-02T11:13:37.681Z</time>
      </trkpt>
      <trkpt lat="62.80913" lon="7.24626">
        <ele>83.097271</ele>
        <time>2020-08-02T11:13:40.739Z</time>
      </trkpt>
      <trkpt lat="62.80922" lon="7.24623">
        <ele>83.467463</ele>
        <time>2020-08-02T11:13:43.673Z</time>
      </trkpt>
      <trkpt lat="62.80933" lon="7.2462">
        <ele>83.853827</ele>
        <time>2020-08-02T11:13:46.687Z</time>
      </trkpt>
      <trkpt lat="62.80943" lon="7.24616">
        <ele>84.269417</ele>
        <time>2020-08-02T11:13:49.696Z</time>
      </trkpt>
      <trkpt lat="62.80954" lon="7.24613">
        <ele>84.666787</ele>
        <time>2020-08-02T11:13:52.727Z</time>
      </trkpt>
      <trkpt lat="62.80963" lon="7.24609">
        <ele>85.032101</ele>
        <time>2020-08-02T11:13:55.671Z</time>
      </trkpt>
      <trkpt lat="62.80974" lon="7.24605">
        <ele>85.4497</ele>
        <time>2020-08-02T11:13:59.678Z</time>
      </trkpt>
      <trkpt lat="62.80985" lon="7.246">
        <ele>85.862132</ele>
        <time>2020-08-02T11:14:03.705Z</time>
      </trkpt>
      <trkpt lat="62.80995" lon="7.24598">
        <ele>86.242462</ele>
        <time>2020-08-02T11:14:06.678Z</time>
      </trkpt>
      <trkpt lat="62.81008" lon="7.24597">
        <ele>86.727108</ele>
        <time>2020-08-02T11:14:09.657Z</time>
      </trkpt>
      <trkpt lat="62.81017" lon="7.24609">
        <ele>87.149809</ele>
        <time>2020-08-02T11:14:12.674Z</time>
      </trkpt>
      <trkpt lat="62.81023" lon="7.24624">
        <ele>87.492082</ele>
        <time>2020-08-02T11:14:16.666Z</time>
      </trkpt>
      <trkpt lat="62.81032" lon="7.24632">
        <ele>87.836869</ele>
        <time>2020-08-02T11:14:22.673Z</time>
      </trkpt>
      <trkpt lat="62.81041" lon="7.24639">
        <ele>88.218351</ele>
        <time>2020-08-02T11:14:43.686Z</time>
      </trkpt>
      <trkpt lat="62.81051" lon="7.24645">
        <ele>88.596808</ele>
        <time>2020-08-02T11:14:50.689Z</time>
      </trkpt>
      <trkpt lat="62.81061" lon="7.24648">
        <ele>88.978939</ele>
        <time>2020-08-02T11:14:56.668Z</time>
      </trkpt>
      <trkpt lat="62.81071" lon="7.2465">
        <ele>89.352086</ele>
        <time>2020-08-02T11:15:02.688Z</time>
      </trkpt>
      <trkpt lat="62.8108" lon="7.2465">
        <ele>89.73785</ele>
        <time>2020-08-02T11:15:10.668Z</time>
      </trkpt>
      <trkpt lat="62.81089" lon="7.24655">
        <ele>90.266208</ele>
        <time>2020-08-02T11:15:17.670Z</time>
      </trkpt>
      <trkpt lat="62.81098" lon="7.2466">
        <ele>90.790555</ele>
        <time>2020-08-02T11:15:26.677Z</time>
      </trkpt>
      <trkpt lat="62.81107" lon="7.24661">
        <ele>91.318313</ele>
        <time>2020-08-02T11:15:35.691Z</time>
      </trkpt>
      <trkpt lat="62.81117" lon="7.2466">
        <ele>91.863515</ele>
        <time>2020-08-02T11:15:42.667Z</time>
      </trkpt>
      <trkpt lat="62.81127" lon="7.24659">
        <ele>92.426371</ele>
        <time>2020-08-02T11:15:50.676Z</time>
      </trkpt>
      <trkpt lat="62.81136" lon="7.24657">
        <ele>92.994605</ele>
        <time>2020-08-02T11:15:58.697Z</time>
      </trkpt>
      <trkpt lat="62.81146" lon="7.24654">
        <ele>93.575248</ele>
        <time>2020-08-02T11:16:05.683Z</time>
      </trkpt>
      <trkpt lat="62.81156" lon="7.24651">
        <ele>94.123159</ele>
        <time>2020-08-02T11:16:11.671Z</time>
      </trkpt>
      <trkpt lat="62.81165" lon="7.24645">
        <ele>94.690384</ele>
        <time>2020-08-02T11:16:17.667Z</time>
      </trkpt>
      <trkpt lat="62.81176" lon="7.2464">
        <ele>95.295835</ele>
        <time>2020-08-02T11:16:23.698Z</time>
      </trkpt>
      <trkpt lat="62.81185" lon="7.24637">
        <ele>95.849147</ele>
        <time>2020-08-02T11:16:28.675Z</time>
      </trkpt>
      <trkpt lat="62.81196" lon="7.24633">
        <ele>96.477166</ele>
        <time>2020-08-02T11:16:33.691Z</time>
      </trkpt>
      <trkpt lat="62.81206" lon="7.24627">
        <ele>97.057473</ele>
        <time>2020-08-02T11:16:37.689Z</time>
      </trkpt>
      <trkpt lat="62.81215" lon="7.24621">
        <ele>97.621166</ele>
        <time>2020-08-02T11:16:41.676Z</time>
      </trkpt>
      <trkpt lat="62.81225" lon="7.24614">
        <ele>98.215129</ele>
        <time>2020-08-02T11:16:45.670Z</time>
      </trkpt>
      <trkpt lat="62.81235" lon="7.24607">
        <ele>98.814317</ele>
        <time>2020-08-02T11:16:49.667Z</time>
      </trkpt>
      <trkpt lat="62.81245" lon="7.246">
        <ele>99.433818</ele>
        <time>2020-08-02T11:16:53.676Z</time>
      </trkpt>
      <trkpt lat="62.81255" lon="7.24593">
        <ele>99.978698</ele>
        <time>2020-08-02T11:16:57.669Z</time>
      </trkpt>
      <trkpt lat="62.81263" lon="7.24585">
        <ele>100.054997</ele>
        <time>2020-08-02T11:17:01.679Z</time>
      </trkpt>
      <trkpt lat="62.81273" lon="7.24577">
        <ele>100.13903</ele>
        <time>2020-08-02T11:17:06.687Z</time>
      </trkpt>
      <trkpt lat="62.81282" lon="7.24568">
        <ele>100.217261</ele>
        <time>2020-08-02T11:17:11.679Z</time>
      </trkpt>
      <trkpt lat="62.81291" lon="7.2456">
        <ele>100.292365</ele>
        <time>2020-08-02T11:17:15.668Z</time>
      </trkpt>
      <trkpt lat="62.813" lon="7.24551">
        <ele>100.372614</ele>
        <time>2020-08-02T11:17:19.662Z</time>
      </trkpt>
      <trkpt lat="62.81309" lon="7.24544">
        <ele>100.454506</ele>
        <time>2020-08-02T11:17:23.678Z</time>
      </trkpt>
      <trkpt lat="62.81318" lon="7.24535">
        <ele>100.533729</ele>
        <time>2020-08-02T11:17:27.674Z</time>
      </trkpt>
      <trkpt lat="62.81328" lon="7.24524">
        <ele>100.617672</ele>
        <time>2020-08-02T11:17:31.669Z</time>
      </trkpt>
      <trkpt lat="62.81337" lon="7.24515">
        <ele>100.701162</ele>
        <time>2020-08-02T11:17:35.696Z</time>
      </trkpt>
      <trkpt lat="62.81347" lon="7.24504">
        <ele>100.787578</ele>
        <time>2020-08-02T11:17:39.689Z</time>
      </trkpt>
      <trkpt lat="62.81355" lon="7.24494">
        <ele>100.862045</ele>
        <time>2020-08-02T11:17:42.687Z</time>
      </trkpt>
      <trkpt lat="62.81365" lon="7.24482">
        <ele>100.958459</ele>
        <time>2020-08-02T11:17:46.690Z</time>
      </trkpt>
      <trkpt lat="62.81374" lon="7.24472">
        <ele>101.037458</ele>
        <time>2020-08-02T11:17:49.700Z</time>
      </trkpt>
      <trkpt lat="62.81384" lon="7.24461">
        <ele>101.124381</ele>
        <time>2020-08-02T11:17:52.710Z</time>
      </trkpt>
      <trkpt lat="62.81394" lon="7.24449">
        <ele>101.215708</ele>
        <time>2020-08-02T11:17:55.688Z</time>
      </trkpt>
      <trkpt lat="62.81404" lon="7.24436">
        <ele>101.308699</ele>
        <time>2020-08-02T11:17:58.688Z</time>
      </trkpt>
      <trkpt lat="62.81413" lon="7.24424">
        <ele>101.396551</ele>
        <time>2020-08-02T11:18:01.690Z</time>
      </trkpt>
      <trkpt lat="62.81422" lon="7.24412">
        <ele>101.469683</ele>
        <time>2020-08-02T11:18:04.713Z</time>
      </trkpt>
      <trkpt lat="62.8143" lon="7.24401">
        <ele>101.527158</ele>
        <time>2020-08-02T11:18:07.717Z</time>
      </trkpt>
      <trkpt lat="62.81437" lon="7.24388">
        <ele>101.586682</ele>
        <time>2020-08-02T11:18:10.690Z</time>
      </trkpt>
      <trkpt lat="62.81447" lon="7.24374">
        <ele>101.659935</ele>
        <time>2020-08-02T11:18:14.688Z</time>
      </trkpt>
      <trkpt lat="62.81454" lon="7.24361">
        <ele>101.722416</ele>
        <time>2020-08-02T11:18:17.714Z</time>
      </trkpt>
      <trkpt lat="62.81463" lon="7.24348">
        <ele>101.786912</ele>
        <time>2020-08-02T11:18:20.687Z</time>
      </trkpt>
      <trkpt lat="62.81471" lon="7.24332">
        <ele>101.854584</ele>
        <time>2020-08-02T11:18:23.668Z</time>
      </trkpt>
      <trkpt lat="62.81479" lon="7.24319">
        <ele>101.921849</ele>
        <time>2020-08-02T11:18:26.698Z</time>
      </trkpt>
      <trkpt lat="62.81488" lon="7.24304">
        <ele>101.991715</ele>
        <time>2020-08-02T11:18:29.666Z</time>
      </trkpt>
      <trkpt lat="62.81496" lon="7.24291">
        <ele>102.058955</ele>
        <time>2020-08-02T11:18:32.686Z</time>
      </trkpt>
      <trkpt lat="62.81506" lon="7.24278">
        <ele>102.128868</ele>
        <time>2020-08-02T11:18:35.722Z</time>
      </trkpt>
      <trkpt lat="62.81515" lon="7.24263">
        <ele>102.203527</ele>
        <time>2020-08-02T11:18:38.679Z</time>
      </trkpt>
      <trkpt lat="62.81525" lon="7.24251">
        <ele>102.27604</ele>
        <time>2020-08-02T11:18:41.678Z</time>
      </trkpt>
      <trkpt lat="62.81535" lon="7.24237">
        <ele>102.3492</ele>
        <time>2020-08-02T11:18:44.675Z</time>
      </trkpt>
      <trkpt lat="62.81545" lon="7.24224">
        <ele>102.426769</ele>
        <time>2020-08-02T11:18:47.690Z</time>
      </trkpt>
      <trkpt lat="62.81555" lon="7.24209">
        <ele>102.498999</ele>
        <time>2020-08-02T11:18:50.688Z</time>
      </trkpt>
      <trkpt lat="62.81562" lon="7.24195">
        <ele>102.564859</ele>
        <time>2020-08-02T11:18:53.662Z</time>
      </trkpt>
      <trkpt lat="62.81571" lon="7.24183">
        <ele>102.534484</ele>
        <time>2020-08-02T11:18:56.709Z</time>
      </trkpt>
      <trkpt lat="62.8158" lon="7.24171">
        <ele>102.503468</ele>
        <time>2020-08-02T11:18:59.681Z</time>
      </trkpt>
      <trkpt lat="62.81589" lon="7.24159">
        <ele>102.470868</ele>
        <time>2020-08-02T11:19:02.686Z</time>
      </trkpt>
      <trkpt lat="62.81597" lon="7.24145">
        <ele>102.439058</ele>
        <time>2020-08-02T11:19:05.691Z</time>
      </trkpt>
      <trkpt lat="62.81605" lon="7.24132">
        <ele>102.406403</ele>
        <time>2020-08-02T11:19:08.677Z</time>
      </trkpt>
      <trkpt lat="62.81615" lon="7.24118">
        <ele>102.369743</ele>
        <time>2020-08-02T11:19:11.677Z</time>
      </trkpt>
      <trkpt lat="62.81624" lon="7.24105">
        <ele>102.33702</ele>
        <time>2020-08-02T11:19:14.688Z</time>
      </trkpt>
      <trkpt lat="62.81633" lon="7.24092">
        <ele>102.303949</ele>
        <time>2020-08-02T11:19:17.670Z</time>
      </trkpt>
      <trkpt lat="62.81642" lon="7.24077">
        <ele>102.268968</ele>
        <time>2020-08-02T11:19:20.674Z</time>
      </trkpt>
      <trkpt lat="62.8165" lon="7.24063">
        <ele>102.236579</ele>
        <time>2020-08-02T11:19:23.690Z</time>
      </trkpt>
      <trkpt lat="62.81659" lon="7.2405">
        <ele>102.20235</ele>
        <time>2020-08-02T11:19:26.665Z</time>
      </trkpt>
      <trkpt lat="62.81667" lon="7.24036">
        <ele>102.170131</ele>
        <time>2020-08-02T11:19:29.675Z</time>
      </trkpt>
      <trkpt lat="62.81673" lon="7.24015">
        <ele>102.135488</ele>
        <time>2020-08-02T11:19:32.679Z</time>
      </trkpt>
      <trkpt lat="62.81676" lon="7.23991">
        <ele>102.100812</ele>
        <time>2020-08-02T11:19:35.706Z</time>
      </trkpt>
      <trkpt lat="62.81678" lon="7.23967">
        <ele>102.066121</ele>
        <time>2020-08-02T11:19:38.655Z</time>
      </trkpt>
      <trkpt lat="62.81677" lon="7.23939">
        <ele>102.025565</ele>
        <time>2020-08-02T11:19:41.685Z</time>
      </trkpt>
      <trkpt lat="62.81672" lon="7.23913">
        <ele>101.855983</ele>
        <time>2020-08-02T11:19:44.667Z</time>
      </trkpt>
      <trkpt lat="62.8167" lon="7.23888">
        <ele>101.58272</ele>
        <time>2020-08-02T11:19:47.678Z</time>
      </trkpt>
      <trkpt lat="62.81681" lon="7.2388">
        <ele>101.308388</ele>
        <time>2020-08-02T11:19:51.695Z</time>
      </trkpt>
      <trkpt lat="62.81692" lon="7.23869">
        <ele>101.039133</ele>
        <time>2020-08-02T11:19:55.674Z</time>
      </trkpt>
      <trkpt lat="62.81702" lon="7.2386">
        <ele>100.797857</ele>
        <time>2020-08-02T11:19:58.685Z</time>
      </trkpt>
      <trkpt lat="62.81712" lon="7.23851">
        <ele>100.536862</ele>
        <time>2020-08-02T11:20:01.675Z</time>
      </trkpt>
      <trkpt lat="62.81723" lon="7.23842">
        <ele>100.278763</ele>
        <time>2020-08-02T11:20:04.699Z</time>
      </trkpt>
      <trkpt lat="62.81733" lon="7.23832">
        <ele>100.014155</ele>
        <time>2020-08-02T11:20:07.669Z</time>
      </trkpt>
      <trkpt lat="62.81743" lon="7.23822">
        <ele>99.771261</ele>
        <time>2020-08-02T11:20:10.681Z</time>
      </trkpt>
      <trkpt lat="62.81753" lon="7.23812">
        <ele>99.520055</ele>
        <time>2020-08-02T11:20:13.673Z</time>
      </trkpt>
      <trkpt lat="62.81764" lon="7.23803">
        <ele>99.2602</ele>
        <time>2020-08-02T11:20:16.670Z</time>
      </trkpt>
      <trkpt lat="62.81775" lon="7.23793">
        <ele>98.985061</ele>
        <time>2020-08-02T11:20:19.700Z</time>
      </trkpt>
      <trkpt lat="62.81785" lon="7.23783">
        <ele>98.71458</ele>
        <time>2020-08-02T11:20:22.688Z</time>
      </trkpt>
      <trkpt lat="62.81797" lon="7.23774">
        <ele>98.439595</ele>
        <time>2020-08-02T11:20:25.662Z</time>
      </trkpt>
      <trkpt lat="62.81807" lon="7.23766">
        <ele>98.185867</ele>
        <time>2020-08-02T11:20:28.672Z</time>
      </trkpt>
      <trkpt lat="62.81817" lon="7.23758">
        <ele>97.941448</ele>
        <time>2020-08-02T11:20:31.667Z</time>
      </trkpt>
      <trkpt lat="62.81827" lon="7.2375">
        <ele>98.012518</ele>
        <time>2020-08-02T11:20:34.692Z</time>
      </trkpt>
      <trkpt lat="62.81835" lon="7.23744">
        <ele>98.153442</ele>
        <time>2020-08-02T11:20:37.699Z</time>
      </trkpt>
      <trkpt lat="62.81846" lon="7.23739">
        <ele>98.323159</ele>
        <time>2020-08-02T11:20:41.693Z</time>
      </trkpt>
      <trkpt lat="62.81856" lon="7.23733">
        <ele>98.488171</ele>
        <time>2020-08-02T11:20:45.707Z</time>
      </trkpt>
      <trkpt lat="62.81866" lon="7.23728">
        <ele>98.650857</ele>
        <time>2020-08-02T11:20:49.688Z</time>
      </trkpt>
      <trkpt lat="62.81876" lon="7.23723">
        <ele>98.80176</ele>
        <time>2020-08-02T11:20:53.695Z</time>
      </trkpt>
      <trkpt lat="62.81886" lon="7.23719">
        <ele>98.962918</ele>
        <time>2020-08-02T11:20:57.666Z</time>
      </trkpt>
      <trkpt lat="62.81896" lon="7.23715">
        <ele>99.120007</ele>
        <time>2020-08-02T11:21:01.718Z</time>
      </trkpt>
      <trkpt lat="62.81906" lon="7.23711">
        <ele>99.284479</ele>
        <time>2020-08-02T11:21:05.678Z</time>
      </trkpt>
      <trkpt lat="62.81917" lon="7.23708">
        <ele>99.449289</ele>
        <time>2020-08-02T11:21:09.678Z</time>
      </trkpt>
      <trkpt lat="62.81928" lon="7.23704">
        <ele>99.622505</ele>
        <time>2020-08-02T11:21:13.725Z</time>
      </trkpt>
      <trkpt lat="62.81939" lon="7.23701">
        <ele>99.791946</ele>
        <time>2020-08-02T11:21:17.679Z</time>
      </trkpt>
      <trkpt lat="62.8195" lon="7.23698">
        <ele>99.971815</ele>
        <time>2020-08-02T11:21:21.687Z</time>
      </trkpt>
      <trkpt lat="62.81959" lon="7.23697">
        <ele>100.115402</ele>
        <time>2020-08-02T11:21:24.669Z</time>
      </trkpt>
      <trkpt lat="62.81968" lon="7.23696">
        <ele>100.255698</ele>
        <time>2020-08-02T11:21:27.686Z</time>
      </trkpt>
      <trkpt lat="62.81978" lon="7.23695">
        <ele>100.399143</ele>
        <time>2020-08-02T11:21:30.694Z</time>
      </trkpt>
      <trkpt lat="62.81987" lon="7.23695">
        <ele>100.545557</ele>
        <time>2020-08-02T11:21:33.683Z</time>
      </trkpt>
      <trkpt lat="62.81997" lon="7.23694">
        <ele>100.706068</ele>
        <time>2020-08-02T11:21:36.680Z</time>
      </trkpt>
      <trkpt lat="62.82007" lon="7.23693">
        <ele>100.875329</ele>
        <time>2020-08-02T11:21:39.666Z</time>
      </trkpt>
      <trkpt lat="62.82018" lon="7.23694">
        <ele>101.054701</ele>
        <time>2020-08-02T11:21:42.684Z</time>
      </trkpt>
      <trkpt lat="62.82027" lon="7.23694">
        <ele>101.223799</ele>
        <time>2020-08-02T11:21:45.663Z</time>
      </trkpt>
      <trkpt lat="62.82037" lon="7.23696">
        <ele>101.383323</ele>
        <time>2020-08-02T11:21:48.690Z</time>
      </trkpt>
      <trkpt lat="62.82047" lon="7.23698">
        <ele>101.551352</ele>
        <time>2020-08-02T11:21:51.686Z</time>
      </trkpt>
      <trkpt lat="62.82056" lon="7.23701">
        <ele>101.708409</ele>
        <time>2020-08-02T11:21:54.687Z</time>
      </trkpt>
      <trkpt lat="62.82066" lon="7.23703">
        <ele>101.882095</ele>
        <time>2020-08-02T11:21:57.685Z</time>
      </trkpt>
      <trkpt lat="62.82076" lon="7.23706">
        <ele>102.061151</ele>
        <time>2020-08-02T11:22:00.687Z</time>
      </trkpt>
      <trkpt lat="62.82087" lon="7.2371">
        <ele>102.251855</ele>
        <time>2020-08-02T11:22:03.679Z</time>
      </trkpt>
      <trkpt lat="62.82099" lon="7.23716">
        <ele>102.452287</ele>
        <time>2020-08-02T11:22:06.680Z</time>
      </trkpt>
      <trkpt lat="62.8211" lon="7.23723">
        <ele>102.656221</ele>
        <time>2020-08-02T11:22:09.673Z</time>
      </trkpt>
      <trkpt lat="62.82122" lon="7.23729">
        <ele>102.864781</ele>
        <time>2020-08-02T11:22:12.668Z</time>
      </trkpt>
      <trkpt lat="62.82133" lon="7.23735">
        <ele>103.061225</ele>
        <time>2020-08-02T11:22:15.707Z</time>
      </trkpt>
      <trkpt lat="62.82144" lon="7.23743">
        <ele>103.261303</ele>
        <time>2020-08-02T11:22:18.672Z</time>
      </trkpt>
      <trkpt lat="62.82156" lon="7.23749">
        <ele>103.459352</ele>
        <time>2020-08-02T11:22:21.692Z</time>
      </trkpt>
      <trkpt lat="62.82166" lon="7.23753">
        <ele>103.633556</ele>
        <time>2020-08-02T11:22:24.666Z</time>
      </trkpt>
      <trkpt lat="62.82175" lon="7.23758">
        <ele>103.746153</ele>
        <time>2020-08-02T11:22:27.682Z</time>
      </trkpt>
      <trkpt lat="62.82184" lon="7.23762">
        <ele>103.659617</ele>
        <time>2020-08-02T11:22:30.689Z</time>
      </trkpt>
      <trkpt lat="62.82193" lon="7.23765">
        <ele>103.577051</ele>
        <time>2020-08-02T11:22:33.680Z</time>
      </trkpt>
      <trkpt lat="62.82202" lon="7.23766">
        <ele>103.49256</ele>
        <time>2020-08-02T11:22:36.687Z</time>
      </trkpt>
      <trkpt lat="62.82214" lon="7.23768">
        <ele>103.386162</ele>
        <time>2020-08-02T11:22:40.699Z</time>
      </trkpt>
      <trkpt lat="62.82224" lon="7.23767">
        <ele>103.290804</ele>
        <time>2020-08-02T11:22:44.702Z</time>
      </trkpt>
      <trkpt lat="62.82235" lon="7.23766">
        <ele>103.19714</ele>
        <time>2020-08-02T11:22:48.690Z</time>
      </trkpt>
      <trkpt lat="62.82244" lon="7.23764">
        <ele>103.113376</ele>
        <time>2020-08-02T11:22:52.666Z</time>
      </trkpt>
      <trkpt lat="62.82254" lon="7.23762">
        <ele>103.022273</ele>
        <time>2020-08-02T11:22:56.695Z</time>
      </trkpt>
      <trkpt lat="62.82265" lon="7.23757">
        <ele>102.914548</ele>
        <time>2020-08-02T11:23:00.687Z</time>
      </trkpt>
      <trkpt lat="62.82275" lon="7.23752">
        <ele>102.824884</ele>
        <time>2020-08-02T11:23:03.681Z</time>
      </trkpt>
      <trkpt lat="62.82286" lon="7.23749">
        <ele>102.729676</ele>
        <time>2020-08-02T11:23:06.683Z</time>
      </trkpt>
      <trkpt lat="62.82297" lon="7.23747">
        <ele>102.621173</ele>
        <time>2020-08-02T11:23:09.688Z</time>
      </trkpt>
      <trkpt lat="62.82306" lon="7.23744">
        <ele>102.538724</ele>
        <time>2020-08-02T11:23:11.675Z</time>
      </trkpt>
      <trkpt lat="62.82315" lon="7.23741">
        <ele>102.456097</ele>
        <time>2020-08-02T11:23:13.686Z</time>
      </trkpt>
      <trkpt lat="62.82325" lon="7.23739">
        <ele>102.367707</ele>
        <time>2020-08-02T11:23:15.690Z</time>
      </trkpt>
      <trkpt lat="62.82334" lon="7.23739">
        <ele>102.283233</ele>
        <time>2020-08-02T11:23:17.672Z</time>
      </trkpt>
      <trkpt lat="62.82348" lon="7.23733">
        <ele>102.160956</ele>
        <time>2020-08-02T11:23:20.678Z</time>
      </trkpt>
      <trkpt lat="62.82357" lon="7.23727">
        <ele>101.931459</ele>
        <time>2020-08-02T11:23:22.688Z</time>
      </trkpt>
      <trkpt lat="62.82367" lon="7.23723">
        <ele>101.621083</ele>
        <time>2020-08-02T11:23:24.683Z</time>
      </trkpt>
      <trkpt lat="62.82378" lon="7.23719">
        <ele>101.279981</ele>
        <time>2020-08-02T11:23:26.679Z</time>
      </trkpt>
      <trkpt lat="62.8239" lon="7.23715">
        <ele>100.912783</ele>
        <time>2020-08-02T11:23:28.684Z</time>
      </trkpt>
      <trkpt lat="62.82402" lon="7.2371">
        <ele>100.541438</ele>
        <time>2020-08-02T11:23:30.673Z</time>
      </trkpt>
      <trkpt lat="62.82414" lon="7.23707">
        <ele>100.179335</ele>
        <time>2020-08-02T11:23:32.695Z</time>
      </trkpt>
      <trkpt lat="62.82426" lon="7.23704">
        <ele>99.80542</ele>
        <time>2020-08-02T11:23:34.687Z</time>
      </trkpt>
      <trkpt lat="62.82438" lon="7.23699">
        <ele>99.429552</ele>
        <time>2020-08-02T11:23:36.716Z</time>
      </trkpt>
      <trkpt lat="62.8245" lon="7.23694">
        <ele>99.057964</ele>
        <time>2020-08-02T11:23:38.693Z</time>
      </trkpt>
      <trkpt lat="62.82463" lon="7.23691">
        <ele>98.683086</ele>
        <time>2020-08-02T11:23:40.689Z</time>
      </trkpt>
      <trkpt lat="62.82475" lon="7.23687">
        <ele>98.294999</ele>
        <time>2020-08-02T11:23:42.672Z</time>
      </trkpt>
      <trkpt lat="62.82488" lon="7.23684">
        <ele>97.908353</ele>
        <time>2020-08-02T11:23:44.683Z</time>
      </trkpt>
      <trkpt lat="62.82501" lon="7.23679">
        <ele>97.510607</ele>
        <time>2020-08-02T11:23:46.677Z</time>
      </trkpt>
      <trkpt lat="62.82514" lon="7.23674">
        <ele>97.082538</ele>
        <time>2020-08-02T11:23:48.694Z</time>
      </trkpt>
      <trkpt lat="62.82529" lon="7.23669">
        <ele>96.638007</ele>
        <time>2020-08-02T11:23:50.698Z</time>
      </trkpt>
      <trkpt lat="62.82543" lon="7.23664">
        <ele>96.203701</ele>
        <time>2020-08-02T11:23:52.687Z</time>
      </trkpt>
      <trkpt lat="62.82558" lon="7.2366">
        <ele>95.759483</ele>
        <time>2020-08-02T11:23:54.663Z</time>
      </trkpt>
      <trkpt lat="62.82573" lon="7.23654">
        <ele>95.302094</ele>
        <time>2020-08-02T11:23:56.675Z</time>
      </trkpt>
      <trkpt lat="62.82588" lon="7.23649">
        <ele>94.833041</ele>
        <time>2020-08-02T11:23:58.694Z</time>
      </trkpt>
      <trkpt lat="62.82604" lon="7.23644">
        <ele>94.358853</ele>
        <time>2020-08-02T11:24:00.686Z</time>
      </trkpt>
      <trkpt lat="62.8262" lon="7.23638">
        <ele>93.873851</ele>
        <time>2020-08-02T11:24:02.665Z</time>
      </trkpt>
      <trkpt lat="62.82635" lon="7.23633">
        <ele>93.392904</ele>
        <time>2020-08-02T11:24:04.679Z</time>
      </trkpt>
      <trkpt lat="62.82651" lon="7.23627">
        <ele>92.913837</ele>
        <time>2020-08-02T11:24:06.686Z</time>
      </trkpt>
      <trkpt lat="62.82667" lon="7.23622">
        <ele>92.43965</ele>
        <time>2020-08-02T11:24:08.698Z</time>
      </trkpt>
      <trkpt lat="62.82682" lon="7.23616">
        <ele>91.960809</ele>
        <time>2020-08-02T11:24:10.676Z</time>
      </trkpt>
      <trkpt lat="62.82698" lon="7.23611">
        <ele>91.47668</ele>
        <time>2020-08-02T11:24:12.676Z</time>
      </trkpt>
      <trkpt lat="62.82715" lon="7.23605">
        <ele>90.866729</ele>
        <time>2020-08-02T11:24:14.678Z</time>
      </trkpt>
      <trkpt lat="62.8273" lon="7.236">
        <ele>90.171761</ele>
        <time>2020-08-02T11:24:16.669Z</time>
      </trkpt>
      <trkpt lat="62.82746" lon="7.23595">
        <ele>89.487261</ele>
        <time>2020-08-02T11:24:18.679Z</time>
      </trkpt>
      <trkpt lat="62.82761" lon="7.23591">
        <ele>88.803036</ele>
        <time>2020-08-02T11:24:20.680Z</time>
      </trkpt>
      <trkpt lat="62.82776" lon="7.23585">
        <ele>88.120799</ele>
        <time>2020-08-02T11:24:22.671Z</time>
      </trkpt>
      <trkpt lat="62.82792" lon="7.23581">
        <ele>87.432211</ele>
        <time>2020-08-02T11:24:24.685Z</time>
      </trkpt>
      <trkpt lat="62.82807" lon="7.23573">
        <ele>86.744941</ele>
        <time>2020-08-02T11:24:26.696Z</time>
      </trkpt>
      <trkpt lat="62.82822" lon="7.23566">
        <ele>86.056019</ele>
        <time>2020-08-02T11:24:28.665Z</time>
      </trkpt>
      <trkpt lat="62.82838" lon="7.23561">
        <ele>85.361657</ele>
        <time>2020-08-02T11:24:30.685Z</time>
      </trkpt>
      <trkpt lat="62.82854" lon="7.23557">
        <ele>84.657095</ele>
        <time>2020-08-02T11:24:32.718Z</time>
      </trkpt>
      <trkpt lat="62.8287" lon="7.23553">
        <ele>83.958189</ele>
        <time>2020-08-02T11:24:34.679Z</time>
      </trkpt>
      <trkpt lat="62.82885" lon="7.23551">
        <ele>83.296204</ele>
        <time>2020-08-02T11:24:36.661Z</time>
      </trkpt>
      <trkpt lat="62.829" lon="7.23545">
        <ele>82.935689</ele>
        <time>2020-08-02T11:24:38.679Z</time>
      </trkpt>
      <trkpt lat="62.82914" lon="7.23539">
        <ele>82.584141</ele>
        <time>2020-08-02T11:24:40.686Z</time>
      </trkpt>
      <trkpt lat="62.82928" lon="7.23534">
        <ele>82.239323</ele>
        <time>2020-08-02T11:24:42.687Z</time>
      </trkpt>
      <trkpt lat="62.82942" lon="7.2353">
        <ele>81.916524</ele>
        <time>2020-08-02T11:24:44.710Z</time>
      </trkpt>
      <trkpt lat="62.82954" lon="7.23526">
        <ele>81.613517</ele>
        <time>2020-08-02T11:24:46.689Z</time>
      </trkpt>
      <trkpt lat="62.82966" lon="7.23523">
        <ele>81.323131</ele>
        <time>2020-08-02T11:24:48.676Z</time>
      </trkpt>
      <trkpt lat="62.82977" lon="7.2352">
        <ele>81.061742</ele>
        <time>2020-08-02T11:24:50.671Z</time>
      </trkpt>
      <trkpt lat="62.82987" lon="7.23516">
        <ele>80.815868</ele>
        <time>2020-08-02T11:24:52.668Z</time>
      </trkpt>
      <trkpt lat="62.82997" lon="7.23512">
        <ele>80.576104</ele>
        <time>2020-08-02T11:24:54.687Z</time>
      </trkpt>
      <trkpt lat="62.83006" lon="7.2351">
        <ele>80.348879</ele>
        <time>2020-08-02T11:24:56.685Z</time>
      </trkpt>
      <trkpt lat="62.83015" lon="7.23507">
        <ele>80.131319</ele>
        <time>2020-08-02T11:24:58.690Z</time>
      </trkpt>
      <trkpt lat="62.83024" lon="7.23504">
        <ele>79.91257</ele>
        <time>2020-08-02T11:25:00.673Z</time>
      </trkpt>
      <trkpt lat="62.83034" lon="7.23501">
        <ele>79.682113</ele>
        <time>2020-08-02T11:25:02.707Z</time>
      </trkpt>
      <trkpt lat="62.83044" lon="7.23497">
        <ele>79.428954</ele>
        <time>2020-08-02T11:25:04.691Z</time>
      </trkpt>
      <trkpt lat="62.83056" lon="7.23493">
        <ele>79.147003</ele>
        <time>2020-08-02T11:25:06.679Z</time>
      </trkpt>
      <trkpt lat="62.83068" lon="7.23489">
        <ele>78.749758</ele>
        <time>2020-08-02T11:25:08.707Z</time>
      </trkpt>
      <trkpt lat="62.83081" lon="7.23484">
        <ele>78.230447</ele>
        <time>2020-08-02T11:25:10.691Z</time>
      </trkpt>
      <trkpt lat="62.83095" lon="7.23481">
        <ele>77.689643</ele>
        <time>2020-08-02T11:25:12.674Z</time>
      </trkpt>
      <trkpt lat="62.83109" lon="7.23478">
        <ele>77.134992</ele>
        <time>2020-08-02T11:25:14.688Z</time>
      </trkpt>
      <trkpt lat="62.83124" lon="7.23471">
        <ele>76.539624</ele>
        <time>2020-08-02T11:25:16.669Z</time>
      </trkpt>
      <trkpt lat="62.8314" lon="7.23466">
        <ele>75.917348</ele>
        <time>2020-08-02T11:25:18.670Z</time>
      </trkpt>
      <trkpt lat="62.83156" lon="7.23461">
        <ele>75.296868</ele>
        <time>2020-08-02T11:25:20.689Z</time>
      </trkpt>
      <trkpt lat="62.83171" lon="7.23457">
        <ele>74.720218</ele>
        <time>2020-08-02T11:25:22.695Z</time>
      </trkpt>
      <trkpt lat="62.83184" lon="7.23454">
        <ele>74.188491</ele>
        <time>2020-08-02T11:25:24.704Z</time>
      </trkpt>
      <trkpt lat="62.83198" lon="7.23454">
        <ele>73.635847</ele>
        <time>2020-08-02T11:25:26.683Z</time>
      </trkpt>
      <trkpt lat="62.83213" lon="7.23454">
        <ele>73.063793</ele>
        <time>2020-08-02T11:25:28.695Z</time>
      </trkpt>
      <trkpt lat="62.83228" lon="7.23456">
        <ele>72.479481</ele>
        <time>2020-08-02T11:25:30.671Z</time>
      </trkpt>
      <trkpt lat="62.83244" lon="7.23457">
        <ele>72.073678</ele>
        <time>2020-08-02T11:25:32.680Z</time>
      </trkpt>
      <trkpt lat="62.83259" lon="7.23457">
        <ele>72.393962</ele>
        <time>2020-08-02T11:25:34.696Z</time>
      </trkpt>
      <trkpt lat="62.83271" lon="7.23457">
        <ele>72.660132</ele>
        <time>2020-08-02T11:25:36.720Z</time>
      </trkpt>
      <trkpt lat="62.83281" lon="7.23457">
        <ele>72.885234</ele>
        <time>2020-08-02T11:25:38.667Z</time>
      </trkpt>
      <trkpt lat="62.83291" lon="7.23457">
        <ele>73.097355</ele>
        <time>2020-08-02T11:25:40.678Z</time>
      </trkpt>
      <trkpt lat="62.83301" lon="7.23459">
        <ele>73.301721</ele>
        <time>2020-08-02T11:25:42.704Z</time>
      </trkpt>
      <trkpt lat="62.83313" lon="7.23461">
        <ele>73.579001</ele>
        <time>2020-08-02T11:25:45.667Z</time>
      </trkpt>
      <trkpt lat="62.83324" lon="7.23461">
        <ele>73.806221</ele>
        <time>2020-08-02T11:25:48.699Z</time>
      </trkpt>
      <trkpt lat="62.83333" lon="7.23463">
        <ele>74.006094</ele>
        <time>2020-08-02T11:25:51.726Z</time>
      </trkpt>
      <trkpt lat="62.83343" lon="7.23463">
        <ele>74.213981</ele>
        <time>2020-08-02T11:25:55.691Z</time>
      </trkpt>
      <trkpt lat="62.83353" lon="7.23465">
        <ele>74.435339</ele>
        <time>2020-08-02T11:26:00.694Z</time>
      </trkpt>
      <trkpt lat="62.83362" lon="7.23465">
        <ele>74.634429</ele>
        <time>2020-08-02T11:26:05.669Z</time>
      </trkpt>
      <trkpt lat="62.83371" lon="7.23466">
        <ele>74.831385</ele>
        <time>2020-08-02T11:26:10.695Z</time>
      </trkpt>
      <trkpt lat="62.83381" lon="7.23468">
        <ele>75.040256</ele>
        <time>2020-08-02T11:26:16.678Z</time>
      </trkpt>
      <trkpt lat="62.83391" lon="7.23468">
        <ele>75.252322</ele>
        <time>2020-08-02T11:26:22.687Z</time>
      </trkpt>
      <trkpt lat="62.834" lon="7.23467">
        <ele>75.460096</ele>
        <time>2020-08-02T11:26:28.671Z</time>
      </trkpt>
      <trkpt lat="62.8341" lon="7.23469">
        <ele>75.676929</ele>
        <time>2020-08-02T11:26:34.668Z</time>
      </trkpt>
      <trkpt lat="62.83421" lon="7.23471">
        <ele>75.922904</ele>
        <time>2020-08-02T11:26:40.691Z</time>
      </trkpt>
      <trkpt lat="62.83432" lon="7.23474">
        <ele>76.244182</ele>
        <time>2020-08-02T11:26:46.731Z</time>
      </trkpt>
      <trkpt lat="62.83441" lon="7.23478">
        <ele>76.531629</ele>
        <time>2020-08-02T11:26:51.688Z</time>
      </trkpt>
      <trkpt lat="62.83451" lon="7.23483">
        <ele>76.829791</ele>
        <time>2020-08-02T11:26:56.671Z</time>
      </trkpt>
      <trkpt lat="62.8346" lon="7.23488">
        <ele>77.100226</ele>
        <time>2020-08-02T11:27:01.677Z</time>
      </trkpt>
      <trkpt lat="62.83469" lon="7.23498">
        <ele>77.392628</ele>
        <time>2020-08-02T11:27:07.671Z</time>
      </trkpt>
      <trkpt lat="62.83478" lon="7.23505">
        <ele>77.678656</ele>
        <time>2020-08-02T11:27:13.682Z</time>
      </trkpt>
      <trkpt lat="62.83487" lon="7.23509">
        <ele>77.964357</ele>
        <time>2020-08-02T11:27:19.699Z</time>
      </trkpt>
      <trkpt lat="62.83497" lon="7.23516">
        <ele>78.269379</ele>
        <time>2020-08-02T11:27:26.682Z</time>
      </trkpt>
      <trkpt lat="62.83506" lon="7.23511">
        <ele>78.553132</ele>
        <time>2020-08-02T11:27:31.692Z</time>
      </trkpt>
      <trkpt lat="62.83518" lon="7.23517">
        <ele>78.906624</ele>
        <time>2020-08-02T11:27:35.699Z</time>
      </trkpt>
      <trkpt lat="62.83527" lon="7.23527">
        <ele>79.213949</ele>
        <time>2020-08-02T11:27:40.680Z</time>
      </trkpt>
      <trkpt lat="62.83523" lon="7.23557">
        <ele>79.640224</ele>
        <time>2020-08-02T11:46:58.531Z</time>
      </trkpt>
      <trkpt lat="62.83533" lon="7.23569">
        <ele>79.975582</ele>
        <time>2020-08-02T11:47:03.535Z</time>
      </trkpt>
      <trkpt lat="62.83543" lon="7.23579">
        <ele>80.29806</ele>
        <time>2020-08-02T11:47:07.535Z</time>
      </trkpt>
      <trkpt lat="62.83551" lon="7.23588">
        <ele>80.576531</ele>
        <time>2020-08-02T11:47:10.566Z</time>
      </trkpt>
      <trkpt lat="62.83562" lon="7.23594">
        <ele>80.897751</ele>
        <time>2020-08-02T11:47:13.529Z</time>
      </trkpt>
      <trkpt lat="62.83571" lon="7.23603">
        <ele>81.190912</ele>
        <time>2020-08-02T11:47:16.564Z</time>
      </trkpt>
      <trkpt lat="62.8358" lon="7.23613">
        <ele>81.257341</ele>
        <time>2020-08-02T11:47:19.539Z</time>
      </trkpt>
      <trkpt lat="62.8359" lon="7.23617">
        <ele>81.298295</ele>
        <time>2020-08-02T11:47:22.530Z</time>
      </trkpt>
      <trkpt lat="62.83599" lon="7.23616">
        <ele>81.335774</ele>
        <time>2020-08-02T11:47:25.553Z</time>
      </trkpt>
      <trkpt lat="62.8361" lon="7.23618">
        <ele>81.376647</ele>
        <time>2020-08-02T11:47:28.529Z</time>
      </trkpt>
      <trkpt lat="62.83619" lon="7.23624">
        <ele>81.414804</ele>
        <time>2020-08-02T11:47:31.573Z</time>
      </trkpt>
      <trkpt lat="62.83629" lon="7.23636">
        <ele>81.460718</ele>
        <time>2020-08-02T11:47:35.578Z</time>
      </trkpt>
      <trkpt lat="62.83637" lon="7.23651">
        <ele>81.50378</ele>
        <time>2020-08-02T11:47:39.532Z</time>
      </trkpt>
      <trkpt lat="62.83648" lon="7.23661">
        <ele>81.548631</ele>
        <time>2020-08-02T11:47:43.521Z</time>
      </trkpt>
      <trkpt lat="62.83657" lon="7.23668">
        <ele>81.586395</ele>
        <time>2020-08-02T11:47:46.539Z</time>
      </trkpt>
      <trkpt lat="62.83667" lon="7.23677">
        <ele>81.630642</ele>
        <time>2020-08-02T11:47:50.527Z</time>
      </trkpt>
      <trkpt lat="62.83678" lon="7.23685">
        <ele>81.677211</ele>
        <time>2020-08-02T11:47:54.552Z</time>
      </trkpt>
      <trkpt lat="62.83688" lon="7.23692">
        <ele>81.720415</ele>
        <time>2020-08-02T11:47:58.525Z</time>
      </trkpt>
      <trkpt lat="62.83699" lon="7.23699">
        <ele>81.763126</ele>
        <time>2020-08-02T11:48:02.534Z</time>
      </trkpt>
      <trkpt lat="62.83708" lon="7.23706">
        <ele>81.80182</ele>
        <time>2020-08-02T11:48:06.558Z</time>
      </trkpt>
      <trkpt lat="62.83717" lon="7.23711">
        <ele>81.84007</ele>
        <time>2020-08-02T11:48:11.530Z</time>
      </trkpt>
      <trkpt lat="62.83728" lon="7.23712">
        <ele>81.881146</ele>
        <time>2020-08-02T11:48:17.536Z</time>
      </trkpt>
      <trkpt lat="62.83737" lon="7.23709">
        <ele>81.918706</ele>
        <time>2020-08-02T11:48:22.542Z</time>
      </trkpt>
      <trkpt lat="62.83746" lon="7.237">
        <ele>81.942675</ele>
        <time>2020-08-02T11:48:27.540Z</time>
      </trkpt>
      <trkpt lat="62.83755" lon="7.23687">
        <ele>81.955874</ele>
        <time>2020-08-02T11:48:32.543Z</time>
      </trkpt>
      <trkpt lat="62.83765" lon="7.23675">
        <ele>81.968847</ele>
        <time>2020-08-02T11:48:36.542Z</time>
      </trkpt>
      <trkpt lat="62.83774" lon="7.23673">
        <ele>81.980465</ele>
        <time>2020-08-02T11:48:39.553Z</time>
      </trkpt>
      <trkpt lat="62.83786" lon="7.23671">
        <ele>81.99376</ele>
        <time>2020-08-02T11:48:42.546Z</time>
      </trkpt>
      <trkpt lat="62.83798" lon="7.23662">
        <ele>82.008958</ele>
        <time>2020-08-02T11:48:45.511Z</time>
      </trkpt>
      <trkpt lat="62.83806" lon="7.23652">
        <ele>82.020223</ele>
        <time>2020-08-02T11:48:47.513Z</time>
      </trkpt>
      <trkpt lat="62.83814" lon="7.23638">
        <ele>82.032156</ele>
        <time>2020-08-02T11:48:50.563Z</time>
      </trkpt>
      <trkpt lat="62.83823" lon="7.2363">
        <ele>82.043665</ele>
        <time>2020-08-02T11:48:58.535Z</time>
      </trkpt>
      <trkpt lat="62.83832" lon="7.23613">
        <ele>82.057512</ele>
        <time>2020-08-02T11:49:01.538Z</time>
      </trkpt>
      <trkpt lat="62.83839" lon="7.23601">
        <ele>82.068554</ele>
        <time>2020-08-02T11:49:03.528Z</time>
      </trkpt>
      <trkpt lat="62.83847" lon="7.23587">
        <ele>82.080155</ele>
        <time>2020-08-02T11:49:05.538Z</time>
      </trkpt>
      <trkpt lat="62.83855" lon="7.23572">
        <ele>82.092396</ele>
        <time>2020-08-02T11:49:07.558Z</time>
      </trkpt>
      <trkpt lat="62.83863" lon="7.23558">
        <ele>82.104532</ele>
        <time>2020-08-02T11:49:09.541Z</time>
      </trkpt>
      <trkpt lat="62.83872" lon="7.23542">
        <ele>82.118337</ele>
        <time>2020-08-02T11:49:11.524Z</time>
      </trkpt>
      <trkpt lat="62.8388" lon="7.23526">
        <ele>82.131057</ele>
        <time>2020-08-02T11:49:13.530Z</time>
      </trkpt>
      <trkpt lat="62.83891" lon="7.23509">
        <ele>82.146539</ele>
        <time>2020-08-02T11:49:16.586Z</time>
      </trkpt>
      <trkpt lat="62.83898" lon="7.23494">
        <ele>81.885825</ele>
        <time>2020-08-02T11:49:18.552Z</time>
      </trkpt>
      <trkpt lat="62.83906" lon="7.23478">
        <ele>81.525929</ele>
        <time>2020-08-02T11:49:20.552Z</time>
      </trkpt>
      <trkpt lat="62.83913" lon="7.23461">
        <ele>81.163035</ele>
        <time>2020-08-02T11:49:22.533Z</time>
      </trkpt>
      <trkpt lat="62.83922" lon="7.23445">
        <ele>80.782799</ele>
        <time>2020-08-02T11:49:24.564Z</time>
      </trkpt>
      <trkpt lat="62.8393" lon="7.23428">
        <ele>80.404707</ele>
        <time>2020-08-02T11:49:26.561Z</time>
      </trkpt>
      <trkpt lat="62.83939" lon="7.23411">
        <ele>80.013191</ele>
        <time>2020-08-02T11:49:28.533Z</time>
      </trkpt>
      <trkpt lat="62.83948" lon="7.23394">
        <ele>79.596354</ele>
        <time>2020-08-02T11:49:30.524Z</time>
      </trkpt>
      <trkpt lat="62.83958" lon="7.23376">
        <ele>79.166092</ele>
        <time>2020-08-02T11:49:32.545Z</time>
      </trkpt>
      <trkpt lat="62.83966" lon="7.23361">
        <ele>78.797937</ele>
        <time>2020-08-02T11:49:34.539Z</time>
      </trkpt>
      <trkpt lat="62.83974" lon="7.23346">
        <ele>78.463214</ele>
        <time>2020-08-02T11:49:36.539Z</time>
      </trkpt>
      <trkpt lat="62.83982" lon="7.23332">
        <ele>78.110193</ele>
        <time>2020-08-02T11:49:38.556Z</time>
      </trkpt>
      <trkpt lat="62.83991" lon="7.23317">
        <ele>77.735605</ele>
        <time>2020-08-02T11:49:40.560Z</time>
      </trkpt>
      <trkpt lat="62.84001" lon="7.23304">
        <ele>77.340382</ele>
        <time>2020-08-02T11:49:42.524Z</time>
      </trkpt>
      <trkpt lat="62.84011" lon="7.2329">
        <ele>76.9325</ele>
        <time>2020-08-02T11:49:44.581Z</time>
      </trkpt>
      <trkpt lat="62.84022" lon="7.23276">
        <ele>76.507965</ele>
        <time>2020-08-02T11:49:46.554Z</time>
      </trkpt>
      <trkpt lat="62.84034" lon="7.23264">
        <ele>76.079378</ele>
        <time>2020-08-02T11:49:48.533Z</time>
      </trkpt>
      <trkpt lat="62.84047" lon="7.23252">
        <ele>75.714673</ele>
        <time>2020-08-02T11:49:50.525Z</time>
      </trkpt>
      <trkpt lat="62.8406" lon="7.23238">
        <ele>75.326951</ele>
        <time>2020-08-02T11:49:52.537Z</time>
      </trkpt>
      <trkpt lat="62.84075" lon="7.23223">
        <ele>74.907488</ele>
        <time>2020-08-02T11:49:54.519Z</time>
      </trkpt>
      <trkpt lat="62.8409" lon="7.23206">
        <ele>74.472637</ele>
        <time>2020-08-02T11:49:56.534Z</time>
      </trkpt>
      <trkpt lat="62.84104" lon="7.23186">
        <ele>74.023301</ele>
        <time>2020-08-02T11:49:58.544Z</time>
      </trkpt>
      <trkpt lat="62.84111" lon="7.23174">
        <ele>73.788375</ele>
        <time>2020-08-02T11:49:59.529Z</time>
      </trkpt>
      <trkpt lat="62.84124" lon="7.2315">
        <ele>73.346203</ele>
        <time>2020-08-02T11:50:01.545Z</time>
      </trkpt>
      <trkpt lat="62.84134" lon="7.23128">
        <ele>72.967659</ele>
        <time>2020-08-02T11:50:03.527Z</time>
      </trkpt>
      <trkpt lat="62.84144" lon="7.23104">
        <ele>72.599434</ele>
        <time>2020-08-02T11:50:05.538Z</time>
      </trkpt>
      <trkpt lat="62.84152" lon="7.2308">
        <ele>72.245158</ele>
        <time>2020-08-02T11:50:07.563Z</time>
      </trkpt>
      <trkpt lat="62.84158" lon="7.23055">
        <ele>71.896043</ele>
        <time>2020-08-02T11:50:09.531Z</time>
      </trkpt>
      <trkpt lat="62.84166" lon="7.23034">
        <ele>71.57243</ele>
        <time>2020-08-02T11:50:11.547Z</time>
      </trkpt>
      <trkpt lat="62.84175" lon="7.23019">
        <ele>71.465382</ele>
        <time>2020-08-02T11:50:13.538Z</time>
      </trkpt>
      <trkpt lat="62.84182" lon="7.23006">
        <ele>71.593287</ele>
        <time>2020-08-02T11:50:15.545Z</time>
      </trkpt>
      <trkpt lat="62.8419" lon="7.22993">
        <ele>71.734361</ele>
        <time>2020-08-02T11:50:18.534Z</time>
      </trkpt>
      <trkpt lat="62.84198" lon="7.22981">
        <ele>71.873931</ele>
        <time>2020-08-02T11:50:22.528Z</time>
      </trkpt>
      <trkpt lat="62.84209" lon="7.22973">
        <ele>72.026163</ele>
        <time>2020-08-02T11:50:27.520Z</time>
      </trkpt>
      <trkpt lat="62.84217" lon="7.22963">
        <ele>72.158339</ele>
        <time>2020-08-02T11:50:32.548Z</time>
      </trkpt>
      <trkpt lat="62.84225" lon="7.22952">
        <ele>72.291649</ele>
        <time>2020-08-02T11:50:37.529Z</time>
      </trkpt>
      <trkpt lat="62.84234" lon="7.22945">
        <ele>72.416335</ele>
        <time>2020-08-02T11:50:42.547Z</time>
      </trkpt>
      <trkpt lat="62.84244" lon="7.22938">
        <ele>72.567963</ele>
        <time>2020-08-02T11:50:47.557Z</time>
      </trkpt>
      <trkpt lat="62.84253" lon="7.2293">
        <ele>72.698053</ele>
        <time>2020-08-02T11:50:51.555Z</time>
      </trkpt>
      <trkpt lat="62.84263" lon="7.22923">
        <ele>72.841148</ele>
        <time>2020-08-02T11:50:55.548Z</time>
      </trkpt>
      <trkpt lat="62.84272" lon="7.22915">
        <ele>72.979474</ele>
        <time>2020-08-02T11:50:59.568Z</time>
      </trkpt>
      <trkpt lat="62.84281" lon="7.22908">
        <ele>73.110239</ele>
        <time>2020-08-02T11:51:03.539Z</time>
      </trkpt>
      <trkpt lat="62.84291" lon="7.22898">
        <ele>73.259915</ele>
        <time>2020-08-02T11:51:07.550Z</time>
      </trkpt>
      <trkpt lat="62.84301" lon="7.2289">
        <ele>73.410165</ele>
        <time>2020-08-02T11:51:11.533Z</time>
      </trkpt>
      <trkpt lat="62.84311" lon="7.2288">
        <ele>73.567199</ele>
        <time>2020-08-02T11:51:15.529Z</time>
      </trkpt>
      <trkpt lat="62.8432" lon="7.22872">
        <ele>73.700131</ele>
        <time>2020-08-02T11:51:19.554Z</time>
      </trkpt>
      <trkpt lat="62.84329" lon="7.22865">
        <ele>73.828924</ele>
        <time>2020-08-02T11:51:22.530Z</time>
      </trkpt>
      <trkpt lat="62.84338" lon="7.22856">
        <ele>73.923219</ele>
        <time>2020-08-02T11:51:25.547Z</time>
      </trkpt>
      <trkpt lat="62.84348" lon="7.22845">
        <ele>73.993624</ele>
        <time>2020-08-02T11:51:29.540Z</time>
      </trkpt>
      <trkpt lat="62.84359" lon="7.22834">
        <ele>74.06782</ele>
        <time>2020-08-02T11:51:33.541Z</time>
      </trkpt>
      <trkpt lat="62.84367" lon="7.22825">
        <ele>74.122195</ele>
        <time>2020-08-02T11:51:36.541Z</time>
      </trkpt>
      <trkpt lat="62.84375" lon="7.22817">
        <ele>74.176766</ele>
        <time>2020-08-02T11:51:39.533Z</time>
      </trkpt>
      <trkpt lat="62.84384" lon="7.22809">
        <ele>74.23157</ele>
        <time>2020-08-02T11:51:42.556Z</time>
      </trkpt>
      <trkpt lat="62.84392" lon="7.228">
        <ele>74.287704</ele>
        <time>2020-08-02T11:51:45.546Z</time>
      </trkpt>
      <trkpt lat="62.84401" lon="7.22792">
        <ele>74.346041</ele>
        <time>2020-08-02T11:51:48.538Z</time>
      </trkpt>
      <trkpt lat="62.84409" lon="7.22782">
        <ele>74.401417</ele>
        <time>2020-08-02T11:51:51.553Z</time>
      </trkpt>
      <trkpt lat="62.84417" lon="7.22772">
        <ele>74.458938</ele>
        <time>2020-08-02T11:51:54.540Z</time>
      </trkpt>
      <trkpt lat="62.84425" lon="7.22761">
        <ele>74.515974</ele>
        <time>2020-08-02T11:51:57.531Z</time>
      </trkpt>
      <trkpt lat="62.84434" lon="7.2275">
        <ele>74.576926</ele>
        <time>2020-08-02T11:52:00.528Z</time>
      </trkpt>
      <trkpt lat="62.84442" lon="7.22739">
        <ele>74.632729</ele>
        <time>2020-08-02T11:52:03.561Z</time>
      </trkpt>
      <trkpt lat="62.84453" lon="7.22729">
        <ele>74.704928</ele>
        <time>2020-08-02T11:52:06.528Z</time>
      </trkpt>
      <trkpt lat="62.84463" lon="7.22717">
        <ele>74.777328</ele>
        <time>2020-08-02T11:52:09.534Z</time>
      </trkpt>
      <trkpt lat="62.84473" lon="7.22704">
        <ele>74.848387</ele>
        <time>2020-08-02T11:52:12.555Z</time>
      </trkpt>
      <trkpt lat="62.84484" lon="7.2269">
        <ele>74.924466</ele>
        <time>2020-08-02T11:52:15.556Z</time>
      </trkpt>
      <trkpt lat="62.84496" lon="7.22675">
        <ele>74.984476</ele>
        <time>2020-08-02T11:52:18.532Z</time>
      </trkpt>
      <trkpt lat="62.84505" lon="7.22663">
        <ele>74.985404</ele>
        <time>2020-08-02T11:52:20.591Z</time>
      </trkpt>
      <trkpt lat="62.84514" lon="7.22652">
        <ele>74.986395</ele>
        <time>2020-08-02T11:52:22.530Z</time>
      </trkpt>
      <trkpt lat="62.84523" lon="7.22639">
        <ele>74.987419</ele>
        <time>2020-08-02T11:52:24.560Z</time>
      </trkpt>
      <trkpt lat="62.84533" lon="7.22626">
        <ele>74.988466</ele>
        <time>2020-08-02T11:52:26.541Z</time>
      </trkpt>
      <trkpt lat="62.84542" lon="7.22612">
        <ele>74.989503</ele>
        <time>2020-08-02T11:52:28.549Z</time>
      </trkpt>
      <trkpt lat="62.84552" lon="7.22599">
        <ele>74.990567</ele>
        <time>2020-08-02T11:52:30.533Z</time>
      </trkpt>
      <trkpt lat="62.84561" lon="7.22585">
        <ele>74.991619</ele>
        <time>2020-08-02T11:52:32.554Z</time>
      </trkpt>
      <trkpt lat="62.8457" lon="7.22571">
        <ele>74.992645</ele>
        <time>2020-08-02T11:52:34.542Z</time>
      </trkpt>
      <trkpt lat="62.84578" lon="7.22556">
        <ele>74.993614</ele>
        <time>2020-08-02T11:52:36.565Z</time>
      </trkpt>
      <trkpt lat="62.84586" lon="7.22543">
        <ele>74.994522</ele>
        <time>2020-08-02T11:52:38.533Z</time>
      </trkpt>
      <trkpt lat="62.84593" lon="7.2253">
        <ele>74.995366</ele>
        <time>2020-08-02T11:52:40.533Z</time>
      </trkpt>
      <trkpt lat="62.84602" lon="7.22511">
        <ele>74.996542</ele>
        <time>2020-08-02T11:52:43.520Z</time>
      </trkpt>
      <trkpt lat="62.84611" lon="7.22494">
        <ele>74.99766</ele>
        <time>2020-08-02T11:52:46.524Z</time>
      </trkpt>
      <trkpt lat="62.84619" lon="7.22477">
        <ele>74.998655</ele>
        <time>2020-08-02T11:52:49.544Z</time>
      </trkpt>
      <trkpt lat="62.84627" lon="7.22462">
        <ele>74.999678</ele>
        <time>2020-08-02T11:52:52.572Z</time>
      </trkpt>
      <trkpt lat="62.84635" lon="7.22448">
        <ele>75.000636</ele>
        <time>2020-08-02T11:52:55.522Z</time>
      </trkpt>
      <trkpt lat="62.84643" lon="7.22434">
        <ele>75.221427</ele>
        <time>2020-08-02T11:52:58.545Z</time>
      </trkpt>
      <trkpt lat="62.84652" lon="7.22418">
        <ele>75.55605</ele>
        <time>2020-08-02T11:53:02.526Z</time>
      </trkpt>
      <trkpt lat="62.84661" lon="7.224">
        <ele>75.893128</ele>
        <time>2020-08-02T11:53:06.529Z</time>
      </trkpt>
      <trkpt lat="62.84669" lon="7.22388">
        <ele>76.164782</ele>
        <time>2020-08-02T11:53:09.575Z</time>
      </trkpt>
      <trkpt lat="62.84677" lon="7.22372">
        <ele>76.481459</ele>
        <time>2020-08-02T11:53:13.567Z</time>
      </trkpt>
      <trkpt lat="62.84686" lon="7.22356">
        <ele>76.810377</ele>
        <time>2020-08-02T11:53:17.528Z</time>
      </trkpt>
      <trkpt lat="62.84694" lon="7.22346">
        <ele>77.065668</ele>
        <time>2020-08-02T11:53:20.547Z</time>
      </trkpt>
      <trkpt lat="62.84702" lon="7.22335">
        <ele>77.328812</ele>
        <time>2020-08-02T11:53:23.539Z</time>
      </trkpt>
      <trkpt lat="62.8471" lon="7.22322">
        <ele>77.609536</ele>
        <time>2020-08-02T11:53:26.531Z</time>
      </trkpt>
      <trkpt lat="62.8472" lon="7.22308">
        <ele>77.952751</ele>
        <time>2020-08-02T11:53:29.531Z</time>
      </trkpt>
      <trkpt lat="62.8473" lon="7.22294">
        <ele>78.277219</ele>
        <time>2020-08-02T11:53:32.555Z</time>
      </trkpt>
      <trkpt lat="62.8474" lon="7.2228">
        <ele>78.617748</ele>
        <time>2020-08-02T11:53:35.535Z</time>
      </trkpt>
      <trkpt lat="62.8475" lon="7.22266">
        <ele>78.956182</ele>
        <time>2020-08-02T11:53:38.568Z</time>
      </trkpt>
      <trkpt lat="62.8476" lon="7.2225">
        <ele>79.29774</ele>
        <time>2020-08-02T11:53:41.530Z</time>
      </trkpt>
      <trkpt lat="62.84768" lon="7.2224">
        <ele>79.57843</ele>
        <time>2020-08-02T11:53:43.524Z</time>
      </trkpt>
      <trkpt lat="62.84777" lon="7.22229">
        <ele>79.848802</ele>
        <time>2020-08-02T11:53:45.525Z</time>
      </trkpt>
      <trkpt lat="62.84784" lon="7.22219">
        <ele>80.091365</ele>
        <time>2020-08-02T11:53:47.552Z</time>
      </trkpt>
      <trkpt lat="62.84795" lon="7.22203">
        <ele>80.211217</ele>
        <time>2020-08-02T11:53:50.561Z</time>
      </trkpt>
      <trkpt lat="62.84805" lon="7.22189">
        <ele>80.322863</ele>
        <time>2020-08-02T11:53:53.528Z</time>
      </trkpt>
      <trkpt lat="62.84815" lon="7.22175">
        <ele>80.426864</ele>
        <time>2020-08-02T11:53:56.541Z</time>
      </trkpt>
      <trkpt lat="62.84823" lon="7.22163">
        <ele>80.520004</ele>
        <time>2020-08-02T11:53:59.534Z</time>
      </trkpt>
      <trkpt lat="62.84832" lon="7.22151">
        <ele>80.618642</ele>
        <time>2020-08-02T11:54:02.526Z</time>
      </trkpt>
      <trkpt lat="62.84841" lon="7.22138">
        <ele>80.716976</ele>
        <time>2020-08-02T11:54:05.531Z</time>
      </trkpt>
      <trkpt lat="62.84849" lon="7.22125">
        <ele>80.810772</ele>
        <time>2020-08-02T11:54:08.533Z</time>
      </trkpt>
      <trkpt lat="62.84858" lon="7.22113">
        <ele>80.906022</ele>
        <time>2020-08-02T11:54:11.542Z</time>
      </trkpt>
      <trkpt lat="62.84866" lon="7.22101">
        <ele>80.99444</ele>
        <time>2020-08-02T11:54:14.573Z</time>
      </trkpt>
      <trkpt lat="62.84874" lon="7.22089">
        <ele>81.09</ele>
        <time>2020-08-02T11:54:17.549Z</time>
      </trkpt>
      <trkpt lat="62.84884" lon="7.22077">
        <ele>81.191986</ele>
        <time>2020-08-02T11:54:20.557Z</time>
      </trkpt>
      <trkpt lat="62.84892" lon="7.22065">
        <ele>81.282052</ele>
        <time>2020-08-02T11:54:23.533Z</time>
      </trkpt>
      <trkpt lat="62.84901" lon="7.22053">
        <ele>81.376411</ele>
        <time>2020-08-02T11:54:26.527Z</time>
      </trkpt>
      <trkpt lat="62.84911" lon="7.2204">
        <ele>81.48977</ele>
        <time>2020-08-02T11:54:29.558Z</time>
      </trkpt>
      <trkpt lat="62.84921" lon="7.22027">
        <ele>81.592124</ele>
        <time>2020-08-02T11:54:32.527Z</time>
      </trkpt>
      <trkpt lat="62.84929" lon="7.22014">
        <ele>81.688515</ele>
        <time>2020-08-02T11:54:35.530Z</time>
      </trkpt>
      <trkpt lat="62.84939" lon="7.22">
        <ele>81.871488</ele>
        <time>2020-08-02T11:54:38.534Z</time>
      </trkpt>
      <trkpt lat="62.84947" lon="7.21988">
        <ele>82.131575</ele>
        <time>2020-08-02T11:54:41.539Z</time>
      </trkpt>
      <trkpt lat="62.84955" lon="7.21974">
        <ele>82.39562</ele>
        <time>2020-08-02T11:54:44.532Z</time>
      </trkpt>
      <trkpt lat="62.84964" lon="7.21959">
        <ele>82.682813</ele>
        <time>2020-08-02T11:54:47.575Z</time>
      </trkpt>
      <trkpt lat="62.84972" lon="7.21942">
        <ele>82.965502</ele>
        <time>2020-08-02T11:54:50.544Z</time>
      </trkpt>
      <trkpt lat="62.8498" lon="7.21925">
        <ele>83.253002</ele>
        <time>2020-08-02T11:54:53.551Z</time>
      </trkpt>
      <trkpt lat="62.84988" lon="7.21907">
        <ele>83.53799</ele>
        <time>2020-08-02T11:54:56.524Z</time>
      </trkpt>
      <trkpt lat="62.84994" lon="7.21891">
        <ele>83.800267</ele>
        <time>2020-08-02T11:54:59.529Z</time>
      </trkpt>
      <trkpt lat="62.85001" lon="7.21874">
        <ele>84.055819</ele>
        <time>2020-08-02T11:55:02.565Z</time>
      </trkpt>
      <trkpt lat="62.85007" lon="7.21857">
        <ele>84.305166</ele>
        <time>2020-08-02T11:55:05.553Z</time>
      </trkpt>
      <trkpt lat="62.85012" lon="7.21839">
        <ele>84.557554</ele>
        <time>2020-08-02T11:55:08.530Z</time>
      </trkpt>
      <trkpt lat="62.85018" lon="7.21822">
        <ele>84.800274</ele>
        <time>2020-08-02T11:55:11.531Z</time>
      </trkpt>
      <trkpt lat="62.85023" lon="7.21805">
        <ele>85.040639</ele>
        <time>2020-08-02T11:55:14.540Z</time>
      </trkpt>
      <trkpt lat="62.85028" lon="7.21786">
        <ele>85.29959</ele>
        <time>2020-08-02T11:55:17.524Z</time>
      </trkpt>
      <trkpt lat="62.85034" lon="7.21768">
        <ele>85.564597</ele>
        <time>2020-08-02T11:55:20.512Z</time>
      </trkpt>
      <trkpt lat="62.85039" lon="7.21749">
        <ele>85.820564</ele>
        <time>2020-08-02T11:55:23.531Z</time>
      </trkpt>
      <trkpt lat="62.85044" lon="7.21732">
        <ele>86.062562</ele>
        <time>2020-08-02T11:55:26.541Z</time>
      </trkpt>
      <trkpt lat="62.85049" lon="7.21714">
        <ele>86.304508</ele>
        <time>2020-08-02T11:55:29.539Z</time>
      </trkpt>
      <trkpt lat="62.85056" lon="7.21692">
        <ele>86.341089</ele>
        <time>2020-08-02T11:55:33.544Z</time>
      </trkpt>
      <trkpt lat="62.85062" lon="7.2167">
        <ele>86.306024</ele>
        <time>2020-08-02T11:55:37.522Z</time>
      </trkpt>
      <trkpt lat="62.85067" lon="7.21653">
        <ele>86.277981</ele>
        <time>2020-08-02T11:55:40.537Z</time>
      </trkpt>
      <trkpt lat="62.85073" lon="7.21632">
        <ele>86.24362</ele>
        <time>2020-08-02T11:55:44.535Z</time>
      </trkpt>
      <trkpt lat="62.85079" lon="7.21613">
        <ele>86.212749</ele>
        <time>2020-08-02T11:55:47.589Z</time>
      </trkpt>
      <trkpt lat="62.85085" lon="7.21594">
        <ele>86.178985</ele>
        <time>2020-08-02T11:55:50.527Z</time>
      </trkpt>
      <trkpt lat="62.85092" lon="7.21576">
        <ele>86.146292</ele>
        <time>2020-08-02T11:55:53.539Z</time>
      </trkpt>
      <trkpt lat="62.85099" lon="7.21556">
        <ele>86.112474</ele>
        <time>2020-08-02T11:55:56.541Z</time>
      </trkpt>
      <trkpt lat="62.85106" lon="7.21536">
        <ele>86.078254</ele>
        <time>2020-08-02T11:55:59.529Z</time>
      </trkpt>
      <trkpt lat="62.85114" lon="7.21517">
        <ele>86.043673</ele>
        <time>2020-08-02T11:56:02.530Z</time>
      </trkpt>
      <trkpt lat="62.8512" lon="7.215">
        <ele>86.012699</ele>
        <time>2020-08-02T11:56:05.534Z</time>
      </trkpt>
      <trkpt lat="62.85127" lon="7.21481">
        <ele>85.980006</ele>
        <time>2020-08-02T11:56:08.536Z</time>
      </trkpt>
      <trkpt lat="62.85133" lon="7.21466">
        <ele>85.952435</ele>
        <time>2020-08-02T11:56:10.543Z</time>
      </trkpt>
      <trkpt lat="62.8514" lon="7.21446">
        <ele>85.9187</ele>
        <time>2020-08-02T11:56:12.534Z</time>
      </trkpt>
      <trkpt lat="62.85147" lon="7.21424">
        <ele>85.881201</ele>
        <time>2020-08-02T11:56:14.561Z</time>
      </trkpt>
      <trkpt lat="62.85154" lon="7.21401">
        <ele>85.843628</ele>
        <time>2020-08-02T11:56:16.532Z</time>
      </trkpt>
      <trkpt lat="62.85161" lon="7.21378">
        <ele>85.649947</ele>
        <time>2020-08-02T11:56:18.532Z</time>
      </trkpt>
      <trkpt lat="62.85169" lon="7.21353">
        <ele>85.334033</ele>
        <time>2020-08-02T11:56:20.526Z</time>
      </trkpt>
      <trkpt lat="62.85177" lon="7.21327">
        <ele>85.015332</ele>
        <time>2020-08-02T11:56:22.522Z</time>
      </trkpt>
      <trkpt lat="62.85186" lon="7.21301">
        <ele>84.684716</ele>
        <time>2020-08-02T11:56:24.564Z</time>
      </trkpt>
      <trkpt lat="62.85195" lon="7.21273">
        <ele>84.331041</ele>
        <time>2020-08-02T11:56:26.552Z</time>
      </trkpt>
      <trkpt lat="62.85205" lon="7.21246">
        <ele>83.97412</ele>
        <time>2020-08-02T11:56:28.548Z</time>
      </trkpt>
      <trkpt lat="62.85212" lon="7.21216">
        <ele>83.616228</ele>
        <time>2020-08-02T11:56:30.531Z</time>
      </trkpt>
      <trkpt lat="62.85218" lon="7.21184">
        <ele>83.26184</ele>
        <time>2020-08-02T11:56:32.548Z</time>
      </trkpt>
      <trkpt lat="62.85225" lon="7.21154">
        <ele>82.919526</ele>
        <time>2020-08-02T11:56:34.582Z</time>
      </trkpt>
      <trkpt lat="62.85232" lon="7.21127">
        <ele>82.600126</ele>
        <time>2020-08-02T11:56:36.564Z</time>
      </trkpt>
      <trkpt lat="62.85239" lon="7.21102">
        <ele>82.303799</ele>
        <time>2020-08-02T11:56:38.524Z</time>
      </trkpt>
      <trkpt lat="62.85244" lon="7.21078">
        <ele>82.023527</ele>
        <time>2020-08-02T11:56:40.531Z</time>
      </trkpt>
      <trkpt lat="62.8525" lon="7.21055">
        <ele>81.746914</ele>
        <time>2020-08-02T11:56:42.534Z</time>
      </trkpt>
      <trkpt lat="62.85254" lon="7.21033">
        <ele>81.257894</ele>
        <time>2020-08-02T11:56:44.541Z</time>
      </trkpt>
      <trkpt lat="62.85259" lon="7.21012">
        <ele>80.805047</ele>
        <time>2020-08-02T11:56:46.540Z</time>
      </trkpt>
      <trkpt lat="62.85263" lon="7.20992">
        <ele>80.354132</ele>
        <time>2020-08-02T11:56:48.532Z</time>
      </trkpt>
      <trkpt lat="62.85268" lon="7.20972">
        <ele>79.899496</ele>
        <time>2020-08-02T11:56:50.531Z</time>
      </trkpt>
      <trkpt lat="62.85272" lon="7.20951">
        <ele>79.439622</ele>
        <time>2020-08-02T11:56:52.557Z</time>
      </trkpt>
      <trkpt lat="62.85277" lon="7.20929">
        <ele>78.96521</ele>
        <time>2020-08-02T11:56:54.537Z</time>
      </trkpt>
      <trkpt lat="62.85282" lon="7.20907">
        <ele>78.46505</ele>
        <time>2020-08-02T11:56:56.551Z</time>
      </trkpt>
      <trkpt lat="62.85287" lon="7.20883">
        <ele>77.943376</ele>
        <time>2020-08-02T11:56:58.548Z</time>
      </trkpt>
      <trkpt lat="62.85292" lon="7.20858">
        <ele>77.390688</ele>
        <time>2020-08-02T11:57:00.539Z</time>
      </trkpt>
      <trkpt lat="62.85298" lon="7.20831">
        <ele>76.799949</ele>
        <time>2020-08-02T11:57:02.560Z</time>
      </trkpt>
      <trkpt lat="62.85303" lon="7.20801">
        <ele>76.158256</ele>
        <time>2020-08-02T11:57:04.535Z</time>
      </trkpt>
      <trkpt lat="62.8531" lon="7.20769">
        <ele>75.452932</ele>
        <time>2020-08-02T11:57:06.534Z</time>
      </trkpt>
      <trkpt lat="62.85318" lon="7.20737">
        <ele>74.727522</ele>
        <time>2020-08-02T11:57:08.540Z</time>
      </trkpt>
      <trkpt lat="62.85325" lon="7.20701">
        <ele>73.951351</ele>
        <time>2020-08-02T11:57:10.537Z</time>
      </trkpt>
      <trkpt lat="62.85328" lon="7.20682">
        <ele>73.611047</ele>
        <time>2020-08-02T11:57:11.524Z</time>
      </trkpt>
      <trkpt lat="62.85332" lon="7.20662">
        <ele>73.272571</ele>
        <time>2020-08-02T11:57:12.527Z</time>
      </trkpt>
      <trkpt lat="62.85335" lon="7.20643">
        <ele>72.934249</ele>
        <time>2020-08-02T11:57:13.534Z</time>
      </trkpt>
      <trkpt lat="62.85339" lon="7.20623">
        <ele>72.597406</ele>
        <time>2020-08-02T11:57:14.569Z</time>
      </trkpt>
      <trkpt lat="62.85343" lon="7.20604">
        <ele>72.257793</ele>
        <time>2020-08-02T11:57:15.550Z</time>
      </trkpt>
      <trkpt lat="62.85347" lon="7.20585">
        <ele>71.92546</ele>
        <time>2020-08-02T11:57:16.551Z</time>
      </trkpt>
      <trkpt lat="62.8535" lon="7.20566">
        <ele>71.595883</ele>
        <time>2020-08-02T11:57:17.565Z</time>
      </trkpt>
      <trkpt lat="62.85354" lon="7.20548">
        <ele>71.275163</ele>
        <time>2020-08-02T11:57:18.529Z</time>
      </trkpt>
      <trkpt lat="62.85361" lon="7.20512">
        <ele>70.657197</ele>
        <time>2020-08-02T11:57:20.534Z</time>
      </trkpt>
      <trkpt lat="62.85369" lon="7.2048">
        <ele>70.068028</ele>
        <time>2020-08-02T11:57:22.544Z</time>
      </trkpt>
      <trkpt lat="62.85375" lon="7.20449">
        <ele>69.534596</ele>
        <time>2020-08-02T11:57:24.528Z</time>
      </trkpt>
      <trkpt lat="62.85379" lon="7.20421">
        <ele>69.058456</ele>
        <time>2020-08-02T11:57:26.557Z</time>
      </trkpt>
      <trkpt lat="62.85382" lon="7.20395">
        <ele>68.635044</ele>
        <time>2020-08-02T11:57:28.539Z</time>
      </trkpt>
      <trkpt lat="62.85386" lon="7.20372">
        <ele>68.248161</ele>
        <time>2020-08-02T11:57:30.554Z</time>
      </trkpt>
      <trkpt lat="62.8539" lon="7.20351">
        <ele>67.875036</ele>
        <time>2020-08-02T11:57:32.541Z</time>
      </trkpt>
      <trkpt lat="62.85394" lon="7.2033">
        <ele>67.608584</ele>
        <time>2020-08-02T11:57:34.533Z</time>
      </trkpt>
      <trkpt lat="62.85399" lon="7.20309">
        <ele>67.760192</ele>
        <time>2020-08-02T11:57:36.569Z</time>
      </trkpt>
      <trkpt lat="62.85403" lon="7.20291">
        <ele>67.892092</ele>
        <time>2020-08-02T11:57:38.531Z</time>
      </trkpt>
      <trkpt lat="62.85408" lon="7.20266">
        <ele>68.073576</ele>
        <time>2020-08-02T11:57:41.532Z</time>
      </trkpt>
      <trkpt lat="62.85412" lon="7.20241">
        <ele>68.248961</ele>
        <time>2020-08-02T11:57:44.562Z</time>
      </trkpt>
      <trkpt lat="62.85417" lon="7.20218">
        <ele>68.411414</ele>
        <time>2020-08-02T11:57:47.527Z</time>
      </trkpt>
      <trkpt lat="62.85422" lon="7.20196">
        <ele>68.577032</ele>
        <time>2020-08-02T11:57:50.528Z</time>
      </trkpt>
      <trkpt lat="62.85427" lon="7.20175">
        <ele>68.73235</ele>
        <time>2020-08-02T11:57:53.537Z</time>
      </trkpt>
      <trkpt lat="62.85432" lon="7.20151">
        <ele>68.903097</ele>
        <time>2020-08-02T11:57:56.532Z</time>
      </trkpt>
      <trkpt lat="62.85437" lon="7.20126">
        <ele>69.085173</ele>
        <time>2020-08-02T11:57:59.528Z</time>
      </trkpt>
      <trkpt lat="62.85442" lon="7.20107">
        <ele>69.227778</ele>
        <time>2020-08-02T11:58:01.521Z</time>
      </trkpt>
      <trkpt lat="62.85447" lon="7.20084">
        <ele>69.392503</ele>
        <time>2020-08-02T11:58:03.550Z</time>
      </trkpt>
      <trkpt lat="62.85452" lon="7.20061">
        <ele>69.560367</ele>
        <time>2020-08-02T11:58:05.539Z</time>
      </trkpt>
      <trkpt lat="62.85458" lon="7.2004">
        <ele>69.722518</ele>
        <time>2020-08-02T11:58:07.544Z</time>
      </trkpt>
      <trkpt lat="62.85463" lon="7.20018">
        <ele>69.883218</ele>
        <time>2020-08-02T11:58:09.537Z</time>
      </trkpt>
      <trkpt lat="62.85468" lon="7.19998">
        <ele>70.035037</ele>
        <time>2020-08-02T11:58:11.545Z</time>
      </trkpt>
      <trkpt lat="62.85473" lon="7.19979">
        <ele>70.171889</ele>
        <time>2020-08-02T11:58:13.524Z</time>
      </trkpt>
      <trkpt lat="62.85477" lon="7.1996">
        <ele>70.244543</ele>
        <time>2020-08-02T11:58:15.535Z</time>
      </trkpt>
      <trkpt lat="62.85481" lon="7.19941">
        <ele>70.314707</ele>
        <time>2020-08-02T11:58:17.551Z</time>
      </trkpt>
      <trkpt lat="62.85487" lon="7.19916">
        <ele>70.412354</ele>
        <time>2020-08-02T11:58:20.562Z</time>
      </trkpt>
      <trkpt lat="62.85492" lon="7.19892">
        <ele>70.503888</ele>
        <time>2020-08-02T11:58:23.569Z</time>
      </trkpt>
      <trkpt lat="62.85497" lon="7.19869">
        <ele>70.592269</ele>
        <time>2020-08-02T11:58:26.557Z</time>
      </trkpt>
      <trkpt lat="62.85502" lon="7.19845">
        <ele>70.682213</ele>
        <time>2020-08-02T11:58:29.562Z</time>
      </trkpt>
      <trkpt lat="62.85507" lon="7.19823">
        <ele>70.768693</ele>
        <time>2020-08-02T11:58:32.545Z</time>
      </trkpt>
      <trkpt lat="62.85513" lon="7.198">
        <ele>70.860577</ele>
        <time>2020-08-02T11:58:35.544Z</time>
      </trkpt>
      <trkpt lat="62.85518" lon="7.19777">
        <ele>70.948319</ele>
        <time>2020-08-02T11:58:38.514Z</time>
      </trkpt>
      <trkpt lat="62.85523" lon="7.19753">
        <ele>71.038653</ele>
        <time>2020-08-02T11:58:41.521Z</time>
      </trkpt>
      <trkpt lat="62.85527" lon="7.1973">
        <ele>71.125821</ele>
        <time>2020-08-02T11:58:44.544Z</time>
      </trkpt>
      <trkpt lat="62.85532" lon="7.19705">
        <ele>71.218721</ele>
        <time>2020-08-02T11:58:47.534Z</time>
      </trkpt>
      <trkpt lat="62.85536" lon="7.19678">
        <ele>71.317436</ele>
        <time>2020-08-02T11:58:50.525Z</time>
      </trkpt>
      <trkpt lat="62.85541" lon="7.19651">
        <ele>71.416867</ele>
        <time>2020-08-02T11:58:53.582Z</time>
      </trkpt>
      <trkpt lat="62.85544" lon="7.19625">
        <ele>71.509834</ele>
        <time>2020-08-02T11:58:56.540Z</time>
      </trkpt>
      <trkpt lat="62.85548" lon="7.196">
        <ele>71.612423</ele>
        <time>2020-08-02T11:58:59.541Z</time>
      </trkpt>
      <trkpt lat="62.85551" lon="7.19574">
        <ele>71.718216</ele>
        <time>2020-08-02T11:59:02.541Z</time>
      </trkpt>
      <trkpt lat="62.85554" lon="7.1955">
        <ele>71.818488</ele>
        <time>2020-08-02T11:59:05.566Z</time>
      </trkpt>
      <trkpt lat="62.85557" lon="7.19525">
        <ele>71.919776</ele>
        <time>2020-08-02T11:59:08.543Z</time>
      </trkpt>
      <trkpt lat="62.85559" lon="7.19499">
        <ele>72.025132</ele>
        <time>2020-08-02T11:59:11.571Z</time>
      </trkpt>
      <trkpt lat="62.85561" lon="7.19473">
        <ele>72.131389</ele>
        <time>2020-08-02T11:59:14.528Z</time>
      </trkpt>
      <trkpt lat="62.85564" lon="7.19444">
        <ele>72.248789</ele>
        <time>2020-08-02T11:59:17.533Z</time>
      </trkpt>
      <trkpt lat="62.85567" lon="7.19416">
        <ele>72.363643</ele>
        <time>2020-08-02T11:59:20.554Z</time>
      </trkpt>
      <trkpt lat="62.85569" lon="7.19388">
        <ele>72.477415</ele>
        <time>2020-08-02T11:59:23.531Z</time>
      </trkpt>
      <trkpt lat="62.85572" lon="7.1936">
        <ele>72.592087</ele>
        <time>2020-08-02T11:59:26.572Z</time>
      </trkpt>
      <trkpt lat="62.85574" lon="7.19332">
        <ele>72.70202</ele>
        <time>2020-08-02T11:59:29.551Z</time>
      </trkpt>
      <trkpt lat="62.85575" lon="7.19307">
        <ele>72.803738</ele>
        <time>2020-08-02T11:59:32.561Z</time>
      </trkpt>
      <trkpt lat="62.85576" lon="7.19281">
        <ele>72.908225</ele>
        <time>2020-08-02T11:59:35.531Z</time>
      </trkpt>
      <trkpt lat="62.85577" lon="7.19255">
        <ele>73.011667</ele>
        <time>2020-08-02T11:59:38.530Z</time>
      </trkpt>
      <trkpt lat="62.85577" lon="7.19229">
        <ele>73.101606</ele>
        <time>2020-08-02T11:59:41.547Z</time>
      </trkpt>
      <trkpt lat="62.85578" lon="7.19203">
        <ele>73.131014</ele>
        <time>2020-08-02T11:59:44.544Z</time>
      </trkpt>
      <trkpt lat="62.85579" lon="7.19179">
        <ele>73.159369</ele>
        <time>2020-08-02T11:59:47.554Z</time>
      </trkpt>
      <trkpt lat="62.85579" lon="7.19157">
        <ele>73.184043</ele>
        <time>2020-08-02T11:59:50.531Z</time>
      </trkpt>
      <trkpt lat="62.85579" lon="7.19138">
        <ele>73.207126</ele>
        <time>2020-08-02T11:59:53.570Z</time>
      </trkpt>
      <trkpt lat="62.85579" lon="7.19112">
        <ele>73.236773</ele>
        <time>2020-08-02T11:59:57.551Z</time>
      </trkpt>
      <trkpt lat="62.85579" lon="7.19089">
        <ele>73.263278</ele>
        <time>2020-08-02T12:00:01.534Z</time>
      </trkpt>
      <trkpt lat="62.85578" lon="7.19064">
        <ele>73.292138</ele>
        <time>2020-08-02T12:00:05.546Z</time>
      </trkpt>
      <trkpt lat="62.85577" lon="7.19043">
        <ele>73.317198</ele>
        <time>2020-08-02T12:00:08.548Z</time>
      </trkpt>
      <trkpt lat="62.85575" lon="7.19021">
        <ele>73.34264</ele>
        <time>2020-08-02T12:00:11.563Z</time>
      </trkpt>
      <trkpt lat="62.85573" lon="7.18999">
        <ele>73.368881</ele>
        <time>2020-08-02T12:00:14.564Z</time>
      </trkpt>
      <trkpt lat="62.85571" lon="7.18976">
        <ele>73.395963</ele>
        <time>2020-08-02T12:00:17.563Z</time>
      </trkpt>
      <trkpt lat="62.8557" lon="7.18953">
        <ele>73.422129</ele>
        <time>2020-08-02T12:00:20.540Z</time>
      </trkpt>
      <trkpt lat="62.8557" lon="7.18928">
        <ele>73.45167</ele>
        <time>2020-08-02T12:00:23.534Z</time>
      </trkpt>
      <trkpt lat="62.85568" lon="7.18901">
        <ele>73.482909</ele>
        <time>2020-08-02T12:00:26.561Z</time>
      </trkpt>
      <trkpt lat="62.85566" lon="7.18876">
        <ele>73.5129</ele>
        <time>2020-08-02T12:00:29.546Z</time>
      </trkpt>
      <trkpt lat="62.85564" lon="7.18851">
        <ele>73.541661</ele>
        <time>2020-08-02T12:00:32.613Z</time>
      </trkpt>
      <trkpt lat="62.85563" lon="7.18826">
        <ele>73.554685</ele>
        <time>2020-08-02T12:00:35.536Z</time>
      </trkpt>
      <trkpt lat="62.85561" lon="7.188">
        <ele>73.559281</ele>
        <time>2020-08-02T12:00:38.551Z</time>
      </trkpt>
      <trkpt lat="62.8556" lon="7.18773">
        <ele>73.564098</ele>
        <time>2020-08-02T12:00:41.542Z</time>
      </trkpt>
      <trkpt lat="62.85558" lon="7.18747">
        <ele>73.568886</ele>
        <time>2020-08-02T12:00:44.544Z</time>
      </trkpt>
      <trkpt lat="62.85556" lon="7.18719">
        <ele>73.573866</ele>
        <time>2020-08-02T12:00:47.543Z</time>
      </trkpt>
      <trkpt lat="62.85555" lon="7.18693">
        <ele>73.578565</ele>
        <time>2020-08-02T12:00:50.523Z</time>
      </trkpt>
      <trkpt lat="62.85553" lon="7.18669">
        <ele>73.582853</ele>
        <time>2020-08-02T12:00:53.550Z</time>
      </trkpt>
      <trkpt lat="62.85551" lon="7.18646">
        <ele>73.586995</ele>
        <time>2020-08-02T12:00:56.534Z</time>
      </trkpt>
      <trkpt lat="62.85549" lon="7.18623">
        <ele>73.591066</ele>
        <time>2020-08-02T12:00:59.537Z</time>
      </trkpt>
      <trkpt lat="62.85548" lon="7.18601">
        <ele>73.595085</ele>
        <time>2020-08-02T12:01:02.566Z</time>
      </trkpt>
      <trkpt lat="62.85546" lon="7.18578">
        <ele>73.599187</ele>
        <time>2020-08-02T12:01:05.568Z</time>
      </trkpt>
      <trkpt lat="62.85544" lon="7.18556">
        <ele>73.603106</ele>
        <time>2020-08-02T12:01:08.537Z</time>
      </trkpt>
      <trkpt lat="62.85543" lon="7.18534">
        <ele>73.607118</ele>
        <time>2020-08-02T12:01:11.534Z</time>
      </trkpt>
      <trkpt lat="62.85541" lon="7.18512">
        <ele>73.611102</ele>
        <time>2020-08-02T12:01:14.528Z</time>
      </trkpt>
      <trkpt lat="62.8554" lon="7.1849">
        <ele>73.615036</ele>
        <time>2020-08-02T12:01:17.572Z</time>
      </trkpt>
      <trkpt lat="62.85539" lon="7.18467">
        <ele>73.619072</ele>
        <time>2020-08-02T12:01:20.542Z</time>
      </trkpt>
      <trkpt lat="62.85538" lon="7.18446">
        <ele>73.711213</ele>
        <time>2020-08-02T12:01:23.533Z</time>
      </trkpt>
      <trkpt lat="62.85537" lon="7.18425">
        <ele>73.994996</ele>
        <time>2020-08-02T12:01:26.535Z</time>
      </trkpt>
      <trkpt lat="62.85535" lon="7.18406">
        <ele>74.268388</ele>
        <time>2020-08-02T12:01:29.536Z</time>
      </trkpt>
      <trkpt lat="62.85533" lon="7.18386">
        <ele>74.540977</ele>
        <time>2020-08-02T12:01:32.533Z</time>
      </trkpt>
      <trkpt lat="62.85531" lon="7.18365">
        <ele>74.837906</ele>
        <time>2020-08-02T12:01:35.546Z</time>
      </trkpt>
      <trkpt lat="62.85528" lon="7.18342">
        <ele>75.166556</ele>
        <time>2020-08-02T12:01:38.552Z</time>
      </trkpt>
      <trkpt lat="62.85527" lon="7.18318">
        <ele>75.493968</ele>
        <time>2020-08-02T12:01:41.549Z</time>
      </trkpt>
      <trkpt lat="62.85526" lon="7.18297">
        <ele>75.790415</ele>
        <time>2020-08-02T12:01:44.524Z</time>
      </trkpt>
      <trkpt lat="62.85526" lon="7.18276">
        <ele>76.081565</ele>
        <time>2020-08-02T12:01:47.564Z</time>
      </trkpt>
      <trkpt lat="62.85525" lon="7.18255">
        <ele>76.368675</ele>
        <time>2020-08-02T12:01:50.530Z</time>
      </trkpt>
      <trkpt lat="62.85524" lon="7.18235">
        <ele>76.648829</ele>
        <time>2020-08-02T12:01:53.538Z</time>
      </trkpt>
      <trkpt lat="62.85521" lon="7.18209">
        <ele>77.01697</ele>
        <time>2020-08-02T12:01:57.525Z</time>
      </trkpt>
      <trkpt lat="62.85519" lon="7.18186">
        <ele>77.334181</ele>
        <time>2020-08-02T12:02:00.525Z</time>
      </trkpt>
      <trkpt lat="62.85518" lon="7.18163">
        <ele>77.653243</ele>
        <time>2020-08-02T12:02:03.549Z</time>
      </trkpt>
      <trkpt lat="62.85515" lon="7.18142">
        <ele>77.949772</ele>
        <time>2020-08-02T12:02:06.549Z</time>
      </trkpt>
      <trkpt lat="62.85514" lon="7.18119">
        <ele>78.270146</ele>
        <time>2020-08-02T12:02:10.540Z</time>
      </trkpt>
      <trkpt lat="62.85513" lon="7.18097">
        <ele>78.564475</ele>
        <time>2020-08-02T12:02:14.537Z</time>
      </trkpt>
      <trkpt lat="62.85511" lon="7.18078">
        <ele>78.840946</ele>
        <time>2020-08-02T12:02:18.554Z</time>
      </trkpt>
      <trkpt lat="62.85509" lon="7.18055">
        <ele>79.111957</ele>
        <time>2020-08-02T12:02:23.581Z</time>
      </trkpt>
      <trkpt lat="62.85507" lon="7.18031">
        <ele>79.32888</ele>
        <time>2020-08-02T12:02:28.583Z</time>
      </trkpt>
      <trkpt lat="62.85505" lon="7.18012">
        <ele>79.503962</ele>
        <time>2020-08-02T12:02:32.528Z</time>
      </trkpt>
      <trkpt lat="62.85504" lon="7.1799">
        <ele>79.697999</ele>
        <time>2020-08-02T12:02:36.572Z</time>
      </trkpt>
      <trkpt lat="62.85502" lon="7.17968">
        <ele>79.900339</ele>
        <time>2020-08-02T12:02:40.536Z</time>
      </trkpt>
      <trkpt lat="62.855" lon="7.17945">
        <ele>80.110544</ele>
        <time>2020-08-02T12:02:44.543Z</time>
      </trkpt>
      <trkpt lat="62.85498" lon="7.17921">
        <ele>80.321099</ele>
        <time>2020-08-02T12:02:48.542Z</time>
      </trkpt>
      <trkpt lat="62.85495" lon="7.17899">
        <ele>80.528575</ele>
        <time>2020-08-02T12:02:52.530Z</time>
      </trkpt>
      <trkpt lat="62.85493" lon="7.17876">
        <ele>80.739013</ele>
        <time>2020-08-02T12:02:56.563Z</time>
      </trkpt>
      <trkpt lat="62.8549" lon="7.17853">
        <ele>80.950298</ele>
        <time>2020-08-02T12:03:00.526Z</time>
      </trkpt>
      <trkpt lat="62.85487" lon="7.1783">
        <ele>81.15933</ele>
        <time>2020-08-02T12:03:04.542Z</time>
      </trkpt>
      <trkpt lat="62.85484" lon="7.17807">
        <ele>81.375728</ele>
        <time>2020-08-02T12:03:08.529Z</time>
      </trkpt>
      <trkpt lat="62.85481" lon="7.17784">
        <ele>81.588853</ele>
        <time>2020-08-02T12:03:12.569Z</time>
      </trkpt>
      <trkpt lat="62.85479" lon="7.17761">
        <ele>81.792272</ele>
        <time>2020-08-02T12:03:16.522Z</time>
      </trkpt>
      <trkpt lat="62.85476" lon="7.17741">
        <ele>81.977504</ele>
        <time>2020-08-02T12:03:20.523Z</time>
      </trkpt>
      <trkpt lat="62.85476" lon="7.17719">
        <ele>82.176904</ele>
        <time>2020-08-02T12:03:24.552Z</time>
      </trkpt>
      <trkpt lat="62.85472" lon="7.17697">
        <ele>82.378632</ele>
        <time>2020-08-02T12:03:28.554Z</time>
      </trkpt>
      <trkpt lat="62.85469" lon="7.17677">
        <ele>82.583317</ele>
        <time>2020-08-02T12:03:32.528Z</time>
      </trkpt>
      <trkpt lat="62.85465" lon="7.17655">
        <ele>82.836795</ele>
        <time>2020-08-02T12:03:36.529Z</time>
      </trkpt>
      <trkpt lat="62.85462" lon="7.1763">
        <ele>83.112694</ele>
        <time>2020-08-02T12:03:40.553Z</time>
      </trkpt>
      <trkpt lat="62.85459" lon="7.17611">
        <ele>83.325428</ele>
        <time>2020-08-02T12:03:43.541Z</time>
      </trkpt>
      <trkpt lat="62.85455" lon="7.17588">
        <ele>83.596779</ele>
        <time>2020-08-02T12:03:47.527Z</time>
      </trkpt>
      <trkpt lat="62.85452" lon="7.17564">
        <ele>83.867422</ele>
        <time>2020-08-02T12:03:51.583Z</time>
      </trkpt>
      <trkpt lat="62.85449" lon="7.17544">
        <ele>84.087092</ele>
        <time>2020-08-02T12:03:54.538Z</time>
      </trkpt>
      <trkpt lat="62.85446" lon="7.1752">
        <ele>84.359088</ele>
        <time>2020-08-02T12:03:58.554Z</time>
      </trkpt>
      <trkpt lat="62.85444" lon="7.17501">
        <ele>84.573689</ele>
        <time>2020-08-02T12:04:01.592Z</time>
      </trkpt>
      <trkpt lat="62.85441" lon="7.17482">
        <ele>84.786962</ele>
        <time>2020-08-02T12:04:04.530Z</time>
      </trkpt>
      <trkpt lat="62.85437" lon="7.17459">
        <ele>85.059965</ele>
        <time>2020-08-02T12:04:08.542Z</time>
      </trkpt>
      <trkpt lat="62.85432" lon="7.17435">
        <ele>85.337481</ele>
        <time>2020-08-02T12:04:12.547Z</time>
      </trkpt>
      <trkpt lat="62.85431" lon="7.17415">
        <ele>85.552104</ele>
        <time>2020-08-02T12:04:15.524Z</time>
      </trkpt>
      <trkpt lat="62.8543" lon="7.17394">
        <ele>85.781438</ele>
        <time>2020-08-02T12:04:18.529Z</time>
      </trkpt>
      <trkpt lat="62.85428" lon="7.17373">
        <ele>86.013014</ele>
        <time>2020-08-02T12:04:21.535Z</time>
      </trkpt>
      <trkpt lat="62.85425" lon="7.17352">
        <ele>86.250064</ele>
        <time>2020-08-02T12:04:24.540Z</time>
      </trkpt>
      <trkpt lat="62.85422" lon="7.17331">
        <ele>86.488991</ele>
        <time>2020-08-02T12:04:27.527Z</time>
      </trkpt>
      <trkpt lat="62.85419" lon="7.17309">
        <ele>86.737818</ele>
        <time>2020-08-02T12:04:30.530Z</time>
      </trkpt>
      <trkpt lat="62.85417" lon="7.17285">
        <ele>86.848014</ele>
        <time>2020-08-02T12:04:33.572Z</time>
      </trkpt>
      <trkpt lat="62.85415" lon="7.17261">
        <ele>86.913179</ele>
        <time>2020-08-02T12:04:36.566Z</time>
      </trkpt>
      <trkpt lat="62.85413" lon="7.17237">
        <ele>86.97999</ele>
        <time>2020-08-02T12:04:39.552Z</time>
      </trkpt>
      <trkpt lat="62.8541" lon="7.17211">
        <ele>87.048633</ele>
        <time>2020-08-02T12:04:42.533Z</time>
      </trkpt>
      <trkpt lat="62.85408" lon="7.17186">
        <ele>87.117514</ele>
        <time>2020-08-02T12:04:45.585Z</time>
      </trkpt>
      <trkpt lat="62.85405" lon="7.1716">
        <ele>87.189154</ele>
        <time>2020-08-02T12:04:48.569Z</time>
      </trkpt>
      <trkpt lat="62.85404" lon="7.17133">
        <ele>87.261539</ele>
        <time>2020-08-02T12:04:51.546Z</time>
      </trkpt>
      <trkpt lat="62.85401" lon="7.17108">
        <ele>87.330557</ele>
        <time>2020-08-02T12:04:54.543Z</time>
      </trkpt>
      <trkpt lat="62.854" lon="7.17083">
        <ele>87.396358</ele>
        <time>2020-08-02T12:04:57.540Z</time>
      </trkpt>
      <trkpt lat="62.85401" lon="7.17058">
        <ele>87.463144</ele>
        <time>2020-08-02T12:05:00.543Z</time>
      </trkpt>
      <trkpt lat="62.85401" lon="7.17032">
        <ele>87.535005</ele>
        <time>2020-08-02T12:05:03.605Z</time>
      </trkpt>
      <trkpt lat="62.85402" lon="7.17007">
        <ele>87.601682</ele>
        <time>2020-08-02T12:05:06.536Z</time>
      </trkpt>
      <trkpt lat="62.85403" lon="7.1698">
        <ele>87.674218</ele>
        <time>2020-08-02T12:05:09.530Z</time>
      </trkpt>
      <trkpt lat="62.85405" lon="7.16953">
        <ele>87.746412</ele>
        <time>2020-08-02T12:05:12.534Z</time>
      </trkpt>
      <trkpt lat="62.85406" lon="7.16926">
        <ele>87.817868</ele>
        <time>2020-08-02T12:05:15.540Z</time>
      </trkpt>
      <trkpt lat="62.85406" lon="7.16901">
        <ele>87.809362</ele>
        <time>2020-08-02T12:05:18.544Z</time>
      </trkpt>
      <trkpt lat="62.85406" lon="7.16874">
        <ele>87.725344</ele>
        <time>2020-08-02T12:05:21.546Z</time>
      </trkpt>
      <trkpt lat="62.85406" lon="7.16847">
        <ele>87.640078</ele>
        <time>2020-08-02T12:05:24.529Z</time>
      </trkpt>
      <trkpt lat="62.85406" lon="7.16819">
        <ele>87.551937</ele>
        <time>2020-08-02T12:05:27.529Z</time>
      </trkpt>
      <trkpt lat="62.85406" lon="7.16793">
        <ele>87.470444</ele>
        <time>2020-08-02T12:05:30.557Z</time>
      </trkpt>
      <trkpt lat="62.85407" lon="7.1677">
        <ele>87.397397</ele>
        <time>2020-08-02T12:05:33.565Z</time>
      </trkpt>
      <trkpt lat="62.85406" lon="7.16744">
        <ele>87.315867</ele>
        <time>2020-08-02T12:05:36.561Z</time>
      </trkpt>
      <trkpt lat="62.85404" lon="7.16716">
        <ele>87.228384</ele>
        <time>2020-08-02T12:05:39.552Z</time>
      </trkpt>
      <trkpt lat="62.85403" lon="7.16689">
        <ele>87.141693</ele>
        <time>2020-08-02T12:05:42.541Z</time>
      </trkpt>
      <trkpt lat="62.854" lon="7.16663">
        <ele>87.05595</ele>
        <time>2020-08-02T12:05:45.572Z</time>
      </trkpt>
      <trkpt lat="62.85398" lon="7.16636">
        <ele>86.971323</ele>
        <time>2020-08-02T12:05:48.540Z</time>
      </trkpt>
      <trkpt lat="62.85396" lon="7.16611">
        <ele>86.893011</ele>
        <time>2020-08-02T12:05:51.541Z</time>
      </trkpt>
      <trkpt lat="62.85394" lon="7.16587">
        <ele>86.81606</ele>
        <time>2020-08-02T12:05:54.544Z</time>
      </trkpt>
      <trkpt lat="62.85393" lon="7.16564">
        <ele>86.740039</ele>
        <time>2020-08-02T12:05:57.545Z</time>
      </trkpt>
      <trkpt lat="62.85392" lon="7.16539">
        <ele>86.663899</ele>
        <time>2020-08-02T12:06:02.530Z</time>
      </trkpt>
      <trkpt lat="62.85392" lon="7.16515">
        <ele>86.654923</ele>
        <time>2020-08-02T12:06:06.551Z</time>
      </trkpt>
      <trkpt lat="62.85391" lon="7.16493">
        <ele>86.795905</ele>
        <time>2020-08-02T12:06:09.528Z</time>
      </trkpt>
      <trkpt lat="62.85389" lon="7.16471">
        <ele>86.931237</ele>
        <time>2020-08-02T12:06:12.541Z</time>
      </trkpt>
      <trkpt lat="62.85388" lon="7.1645">
        <ele>87.058571</ele>
        <time>2020-08-02T12:06:15.552Z</time>
      </trkpt>
      <trkpt lat="62.85387" lon="7.16429">
        <ele>87.190548</ele>
        <time>2020-08-02T12:06:18.560Z</time>
      </trkpt>
      <trkpt lat="62.85387" lon="7.16408">
        <ele>87.321719</ele>
        <time>2020-08-02T12:06:21.604Z</time>
      </trkpt>
      <trkpt lat="62.85387" lon="7.16386">
        <ele>87.451474</ele>
        <time>2020-08-02T12:06:24.544Z</time>
      </trkpt>
      <trkpt lat="62.85386" lon="7.16365">
        <ele>87.585187</ele>
        <time>2020-08-02T12:06:27.548Z</time>
      </trkpt>
      <trkpt lat="62.85384" lon="7.16341">
        <ele>87.731436</ele>
        <time>2020-08-02T12:06:30.573Z</time>
      </trkpt>
      <trkpt lat="62.85383" lon="7.16317">
        <ele>87.879113</ele>
        <time>2020-08-02T12:06:33.554Z</time>
      </trkpt>
      <trkpt lat="62.85381" lon="7.16295">
        <ele>88.020968</ele>
        <time>2020-08-02T12:06:36.539Z</time>
      </trkpt>
      <trkpt lat="62.85379" lon="7.16271">
        <ele>88.168509</ele>
        <time>2020-08-02T12:06:39.531Z</time>
      </trkpt>
      <trkpt lat="62.85377" lon="7.16247">
        <ele>88.315398</ele>
        <time>2020-08-02T12:06:42.536Z</time>
      </trkpt>
      <trkpt lat="62.85377" lon="7.16224">
        <ele>88.460683</ele>
        <time>2020-08-02T12:06:45.554Z</time>
      </trkpt>
      <trkpt lat="62.85375" lon="7.16201">
        <ele>88.604957</ele>
        <time>2020-08-02T12:06:48.542Z</time>
      </trkpt>
      <trkpt lat="62.85372" lon="7.16179">
        <ele>88.744591</ele>
        <time>2020-08-02T12:06:51.550Z</time>
      </trkpt>
      <trkpt lat="62.85371" lon="7.16156">
        <ele>88.885992</ele>
        <time>2020-08-02T12:06:54.553Z</time>
      </trkpt>
      <trkpt lat="62.85371" lon="7.16132">
        <ele>89.031403</ele>
        <time>2020-08-02T12:06:57.534Z</time>
      </trkpt>
      <trkpt lat="62.8537" lon="7.16105">
        <ele>88.842709</ele>
        <time>2020-08-02T12:07:00.596Z</time>
      </trkpt>
      <trkpt lat="62.8537" lon="7.16079">
        <ele>88.661791</ele>
        <time>2020-08-02T12:07:03.535Z</time>
      </trkpt>
      <trkpt lat="62.85369" lon="7.16054">
        <ele>88.491917</ele>
        <time>2020-08-02T12:07:06.536Z</time>
      </trkpt>
      <trkpt lat="62.85368" lon="7.16029">
        <ele>88.313902</ele>
        <time>2020-08-02T12:07:09.548Z</time>
      </trkpt>
      <trkpt lat="62.85366" lon="7.16005">
        <ele>88.141492</ele>
        <time>2020-08-02T12:07:12.549Z</time>
      </trkpt>
      <trkpt lat="62.85366" lon="7.15983">
        <ele>87.992005</ele>
        <time>2020-08-02T12:07:15.535Z</time>
      </trkpt>
      <trkpt lat="62.85364" lon="7.15956">
        <ele>87.798872</ele>
        <time>2020-08-02T12:07:18.544Z</time>
      </trkpt>
      <trkpt lat="62.85362" lon="7.15929">
        <ele>87.607556</ele>
        <time>2020-08-02T12:07:21.548Z</time>
      </trkpt>
      <trkpt lat="62.85363" lon="7.159">
        <ele>87.406712</ele>
        <time>2020-08-02T12:07:24.543Z</time>
      </trkpt>
      <trkpt lat="62.85362" lon="7.15875">
        <ele>87.22644</ele>
        <time>2020-08-02T12:07:27.538Z</time>
      </trkpt>
      <trkpt lat="62.8536" lon="7.15851">
        <ele>87.057168</ele>
        <time>2020-08-02T12:07:30.582Z</time>
      </trkpt>
      <trkpt lat="62.85357" lon="7.15825">
        <ele>86.873285</ele>
        <time>2020-08-02T12:07:33.544Z</time>
      </trkpt>
      <trkpt lat="62.85355" lon="7.15798">
        <ele>86.678058</ele>
        <time>2020-08-02T12:07:36.539Z</time>
      </trkpt>
      <trkpt lat="62.85353" lon="7.1577">
        <ele>86.484924</ele>
        <time>2020-08-02T12:07:39.553Z</time>
      </trkpt>
      <trkpt lat="62.85352" lon="7.15744">
        <ele>86.296273</ele>
        <time>2020-08-02T12:07:42.550Z</time>
      </trkpt>
      <trkpt lat="62.85351" lon="7.15715">
        <ele>86.357726</ele>
        <time>2020-08-02T12:07:45.536Z</time>
      </trkpt>
      <trkpt lat="62.8535" lon="7.15686">
        <ele>86.444583</ele>
        <time>2020-08-02T12:07:48.532Z</time>
      </trkpt>
      <trkpt lat="62.85349" lon="7.1566">
        <ele>86.524121</ele>
        <time>2020-08-02T12:07:51.559Z</time>
      </trkpt>
      <trkpt lat="62.85348" lon="7.15634">
        <ele>86.6016</ele>
        <time>2020-08-02T12:07:54.564Z</time>
      </trkpt>
      <trkpt lat="62.85347" lon="7.15609">
        <ele>86.678946</ele>
        <time>2020-08-02T12:07:57.565Z</time>
      </trkpt>
      <trkpt lat="62.85346" lon="7.15581">
        <ele>86.760278</ele>
        <time>2020-08-02T12:08:00.553Z</time>
      </trkpt>
      <trkpt lat="62.85347" lon="7.15554">
        <ele>86.842343</ele>
        <time>2020-08-02T12:08:03.534Z</time>
      </trkpt>
      <trkpt lat="62.8535" lon="7.1553">
        <ele>86.91784</ele>
        <time>2020-08-02T12:08:06.548Z</time>
      </trkpt>
      <trkpt lat="62.85356" lon="7.15513">
        <ele>86.980895</ele>
        <time>2020-08-02T12:08:09.542Z</time>
      </trkpt>
      <trkpt lat="62.85358" lon="7.15492">
        <ele>87.045228</ele>
        <time>2020-08-02T12:08:13.539Z</time>
      </trkpt>
      <trkpt lat="62.85349" lon="7.15479">
        <ele>87.114095</ele>
        <time>2020-08-02T12:08:17.526Z</time>
      </trkpt>
      <trkpt lat="62.85343" lon="7.15458">
        <ele>87.191245</ele>
        <time>2020-08-02T12:08:21.525Z</time>
      </trkpt>
      <trkpt lat="62.85343" lon="7.15432">
        <ele>87.269177</ele>
        <time>2020-08-02T12:08:24.531Z</time>
      </trkpt>
      <trkpt lat="62.85343" lon="7.15406">
        <ele>87.347985</ele>
        <time>2020-08-02T12:08:27.544Z</time>
      </trkpt>
      <trkpt lat="62.85342" lon="7.1538">
        <ele>87.426202</ele>
        <time>2020-08-02T12:08:30.541Z</time>
      </trkpt>
      <trkpt lat="62.85342" lon="7.15353">
        <ele>87.534488</ele>
        <time>2020-08-02T12:08:33.527Z</time>
      </trkpt>
      <trkpt lat="62.85342" lon="7.15326">
        <ele>87.671322</ele>
        <time>2020-08-02T12:08:36.549Z</time>
      </trkpt>
      <trkpt lat="62.85343" lon="7.15298">
        <ele>87.811986</ele>
        <time>2020-08-02T12:08:39.540Z</time>
      </trkpt>
      <trkpt lat="62.85345" lon="7.15279">
        <ele>87.910583</ele>
        <time>2020-08-02T12:08:41.532Z</time>
      </trkpt>
      <trkpt lat="62.85347" lon="7.15258">
        <ele>88.016908</ele>
        <time>2020-08-02T12:08:43.570Z</time>
      </trkpt>
      <trkpt lat="62.85348" lon="7.15237">
        <ele>88.121474</ele>
        <time>2020-08-02T12:08:45.548Z</time>
      </trkpt>
      <trkpt lat="62.85349" lon="7.15217">
        <ele>88.220124</ele>
        <time>2020-08-02T12:08:47.571Z</time>
      </trkpt>
      <trkpt lat="62.8535" lon="7.15189">
        <ele>88.362716</ele>
        <time>2020-08-02T12:08:50.549Z</time>
      </trkpt>
      <trkpt lat="62.85351" lon="7.15166">
        <ele>88.475417</ele>
        <time>2020-08-02T12:08:52.569Z</time>
      </trkpt>
      <trkpt lat="62.85351" lon="7.15145">
        <ele>88.580808</ele>
        <time>2020-08-02T12:08:54.536Z</time>
      </trkpt>
      <trkpt lat="62.85352" lon="7.15118">
        <ele>88.720156</ele>
        <time>2020-08-02T12:08:57.534Z</time>
      </trkpt>
      <trkpt lat="62.85354" lon="7.1509">
        <ele>88.857902</ele>
        <time>2020-08-02T12:09:00.530Z</time>
      </trkpt>
      <trkpt lat="62.85356" lon="7.15063">
        <ele>88.995064</ele>
        <time>2020-08-02T12:09:03.561Z</time>
      </trkpt>
      <trkpt lat="62.85358" lon="7.15036">
        <ele>89.13381</ele>
        <time>2020-08-02T12:09:06.533Z</time>
      </trkpt>
      <trkpt lat="62.8536" lon="7.1501">
        <ele>89.264003</ele>
        <time>2020-08-02T12:09:09.528Z</time>
      </trkpt>
      <trkpt lat="62.85363" lon="7.14985">
        <ele>89.39136</ele>
        <time>2020-08-02T12:09:12.546Z</time>
      </trkpt>
      <trkpt lat="62.85366" lon="7.14961">
        <ele>89.237404</ele>
        <time>2020-08-02T12:09:15.552Z</time>
      </trkpt>
      <trkpt lat="62.85367" lon="7.14935">
        <ele>88.965922</ele>
        <time>2020-08-02T12:09:18.534Z</time>
      </trkpt>
      <trkpt lat="62.85368" lon="7.14908">
        <ele>88.673132</ele>
        <time>2020-08-02T12:09:21.531Z</time>
      </trkpt>
      <trkpt lat="62.85371" lon="7.1488">
        <ele>88.370219</ele>
        <time>2020-08-02T12:09:24.560Z</time>
      </trkpt>
      <trkpt lat="62.85371" lon="7.14859">
        <ele>88.141335</ele>
        <time>2020-08-02T12:09:26.545Z</time>
      </trkpt>
      <trkpt lat="62.85372" lon="7.14832">
        <ele>87.856405</ele>
        <time>2020-08-02T12:09:29.535Z</time>
      </trkpt>
      <trkpt lat="62.85373" lon="7.14804">
        <ele>87.554462</ele>
        <time>2020-08-02T12:09:32.527Z</time>
      </trkpt>
      <trkpt lat="62.85375" lon="7.14785">
        <ele>87.344411</ele>
        <time>2020-08-02T12:09:34.533Z</time>
      </trkpt>
      <trkpt lat="62.85376" lon="7.14757">
        <ele>87.050557</ele>
        <time>2020-08-02T12:09:37.545Z</time>
      </trkpt>
      <trkpt lat="62.85378" lon="7.14729">
        <ele>86.746152</ele>
        <time>2020-08-02T12:09:40.569Z</time>
      </trkpt>
      <trkpt lat="62.8538" lon="7.147">
        <ele>86.434639</ele>
        <time>2020-08-02T12:09:43.545Z</time>
      </trkpt>
      <trkpt lat="62.85381" lon="7.14672">
        <ele>86.124755</ele>
        <time>2020-08-02T12:09:46.548Z</time>
      </trkpt>
      <trkpt lat="62.85383" lon="7.14643">
        <ele>85.818057</ele>
        <time>2020-08-02T12:09:49.576Z</time>
      </trkpt>
      <trkpt lat="62.85384" lon="7.14616">
        <ele>85.525607</ele>
        <time>2020-08-02T12:09:52.533Z</time>
      </trkpt>
      <trkpt lat="62.85384" lon="7.14589">
        <ele>85.23342</ele>
        <time>2020-08-02T12:09:55.561Z</time>
      </trkpt>
      <trkpt lat="62.85384" lon="7.14562">
        <ele>85.148324</ele>
        <time>2020-08-02T12:09:58.585Z</time>
      </trkpt>
      <trkpt lat="62.85384" lon="7.14534">
        <ele>85.075792</ele>
        <time>2020-08-02T12:10:01.552Z</time>
      </trkpt>
      <trkpt lat="62.85386" lon="7.14504">
        <ele>84.996867</ele>
        <time>2020-08-02T12:10:04.550Z</time>
      </trkpt>
      <trkpt lat="62.85386" lon="7.14483">
        <ele>84.940507</ele>
        <time>2020-08-02T12:10:06.543Z</time>
      </trkpt>
      <trkpt lat="62.85387" lon="7.14461">
        <ele>84.880946</ele>
        <time>2020-08-02T12:10:08.582Z</time>
      </trkpt>
      <trkpt lat="62.85387" lon="7.14437">
        <ele>84.818716</ele>
        <time>2020-08-02T12:10:10.556Z</time>
      </trkpt>
      <trkpt lat="62.85388" lon="7.14414">
        <ele>84.758227</ele>
        <time>2020-08-02T12:10:12.563Z</time>
      </trkpt>
      <trkpt lat="62.85388" lon="7.14393">
        <ele>84.700285</ele>
        <time>2020-08-02T12:10:14.534Z</time>
      </trkpt>
      <trkpt lat="62.85389" lon="7.14371">
        <ele>84.642871</ele>
        <time>2020-08-02T12:10:16.560Z</time>
      </trkpt>
      <trkpt lat="62.85391" lon="7.14351">
        <ele>84.590261</ele>
        <time>2020-08-02T12:10:18.533Z</time>
      </trkpt>
      <trkpt lat="62.85391" lon="7.14331">
        <ele>84.536712</ele>
        <time>2020-08-02T12:10:20.549Z</time>
      </trkpt>
      <trkpt lat="62.85392" lon="7.14311">
        <ele>84.483129</ele>
        <time>2020-08-02T12:10:22.529Z</time>
      </trkpt>
      <trkpt lat="62.85392" lon="7.14291">
        <ele>84.42963</ele>
        <time>2020-08-02T12:10:24.551Z</time>
      </trkpt>
      <trkpt lat="62.85393" lon="7.14271">
        <ele>84.377425</ele>
        <time>2020-08-02T12:10:26.559Z</time>
      </trkpt>
      <trkpt lat="62.85393" lon="7.14251">
        <ele>84.324984</ele>
        <time>2020-08-02T12:10:28.538Z</time>
      </trkpt>
      <trkpt lat="62.85395" lon="7.14224">
        <ele>84.251147</ele>
        <time>2020-08-02T12:10:31.533Z</time>
      </trkpt>
      <trkpt lat="62.85397" lon="7.14195">
        <ele>84.1742</ele>
        <time>2020-08-02T12:10:34.542Z</time>
      </trkpt>
      <trkpt lat="62.85398" lon="7.14166">
        <ele>84.311172</ele>
        <time>2020-08-02T12:10:37.526Z</time>
      </trkpt>
      <trkpt lat="62.854" lon="7.14139">
        <ele>84.449944</ele>
        <time>2020-08-02T12:10:40.551Z</time>
      </trkpt>
      <trkpt lat="62.85402" lon="7.14112">
        <ele>84.587729</ele>
        <time>2020-08-02T12:10:43.540Z</time>
      </trkpt>
      <trkpt lat="62.85404" lon="7.14086">
        <ele>84.719385</ele>
        <time>2020-08-02T12:10:46.544Z</time>
      </trkpt>
      <trkpt lat="62.85407" lon="7.14061">
        <ele>84.850017</ele>
        <time>2020-08-02T12:10:49.537Z</time>
      </trkpt>
      <trkpt lat="62.85411" lon="7.14037">
        <ele>84.979468</ele>
        <time>2020-08-02T12:10:52.544Z</time>
      </trkpt>
      <trkpt lat="62.85412" lon="7.14011">
        <ele>85.107938</ele>
        <time>2020-08-02T12:10:55.539Z</time>
      </trkpt>
      <trkpt lat="62.85414" lon="7.13986">
        <ele>85.23693</ele>
        <time>2020-08-02T12:10:58.532Z</time>
      </trkpt>
      <trkpt lat="62.85416" lon="7.1396">
        <ele>85.36755</ele>
        <time>2020-08-02T12:11:01.551Z</time>
      </trkpt>
      <trkpt lat="62.85417" lon="7.13935">
        <ele>85.494318</ele>
        <time>2020-08-02T12:11:04.544Z</time>
      </trkpt>
      <trkpt lat="62.85418" lon="7.13909">
        <ele>85.623717</ele>
        <time>2020-08-02T12:11:07.554Z</time>
      </trkpt>
      <trkpt lat="62.85421" lon="7.13886">
        <ele>85.746014</ele>
        <time>2020-08-02T12:11:10.542Z</time>
      </trkpt>
      <trkpt lat="62.85424" lon="7.13861">
        <ele>85.873358</ele>
        <time>2020-08-02T12:11:13.541Z</time>
      </trkpt>
      <trkpt lat="62.85427" lon="7.13837">
        <ele>86.001206</ele>
        <time>2020-08-02T12:11:16.539Z</time>
      </trkpt>
      <trkpt lat="62.8543" lon="7.13811">
        <ele>86.134958</ele>
        <time>2020-08-02T12:11:19.580Z</time>
      </trkpt>
      <trkpt lat="62.85432" lon="7.13785">
        <ele>86.054203</ele>
        <time>2020-08-02T12:11:22.546Z</time>
      </trkpt>
      <trkpt lat="62.85433" lon="7.1376">
        <ele>85.945836</ele>
        <time>2020-08-02T12:11:25.570Z</time>
      </trkpt>
      <trkpt lat="62.85433" lon="7.13733">
        <ele>85.830079</ele>
        <time>2020-08-02T12:11:28.560Z</time>
      </trkpt>
      <trkpt lat="62.85432" lon="7.13705">
        <ele>85.711291</ele>
        <time>2020-08-02T12:11:31.530Z</time>
      </trkpt>
      <trkpt lat="62.85433" lon="7.13681">
        <ele>85.605789</ele>
        <time>2020-08-02T12:11:34.551Z</time>
      </trkpt>
      <trkpt lat="62.85432" lon="7.13656">
        <ele>85.500912</ele>
        <time>2020-08-02T12:11:37.549Z</time>
      </trkpt>
      <trkpt lat="62.85431" lon="7.13628">
        <ele>85.379552</ele>
        <time>2020-08-02T12:11:40.568Z</time>
      </trkpt>
      <trkpt lat="62.85431" lon="7.136">
        <ele>85.259512</ele>
        <time>2020-08-02T12:11:43.596Z</time>
      </trkpt>
      <trkpt lat="62.8543" lon="7.13574">
        <ele>85.146623</ele>
        <time>2020-08-02T12:11:46.564Z</time>
      </trkpt>
      <trkpt lat="62.85429" lon="7.13547">
        <ele>85.030197</ele>
        <time>2020-08-02T12:11:49.551Z</time>
      </trkpt>
      <trkpt lat="62.85425" lon="7.1352">
        <ele>84.911923</ele>
        <time>2020-08-02T12:11:52.542Z</time>
      </trkpt>
      <trkpt lat="62.85421" lon="7.13494">
        <ele>84.793477</ele>
        <time>2020-08-02T12:11:55.544Z</time>
      </trkpt>
      <trkpt lat="62.85417" lon="7.13467">
        <ele>84.669839</ele>
        <time>2020-08-02T12:11:58.547Z</time>
      </trkpt>
      <trkpt lat="62.85413" lon="7.13442">
        <ele>84.555855</ele>
        <time>2020-08-02T12:12:01.541Z</time>
      </trkpt>
      <trkpt lat="62.85408" lon="7.13417">
        <ele>84.370266</ele>
        <time>2020-08-02T12:12:04.554Z</time>
      </trkpt>
      <trkpt lat="62.85403" lon="7.13393">
        <ele>83.877694</ele>
        <time>2020-08-02T12:12:07.546Z</time>
      </trkpt>
      <trkpt lat="62.85399" lon="7.13369">
        <ele>83.393462</ele>
        <time>2020-08-02T12:12:10.542Z</time>
      </trkpt>
      <trkpt lat="62.85393" lon="7.13346">
        <ele>82.904115</ele>
        <time>2020-08-02T12:12:13.566Z</time>
      </trkpt>
      <trkpt lat="62.85388" lon="7.13323">
        <ele>82.430616</ele>
        <time>2020-08-02T12:12:16.562Z</time>
      </trkpt>
      <trkpt lat="62.85383" lon="7.13301">
        <ele>81.950704</ele>
        <time>2020-08-02T12:12:19.542Z</time>
      </trkpt>
      <trkpt lat="62.85378" lon="7.13278">
        <ele>81.489166</ele>
        <time>2020-08-02T12:12:22.553Z</time>
      </trkpt>
      <trkpt lat="62.85373" lon="7.13257">
        <ele>81.02238</ele>
        <time>2020-08-02T12:12:25.530Z</time>
      </trkpt>
      <trkpt lat="62.85367" lon="7.13235">
        <ele>80.538036</ele>
        <time>2020-08-02T12:12:28.564Z</time>
      </trkpt>
      <trkpt lat="62.85361" lon="7.1321">
        <ele>80.033562</ele>
        <time>2020-08-02T12:12:31.529Z</time>
      </trkpt>
      <trkpt lat="62.85356" lon="7.13187">
        <ele>79.533756</ele>
        <time>2020-08-02T12:12:34.580Z</time>
      </trkpt>
      <trkpt lat="62.8535" lon="7.13163">
        <ele>79.032037</ele>
        <time>2020-08-02T12:12:37.564Z</time>
      </trkpt>
      <trkpt lat="62.85344" lon="7.1314">
        <ele>78.532229</ele>
        <time>2020-08-02T12:12:40.555Z</time>
      </trkpt>
      <trkpt lat="62.85339" lon="7.13115">
        <ele>78.0177</ele>
        <time>2020-08-02T12:12:43.534Z</time>
      </trkpt>
      <trkpt lat="62.85334" lon="7.13089">
        <ele>77.496285</ele>
        <time>2020-08-02T12:12:46.562Z</time>
      </trkpt>
      <trkpt lat="62.85328" lon="7.13065">
        <ele>77.045584</ele>
        <time>2020-08-02T12:12:49.563Z</time>
      </trkpt>
      <trkpt lat="62.85322" lon="7.1304">
        <ele>76.981121</ele>
        <time>2020-08-02T12:12:52.541Z</time>
      </trkpt>
      <trkpt lat="62.85317" lon="7.13014">
        <ele>76.915176</ele>
        <time>2020-08-02T12:12:55.549Z</time>
      </trkpt>
      <trkpt lat="62.85314" lon="7.12996">
        <ele>76.868545</ele>
        <time>2020-08-02T12:12:57.547Z</time>
      </trkpt>
      <trkpt lat="62.8531" lon="7.12977">
        <ele>76.822053</ele>
        <time>2020-08-02T12:12:59.563Z</time>
      </trkpt>
      <trkpt lat="62.85307" lon="7.12958">
        <ele>76.774038</ele>
        <time>2020-08-02T12:13:01.541Z</time>
      </trkpt>
      <trkpt lat="62.85304" lon="7.12938">
        <ele>76.725004</ele>
        <time>2020-08-02T12:13:03.552Z</time>
      </trkpt>
      <trkpt lat="62.853" lon="7.1292">
        <ele>76.677739</ele>
        <time>2020-08-02T12:13:05.548Z</time>
      </trkpt>
      <trkpt lat="62.85297" lon="7.129">
        <ele>76.629577</ele>
        <time>2020-08-02T12:13:07.557Z</time>
      </trkpt>
      <trkpt lat="62.85294" lon="7.1288">
        <ele>76.579949</ele>
        <time>2020-08-02T12:13:09.547Z</time>
      </trkpt>
      <trkpt lat="62.85291" lon="7.1286">
        <ele>76.531582</ele>
        <time>2020-08-02T12:13:11.534Z</time>
      </trkpt>
      <trkpt lat="62.85288" lon="7.12841">
        <ele>76.484466</ele>
        <time>2020-08-02T12:13:13.532Z</time>
      </trkpt>
      <trkpt lat="62.85285" lon="7.1282">
        <ele>76.433133</ele>
        <time>2020-08-02T12:13:15.535Z</time>
      </trkpt>
      <trkpt lat="62.8528" lon="7.12799">
        <ele>76.378647</ele>
        <time>2020-08-02T12:13:17.584Z</time>
      </trkpt>
      <trkpt lat="62.85276" lon="7.12777">
        <ele>76.323948</ele>
        <time>2020-08-02T12:13:19.546Z</time>
      </trkpt>
      <trkpt lat="62.85273" lon="7.12758">
        <ele>76.275157</ele>
        <time>2020-08-02T12:13:21.549Z</time>
      </trkpt>
      <trkpt lat="62.85269" lon="7.12739">
        <ele>76.22696</ele>
        <time>2020-08-02T12:13:23.531Z</time>
      </trkpt>
      <trkpt lat="62.85265" lon="7.1272">
        <ele>76.179237</ele>
        <time>2020-08-02T12:13:25.530Z</time>
      </trkpt>
      <trkpt lat="62.8526" lon="7.12694">
        <ele>76.335996</ele>
        <time>2020-08-02T12:13:28.553Z</time>
      </trkpt>
      <trkpt lat="62.85257" lon="7.12674">
        <ele>76.72004</ele>
        <time>2020-08-02T12:13:30.536Z</time>
      </trkpt>
      <trkpt lat="62.85254" lon="7.12654">
        <ele>77.113631</ele>
        <time>2020-08-02T12:13:32.534Z</time>
      </trkpt>
      <trkpt lat="62.85251" lon="7.12635">
        <ele>77.509273</ele>
        <time>2020-08-02T12:13:34.561Z</time>
      </trkpt>
      <trkpt lat="62.85248" lon="7.12615">
        <ele>77.898214</ele>
        <time>2020-08-02T12:13:36.533Z</time>
      </trkpt>
      <trkpt lat="62.85245" lon="7.12596">
        <ele>78.288499</ele>
        <time>2020-08-02T12:13:38.552Z</time>
      </trkpt>
      <trkpt lat="62.85243" lon="7.12576">
        <ele>78.67283</ele>
        <time>2020-08-02T12:13:40.539Z</time>
      </trkpt>
      <trkpt lat="62.85241" lon="7.12557">
        <ele>79.045151</ele>
        <time>2020-08-02T12:13:42.550Z</time>
      </trkpt>
      <trkpt lat="62.85238" lon="7.12537">
        <ele>79.438645</ele>
        <time>2020-08-02T12:13:44.545Z</time>
      </trkpt>
      <trkpt lat="62.85235" lon="7.12508">
        <ele>79.99056</ele>
        <time>2020-08-02T12:13:47.537Z</time>
      </trkpt>
      <trkpt lat="62.85232" lon="7.12482">
        <ele>80.501708</ele>
        <time>2020-08-02T12:13:50.561Z</time>
      </trkpt>
      <trkpt lat="62.8523" lon="7.12458">
        <ele>80.969152</ele>
        <time>2020-08-02T12:13:53.544Z</time>
      </trkpt>
      <trkpt lat="62.85229" lon="7.12436">
        <ele>81.397925</ele>
        <time>2020-08-02T12:13:56.526Z</time>
      </trkpt>
      <trkpt lat="62.85228" lon="7.12414">
        <ele>81.798956</ele>
        <time>2020-08-02T12:13:59.548Z</time>
      </trkpt>
      <trkpt lat="62.85228" lon="7.12393">
        <ele>82.211318</ele>
        <time>2020-08-02T12:14:02.548Z</time>
      </trkpt>
      <trkpt lat="62.85227" lon="7.1237">
        <ele>82.635416</ele>
        <time>2020-08-02T12:14:05.550Z</time>
      </trkpt>
      <trkpt lat="62.85225" lon="7.12349">
        <ele>83.044494</ele>
        <time>2020-08-02T12:14:08.527Z</time>
      </trkpt>
      <trkpt lat="62.85224" lon="7.12329">
        <ele>83.424336</ele>
        <time>2020-08-02T12:14:11.532Z</time>
      </trkpt>
      <trkpt lat="62.85224" lon="7.12304">
        <ele>83.777404</ele>
        <time>2020-08-02T12:14:15.559Z</time>
      </trkpt>
      <trkpt lat="62.85223" lon="7.12281">
        <ele>84.047341</ele>
        <time>2020-08-02T12:14:19.532Z</time>
      </trkpt>
      <trkpt lat="62.85223" lon="7.1226">
        <ele>84.295126</ele>
        <time>2020-08-02T12:14:23.548Z</time>
      </trkpt>
      <trkpt lat="62.85222" lon="7.1224">
        <ele>84.534122</ele>
        <time>2020-08-02T12:14:28.562Z</time>
      </trkpt>
      <trkpt lat="62.85221" lon="7.12219">
        <ele>84.772734</ele>
        <time>2020-08-02T12:14:33.547Z</time>
      </trkpt>
      <trkpt lat="62.85219" lon="7.12198">
        <ele>85.031142</ele>
        <time>2020-08-02T12:14:38.536Z</time>
      </trkpt>
      <trkpt lat="62.85216" lon="7.12175">
        <ele>85.305401</ele>
        <time>2020-08-02T12:14:43.552Z</time>
      </trkpt>
      <trkpt lat="62.85217" lon="7.12152">
        <ele>85.575339</ele>
        <time>2020-08-02T12:14:48.535Z</time>
      </trkpt>
      <trkpt lat="62.85219" lon="7.12132">
        <ele>85.812348</ele>
        <time>2020-08-02T12:14:53.564Z</time>
      </trkpt>
      <trkpt lat="62.85216" lon="7.1211">
        <ele>86.08334</ele>
        <time>2020-08-02T12:14:58.531Z</time>
      </trkpt>
      <trkpt lat="62.85212" lon="7.12089">
        <ele>86.336471</ele>
        <time>2020-08-02T12:15:02.544Z</time>
      </trkpt>
      <trkpt lat="62.85208" lon="7.12071">
        <ele>86.581853</ele>
        <time>2020-08-02T12:15:06.536Z</time>
      </trkpt>
      <trkpt lat="62.85205" lon="7.12049">
        <ele>86.843168</ele>
        <time>2020-08-02T12:15:10.550Z</time>
      </trkpt>
      <trkpt lat="62.85202" lon="7.12024">
        <ele>87.147161</ele>
        <time>2020-08-02T12:15:14.571Z</time>
      </trkpt>
      <trkpt lat="62.852" lon="7.12002">
        <ele>87.4152</ele>
        <time>2020-08-02T12:15:17.550Z</time>
      </trkpt>
      <trkpt lat="62.85197" lon="7.11977">
        <ele>87.715635</ele>
        <time>2020-08-02T12:15:20.547Z</time>
      </trkpt>
      <trkpt lat="62.85194" lon="7.11951">
        <ele>88.028395</ele>
        <time>2020-08-02T12:15:23.540Z</time>
      </trkpt>
      <trkpt lat="62.85191" lon="7.11924">
        <ele>88.225384</ele>
        <time>2020-08-02T12:15:26.545Z</time>
      </trkpt>
      <trkpt lat="62.85187" lon="7.11897">
        <ele>88.298374</ele>
        <time>2020-08-02T12:15:29.533Z</time>
      </trkpt>
      <trkpt lat="62.85184" lon="7.11871">
        <ele>88.367308</ele>
        <time>2020-08-02T12:15:32.545Z</time>
      </trkpt>
      <trkpt lat="62.85181" lon="7.11845">
        <ele>88.436646</ele>
        <time>2020-08-02T12:15:35.536Z</time>
      </trkpt>
      <trkpt lat="62.85178" lon="7.11821">
        <ele>88.501947</ele>
        <time>2020-08-02T12:15:38.564Z</time>
      </trkpt>
      <trkpt lat="62.85176" lon="7.11796">
        <ele>88.567869</ele>
        <time>2020-08-02T12:15:41.582Z</time>
      </trkpt>
      <trkpt lat="62.85175" lon="7.1177">
        <ele>88.634645</ele>
        <time>2020-08-02T12:15:44.553Z</time>
      </trkpt>
      <trkpt lat="62.85173" lon="7.11745">
        <ele>88.701259</ele>
        <time>2020-08-02T12:15:47.530Z</time>
      </trkpt>
      <trkpt lat="62.8517" lon="7.11724">
        <ele>88.759028</ele>
        <time>2020-08-02T12:15:50.548Z</time>
      </trkpt>
      <trkpt lat="62.85167" lon="7.11702">
        <ele>88.818526</ele>
        <time>2020-08-02T12:15:53.533Z</time>
      </trkpt>
      <trkpt lat="62.85163" lon="7.11676">
        <ele>88.887712</ele>
        <time>2020-08-02T12:15:56.550Z</time>
      </trkpt>
      <trkpt lat="62.85161" lon="7.1165">
        <ele>88.957708</ele>
        <time>2020-08-02T12:15:59.545Z</time>
      </trkpt>
      <trkpt lat="62.85156" lon="7.11624">
        <ele>89.029551</ele>
        <time>2020-08-02T12:16:02.536Z</time>
      </trkpt>
      <trkpt lat="62.85153" lon="7.11597">
        <ele>89.102834</ele>
        <time>2020-08-02T12:16:05.534Z</time>
      </trkpt>
      <trkpt lat="62.8515" lon="7.11578">
        <ele>89.154554</ele>
        <time>2020-08-02T12:16:07.546Z</time>
      </trkpt>
      <trkpt lat="62.85146" lon="7.11552">
        <ele>89.088792</ele>
        <time>2020-08-02T12:16:10.559Z</time>
      </trkpt>
      <trkpt lat="62.85143" lon="7.11525">
        <ele>88.511764</ele>
        <time>2020-08-02T12:16:13.553Z</time>
      </trkpt>
      <trkpt lat="62.85141" lon="7.11499">
        <ele>87.92638</ele>
        <time>2020-08-02T12:16:16.542Z</time>
      </trkpt>
      <trkpt lat="62.85138" lon="7.11478">
        <ele>87.475496</ele>
        <time>2020-08-02T12:16:18.545Z</time>
      </trkpt>
      <trkpt lat="62.85136" lon="7.11456">
        <ele>86.984015</ele>
        <time>2020-08-02T12:16:20.540Z</time>
      </trkpt>
      <trkpt lat="62.85132" lon="7.11433">
        <ele>86.464954</ele>
        <time>2020-08-02T12:16:22.549Z</time>
      </trkpt>
      <trkpt lat="62.85129" lon="7.11408">
        <ele>85.905571</ele>
        <time>2020-08-02T12:16:24.551Z</time>
      </trkpt>
      <trkpt lat="62.85126" lon="7.11382">
        <ele>85.332497</ele>
        <time>2020-08-02T12:16:26.550Z</time>
      </trkpt>
      <trkpt lat="62.85122" lon="7.11356">
        <ele>84.733413</ele>
        <time>2020-08-02T12:16:28.537Z</time>
      </trkpt>
      <trkpt lat="62.85116" lon="7.11329">
        <ele>84.114834</ele>
        <time>2020-08-02T12:16:30.542Z</time>
      </trkpt>
      <trkpt lat="62.85112" lon="7.11304">
        <ele>83.517128</ele>
        <time>2020-08-02T12:16:32.544Z</time>
      </trkpt>
      <trkpt lat="62.85107" lon="7.11277">
        <ele>82.914426</ele>
        <time>2020-08-02T12:16:34.534Z</time>
      </trkpt>
      <trkpt lat="62.85103" lon="7.11251">
        <ele>82.318123</ele>
        <time>2020-08-02T12:16:36.565Z</time>
      </trkpt>
      <trkpt lat="62.85099" lon="7.11225">
        <ele>81.71858</ele>
        <time>2020-08-02T12:16:38.542Z</time>
      </trkpt>
      <trkpt lat="62.85094" lon="7.11198">
        <ele>81.10983</ele>
        <time>2020-08-02T12:16:40.542Z</time>
      </trkpt>
      <trkpt lat="62.8509" lon="7.11172">
        <ele>80.638062</ele>
        <time>2020-08-02T12:16:42.531Z</time>
      </trkpt>
      <trkpt lat="62.85085" lon="7.11145">
        <ele>80.337984</ele>
        <time>2020-08-02T12:16:44.553Z</time>
      </trkpt>
      <trkpt lat="62.85081" lon="7.11117">
        <ele>80.038255</ele>
        <time>2020-08-02T12:16:46.564Z</time>
      </trkpt>
      <trkpt lat="62.85076" lon="7.11091">
        <ele>79.744616</ele>
        <time>2020-08-02T12:16:48.571Z</time>
      </trkpt>
      <trkpt lat="62.85072" lon="7.11065">
        <ele>79.458582</ele>
        <time>2020-08-02T12:16:50.568Z</time>
      </trkpt>
      <trkpt lat="62.85068" lon="7.11039">
        <ele>79.17136</ele>
        <time>2020-08-02T12:16:52.550Z</time>
      </trkpt>
      <trkpt lat="62.85064" lon="7.11014">
        <ele>78.897964</ele>
        <time>2020-08-02T12:16:54.529Z</time>
      </trkpt>
      <trkpt lat="62.85059" lon="7.10991">
        <ele>78.635886</ele>
        <time>2020-08-02T12:16:56.554Z</time>
      </trkpt>
      <trkpt lat="62.85056" lon="7.1097">
        <ele>78.410481</ele>
        <time>2020-08-02T12:16:58.567Z</time>
      </trkpt>
      <trkpt lat="62.85049" lon="7.10918">
        <ele>77.844828</ele>
        <time>2020-08-02T12:20:22.553Z</time>
      </trkpt>
      <trkpt lat="62.85046" lon="7.10897">
        <ele>77.611039</ele>
        <time>2020-08-02T12:20:25.541Z</time>
      </trkpt>
      <trkpt lat="62.85042" lon="7.10872">
        <ele>77.340547</ele>
        <time>2020-08-02T12:20:28.550Z</time>
      </trkpt>
      <trkpt lat="62.85037" lon="7.10846">
        <ele>77.046574</ele>
        <time>2020-08-02T12:20:31.540Z</time>
      </trkpt>
      <trkpt lat="62.85032" lon="7.10819">
        <ele>76.738594</ele>
        <time>2020-08-02T12:20:34.556Z</time>
      </trkpt>
      <trkpt lat="62.85028" lon="7.10799">
        <ele>76.591189</ele>
        <time>2020-08-02T12:20:36.562Z</time>
      </trkpt>
      <trkpt lat="62.85025" lon="7.1078">
        <ele>76.480769</ele>
        <time>2020-08-02T12:20:38.523Z</time>
      </trkpt>
      <trkpt lat="62.85022" lon="7.10761">
        <ele>76.367787</ele>
        <time>2020-08-02T12:20:40.563Z</time>
      </trkpt>
      <trkpt lat="62.85019" lon="7.1074">
        <ele>76.251207</ele>
        <time>2020-08-02T12:20:42.546Z</time>
      </trkpt>
      <trkpt lat="62.85016" lon="7.10721">
        <ele>76.137831</ele>
        <time>2020-08-02T12:20:44.564Z</time>
      </trkpt>
      <trkpt lat="62.85012" lon="7.10701">
        <ele>76.023508</ele>
        <time>2020-08-02T12:20:46.535Z</time>
      </trkpt>
      <trkpt lat="62.85009" lon="7.10682">
        <ele>75.909771</ele>
        <time>2020-08-02T12:20:48.553Z</time>
      </trkpt>
      <trkpt lat="62.85004" lon="7.10661">
        <ele>75.788738</ele>
        <time>2020-08-02T12:20:50.546Z</time>
      </trkpt>
      <trkpt lat="62.85001" lon="7.1064">
        <ele>75.664898</ele>
        <time>2020-08-02T12:20:52.544Z</time>
      </trkpt>
      <trkpt lat="62.84998" lon="7.10619">
        <ele>75.54108</ele>
        <time>2020-08-02T12:20:54.530Z</time>
      </trkpt>
      <trkpt lat="62.84994" lon="7.10599">
        <ele>75.425529</ele>
        <time>2020-08-02T12:20:56.553Z</time>
      </trkpt>
      <trkpt lat="62.84991" lon="7.10579">
        <ele>75.310883</ele>
        <time>2020-08-02T12:20:58.550Z</time>
      </trkpt>
      <trkpt lat="62.84988" lon="7.10559">
        <ele>75.196618</ele>
        <time>2020-08-02T12:21:00.574Z</time>
      </trkpt>
      <trkpt lat="62.84986" lon="7.10539">
        <ele>75.083079</ele>
        <time>2020-08-02T12:21:02.538Z</time>
      </trkpt>
      <trkpt lat="62.84982" lon="7.1052">
        <ele>74.970708</ele>
        <time>2020-08-02T12:21:04.533Z</time>
      </trkpt>
      <trkpt lat="62.84979" lon="7.10501">
        <ele>74.861055</ele>
        <time>2020-08-02T12:21:06.529Z</time>
      </trkpt>
      <trkpt lat="62.84975" lon="7.10482">
        <ele>74.748955</ele>
        <time>2020-08-02T12:21:08.555Z</time>
      </trkpt>
      <trkpt lat="62.84971" lon="7.10464">
        <ele>74.637847</ele>
        <time>2020-08-02T12:21:10.543Z</time>
      </trkpt>
      <trkpt lat="62.84967" lon="7.10444">
        <ele>74.523207</ele>
        <time>2020-08-02T12:21:12.553Z</time>
      </trkpt>
      <trkpt lat="62.84964" lon="7.10426">
        <ele>74.538217</ele>
        <time>2020-08-02T12:21:14.552Z</time>
      </trkpt>
      <trkpt lat="62.84959" lon="7.10408">
        <ele>74.558559</ele>
        <time>2020-08-02T12:21:16.563Z</time>
      </trkpt>
      <trkpt lat="62.84955" lon="7.10391">
        <ele>74.5782</ele>
        <time>2020-08-02T12:21:18.587Z</time>
      </trkpt>
      <trkpt lat="62.84947" lon="7.10366">
        <ele>74.607841</ele>
        <time>2020-08-02T12:21:21.560Z</time>
      </trkpt>
      <trkpt lat="62.84942" lon="7.10348">
        <ele>74.629637</ele>
        <time>2020-08-02T12:21:23.562Z</time>
      </trkpt>
      <trkpt lat="62.84938" lon="7.10328">
        <ele>74.651411</ele>
        <time>2020-08-02T12:21:25.553Z</time>
      </trkpt>
      <trkpt lat="62.84933" lon="7.10309">
        <ele>74.673463</ele>
        <time>2020-08-02T12:21:27.536Z</time>
      </trkpt>
      <trkpt lat="62.84928" lon="7.10288">
        <ele>74.696544</ele>
        <time>2020-08-02T12:21:29.597Z</time>
      </trkpt>
      <trkpt lat="62.84923" lon="7.10269">
        <ele>74.718858</ele>
        <time>2020-08-02T12:21:31.544Z</time>
      </trkpt>
      <trkpt lat="62.84918" lon="7.1025">
        <ele>74.740482</ele>
        <time>2020-08-02T12:21:33.537Z</time>
      </trkpt>
      <trkpt lat="62.84914" lon="7.10231">
        <ele>74.761561</ele>
        <time>2020-08-02T12:21:35.555Z</time>
      </trkpt>
      <trkpt lat="62.84909" lon="7.10214">
        <ele>74.782162</ele>
        <time>2020-08-02T12:21:37.532Z</time>
      </trkpt>
      <trkpt lat="62.84905" lon="7.10196">
        <ele>74.802469</ele>
        <time>2020-08-02T12:21:39.528Z</time>
      </trkpt>
      <trkpt lat="62.849" lon="7.10178">
        <ele>74.823111</ele>
        <time>2020-08-02T12:21:41.554Z</time>
      </trkpt>
      <trkpt lat="62.84895" lon="7.10159">
        <ele>74.844686</ele>
        <time>2020-08-02T12:21:43.544Z</time>
      </trkpt>
      <trkpt lat="62.84891" lon="7.1014">
        <ele>74.86603</ele>
        <time>2020-08-02T12:21:45.592Z</time>
      </trkpt>
      <trkpt lat="62.84886" lon="7.10121">
        <ele>74.887816</ele>
        <time>2020-08-02T12:21:47.546Z</time>
      </trkpt>
      <trkpt lat="62.84882" lon="7.10102">
        <ele>74.909145</ele>
        <time>2020-08-02T12:21:49.555Z</time>
      </trkpt>
      <trkpt lat="62.84877" lon="7.10083">
        <ele>75.163425</ele>
        <time>2020-08-02T12:21:51.540Z</time>
      </trkpt>
      <trkpt lat="62.84872" lon="7.10063">
        <ele>75.480546</ele>
        <time>2020-08-02T12:21:53.553Z</time>
      </trkpt>
      <trkpt lat="62.84868" lon="7.10045">
        <ele>75.779002</ele>
        <time>2020-08-02T12:21:55.540Z</time>
      </trkpt>
      <trkpt lat="62.84864" lon="7.10026">
        <ele>76.074637</ele>
        <time>2020-08-02T12:21:57.542Z</time>
      </trkpt>
      <trkpt lat="62.8486" lon="7.10007">
        <ele>76.37531</ele>
        <time>2020-08-02T12:21:59.527Z</time>
      </trkpt>
      <trkpt lat="62.84856" lon="7.09988">
        <ele>76.661729</ele>
        <time>2020-08-02T12:22:01.552Z</time>
      </trkpt>
      <trkpt lat="62.84851" lon="7.09961">
        <ele>77.080647</ele>
        <time>2020-08-02T12:22:04.529Z</time>
      </trkpt>
      <trkpt lat="62.84847" lon="7.09941">
        <ele>77.389299</ele>
        <time>2020-08-02T12:22:06.542Z</time>
      </trkpt>
      <trkpt lat="62.84844" lon="7.0992">
        <ele>77.703009</ele>
        <time>2020-08-02T12:22:08.536Z</time>
      </trkpt>
      <trkpt lat="62.84841" lon="7.09899">
        <ele>78.021499</ele>
        <time>2020-08-02T12:22:10.534Z</time>
      </trkpt>
      <trkpt lat="62.84837" lon="7.09879">
        <ele>78.321335</ele>
        <time>2020-08-02T12:22:12.531Z</time>
      </trkpt>
      <trkpt lat="62.84832" lon="7.09853">
        <ele>78.723186</ele>
        <time>2020-08-02T12:22:15.569Z</time>
      </trkpt>
      <trkpt lat="62.84829" lon="7.09831">
        <ele>79.053489</ele>
        <time>2020-08-02T12:22:18.584Z</time>
      </trkpt>
      <trkpt lat="62.84825" lon="7.09811">
        <ele>79.367542</ele>
        <time>2020-08-02T12:22:21.553Z</time>
      </trkpt>
      <trkpt lat="62.84822" lon="7.0979">
        <ele>79.673849</ele>
        <time>2020-08-02T12:22:24.546Z</time>
      </trkpt>
      <trkpt lat="62.8482" lon="7.09771">
        <ele>79.955795</ele>
        <time>2020-08-02T12:22:27.540Z</time>
      </trkpt>
      <trkpt lat="62.84817" lon="7.09746">
        <ele>80.31913</ele>
        <time>2020-08-02T12:22:31.549Z</time>
      </trkpt>
      <trkpt lat="62.84815" lon="7.09728">
        <ele>80.576788</ele>
        <time>2020-08-02T12:22:34.573Z</time>
      </trkpt>
      <trkpt lat="62.84812" lon="7.09703">
        <ele>80.821033</ele>
        <time>2020-08-02T12:22:38.546Z</time>
      </trkpt>
      <trkpt lat="62.84809" lon="7.09684">
        <ele>81.015004</ele>
        <time>2020-08-02T12:22:41.541Z</time>
      </trkpt>
      <trkpt lat="62.84808" lon="7.09665">
        <ele>81.206999</ele>
        <time>2020-08-02T12:22:44.542Z</time>
      </trkpt>
      <trkpt lat="62.84805" lon="7.09645">
        <ele>81.403795</ele>
        <time>2020-08-02T12:22:47.591Z</time>
      </trkpt>
      <trkpt lat="62.84803" lon="7.09625">
        <ele>81.604891</ele>
        <time>2020-08-02T12:22:50.546Z</time>
      </trkpt>
      <trkpt lat="62.848" lon="7.09606">
        <ele>81.800576</ele>
        <time>2020-08-02T12:22:53.549Z</time>
      </trkpt>
      <trkpt lat="62.84798" lon="7.09586">
        <ele>81.994548</ele>
        <time>2020-08-02T12:22:56.553Z</time>
      </trkpt>
      <trkpt lat="62.84795" lon="7.09561">
        <ele>82.244869</ele>
        <time>2020-08-02T12:23:00.551Z</time>
      </trkpt>
      <trkpt lat="62.84793" lon="7.09542">
        <ele>82.439391</ele>
        <time>2020-08-02T12:23:03.543Z</time>
      </trkpt>
      <trkpt lat="62.8479" lon="7.09523">
        <ele>82.637292</ele>
        <time>2020-08-02T12:23:06.531Z</time>
      </trkpt>
      <trkpt lat="62.84787" lon="7.09498">
        <ele>82.888845</ele>
        <time>2020-08-02T12:23:10.532Z</time>
      </trkpt>
      <trkpt lat="62.84785" lon="7.09479">
        <ele>83.080554</ele>
        <time>2020-08-02T12:23:13.530Z</time>
      </trkpt>
      <trkpt lat="62.84782" lon="7.09457">
        <ele>83.295772</ele>
        <time>2020-08-02T12:23:16.589Z</time>
      </trkpt>
      <trkpt lat="62.84779" lon="7.09434">
        <ele>83.528749</ele>
        <time>2020-08-02T12:23:19.566Z</time>
      </trkpt>
      <trkpt lat="62.84776" lon="7.09411">
        <ele>83.761027</ele>
        <time>2020-08-02T12:23:22.531Z</time>
      </trkpt>
      <trkpt lat="62.84773" lon="7.09388">
        <ele>83.997757</ele>
        <time>2020-08-02T12:23:25.537Z</time>
      </trkpt>
      <trkpt lat="62.8477" lon="7.09364">
        <ele>84.233353</ele>
        <time>2020-08-02T12:23:28.553Z</time>
      </trkpt>
      <trkpt lat="62.84768" lon="7.09341">
        <ele>84.370523</ele>
        <time>2020-08-02T12:23:31.535Z</time>
      </trkpt>
      <trkpt lat="62.84766" lon="7.09318">
        <ele>84.393058</ele>
        <time>2020-08-02T12:23:34.541Z</time>
      </trkpt>
      <trkpt lat="62.84763" lon="7.09296">
        <ele>84.414643</ele>
        <time>2020-08-02T12:23:37.535Z</time>
      </trkpt>
      <trkpt lat="62.84761" lon="7.09273">
        <ele>84.436857</ele>
        <time>2020-08-02T12:23:40.556Z</time>
      </trkpt>
      <trkpt lat="62.84758" lon="7.09249">
        <ele>84.460174</ele>
        <time>2020-08-02T12:23:43.537Z</time>
      </trkpt>
      <trkpt lat="62.84756" lon="7.09225">
        <ele>84.482757</ele>
        <time>2020-08-02T12:23:46.528Z</time>
      </trkpt>
      <trkpt lat="62.84754" lon="7.092">
        <ele>84.507316</ele>
        <time>2020-08-02T12:23:49.540Z</time>
      </trkpt>
      <trkpt lat="62.84751" lon="7.09174">
        <ele>84.532015</ele>
        <time>2020-08-02T12:23:52.532Z</time>
      </trkpt>
      <trkpt lat="62.84749" lon="7.09148">
        <ele>84.557001</ele>
        <time>2020-08-02T12:23:55.524Z</time>
      </trkpt>
      <trkpt lat="62.84746" lon="7.09123">
        <ele>84.581836</ele>
        <time>2020-08-02T12:23:58.530Z</time>
      </trkpt>
      <trkpt lat="62.84743" lon="7.09097">
        <ele>84.606533</ele>
        <time>2020-08-02T12:24:01.532Z</time>
      </trkpt>
      <trkpt lat="62.84741" lon="7.09072">
        <ele>84.631418</ele>
        <time>2020-08-02T12:24:04.548Z</time>
      </trkpt>
      <trkpt lat="62.84738" lon="7.09046">
        <ele>84.656273</ele>
        <time>2020-08-02T12:24:07.549Z</time>
      </trkpt>
      <trkpt lat="62.84736" lon="7.09019">
        <ele>84.681816</ele>
        <time>2020-08-02T12:24:10.536Z</time>
      </trkpt>
      <trkpt lat="62.84734" lon="7.08991">
        <ele>84.70888</ele>
        <time>2020-08-02T12:24:13.532Z</time>
      </trkpt>
      <trkpt lat="62.84732" lon="7.08971">
        <ele>84.727536</ele>
        <time>2020-08-02T12:24:15.565Z</time>
      </trkpt>
      <trkpt lat="62.84731" lon="7.08951">
        <ele>84.575581</ele>
        <time>2020-08-02T12:24:17.540Z</time>
      </trkpt>
      <trkpt lat="62.84729" lon="7.0893">
        <ele>84.349572</ele>
        <time>2020-08-02T12:24:19.554Z</time>
      </trkpt>
      <trkpt lat="62.84726" lon="7.08907">
        <ele>84.104173</ele>
        <time>2020-08-02T12:24:21.544Z</time>
      </trkpt>
      <trkpt lat="62.84724" lon="7.08885">
        <ele>83.858328</ele>
        <time>2020-08-02T12:24:23.553Z</time>
      </trkpt>
      <trkpt lat="62.84721" lon="7.08861">
        <ele>83.603864</ele>
        <time>2020-08-02T12:24:25.553Z</time>
      </trkpt>
      <trkpt lat="62.84719" lon="7.08837">
        <ele>83.342767</ele>
        <time>2020-08-02T12:24:27.540Z</time>
      </trkpt>
      <trkpt lat="62.84716" lon="7.08812">
        <ele>83.0837</ele>
        <time>2020-08-02T12:24:29.534Z</time>
      </trkpt>
      <trkpt lat="62.84714" lon="7.08788">
        <ele>82.827619</ele>
        <time>2020-08-02T12:24:31.583Z</time>
      </trkpt>
      <trkpt lat="62.84712" lon="7.08764">
        <ele>82.56753</ele>
        <time>2020-08-02T12:24:33.548Z</time>
      </trkpt>
      <trkpt lat="62.84709" lon="7.08739">
        <ele>82.299716</ele>
        <time>2020-08-02T12:24:35.586Z</time>
      </trkpt>
      <trkpt lat="62.84707" lon="7.08712">
        <ele>82.015303</ele>
        <time>2020-08-02T12:24:37.561Z</time>
      </trkpt>
      <trkpt lat="62.84705" lon="7.08688">
        <ele>81.752106</ele>
        <time>2020-08-02T12:24:39.563Z</time>
      </trkpt>
      <trkpt lat="62.84702" lon="7.08663">
        <ele>81.485864</ele>
        <time>2020-08-02T12:24:41.538Z</time>
      </trkpt>
      <trkpt lat="62.847" lon="7.08638">
        <ele>81.217638</ele>
        <time>2020-08-02T12:24:43.570Z</time>
      </trkpt>
      <trkpt lat="62.84697" lon="7.08611">
        <ele>80.931482</ele>
        <time>2020-08-02T12:24:45.558Z</time>
      </trkpt>
      <trkpt lat="62.84694" lon="7.08584">
        <ele>80.643829</ele>
        <time>2020-08-02T12:24:47.551Z</time>
      </trkpt>
      <trkpt lat="62.84691" lon="7.08557">
        <ele>80.592963</ele>
        <time>2020-08-02T12:24:49.572Z</time>
      </trkpt>
      <trkpt lat="62.84687" lon="7.08531">
        <ele>80.574665</ele>
        <time>2020-08-02T12:24:51.552Z</time>
      </trkpt>
      <trkpt lat="62.84683" lon="7.08503">
        <ele>80.554925</ele>
        <time>2020-08-02T12:24:53.541Z</time>
      </trkpt>
      <trkpt lat="62.84679" lon="7.08474">
        <ele>80.534886</ele>
        <time>2020-08-02T12:24:55.533Z</time>
      </trkpt>
      <trkpt lat="62.84675" lon="7.08446">
        <ele>80.514972</ele>
        <time>2020-08-02T12:24:57.562Z</time>
      </trkpt>
      <trkpt lat="62.8467" lon="7.08418">
        <ele>80.495332</ele>
        <time>2020-08-02T12:24:59.555Z</time>
      </trkpt>
      <trkpt lat="62.84665" lon="7.08391">
        <ele>80.475834</ele>
        <time>2020-08-02T12:25:01.571Z</time>
      </trkpt>
      <trkpt lat="62.8466" lon="7.08365">
        <ele>80.456227</ele>
        <time>2020-08-02T12:25:03.545Z</time>
      </trkpt>
      <trkpt lat="62.84654" lon="7.0834">
        <ele>80.437459</ele>
        <time>2020-08-02T12:25:05.532Z</time>
      </trkpt>
      <trkpt lat="62.84648" lon="7.08316">
        <ele>80.419541</ele>
        <time>2020-08-02T12:25:07.530Z</time>
      </trkpt>
      <trkpt lat="62.84642" lon="7.08295">
        <ele>80.402656</ele>
        <time>2020-08-02T12:25:09.544Z</time>
      </trkpt>
      <trkpt lat="62.84636" lon="7.08274">
        <ele>80.386246</ele>
        <time>2020-08-02T12:25:11.544Z</time>
      </trkpt>
      <trkpt lat="62.84631" lon="7.08255">
        <ele>80.371077</ele>
        <time>2020-08-02T12:25:13.564Z</time>
      </trkpt>
      <trkpt lat="62.84625" lon="7.08237">
        <ele>80.35625</ele>
        <time>2020-08-02T12:25:15.547Z</time>
      </trkpt>
      <trkpt lat="62.84617" lon="7.08214">
        <ele>80.476748</ele>
        <time>2020-08-02T12:25:18.565Z</time>
      </trkpt>
      <trkpt lat="62.84611" lon="7.08196">
        <ele>80.712539</ele>
        <time>2020-08-02T12:25:21.570Z</time>
      </trkpt>
      <trkpt lat="62.84604" lon="7.08176">
        <ele>80.979418</ele>
        <time>2020-08-02T12:25:25.542Z</time>
      </trkpt>
      <trkpt lat="62.84597" lon="7.08156">
        <ele>81.238528</ele>
        <time>2020-08-02T12:25:29.536Z</time>
      </trkpt>
      <trkpt lat="62.8459" lon="7.08136">
        <ele>81.498473</ele>
        <time>2020-08-02T12:25:33.547Z</time>
      </trkpt>
      <trkpt lat="62.84584" lon="7.08114">
        <ele>81.763922</ele>
        <time>2020-08-02T12:25:37.548Z</time>
      </trkpt>
      <trkpt lat="62.84577" lon="7.08093">
        <ele>82.029372</ele>
        <time>2020-08-02T12:25:41.533Z</time>
      </trkpt>
      <trkpt lat="62.84572" lon="7.08077">
        <ele>82.233839</ele>
        <time>2020-08-02T12:25:44.553Z</time>
      </trkpt>
      <trkpt lat="62.84567" lon="7.08061">
        <ele>82.439467</ele>
        <time>2020-08-02T12:25:47.533Z</time>
      </trkpt>
      <trkpt lat="62.84561" lon="7.08045">
        <ele>82.648712</ele>
        <time>2020-08-02T12:25:50.540Z</time>
      </trkpt>
      <trkpt lat="62.84556" lon="7.08029">
        <ele>82.852436</ele>
        <time>2020-08-02T12:25:53.587Z</time>
      </trkpt>
      <trkpt lat="62.84549" lon="7.08011">
        <ele>83.090321</ele>
        <time>2020-08-02T12:25:57.561Z</time>
      </trkpt>
      <trkpt lat="62.84543" lon="7.0799">
        <ele>83.352668</ele>
        <time>2020-08-02T12:26:01.530Z</time>
      </trkpt>
      <trkpt lat="62.84536" lon="7.07973">
        <ele>83.586469</ele>
        <time>2020-08-02T12:26:04.528Z</time>
      </trkpt>
      <trkpt lat="62.84531" lon="7.07955">
        <ele>83.811525</ele>
        <time>2020-08-02T12:26:07.543Z</time>
      </trkpt>
      <trkpt lat="62.84525" lon="7.07936">
        <ele>84.049494</ele>
        <time>2020-08-02T12:26:10.560Z</time>
      </trkpt>
      <trkpt lat="62.84519" lon="7.07917">
        <ele>84.28746</ele>
        <time>2020-08-02T12:26:13.531Z</time>
      </trkpt>
      <trkpt lat="62.84513" lon="7.07898">
        <ele>84.408686</ele>
        <time>2020-08-02T12:26:16.553Z</time>
      </trkpt>
      <trkpt lat="62.84507" lon="7.07877">
        <ele>84.316674</ele>
        <time>2020-08-02T12:26:19.556Z</time>
      </trkpt>
      <trkpt lat="62.845" lon="7.07858">
        <ele>84.225659</ele>
        <time>2020-08-02T12:26:22.540Z</time>
      </trkpt>
      <trkpt lat="62.84493" lon="7.07838">
        <ele>84.135126</ele>
        <time>2020-08-02T12:26:25.563Z</time>
      </trkpt>
      <trkpt lat="62.84485" lon="7.07817">
        <ele>84.029433</ele>
        <time>2020-08-02T12:26:28.561Z</time>
      </trkpt>
      <trkpt lat="62.84478" lon="7.07799">
        <ele>83.943385</ele>
        <time>2020-08-02T12:26:30.544Z</time>
      </trkpt>
      <trkpt lat="62.84472" lon="7.0778">
        <ele>83.857931</ele>
        <time>2020-08-02T12:26:32.569Z</time>
      </trkpt>
      <trkpt lat="62.84465" lon="7.0776">
        <ele>83.766523</ele>
        <time>2020-08-02T12:26:34.534Z</time>
      </trkpt>
      <trkpt lat="62.84458" lon="7.07739">
        <ele>83.66803</ele>
        <time>2020-08-02T12:26:36.550Z</time>
      </trkpt>
      <trkpt lat="62.8445" lon="7.07716">
        <ele>83.55903</ele>
        <time>2020-08-02T12:26:38.552Z</time>
      </trkpt>
      <trkpt lat="62.84441" lon="7.07691">
        <ele>83.442857</ele>
        <time>2020-08-02T12:26:40.551Z</time>
      </trkpt>
      <trkpt lat="62.84432" lon="7.07664">
        <ele>83.318326</ele>
        <time>2020-08-02T12:26:42.544Z</time>
      </trkpt>
      <trkpt lat="62.84422" lon="7.07637">
        <ele>83.191931</ele>
        <time>2020-08-02T12:26:44.530Z</time>
      </trkpt>
      <trkpt lat="62.84413" lon="7.07611">
        <ele>83.071629</ele>
        <time>2020-08-02T12:26:46.549Z</time>
      </trkpt>
      <trkpt lat="62.84405" lon="7.07588">
        <ele>83.019878</ele>
        <time>2020-08-02T12:26:48.560Z</time>
      </trkpt>
      <trkpt lat="62.84397" lon="7.07566">
        <ele>83.23882</ele>
        <time>2020-08-02T12:26:50.532Z</time>
      </trkpt>
      <trkpt lat="62.84389" lon="7.07543">
        <ele>83.452691</ele>
        <time>2020-08-02T12:26:52.537Z</time>
      </trkpt>
      <trkpt lat="62.84382" lon="7.07521">
        <ele>83.669306</ele>
        <time>2020-08-02T12:26:54.569Z</time>
      </trkpt>
      <trkpt lat="62.84374" lon="7.07499">
        <ele>83.878787</ele>
        <time>2020-08-02T12:26:56.582Z</time>
      </trkpt>
      <trkpt lat="62.84368" lon="7.07477">
        <ele>84.079886</ele>
        <time>2020-08-02T12:26:58.560Z</time>
      </trkpt>
      <trkpt lat="62.84361" lon="7.07458">
        <ele>84.261565</ele>
        <time>2020-08-02T12:27:00.562Z</time>
      </trkpt>
      <trkpt lat="62.84356" lon="7.07441">
        <ele>84.420923</ele>
        <time>2020-08-02T12:27:02.547Z</time>
      </trkpt>
      <trkpt lat="62.84349" lon="7.07417">
        <ele>84.643711</ele>
        <time>2020-08-02T12:27:05.545Z</time>
      </trkpt>
      <trkpt lat="62.84343" lon="7.07397">
        <ele>84.827944</ele>
        <time>2020-08-02T12:27:08.565Z</time>
      </trkpt>
      <trkpt lat="62.84337" lon="7.0738">
        <ele>84.997876</ele>
        <time>2020-08-02T12:27:11.549Z</time>
      </trkpt>
      <trkpt lat="62.8433" lon="7.07359">
        <ele>85.195881</ele>
        <time>2020-08-02T12:27:15.554Z</time>
      </trkpt>
      <trkpt lat="62.84324" lon="7.07338">
        <ele>85.389729</ele>
        <time>2020-08-02T12:27:19.546Z</time>
      </trkpt>
      <trkpt lat="62.84318" lon="7.07321">
        <ele>85.547487</ele>
        <time>2020-08-02T12:27:22.584Z</time>
      </trkpt>
      <trkpt lat="62.84313" lon="7.07305">
        <ele>85.702448</ele>
        <time>2020-08-02T12:27:25.545Z</time>
      </trkpt>
      <trkpt lat="62.84308" lon="7.07287">
        <ele>85.86658</ele>
        <time>2020-08-02T12:27:28.533Z</time>
      </trkpt>
      <trkpt lat="62.84302" lon="7.0727">
        <ele>86.052409</ele>
        <time>2020-08-02T12:27:31.552Z</time>
      </trkpt>
      <trkpt lat="62.84295" lon="7.07249">
        <ele>86.522775</ele>
        <time>2020-08-02T12:27:34.585Z</time>
      </trkpt>
      <trkpt lat="62.84288" lon="7.07229">
        <ele>87.015547</ele>
        <time>2020-08-02T12:27:37.540Z</time>
      </trkpt>
      <trkpt lat="62.8428" lon="7.07207">
        <ele>87.537958</ele>
        <time>2020-08-02T12:27:40.545Z</time>
      </trkpt>
      <trkpt lat="62.84273" lon="7.07186">
        <ele>88.039857</ele>
        <time>2020-08-02T12:27:43.548Z</time>
      </trkpt>
      <trkpt lat="62.84265" lon="7.07165">
        <ele>88.546226</ele>
        <time>2020-08-02T12:27:46.568Z</time>
      </trkpt>
      <trkpt lat="62.84258" lon="7.07142">
        <ele>89.076219</ele>
        <time>2020-08-02T12:27:49.527Z</time>
      </trkpt>
      <trkpt lat="62.8425" lon="7.07121">
        <ele>89.582654</ele>
        <time>2020-08-02T12:27:52.537Z</time>
      </trkpt>
      <trkpt lat="62.84244" lon="7.071">
        <ele>90.060059</ele>
        <time>2020-08-02T12:27:55.546Z</time>
      </trkpt>
      <trkpt lat="62.84237" lon="7.0708">
        <ele>90.533246</ele>
        <time>2020-08-02T12:27:58.555Z</time>
      </trkpt>
      <trkpt lat="62.8423" lon="7.07062">
        <ele>90.985951</ele>
        <time>2020-08-02T12:28:01.529Z</time>
      </trkpt>
      <trkpt lat="62.84224" lon="7.07043">
        <ele>91.419962</ele>
        <time>2020-08-02T12:28:04.556Z</time>
      </trkpt>
      <trkpt lat="62.84218" lon="7.07024">
        <ele>91.855081</ele>
        <time>2020-08-02T12:28:07.554Z</time>
      </trkpt>
      <trkpt lat="62.84212" lon="7.07009">
        <ele>92.229382</ele>
        <time>2020-08-02T12:28:10.528Z</time>
      </trkpt>
      <trkpt lat="62.84206" lon="7.06991">
        <ele>92.655397</ele>
        <time>2020-08-02T12:28:14.564Z</time>
      </trkpt>
      <trkpt lat="62.842" lon="7.06974">
        <ele>93.050785</ele>
        <time>2020-08-02T12:28:18.531Z</time>
      </trkpt>
      <trkpt lat="62.84194" lon="7.06955">
        <ele>93.482543</ele>
        <time>2020-08-02T12:28:22.597Z</time>
      </trkpt>
      <trkpt lat="62.84188" lon="7.06935">
        <ele>93.401363</ele>
        <time>2020-08-02T12:28:26.547Z</time>
      </trkpt>
      <trkpt lat="62.84182" lon="7.06918">
        <ele>93.334064</ele>
        <time>2020-08-02T12:28:29.562Z</time>
      </trkpt>
      <trkpt lat="62.84177" lon="7.06901">
        <ele>93.263834</ele>
        <time>2020-08-02T12:28:32.528Z</time>
      </trkpt>
      <trkpt lat="62.84171" lon="7.06882">
        <ele>93.187238</ele>
        <time>2020-08-02T12:28:35.562Z</time>
      </trkpt>
      <trkpt lat="62.84166" lon="7.06863">
        <ele>93.111942</ele>
        <time>2020-08-02T12:28:38.577Z</time>
      </trkpt>
      <trkpt lat="62.8416" lon="7.06842">
        <ele>93.031285</ele>
        <time>2020-08-02T12:28:41.556Z</time>
      </trkpt>
      <trkpt lat="62.84155" lon="7.06822">
        <ele>92.951127</ele>
        <time>2020-08-02T12:28:44.539Z</time>
      </trkpt>
      <trkpt lat="62.8415" lon="7.06801">
        <ele>92.871804</ele>
        <time>2020-08-02T12:28:47.543Z</time>
      </trkpt>
      <trkpt lat="62.84145" lon="7.06781">
        <ele>92.794347</ele>
        <time>2020-08-02T12:28:50.533Z</time>
      </trkpt>
      <trkpt lat="62.84141" lon="7.0676">
        <ele>92.717543</ele>
        <time>2020-08-02T12:28:53.544Z</time>
      </trkpt>
      <trkpt lat="62.84137" lon="7.06734">
        <ele>92.627644</ele>
        <time>2020-08-02T12:28:56.537Z</time>
      </trkpt>
      <trkpt lat="62.84133" lon="7.06707">
        <ele>92.532716</ele>
        <time>2020-08-02T12:28:59.545Z</time>
      </trkpt>
      <trkpt lat="62.84129" lon="7.0668">
        <ele>92.435416</ele>
        <time>2020-08-02T12:29:02.565Z</time>
      </trkpt>
      <trkpt lat="62.84127" lon="7.0666">
        <ele>92.366514</ele>
        <time>2020-08-02T12:29:04.549Z</time>
      </trkpt>
      <trkpt lat="62.84124" lon="7.06639">
        <ele>92.294534</ele>
        <time>2020-08-02T12:29:06.542Z</time>
      </trkpt>
      <trkpt lat="62.84123" lon="7.06618">
        <ele>92.220879</ele>
        <time>2020-08-02T12:29:08.562Z</time>
      </trkpt>
      <trkpt lat="62.8412" lon="7.06595">
        <ele>92.075837</ele>
        <time>2020-08-02T12:29:10.548Z</time>
      </trkpt>
      <trkpt lat="62.84117" lon="7.06572">
        <ele>91.695006</ele>
        <time>2020-08-02T12:29:12.564Z</time>
      </trkpt>
      <trkpt lat="62.84115" lon="7.06547">
        <ele>91.296949</ele>
        <time>2020-08-02T12:29:14.548Z</time>
      </trkpt>
      <trkpt lat="62.84113" lon="7.06523">
        <ele>90.893518</ele>
        <time>2020-08-02T12:29:16.555Z</time>
      </trkpt>
      <trkpt lat="62.8411" lon="7.06497">
        <ele>90.479216</ele>
        <time>2020-08-02T12:29:18.536Z</time>
      </trkpt>
      <trkpt lat="62.84107" lon="7.06471">
        <ele>90.047083</ele>
        <time>2020-08-02T12:29:20.565Z</time>
      </trkpt>
      <trkpt lat="62.84103" lon="7.06445">
        <ele>89.60634</ele>
        <time>2020-08-02T12:29:22.552Z</time>
      </trkpt>
      <trkpt lat="62.841" lon="7.06417">
        <ele>89.150831</ele>
        <time>2020-08-02T12:29:24.533Z</time>
      </trkpt>
      <trkpt lat="62.84098" lon="7.06389">
        <ele>88.702259</ele>
        <time>2020-08-02T12:29:26.554Z</time>
      </trkpt>
      <trkpt lat="62.84095" lon="7.06363">
        <ele>88.265524</ele>
        <time>2020-08-02T12:29:28.562Z</time>
      </trkpt>
      <trkpt lat="62.84093" lon="7.06334">
        <ele>87.803516</ele>
        <time>2020-08-02T12:29:30.579Z</time>
      </trkpt>
      <trkpt lat="62.8409" lon="7.06306">
        <ele>87.341719</ele>
        <time>2020-08-02T12:29:32.604Z</time>
      </trkpt>
      <trkpt lat="62.84088" lon="7.06277">
        <ele>86.878142</ele>
        <time>2020-08-02T12:29:34.536Z</time>
      </trkpt>
      <trkpt lat="62.84086" lon="7.06248">
        <ele>86.413921</ele>
        <time>2020-08-02T12:29:36.553Z</time>
      </trkpt>
      <trkpt lat="62.84083" lon="7.0622">
        <ele>85.959748</ele>
        <time>2020-08-02T12:29:38.544Z</time>
      </trkpt>
      <trkpt lat="62.8408" lon="7.06194">
        <ele>85.564204</ele>
        <time>2020-08-02T12:29:40.548Z</time>
      </trkpt>
      <trkpt lat="62.84078" lon="7.06167">
        <ele>85.186752</ele>
        <time>2020-08-02T12:29:42.560Z</time>
      </trkpt>
      <trkpt lat="62.84075" lon="7.0614">
        <ele>84.792308</ele>
        <time>2020-08-02T12:29:44.542Z</time>
      </trkpt>
      <trkpt lat="62.84072" lon="7.06112">
        <ele>84.388293</ele>
        <time>2020-08-02T12:29:46.529Z</time>
      </trkpt>
      <trkpt lat="62.84069" lon="7.06083">
        <ele>83.984981</ele>
        <time>2020-08-02T12:29:48.553Z</time>
      </trkpt>
      <trkpt lat="62.84067" lon="7.06055">
        <ele>83.581447</ele>
        <time>2020-08-02T12:29:50.543Z</time>
      </trkpt>
      <trkpt lat="62.84064" lon="7.06027">
        <ele>83.181535</ele>
        <time>2020-08-02T12:29:52.546Z</time>
      </trkpt>
      <trkpt lat="62.84061" lon="7.05999">
        <ele>82.778897</ele>
        <time>2020-08-02T12:29:54.623Z</time>
      </trkpt>
      <trkpt lat="62.84058" lon="7.05972">
        <ele>82.383071</ele>
        <time>2020-08-02T12:29:56.572Z</time>
      </trkpt>
      <trkpt lat="62.84055" lon="7.05945">
        <ele>82.002107</ele>
        <time>2020-08-02T12:29:58.588Z</time>
      </trkpt>
      <trkpt lat="62.84052" lon="7.05917">
        <ele>81.604252</ele>
        <time>2020-08-02T12:30:00.536Z</time>
      </trkpt>
      <trkpt lat="62.8405" lon="7.0589">
        <ele>81.214451</ele>
        <time>2020-08-02T12:30:02.554Z</time>
      </trkpt>
      <trkpt lat="62.84047" lon="7.05862">
        <ele>80.816596</ele>
        <time>2020-08-02T12:30:04.543Z</time>
      </trkpt>
      <trkpt lat="62.84044" lon="7.05835">
        <ele>80.420782</ele>
        <time>2020-08-02T12:30:06.544Z</time>
      </trkpt>
      <trkpt lat="62.84041" lon="7.05807">
        <ele>80.480608</ele>
        <time>2020-08-02T12:30:08.570Z</time>
      </trkpt>
      <trkpt lat="62.84039" lon="7.0578">
        <ele>80.617062</ele>
        <time>2020-08-02T12:30:10.556Z</time>
      </trkpt>
      <trkpt lat="62.84036" lon="7.05754">
        <ele>80.752327</ele>
        <time>2020-08-02T12:30:12.541Z</time>
      </trkpt>
      <trkpt lat="62.84034" lon="7.05728">
        <ele>80.882981</ele>
        <time>2020-08-02T12:30:14.546Z</time>
      </trkpt>
      <trkpt lat="62.84031" lon="7.05703">
        <ele>81.010501</ele>
        <time>2020-08-02T12:30:16.535Z</time>
      </trkpt>
      <trkpt lat="62.84028" lon="7.05679">
        <ele>81.131169</ele>
        <time>2020-08-02T12:30:18.539Z</time>
      </trkpt>
      <trkpt lat="62.84026" lon="7.05656">
        <ele>81.24541</ele>
        <time>2020-08-02T12:30:20.536Z</time>
      </trkpt>
      <trkpt lat="62.8403" lon="7.05636">
        <ele>81.35197</ele>
        <time>2020-08-02T12:30:22.540Z</time>
      </trkpt>
      <trkpt lat="62.84038" lon="7.05627">
        <ele>81.453268</ele>
        <time>2020-08-02T12:30:24.591Z</time>
      </trkpt>
      <trkpt lat="62.84046" lon="7.05612">
        <ele>81.568487</ele>
        <time>2020-08-02T12:30:27.592Z</time>
      </trkpt>
      <trkpt lat="62.84035" lon="7.05597">
        <ele>81.70649</ele>
        <time>2020-08-02T12:30:30.548Z</time>
      </trkpt>
      <trkpt lat="62.84023" lon="7.0559">
        <ele>81.84299</ele>
        <time>2020-08-02T12:30:33.539Z</time>
      </trkpt>
      <trkpt lat="62.84017" lon="7.05572">
        <ele>81.955154</ele>
        <time>2020-08-02T12:30:35.570Z</time>
      </trkpt>
      <trkpt lat="62.84012" lon="7.0555">
        <ele>82.076684</ele>
        <time>2020-08-02T12:30:37.529Z</time>
      </trkpt>
      <trkpt lat="62.84008" lon="7.05525">
        <ele>82.204526</ele>
        <time>2020-08-02T12:30:39.544Z</time>
      </trkpt>
      <trkpt lat="62.84005" lon="7.05498">
        <ele>82.293525</ele>
        <time>2020-08-02T12:30:41.521Z</time>
      </trkpt>
      <trkpt lat="62.84002" lon="7.05471">
        <ele>82.212765</ele>
        <time>2020-08-02T12:30:43.570Z</time>
      </trkpt>
      <trkpt lat="62.83999" lon="7.05443">
        <ele>82.13145</ele>
        <time>2020-08-02T12:30:45.548Z</time>
      </trkpt>
      <trkpt lat="62.83996" lon="7.05414">
        <ele>82.048187</ele>
        <time>2020-08-02T12:30:47.522Z</time>
      </trkpt>
      <trkpt lat="62.83994" lon="7.05386">
        <ele>81.967229</ele>
        <time>2020-08-02T12:30:49.533Z</time>
      </trkpt>
      <trkpt lat="62.83992" lon="7.0536">
        <ele>81.89087</ele>
        <time>2020-08-02T12:30:51.528Z</time>
      </trkpt>
      <trkpt lat="62.83989" lon="7.05335">
        <ele>81.817334</ele>
        <time>2020-08-02T12:30:53.527Z</time>
      </trkpt>
      <trkpt lat="62.83987" lon="7.05312">
        <ele>81.74936</ele>
        <time>2020-08-02T12:30:55.549Z</time>
      </trkpt>
      <trkpt lat="62.83984" lon="7.0529">
        <ele>81.686253</ele>
        <time>2020-08-02T12:30:57.563Z</time>
      </trkpt>
      <trkpt lat="62.83983" lon="7.0527">
        <ele>81.62712</ele>
        <time>2020-08-02T12:30:59.565Z</time>
      </trkpt>
      <trkpt lat="62.83981" lon="7.05249">
        <ele>81.566228</ele>
        <time>2020-08-02T12:31:01.527Z</time>
      </trkpt>
      <trkpt lat="62.83978" lon="7.05227">
        <ele>81.503677</ele>
        <time>2020-08-02T12:31:03.523Z</time>
      </trkpt>
      <trkpt lat="62.83976" lon="7.05204">
        <ele>81.436536</ele>
        <time>2020-08-02T12:31:05.541Z</time>
      </trkpt>
      <trkpt lat="62.83974" lon="7.05181">
        <ele>81.366755</ele>
        <time>2020-08-02T12:31:07.521Z</time>
      </trkpt>
      <trkpt lat="62.83971" lon="7.05156">
        <ele>81.294465</ele>
        <time>2020-08-02T12:31:09.526Z</time>
      </trkpt>
      <trkpt lat="62.83969" lon="7.05131">
        <ele>81.222175</ele>
        <time>2020-08-02T12:31:11.548Z</time>
      </trkpt>
      <trkpt lat="62.83967" lon="7.05105">
        <ele>80.956838</ele>
        <time>2020-08-02T12:31:13.532Z</time>
      </trkpt>
      <trkpt lat="62.83964" lon="7.05077">
        <ele>80.496548</ele>
        <time>2020-08-02T12:31:15.542Z</time>
      </trkpt>
      <trkpt lat="62.83961" lon="7.05047">
        <ele>79.992881</ele>
        <time>2020-08-02T12:31:17.547Z</time>
      </trkpt>
      <trkpt lat="62.83958" lon="7.05014">
        <ele>79.454337</ele>
        <time>2020-08-02T12:31:19.530Z</time>
      </trkpt>
      <trkpt lat="62.83955" lon="7.0498">
        <ele>78.888932</ele>
        <time>2020-08-02T12:31:21.525Z</time>
      </trkpt>
      <trkpt lat="62.83951" lon="7.04945">
        <ele>78.308355</ele>
        <time>2020-08-02T12:31:23.550Z</time>
      </trkpt>
      <trkpt lat="62.83948" lon="7.04909">
        <ele>77.702522</ele>
        <time>2020-08-02T12:31:25.553Z</time>
      </trkpt>
      <trkpt lat="62.83944" lon="7.04871">
        <ele>77.073117</ele>
        <time>2020-08-02T12:31:27.533Z</time>
      </trkpt>
      <trkpt lat="62.8394" lon="7.04832">
        <ele>76.435824</ele>
        <time>2020-08-02T12:31:29.540Z</time>
      </trkpt>
      <trkpt lat="62.83938" lon="7.04813">
        <ele>76.110059</ele>
        <time>2020-08-02T12:31:30.556Z</time>
      </trkpt>
      <trkpt lat="62.83936" lon="7.04793">
        <ele>75.78192</ele>
        <time>2020-08-02T12:31:31.542Z</time>
      </trkpt>
      <trkpt lat="62.83934" lon="7.04773">
        <ele>75.452987</ele>
        <time>2020-08-02T12:31:32.562Z</time>
      </trkpt>
      <trkpt lat="62.83932" lon="7.04754">
        <ele>75.123267</ele>
        <time>2020-08-02T12:31:33.553Z</time>
      </trkpt>
      <trkpt lat="62.8393" lon="7.04734">
        <ele>74.790142</ele>
        <time>2020-08-02T12:31:34.557Z</time>
      </trkpt>
      <trkpt lat="62.83928" lon="7.04714">
        <ele>74.458547</ele>
        <time>2020-08-02T12:31:35.570Z</time>
      </trkpt>
      <trkpt lat="62.83926" lon="7.04695">
        <ele>74.129396</ele>
        <time>2020-08-02T12:31:36.529Z</time>
      </trkpt>
      <trkpt lat="62.83921" lon="7.04657">
        <ele>73.488082</ele>
        <time>2020-08-02T12:31:38.525Z</time>
      </trkpt>
      <trkpt lat="62.83918" lon="7.04622">
        <ele>72.891323</ele>
        <time>2020-08-02T12:31:40.550Z</time>
      </trkpt>
      <trkpt lat="62.83916" lon="7.0459">
        <ele>72.351381</ele>
        <time>2020-08-02T12:31:42.540Z</time>
      </trkpt>
      <trkpt lat="62.83914" lon="7.0456">
        <ele>71.838605</ele>
        <time>2020-08-02T12:31:44.571Z</time>
      </trkpt>
      <trkpt lat="62.83914" lon="7.04528">
        <ele>71.313053</ele>
        <time>2020-08-02T12:31:46.558Z</time>
      </trkpt>
      <trkpt lat="62.83915" lon="7.04495">
        <ele>70.763009</ele>
        <time>2020-08-02T12:31:48.574Z</time>
      </trkpt>
      <trkpt lat="62.83918" lon="7.04462">
        <ele>70.205027</ele>
        <time>2020-08-02T12:31:50.559Z</time>
      </trkpt>
      <trkpt lat="62.83921" lon="7.04429">
        <ele>69.642355</ele>
        <time>2020-08-02T12:31:52.544Z</time>
      </trkpt>
      <trkpt lat="62.83926" lon="7.04397">
        <ele>69.091825</ele>
        <time>2020-08-02T12:31:54.540Z</time>
      </trkpt>
      <trkpt lat="62.83931" lon="7.04367">
        <ele>68.552607</ele>
        <time>2020-08-02T12:31:56.568Z</time>
      </trkpt>
      <trkpt lat="62.83938" lon="7.04337">
        <ele>67.991783</ele>
        <time>2020-08-02T12:31:58.608Z</time>
      </trkpt>
      <trkpt lat="62.83945" lon="7.04306">
        <ele>67.38078</ele>
        <time>2020-08-02T12:32:00.562Z</time>
      </trkpt>
      <trkpt lat="62.83952" lon="7.04273">
        <ele>66.739689</ele>
        <time>2020-08-02T12:32:02.554Z</time>
      </trkpt>
      <trkpt lat="62.83959" lon="7.04237">
        <ele>66.0606</ele>
        <time>2020-08-02T12:32:04.568Z</time>
      </trkpt>
      <trkpt lat="62.83967" lon="7.04203">
        <ele>65.39745</ele>
        <time>2020-08-02T12:32:06.538Z</time>
      </trkpt>
      <trkpt lat="62.83975" lon="7.04174">
        <ele>64.805132</ele>
        <time>2020-08-02T12:32:08.549Z</time>
      </trkpt>
      <trkpt lat="62.83984" lon="7.04155">
        <ele>64.320115</ele>
        <time>2020-08-02T12:32:10.536Z</time>
      </trkpt>
      <trkpt lat="62.8399" lon="7.04136">
        <ele>63.914295</ele>
        <time>2020-08-02T12:32:12.547Z</time>
      </trkpt>
      <trkpt lat="62.83997" lon="7.0411">
        <ele>63.391282</ele>
        <time>2020-08-02T12:32:14.565Z</time>
      </trkpt>
      <trkpt lat="62.84003" lon="7.04078">
        <ele>62.79169</ele>
        <time>2020-08-02T12:32:16.540Z</time>
      </trkpt>
      <trkpt lat="62.8401" lon="7.04045">
        <ele>62.153649</ele>
        <time>2020-08-02T12:32:18.531Z</time>
      </trkpt>
      <trkpt lat="62.84016" lon="7.04011">
        <ele>61.518289</ele>
        <time>2020-08-02T12:32:20.556Z</time>
      </trkpt>
      <trkpt lat="62.84023" lon="7.03979">
        <ele>60.757648</ele>
        <time>2020-08-02T12:32:22.549Z</time>
      </trkpt>
      <trkpt lat="62.84031" lon="7.03948">
        <ele>59.958503</ele>
        <time>2020-08-02T12:32:24.544Z</time>
      </trkpt>
      <trkpt lat="62.84039" lon="7.03917">
        <ele>59.161441</ele>
        <time>2020-08-02T12:32:26.592Z</time>
      </trkpt>
      <trkpt lat="62.84045" lon="7.03883">
        <ele>58.340377</ele>
        <time>2020-08-02T12:32:28.574Z</time>
      </trkpt>
      <trkpt lat="62.84052" lon="7.03849">
        <ele>57.492775</ele>
        <time>2020-08-02T12:32:30.583Z</time>
      </trkpt>
      <trkpt lat="62.8406" lon="7.03815">
        <ele>56.645063</ele>
        <time>2020-08-02T12:32:32.529Z</time>
      </trkpt>
      <trkpt lat="62.84069" lon="7.0378">
        <ele>55.743402</ele>
        <time>2020-08-02T12:32:34.535Z</time>
      </trkpt>
      <trkpt lat="62.84073" lon="7.03763">
        <ele>55.291367</ele>
        <time>2020-08-02T12:32:35.566Z</time>
      </trkpt>
      <trkpt lat="62.84078" lon="7.03744">
        <ele>54.829858</ele>
        <time>2020-08-02T12:32:36.560Z</time>
      </trkpt>
      <trkpt lat="62.84082" lon="7.03726">
        <ele>54.362844</ele>
        <time>2020-08-02T12:32:37.570Z</time>
      </trkpt>
      <trkpt lat="62.84086" lon="7.03707">
        <ele>53.902153</ele>
        <time>2020-08-02T12:32:38.544Z</time>
      </trkpt>
      <trkpt lat="62.84094" lon="7.03673">
        <ele>53.039302</ele>
        <time>2020-08-02T12:32:40.556Z</time>
      </trkpt>
      <trkpt lat="62.84102" lon="7.03641">
        <ele>52.545285</ele>
        <time>2020-08-02T12:32:42.532Z</time>
      </trkpt>
      <trkpt lat="62.84112" lon="7.03612">
        <ele>52.656705</ele>
        <time>2020-08-02T12:32:44.545Z</time>
      </trkpt>
      <trkpt lat="62.84121" lon="7.03584">
        <ele>52.762097</ele>
        <time>2020-08-02T12:32:46.534Z</time>
      </trkpt>
      <trkpt lat="62.84128" lon="7.03558">
        <ele>52.858499</ele>
        <time>2020-08-02T12:32:48.581Z</time>
      </trkpt>
      <trkpt lat="62.84136" lon="7.03534">
        <ele>52.948685</ele>
        <time>2020-08-02T12:32:50.563Z</time>
      </trkpt>
      <trkpt lat="62.84143" lon="7.03511">
        <ele>53.034902</ele>
        <time>2020-08-02T12:32:52.539Z</time>
      </trkpt>
      <trkpt lat="62.84149" lon="7.03489">
        <ele>53.115234</ele>
        <time>2020-08-02T12:32:54.555Z</time>
      </trkpt>
      <trkpt lat="62.84155" lon="7.03468">
        <ele>53.191777</ele>
        <time>2020-08-02T12:32:56.555Z</time>
      </trkpt>
      <trkpt lat="62.8416" lon="7.03448">
        <ele>53.263462</ele>
        <time>2020-08-02T12:32:58.530Z</time>
      </trkpt>
      <trkpt lat="62.84166" lon="7.0343">
        <ele>53.330498</ele>
        <time>2020-08-02T12:33:00.537Z</time>
      </trkpt>
      <trkpt lat="62.84171" lon="7.03413">
        <ele>53.392414</ele>
        <time>2020-08-02T12:33:02.551Z</time>
      </trkpt>
      <trkpt lat="62.84179" lon="7.0339">
        <ele>53.481592</ele>
        <time>2020-08-02T12:33:05.544Z</time>
      </trkpt>
      <trkpt lat="62.84185" lon="7.0337">
        <ele>53.556163</ele>
        <time>2020-08-02T12:33:09.557Z</time>
      </trkpt>
      <trkpt lat="62.8419" lon="7.03354">
        <ele>53.617303</ele>
        <time>2020-08-02T12:33:13.550Z</time>
      </trkpt>
      <trkpt lat="62.84194" lon="7.03332">
        <ele>53.692321</ele>
        <time>2020-08-02T12:33:18.559Z</time>
      </trkpt>
      <trkpt lat="62.842" lon="7.03315">
        <ele>53.865097</ele>
        <time>2020-08-02T12:33:22.553Z</time>
      </trkpt>
      <trkpt lat="62.84205" lon="7.03299">
        <ele>54.152847</ele>
        <time>2020-08-02T12:33:26.583Z</time>
      </trkpt>
      <trkpt lat="62.84211" lon="7.03281">
        <ele>54.475821</ele>
        <time>2020-08-02T12:33:30.559Z</time>
      </trkpt>
      <trkpt lat="62.84217" lon="7.03261">
        <ele>54.824774</ele>
        <time>2020-08-02T12:33:34.539Z</time>
      </trkpt>
      <trkpt lat="62.84222" lon="7.0324">
        <ele>55.173222</ele>
        <time>2020-08-02T12:33:39.556Z</time>
      </trkpt>
      <trkpt lat="62.84228" lon="7.03219">
        <ele>55.519279</ele>
        <time>2020-08-02T12:33:44.552Z</time>
      </trkpt>
      <trkpt lat="62.84234" lon="7.03198">
        <ele>55.876977</ele>
        <time>2020-08-02T12:33:49.565Z</time>
      </trkpt>
      <trkpt lat="62.84239" lon="7.03181">
        <ele>56.173605</ele>
        <time>2020-08-02T12:33:53.581Z</time>
      </trkpt>
      <trkpt lat="62.84245" lon="7.03163">
        <ele>56.492586</ele>
        <time>2020-08-02T12:33:57.551Z</time>
      </trkpt>
      <trkpt lat="62.84251" lon="7.03144">
        <ele>56.823958</ele>
        <time>2020-08-02T12:34:01.560Z</time>
      </trkpt>
      <trkpt lat="62.84257" lon="7.03128">
        <ele>57.126073</ele>
        <time>2020-08-02T12:34:05.551Z</time>
      </trkpt>
      <trkpt lat="62.84263" lon="7.03113">
        <ele>57.411459</ele>
        <time>2020-08-02T12:34:09.547Z</time>
      </trkpt>
      <trkpt lat="62.84269" lon="7.03095">
        <ele>57.73878</ele>
        <time>2020-08-02T12:34:13.559Z</time>
      </trkpt>
      <trkpt lat="62.84276" lon="7.03076">
        <ele>58.085824</ele>
        <time>2020-08-02T12:34:17.528Z</time>
      </trkpt>
      <trkpt lat="62.84283" lon="7.03059">
        <ele>58.42685</ele>
        <time>2020-08-02T12:34:21.536Z</time>
      </trkpt>
      <trkpt lat="62.8429" lon="7.03041">
        <ele>58.76557</ele>
        <time>2020-08-02T12:34:25.548Z</time>
      </trkpt>
      <trkpt lat="62.84296" lon="7.03026">
        <ele>59.051958</ele>
        <time>2020-08-02T12:34:28.547Z</time>
      </trkpt>
      <trkpt lat="62.84302" lon="7.0301">
        <ele>59.347565</ele>
        <time>2020-08-02T12:34:31.591Z</time>
      </trkpt>
      <trkpt lat="62.84304" lon="7.02991">
        <ele>59.649745</ele>
        <time>2020-08-02T12:34:34.571Z</time>
      </trkpt>
      <trkpt lat="62.84303" lon="7.02971">
        <ele>59.964421</ele>
        <time>2020-08-02T12:34:37.551Z</time>
      </trkpt>
      <trkpt lat="62.84305" lon="7.0295">
        <ele>60.297873</ele>
        <time>2020-08-02T12:34:40.564Z</time>
      </trkpt>
      <trkpt lat="62.8431" lon="7.02933">
        <ele>60.624081</ele>
        <time>2020-08-02T12:34:43.553Z</time>
      </trkpt>
      <trkpt lat="62.84317" lon="7.02917">
        <ele>60.959014</ele>
        <time>2020-08-02T12:34:46.553Z</time>
      </trkpt>
      <trkpt lat="62.84323" lon="7.02902">
        <ele>61.29051</ele>
        <time>2020-08-02T12:34:49.534Z</time>
      </trkpt>
      <trkpt lat="62.8433" lon="7.02887">
        <ele>61.617361</ele>
        <time>2020-08-02T12:34:52.538Z</time>
      </trkpt>
      <trkpt lat="62.84337" lon="7.02872">
        <ele>61.952431</ele>
        <time>2020-08-02T12:34:55.563Z</time>
      </trkpt>
      <trkpt lat="62.84344" lon="7.02859">
        <ele>62.276118</ele>
        <time>2020-08-02T12:34:58.573Z</time>
      </trkpt>
      <trkpt lat="62.84352" lon="7.02845">
        <ele>62.617339</ele>
        <time>2020-08-02T12:35:01.546Z</time>
      </trkpt>
      <trkpt lat="62.84359" lon="7.02832">
        <ele>62.95042</ele>
        <time>2020-08-02T12:35:04.549Z</time>
      </trkpt>
      <trkpt lat="62.84367" lon="7.0282">
        <ele>63.281717</ele>
        <time>2020-08-02T12:35:07.536Z</time>
      </trkpt>
      <trkpt lat="62.84375" lon="7.02809">
        <ele>63.600253</ele>
        <time>2020-08-02T12:35:10.548Z</time>
      </trkpt>
      <trkpt lat="62.84383" lon="7.02798">
        <ele>63.909067</ele>
        <time>2020-08-02T12:35:13.578Z</time>
      </trkpt>
      <trkpt lat="62.84393" lon="7.02786">
        <ele>64.304776</ele>
        <time>2020-08-02T12:35:17.536Z</time>
      </trkpt>
      <trkpt lat="62.84402" lon="7.02774">
        <ele>64.676533</ele>
        <time>2020-08-02T12:35:21.533Z</time>
      </trkpt>
      <trkpt lat="62.8441" lon="7.02762">
        <ele>65.020721</ele>
        <time>2020-08-02T12:35:25.544Z</time>
      </trkpt>
      <trkpt lat="62.8442" lon="7.0275">
        <ele>65.399196</ele>
        <time>2020-08-02T12:35:30.534Z</time>
      </trkpt>
      <trkpt lat="62.84428" lon="7.02737">
        <ele>65.706839</ele>
        <time>2020-08-02T12:35:35.559Z</time>
      </trkpt>
      <trkpt lat="62.84437" lon="7.02724">
        <ele>65.967736</ele>
        <time>2020-08-02T12:35:40.549Z</time>
      </trkpt>
      <trkpt lat="62.84446" lon="7.02712">
        <ele>66.218047</ele>
        <time>2020-08-02T12:35:45.568Z</time>
      </trkpt>
      <trkpt lat="62.84456" lon="7.027">
        <ele>66.488745</ele>
        <time>2020-08-02T12:35:50.554Z</time>
      </trkpt>
      <trkpt lat="62.84465" lon="7.02688">
        <ele>66.745821</ele>
        <time>2020-08-02T12:35:55.548Z</time>
      </trkpt>
      <trkpt lat="62.84473" lon="7.02676">
        <ele>66.997937</ele>
        <time>2020-08-02T12:36:00.553Z</time>
      </trkpt>
      <trkpt lat="62.84482" lon="7.02664">
        <ele>67.236071</ele>
        <time>2020-08-02T12:36:04.536Z</time>
      </trkpt>
      <trkpt lat="62.8449" lon="7.02654">
        <ele>67.465117</ele>
        <time>2020-08-02T12:36:08.589Z</time>
      </trkpt>
      <trkpt lat="62.84499" lon="7.02642">
        <ele>67.734082</ele>
        <time>2020-08-02T12:36:12.593Z</time>
      </trkpt>
      <trkpt lat="62.84508" lon="7.02632">
        <ele>67.97723</ele>
        <time>2020-08-02T12:36:15.541Z</time>
      </trkpt>
      <trkpt lat="62.84519" lon="7.0262">
        <ele>68.262228</ele>
        <time>2020-08-02T12:36:18.574Z</time>
      </trkpt>
      <trkpt lat="62.84531" lon="7.02607">
        <ele>68.582915</ele>
        <time>2020-08-02T12:36:21.558Z</time>
      </trkpt>
      <trkpt lat="62.84539" lon="7.02597">
        <ele>68.819411</ele>
        <time>2020-08-02T12:36:23.581Z</time>
      </trkpt>
      <trkpt lat="62.84549" lon="7.02586">
        <ele>69.080414</ele>
        <time>2020-08-02T12:36:25.557Z</time>
      </trkpt>
      <trkpt lat="62.8456" lon="7.02574">
        <ele>69.375249</ele>
        <time>2020-08-02T12:36:27.561Z</time>
      </trkpt>
      <trkpt lat="62.84571" lon="7.02562">
        <ele>69.69024</ele>
        <time>2020-08-02T12:36:29.544Z</time>
      </trkpt>
      <trkpt lat="62.84583" lon="7.02548">
        <ele>69.912314</ele>
        <time>2020-08-02T12:36:31.581Z</time>
      </trkpt>
      <trkpt lat="62.84597" lon="7.02533">
        <ele>69.370797</ele>
        <time>2020-08-02T12:36:33.568Z</time>
      </trkpt>
      <trkpt lat="62.84611" lon="7.02517">
        <ele>68.781904</ele>
        <time>2020-08-02T12:36:35.566Z</time>
      </trkpt>
      <trkpt lat="62.84626" lon="7.02501">
        <ele>68.183483</ele>
        <time>2020-08-02T12:36:37.543Z</time>
      </trkpt>
      <trkpt lat="62.8464" lon="7.02484">
        <ele>67.57399</ele>
        <time>2020-08-02T12:36:39.549Z</time>
      </trkpt>
      <trkpt lat="62.84655" lon="7.02467">
        <ele>66.958941</ele>
        <time>2020-08-02T12:36:41.561Z</time>
      </trkpt>
      <trkpt lat="62.8467" lon="7.0245">
        <ele>66.344668</ele>
        <time>2020-08-02T12:36:43.560Z</time>
      </trkpt>
      <trkpt lat="62.84685" lon="7.02432">
        <ele>65.712812</ele>
        <time>2020-08-02T12:36:45.575Z</time>
      </trkpt>
      <trkpt lat="62.84701" lon="7.02414">
        <ele>65.0658</ele>
        <time>2020-08-02T12:36:47.551Z</time>
      </trkpt>
      <trkpt lat="62.84717" lon="7.02396">
        <ele>64.422696</ele>
        <time>2020-08-02T12:36:49.547Z</time>
      </trkpt>
      <trkpt lat="62.84732" lon="7.02378">
        <ele>63.801179</ele>
        <time>2020-08-02T12:36:51.574Z</time>
      </trkpt>
      <trkpt lat="62.84746" lon="7.02362">
        <ele>63.285413</ele>
        <time>2020-08-02T12:36:53.559Z</time>
      </trkpt>
      <trkpt lat="62.8476" lon="7.02346">
        <ele>62.943422</ele>
        <time>2020-08-02T12:36:55.549Z</time>
      </trkpt>
      <trkpt lat="62.84773" lon="7.02331">
        <ele>62.622976</ele>
        <time>2020-08-02T12:36:57.561Z</time>
      </trkpt>
      <trkpt lat="62.84785" lon="7.02317">
        <ele>62.331716</ele>
        <time>2020-08-02T12:36:59.540Z</time>
      </trkpt>
      <trkpt lat="62.84796" lon="7.02304">
        <ele>62.057676</ele>
        <time>2020-08-02T12:37:01.570Z</time>
      </trkpt>
      <trkpt lat="62.84807" lon="7.02291">
        <ele>61.788921</ele>
        <time>2020-08-02T12:37:03.544Z</time>
      </trkpt>
      <trkpt lat="62.84818" lon="7.02279">
        <ele>61.517628</ele>
        <time>2020-08-02T12:37:05.588Z</time>
      </trkpt>
      <trkpt lat="62.84829" lon="7.02266">
        <ele>61.248374</ele>
        <time>2020-08-02T12:37:07.545Z</time>
      </trkpt>
      <trkpt lat="62.84839" lon="7.02254">
        <ele>61.002545</ele>
        <time>2020-08-02T12:37:09.572Z</time>
      </trkpt>
      <trkpt lat="62.84849" lon="7.02243">
        <ele>60.758945</ele>
        <time>2020-08-02T12:37:11.552Z</time>
      </trkpt>
      <trkpt lat="62.84858" lon="7.02233">
        <ele>60.523581</ele>
        <time>2020-08-02T12:37:13.540Z</time>
      </trkpt>
      <trkpt lat="62.84868" lon="7.02222">
        <ele>60.294483</ele>
        <time>2020-08-02T12:37:15.545Z</time>
      </trkpt>
      <trkpt lat="62.84878" lon="7.02211">
        <ele>60.048488</ele>
        <time>2020-08-02T12:37:17.542Z</time>
      </trkpt>
      <trkpt lat="62.84888" lon="7.02201">
        <ele>59.810308</ele>
        <time>2020-08-02T12:37:19.533Z</time>
      </trkpt>
      <trkpt lat="62.84897" lon="7.02191">
        <ele>59.579321</ele>
        <time>2020-08-02T12:37:21.548Z</time>
      </trkpt>
      <trkpt lat="62.84906" lon="7.0218">
        <ele>59.398055</ele>
        <time>2020-08-02T12:37:23.540Z</time>
      </trkpt>
      <trkpt lat="62.84916" lon="7.02168">
        <ele>59.242579</ele>
        <time>2020-08-02T12:37:25.550Z</time>
      </trkpt>
      <trkpt lat="62.84926" lon="7.02155">
        <ele>59.077247</ele>
        <time>2020-08-02T12:37:27.542Z</time>
      </trkpt>
      <trkpt lat="62.84937" lon="7.02143">
        <ele>58.899919</ele>
        <time>2020-08-02T12:37:29.548Z</time>
      </trkpt>
      <trkpt lat="62.8495" lon="7.0213">
        <ele>58.701312</ele>
        <time>2020-08-02T12:37:31.592Z</time>
      </trkpt>
      <trkpt lat="62.84963" lon="7.02115">
        <ele>58.491337</ele>
        <time>2020-08-02T12:37:33.556Z</time>
      </trkpt>
      <trkpt lat="62.84977" lon="7.02099">
        <ele>58.269323</ele>
        <time>2020-08-02T12:37:35.545Z</time>
      </trkpt>
      <trkpt lat="62.84991" lon="7.02083">
        <ele>58.044135</ele>
        <time>2020-08-02T12:37:37.556Z</time>
      </trkpt>
      <trkpt lat="62.85006" lon="7.02066">
        <ele>57.80749</ele>
        <time>2020-08-02T12:37:39.565Z</time>
      </trkpt>
      <trkpt lat="62.8502" lon="7.02049">
        <ele>57.571453</ele>
        <time>2020-08-02T12:37:41.552Z</time>
      </trkpt>
      <trkpt lat="62.85035" lon="7.02033">
        <ele>57.34351</ele>
        <time>2020-08-02T12:37:43.531Z</time>
      </trkpt>
      <trkpt lat="62.85048" lon="7.02018">
        <ele>57.12983</ele>
        <time>2020-08-02T12:37:45.544Z</time>
      </trkpt>
      <trkpt lat="62.85061" lon="7.02003">
        <ele>56.932522</ele>
        <time>2020-08-02T12:37:47.568Z</time>
      </trkpt>
      <trkpt lat="62.85072" lon="7.0199">
        <ele>56.911984</ele>
        <time>2020-08-02T12:37:49.546Z</time>
      </trkpt>
      <trkpt lat="62.85083" lon="7.01978">
        <ele>56.892495</ele>
        <time>2020-08-02T12:37:51.557Z</time>
      </trkpt>
      <trkpt lat="62.85093" lon="7.01966">
        <ele>56.873631</ele>
        <time>2020-08-02T12:37:53.528Z</time>
      </trkpt>
      <trkpt lat="62.85103" lon="7.01955">
        <ele>56.855793</ele>
        <time>2020-08-02T12:37:55.548Z</time>
      </trkpt>
      <trkpt lat="62.85112" lon="7.01944">
        <ele>56.839957</ele>
        <time>2020-08-02T12:37:57.552Z</time>
      </trkpt>
      <trkpt lat="62.8512" lon="7.01933">
        <ele>56.825004</ele>
        <time>2020-08-02T12:37:59.551Z</time>
      </trkpt>
      <trkpt lat="62.85128" lon="7.01924">
        <ele>56.810471</ele>
        <time>2020-08-02T12:38:01.535Z</time>
      </trkpt>
      <trkpt lat="62.85136" lon="7.01915">
        <ele>56.795764</ele>
        <time>2020-08-02T12:38:03.539Z</time>
      </trkpt>
      <trkpt lat="62.85148" lon="7.01901">
        <ele>56.774634</ele>
        <time>2020-08-02T12:38:06.548Z</time>
      </trkpt>
      <trkpt lat="62.85159" lon="7.01888">
        <ele>56.754202</ele>
        <time>2020-08-02T12:38:09.544Z</time>
      </trkpt>
      <trkpt lat="62.8517" lon="7.01875">
        <ele>56.734398</ele>
        <time>2020-08-02T12:38:12.551Z</time>
      </trkpt>
      <trkpt lat="62.85181" lon="7.01863">
        <ele>56.71536</ele>
        <time>2020-08-02T12:38:15.574Z</time>
      </trkpt>
      <trkpt lat="62.85191" lon="7.01851">
        <ele>56.696597</ele>
        <time>2020-08-02T12:38:18.545Z</time>
      </trkpt>
      <trkpt lat="62.85202" lon="7.0184">
        <ele>56.677516</ele>
        <time>2020-08-02T12:38:21.549Z</time>
      </trkpt>
      <trkpt lat="62.85212" lon="7.01829">
        <ele>56.659836</ele>
        <time>2020-08-02T12:38:24.561Z</time>
      </trkpt>
      <trkpt lat="62.85222" lon="7.01818">
        <ele>56.740921</ele>
        <time>2020-08-02T12:38:27.541Z</time>
      </trkpt>
      <trkpt lat="62.85231" lon="7.01808">
        <ele>57.090918</ele>
        <time>2020-08-02T12:38:30.540Z</time>
      </trkpt>
      <trkpt lat="62.85241" lon="7.01798">
        <ele>57.441843</ele>
        <time>2020-08-02T12:38:33.537Z</time>
      </trkpt>
      <trkpt lat="62.85249" lon="7.01787">
        <ele>57.774688</ele>
        <time>2020-08-02T12:38:36.572Z</time>
      </trkpt>
      <trkpt lat="62.85258" lon="7.01776">
        <ele>58.126058</ele>
        <time>2020-08-02T12:38:39.575Z</time>
      </trkpt>
      <trkpt lat="62.85268" lon="7.01765">
        <ele>58.490781</ele>
        <time>2020-08-02T12:38:42.541Z</time>
      </trkpt>
      <trkpt lat="62.85277" lon="7.01754">
        <ele>58.845197</ele>
        <time>2020-08-02T12:38:45.562Z</time>
      </trkpt>
      <trkpt lat="62.85286" lon="7.01744">
        <ele>59.186362</ele>
        <time>2020-08-02T12:38:48.533Z</time>
      </trkpt>
      <trkpt lat="62.85295" lon="7.01735">
        <ele>59.524781</ele>
        <time>2020-08-02T12:38:51.552Z</time>
      </trkpt>
      <trkpt lat="62.85303" lon="7.01725">
        <ele>59.841309</ele>
        <time>2020-08-02T12:38:54.560Z</time>
      </trkpt>
      <trkpt lat="62.85311" lon="7.01716">
        <ele>60.152771</ele>
        <time>2020-08-02T12:38:57.543Z</time>
      </trkpt>
      <trkpt lat="62.8532" lon="7.01706">
        <ele>60.470078</ele>
        <time>2020-08-02T12:39:00.547Z</time>
      </trkpt>
      <trkpt lat="62.85328" lon="7.01697">
        <ele>60.788964</ele>
        <time>2020-08-02T12:39:03.569Z</time>
      </trkpt>
      <trkpt lat="62.85337" lon="7.01686">
        <ele>61.12847</ele>
        <time>2020-08-02T12:39:06.568Z</time>
      </trkpt>
      <trkpt lat="62.85346" lon="7.01677">
        <ele>61.457107</ele>
        <time>2020-08-02T12:39:09.530Z</time>
      </trkpt>
      <trkpt lat="62.85355" lon="7.01667">
        <ele>61.796886</ele>
        <time>2020-08-02T12:39:12.584Z</time>
      </trkpt>
      <trkpt lat="62.85363" lon="7.01658">
        <ele>62.116728</ele>
        <time>2020-08-02T12:39:15.566Z</time>
      </trkpt>
      <trkpt lat="62.85371" lon="7.01648">
        <ele>62.428188</ele>
        <time>2020-08-02T12:39:18.544Z</time>
      </trkpt>
      <trkpt lat="62.8538" lon="7.01639">
        <ele>62.741684</ele>
        <time>2020-08-02T12:39:21.542Z</time>
      </trkpt>
      <trkpt lat="62.85388" lon="7.01628">
        <ele>62.919601</ele>
        <time>2020-08-02T12:39:24.547Z</time>
      </trkpt>
      <trkpt lat="62.85397" lon="7.01619">
        <ele>63.100439</ele>
        <time>2020-08-02T12:39:27.530Z</time>
      </trkpt>
      <trkpt lat="62.85406" lon="7.01609">
        <ele>63.290391</ele>
        <time>2020-08-02T12:39:30.558Z</time>
      </trkpt>
      <trkpt lat="62.85414" lon="7.01599">
        <ele>63.467517</ele>
        <time>2020-08-02T12:39:33.544Z</time>
      </trkpt>
      <trkpt lat="62.85423" lon="7.0159">
        <ele>63.655036</ele>
        <time>2020-08-02T12:39:36.530Z</time>
      </trkpt>
      <trkpt lat="62.85432" lon="7.01579">
        <ele>63.837865</ele>
        <time>2020-08-02T12:39:39.542Z</time>
      </trkpt>
      <trkpt lat="62.8544" lon="7.0157">
        <ele>64.013439</ele>
        <time>2020-08-02T12:39:42.573Z</time>
      </trkpt>
      <trkpt lat="62.85448" lon="7.0156">
        <ele>64.189307</ele>
        <time>2020-08-02T12:39:45.577Z</time>
      </trkpt>
      <trkpt lat="62.85457" lon="7.01551">
        <ele>64.362327</ele>
        <time>2020-08-02T12:39:48.543Z</time>
      </trkpt>
      <trkpt lat="62.85465" lon="7.01542">
        <ele>64.530238</ele>
        <time>2020-08-02T12:39:51.575Z</time>
      </trkpt>
      <trkpt lat="62.85473" lon="7.01534">
        <ele>64.698148</ele>
        <time>2020-08-02T12:39:54.580Z</time>
      </trkpt>
      <trkpt lat="62.85482" lon="7.01526">
        <ele>64.876275</ele>
        <time>2020-08-02T12:39:57.532Z</time>
      </trkpt>
      <trkpt lat="62.85491" lon="7.01517">
        <ele>65.058828</ele>
        <time>2020-08-02T12:40:00.548Z</time>
      </trkpt>
      <trkpt lat="62.85499" lon="7.01509">
        <ele>65.231107</ele>
        <time>2020-08-02T12:40:03.572Z</time>
      </trkpt>
      <trkpt lat="62.85507" lon="7.01501">
        <ele>65.40211</ele>
        <time>2020-08-02T12:40:06.557Z</time>
      </trkpt>
      <trkpt lat="62.85518" lon="7.01492">
        <ele>65.621941</ele>
        <time>2020-08-02T12:40:10.543Z</time>
      </trkpt>
      <trkpt lat="62.85527" lon="7.01484">
        <ele>65.79251</ele>
        <time>2020-08-02T12:40:13.592Z</time>
      </trkpt>
      <trkpt lat="62.85535" lon="7.01476">
        <ele>65.961386</ele>
        <time>2020-08-02T12:40:16.543Z</time>
      </trkpt>
      <trkpt lat="62.85544" lon="7.01468">
        <ele>66.046535</ele>
        <time>2020-08-02T12:40:19.579Z</time>
      </trkpt>
      <trkpt lat="62.85553" lon="7.01462">
        <ele>65.866857</ele>
        <time>2020-08-02T12:40:22.544Z</time>
      </trkpt>
      <trkpt lat="62.85562" lon="7.01456">
        <ele>65.680442</ele>
        <time>2020-08-02T12:40:25.574Z</time>
      </trkpt>
      <trkpt lat="62.85572" lon="7.01452">
        <ele>65.497697</ele>
        <time>2020-08-02T12:40:28.574Z</time>
      </trkpt>
      <trkpt lat="62.85582" lon="7.01448">
        <ele>65.31461</ele>
        <time>2020-08-02T12:40:31.550Z</time>
      </trkpt>
      <trkpt lat="62.85592" lon="7.01445">
        <ele>65.119006</ele>
        <time>2020-08-02T12:40:34.546Z</time>
      </trkpt>
      <trkpt lat="62.85602" lon="7.01442">
        <ele>64.923074</ele>
        <time>2020-08-02T12:40:37.556Z</time>
      </trkpt>
      <trkpt lat="62.85612" lon="7.01439">
        <ele>64.738354</ele>
        <time>2020-08-02T12:40:40.541Z</time>
      </trkpt>
      <trkpt lat="62.85622" lon="7.01435">
        <ele>64.548745</ele>
        <time>2020-08-02T12:40:43.527Z</time>
      </trkpt>
      <trkpt lat="62.85632" lon="7.0143">
        <ele>64.358</ele>
        <time>2020-08-02T12:40:46.579Z</time>
      </trkpt>
      <trkpt lat="62.85642" lon="7.01428">
        <ele>64.168059</ele>
        <time>2020-08-02T12:40:49.539Z</time>
      </trkpt>
      <trkpt lat="62.85652" lon="7.01425">
        <ele>63.978499</ele>
        <time>2020-08-02T12:40:52.547Z</time>
      </trkpt>
      <trkpt lat="62.85663" lon="7.01423">
        <ele>63.781594</ele>
        <time>2020-08-02T12:40:55.556Z</time>
      </trkpt>
      <trkpt lat="62.85673" lon="7.0142">
        <ele>63.587736</ele>
        <time>2020-08-02T12:40:58.561Z</time>
      </trkpt>
      <trkpt lat="62.85685" lon="7.01419">
        <ele>63.374815</ele>
        <time>2020-08-02T12:41:01.577Z</time>
      </trkpt>
      <trkpt lat="62.85696" lon="7.01419">
        <ele>63.160128</ele>
        <time>2020-08-02T12:41:04.550Z</time>
      </trkpt>
      <trkpt lat="62.85707" lon="7.01419">
        <ele>62.949121</ele>
        <time>2020-08-02T12:41:07.549Z</time>
      </trkpt>
      <trkpt lat="62.85719" lon="7.01419">
        <ele>62.738173</ele>
        <time>2020-08-02T12:41:10.540Z</time>
      </trkpt>
      <trkpt lat="62.8573" lon="7.01419">
        <ele>62.899129</ele>
        <time>2020-08-02T12:41:13.539Z</time>
      </trkpt>
      <trkpt lat="62.85741" lon="7.01418">
        <ele>63.071044</ele>
        <time>2020-08-02T12:41:16.557Z</time>
      </trkpt>
      <trkpt lat="62.85751" lon="7.01418">
        <ele>63.236677</ele>
        <time>2020-08-02T12:41:19.534Z</time>
      </trkpt>
      <trkpt lat="62.85762" lon="7.01418">
        <ele>63.405429</ele>
        <time>2020-08-02T12:41:22.538Z</time>
      </trkpt>
      <trkpt lat="62.85773" lon="7.01418">
        <ele>63.578882</ele>
        <time>2020-08-02T12:41:25.557Z</time>
      </trkpt>
      <trkpt lat="62.85785" lon="7.01419">
        <ele>63.761702</ele>
        <time>2020-08-02T12:41:28.557Z</time>
      </trkpt>
      <trkpt lat="62.85797" lon="7.01418">
        <ele>63.952377</ele>
        <time>2020-08-02T12:41:31.537Z</time>
      </trkpt>
      <trkpt lat="62.85809" lon="7.01418">
        <ele>64.14301</ele>
        <time>2020-08-02T12:41:34.551Z</time>
      </trkpt>
      <trkpt lat="62.85822" lon="7.01417">
        <ele>64.335284</ele>
        <time>2020-08-02T12:41:37.540Z</time>
      </trkpt>
      <trkpt lat="62.85834" lon="7.01417">
        <ele>64.530682</ele>
        <time>2020-08-02T12:41:40.537Z</time>
      </trkpt>
      <trkpt lat="62.85847" lon="7.01416">
        <ele>64.727571</ele>
        <time>2020-08-02T12:41:43.545Z</time>
      </trkpt>
      <trkpt lat="62.8586" lon="7.01417">
        <ele>64.932292</ele>
        <time>2020-08-02T12:41:46.552Z</time>
      </trkpt>
      <trkpt lat="62.85873" lon="7.01416">
        <ele>65.133983</ele>
        <time>2020-08-02T12:41:49.551Z</time>
      </trkpt>
      <trkpt lat="62.85886" lon="7.01415">
        <ele>65.337191</ele>
        <time>2020-08-02T12:41:52.561Z</time>
      </trkpt>
      <trkpt lat="62.85895" lon="7.01413">
        <ele>65.481452</ele>
        <time>2020-08-02T12:41:54.553Z</time>
      </trkpt>
      <trkpt lat="62.85904" lon="7.01412">
        <ele>65.483068</ele>
        <time>2020-08-02T12:41:56.582Z</time>
      </trkpt>
      <trkpt lat="62.85914" lon="7.01411">
        <ele>65.368735</ele>
        <time>2020-08-02T12:41:58.544Z</time>
      </trkpt>
      <trkpt lat="62.85923" lon="7.01408">
        <ele>65.256275</ele>
        <time>2020-08-02T12:42:00.543Z</time>
      </trkpt>
      <trkpt lat="62.85934" lon="7.01407">
        <ele>65.133698</ele>
        <time>2020-08-02T12:42:02.545Z</time>
      </trkpt>
      <trkpt lat="62.85945" lon="7.01407">
        <ele>65.003232</ele>
        <time>2020-08-02T12:42:04.551Z</time>
      </trkpt>
      <trkpt lat="62.85956" lon="7.01408">
        <ele>64.867912</ele>
        <time>2020-08-02T12:42:06.541Z</time>
      </trkpt>
      <trkpt lat="62.85969" lon="7.0141">
        <ele>64.714528</ele>
        <time>2020-08-02T12:42:08.545Z</time>
      </trkpt>
      <trkpt lat="62.85982" lon="7.01412">
        <ele>64.559247</ele>
        <time>2020-08-02T12:42:10.549Z</time>
      </trkpt>
      <trkpt lat="62.85995" lon="7.01411">
        <ele>64.4088</ele>
        <time>2020-08-02T12:42:12.560Z</time>
      </trkpt>
      <trkpt lat="62.86008" lon="7.01411">
        <ele>64.258354</ele>
        <time>2020-08-02T12:42:14.584Z</time>
      </trkpt>
      <trkpt lat="62.86021" lon="7.01411">
        <ele>64.107904</ele>
        <time>2020-08-02T12:42:16.537Z</time>
      </trkpt>
      <trkpt lat="62.86034" lon="7.01411">
        <ele>63.952756</ele>
        <time>2020-08-02T12:42:18.558Z</time>
      </trkpt>
      <trkpt lat="62.86046" lon="7.01411">
        <ele>63.805832</ele>
        <time>2020-08-02T12:42:20.546Z</time>
      </trkpt>
      <trkpt lat="62.86059" lon="7.0141">
        <ele>63.663548</ele>
        <time>2020-08-02T12:42:22.537Z</time>
      </trkpt>
      <trkpt lat="62.8607" lon="7.0141">
        <ele>63.528355</ele>
        <time>2020-08-02T12:42:24.536Z</time>
      </trkpt>
      <trkpt lat="62.86081" lon="7.01409">
        <ele>63.412655</ele>
        <time>2020-08-02T12:42:26.545Z</time>
      </trkpt>
      <trkpt lat="62.86092" lon="7.01409">
        <ele>63.337376</ele>
        <time>2020-08-02T12:42:28.543Z</time>
      </trkpt>
      <trkpt lat="62.86102" lon="7.01409">
        <ele>63.264202</ele>
        <time>2020-08-02T12:42:30.569Z</time>
      </trkpt>
      <trkpt lat="62.86112" lon="7.01409">
        <ele>63.195248</ele>
        <time>2020-08-02T12:42:32.551Z</time>
      </trkpt>
      <trkpt lat="62.86121" lon="7.01409">
        <ele>63.129823</ele>
        <time>2020-08-02T12:42:34.543Z</time>
      </trkpt>
      <trkpt lat="62.86134" lon="7.01409">
        <ele>63.041886</ele>
        <time>2020-08-02T12:42:37.555Z</time>
      </trkpt>
      <trkpt lat="62.86145" lon="7.01403">
        <ele>62.961225</ele>
        <time>2020-08-02T12:42:40.543Z</time>
      </trkpt>
      <trkpt lat="62.86156" lon="7.01398">
        <ele>62.877367</ele>
        <time>2020-08-02T12:42:43.546Z</time>
      </trkpt>
      <trkpt lat="62.86167" lon="7.01395">
        <ele>62.800861</ele>
        <time>2020-08-02T12:42:46.588Z</time>
      </trkpt>
      <trkpt lat="62.86177" lon="7.01391">
        <ele>62.731931</ele>
        <time>2020-08-02T12:42:49.538Z</time>
      </trkpt>
      <trkpt lat="62.86186" lon="7.01387">
        <ele>62.666511</ele>
        <time>2020-08-02T12:42:52.563Z</time>
      </trkpt>
      <trkpt lat="62.86198" lon="7.01384">
        <ele>62.583678</ele>
        <time>2020-08-02T12:42:56.576Z</time>
      </trkpt>
      <trkpt lat="62.86209" lon="7.01384">
        <ele>62.504152</ele>
        <time>2020-08-02T12:43:00.544Z</time>
      </trkpt>
      <trkpt lat="62.86219" lon="7.01384">
        <ele>62.432396</ele>
        <time>2020-08-02T12:43:04.554Z</time>
      </trkpt>
      <trkpt lat="62.8623" lon="7.01383">
        <ele>62.352849</ele>
        <time>2020-08-02T12:43:08.548Z</time>
      </trkpt>
      <trkpt lat="62.8624" lon="7.01383">
        <ele>62.282499</ele>
        <time>2020-08-02T12:43:12.549Z</time>
      </trkpt>
      <trkpt lat="62.86251" lon="7.01384">
        <ele>62.205092</ele>
        <time>2020-08-02T12:43:16.564Z</time>
      </trkpt>
      <trkpt lat="62.86262" lon="7.01385">
        <ele>62.363993</ele>
        <time>2020-08-02T12:43:20.555Z</time>
      </trkpt>
      <trkpt lat="62.86273" lon="7.01385">
        <ele>62.865861</ele>
        <time>2020-08-02T12:43:24.547Z</time>
      </trkpt>
      <trkpt lat="62.86285" lon="7.01385">
        <ele>63.380813</ele>
        <time>2020-08-02T12:43:28.584Z</time>
      </trkpt>
      <trkpt lat="62.86297" lon="7.01385">
        <ele>63.895628</ele>
        <time>2020-08-02T12:43:32.538Z</time>
      </trkpt>
      <trkpt lat="62.86306" lon="7.01385">
        <ele>64.301391</ele>
        <time>2020-08-02T12:43:35.531Z</time>
      </trkpt>
      <trkpt lat="62.86316" lon="7.01385">
        <ele>64.715903</ele>
        <time>2020-08-02T12:43:38.557Z</time>
      </trkpt>
      <trkpt lat="62.86325" lon="7.01386">
        <ele>65.139477</ele>
        <time>2020-08-02T12:43:41.552Z</time>
      </trkpt>
      <trkpt lat="62.86336" lon="7.01387">
        <ele>65.598006</ele>
        <time>2020-08-02T12:43:44.557Z</time>
      </trkpt>
      <trkpt lat="62.86346" lon="7.01386">
        <ele>66.038724</ele>
        <time>2020-08-02T12:43:47.564Z</time>
      </trkpt>
      <trkpt lat="62.86356" lon="7.01387">
        <ele>66.466356</ele>
        <time>2020-08-02T12:43:50.550Z</time>
      </trkpt>
      <trkpt lat="62.86365" lon="7.01387">
        <ele>66.885188</ele>
        <time>2020-08-02T12:43:53.532Z</time>
      </trkpt>
      <trkpt lat="62.86375" lon="7.01387">
        <ele>67.31275</ele>
        <time>2020-08-02T12:43:56.538Z</time>
      </trkpt>
      <trkpt lat="62.86385" lon="7.01387">
        <ele>67.731587</ele>
        <time>2020-08-02T12:43:59.543Z</time>
      </trkpt>
      <trkpt lat="62.86394" lon="7.01386">
        <ele>68.151099</ele>
        <time>2020-08-02T12:44:02.544Z</time>
      </trkpt>
      <trkpt lat="62.86404" lon="7.01384">
        <ele>68.553903</ele>
        <time>2020-08-02T12:44:05.536Z</time>
      </trkpt>
      <trkpt lat="62.86416" lon="7.01385">
        <ele>69.0779</ele>
        <time>2020-08-02T12:44:09.560Z</time>
      </trkpt>
      <trkpt lat="62.86425" lon="7.01387">
        <ele>69.493443</ele>
        <time>2020-08-02T12:44:12.541Z</time>
      </trkpt>
      <trkpt lat="62.86435" lon="7.01386">
        <ele>69.934538</ele>
        <time>2020-08-02T12:44:15.551Z</time>
      </trkpt>
      <trkpt lat="62.86446" lon="7.01385">
        <ele>70.172358</ele>
        <time>2020-08-02T12:44:18.564Z</time>
      </trkpt>
      <trkpt lat="62.86457" lon="7.01384">
        <ele>70.36265</ele>
        <time>2020-08-02T12:44:21.557Z</time>
      </trkpt>
      <trkpt lat="62.86467" lon="7.01384">
        <ele>70.544118</ele>
        <time>2020-08-02T12:44:24.541Z</time>
      </trkpt>
      <trkpt lat="62.86477" lon="7.01384">
        <ele>70.714981</ele>
        <time>2020-08-02T12:44:27.566Z</time>
      </trkpt>
      <trkpt lat="62.86486" lon="7.01384">
        <ele>70.875318</ele>
        <time>2020-08-02T12:44:30.535Z</time>
      </trkpt>
      <trkpt lat="62.86495" lon="7.01384">
        <ele>71.042668</ele>
        <time>2020-08-02T12:44:33.553Z</time>
      </trkpt>
      <trkpt lat="62.86505" lon="7.01384">
        <ele>71.21177</ele>
        <time>2020-08-02T12:44:36.546Z</time>
      </trkpt>
      <trkpt lat="62.86514" lon="7.01383">
        <ele>71.377411</ele>
        <time>2020-08-02T12:44:39.542Z</time>
      </trkpt>
      <trkpt lat="62.86524" lon="7.01382">
        <ele>71.544936</ele>
        <time>2020-08-02T12:44:42.553Z</time>
      </trkpt>
      <trkpt lat="62.86534" lon="7.01383">
        <ele>71.714185</ele>
        <time>2020-08-02T12:44:45.532Z</time>
      </trkpt>
      <trkpt lat="62.86543" lon="7.01383">
        <ele>71.872761</ele>
        <time>2020-08-02T12:44:48.532Z</time>
      </trkpt>
      <trkpt lat="62.86552" lon="7.01382">
        <ele>72.035008</ele>
        <time>2020-08-02T12:44:51.534Z</time>
      </trkpt>
      <trkpt lat="62.86564" lon="7.01381">
        <ele>72.243157</ele>
        <time>2020-08-02T12:44:55.570Z</time>
      </trkpt>
      <trkpt lat="62.86574" lon="7.01381">
        <ele>72.429893</ele>
        <time>2020-08-02T12:44:59.582Z</time>
      </trkpt>
      <trkpt lat="62.86584" lon="7.01382">
        <ele>72.606078</ele>
        <time>2020-08-02T12:45:03.553Z</time>
      </trkpt>
      <trkpt lat="62.86594" lon="7.01383">
        <ele>72.78416</ele>
        <time>2020-08-02T12:45:07.560Z</time>
      </trkpt>
      <trkpt lat="62.86605" lon="7.01383">
        <ele>72.974418</ele>
        <time>2020-08-02T12:45:11.583Z</time>
      </trkpt>
      <trkpt lat="62.86615" lon="7.01382">
        <ele>73.155849</ele>
        <time>2020-08-02T12:45:15.574Z</time>
      </trkpt>
      <trkpt lat="62.86626" lon="7.01383">
        <ele>73.601252</ele>
        <time>2020-08-02T12:45:19.544Z</time>
      </trkpt>
      <trkpt lat="62.86636" lon="7.01381">
        <ele>74.087994</ele>
        <time>2020-08-02T12:45:23.555Z</time>
      </trkpt>
      <trkpt lat="62.86646" lon="7.01382">
        <ele>74.554865</ele>
        <time>2020-08-02T12:45:27.564Z</time>
      </trkpt>
      <trkpt lat="62.86655" lon="7.01382">
        <ele>75.011853</ele>
        <time>2020-08-02T12:45:31.568Z</time>
      </trkpt>
      <trkpt lat="62.86664" lon="7.01381">
        <ele>75.454537</ele>
        <time>2020-08-02T12:45:35.539Z</time>
      </trkpt>
      <trkpt lat="62.86674" lon="7.01382">
        <ele>75.906803</ele>
        <time>2020-08-02T12:45:39.537Z</time>
      </trkpt>
      <trkpt lat="62.86683" lon="7.01381">
        <ele>76.349514</ele>
        <time>2020-08-02T12:45:43.541Z</time>
      </trkpt>
      <trkpt lat="62.86694" lon="7.01381">
        <ele>76.873094</ele>
        <time>2020-08-02T12:45:48.561Z</time>
      </trkpt>
      <trkpt lat="62.86706" lon="7.01382">
        <ele>77.416147</ele>
        <time>2020-08-02T12:45:53.541Z</time>
      </trkpt>
      <trkpt lat="62.86716" lon="7.01382">
        <ele>77.89701</ele>
        <time>2020-08-02T12:45:57.551Z</time>
      </trkpt>
      <trkpt lat="62.86725" lon="7.0138">
        <ele>78.327172</ele>
        <time>2020-08-02T12:46:01.568Z</time>
      </trkpt>
      <trkpt lat="62.86734" lon="7.0138">
        <ele>78.769835</ele>
        <time>2020-08-02T12:46:05.561Z</time>
      </trkpt>
      <trkpt lat="62.86744" lon="7.01381">
        <ele>79.255511</ele>
        <time>2020-08-02T12:46:09.533Z</time>
      </trkpt>
      <trkpt lat="62.86755" lon="7.01381">
        <ele>79.75531</ele>
        <time>2020-08-02T12:46:13.549Z</time>
      </trkpt>
      <trkpt lat="62.86766" lon="7.0138">
        <ele>80.298038</ele>
        <time>2020-08-02T12:46:17.580Z</time>
      </trkpt>
      <trkpt lat="62.86777" lon="7.0138">
        <ele>80.836111</ele>
        <time>2020-08-02T12:46:21.566Z</time>
      </trkpt>
      <trkpt lat="62.86789" lon="7.01379">
        <ele>81.37408</ele>
        <time>2020-08-02T12:46:25.544Z</time>
      </trkpt>
      <trkpt lat="62.86801" lon="7.0138">
        <ele>81.712551</ele>
        <time>2020-08-02T12:46:29.575Z</time>
      </trkpt>
      <trkpt lat="62.86813" lon="7.01378">
        <ele>81.628925</ele>
        <time>2020-08-02T12:46:33.563Z</time>
      </trkpt>
      <trkpt lat="62.86823" lon="7.0138">
        <ele>81.558221</ele>
        <time>2020-08-02T12:46:36.553Z</time>
      </trkpt>
      <trkpt lat="62.86835" lon="7.01381">
        <ele>81.47733</ele>
        <time>2020-08-02T12:46:39.579Z</time>
      </trkpt>
      <trkpt lat="62.86847" lon="7.0138">
        <ele>81.393077</ele>
        <time>2020-08-02T12:46:42.547Z</time>
      </trkpt>
      <trkpt lat="62.8686" lon="7.01379">
        <ele>81.303351</ele>
        <time>2020-08-02T12:46:45.593Z</time>
      </trkpt>
      <trkpt lat="62.86873" lon="7.01379">
        <ele>81.21296</ele>
        <time>2020-08-02T12:46:48.561Z</time>
      </trkpt>
      <trkpt lat="62.86882" lon="7.01378">
        <ele>81.151351</ele>
        <time>2020-08-02T12:46:50.564Z</time>
      </trkpt>
      <trkpt lat="62.86892" lon="7.01377">
        <ele>81.088965</ele>
        <time>2020-08-02T12:46:52.563Z</time>
      </trkpt>
      <trkpt lat="62.86901" lon="7.01377">
        <ele>81.026646</ele>
        <time>2020-08-02T12:46:54.591Z</time>
      </trkpt>
      <trkpt lat="62.8691" lon="7.01377">
        <ele>80.960914</ele>
        <time>2020-08-02T12:46:56.538Z</time>
      </trkpt>
      <trkpt lat="62.8692" lon="7.01377">
        <ele>80.893136</ele>
        <time>2020-08-02T12:46:58.549Z</time>
      </trkpt>
      <trkpt lat="62.8693" lon="7.01376">
        <ele>80.825334</ele>
        <time>2020-08-02T12:47:00.548Z</time>
      </trkpt>
      <trkpt lat="62.8694" lon="7.01375">
        <ele>80.756796</ele>
        <time>2020-08-02T12:47:02.570Z</time>
      </trkpt>
      <trkpt lat="62.8695" lon="7.01375">
        <ele>80.690391</ele>
        <time>2020-08-02T12:47:04.542Z</time>
      </trkpt>
      <trkpt lat="62.86959" lon="7.01374">
        <ele>80.624618</ele>
        <time>2020-08-02T12:47:06.545Z</time>
      </trkpt>
      <trkpt lat="62.86969" lon="7.01374">
        <ele>80.558845</ele>
        <time>2020-08-02T12:47:08.544Z</time>
      </trkpt>
      <trkpt lat="62.86979" lon="7.01372">
        <ele>80.465571</ele>
        <time>2020-08-02T12:47:10.556Z</time>
      </trkpt>
      <trkpt lat="62.86988" lon="7.01371">
        <ele>80.310194</ele>
        <time>2020-08-02T12:47:12.582Z</time>
      </trkpt>
      <trkpt lat="62.86998" lon="7.01368">
        <ele>80.14535</ele>
        <time>2020-08-02T12:47:14.543Z</time>
      </trkpt>
      <trkpt lat="62.87008" lon="7.01365">
        <ele>79.972841</ele>
        <time>2020-08-02T12:47:16.545Z</time>
      </trkpt>
      <trkpt lat="62.87018" lon="7.01361">
        <ele>79.791638</ele>
        <time>2020-08-02T12:47:18.550Z</time>
      </trkpt>
      <trkpt lat="62.87029" lon="7.01356">
        <ele>79.604788</ele>
        <time>2020-08-02T12:47:20.583Z</time>
      </trkpt>
      <trkpt lat="62.87039" lon="7.01351">
        <ele>79.430228</ele>
        <time>2020-08-02T12:47:22.561Z</time>
      </trkpt>
      <trkpt lat="62.8705" lon="7.01347">
        <ele>79.254668</ele>
        <time>2020-08-02T12:47:24.564Z</time>
      </trkpt>
      <trkpt lat="62.8706" lon="7.01341">
        <ele>79.074488</ele>
        <time>2020-08-02T12:47:26.546Z</time>
      </trkpt>
      <trkpt lat="62.8707" lon="7.01335">
        <ele>78.892382</ele>
        <time>2020-08-02T12:47:28.552Z</time>
      </trkpt>
      <trkpt lat="62.87081" lon="7.01328">
        <ele>78.708446</ele>
        <time>2020-08-02T12:47:30.556Z</time>
      </trkpt>
      <trkpt lat="62.87091" lon="7.01322">
        <ele>78.527321</ele>
        <time>2020-08-02T12:47:32.578Z</time>
      </trkpt>
      <trkpt lat="62.87102" lon="7.01314">
        <ele>78.336735</ele>
        <time>2020-08-02T12:47:34.541Z</time>
      </trkpt>
      <trkpt lat="62.87113" lon="7.01306">
        <ele>78.137912</ele>
        <time>2020-08-02T12:47:36.571Z</time>
      </trkpt>
      <trkpt lat="62.87125" lon="7.01297">
        <ele>77.928624</ele>
        <time>2020-08-02T12:47:38.536Z</time>
      </trkpt>
      <trkpt lat="62.87136" lon="7.01286">
        <ele>77.715561</ele>
        <time>2020-08-02T12:47:40.601Z</time>
      </trkpt>
      <trkpt lat="62.87148" lon="7.01274">
        <ele>77.494472</ele>
        <time>2020-08-02T12:47:42.552Z</time>
      </trkpt>
      <trkpt lat="62.87161" lon="7.01261">
        <ele>77.300287</ele>
        <time>2020-08-02T12:47:44.549Z</time>
      </trkpt>
      <trkpt lat="62.87174" lon="7.01246">
        <ele>77.100783</ele>
        <time>2020-08-02T12:47:46.594Z</time>
      </trkpt>
      <trkpt lat="62.87187" lon="7.0123">
        <ele>76.894648</ele>
        <time>2020-08-02T12:47:48.551Z</time>
      </trkpt>
      <trkpt lat="62.87201" lon="7.01213">
        <ele>76.667095</ele>
        <time>2020-08-02T12:47:50.575Z</time>
      </trkpt>
      <trkpt lat="62.87216" lon="7.01194">
        <ele>76.432406</ele>
        <time>2020-08-02T12:47:52.560Z</time>
      </trkpt>
      <trkpt lat="62.8723" lon="7.01173">
        <ele>76.202294</ele>
        <time>2020-08-02T12:47:54.560Z</time>
      </trkpt>
      <trkpt lat="62.87242" lon="7.0115">
        <ele>75.978307</ele>
        <time>2020-08-02T12:47:56.572Z</time>
      </trkpt>
      <trkpt lat="62.87253" lon="7.01123">
        <ele>75.754263</ele>
        <time>2020-08-02T12:47:58.539Z</time>
      </trkpt>
      <trkpt lat="62.87264" lon="7.01097">
        <ele>75.530696</ele>
        <time>2020-08-02T12:48:00.572Z</time>
      </trkpt>
      <trkpt lat="62.87277" lon="7.01072">
        <ele>75.297423</ele>
        <time>2020-08-02T12:48:02.578Z</time>
      </trkpt>
      <trkpt lat="62.8729" lon="7.0105">
        <ele>75.067869</ele>
        <time>2020-08-02T12:48:04.568Z</time>
      </trkpt>
      <trkpt lat="62.87302" lon="7.01028">
        <ele>74.737484</ele>
        <time>2020-08-02T12:48:06.552Z</time>
      </trkpt>
      <trkpt lat="62.87313" lon="7.01009">
        <ele>74.388946</ele>
        <time>2020-08-02T12:48:08.557Z</time>
      </trkpt>
      <trkpt lat="62.87319" lon="7.0099">
        <ele>74.141681</ele>
        <time>2020-08-02T12:48:10.561Z</time>
      </trkpt>
      <trkpt lat="62.87319" lon="7.00966">
        <ele>73.873312</ele>
        <time>2020-08-02T12:48:12.564Z</time>
      </trkpt>
      <trkpt lat="62.87321" lon="7.00944">
        <ele>73.617638</ele>
        <time>2020-08-02T12:48:14.568Z</time>
      </trkpt>
      <trkpt lat="62.87328" lon="7.00926">
        <ele>73.349393</ele>
        <time>2020-08-02T12:48:16.536Z</time>
      </trkpt>
      <trkpt lat="62.87337" lon="7.0091">
        <ele>73.084295</ele>
        <time>2020-08-02T12:48:18.559Z</time>
      </trkpt>
      <trkpt lat="62.87344" lon="7.00895">
        <ele>72.83807</ele>
        <time>2020-08-02T12:48:20.542Z</time>
      </trkpt>
      <trkpt lat="62.87351" lon="7.00879">
        <ele>72.593699</ele>
        <time>2020-08-02T12:48:22.562Z</time>
      </trkpt>
      <trkpt lat="62.87357" lon="7.00862">
        <ele>72.346042</ele>
        <time>2020-08-02T12:48:24.565Z</time>
      </trkpt>
      <trkpt lat="62.87364" lon="7.00845">
        <ele>72.098998</ele>
        <time>2020-08-02T12:48:26.555Z</time>
      </trkpt>
      <trkpt lat="62.8737" lon="7.00828">
        <ele>71.84697</ele>
        <time>2020-08-02T12:48:28.579Z</time>
      </trkpt>
      <trkpt lat="62.87377" lon="7.00809">
        <ele>71.588667</ele>
        <time>2020-08-02T12:48:30.581Z</time>
      </trkpt>
      <trkpt lat="62.87383" lon="7.0079">
        <ele>71.328562</ele>
        <time>2020-08-02T12:48:32.528Z</time>
      </trkpt>
      <trkpt lat="62.87389" lon="7.00772">
        <ele>71.072343</ele>
        <time>2020-08-02T12:48:34.568Z</time>
      </trkpt>
      <trkpt lat="62.87396" lon="7.00754">
        <ele>70.817902</ele>
        <time>2020-08-02T12:48:36.569Z</time>
      </trkpt>
      <trkpt lat="62.87402" lon="7.00736">
        <ele>70.538655</ele>
        <time>2020-08-02T12:48:38.597Z</time>
      </trkpt>
      <trkpt lat="62.87408" lon="7.00717">
        <ele>70.078931</ele>
        <time>2020-08-02T12:48:40.536Z</time>
      </trkpt>
      <trkpt lat="62.87414" lon="7.00697">
        <ele>69.627546</ele>
        <time>2020-08-02T12:48:42.561Z</time>
      </trkpt>
      <trkpt lat="62.87418" lon="7.00677">
        <ele>69.204601</ele>
        <time>2020-08-02T12:48:44.542Z</time>
      </trkpt>
      <trkpt lat="62.87422" lon="7.00656">
        <ele>68.762156</ele>
        <time>2020-08-02T12:48:46.553Z</time>
      </trkpt>
      <trkpt lat="62.87429" lon="7.00638">
        <ele>68.306427</ele>
        <time>2020-08-02T12:48:48.552Z</time>
      </trkpt>
      <trkpt lat="62.87438" lon="7.00622">
        <ele>67.816732</ele>
        <time>2020-08-02T12:48:50.589Z</time>
      </trkpt>
      <trkpt lat="62.87446" lon="7.00606">
        <ele>67.340185</ele>
        <time>2020-08-02T12:48:52.563Z</time>
      </trkpt>
      <trkpt lat="62.87456" lon="7.00596">
        <ele>66.894232</ele>
        <time>2020-08-02T12:48:54.541Z</time>
      </trkpt>
      <trkpt lat="62.87464" lon="7.00603">
        <ele>66.509079</ele>
        <time>2020-08-02T12:48:56.549Z</time>
      </trkpt>
      <trkpt lat="62.87472" lon="7.00624">
        <ele>65.98735</ele>
        <time>2020-08-02T12:48:59.590Z</time>
      </trkpt>
      <trkpt lat="62.87483" lon="7.00624">
        <ele>65.503091</ele>
        <time>2020-08-02T12:49:02.573Z</time>
      </trkpt>
      <trkpt lat="62.87492" lon="7.00614">
        <ele>65.073304</ele>
        <time>2020-08-02T12:49:04.563Z</time>
      </trkpt>
      <trkpt lat="62.87502" lon="7.00597">
        <ele>64.550029</ele>
        <time>2020-08-02T12:49:06.550Z</time>
      </trkpt>
      <trkpt lat="62.8751" lon="7.00575">
        <ele>64.010702</ele>
        <time>2020-08-02T12:49:08.537Z</time>
      </trkpt>
      <trkpt lat="62.87516" lon="7.00552">
        <ele>63.472268</ele>
        <time>2020-08-02T12:49:10.557Z</time>
      </trkpt>
      <trkpt lat="62.87523" lon="7.00528">
        <ele>62.942975</ele>
        <time>2020-08-02T12:49:12.570Z</time>
      </trkpt>
      <trkpt lat="62.87529" lon="7.00503">
        <ele>62.560134</ele>
        <time>2020-08-02T12:49:14.560Z</time>
      </trkpt>
      <trkpt lat="62.87535" lon="7.00479">
        <ele>62.174154</ele>
        <time>2020-08-02T12:49:16.573Z</time>
      </trkpt>
      <trkpt lat="62.87541" lon="7.00454">
        <ele>61.779207</ele>
        <time>2020-08-02T12:49:18.549Z</time>
      </trkpt>
      <trkpt lat="62.87546" lon="7.00428">
        <ele>61.385183</ele>
        <time>2020-08-02T12:49:20.611Z</time>
      </trkpt>
      <trkpt lat="62.87551" lon="7.00402">
        <ele>60.99492</ele>
        <time>2020-08-02T12:49:22.553Z</time>
      </trkpt>
      <trkpt lat="62.87557" lon="7.00376">
        <ele>60.596948</ele>
        <time>2020-08-02T12:49:24.542Z</time>
      </trkpt>
      <trkpt lat="62.87563" lon="7.0035">
        <ele>60.199133</ele>
        <time>2020-08-02T12:49:26.578Z</time>
      </trkpt>
      <trkpt lat="62.87567" lon="7.00323">
        <ele>59.805051</ele>
        <time>2020-08-02T12:49:28.580Z</time>
      </trkpt>
      <trkpt lat="62.87566" lon="7.00292">
        <ele>59.377859</ele>
        <time>2020-08-02T12:49:30.544Z</time>
      </trkpt>
      <trkpt lat="62.87559" lon="7.00264">
        <ele>58.952272</ele>
        <time>2020-08-02T12:49:32.556Z</time>
      </trkpt>
      <trkpt lat="62.87561" lon="7.00241">
        <ele>58.63025</ele>
        <time>2020-08-02T12:49:34.594Z</time>
      </trkpt>
      <trkpt lat="62.87571" lon="7.00232">
        <ele>58.308936</ele>
        <time>2020-08-02T12:49:36.552Z</time>
      </trkpt>
      <trkpt lat="62.87581" lon="7.0023">
        <ele>57.995163</ele>
        <time>2020-08-02T12:49:38.560Z</time>
      </trkpt>
      <trkpt lat="62.87588" lon="7.00208">
        <ele>57.625141</ele>
        <time>2020-08-02T12:49:41.552Z</time>
      </trkpt>
      <trkpt lat="62.87592" lon="7.00189">
        <ele>57.448223</ele>
        <time>2020-08-02T12:49:43.564Z</time>
      </trkpt>
      <trkpt lat="62.87595" lon="7.00169">
        <ele>57.339228</ele>
        <time>2020-08-02T12:49:45.548Z</time>
      </trkpt>
      <trkpt lat="62.87597" lon="7.0015">
        <ele>57.232785</ele>
        <time>2020-08-02T12:49:47.552Z</time>
      </trkpt>
      <trkpt lat="62.876" lon="7.00131">
        <ele>57.129698</ele>
        <time>2020-08-02T12:49:49.554Z</time>
      </trkpt>
      <trkpt lat="62.87602" lon="7.00112">
        <ele>57.026273</ele>
        <time>2020-08-02T12:49:51.553Z</time>
      </trkpt>
      <trkpt lat="62.87605" lon="7.00092">
        <ele>56.918007</ele>
        <time>2020-08-02T12:49:53.536Z</time>
      </trkpt>
      <trkpt lat="62.87607" lon="7.00071">
        <ele>56.806335</ele>
        <time>2020-08-02T12:49:55.564Z</time>
      </trkpt>
      <trkpt lat="62.87609" lon="7.0005">
        <ele>56.694663</ele>
        <time>2020-08-02T12:49:57.565Z</time>
      </trkpt>
      <trkpt lat="62.87612" lon="7.00029">
        <ele>56.580442</ele>
        <time>2020-08-02T12:49:59.553Z</time>
      </trkpt>
      <trkpt lat="62.87614" lon="7.00007">
        <ele>56.463925</ele>
        <time>2020-08-02T12:50:01.607Z</time>
      </trkpt>
      <trkpt lat="62.87616" lon="6.99984">
        <ele>56.339709</ele>
        <time>2020-08-02T12:50:03.545Z</time>
      </trkpt>
      <trkpt lat="62.87618" lon="6.9996">
        <ele>56.213343</ele>
        <time>2020-08-02T12:50:05.552Z</time>
      </trkpt>
      <trkpt lat="62.8762" lon="6.99936">
        <ele>56.08523</ele>
        <time>2020-08-02T12:50:07.547Z</time>
      </trkpt>
      <trkpt lat="62.87623" lon="6.99911">
        <ele>55.952625</ele>
        <time>2020-08-02T12:50:09.544Z</time>
      </trkpt>
      <trkpt lat="62.87624" lon="6.99885">
        <ele>55.812821</ele>
        <time>2020-08-02T12:50:11.565Z</time>
      </trkpt>
      <trkpt lat="62.87625" lon="6.99856">
        <ele>55.658715</ele>
        <time>2020-08-02T12:50:13.558Z</time>
      </trkpt>
      <trkpt lat="62.87626" lon="6.99826">
        <ele>55.502672</ele>
        <time>2020-08-02T12:50:15.588Z</time>
      </trkpt>
      <trkpt lat="62.87628" lon="6.99796">
        <ele>55.394354</ele>
        <time>2020-08-02T12:50:17.573Z</time>
      </trkpt>
      <trkpt lat="62.87629" lon="6.99766">
        <ele>55.313286</ele>
        <time>2020-08-02T12:50:19.569Z</time>
      </trkpt>
      <trkpt lat="62.8763" lon="6.99735">
        <ele>55.229281</ele>
        <time>2020-08-02T12:50:21.550Z</time>
      </trkpt>
      <trkpt lat="62.87631" lon="6.99704">
        <ele>55.144603</ele>
        <time>2020-08-02T12:50:23.566Z</time>
      </trkpt>
      <trkpt lat="62.87632" lon="6.99673">
        <ele>55.060288</ele>
        <time>2020-08-02T12:50:25.543Z</time>
      </trkpt>
      <trkpt lat="62.87632" lon="6.99642">
        <ele>54.974522</ele>
        <time>2020-08-02T12:50:27.537Z</time>
      </trkpt>
      <trkpt lat="62.87633" lon="6.9961">
        <ele>54.88817</ele>
        <time>2020-08-02T12:50:29.543Z</time>
      </trkpt>
      <trkpt lat="62.87634" lon="6.99579">
        <ele>54.805479</ele>
        <time>2020-08-02T12:50:31.559Z</time>
      </trkpt>
      <trkpt lat="62.87635" lon="6.99549">
        <ele>54.722828</ele>
        <time>2020-08-02T12:50:33.563Z</time>
      </trkpt>
      <trkpt lat="62.87637" lon="6.99519">
        <ele>54.640471</ele>
        <time>2020-08-02T12:50:35.544Z</time>
      </trkpt>
      <trkpt lat="62.87638" lon="6.99489">
        <ele>54.560023</ele>
        <time>2020-08-02T12:50:37.541Z</time>
      </trkpt>
      <trkpt lat="62.87638" lon="6.99462">
        <ele>54.484681</ele>
        <time>2020-08-02T12:50:39.553Z</time>
      </trkpt>
      <trkpt lat="62.87639" lon="6.99435">
        <ele>54.412393</ele>
        <time>2020-08-02T12:50:41.551Z</time>
      </trkpt>
      <trkpt lat="62.8764" lon="6.99409">
        <ele>54.598216</ele>
        <time>2020-08-02T12:50:43.560Z</time>
      </trkpt>
      <trkpt lat="62.8764" lon="6.99384">
        <ele>55.038905</ele>
        <time>2020-08-02T12:50:45.550Z</time>
      </trkpt>
      <trkpt lat="62.8764" lon="6.9936">
        <ele>55.465476</ele>
        <time>2020-08-02T12:50:47.552Z</time>
      </trkpt>
      <trkpt lat="62.8764" lon="6.99336">
        <ele>55.87978</ele>
        <time>2020-08-02T12:50:49.546Z</time>
      </trkpt>
      <trkpt lat="62.8764" lon="6.99314">
        <ele>56.278167</ele>
        <time>2020-08-02T12:50:51.551Z</time>
      </trkpt>
      <trkpt lat="62.8764" lon="6.99292">
        <ele>56.65556</ele>
        <time>2020-08-02T12:50:53.558Z</time>
      </trkpt>
      <trkpt lat="62.87641" lon="6.99264">
        <ele>57.149658</ele>
        <time>2020-08-02T12:50:56.559Z</time>
      </trkpt>
      <trkpt lat="62.87642" lon="6.99237">
        <ele>57.630105</ele>
        <time>2020-08-02T12:50:59.559Z</time>
      </trkpt>
      <trkpt lat="62.87642" lon="6.99212">
        <ele>58.072692</ele>
        <time>2020-08-02T12:51:02.575Z</time>
      </trkpt>
      <trkpt lat="62.87642" lon="6.99187">
        <ele>58.513432</ele>
        <time>2020-08-02T12:51:05.536Z</time>
      </trkpt>
      <trkpt lat="62.87643" lon="6.99163">
        <ele>58.938609</ele>
        <time>2020-08-02T12:51:08.545Z</time>
      </trkpt>
      <trkpt lat="62.87644" lon="6.9914">
        <ele>59.342005</ele>
        <time>2020-08-02T12:51:11.570Z</time>
      </trkpt>
      <trkpt lat="62.87644" lon="6.99118">
        <ele>59.731865</ele>
        <time>2020-08-02T12:51:14.553Z</time>
      </trkpt>
      <trkpt lat="62.87645" lon="6.99097">
        <ele>60.111158</ele>
        <time>2020-08-02T12:51:17.581Z</time>
      </trkpt>
      <trkpt lat="62.87645" lon="6.99075">
        <ele>60.488868</ele>
        <time>2020-08-02T12:51:20.555Z</time>
      </trkpt>
      <trkpt lat="62.87646" lon="6.99049">
        <ele>60.952712</ele>
        <time>2020-08-02T12:51:24.557Z</time>
      </trkpt>
      <trkpt lat="62.87646" lon="6.99029">
        <ele>61.313047</ele>
        <time>2020-08-02T12:51:27.561Z</time>
      </trkpt>
      <trkpt lat="62.87647" lon="6.99004">
        <ele>61.557269</ele>
        <time>2020-08-02T12:51:31.554Z</time>
      </trkpt>
      <trkpt lat="62.87647" lon="6.98981">
        <ele>61.772157</ele>
        <time>2020-08-02T12:51:35.549Z</time>
      </trkpt>
      <trkpt lat="62.87649" lon="6.98959">
        <ele>61.98433</ele>
        <time>2020-08-02T12:51:39.541Z</time>
      </trkpt>
      <trkpt lat="62.8765" lon="6.98938">
        <ele>62.194342</ele>
        <time>2020-08-02T12:51:43.569Z</time>
      </trkpt>
      <trkpt lat="62.87651" lon="6.98918">
        <ele>62.384971</ele>
        <time>2020-08-02T12:51:46.556Z</time>
      </trkpt>
      <trkpt lat="62.87652" lon="6.98898">
        <ele>62.571782</ele>
        <time>2020-08-02T12:51:49.548Z</time>
      </trkpt>
      <trkpt lat="62.87652" lon="6.98872">
        <ele>62.815536</ele>
        <time>2020-08-02T12:51:53.568Z</time>
      </trkpt>
      <trkpt lat="62.87652" lon="6.98847">
        <ele>63.054539</ele>
        <time>2020-08-02T12:51:57.550Z</time>
      </trkpt>
      <trkpt lat="62.87651" lon="6.98824">
        <ele>63.272944</ele>
        <time>2020-08-02T12:52:01.529Z</time>
      </trkpt>
      <trkpt lat="62.87651" lon="6.98801">
        <ele>63.496713</ele>
        <time>2020-08-02T12:52:05.589Z</time>
      </trkpt>
      <trkpt lat="62.87652" lon="6.98779">
        <ele>63.705333</ele>
        <time>2020-08-02T12:52:09.531Z</time>
      </trkpt>
      <trkpt lat="62.87652" lon="6.98759">
        <ele>63.900538</ele>
        <time>2020-08-02T12:52:13.541Z</time>
      </trkpt>
      <trkpt lat="62.87653" lon="6.98738">
        <ele>64.097394</ele>
        <time>2020-08-02T12:52:17.579Z</time>
      </trkpt>
      <trkpt lat="62.87653" lon="6.98718">
        <ele>64.291736</ele>
        <time>2020-08-02T12:52:21.584Z</time>
      </trkpt>
      <trkpt lat="62.87654" lon="6.98697">
        <ele>64.492586</ele>
        <time>2020-08-02T12:52:25.540Z</time>
      </trkpt>
      <trkpt lat="62.87656" lon="6.98675">
        <ele>64.698829</ele>
        <time>2020-08-02T12:52:29.541Z</time>
      </trkpt>
      <trkpt lat="62.87656" lon="6.98653">
        <ele>64.911254</ele>
        <time>2020-08-02T12:52:33.580Z</time>
      </trkpt>
      <trkpt lat="62.87657" lon="6.98631">
        <ele>65.088789</ele>
        <time>2020-08-02T12:52:37.541Z</time>
      </trkpt>
      <trkpt lat="62.87658" lon="6.98607">
        <ele>65.098956</ele>
        <time>2020-08-02T12:52:41.559Z</time>
      </trkpt>
      <trkpt lat="62.8766" lon="6.98584">
        <ele>65.109166</ele>
        <time>2020-08-02T12:52:45.547Z</time>
      </trkpt>
      <trkpt lat="62.87663" lon="6.9856">
        <ele>65.119997</ele>
        <time>2020-08-02T12:52:49.551Z</time>
      </trkpt>
      <trkpt lat="62.87665" lon="6.9854">
        <ele>65.128712</ele>
        <time>2020-08-02T12:52:52.573Z</time>
      </trkpt>
      <trkpt lat="62.87667" lon="6.9852">
        <ele>65.13775</ele>
        <time>2020-08-02T12:52:55.551Z</time>
      </trkpt>
      <trkpt lat="62.87669" lon="6.98496">
        <ele>65.147946</ele>
        <time>2020-08-02T12:52:58.549Z</time>
      </trkpt>
      <trkpt lat="62.87672" lon="6.9847">
        <ele>65.159833</ele>
        <time>2020-08-02T12:53:01.549Z</time>
      </trkpt>
      <trkpt lat="62.87675" lon="6.98446">
        <ele>65.17071</ele>
        <time>2020-08-02T12:53:04.536Z</time>
      </trkpt>
      <trkpt lat="62.87679" lon="6.9842">
        <ele>65.18208</ele>
        <time>2020-08-02T12:53:07.570Z</time>
      </trkpt>
      <trkpt lat="62.87683" lon="6.98392">
        <ele>65.194798</ele>
        <time>2020-08-02T12:53:10.542Z</time>
      </trkpt>
      <trkpt lat="62.87685" lon="6.98373">
        <ele>65.203275</ele>
        <time>2020-08-02T12:53:12.564Z</time>
      </trkpt>
      <trkpt lat="62.87688" lon="6.98353">
        <ele>65.212466</ele>
        <time>2020-08-02T12:53:14.540Z</time>
      </trkpt>
      <trkpt lat="62.87692" lon="6.98332">
        <ele>65.222274</ele>
        <time>2020-08-02T12:53:16.565Z</time>
      </trkpt>
      <trkpt lat="62.87696" lon="6.98309">
        <ele>65.232668</ele>
        <time>2020-08-02T12:53:18.548Z</time>
      </trkpt>
      <trkpt lat="62.877" lon="6.98286">
        <ele>65.243833</ele>
        <time>2020-08-02T12:53:20.574Z</time>
      </trkpt>
      <trkpt lat="62.87706" lon="6.9826">
        <ele>65.25634</ele>
        <time>2020-08-02T12:53:22.562Z</time>
      </trkpt>
      <trkpt lat="62.87712" lon="6.98231">
        <ele>64.533504</ele>
        <time>2020-08-02T12:53:24.552Z</time>
      </trkpt>
      <trkpt lat="62.87719" lon="6.98203">
        <ele>63.736292</ele>
        <time>2020-08-02T12:53:26.541Z</time>
      </trkpt>
      <trkpt lat="62.87726" lon="6.98174">
        <ele>62.916721</ele>
        <time>2020-08-02T12:53:28.588Z</time>
      </trkpt>
      <trkpt lat="62.87732" lon="6.98146">
        <ele>62.118192</ele>
        <time>2020-08-02T12:53:30.534Z</time>
      </trkpt>
      <trkpt lat="62.87738" lon="6.98116">
        <ele>61.303683</ele>
        <time>2020-08-02T12:53:32.531Z</time>
      </trkpt>
      <trkpt lat="62.87745" lon="6.98087">
        <ele>60.491549</ele>
        <time>2020-08-02T12:53:34.553Z</time>
      </trkpt>
      <trkpt lat="62.87752" lon="6.98057">
        <ele>59.64906</ele>
        <time>2020-08-02T12:53:36.571Z</time>
      </trkpt>
      <trkpt lat="62.87758" lon="6.98027">
        <ele>58.797782</ele>
        <time>2020-08-02T12:53:38.553Z</time>
      </trkpt>
      <trkpt lat="62.87766" lon="6.97996">
        <ele>57.934005</ele>
        <time>2020-08-02T12:53:40.549Z</time>
      </trkpt>
      <trkpt lat="62.87773" lon="6.97965">
        <ele>57.054623</ele>
        <time>2020-08-02T12:53:42.588Z</time>
      </trkpt>
      <trkpt lat="62.87779" lon="6.97934">
        <ele>56.18768</ele>
        <time>2020-08-02T12:53:44.583Z</time>
      </trkpt>
      <trkpt lat="62.87786" lon="6.97903">
        <ele>55.337829</ele>
        <time>2020-08-02T12:53:46.547Z</time>
      </trkpt>
      <trkpt lat="62.87793" lon="6.97872">
        <ele>55.269861</ele>
        <time>2020-08-02T12:53:48.546Z</time>
      </trkpt>
      <trkpt lat="62.87799" lon="6.97841">
        <ele>55.202966</ele>
        <time>2020-08-02T12:53:50.550Z</time>
      </trkpt>
      <trkpt lat="62.87806" lon="6.97811">
        <ele>55.137496</ele>
        <time>2020-08-02T12:53:52.569Z</time>
      </trkpt>
      <trkpt lat="62.87813" lon="6.97781">
        <ele>55.072692</ele>
        <time>2020-08-02T12:53:54.582Z</time>
      </trkpt>
      <trkpt lat="62.87819" lon="6.97752">
        <ele>55.010263</ele>
        <time>2020-08-02T12:53:56.552Z</time>
      </trkpt>
      <trkpt lat="62.87825" lon="6.97725">
        <ele>54.94957</ele>
        <time>2020-08-02T12:53:58.537Z</time>
      </trkpt>
      <trkpt lat="62.87831" lon="6.97699">
        <ele>54.891391</ele>
        <time>2020-08-02T12:54:00.577Z</time>
      </trkpt>
      <trkpt lat="62.87837" lon="6.97673">
        <ele>54.836659</ele>
        <time>2020-08-02T12:54:02.565Z</time>
      </trkpt>
      <trkpt lat="62.87841" lon="6.97648">
        <ele>54.782543</ele>
        <time>2020-08-02T12:54:04.556Z</time>
      </trkpt>
      <trkpt lat="62.87845" lon="6.97626">
        <ele>54.735491</ele>
        <time>2020-08-02T12:54:06.554Z</time>
      </trkpt>
      <trkpt lat="62.8785" lon="6.97605">
        <ele>54.690225</ele>
        <time>2020-08-02T12:54:08.530Z</time>
      </trkpt>
      <trkpt lat="62.87854" lon="6.97586">
        <ele>54.648718</ele>
        <time>2020-08-02T12:54:10.534Z</time>
      </trkpt>
      <trkpt lat="62.8786" lon="6.97562">
        <ele>54.595293</ele>
        <time>2020-08-02T12:54:13.535Z</time>
      </trkpt>
      <trkpt lat="62.87867" lon="6.9754">
        <ele>54.487897</ele>
        <time>2020-08-02T12:54:16.542Z</time>
      </trkpt>
      <trkpt lat="62.87873" lon="6.9752">
        <ele>54.316913</ele>
        <time>2020-08-02T12:54:19.563Z</time>
      </trkpt>
      <trkpt lat="62.8788" lon="6.97501">
        <ele>54.139247</ele>
        <time>2020-08-02T12:54:22.546Z</time>
      </trkpt>
      <trkpt lat="62.87888" lon="6.97483">
        <ele>53.953369</ele>
        <time>2020-08-02T12:54:25.536Z</time>
      </trkpt>
      <trkpt lat="62.87897" lon="6.97462">
        <ele>53.743805</ele>
        <time>2020-08-02T12:54:28.545Z</time>
      </trkpt>
      <trkpt lat="62.87904" lon="6.97448">
        <ele>53.595296</ele>
        <time>2020-08-02T12:54:30.544Z</time>
      </trkpt>
      <trkpt lat="62.87912" lon="6.97434">
        <ele>53.433404</ele>
        <time>2020-08-02T12:54:32.549Z</time>
      </trkpt>
      <trkpt lat="62.8792" lon="6.97419">
        <ele>53.255754</ele>
        <time>2020-08-02T12:54:34.566Z</time>
      </trkpt>
      <trkpt lat="62.8793" lon="6.97404">
        <ele>53.071745</ele>
        <time>2020-08-02T12:54:36.545Z</time>
      </trkpt>
      <trkpt lat="62.8794" lon="6.9739">
        <ele>52.883982</ele>
        <time>2020-08-02T12:54:38.560Z</time>
      </trkpt>
      <trkpt lat="62.87951" lon="6.97376">
        <ele>52.682268</ele>
        <time>2020-08-02T12:54:40.581Z</time>
      </trkpt>
      <trkpt lat="62.87963" lon="6.97362">
        <ele>52.465609</ele>
        <time>2020-08-02T12:54:42.569Z</time>
      </trkpt>
      <trkpt lat="62.87975" lon="6.97348">
        <ele>52.245382</ele>
        <time>2020-08-02T12:54:44.544Z</time>
      </trkpt>
      <trkpt lat="62.87989" lon="6.97336">
        <ele>52.008858</ele>
        <time>2020-08-02T12:54:46.554Z</time>
      </trkpt>
      <trkpt lat="62.88003" lon="6.97323">
        <ele>51.757683</ele>
        <time>2020-08-02T12:54:48.542Z</time>
      </trkpt>
      <trkpt lat="62.88018" lon="6.97308">
        <ele>51.241744</ele>
        <time>2020-08-02T12:54:50.567Z</time>
      </trkpt>
      <trkpt lat="62.88033" lon="6.97291">
        <ele>50.65182</ele>
        <time>2020-08-02T12:54:52.546Z</time>
      </trkpt>
      <trkpt lat="62.88047" lon="6.97276">
        <ele>50.090342</ele>
        <time>2020-08-02T12:54:54.565Z</time>
      </trkpt>
      <trkpt lat="62.88061" lon="6.97261">
        <ele>49.548466</ele>
        <time>2020-08-02T12:54:56.587Z</time>
      </trkpt>
      <trkpt lat="62.88073" lon="6.97248">
        <ele>49.045449</ele>
        <time>2020-08-02T12:54:58.540Z</time>
      </trkpt>
      <trkpt lat="62.88085" lon="6.97236">
        <ele>48.58354</ele>
        <time>2020-08-02T12:55:00.533Z</time>
      </trkpt>
      <trkpt lat="62.88096" lon="6.97224">
        <ele>48.140556</ele>
        <time>2020-08-02T12:55:02.580Z</time>
      </trkpt>
      <trkpt lat="62.88107" lon="6.97212">
        <ele>47.721467</ele>
        <time>2020-08-02T12:55:04.558Z</time>
      </trkpt>
      <trkpt lat="62.88117" lon="6.97201">
        <ele>47.320519</ele>
        <time>2020-08-02T12:55:06.582Z</time>
      </trkpt>
      <trkpt lat="62.88127" lon="6.97192">
        <ele>46.934647</ele>
        <time>2020-08-02T12:55:08.573Z</time>
      </trkpt>
      <trkpt lat="62.88137" lon="6.97183">
        <ele>46.549887</ele>
        <time>2020-08-02T12:55:10.552Z</time>
      </trkpt>
      <trkpt lat="62.88146" lon="6.97175">
        <ele>46.184313</ele>
        <time>2020-08-02T12:55:12.551Z</time>
      </trkpt>
      <trkpt lat="62.88156" lon="6.97169">
        <ele>45.81666</ele>
        <time>2020-08-02T12:55:14.537Z</time>
      </trkpt>
      <trkpt lat="62.88166" lon="6.97162">
        <ele>45.447167</ele>
        <time>2020-08-02T12:55:16.554Z</time>
      </trkpt>
      <trkpt lat="62.88176" lon="6.97154">
        <ele>45.302957</ele>
        <time>2020-08-02T12:55:18.563Z</time>
      </trkpt>
      <trkpt lat="62.88186" lon="6.97148">
        <ele>45.35696</ele>
        <time>2020-08-02T12:55:20.553Z</time>
      </trkpt>
      <trkpt lat="62.88195" lon="6.97142">
        <ele>45.410131</ele>
        <time>2020-08-02T12:55:22.567Z</time>
      </trkpt>
      <trkpt lat="62.88205" lon="6.97137">
        <ele>45.461859</ele>
        <time>2020-08-02T12:55:24.557Z</time>
      </trkpt>
      <trkpt lat="62.88215" lon="6.97133">
        <ele>45.514354</ele>
        <time>2020-08-02T12:55:26.585Z</time>
      </trkpt>
      <trkpt lat="62.88225" lon="6.97129">
        <ele>45.568175</ele>
        <time>2020-08-02T12:55:28.560Z</time>
      </trkpt>
      <trkpt lat="62.88235" lon="6.97126">
        <ele>45.622666</ele>
        <time>2020-08-02T12:55:30.577Z</time>
      </trkpt>
      <trkpt lat="62.88245" lon="6.97123">
        <ele>45.676631</ele>
        <time>2020-08-02T12:55:32.544Z</time>
      </trkpt>
      <trkpt lat="62.88255" lon="6.9712">
        <ele>45.73214</ele>
        <time>2020-08-02T12:55:34.551Z</time>
      </trkpt>
      <trkpt lat="62.88266" lon="6.97118">
        <ele>45.787417</ele>
        <time>2020-08-02T12:55:36.556Z</time>
      </trkpt>
      <trkpt lat="62.88276" lon="6.97116">
        <ele>45.84371</ele>
        <time>2020-08-02T12:55:38.539Z</time>
      </trkpt>
      <trkpt lat="62.88287" lon="6.97115">
        <ele>45.902098</ele>
        <time>2020-08-02T12:55:40.543Z</time>
      </trkpt>
      <trkpt lat="62.88298" lon="6.97113">
        <ele>45.958814</ele>
        <time>2020-08-02T12:55:42.538Z</time>
      </trkpt>
      <trkpt lat="62.88309" lon="6.97113">
        <ele>46.015469</ele>
        <time>2020-08-02T12:55:44.547Z</time>
      </trkpt>
      <trkpt lat="62.8832" lon="6.97114">
        <ele>46.07482</ele>
        <time>2020-08-02T12:55:46.557Z</time>
      </trkpt>
      <trkpt lat="62.88331" lon="6.97117">
        <ele>46.134453</ele>
        <time>2020-08-02T12:55:48.548Z</time>
      </trkpt>
      <trkpt lat="62.88342" lon="6.9712">
        <ele>46.194167</ele>
        <time>2020-08-02T12:55:50.554Z</time>
      </trkpt>
      <trkpt lat="62.88353" lon="6.97125">
        <ele>46.399256</ele>
        <time>2020-08-02T12:55:52.541Z</time>
      </trkpt>
      <trkpt lat="62.88364" lon="6.97129">
        <ele>46.77281</ele>
        <time>2020-08-02T12:55:54.546Z</time>
      </trkpt>
      <trkpt lat="62.88374" lon="6.97129">
        <ele>47.13167</ele>
        <time>2020-08-02T12:55:56.563Z</time>
      </trkpt>
      <trkpt lat="62.88385" lon="6.97115">
        <ele>47.544922</ele>
        <time>2020-08-02T12:55:58.572Z</time>
      </trkpt>
      <trkpt lat="62.88391" lon="6.97092">
        <ele>47.95713</ele>
        <time>2020-08-02T12:56:00.584Z</time>
      </trkpt>
      <trkpt lat="62.88396" lon="6.97069">
        <ele>48.361148</ele>
        <time>2020-08-02T12:56:02.546Z</time>
      </trkpt>
      <trkpt lat="62.88404" lon="6.97052">
        <ele>48.73852</ele>
        <time>2020-08-02T12:56:04.582Z</time>
      </trkpt>
      <trkpt lat="62.88415" lon="6.97053">
        <ele>49.142283</ele>
        <time>2020-08-02T12:56:06.547Z</time>
      </trkpt>
      <trkpt lat="62.88425" lon="6.97066">
        <ele>49.525737</ele>
        <time>2020-08-02T12:56:08.576Z</time>
      </trkpt>
      <trkpt lat="62.88433" lon="6.97079">
        <ele>49.861352</ele>
        <time>2020-08-02T12:56:10.563Z</time>
      </trkpt>
      <trkpt lat="62.88443" lon="6.97093">
        <ele>50.275858</ele>
        <time>2020-08-02T12:56:13.571Z</time>
      </trkpt>
      <trkpt lat="62.88453" lon="6.97107">
        <ele>50.676691</ele>
        <time>2020-08-02T12:56:16.565Z</time>
      </trkpt>
      <trkpt lat="62.88463" lon="6.9712">
        <ele>51.09025</ele>
        <time>2020-08-02T12:56:19.558Z</time>
      </trkpt>
      <trkpt lat="62.88475" lon="6.97135">
        <ele>51.549433</ele>
        <time>2020-08-02T12:56:22.552Z</time>
      </trkpt>
      <trkpt lat="62.88484" lon="6.97145">
        <ele>51.876031</ele>
        <time>2020-08-02T12:56:24.535Z</time>
      </trkpt>
      <trkpt lat="62.88492" lon="6.97154">
        <ele>52.213587</ele>
        <time>2020-08-02T12:56:26.536Z</time>
      </trkpt>
      <trkpt lat="62.88501" lon="6.97164">
        <ele>52.44558</ele>
        <time>2020-08-02T12:56:28.571Z</time>
      </trkpt>
      <trkpt lat="62.8851" lon="6.97174">
        <ele>52.581629</ele>
        <time>2020-08-02T12:56:30.540Z</time>
      </trkpt>
      <trkpt lat="62.88519" lon="6.97185">
        <ele>52.721804</ele>
        <time>2020-08-02T12:56:32.546Z</time>
      </trkpt>
      <trkpt lat="62.88526" lon="6.97201">
        <ele>52.862257</ele>
        <time>2020-08-02T12:56:34.562Z</time>
      </trkpt>
      <trkpt lat="62.8853" lon="6.97222">
        <ele>53.002228</ele>
        <time>2020-08-02T12:56:36.536Z</time>
      </trkpt>
      <trkpt lat="62.88532" lon="6.97243">
        <ele>53.137879</ele>
        <time>2020-08-02T12:56:38.564Z</time>
      </trkpt>
      <trkpt lat="62.88532" lon="6.97263">
        <ele>53.264352</ele>
        <time>2020-08-02T12:56:40.551Z</time>
      </trkpt>
      <trkpt lat="62.88535" lon="6.97289">
        <ele>53.427987</ele>
        <time>2020-08-02T12:56:43.561Z</time>
      </trkpt>
      <trkpt lat="62.88543" lon="6.97311">
        <ele>53.5991</ele>
        <time>2020-08-02T12:56:46.541Z</time>
      </trkpt>
      <trkpt lat="62.88549" lon="6.97325">
        <ele>53.721608</ele>
        <time>2020-08-02T12:56:48.550Z</time>
      </trkpt>
      <trkpt lat="62.88558" lon="6.97345">
        <ele>53.899352</ele>
        <time>2020-08-02T12:56:51.547Z</time>
      </trkpt>
      <trkpt lat="62.88567" lon="6.97366">
        <ele>54.078394</ele>
        <time>2020-08-02T12:56:54.546Z</time>
      </trkpt>
      <trkpt lat="62.88574" lon="6.9738">
        <ele>54.201535</ele>
        <time>2020-08-02T12:56:56.547Z</time>
      </trkpt>
      <trkpt lat="62.88583" lon="6.974">
        <ele>54.384246</ele>
        <time>2020-08-02T12:56:59.546Z</time>
      </trkpt>
      <trkpt lat="62.88592" lon="6.97421">
        <ele>54.566523</ele>
        <time>2020-08-02T12:57:02.562Z</time>
      </trkpt>
      <trkpt lat="62.88599" lon="6.97436">
        <ele>54.692165</ele>
        <time>2020-08-02T12:57:04.568Z</time>
      </trkpt>
      <trkpt lat="62.88607" lon="6.97457">
        <ele>54.817955</ele>
        <time>2020-08-02T12:57:07.569Z</time>
      </trkpt>
      <trkpt lat="62.88615" lon="6.97477">
        <ele>54.762827</ele>
        <time>2020-08-02T12:57:10.548Z</time>
      </trkpt>
      <trkpt lat="62.88623" lon="6.97497">
        <ele>54.709334</ele>
        <time>2020-08-02T12:57:13.593Z</time>
      </trkpt>
      <trkpt lat="62.88632" lon="6.97515">
        <ele>54.658053</ele>
        <time>2020-08-02T12:57:16.565Z</time>
      </trkpt>
      <trkpt lat="62.88639" lon="6.97533">
        <ele>54.611265</ele>
        <time>2020-08-02T12:57:19.552Z</time>
      </trkpt>
      <trkpt lat="62.88646" lon="6.97551">
        <ele>54.562664</ele>
        <time>2020-08-02T12:57:22.544Z</time>
      </trkpt>
      <trkpt lat="62.88653" lon="6.97569">
        <ele>54.514216</ele>
        <time>2020-08-02T12:57:25.554Z</time>
      </trkpt>
      <trkpt lat="62.88661" lon="6.97586">
        <ele>54.465273</ele>
        <time>2020-08-02T12:57:28.546Z</time>
      </trkpt>
      <trkpt lat="62.88668" lon="6.97604">
        <ele>54.416543</ele>
        <time>2020-08-02T12:57:31.541Z</time>
      </trkpt>
      <trkpt lat="62.88676" lon="6.97623">
        <ele>54.366466</ele>
        <time>2020-08-02T12:57:34.544Z</time>
      </trkpt>
      <trkpt lat="62.88684" lon="6.97642">
        <ele>54.312083</ele>
        <time>2020-08-02T12:57:37.553Z</time>
      </trkpt>
      <trkpt lat="62.88692" lon="6.97663">
        <ele>54.25621</ele>
        <time>2020-08-02T12:57:40.543Z</time>
      </trkpt>
      <trkpt lat="62.88699" lon="6.97678">
        <ele>54.214494</ele>
        <time>2020-08-02T12:57:42.556Z</time>
      </trkpt>
      <trkpt lat="62.88706" lon="6.97694">
        <ele>54.169621</ele>
        <time>2020-08-02T12:57:44.531Z</time>
      </trkpt>
      <trkpt lat="62.88713" lon="6.97712">
        <ele>54.12135</ele>
        <time>2020-08-02T12:57:46.553Z</time>
      </trkpt>
      <trkpt lat="62.88721" lon="6.9773">
        <ele>54.071877</ele>
        <time>2020-08-02T12:57:48.573Z</time>
      </trkpt>
      <trkpt lat="62.88729" lon="6.9775">
        <ele>53.973286</ele>
        <time>2020-08-02T12:57:50.579Z</time>
      </trkpt>
      <trkpt lat="62.88738" lon="6.9777">
        <ele>53.749192</ele>
        <time>2020-08-02T12:57:52.540Z</time>
      </trkpt>
      <trkpt lat="62.88747" lon="6.97791">
        <ele>53.522163</ele>
        <time>2020-08-02T12:57:54.559Z</time>
      </trkpt>
      <trkpt lat="62.88755" lon="6.97812">
        <ele>53.295714</ele>
        <time>2020-08-02T12:57:56.590Z</time>
      </trkpt>
      <trkpt lat="62.88764" lon="6.97832">
        <ele>53.073852</ele>
        <time>2020-08-02T12:57:58.571Z</time>
      </trkpt>
      <trkpt lat="62.88774" lon="6.97851">
        <ele>52.849406</ele>
        <time>2020-08-02T12:58:00.547Z</time>
      </trkpt>
      <trkpt lat="62.88783" lon="6.97871">
        <ele>52.624959</ele>
        <time>2020-08-02T12:58:02.560Z</time>
      </trkpt>
      <trkpt lat="62.88792" lon="6.9789">
        <ele>52.399988</ele>
        <time>2020-08-02T12:58:04.577Z</time>
      </trkpt>
      <trkpt lat="62.88802" lon="6.97908">
        <ele>52.176112</ele>
        <time>2020-08-02T12:58:06.544Z</time>
      </trkpt>
      <trkpt lat="62.88812" lon="6.97926">
        <ele>51.954493</ele>
        <time>2020-08-02T12:58:08.570Z</time>
      </trkpt>
      <trkpt lat="62.88822" lon="6.97942">
        <ele>51.733226</ele>
        <time>2020-08-02T12:58:10.541Z</time>
      </trkpt>
      <trkpt lat="62.88832" lon="6.97958">
        <ele>51.523686</ele>
        <time>2020-08-02T12:58:12.565Z</time>
      </trkpt>
      <trkpt lat="62.88841" lon="6.97973">
        <ele>51.319295</ele>
        <time>2020-08-02T12:58:14.556Z</time>
      </trkpt>
      <trkpt lat="62.88851" lon="6.97987">
        <ele>51.11993</ele>
        <time>2020-08-02T12:58:16.547Z</time>
      </trkpt>
      <trkpt lat="62.8886" lon="6.98">
        <ele>50.92713</ele>
        <time>2020-08-02T12:58:18.539Z</time>
      </trkpt>
      <trkpt lat="62.88869" lon="6.98013">
        <ele>50.969982</ele>
        <time>2020-08-02T12:58:20.547Z</time>
      </trkpt>
      <trkpt lat="62.88878" lon="6.98027">
        <ele>51.06315</ele>
        <time>2020-08-02T12:58:22.541Z</time>
      </trkpt>
      <trkpt lat="62.88886" lon="6.9804">
        <ele>51.151453</ele>
        <time>2020-08-02T12:58:24.584Z</time>
      </trkpt>
      <trkpt lat="62.88894" lon="6.98053">
        <ele>51.237225</ele>
        <time>2020-08-02T12:58:26.550Z</time>
      </trkpt>
      <trkpt lat="62.88902" lon="6.98064">
        <ele>51.318131</ele>
        <time>2020-08-02T12:58:28.563Z</time>
      </trkpt>
      <trkpt lat="62.8891" lon="6.98076">
        <ele>51.398423</ele>
        <time>2020-08-02T12:58:30.554Z</time>
      </trkpt>
      <trkpt lat="62.88918" lon="6.98088">
        <ele>51.48141</ele>
        <time>2020-08-02T12:58:32.565Z</time>
      </trkpt>
      <trkpt lat="62.88929" lon="6.98104">
        <ele>51.595653</ele>
        <time>2020-08-02T12:58:35.569Z</time>
      </trkpt>
      <trkpt lat="62.88939" lon="6.98119">
        <ele>51.702565</ele>
        <time>2020-08-02T12:58:38.550Z</time>
      </trkpt>
      <trkpt lat="62.88949" lon="6.98134">
        <ele>51.805033</ele>
        <time>2020-08-02T12:58:41.579Z</time>
      </trkpt>
      <trkpt lat="62.88959" lon="6.98149">
        <ele>51.904667</ele>
        <time>2020-08-02T12:58:44.550Z</time>
      </trkpt>
      <trkpt lat="62.88969" lon="6.98164">
        <ele>52.010321</ele>
        <time>2020-08-02T12:58:47.572Z</time>
      </trkpt>
      <trkpt lat="62.88979" lon="6.98179">
        <ele>52.117739</ele>
        <time>2020-08-02T12:58:50.544Z</time>
      </trkpt>
      <trkpt lat="62.8899" lon="6.98195">
        <ele>52.230787</ele>
        <time>2020-08-02T12:58:53.549Z</time>
      </trkpt>
      <trkpt lat="62.88998" lon="6.98206">
        <ele>52.309214</ele>
        <time>2020-08-02T12:58:55.547Z</time>
      </trkpt>
      <trkpt lat="62.89009" lon="6.98223">
        <ele>52.424449</ele>
        <time>2020-08-02T12:58:58.544Z</time>
      </trkpt>
      <trkpt lat="62.89016" lon="6.98235">
        <ele>52.307321</ele>
        <time>2020-08-02T12:59:00.532Z</time>
      </trkpt>
      <trkpt lat="62.89025" lon="6.98247">
        <ele>52.135391</ele>
        <time>2020-08-02T12:59:02.550Z</time>
      </trkpt>
      <trkpt lat="62.89033" lon="6.98259">
        <ele>51.968993</ele>
        <time>2020-08-02T12:59:04.550Z</time>
      </trkpt>
      <trkpt lat="62.89041" lon="6.98271">
        <ele>51.801311</ele>
        <time>2020-08-02T12:59:06.557Z</time>
      </trkpt>
      <trkpt lat="62.8905" lon="6.98282">
        <ele>51.634921</ele>
        <time>2020-08-02T12:59:08.546Z</time>
      </trkpt>
      <trkpt lat="62.89058" lon="6.98291">
        <ele>51.474562</ele>
        <time>2020-08-02T12:59:10.546Z</time>
      </trkpt>
      <trkpt lat="62.89067" lon="6.98302">
        <ele>51.303458</ele>
        <time>2020-08-02T12:59:12.542Z</time>
      </trkpt>
      <trkpt lat="62.89076" lon="6.9831">
        <ele>51.135327</ele>
        <time>2020-08-02T12:59:14.570Z</time>
      </trkpt>
      <trkpt lat="62.89086" lon="6.98317">
        <ele>50.967613</ele>
        <time>2020-08-02T12:59:16.549Z</time>
      </trkpt>
      <trkpt lat="62.89095" lon="6.98323">
        <ele>50.798439</ele>
        <time>2020-08-02T12:59:18.558Z</time>
      </trkpt>
      <trkpt lat="62.89105" lon="6.98327">
        <ele>50.625369</ele>
        <time>2020-08-02T12:59:20.550Z</time>
      </trkpt>
      <trkpt lat="62.89115" lon="6.9833">
        <ele>50.457666</ele>
        <time>2020-08-02T12:59:22.562Z</time>
      </trkpt>
      <trkpt lat="62.89124" lon="6.98332">
        <ele>50.29579</ele>
        <time>2020-08-02T12:59:24.563Z</time>
      </trkpt>
      <trkpt lat="62.89133" lon="6.98333">
        <ele>50.142784</ele>
        <time>2020-08-02T12:59:26.552Z</time>
      </trkpt>
      <trkpt lat="62.89143" lon="6.98333">
        <ele>49.98665</ele>
        <time>2020-08-02T12:59:28.599Z</time>
      </trkpt>
      <trkpt lat="62.89152" lon="6.98333">
        <ele>49.830524</ele>
        <time>2020-08-02T12:59:30.554Z</time>
      </trkpt>
      <trkpt lat="62.89161" lon="6.98331">
        <ele>49.675406</ele>
        <time>2020-08-02T12:59:32.568Z</time>
      </trkpt>
      <trkpt lat="62.89173" lon="6.98326">
        <ele>49.459069</ele>
        <time>2020-08-02T12:59:35.535Z</time>
      </trkpt>
      <trkpt lat="62.89185" lon="6.98319">
        <ele>49.423944</ele>
        <time>2020-08-02T12:59:38.565Z</time>
      </trkpt>
      <trkpt lat="62.89197" lon="6.9831">
        <ele>49.481361</ele>
        <time>2020-08-02T12:59:41.564Z</time>
      </trkpt>
      <trkpt lat="62.89208" lon="6.983">
        <ele>49.53603</ele>
        <time>2020-08-02T12:59:44.565Z</time>
      </trkpt>
      <trkpt lat="62.89218" lon="6.9829">
        <ele>49.58549</ele>
        <time>2020-08-02T12:59:47.560Z</time>
      </trkpt>
      <trkpt lat="62.89226" lon="6.9828">
        <ele>49.629937</ele>
        <time>2020-08-02T12:59:50.544Z</time>
      </trkpt>
      <trkpt lat="62.89234" lon="6.98269">
        <ele>49.673528</ele>
        <time>2020-08-02T12:59:53.548Z</time>
      </trkpt>
      <trkpt lat="62.89243" lon="6.98257">
        <ele>49.719347</ele>
        <time>2020-08-02T12:59:56.572Z</time>
      </trkpt>
      <trkpt lat="62.89251" lon="6.98242">
        <ele>49.768104</ele>
        <time>2020-08-02T12:59:59.545Z</time>
      </trkpt>
      <trkpt lat="62.89258" lon="6.98228">
        <ele>49.812893</ele>
        <time>2020-08-02T13:00:02.546Z</time>
      </trkpt>
      <trkpt lat="62.89266" lon="6.98213">
        <ele>49.859694</ele>
        <time>2020-08-02T13:00:05.546Z</time>
      </trkpt>
      <trkpt lat="62.89273" lon="6.98196">
        <ele>49.907107</ele>
        <time>2020-08-02T13:00:08.556Z</time>
      </trkpt>
      <trkpt lat="62.89279" lon="6.98177">
        <ele>49.956581</ele>
        <time>2020-08-02T13:00:11.579Z</time>
      </trkpt>
      <trkpt lat="62.89285" lon="6.98155">
        <ele>50.01177</ele>
        <time>2020-08-02T13:00:14.561Z</time>
      </trkpt>
      <trkpt lat="62.8929" lon="6.98137">
        <ele>50.053282</ele>
        <time>2020-08-02T13:00:16.572Z</time>
      </trkpt>
      <trkpt lat="62.89294" lon="6.9812">
        <ele>50.094587</ele>
        <time>2020-08-02T13:00:18.543Z</time>
      </trkpt>
      <trkpt lat="62.893" lon="6.98101">
        <ele>50.141801</ele>
        <time>2020-08-02T13:00:20.561Z</time>
      </trkpt>
      <trkpt lat="62.89305" lon="6.98081">
        <ele>50.19112</ele>
        <time>2020-08-02T13:00:22.542Z</time>
      </trkpt>
      <trkpt lat="62.89311" lon="6.98061">
        <ele>50.034268</ele>
        <time>2020-08-02T13:00:24.539Z</time>
      </trkpt>
      <trkpt lat="62.89317" lon="6.9804">
        <ele>49.707987</ele>
        <time>2020-08-02T13:00:26.591Z</time>
      </trkpt>
      <trkpt lat="62.89323" lon="6.9802">
        <ele>49.373481</ele>
        <time>2020-08-02T13:00:28.556Z</time>
      </trkpt>
      <trkpt lat="62.89329" lon="6.97999">
        <ele>49.030141</ele>
        <time>2020-08-02T13:00:30.545Z</time>
      </trkpt>
      <trkpt lat="62.89336" lon="6.97979">
        <ele>48.684741</ele>
        <time>2020-08-02T13:00:32.548Z</time>
      </trkpt>
      <trkpt lat="62.89344" lon="6.9796">
        <ele>48.341864</ele>
        <time>2020-08-02T13:00:34.559Z</time>
      </trkpt>
      <trkpt lat="62.89351" lon="6.97942">
        <ele>48.02114</ele>
        <time>2020-08-02T13:00:36.567Z</time>
      </trkpt>
      <trkpt lat="62.89358" lon="6.97924">
        <ele>47.705602</ele>
        <time>2020-08-02T13:00:38.562Z</time>
      </trkpt>
      <trkpt lat="62.89366" lon="6.97908">
        <ele>47.377092</ele>
        <time>2020-08-02T13:00:40.544Z</time>
      </trkpt>
      <trkpt lat="62.89374" lon="6.97893">
        <ele>47.055607</ele>
        <time>2020-08-02T13:00:42.552Z</time>
      </trkpt>
      <trkpt lat="62.89383" lon="6.97879">
        <ele>46.730258</ele>
        <time>2020-08-02T13:00:44.539Z</time>
      </trkpt>
      <trkpt lat="62.89392" lon="6.97864">
        <ele>46.396929</ele>
        <time>2020-08-02T13:00:46.553Z</time>
      </trkpt>
      <trkpt lat="62.89401" lon="6.97852">
        <ele>46.071308</ele>
        <time>2020-08-02T13:00:48.540Z</time>
      </trkpt>
      <trkpt lat="62.89411" lon="6.97841">
        <ele>45.747967</ele>
        <time>2020-08-02T13:00:50.543Z</time>
      </trkpt>
      <trkpt lat="62.89421" lon="6.97831">
        <ele>45.422439</ele>
        <time>2020-08-02T13:00:52.576Z</time>
      </trkpt>
      <trkpt lat="62.89431" lon="6.97823">
        <ele>45.087074</ele>
        <time>2020-08-02T13:00:54.543Z</time>
      </trkpt>
      <trkpt lat="62.89442" lon="6.97816">
        <ele>44.812184</ele>
        <time>2020-08-02T13:00:56.543Z</time>
      </trkpt>
      <trkpt lat="62.89453" lon="6.9781">
        <ele>44.733726</ele>
        <time>2020-08-02T13:00:58.539Z</time>
      </trkpt>
      <trkpt lat="62.89463" lon="6.97805">
        <ele>44.654923</ele>
        <time>2020-08-02T13:01:00.547Z</time>
      </trkpt>
      <trkpt lat="62.89474" lon="6.97802">
        <ele>44.578488</ele>
        <time>2020-08-02T13:01:02.569Z</time>
      </trkpt>
      <trkpt lat="62.89485" lon="6.97799">
        <ele>44.502375</ele>
        <time>2020-08-02T13:01:04.582Z</time>
      </trkpt>
      <trkpt lat="62.89495" lon="6.97796">
        <ele>44.42594</ele>
        <time>2020-08-02T13:01:06.565Z</time>
      </trkpt>
      <trkpt lat="62.89506" lon="6.97792">
        <ele>44.350614</ele>
        <time>2020-08-02T13:01:08.567Z</time>
      </trkpt>
      <trkpt lat="62.89516" lon="6.97789">
        <ele>44.277849</ele>
        <time>2020-08-02T13:01:10.569Z</time>
      </trkpt>
      <trkpt lat="62.89526" lon="6.97788">
        <ele>44.206309</ele>
        <time>2020-08-02T13:01:12.547Z</time>
      </trkpt>
      <trkpt lat="62.89535" lon="6.97787">
        <ele>44.136947</ele>
        <time>2020-08-02T13:01:14.556Z</time>
      </trkpt>
      <trkpt lat="62.89545" lon="6.97783">
        <ele>44.065407</ele>
        <time>2020-08-02T13:01:16.577Z</time>
      </trkpt>
      <trkpt lat="62.89555" lon="6.9778">
        <ele>43.995559</ele>
        <time>2020-08-02T13:01:18.565Z</time>
      </trkpt>
      <trkpt lat="62.89565" lon="6.97779">
        <ele>43.921815</ele>
        <time>2020-08-02T13:01:20.554Z</time>
      </trkpt>
      <trkpt lat="62.89575" lon="6.97777">
        <ele>43.850893</ele>
        <time>2020-08-02T13:01:22.556Z</time>
      </trkpt>
      <trkpt lat="62.89585" lon="6.97774">
        <ele>43.780108</ele>
        <time>2020-08-02T13:01:24.548Z</time>
      </trkpt>
      <trkpt lat="62.89595" lon="6.97769">
        <ele>43.705699</ele>
        <time>2020-08-02T13:01:26.550Z</time>
      </trkpt>
      <trkpt lat="62.89605" lon="6.97764">
        <ele>43.631634</ele>
        <time>2020-08-02T13:01:28.554Z</time>
      </trkpt>
      <trkpt lat="62.89615" lon="6.97758">
        <ele>43.560026</ele>
        <time>2020-08-02T13:01:30.543Z</time>
      </trkpt>
      <trkpt lat="62.89624" lon="6.97752">
        <ele>43.640783</ele>
        <time>2020-08-02T13:01:32.544Z</time>
      </trkpt>
      <trkpt lat="62.89634" lon="6.97745">
        <ele>43.750501</ele>
        <time>2020-08-02T13:01:34.558Z</time>
      </trkpt>
      <trkpt lat="62.89643" lon="6.97738">
        <ele>43.861808</ele>
        <time>2020-08-02T13:01:36.588Z</time>
      </trkpt>
      <trkpt lat="62.89652" lon="6.97731">
        <ele>43.970616</ele>
        <time>2020-08-02T13:01:38.564Z</time>
      </trkpt>
      <trkpt lat="62.89661" lon="6.97723">
        <ele>44.078936</ele>
        <time>2020-08-02T13:01:40.589Z</time>
      </trkpt>
      <trkpt lat="62.89669" lon="6.97715">
        <ele>44.187209</ele>
        <time>2020-08-02T13:01:42.535Z</time>
      </trkpt>
      <trkpt lat="62.89682" lon="6.97703">
        <ele>44.342106</ele>
        <time>2020-08-02T13:01:45.563Z</time>
      </trkpt>
      <trkpt lat="62.89691" lon="6.97693">
        <ele>44.459051</ele>
        <time>2020-08-02T13:01:47.569Z</time>
      </trkpt>
      <trkpt lat="62.897" lon="6.97683">
        <ele>44.57237</ele>
        <time>2020-08-02T13:01:49.551Z</time>
      </trkpt>
      <trkpt lat="62.89708" lon="6.97672">
        <ele>44.684945</ele>
        <time>2020-08-02T13:01:51.561Z</time>
      </trkpt>
      <trkpt lat="62.89717" lon="6.97661">
        <ele>44.800702</ele>
        <time>2020-08-02T13:01:53.582Z</time>
      </trkpt>
      <trkpt lat="62.89725" lon="6.97649">
        <ele>44.914138</ele>
        <time>2020-08-02T13:01:55.559Z</time>
      </trkpt>
      <trkpt lat="62.89733" lon="6.97637">
        <ele>45.023859</ele>
        <time>2020-08-02T13:01:57.537Z</time>
      </trkpt>
      <trkpt lat="62.89741" lon="6.97624">
        <ele>45.135639</ele>
        <time>2020-08-02T13:01:59.555Z</time>
      </trkpt>
      <trkpt lat="62.89749" lon="6.97611">
        <ele>45.247421</ele>
        <time>2020-08-02T13:02:01.558Z</time>
      </trkpt>
      <trkpt lat="62.89756" lon="6.97597">
        <ele>45.358596</ele>
        <time>2020-08-02T13:02:03.554Z</time>
      </trkpt>
      <trkpt lat="62.89763" lon="6.97583">
        <ele>45.468227</ele>
        <time>2020-08-02T13:02:05.548Z</time>
      </trkpt>
      <trkpt lat="62.8977" lon="6.97569">
        <ele>45.578357</ele>
        <time>2020-08-02T13:02:07.547Z</time>
      </trkpt>
      <trkpt lat="62.89777" lon="6.97554">
        <ele>45.658749</ele>
        <time>2020-08-02T13:02:09.581Z</time>
      </trkpt>
      <trkpt lat="62.89784" lon="6.97539">
        <ele>45.72895</ele>
        <time>2020-08-02T13:02:11.543Z</time>
      </trkpt>
      <trkpt lat="62.8979" lon="6.97524">
        <ele>45.79864</ele>
        <time>2020-08-02T13:02:13.540Z</time>
      </trkpt>
      <trkpt lat="62.89796" lon="6.9751">
        <ele>45.866805</ele>
        <time>2020-08-02T13:02:15.588Z</time>
      </trkpt>
      <trkpt lat="62.89803" lon="6.97494">
        <ele>45.940326</ele>
        <time>2020-08-02T13:02:17.565Z</time>
      </trkpt>
      <trkpt lat="62.89809" lon="6.97478">
        <ele>46.011588</ele>
        <time>2020-08-02T13:02:19.560Z</time>
      </trkpt>
      <trkpt lat="62.89815" lon="6.97462">
        <ele>46.084878</ele>
        <time>2020-08-02T13:02:21.543Z</time>
      </trkpt>
      <trkpt lat="62.89821" lon="6.97447">
        <ele>46.154864</ele>
        <time>2020-08-02T13:02:23.537Z</time>
      </trkpt>
      <trkpt lat="62.89827" lon="6.9743">
        <ele>46.227665</ele>
        <time>2020-08-02T13:02:25.552Z</time>
      </trkpt>
      <trkpt lat="62.89833" lon="6.97415">
        <ele>46.297165</ele>
        <time>2020-08-02T13:02:27.546Z</time>
      </trkpt>
      <trkpt lat="62.89839" lon="6.974">
        <ele>46.365838</ele>
        <time>2020-08-02T13:02:29.542Z</time>
      </trkpt>
      <trkpt lat="62.89845" lon="6.97385">
        <ele>46.434006</ele>
        <time>2020-08-02T13:02:31.552Z</time>
      </trkpt>
      <trkpt lat="62.89851" lon="6.9737">
        <ele>46.50373</ele>
        <time>2020-08-02T13:02:33.571Z</time>
      </trkpt>
      <trkpt lat="62.89857" lon="6.97354">
        <ele>46.573948</ele>
        <time>2020-08-02T13:02:35.614Z</time>
      </trkpt>
      <trkpt lat="62.89864" lon="6.97339">
        <ele>46.643647</ele>
        <time>2020-08-02T13:02:37.546Z</time>
      </trkpt>
      <trkpt lat="62.8987" lon="6.97324">
        <ele>46.714124</ele>
        <time>2020-08-02T13:02:39.551Z</time>
      </trkpt>
      <trkpt lat="62.89876" lon="6.97308">
        <ele>46.785876</ele>
        <time>2020-08-02T13:02:41.560Z</time>
      </trkpt>
      <trkpt lat="62.89882" lon="6.97292">
        <ele>46.854953</ele>
        <time>2020-08-02T13:02:43.563Z</time>
      </trkpt>
      <trkpt lat="62.89888" lon="6.97275">
        <ele>46.931545</ele>
        <time>2020-08-02T13:02:45.546Z</time>
      </trkpt>
      <trkpt lat="62.89894" lon="6.97259">
        <ele>46.891736</ele>
        <time>2020-08-02T13:02:47.573Z</time>
      </trkpt>
      <trkpt lat="62.899" lon="6.97244">
        <ele>46.79225</ele>
        <time>2020-08-02T13:02:49.551Z</time>
      </trkpt>
      <trkpt lat="62.89909" lon="6.97222">
        <ele>46.645442</ele>
        <time>2020-08-02T13:02:52.566Z</time>
      </trkpt>
      <trkpt lat="62.89918" lon="6.97201">
        <ele>46.499003</ele>
        <time>2020-08-02T13:02:55.563Z</time>
      </trkpt>
      <trkpt lat="62.89928" lon="6.9718">
        <ele>46.351658</ele>
        <time>2020-08-02T13:02:58.552Z</time>
      </trkpt>
      <trkpt lat="62.89938" lon="6.9716">
        <ele>46.207345</ele>
        <time>2020-08-02T13:03:01.557Z</time>
      </trkpt>
      <trkpt lat="62.89944" lon="6.97145">
        <ele>46.103801</ele>
        <time>2020-08-02T13:03:03.571Z</time>
      </trkpt>
      <trkpt lat="62.89949" lon="6.97128">
        <ele>45.999302</ele>
        <time>2020-08-02T13:03:05.600Z</time>
      </trkpt>
      <trkpt lat="62.89952" lon="6.97108">
        <ele>45.895982</ele>
        <time>2020-08-02T13:03:07.532Z</time>
      </trkpt>
      <trkpt lat="62.89953" lon="6.97088">
        <ele>45.796833</ele>
        <time>2020-08-02T13:03:09.583Z</time>
      </trkpt>
      <trkpt lat="62.89952" lon="6.97061">
        <ele>45.65705</ele>
        <time>2020-08-02T13:03:12.591Z</time>
      </trkpt>
      <trkpt lat="62.89959" lon="6.97047">
        <ele>45.55234</ele>
        <time>2020-08-02T13:03:14.547Z</time>
      </trkpt>
      <trkpt lat="62.89969" lon="6.97047">
        <ele>45.449105</ele>
        <time>2020-08-02T13:03:16.542Z</time>
      </trkpt>
      <trkpt lat="62.8998" lon="6.97039">
        <ele>45.316168</ele>
        <time>2020-08-02T13:03:19.541Z</time>
      </trkpt>
      <trkpt lat="62.8999" lon="6.97018">
        <ele>45.168888</ele>
        <time>2020-08-02T13:03:22.546Z</time>
      </trkpt>
      <trkpt lat="62.89995" lon="6.97003">
        <ele>45.069015</ele>
        <time>2020-08-02T13:03:24.562Z</time>
      </trkpt>
      <trkpt lat="62.90001" lon="6.96987">
        <ele>44.993607</ele>
        <time>2020-08-02T13:03:26.600Z</time>
      </trkpt>
      <trkpt lat="62.90007" lon="6.96969">
        <ele>45.054056</ele>
        <time>2020-08-02T13:03:28.570Z</time>
      </trkpt>
      <trkpt lat="62.90013" lon="6.96952">
        <ele>45.115129</ele>
        <time>2020-08-02T13:03:30.554Z</time>
      </trkpt>
      <trkpt lat="62.9002" lon="6.96935">
        <ele>45.176095</ele>
        <time>2020-08-02T13:03:32.561Z</time>
      </trkpt>
      <trkpt lat="62.90025" lon="6.96917">
        <ele>45.236992</ele>
        <time>2020-08-02T13:03:34.567Z</time>
      </trkpt>
      <trkpt lat="62.90031" lon="6.969">
        <ele>45.297586</ele>
        <time>2020-08-02T13:03:36.553Z</time>
      </trkpt>
      <trkpt lat="62.90037" lon="6.96883">
        <ele>45.356957</ele>
        <time>2020-08-02T13:03:38.537Z</time>
      </trkpt>
      <trkpt lat="62.90042" lon="6.96865">
        <ele>45.415794</ele>
        <time>2020-08-02T13:03:40.589Z</time>
      </trkpt>
      <trkpt lat="62.90047" lon="6.96847">
        <ele>45.472801</ele>
        <time>2020-08-02T13:03:42.552Z</time>
      </trkpt>
      <trkpt lat="62.90053" lon="6.96821">
        <ele>45.554914</ele>
        <time>2020-08-02T13:03:45.556Z</time>
      </trkpt>
      <trkpt lat="62.90057" lon="6.96803">
        <ele>45.610726</ele>
        <time>2020-08-02T13:03:47.563Z</time>
      </trkpt>
      <trkpt lat="62.90061" lon="6.96786">
        <ele>45.66577</ele>
        <time>2020-08-02T13:03:49.532Z</time>
      </trkpt>
      <trkpt lat="62.90065" lon="6.96766">
        <ele>45.724611</ele>
        <time>2020-08-02T13:03:51.574Z</time>
      </trkpt>
      <trkpt lat="62.90069" lon="6.96748">
        <ele>45.780929</ele>
        <time>2020-08-02T13:03:53.568Z</time>
      </trkpt>
      <trkpt lat="62.90073" lon="6.96729">
        <ele>45.837527</ele>
        <time>2020-08-02T13:03:55.540Z</time>
      </trkpt>
      <trkpt lat="62.90077" lon="6.96702">
        <ele>45.916648</ele>
        <time>2020-08-02T13:03:58.541Z</time>
      </trkpt>
      <trkpt lat="62.90081" lon="6.96676">
        <ele>45.994113</ele>
        <time>2020-08-02T13:04:01.548Z</time>
      </trkpt>
      <trkpt lat="62.90085" lon="6.9665">
        <ele>46.070395</ele>
        <time>2020-08-02T13:04:04.562Z</time>
      </trkpt>
      <trkpt lat="62.90089" lon="6.96624">
        <ele>46.280628</ele>
        <time>2020-08-02T13:04:07.545Z</time>
      </trkpt>
      <trkpt lat="62.90093" lon="6.966">
        <ele>46.509242</ele>
        <time>2020-08-02T13:04:10.551Z</time>
      </trkpt>
      <trkpt lat="62.90097" lon="6.96575">
        <ele>46.739308</ele>
        <time>2020-08-02T13:04:13.565Z</time>
      </trkpt>
      <trkpt lat="62.901" lon="6.96551">
        <ele>46.961667</ele>
        <time>2020-08-02T13:04:16.537Z</time>
      </trkpt>
      <trkpt lat="62.90104" lon="6.96527">
        <ele>47.180904</ele>
        <time>2020-08-02T13:04:19.554Z</time>
      </trkpt>
      <trkpt lat="62.90107" lon="6.96503">
        <ele>47.40168</ele>
        <time>2020-08-02T13:04:22.569Z</time>
      </trkpt>
      <trkpt lat="62.90112" lon="6.96481">
        <ele>47.615362</ele>
        <time>2020-08-02T13:04:25.545Z</time>
      </trkpt>
      <trkpt lat="62.90116" lon="6.96459">
        <ele>47.821619</ele>
        <time>2020-08-02T13:04:28.541Z</time>
      </trkpt>
      <trkpt lat="62.9012" lon="6.96438">
        <ele>48.029459</ele>
        <time>2020-08-02T13:04:31.546Z</time>
      </trkpt>
      <trkpt lat="62.90126" lon="6.96416">
        <ele>48.248975</ele>
        <time>2020-08-02T13:04:34.593Z</time>
      </trkpt>
      <trkpt lat="62.90132" lon="6.96394">
        <ele>48.469234</ele>
        <time>2020-08-02T13:04:37.556Z</time>
      </trkpt>
      <trkpt lat="62.90138" lon="6.96374">
        <ele>48.684319</ele>
        <time>2020-08-02T13:04:40.571Z</time>
      </trkpt>
      <trkpt lat="62.90144" lon="6.96354">
        <ele>48.890061</ele>
        <time>2020-08-02T13:04:43.554Z</time>
      </trkpt>
      <trkpt lat="62.90149" lon="6.96335">
        <ele>49.08603</ele>
        <time>2020-08-02T13:04:46.567Z</time>
      </trkpt>
      <trkpt lat="62.90155" lon="6.9632">
        <ele>49.268491</ele>
        <time>2020-08-02T13:04:49.547Z</time>
      </trkpt>
      <trkpt lat="62.90163" lon="6.96307">
        <ele>49.463541</ele>
        <time>2020-08-02T13:04:52.568Z</time>
      </trkpt>
      <trkpt lat="62.90171" lon="6.96292">
        <ele>49.724971</ele>
        <time>2020-08-02T13:04:55.549Z</time>
      </trkpt>
      <trkpt lat="62.90178" lon="6.96274">
        <ele>50.048274</ele>
        <time>2020-08-02T13:04:58.549Z</time>
      </trkpt>
      <trkpt lat="62.90184" lon="6.96255">
        <ele>50.383864</ele>
        <time>2020-08-02T13:05:01.547Z</time>
      </trkpt>
      <trkpt lat="62.9019" lon="6.96237">
        <ele>50.700016</ele>
        <time>2020-08-02T13:05:04.528Z</time>
      </trkpt>
      <trkpt lat="62.90197" lon="6.96218">
        <ele>51.032227</ele>
        <time>2020-08-02T13:05:07.563Z</time>
      </trkpt>
      <trkpt lat="62.90203" lon="6.96199">
        <ele>51.354655</ele>
        <time>2020-08-02T13:05:10.565Z</time>
      </trkpt>
      <trkpt lat="62.90209" lon="6.96181">
        <ele>51.679492</ele>
        <time>2020-08-02T13:05:13.542Z</time>
      </trkpt>
      <trkpt lat="62.90214" lon="6.96162">
        <ele>51.998442</ele>
        <time>2020-08-02T13:05:16.633Z</time>
      </trkpt>
      <trkpt lat="62.90221" lon="6.96144">
        <ele>52.32428</ele>
        <time>2020-08-02T13:05:19.539Z</time>
      </trkpt>
      <trkpt lat="62.90228" lon="6.96124">
        <ele>52.679888</ele>
        <time>2020-08-02T13:05:22.561Z</time>
      </trkpt>
      <trkpt lat="62.90235" lon="6.96103">
        <ele>53.03737</ele>
        <time>2020-08-02T13:05:25.558Z</time>
      </trkpt>
      <trkpt lat="62.9024" lon="6.96082">
        <ele>53.381036</ele>
        <time>2020-08-02T13:05:28.566Z</time>
      </trkpt>
      <trkpt lat="62.90246" lon="6.96061">
        <ele>53.730022</ele>
        <time>2020-08-02T13:05:31.540Z</time>
      </trkpt>
      <trkpt lat="62.9025" lon="6.9604">
        <ele>54.051349</ele>
        <time>2020-08-02T13:05:34.580Z</time>
      </trkpt>
      <trkpt lat="62.90254" lon="6.9602">
        <ele>54.3638</ele>
        <time>2020-08-02T13:05:37.543Z</time>
      </trkpt>
      <trkpt lat="62.90257" lon="6.95999">
        <ele>54.675406</ele>
        <time>2020-08-02T13:05:40.550Z</time>
      </trkpt>
      <trkpt lat="62.90261" lon="6.95979">
        <ele>54.976891</ele>
        <time>2020-08-02T13:05:43.536Z</time>
      </trkpt>
      <trkpt lat="62.90264" lon="6.95954">
        <ele>55.439306</ele>
        <time>2020-08-02T13:05:47.561Z</time>
      </trkpt>
      <trkpt lat="62.90266" lon="6.95934">
        <ele>55.848722</ele>
        <time>2020-08-02T13:05:50.614Z</time>
      </trkpt>
      <trkpt lat="62.90267" lon="6.95909">
        <ele>56.379002</ele>
        <time>2020-08-02T13:05:54.563Z</time>
      </trkpt>
      <trkpt lat="62.90269" lon="6.95884">
        <ele>56.89186</ele>
        <time>2020-08-02T13:05:58.581Z</time>
      </trkpt>
      <trkpt lat="62.90269" lon="6.95861">
        <ele>57.357614</ele>
        <time>2020-08-02T13:06:02.547Z</time>
      </trkpt>
      <trkpt lat="62.90269" lon="6.95839">
        <ele>57.794609</ele>
        <time>2020-08-02T13:06:06.583Z</time>
      </trkpt>
      <trkpt lat="62.90269" lon="6.95817">
        <ele>58.250047</ele>
        <time>2020-08-02T13:06:10.550Z</time>
      </trkpt>
      <trkpt lat="62.90268" lon="6.95796">
        <ele>58.685347</ele>
        <time>2020-08-02T13:06:14.555Z</time>
      </trkpt>
      <trkpt lat="62.90268" lon="6.95775">
        <ele>59.106366</ele>
        <time>2020-08-02T13:06:18.543Z</time>
      </trkpt>
      <trkpt lat="62.90267" lon="6.95753">
        <ele>59.559432</ele>
        <time>2020-08-02T13:06:23.551Z</time>
      </trkpt>
      <trkpt lat="62.90266" lon="6.95731">
        <ele>60.012421</ele>
        <time>2020-08-02T13:06:28.536Z</time>
      </trkpt>
      <trkpt lat="62.90265" lon="6.9571">
        <ele>60.443563</ele>
        <time>2020-08-02T13:06:33.543Z</time>
      </trkpt>
      <trkpt lat="62.90263" lon="6.9569">
        <ele>60.868259</ele>
        <time>2020-08-02T13:06:38.552Z</time>
      </trkpt>
      <trkpt lat="62.90261" lon="6.95666">
        <ele>61.35125</ele>
        <time>2020-08-02T13:06:44.562Z</time>
      </trkpt>
      <trkpt lat="62.90259" lon="6.95644">
        <ele>61.820231</ele>
        <time>2020-08-02T13:06:50.573Z</time>
      </trkpt>
      <trkpt lat="62.90256" lon="6.95622">
        <ele>62.296315</ele>
        <time>2020-08-02T13:06:56.561Z</time>
      </trkpt>
      <trkpt lat="62.90253" lon="6.956">
        <ele>62.758748</ele>
        <time>2020-08-02T13:07:02.541Z</time>
      </trkpt>
      <trkpt lat="62.90251" lon="6.95579">
        <ele>63.197919</ele>
        <time>2020-08-02T13:07:07.546Z</time>
      </trkpt>
      <trkpt lat="62.9025" lon="6.95558">
        <ele>63.56263</ele>
        <time>2020-08-02T13:07:12.536Z</time>
      </trkpt>
      <trkpt lat="62.90247" lon="6.95537">
        <ele>63.923892</ele>
        <time>2020-08-02T13:07:17.549Z</time>
      </trkpt>
      <trkpt lat="62.90245" lon="6.95518">
        <ele>64.261102</ele>
        <time>2020-08-02T13:07:22.564Z</time>
      </trkpt>
      <trkpt lat="62.90243" lon="6.95498">
        <ele>64.608642</ele>
        <time>2020-08-02T13:07:27.550Z</time>
      </trkpt>
      <trkpt lat="62.90242" lon="6.95477">
        <ele>64.97696</ele>
        <time>2020-08-02T13:07:32.567Z</time>
      </trkpt>
      <trkpt lat="62.90241" lon="6.95456">
        <ele>65.329438</ele>
        <time>2020-08-02T13:07:37.591Z</time>
      </trkpt>
      <trkpt lat="62.9024" lon="6.95435">
        <ele>65.691168</ele>
        <time>2020-08-02T13:07:42.550Z</time>
      </trkpt>
      <trkpt lat="62.90239" lon="6.95414">
        <ele>66.050429</ele>
        <time>2020-08-02T13:07:47.549Z</time>
      </trkpt>
      <trkpt lat="62.90238" lon="6.95394">
        <ele>66.388046</ele>
        <time>2020-08-02T13:07:52.542Z</time>
      </trkpt>
      <trkpt lat="62.90238" lon="6.95371">
        <ele>66.791732</ele>
        <time>2020-08-02T13:07:57.540Z</time>
      </trkpt>
      <trkpt lat="62.90237" lon="6.95347">
        <ele>67.201348</ele>
        <time>2020-08-02T13:08:02.546Z</time>
      </trkpt>
      <trkpt lat="62.90237" lon="6.95323">
        <ele>67.603593</ele>
        <time>2020-08-02T13:08:07.548Z</time>
      </trkpt>
      <trkpt lat="62.90237" lon="6.95299">
        <ele>68.014092</ele>
        <time>2020-08-02T13:08:12.560Z</time>
      </trkpt>
      <trkpt lat="62.90238" lon="6.95278">
        <ele>68.375584</ele>
        <time>2020-08-02T13:08:16.565Z</time>
      </trkpt>
      <trkpt lat="62.90242" lon="6.95255">
        <ele>68.786593</ele>
        <time>2020-08-02T13:08:20.555Z</time>
      </trkpt>
      <trkpt lat="62.90244" lon="6.95234">
        <ele>69.166452</ele>
        <time>2020-08-02T13:08:24.543Z</time>
      </trkpt>
      <trkpt lat="62.90248" lon="6.95215">
        <ele>69.507471</ele>
        <time>2020-08-02T13:08:27.541Z</time>
      </trkpt>
      <trkpt lat="62.90253" lon="6.95195">
        <ele>69.896599</ele>
        <time>2020-08-02T13:08:30.548Z</time>
      </trkpt>
      <trkpt lat="62.90257" lon="6.95173">
        <ele>69.765149</ele>
        <time>2020-08-02T13:08:33.554Z</time>
      </trkpt>
      <trkpt lat="62.90259" lon="6.9515">
        <ele>69.601879</ele>
        <time>2020-08-02T13:08:36.550Z</time>
      </trkpt>
      <trkpt lat="62.90264" lon="6.95129">
        <ele>69.439746</ele>
        <time>2020-08-02T13:08:39.541Z</time>
      </trkpt>
      <trkpt lat="62.9027" lon="6.95104">
        <ele>69.246641</ele>
        <time>2020-08-02T13:08:42.561Z</time>
      </trkpt>
      <trkpt lat="62.90275" lon="6.95085">
        <ele>69.092731</ele>
        <time>2020-08-02T13:08:44.553Z</time>
      </trkpt>
      <trkpt lat="62.9028" lon="6.95065">
        <ele>68.932792</ele>
        <time>2020-08-02T13:08:46.548Z</time>
      </trkpt>
      <trkpt lat="62.90285" lon="6.95046">
        <ele>68.778515</ele>
        <time>2020-08-02T13:08:48.585Z</time>
      </trkpt>
      <trkpt lat="62.90291" lon="6.95027">
        <ele>68.618863</ele>
        <time>2020-08-02T13:08:50.582Z</time>
      </trkpt>
      <trkpt lat="62.90297" lon="6.95007">
        <ele>68.462255</ele>
        <time>2020-08-02T13:08:52.558Z</time>
      </trkpt>
      <trkpt lat="62.90302" lon="6.94987">
        <ele>68.30249</ele>
        <time>2020-08-02T13:08:54.540Z</time>
      </trkpt>
      <trkpt lat="62.90308" lon="6.94966">
        <ele>68.128291</ele>
        <time>2020-08-02T13:08:56.565Z</time>
      </trkpt>
      <trkpt lat="62.90315" lon="6.94943">
        <ele>67.94435</ele>
        <time>2020-08-02T13:08:58.556Z</time>
      </trkpt>
      <trkpt lat="62.90321" lon="6.9492">
        <ele>67.753926</ele>
        <time>2020-08-02T13:09:00.563Z</time>
      </trkpt>
      <trkpt lat="62.90327" lon="6.94896">
        <ele>67.562817</ele>
        <time>2020-08-02T13:09:02.544Z</time>
      </trkpt>
      <trkpt lat="62.90333" lon="6.94871">
        <ele>67.365667</ele>
        <time>2020-08-02T13:09:04.570Z</time>
      </trkpt>
      <trkpt lat="62.9034" lon="6.94844">
        <ele>67.127582</ele>
        <time>2020-08-02T13:09:06.564Z</time>
      </trkpt>
      <trkpt lat="62.90346" lon="6.94815">
        <ele>66.680473</ele>
        <time>2020-08-02T13:09:08.593Z</time>
      </trkpt>
      <trkpt lat="62.90353" lon="6.94784">
        <ele>66.208355</ele>
        <time>2020-08-02T13:09:10.549Z</time>
      </trkpt>
      <trkpt lat="62.9036" lon="6.94752">
        <ele>65.718729</ele>
        <time>2020-08-02T13:09:12.569Z</time>
      </trkpt>
      <trkpt lat="62.90365" lon="6.94718">
        <ele>65.219208</ele>
        <time>2020-08-02T13:09:14.564Z</time>
      </trkpt>
      <trkpt lat="62.90371" lon="6.94685">
        <ele>64.724394</ele>
        <time>2020-08-02T13:09:16.609Z</time>
      </trkpt>
      <trkpt lat="62.90376" lon="6.94651">
        <ele>64.229315</ele>
        <time>2020-08-02T13:09:18.572Z</time>
      </trkpt>
      <trkpt lat="62.90381" lon="6.94618">
        <ele>63.755954</ele>
        <time>2020-08-02T13:09:20.540Z</time>
      </trkpt>
      <trkpt lat="62.90385" lon="6.94584">
        <ele>63.275664</ele>
        <time>2020-08-02T13:09:22.569Z</time>
      </trkpt>
      <trkpt lat="62.90388" lon="6.94551">
        <ele>62.794262</ele>
        <time>2020-08-02T13:09:24.565Z</time>
      </trkpt>
      <trkpt lat="62.90392" lon="6.94517">
        <ele>62.317586</ele>
        <time>2020-08-02T13:09:26.543Z</time>
      </trkpt>
      <trkpt lat="62.90395" lon="6.94485">
        <ele>61.864421</ele>
        <time>2020-08-02T13:09:28.544Z</time>
      </trkpt>
      <trkpt lat="62.90399" lon="6.94455">
        <ele>61.563022</ele>
        <time>2020-08-02T13:09:30.563Z</time>
      </trkpt>
      <trkpt lat="62.90402" lon="6.94426">
        <ele>61.326928</ele>
        <time>2020-08-02T13:09:32.542Z</time>
      </trkpt>
      <trkpt lat="62.90405" lon="6.94398">
        <ele>61.099733</ele>
        <time>2020-08-02T13:09:34.565Z</time>
      </trkpt>
      <trkpt lat="62.90408" lon="6.94371">
        <ele>60.880963</ele>
        <time>2020-08-02T13:09:36.550Z</time>
      </trkpt>
      <trkpt lat="62.90411" lon="6.94343">
        <ele>60.662549</ele>
        <time>2020-08-02T13:09:38.605Z</time>
      </trkpt>
      <trkpt lat="62.90413" lon="6.94316">
        <ele>60.445589</ele>
        <time>2020-08-02T13:09:40.630Z</time>
      </trkpt>
      <trkpt lat="62.90416" lon="6.9429">
        <ele>60.230271</ele>
        <time>2020-08-02T13:09:42.546Z</time>
      </trkpt>
      <trkpt lat="62.90418" lon="6.94264">
        <ele>60.022561</ele>
        <time>2020-08-02T13:09:44.590Z</time>
      </trkpt>
      <trkpt lat="62.9042" lon="6.94237">
        <ele>59.807781</ele>
        <time>2020-08-02T13:09:46.572Z</time>
      </trkpt>
      <trkpt lat="62.90423" lon="6.9421">
        <ele>59.593002</ele>
        <time>2020-08-02T13:09:48.569Z</time>
      </trkpt>
      <trkpt lat="62.90425" lon="6.94183">
        <ele>59.37791</ele>
        <time>2020-08-02T13:09:50.548Z</time>
      </trkpt>
      <trkpt lat="62.90427" lon="6.94157">
        <ele>59.167591</ele>
        <time>2020-08-02T13:09:52.557Z</time>
      </trkpt>
      <trkpt lat="62.90429" lon="6.94131">
        <ele>58.964026</ele>
        <time>2020-08-02T13:09:54.539Z</time>
      </trkpt>
      <trkpt lat="62.9043" lon="6.94105">
        <ele>58.756286</ele>
        <time>2020-08-02T13:09:56.541Z</time>
      </trkpt>
      <trkpt lat="62.90432" lon="6.94078">
        <ele>58.604906</ele>
        <time>2020-08-02T13:09:58.572Z</time>
      </trkpt>
      <trkpt lat="62.90435" lon="6.94052">
        <ele>58.5495</ele>
        <time>2020-08-02T13:10:00.569Z</time>
      </trkpt>
      <trkpt lat="62.90437" lon="6.94025">
        <ele>58.495203</ele>
        <time>2020-08-02T13:10:02.554Z</time>
      </trkpt>
      <trkpt lat="62.90438" lon="6.93999">
        <ele>58.441285</ele>
        <time>2020-08-02T13:10:04.557Z</time>
      </trkpt>
      <trkpt lat="62.9044" lon="6.93974">
        <ele>58.388586</ele>
        <time>2020-08-02T13:10:06.551Z</time>
      </trkpt>
      <trkpt lat="62.90441" lon="6.93948">
        <ele>58.335937</ele>
        <time>2020-08-02T13:10:08.561Z</time>
      </trkpt>
      <trkpt lat="62.90442" lon="6.93922">
        <ele>58.283421</ele>
        <time>2020-08-02T13:10:10.584Z</time>
      </trkpt>
      <trkpt lat="62.90443" lon="6.93898">
        <ele>58.232534</ele>
        <time>2020-08-02T13:10:12.552Z</time>
      </trkpt>
      <trkpt lat="62.90444" lon="6.93873">
        <ele>58.181606</ele>
        <time>2020-08-02T13:10:14.584Z</time>
      </trkpt>
      <trkpt lat="62.90445" lon="6.93849">
        <ele>58.132656</ele>
        <time>2020-08-02T13:10:16.549Z</time>
      </trkpt>
      <trkpt lat="62.90445" lon="6.93825">
        <ele>58.083992</ele>
        <time>2020-08-02T13:10:18.542Z</time>
      </trkpt>
      <trkpt lat="62.90446" lon="6.93801">
        <ele>58.033584</ele>
        <time>2020-08-02T13:10:20.563Z</time>
      </trkpt>
      <trkpt lat="62.90446" lon="6.93777">
        <ele>57.984907</ele>
        <time>2020-08-02T13:10:22.559Z</time>
      </trkpt>
      <trkpt lat="62.90447" lon="6.93753">
        <ele>57.93706</ele>
        <time>2020-08-02T13:10:24.557Z</time>
      </trkpt>
      <trkpt lat="62.90447" lon="6.93729">
        <ele>57.888203</ele>
        <time>2020-08-02T13:10:26.557Z</time>
      </trkpt>
      <trkpt lat="62.90447" lon="6.93706">
        <ele>57.840572</ele>
        <time>2020-08-02T13:10:28.557Z</time>
      </trkpt>
      <trkpt lat="62.90446" lon="6.93683">
        <ele>57.741807</ele>
        <time>2020-08-02T13:10:30.556Z</time>
      </trkpt>
      <trkpt lat="62.90445" lon="6.9366">
        <ele>57.606619</ele>
        <time>2020-08-02T13:10:32.568Z</time>
      </trkpt>
      <trkpt lat="62.90445" lon="6.93636">
        <ele>57.470461</ele>
        <time>2020-08-02T13:10:34.588Z</time>
      </trkpt>
      <trkpt lat="62.90445" lon="6.93613">
        <ele>57.330876</ele>
        <time>2020-08-02T13:10:36.551Z</time>
      </trkpt>
      <trkpt lat="62.90444" lon="6.93588">
        <ele>57.18757</ele>
        <time>2020-08-02T13:10:38.549Z</time>
      </trkpt>
      <trkpt lat="62.90444" lon="6.93564">
        <ele>57.047381</ele>
        <time>2020-08-02T13:10:40.539Z</time>
      </trkpt>
      <trkpt lat="62.90444" lon="6.9354">
        <ele>56.907191</ele>
        <time>2020-08-02T13:10:42.545Z</time>
      </trkpt>
      <trkpt lat="62.90444" lon="6.93517">
        <ele>56.770545</ele>
        <time>2020-08-02T13:10:44.572Z</time>
      </trkpt>
      <trkpt lat="62.90444" lon="6.93494">
        <ele>56.633257</ele>
        <time>2020-08-02T13:10:46.539Z</time>
      </trkpt>
      <trkpt lat="62.90444" lon="6.93471">
        <ele>56.49837</ele>
        <time>2020-08-02T13:10:48.564Z</time>
      </trkpt>
      <trkpt lat="62.90444" lon="6.93447">
        <ele>56.361699</ele>
        <time>2020-08-02T13:10:50.547Z</time>
      </trkpt>
      <trkpt lat="62.90445" lon="6.93425">
        <ele>56.227588</ele>
        <time>2020-08-02T13:10:52.592Z</time>
      </trkpt>
      <trkpt lat="62.90446" lon="6.93402">
        <ele>56.092402</ele>
        <time>2020-08-02T13:10:54.558Z</time>
      </trkpt>
      <trkpt lat="62.90447" lon="6.93378">
        <ele>55.949894</ele>
        <time>2020-08-02T13:10:56.550Z</time>
      </trkpt>
      <trkpt lat="62.90448" lon="6.93351">
        <ele>55.793582</ele>
        <time>2020-08-02T13:10:58.548Z</time>
      </trkpt>
      <trkpt lat="62.9045" lon="6.93324">
        <ele>55.632604</ele>
        <time>2020-08-02T13:11:00.564Z</time>
      </trkpt>
      <trkpt lat="62.90451" lon="6.93296">
        <ele>55.500442</ele>
        <time>2020-08-02T13:11:02.556Z</time>
      </trkpt>
      <trkpt lat="62.90453" lon="6.93269">
        <ele>55.48643</ele>
        <time>2020-08-02T13:11:04.561Z</time>
      </trkpt>
      <trkpt lat="62.90454" lon="6.9324">
        <ele>55.471912</ele>
        <time>2020-08-02T13:11:06.546Z</time>
      </trkpt>
      <trkpt lat="62.90455" lon="6.93211">
        <ele>55.457075</ele>
        <time>2020-08-02T13:11:08.568Z</time>
      </trkpt>
      <trkpt lat="62.90457" lon="6.93182">
        <ele>55.442277</ele>
        <time>2020-08-02T13:11:10.563Z</time>
      </trkpt>
      <trkpt lat="62.90459" lon="6.93153">
        <ele>55.427313</ele>
        <time>2020-08-02T13:11:12.564Z</time>
      </trkpt>
      <trkpt lat="62.9046" lon="6.93125">
        <ele>55.412666</ele>
        <time>2020-08-02T13:11:14.543Z</time>
      </trkpt>
      <trkpt lat="62.90462" lon="6.93097">
        <ele>55.398273</ele>
        <time>2020-08-02T13:11:16.570Z</time>
      </trkpt>
      <trkpt lat="62.90464" lon="6.9307">
        <ele>55.384586</ele>
        <time>2020-08-02T13:11:18.551Z</time>
      </trkpt>
      <trkpt lat="62.90465" lon="6.93045">
        <ele>55.371764</ele>
        <time>2020-08-02T13:11:20.549Z</time>
      </trkpt>
      <trkpt lat="62.90466" lon="6.93021">
        <ele>55.359563</ele>
        <time>2020-08-02T13:11:22.559Z</time>
      </trkpt>
      <trkpt lat="62.90468" lon="6.92999">
        <ele>55.347789</ele>
        <time>2020-08-02T13:11:24.550Z</time>
      </trkpt>
      <trkpt lat="62.90469" lon="6.92978">
        <ele>55.337119</ele>
        <time>2020-08-02T13:11:26.542Z</time>
      </trkpt>
      <trkpt lat="62.90471" lon="6.9295">
        <ele>55.322672</ele>
        <time>2020-08-02T13:11:29.599Z</time>
      </trkpt>
      <trkpt lat="62.90473" lon="6.92929">
        <ele>55.31199</ele>
        <time>2020-08-02T13:11:32.546Z</time>
      </trkpt>
      <trkpt lat="62.90473" lon="6.92907">
        <ele>55.302283</ele>
        <time>2020-08-02T13:11:45.565Z</time>
      </trkpt>
      <trkpt lat="62.90461" lon="6.92902">
        <ele>55.302283</ele>
        <time>2020-08-02T13:11:50.550Z</time>
      </trkpt>
      <trkpt lat="62.90449" lon="6.929">
        <ele>55.302283</ele>
        <time>2020-08-02T13:11:53.593Z</time>
      </trkpt>
      <trkpt lat="62.90438" lon="6.929">
        <ele>55.302283</ele>
        <time>2020-08-02T13:11:56.568Z</time>
      </trkpt>
      <trkpt lat="62.90426" lon="6.92898">
        <ele>55.302283</ele>
        <time>2020-08-02T13:11:59.539Z</time>
      </trkpt>
      <trkpt lat="62.90415" lon="6.92895">
        <ele>55.302283</ele>
        <time>2020-08-02T13:12:02.541Z</time>
      </trkpt>
      <trkpt lat="62.90405" lon="6.92892">
        <ele>55.302283</ele>
        <time>2020-08-02T13:12:05.583Z</time>
      </trkpt>
      <trkpt lat="62.90396" lon="6.92884">
        <ele>55.302283</ele>
        <time>2020-08-02T13:12:09.541Z</time>
      </trkpt>
      <trkpt lat="62.90396" lon="6.92905">
        <ele>55.302283</ele>
        <time>2020-08-02T13:17:10.552Z</time>
      </trkpt>
      <trkpt lat="62.90399" lon="6.9293">
        <ele>55.302283</ele>
        <time>2020-08-02T13:17:14.554Z</time>
      </trkpt>
      <trkpt lat="62.90401" lon="6.92951">
        <ele>55.302283</ele>
        <time>2020-08-02T13:17:18.548Z</time>
      </trkpt>
      <trkpt lat="62.90402" lon="6.92973">
        <ele>55.302283</ele>
        <time>2020-08-02T13:17:24.537Z</time>
      </trkpt>
      <trkpt lat="62.90403" lon="6.92994">
        <ele>55.302283</ele>
        <time>2020-08-02T13:17:28.550Z</time>
      </trkpt>
      <trkpt lat="62.90405" lon="6.93015">
        <ele>55.302283</ele>
        <time>2020-08-02T13:17:32.550Z</time>
      </trkpt>
      <trkpt lat="62.90411" lon="6.93033">
        <ele>55.302283</ele>
        <time>2020-08-02T13:17:37.578Z</time>
      </trkpt>
      <trkpt lat="62.90426" lon="6.93045">
        <ele>55.302283</ele>
        <time>2020-08-02T13:27:06.117Z</time>
      </trkpt>
    </trkseg>
  </trk>
</gpx>